<?xml version='1.0' encoding='UTF-8'?><gpx version="1.1" creator="JPX - https://github.com/jenetics/jpx" xmlns="http://www.topografix.com/GPX/1/1"><trk><trkseg><trkpt lat="43.075260724344446" lon="13.06032857206795"><ele>431.0</ele><time>2026-04-18T07:10:35.999Z</time></trkpt><trkpt lat="43.07526062784863" lon="13.060440280566297"><ele>431.0</ele><time>2026-04-18T07:15:01Z</time></trkpt><trkpt lat="43.07527478952608" lon="13.060539680571257"><ele>431.0</ele><time>2026-04-18T07:15:03Z</time></trkpt><trkpt lat="43.07530925886373" lon="13.060633851646303"><ele>431.0</ele><time>2026-04-18T07:15:05Z</time></trkpt><trkpt lat="43.07536813960215" lon="13.060686714402012"><ele>431.0</ele><time>2026-04-18T07:15:07Z</time></trkpt><trkpt lat="43.07543625340717" lon="13.06070785654568"><ele>431.0</ele><time>2026-04-18T07:15:09Z</time></trkpt><trkpt lat="43.07550206677489" lon="13.060733127591165"><ele>431.0</ele><time>2026-04-18T07:15:11Z</time></trkpt><trkpt lat="43.07558431556181" lon="13.060653630016075"><ele>430.99999999999994</ele><time>2026-04-18T07:15:14Z</time></trkpt><trkpt lat="43.07557958870481" lon="13.060548061069708"><ele>431.0</ele><time>2026-04-18T07:15:16Z</time></trkpt><trkpt lat="43.075604056117655" lon="13.06046603494157"><ele>431.0</ele><time>2026-04-18T07:19:32Z</time></trkpt><trkpt lat="43.07565499540122" lon="13.060355552224674"><ele>431.0</ele><time>2026-04-18T07:19:34Z</time></trkpt><trkpt lat="43.07571140833046" lon="13.060281716910193"><ele>430.99999999999994</ele><time>2026-04-18T07:19:36Z</time></trkpt><trkpt lat="43.07578896027252" lon="13.060258806131671"><ele>431.0</ele><time>2026-04-18T07:19:39Z</time></trkpt><trkpt lat="43.075849058718426" lon="13.06021096570775"><ele>432.20000000000005</ele><time>2026-04-18T07:19:45Z</time></trkpt><trkpt lat="43.07590584142732" lon="13.060081533267962"><ele>433.40000000000003</ele><time>2026-04-18T07:19:47Z</time></trkpt><trkpt lat="43.075930138823345" lon="13.060000076183107"><ele>434.6</ele><time>2026-04-18T07:19:48Z</time></trkpt><trkpt lat="43.07597956946201" lon="13.059826167877986"><ele>435.8</ele><time>2026-04-18T07:19:50Z</time></trkpt><trkpt lat="43.07600478933842" lon="13.059732276103059"><ele>437.0</ele><time>2026-04-18T07:19:51Z</time></trkpt><trkpt lat="43.0760304431638" lon="13.059627507986367"><ele>436.99999999999994</ele><time>2026-04-18T07:19:52Z</time></trkpt><trkpt lat="43.07605579658999" lon="13.059515601501587"><ele>437.0</ele><time>2026-04-18T07:19:53Z</time></trkpt><trkpt lat="43.07608463685855" lon="13.059400941627375"><ele>437.0</ele><time>2026-04-18T07:19:54Z</time></trkpt><trkpt lat="43.07611120249288" lon="13.059292547828775"><ele>437.0</ele><time>2026-04-18T07:19:55Z</time></trkpt><trkpt lat="43.07614059367641" lon="13.059175342733838"><ele>436.99999999999994</ele><time>2026-04-18T07:19:56Z</time></trkpt><trkpt lat="43.07617174542841" lon="13.059057557445605"><ele>437.0</ele><time>2026-04-18T07:19:57Z</time></trkpt><trkpt lat="43.07620558119457" lon="13.058934894358345"><ele>436.6</ele><time>2026-04-18T07:19:58Z</time></trkpt><trkpt lat="43.076233554211505" lon="13.058816557789568"><ele>436.20000000000005</ele><time>2026-04-18T07:19:59Z</time></trkpt><trkpt lat="43.076263003775075" lon="13.058700072378018"><ele>435.8</ele><time>2026-04-18T07:20:00Z</time></trkpt><trkpt lat="43.07629533752916" lon="13.058577934938878"><ele>435.4</ele><time>2026-04-18T07:20:01Z</time></trkpt><trkpt lat="43.07632440098787" lon="13.058463635318887"><ele>435.0</ele><time>2026-04-18T07:20:02Z</time></trkpt><trkpt lat="43.07635302895969" lon="13.058335758574406"><ele>434.75</ele><time>2026-04-18T07:20:03Z</time></trkpt><trkpt lat="43.07638488022118" lon="13.058190871461079"><ele>434.5</ele><time>2026-04-18T07:20:04Z</time></trkpt><trkpt lat="43.076421091603244" lon="13.058038980867366"><ele>434.25</ele><time>2026-04-18T07:20:05Z</time></trkpt><trkpt lat="43.076473535976724" lon="13.057892852105539"><ele>434.0</ele><time>2026-04-18T07:20:06Z</time></trkpt><trkpt lat="43.076511593196145" lon="13.057734450140243"><ele>434.0</ele><time>2026-04-18T07:20:07Z</time></trkpt><trkpt lat="43.07655292189118" lon="13.057574299760498"><ele>434.0</ele><time>2026-04-18T07:20:08Z</time></trkpt><trkpt lat="43.076594389402196" lon="13.057415384154398"><ele>434.0</ele><time>2026-04-18T07:20:09Z</time></trkpt><trkpt lat="43.07663634252897" lon="13.057268632050626"><ele>434.0</ele><time>2026-04-18T07:20:10Z</time></trkpt><trkpt lat="43.07667867025111" lon="13.057133765539698"><ele>434.75</ele><time>2026-04-18T07:20:11Z</time></trkpt><trkpt lat="43.07672930324367" lon="13.056986449773191"><ele>435.5</ele><time>2026-04-18T07:20:12Z</time></trkpt><trkpt lat="43.07678542232201" lon="13.056832868725136"><ele>436.25</ele><time>2026-04-18T07:20:13Z</time></trkpt><trkpt lat="43.07684221240824" lon="13.056679987909897"><ele>437.0</ele><time>2026-04-18T07:20:14Z</time></trkpt><trkpt lat="43.07690223483566" lon="13.056522114837945"><ele>437.0</ele><time>2026-04-18T07:20:15Z</time></trkpt><trkpt lat="43.07695541718437" lon="13.05637615350074"><ele>437.0</ele><time>2026-04-18T07:20:16Z</time></trkpt><trkpt lat="43.07700807893687" lon="13.056208867100043"><ele>437.0</ele><time>2026-04-18T07:20:17Z</time></trkpt><trkpt lat="43.07705949844724" lon="13.056060215884619"><ele>437.0</ele><time>2026-04-18T07:20:18Z</time></trkpt><trkpt lat="43.07712186364207" lon="13.055912755854676"><ele>437.75</ele><time>2026-04-18T07:20:19Z</time></trkpt><trkpt lat="43.077182647462365" lon="13.055765927537385"><ele>438.5</ele><time>2026-04-18T07:20:19.999Z</time></trkpt><trkpt lat="43.07724692385071" lon="13.055625055346198"><ele>439.25</ele><time>2026-04-18T07:20:20.999Z</time></trkpt><trkpt lat="43.07731939061452" lon="13.055487967001081"><ele>440.0</ele><time>2026-04-18T07:20:21.999Z</time></trkpt><trkpt lat="43.07739487512794" lon="13.05535423884514"><ele>440.0</ele><time>2026-04-18T07:20:22.999Z</time></trkpt><trkpt lat="43.07747117100095" lon="13.05521751449801"><ele>440.0</ele><time>2026-04-18T07:20:23.999Z</time></trkpt><trkpt lat="43.07755113171071" lon="13.055091834963797"><ele>440.0</ele><time>2026-04-18T07:20:24.999Z</time></trkpt><trkpt lat="43.077630901426886" lon="13.054962272578788"><ele>440.0</ele><time>2026-04-18T07:20:25.999Z</time></trkpt><trkpt lat="43.077712526292956" lon="13.054827817248764"><ele>440.0</ele><time>2026-04-18T07:20:26.999Z</time></trkpt><trkpt lat="43.07779544788081" lon="13.054691412460691"><ele>440.0</ele><time>2026-04-18T07:20:27.999Z</time></trkpt><trkpt lat="43.07788024045791" lon="13.05455896488101"><ele>440.0</ele><time>2026-04-18T07:20:28.999Z</time></trkpt><trkpt lat="43.0779651721143" lon="13.054428471248189"><ele>440.0</ele><time>2026-04-18T07:20:29.999Z</time></trkpt><trkpt lat="43.07804852073303" lon="13.05429418057782"><ele>440.0</ele><time>2026-04-18T07:20:30.999Z</time></trkpt><trkpt lat="43.078131241363074" lon="13.054157904496712"><ele>440.0</ele><time>2026-04-18T07:20:31.999Z</time></trkpt><trkpt lat="43.078214699909694" lon="13.054022213045558"><ele>440.0</ele><time>2026-04-18T07:20:32.999Z</time></trkpt><trkpt lat="43.07829827035273" lon="13.053886606181157"><ele>440.0</ele><time>2026-04-18T07:20:33.999Z</time></trkpt><trkpt lat="43.078383494704255" lon="13.053751402921282"><ele>440.0</ele><time>2026-04-18T07:20:34.999Z</time></trkpt><trkpt lat="43.07846952665611" lon="13.053614451100211"><ele>440.0</ele><time>2026-04-18T07:20:35.999Z</time></trkpt><trkpt lat="43.07855486866747" lon="13.053477496593246"><ele>440.0</ele><time>2026-04-18T07:20:36.999Z</time></trkpt><trkpt lat="43.07863717456191" lon="13.053341409871486"><ele>440.0</ele><time>2026-04-18T07:20:37.999Z</time></trkpt><trkpt lat="43.07872312556694" lon="13.053206870990723"><ele>440.0</ele><time>2026-04-18T07:20:38.999Z</time></trkpt><trkpt lat="43.07880714942321" lon="13.0530738322827"><ele>440.0</ele><time>2026-04-18T07:20:39.999Z</time></trkpt><trkpt lat="43.07889332472208" lon="13.05293682507955"><ele>440.0</ele><time>2026-04-18T07:20:40.999Z</time></trkpt><trkpt lat="43.0789830204187" lon="13.052794912230688"><ele>440.0</ele><time>2026-04-18T07:20:41.999Z</time></trkpt><trkpt lat="43.07907535187703" lon="13.052646008452383"><ele>441.0</ele><time>2026-04-18T07:20:42.999Z</time></trkpt><trkpt lat="43.07916992701977" lon="13.052494952868457"><ele>442.0</ele><time>2026-04-18T07:20:43.999Z</time></trkpt><trkpt lat="43.07926340155877" lon="13.052343474205456"><ele>443.0</ele><time>2026-04-18T07:20:44.999Z</time></trkpt><trkpt lat="43.07935763963486" lon="13.052191587449624"><ele>444.0</ele><time>2026-04-18T07:20:45.999Z</time></trkpt><trkpt lat="43.07945249193422" lon="13.052041048863597"><ele>444.0</ele><time>2026-04-18T07:20:46.999Z</time></trkpt><trkpt lat="43.07954619105847" lon="13.051889176123904"><ele>444.0</ele><time>2026-04-18T07:20:47.999Z</time></trkpt><trkpt lat="43.079636626704044" lon="13.051742508207289"><ele>444.0</ele><time>2026-04-18T07:20:48.999Z</time></trkpt><trkpt lat="43.079725997462255" lon="13.051599800133461"><ele>444.0</ele><time>2026-04-18T07:20:49.999Z</time></trkpt><trkpt lat="43.0798134066945" lon="13.05145619882128"><ele>444.25</ele><time>2026-04-18T07:20:50.999Z</time></trkpt><trkpt lat="43.07990166173612" lon="13.05130917213236"><ele>444.5</ele><time>2026-04-18T07:20:51.999Z</time></trkpt><trkpt lat="43.07999114103604" lon="13.051161987022214"><ele>444.75</ele><time>2026-04-18T07:20:52.999Z</time></trkpt><trkpt lat="43.080098100560875" lon="13.051023519311299"><ele>445.0</ele><time>2026-04-18T07:20:53.999Z</time></trkpt><trkpt lat="43.08017843156088" lon="13.050857984441823"><ele>445.5</ele><time>2026-04-18T07:20:54.999Z</time></trkpt><trkpt lat="43.08026911244629" lon="13.050702454030638"><ele>446.0</ele><time>2026-04-18T07:20:55.999Z</time></trkpt><trkpt lat="43.08034736397805" lon="13.050542288497068"><ele>446.5</ele><time>2026-04-18T07:20:56.999Z</time></trkpt><trkpt lat="43.08041304888581" lon="13.050369009858422"><ele>447.0</ele><time>2026-04-18T07:20:57.999Z</time></trkpt><trkpt lat="43.08046736682966" lon="13.050185709477114"><ele>447.0</ele><time>2026-04-18T07:20:58.999Z</time></trkpt><trkpt lat="43.080508686346114" lon="13.050008128628239"><ele>447.0</ele><time>2026-04-18T07:20:59.999Z</time></trkpt><trkpt lat="43.080539561448944" lon="13.049821601283092"><ele>447.0</ele><time>2026-04-18T07:21:00.999Z</time></trkpt><trkpt lat="43.080563293439276" lon="13.049634555044435"><ele>447.0</ele><time>2026-04-18T07:21:01.999Z</time></trkpt><trkpt lat="43.08058864700567" lon="13.049450584753634"><ele>447.0</ele><time>2026-04-18T07:21:02.999Z</time></trkpt><trkpt lat="43.08061272389392" lon="13.049262419780085"><ele>447.0</ele><time>2026-04-18T07:21:03.999Z</time></trkpt><trkpt lat="43.080636159735676" lon="13.04908098505649"><ele>447.0</ele><time>2026-04-18T07:21:04.999Z</time></trkpt><trkpt lat="43.08066146438167" lon="13.04890051856976"><ele>447.0</ele><time>2026-04-18T07:21:06Z</time></trkpt><trkpt lat="43.0806871561293" lon="13.048716815799143"><ele>447.5</ele><time>2026-04-18T07:21:07Z</time></trkpt><trkpt lat="43.08071093174126" lon="13.048536089563568"><ele>448.0</ele><time>2026-04-18T07:21:08Z</time></trkpt><trkpt lat="43.08073321934251" lon="13.04835705780963"><ele>448.5</ele><time>2026-04-18T07:21:09Z</time></trkpt><trkpt lat="43.08075538002389" lon="13.048177751178088"><ele>449.0</ele><time>2026-04-18T07:21:10Z</time></trkpt><trkpt lat="43.08078195476877" lon="13.047997313638062"><ele>449.25</ele><time>2026-04-18T07:21:11Z</time></trkpt><trkpt lat="43.08080756863796" lon="13.047811394914001"><ele>449.5</ele><time>2026-04-18T07:21:12Z</time></trkpt><trkpt lat="43.08082875914547" lon="13.047641408285541"><ele>449.75</ele><time>2026-04-18T07:21:13Z</time></trkpt><trkpt lat="43.080847229968754" lon="13.047470170993094"><ele>450.0</ele><time>2026-04-18T07:21:14Z</time></trkpt><trkpt lat="43.080865349911704" lon="13.047303951806771"><ele>450.0</ele><time>2026-04-18T07:21:15Z</time></trkpt><trkpt lat="43.0808649812049" lon="13.047121454459202"><ele>450.0</ele><time>2026-04-18T07:21:16Z</time></trkpt><trkpt lat="43.08085967209514" lon="13.04693911304972"><ele>450.0</ele><time>2026-04-18T07:21:17Z</time></trkpt><trkpt lat="43.08085393551929" lon="13.046752120568641"><ele>450.0</ele><time>2026-04-18T07:21:18Z</time></trkpt><trkpt lat="43.08084984194124" lon="13.046566432856087"><ele>450.25</ele><time>2026-04-18T07:21:19Z</time></trkpt><trkpt lat="43.0808442199513" lon="13.046378542466407"><ele>450.5</ele><time>2026-04-18T07:21:20Z</time></trkpt><trkpt lat="43.080835344681944" lon="13.046186165927889"><ele>450.75</ele><time>2026-04-18T07:21:21Z</time></trkpt><trkpt lat="43.080828727858666" lon="13.045994490433335"><ele>451.0</ele><time>2026-04-18T07:21:22Z</time></trkpt><trkpt lat="43.08082026677027" lon="13.045808142546129"><ele>451.5</ele><time>2026-04-18T07:21:23Z</time></trkpt><trkpt lat="43.08081305211734" lon="13.045619977625538"><ele>452.0</ele><time>2026-04-18T07:21:24Z</time></trkpt><trkpt lat="43.080807083023004" lon="13.045435403535691"><ele>452.5</ele><time>2026-04-18T07:21:25Z</time></trkpt><trkpt lat="43.080798781064814" lon="13.045246015192452"><ele>453.0</ele><time>2026-04-18T07:21:26Z</time></trkpt><trkpt lat="43.08079023817679" lon="13.04505544798676"><ele>453.25</ele><time>2026-04-18T07:21:27Z</time></trkpt><trkpt lat="43.080780098077156" lon="13.044859522450924"><ele>453.5</ele><time>2026-04-18T07:21:28Z</time></trkpt><trkpt lat="43.08077185391053" lon="13.044663212168988"><ele>453.75</ele><time>2026-04-18T07:21:29Z</time></trkpt><trkpt lat="43.08076613865567" lon="13.044472653011072"><ele>454.0</ele><time>2026-04-18T07:21:30Z</time></trkpt><trkpt lat="43.080759025749984" lon="13.044287613232386"><ele>455.5</ele><time>2026-04-18T07:21:31Z</time></trkpt><trkpt lat="43.080752499359946" lon="13.044106675100645"><ele>457.0</ele><time>2026-04-18T07:21:32Z</time></trkpt><trkpt lat="43.080746412671104" lon="13.04392993708383"><ele>458.5</ele><time>2026-04-18T07:21:33Z</time></trkpt><trkpt lat="43.08073912537831" lon="13.043761191460844"><ele>460.0</ele><time>2026-04-18T07:21:34Z</time></trkpt><trkpt lat="43.080732842764256" lon="13.043592017168162"><ele>460.0</ele><time>2026-04-18T07:21:35Z</time></trkpt><trkpt lat="43.08072475691086" lon="13.043419096289107"><ele>460.0</ele><time>2026-04-18T07:21:36Z</time></trkpt><trkpt lat="43.08072035659562" lon="13.04324097604036"><ele>460.0</ele><time>2026-04-18T07:21:37Z</time></trkpt><trkpt lat="43.08071271478534" lon="13.043062207987168"><ele>460.0</ele><time>2026-04-18T07:21:38Z</time></trkpt><trkpt lat="43.080705571626645" lon="13.042885757108882"><ele>460.5</ele><time>2026-04-18T07:21:39Z</time></trkpt><trkpt lat="43.08069749488436" lon="13.04270578115903"><ele>461.0</ele><time>2026-04-18T07:21:40Z</time></trkpt><trkpt lat="43.08069147935886" lon="13.042524519119596"><ele>461.5</ele><time>2026-04-18T07:21:41Z</time></trkpt><trkpt lat="43.08068314941236" lon="13.042344816819268"><ele>462.0</ele><time>2026-04-18T07:21:42Z</time></trkpt><trkpt lat="43.08067628551932" lon="13.042168941044846"><ele>462.75</ele><time>2026-04-18T07:21:43Z</time></trkpt><trkpt lat="43.080668569924136" lon="13.042000298947551"><ele>463.5</ele><time>2026-04-18T07:21:44Z</time></trkpt><trkpt lat="43.08066196179672" lon="13.041825535808911"><ele>464.25</ele><time>2026-04-18T07:21:45Z</time></trkpt><trkpt lat="43.080655957037706" lon="13.041657647787028"><ele>465.0</ele><time>2026-04-18T07:21:46Z</time></trkpt><trkpt lat="43.080651195038264" lon="13.04148994941808"><ele>465.75</ele><time>2026-04-18T07:21:47Z</time></trkpt><trkpt lat="43.08064385394679" lon="13.041325300745383"><ele>466.5</ele><time>2026-04-18T07:21:48Z</time></trkpt><trkpt lat="43.080633410978535" lon="13.04115593980662"><ele>467.25</ele><time>2026-04-18T07:21:49Z</time></trkpt><trkpt lat="43.080621753476436" lon="13.040977848077047"><ele>468.0</ele><time>2026-04-18T07:21:50Z</time></trkpt><trkpt lat="43.08061530501593" lon="13.040798774540555"><ele>469.0</ele><time>2026-04-18T07:21:51Z</time></trkpt><trkpt lat="43.080611129266806" lon="13.040617411935036"><ele>470.0</ele><time>2026-04-18T07:21:52Z</time></trkpt><trkpt lat="43.08060326935204" lon="13.040427025114344"><ele>471.0</ele><time>2026-04-18T07:21:53Z</time></trkpt><trkpt lat="43.08059358572674" lon="13.040239234385773"><ele>472.0</ele><time>2026-04-18T07:21:54Z</time></trkpt><trkpt lat="43.08058151367958" lon="13.040054372086866"><ele>473.75</ele><time>2026-04-18T07:21:55Z</time></trkpt><trkpt lat="43.080576958625244" lon="13.039866369725802"><ele>475.5</ele><time>2026-04-18T07:21:56Z</time></trkpt><trkpt lat="43.08057173773455" lon="13.039667560297588"><ele>477.25</ele><time>2026-04-18T07:21:57Z</time></trkpt><trkpt lat="43.08056079424772" lon="13.03946091573878"><ele>479.0</ele><time>2026-04-18T07:21:58Z</time></trkpt><trkpt lat="43.08054300836084" lon="13.039247294803433"><ele>479.3333333333333</ele><time>2026-04-18T07:21:59Z</time></trkpt><trkpt lat="43.08048301474682" lon="13.039063533801631"><ele>479.66666666666663</ele><time>2026-04-18T07:22:00Z</time></trkpt><trkpt lat="43.080400779843586" lon="13.038877356739883"><ele>480.0</ele><time>2026-04-18T07:22:01Z</time></trkpt><trkpt lat="43.080312636076755" lon="13.038690633945384"><ele>480.0</ele><time>2026-04-18T07:22:02Z</time></trkpt><trkpt lat="43.08023904444821" lon="13.03850157185901"><ele>480.0</ele><time>2026-04-18T07:22:03Z</time></trkpt><trkpt lat="43.080143863259394" lon="13.038330233214463"><ele>480.0</ele><time>2026-04-18T07:22:04Z</time></trkpt><trkpt lat="43.08008556057275" lon="13.038133050575631"><ele>477.5</ele><time>2026-04-18T07:22:05Z</time></trkpt><trkpt lat="43.08000443770621" lon="13.037960023832273"><ele>475.0</ele><time>2026-04-18T07:22:06Z</time></trkpt><trkpt lat="43.07993764557079" lon="13.03777128005702"><ele>472.5</ele><time>2026-04-18T07:22:07Z</time></trkpt><trkpt lat="43.07987551966026" lon="13.03759128843315"><ele>470.0</ele><time>2026-04-18T07:22:08Z</time></trkpt><trkpt lat="43.07980838070202" lon="13.037408942655395"><ele>479.0</ele><time>2026-04-18T07:22:09Z</time></trkpt><trkpt lat="43.07974403932641" lon="13.037231447388878"><ele>488.0</ele><time>2026-04-18T07:22:10Z</time></trkpt><trkpt lat="43.07967360267891" lon="13.03704237063413"><ele>497.0</ele><time>2026-04-18T07:22:11Z</time></trkpt><trkpt lat="43.07959881002517" lon="13.036864670683457"><ele>497.0</ele><time>2026-04-18T07:22:12Z</time></trkpt><trkpt lat="43.07953629710498" lon="13.036678817853064"><ele>497.0</ele><time>2026-04-18T07:22:13Z</time></trkpt><trkpt lat="43.07945614716422" lon="13.036508933903983"><ele>497.0</ele><time>2026-04-18T07:22:14Z</time></trkpt><trkpt lat="43.079381579491304" lon="13.036343159702295"><ele>497.0</ele><time>2026-04-18T07:22:15Z</time></trkpt><trkpt lat="43.07931614728739" lon="13.036166830615336"><ele>493.25</ele><time>2026-04-18T07:22:16Z</time></trkpt><trkpt lat="43.07923917448659" lon="13.035992851571944"><ele>489.5</ele><time>2026-04-18T07:22:17Z</time></trkpt><trkpt lat="43.07917104314571" lon="13.035818393664089"><ele>485.75</ele><time>2026-04-18T07:22:18Z</time></trkpt><trkpt lat="43.07907969908581" lon="13.035651421987081"><ele>482.0</ele><time>2026-04-18T07:22:19Z</time></trkpt><trkpt lat="43.07896174724652" lon="13.03554991393989"><ele>482.0</ele><time>2026-04-18T07:22:20Z</time></trkpt><trkpt lat="43.07882969654124" lon="13.035469696588681"><ele>482.0</ele><time>2026-04-18T07:22:21Z</time></trkpt><trkpt lat="43.07869584102587" lon="13.035380333392714"><ele>482.0</ele><time>2026-04-18T07:22:22Z</time></trkpt><trkpt lat="43.078577411870384" lon="13.035268858448669"><ele>482.0</ele><time>2026-04-18T07:22:23Z</time></trkpt><trkpt lat="43.07846940867366" lon="13.035134667360174"><ele>482.0</ele><time>2026-04-18T07:22:24Z</time></trkpt><trkpt lat="43.07835463124295" lon="13.034992884643591"><ele>482.0</ele><time>2026-04-18T07:22:25Z</time></trkpt><trkpt lat="43.078240043688595" lon="13.034863256840067"><ele>482.0</ele><time>2026-04-18T07:22:26Z</time></trkpt><trkpt lat="43.07811676227171" lon="13.034734409835892"><ele>480.5</ele><time>2026-04-18T07:22:27Z</time></trkpt><trkpt lat="43.07798797773863" lon="13.034628987504727"><ele>479.0</ele><time>2026-04-18T07:22:28Z</time></trkpt><trkpt lat="43.07785440283959" lon="13.034545760815256"><ele>477.5</ele><time>2026-04-18T07:22:29Z</time></trkpt><trkpt lat="43.07771279555156" lon="13.034474172382703"><ele>476.0</ele><time>2026-04-18T07:22:30Z</time></trkpt><trkpt lat="43.07757833091917" lon="13.034408068029315"><ele>476.0</ele><time>2026-04-18T07:22:30.999Z</time></trkpt><trkpt lat="43.07744459130451" lon="13.034336925479087"><ele>476.0</ele><time>2026-04-18T07:22:31.999Z</time></trkpt><trkpt lat="43.07731713068014" lon="13.034243771527073"><ele>476.0</ele><time>2026-04-18T07:22:32.999Z</time></trkpt><trkpt lat="43.07718993503352" lon="13.034118219777936"><ele>476.0</ele><time>2026-04-18T07:22:33.999Z</time></trkpt><trkpt lat="43.077093029855064" lon="13.033988132739"><ele>483.25</ele><time>2026-04-18T07:22:34.999Z</time></trkpt><trkpt lat="43.077009303724566" lon="13.033825523505254"><ele>490.5</ele><time>2026-04-18T07:22:35.999Z</time></trkpt><trkpt lat="43.07695187682605" lon="13.033650649109225"><ele>497.75</ele><time>2026-04-18T07:22:36.999Z</time></trkpt><trkpt lat="43.07694369073822" lon="13.033462669275135"><ele>505.0</ele><time>2026-04-18T07:22:37.999Z</time></trkpt><trkpt lat="43.07695919002865" lon="13.033271582465215"><ele>507.0</ele><time>2026-04-18T07:22:38.999Z</time></trkpt><trkpt lat="43.07698278644978" lon="13.033077798295103"><ele>509.0</ele><time>2026-04-18T07:22:39.999Z</time></trkpt><trkpt lat="43.07699416777704" lon="13.032872521269562"><ele>511.0</ele><time>2026-04-18T07:22:40.999Z</time></trkpt><trkpt lat="43.07702266746705" lon="13.032664484075402"><ele>513.0</ele><time>2026-04-18T07:22:41.999Z</time></trkpt><trkpt lat="43.07704619424648" lon="13.032460164525396"><ele>518.0</ele><time>2026-04-18T07:22:42.999Z</time></trkpt><trkpt lat="43.0770694675549" lon="13.032237697016965"><ele>523.0</ele><time>2026-04-18T07:22:43.999Z</time></trkpt><trkpt lat="43.0770829341192" lon="13.032006534643715"><ele>528.0</ele><time>2026-04-18T07:22:44.999Z</time></trkpt><trkpt lat="43.07709326178964" lon="13.031759952509734"><ele>531.3333333333334</ele><time>2026-04-18T07:22:45.999Z</time></trkpt><trkpt lat="43.07710365428456" lon="13.031522095800328"><ele>534.6666666666667</ele><time>2026-04-18T07:22:46.999Z</time></trkpt><trkpt lat="43.07711470142856" lon="13.03130148500483"><ele>538.0</ele><time>2026-04-18T07:22:47.999Z</time></trkpt><trkpt lat="43.07713399836012" lon="13.031078756791874"><ele>538.0</ele><time>2026-04-18T07:22:48.999Z</time></trkpt><trkpt lat="43.077167842775616" lon="13.030860747602627"><ele>538.0</ele><time>2026-04-18T07:22:49.999Z</time></trkpt><trkpt lat="43.077216470067285" lon="13.030637821759434"><ele>538.0</ele><time>2026-04-18T07:22:50.999Z</time></trkpt><trkpt lat="43.077261874079944" lon="13.030437551946065"><ele>535.75</ele><time>2026-04-18T07:22:51.999Z</time></trkpt><trkpt lat="43.07729208783875" lon="13.030224463727311"><ele>533.5</ele><time>2026-04-18T07:22:52.999Z</time></trkpt><trkpt lat="43.07729085254101" lon="13.030042529404515"><ele>531.25</ele><time>2026-04-18T07:22:53.999Z</time></trkpt><trkpt lat="43.07725565932543" lon="13.029908503053479"><ele>529.0</ele><time>2026-04-18T07:22:54.999Z</time></trkpt><trkpt lat="43.07720654849758" lon="13.029841596091694"><ele>526.5</ele><time>2026-04-18T07:22:55.999Z</time></trkpt><trkpt lat="43.07716030120959" lon="13.029741284363025"><ele>524.0</ele><time>2026-04-18T07:22:57.999Z</time></trkpt><trkpt lat="43.07712155407042" lon="13.029815944885474"><ele>521.5</ele><time>2026-04-18T07:23:08.999Z</time></trkpt><trkpt lat="43.07709261742963" lon="13.029716963660364"><ele>519.0</ele><time>2026-04-18T07:23:36Z</time></trkpt><trkpt lat="43.077026511818374" lon="13.029578165824715"><ele>516.5</ele><time>2026-04-18T07:23:38Z</time></trkpt><trkpt lat="43.076988125899554" lon="13.029478426042724"><ele>514.0</ele><time>2026-04-18T07:23:39Z</time></trkpt><trkpt lat="43.07691531370066" lon="13.029270292013589"><ele>511.25</ele><time>2026-04-18T07:23:40Z</time></trkpt><trkpt lat="43.0768647223761" lon="13.02911711428353"><ele>508.5</ele><time>2026-04-18T07:23:41Z</time></trkpt><trkpt lat="43.07681571234646" lon="13.028956539732949"><ele>505.75</ele><time>2026-04-18T07:23:42Z</time></trkpt><trkpt lat="43.076770501629255" lon="13.028802237365616"><ele>503.0</ele><time>2026-04-18T07:23:43Z</time></trkpt><trkpt lat="43.07671955460015" lon="13.028647009515112"><ele>503.0</ele><time>2026-04-18T07:23:44Z</time></trkpt><trkpt lat="43.07666290331199" lon="13.02848820999593"><ele>503.0</ele><time>2026-04-18T07:23:45Z</time></trkpt><trkpt lat="43.07660572044908" lon="13.028318892725702"><ele>503.0</ele><time>2026-04-18T07:23:46Z</time></trkpt><trkpt lat="43.076546542439196" lon="13.02815682098875"><ele>503.0</ele><time>2026-04-18T07:23:47Z</time></trkpt><trkpt lat="43.07648349892422" lon="13.027994143923506"><ele>505.3333333333333</ele><time>2026-04-18T07:23:48Z</time></trkpt><trkpt lat="43.07640680466742" lon="13.02782205478303"><ele>507.66666666666663</ele><time>2026-04-18T07:23:49Z</time></trkpt><trkpt lat="43.076320403697686" lon="13.02763372165779"><ele>510.0</ele><time>2026-04-18T07:23:50Z</time></trkpt><trkpt lat="43.07623028495945" lon="13.027437156456884"><ele>510.0</ele><time>2026-04-18T07:23:51Z</time></trkpt><trkpt lat="43.07613944519999" lon="13.027246185044975"><ele>510.0</ele><time>2026-04-18T07:23:52Z</time></trkpt><trkpt lat="43.07604650778425" lon="13.027048199873416"><ele>510.0</ele><time>2026-04-18T07:23:53Z</time></trkpt><trkpt lat="43.07594760665018" lon="13.026842882939608"><ele>510.33333333333337</ele><time>2026-04-18T07:23:54Z</time></trkpt><trkpt lat="43.075850004921655" lon="13.026642388384497"><ele>510.6666666666667</ele><time>2026-04-18T07:23:55Z</time></trkpt><trkpt lat="43.07574941340333" lon="13.026456002159863"><ele>511.0</ele><time>2026-04-18T07:23:56Z</time></trkpt><trkpt lat="43.075637183051185" lon="13.026288945086378"><ele>511.0</ele><time>2026-04-18T07:23:57Z</time></trkpt><trkpt lat="43.075509600207376" lon="13.026148270261217"><ele>511.0</ele><time>2026-04-18T07:23:58Z</time></trkpt><trkpt lat="43.07537694048096" lon="13.026029000691834"><ele>511.0</ele><time>2026-04-18T07:23:59Z</time></trkpt><trkpt lat="43.075236008593244" lon="13.025906804225036"><ele>511.0</ele><time>2026-04-18T07:24:00Z</time></trkpt><trkpt lat="43.07509754397402" lon="13.025808912769635"><ele>511.0</ele><time>2026-04-18T07:24:01Z</time></trkpt><trkpt lat="43.07495629785446" lon="13.025721479891823"><ele>511.0</ele><time>2026-04-18T07:24:02Z</time></trkpt><trkpt lat="43.07480793545659" lon="13.025620496622643"><ele>511.0</ele><time>2026-04-18T07:24:03Z</time></trkpt><trkpt lat="43.07465439529225" lon="13.025513875832084"><ele>511.0</ele><time>2026-04-18T07:24:04Z</time></trkpt><trkpt lat="43.07449456790839" lon="13.02539984946213"><ele>511.0</ele><time>2026-04-18T07:24:05Z</time></trkpt><trkpt lat="43.074339949943" lon="13.025279977655464"><ele>511.0</ele><time>2026-04-18T07:24:06Z</time></trkpt><trkpt lat="43.074192022516435" lon="13.025155075099365"><ele>511.0</ele><time>2026-04-18T07:24:07Z</time></trkpt><trkpt lat="43.0740687472221" lon="13.025037808935272"><ele>511.0</ele><time>2026-04-18T07:24:08Z</time></trkpt><trkpt lat="43.07395980947463" lon="13.024929041893921"><ele>511.0</ele><time>2026-04-18T07:24:09Z</time></trkpt><trkpt lat="43.07385131771131" lon="13.02481914260533"><ele>511.0</ele><time>2026-04-18T07:24:10Z</time></trkpt><trkpt lat="43.073732231646495" lon="13.024705042115398"><ele>511.0</ele><time>2026-04-18T07:24:11Z</time></trkpt><trkpt lat="43.07361483520596" lon="13.024560148072803"><ele>511.0</ele><time>2026-04-18T07:24:12Z</time></trkpt><trkpt lat="43.073485509241884" lon="13.024427158152909"><ele>511.0</ele><time>2026-04-18T07:24:13Z</time></trkpt><trkpt lat="43.07335638033109" lon="13.024285150866225"><ele>511.0</ele><time>2026-04-18T07:24:14Z</time></trkpt><trkpt lat="43.07323736269397" lon="13.024135801581059"><ele>511.0</ele><time>2026-04-18T07:24:15Z</time></trkpt><trkpt lat="43.07313133057784" lon="13.023995210810384"><ele>512.5</ele><time>2026-04-18T07:24:16Z</time></trkpt><trkpt lat="43.07303203170017" lon="13.023850470910515"><ele>514.0</ele><time>2026-04-18T07:24:17Z</time></trkpt><trkpt lat="43.07294975485048" lon="13.023679488853336"><ele>515.5</ele><time>2026-04-18T07:24:18Z</time></trkpt><trkpt lat="43.07289355266777" lon="13.023486006807435"><ele>517.0</ele><time>2026-04-18T07:24:19Z</time></trkpt><trkpt lat="43.072842247436874" lon="13.023288879839717"><ele>517.0</ele><time>2026-04-18T07:24:20Z</time></trkpt><trkpt lat="43.072777356972686" lon="13.0230934488457"><ele>517.0</ele><time>2026-04-18T07:24:21Z</time></trkpt><trkpt lat="43.072716561528395" lon="13.022898152477325"><ele>517.0</ele><time>2026-04-18T07:24:22Z</time></trkpt><trkpt lat="43.07263176127048" lon="13.022726994223715"><ele>517.0</ele><time>2026-04-18T07:24:23Z</time></trkpt><trkpt lat="43.072523055336326" lon="13.02257656422347"><ele>517.0</ele><time>2026-04-18T07:24:24Z</time></trkpt><trkpt lat="43.07241364858308" lon="13.022421147852818"><ele>517.0</ele><time>2026-04-18T07:24:25Z</time></trkpt><trkpt lat="43.07233432776666" lon="13.022256592205991"><ele>518.25</ele><time>2026-04-18T07:24:26Z</time></trkpt><trkpt lat="43.07225325624293" lon="13.022093742164829"><ele>519.5</ele><time>2026-04-18T07:24:27Z</time></trkpt><trkpt lat="43.072201645219074" lon="13.021912614961403"><ele>520.75</ele><time>2026-04-18T07:24:28Z</time></trkpt><trkpt lat="43.07216008519151" lon="13.021706755785118"><ele>522.0</ele><time>2026-04-18T07:24:29Z</time></trkpt><trkpt lat="43.07211002542273" lon="13.021491929545478"><ele>522.0</ele><time>2026-04-18T07:24:30Z</time></trkpt><trkpt lat="43.07208583168564" lon="13.021290595800613"><ele>522.0</ele><time>2026-04-18T07:24:31Z</time></trkpt><trkpt lat="43.07204975600104" lon="13.021092472756502"><ele>522.0</ele><time>2026-04-18T07:24:32Z</time></trkpt><trkpt lat="43.072001553441446" lon="13.020911496125215"><ele>522.0</ele><time>2026-04-18T07:24:33Z</time></trkpt><trkpt lat="43.071929415654175" lon="13.020752777682123"><ele>520.0</ele><time>2026-04-18T07:24:34Z</time></trkpt><trkpt lat="43.07183028817552" lon="13.020643283725603"><ele>518.0</ele><time>2026-04-18T07:24:35Z</time></trkpt><trkpt lat="43.07174112918457" lon="13.02056404053203"><ele>516.0</ele><time>2026-04-18T07:24:36Z</time></trkpt><trkpt lat="43.071674169442815" lon="13.02049851193243"><ele>514.0</ele><time>2026-04-18T07:24:37Z</time></trkpt><trkpt lat="43.07154532972527" lon="13.02059782278125"><ele>519.4</ele><time>2026-04-18T07:24:44Z</time></trkpt><trkpt lat="43.071429379973594" lon="13.020614560419435"><ele>524.8</ele><time>2026-04-18T07:24:46Z</time></trkpt><trkpt lat="43.07134927595165" lon="13.020610145377017"><ele>530.2</ele><time>2026-04-18T07:24:48.999Z</time></trkpt><trkpt lat="43.07135857777892" lon="13.020520915586005"><ele>535.6</ele><time>2026-04-18T07:24:50.999Z</time></trkpt><trkpt lat="43.071397604631926" lon="13.02038435526744"><ele>541.0</ele><time>2026-04-18T07:24:53.999Z</time></trkpt><trkpt lat="43.07131596192491" lon="13.020318899514956"><ele>541.0</ele><time>2026-04-18T07:24:55.999Z</time></trkpt><trkpt lat="43.07117316519851" lon="13.02032606980474"><ele>541.0</ele><time>2026-04-18T07:24:57.999Z</time></trkpt><trkpt lat="43.07109786036624" lon="13.020427643164872"><ele>541.0</ele><time>2026-04-18T07:24:59.999Z</time></trkpt><trkpt lat="43.07105581211364" lon="13.020569810025181"><ele>541.0</ele><time>2026-04-18T07:25:01.999Z</time></trkpt><trkpt lat="43.071000375765685" lon="13.020669122194969"><ele>541.0</ele><time>2026-04-18T07:25:03.999Z</time></trkpt><trkpt lat="43.07092616654003" lon="13.020596263208875"><ele>541.0</ele><time>2026-04-18T07:25:05.999Z</time></trkpt><trkpt lat="43.07085444165588" lon="13.020558044346924"><ele>541.0</ele><time>2026-04-18T07:25:07.999Z</time></trkpt><trkpt lat="43.07077351101172" lon="13.020643033393002"><ele>541.0</ele><time>2026-04-18T07:25:09.999Z</time></trkpt><trkpt lat="43.07069601433366" lon="13.020689835805213"><ele>541.0</ele><time>2026-04-18T07:25:11.999Z</time></trkpt><trkpt lat="43.070595426969284" lon="13.020706287445227"><ele>548.0</ele><time>2026-04-18T07:25:14.999Z</time></trkpt><trkpt lat="43.07052434627697" lon="13.020749627215206"><ele>555.0</ele><time>2026-04-18T07:25:16.999Z</time></trkpt><trkpt lat="43.07045870375209" lon="13.02077679201822"><ele>562.0</ele><time>2026-04-18T07:25:19Z</time></trkpt><trkpt lat="43.07038865423945" lon="13.020763488883143"><ele>569.0</ele><time>2026-04-18T07:25:21Z</time></trkpt><trkpt lat="43.07030982772745" lon="13.020784197510082"><ele>576.0</ele><time>2026-04-18T07:25:23Z</time></trkpt><trkpt lat="43.07022655754535" lon="13.020819837820577"><ele>583.0</ele><time>2026-04-18T07:25:26Z</time></trkpt><trkpt lat="43.07015264605904" lon="13.02079419724382"><ele>584.6</ele><time>2026-04-18T07:25:28Z</time></trkpt><trkpt lat="43.07010807821427" lon="13.020668976632669"><ele>586.1999999999999</ele><time>2026-04-18T07:25:30Z</time></trkpt><trkpt lat="43.07007766522224" lon="13.020491651287143"><ele>587.8</ele><time>2026-04-18T07:25:32Z</time></trkpt><trkpt lat="43.07006069603233" lon="13.020352853745214"><ele>589.4</ele><time>2026-04-18T07:25:33Z</time></trkpt><trkpt lat="43.070059018638595" lon="13.020246410026322"><ele>591.0</ele><time>2026-04-18T07:25:34Z</time></trkpt><trkpt lat="43.07006386601901" lon="13.02015682468558"><ele>591.0</ele><time>2026-04-18T07:25:35Z</time></trkpt><trkpt lat="43.07009501974594" lon="13.020076686295628"><ele>591.0</ele><time>2026-04-18T07:25:36Z</time></trkpt><trkpt lat="43.07011237786361" lon="13.019989793152414"><ele>591.0</ele><time>2026-04-18T07:25:37Z</time></trkpt><trkpt lat="43.07012057259189" lon="13.019899339505523"><ele>591.0</ele><time>2026-04-18T07:25:38Z</time></trkpt><trkpt lat="43.07010756912481" lon="13.019803176304782"><ele>591.0</ele><time>2026-04-18T07:25:40Z</time></trkpt><trkpt lat="43.07001116945452" lon="13.019679968620057"><ele>591.0</ele><time>2026-04-18T07:25:42Z</time></trkpt><trkpt lat="43.06995094066966" lon="13.01959170447715"><ele>597.5</ele><time>2026-04-18T07:25:43Z</time></trkpt><trkpt lat="43.06988878563921" lon="13.019552010879975"><ele>604.0</ele><time>2026-04-18T07:25:44Z</time></trkpt><trkpt lat="43.069796738092656" lon="13.019466592616638"><ele>610.5</ele><time>2026-04-18T07:25:46Z</time></trkpt><trkpt lat="43.06972632809327" lon="13.019361571206522"><ele>617.0</ele><time>2026-04-18T07:25:48Z</time></trkpt><trkpt lat="43.069649101574335" lon="13.01933148442771"><ele>623.5</ele><time>2026-04-18T07:25:50Z</time></trkpt><trkpt lat="43.06961295735552" lon="13.019242828784344"><ele>630.0</ele><time>2026-04-18T07:25:52Z</time></trkpt><trkpt lat="43.06953074032569" lon="13.01919195239082"><ele>626.6666666666666</ele><time>2026-04-18T07:25:54Z</time></trkpt><trkpt lat="43.0694762069138" lon="13.019120472859932"><ele>623.3333333333334</ele><time>2026-04-18T07:25:56Z</time></trkpt><trkpt lat="43.069416673247915" lon="13.019043199352067"><ele>620.0</ele><time>2026-04-18T07:25:58Z</time></trkpt><trkpt lat="43.06933316516975" lon="13.018962831054845"><ele>616.6666666666667</ele><time>2026-04-18T07:26:01Z</time></trkpt><trkpt lat="43.06927746235796" lon="13.01887973456255"><ele>613.3333333333334</ele><time>2026-04-18T07:26:03Z</time></trkpt><trkpt lat="43.069197582906554" lon="13.018809313945534"><ele>610.0</ele><time>2026-04-18T07:26:05Z</time></trkpt><trkpt lat="43.069126810410616" lon="13.018746676655995"><ele>617.2</ele><time>2026-04-18T07:26:07Z</time></trkpt><trkpt lat="43.069051696659756" lon="13.018651697153317"><ele>624.4</ele><time>2026-04-18T07:26:09Z</time></trkpt><trkpt lat="43.068998876016856" lon="13.01860009023204"><ele>631.5999999999999</ele><time>2026-04-18T07:26:10Z</time></trkpt><trkpt lat="43.06892330478983" lon="13.018498202621785"><ele>638.8</ele><time>2026-04-18T07:26:12Z</time></trkpt><trkpt lat="43.068830831331454" lon="13.018399667706973"><ele>646.0</ele><time>2026-04-18T07:26:14Z</time></trkpt><trkpt lat="43.068752528241525" lon="13.01827408279986"><ele>646.0</ele><time>2026-04-18T07:26:16Z</time></trkpt><trkpt lat="43.068661560221" lon="13.018158274364074"><ele>646.0</ele><time>2026-04-18T07:26:18Z</time></trkpt><trkpt lat="43.06860487592629" lon="13.018083896668388"><ele>646.0</ele><time>2026-04-18T07:26:19Z</time></trkpt><trkpt lat="43.068523039508285" lon="13.017940123337576"><ele>646.0</ele><time>2026-04-18T07:26:20.999Z</time></trkpt><trkpt lat="43.06846934561039" lon="13.017872309761108"><ele>646.0</ele><time>2026-04-18T07:26:21.999Z</time></trkpt><trkpt lat="43.068391336795756" lon="13.017748422330364"><ele>646.0</ele><time>2026-04-18T07:26:23.999Z</time></trkpt><trkpt lat="43.06833593274284" lon="13.017619962041742"><ele>646.0</ele><time>2026-04-18T07:26:25.999Z</time></trkpt><trkpt lat="43.06824343315236" lon="13.017530936594916"><ele>646.0</ele><time>2026-04-18T07:26:27.999Z</time></trkpt><trkpt lat="43.06819283610613" lon="13.01744745133683"><ele>646.0</ele><time>2026-04-18T07:26:29.999Z</time></trkpt><trkpt lat="43.06813623475414" lon="13.017332156287077"><ele>646.0</ele><time>2026-04-18T07:26:31.999Z</time></trkpt><trkpt lat="43.0680740305816" lon="13.017255597999553"><ele>655.5999999999999</ele><time>2026-04-18T07:26:33.999Z</time></trkpt><trkpt lat="43.068013469779366" lon="13.017159958192668"><ele>665.2</ele><time>2026-04-18T07:26:35.999Z</time></trkpt><trkpt lat="43.06784894525579" lon="13.017219377818497"><ele>674.8</ele><time>2026-04-18T07:26:36.999Z</time></trkpt><trkpt lat="43.067824481120326" lon="13.01713433624932"><ele>684.4000000000001</ele><time>2026-04-18T07:26:39.999Z</time></trkpt><trkpt lat="43.06778827226472" lon="13.017012569653081"><ele>694.0</ele><time>2026-04-18T07:26:43.999Z</time></trkpt><trkpt lat="43.067864681643705" lon="13.016857584967974"><ele>694.0</ele><time>2026-04-18T07:26:46.999Z</time></trkpt><trkpt lat="43.067812714870534" lon="13.016784790398443"><ele>694.0</ele><time>2026-04-18T07:26:48.999Z</time></trkpt><trkpt lat="43.067750159118305" lon="13.016652983951527"><ele>694.0</ele><time>2026-04-18T07:26:50.999Z</time></trkpt><trkpt lat="43.067697582248975" lon="13.016539874741289"><ele>694.0</ele><time>2026-04-18T07:26:52.999Z</time></trkpt><trkpt lat="43.06766949646866" lon="13.01646022042374"><ele>694.0</ele><time>2026-04-18T07:26:54.999Z</time></trkpt><trkpt lat="43.067628857957644" lon="13.01636071152224"><ele>694.0</ele><time>2026-04-18T07:26:56.999Z</time></trkpt><trkpt lat="43.06758487683989" lon="13.01624987059196"><ele>691.0</ele><time>2026-04-18T07:26:58.999Z</time></trkpt><trkpt lat="43.06756183998602" lon="13.016154315492216"><ele>688.0</ele><time>2026-04-18T07:27:00.999Z</time></trkpt><trkpt lat="43.06751459293902" lon="13.016057951600422"><ele>685.0</ele><time>2026-04-18T07:27:33Z</time></trkpt><trkpt lat="43.06748491067525" lon="13.015930525897316"><ele>682.0</ele><time>2026-04-18T07:27:35Z</time></trkpt><trkpt lat="43.06745567866534" lon="13.015785997188926"><ele>679.0</ele><time>2026-04-18T07:27:37Z</time></trkpt><trkpt lat="43.06741953819949" lon="13.015661717658295"><ele>685.5</ele><time>2026-04-18T07:27:38.999Z</time></trkpt><trkpt lat="43.06739208116421" lon="13.015564066268324"><ele>692.0</ele><time>2026-04-18T07:27:40.999Z</time></trkpt><trkpt lat="43.06735957824683" lon="13.015449816551362"><ele>698.5</ele><time>2026-04-18T07:27:42.999Z</time></trkpt><trkpt lat="43.0673506572525" lon="13.015359078275038"><ele>705.0</ele><time>2026-04-18T07:27:43.999Z</time></trkpt><trkpt lat="43.067317444221636" lon="13.015250184878296"><ele>711.5</ele><time>2026-04-18T07:27:44.998Z</time></trkpt><trkpt lat="43.06727534482921" lon="13.015132839710349"><ele>718.0</ele><time>2026-04-18T07:27:45.998Z</time></trkpt><trkpt lat="43.0672187814895" lon="13.015000575686008"><ele>714.75</ele><time>2026-04-18T07:27:46.998Z</time></trkpt><trkpt lat="43.06715274496943" lon="13.014867163555484"><ele>711.5</ele><time>2026-04-18T07:27:47.998Z</time></trkpt><trkpt lat="43.06705886707655" lon="13.014748494682733"><ele>708.25</ele><time>2026-04-18T07:27:48.998Z</time></trkpt><trkpt lat="43.06699591419298" lon="13.014592639627022"><ele>705.0</ele><time>2026-04-18T07:27:49.998Z</time></trkpt><trkpt lat="43.066948231633944" lon="13.014424103572226"><ele>705.0</ele><time>2026-04-18T07:27:50.998Z</time></trkpt><trkpt lat="43.06691975033497" lon="13.014242947889073"><ele>705.0</ele><time>2026-04-18T07:27:51.998Z</time></trkpt><trkpt lat="43.06688407687944" lon="13.01405922750012"><ele>705.0</ele><time>2026-04-18T07:27:52.997Z</time></trkpt><trkpt lat="43.06682174655624" lon="13.013890690355977"><ele>705.0</ele><time>2026-04-18T07:27:53.997Z</time></trkpt><trkpt lat="43.066775071012245" lon="13.013714863909614"><ele>703.0</ele><time>2026-04-18T07:27:54.997Z</time></trkpt><trkpt lat="43.066716864014786" lon="13.013579871510512"><ele>701.0</ele><time>2026-04-18T07:27:55.997Z</time></trkpt><trkpt lat="43.066675453333886" lon="13.013453285351062"><ele>699.0</ele><time>2026-04-18T07:27:56.997Z</time></trkpt><trkpt lat="43.066625288584795" lon="13.013320813058106"><ele>697.0</ele><time>2026-04-18T07:27:57.997Z</time></trkpt><trkpt lat="43.06659914260751" lon="13.013167223872907"><ele>695.0</ele><time>2026-04-18T07:27:58.997Z</time></trkpt><trkpt lat="43.066570261291695" lon="13.01301671769917"><ele>700.5</ele><time>2026-04-18T07:27:59.997Z</time></trkpt><trkpt lat="43.066527446302054" lon="13.012867672753448"><ele>706.0</ele><time>2026-04-18T07:28:00.997Z</time></trkpt><trkpt lat="43.06649438200278" lon="13.012723555761987"><ele>711.5</ele><time>2026-04-18T07:28:01.997Z</time></trkpt><trkpt lat="43.06642680911573" lon="13.01260227062938"><ele>717.0</ele><time>2026-04-18T07:28:02.997Z</time></trkpt><trkpt lat="43.06633981476711" lon="13.012499201441829"><ele>709.5</ele><time>2026-04-18T07:28:03.997Z</time></trkpt><trkpt lat="43.066261676115175" lon="13.0123911812874"><ele>702.0</ele><time>2026-04-18T07:28:04.997Z</time></trkpt><trkpt lat="43.06616031504352" lon="13.012318555371541"><ele>694.5</ele><time>2026-04-18T07:28:05.997Z</time></trkpt><trkpt lat="43.06607178490926" lon="13.012225652555253"><ele>687.0</ele><time>2026-04-18T07:28:06.997Z</time></trkpt><trkpt lat="43.065967416412924" lon="13.01216109114476"><ele>687.0</ele><time>2026-04-18T07:28:07.997Z</time></trkpt><trkpt lat="43.065862486887646" lon="13.012073483723286"><ele>687.0</ele><time>2026-04-18T07:28:08.996Z</time></trkpt><trkpt lat="43.06575191394931" lon="13.011994431071958"><ele>687.0</ele><time>2026-04-18T07:28:09.996Z</time></trkpt><trkpt lat="43.06563925138495" lon="13.011913696937759"><ele>687.0</ele><time>2026-04-18T07:28:10.996Z</time></trkpt><trkpt lat="43.06552310356623" lon="13.011822207421048"><ele>690.5</ele><time>2026-04-18T07:28:11.996Z</time></trkpt><trkpt lat="43.0654148518316" lon="13.011718119424101"><ele>694.0</ele><time>2026-04-18T07:28:12.996Z</time></trkpt><trkpt lat="43.06531606519176" lon="13.011601535264335"><ele>697.5</ele><time>2026-04-18T07:28:13.996Z</time></trkpt><trkpt lat="43.065216444465015" lon="13.011474248016812"><ele>701.0</ele><time>2026-04-18T07:28:14.996Z</time></trkpt><trkpt lat="43.06510819645458" lon="13.011364992152233"><ele>701.0</ele><time>2026-04-18T07:28:15.996Z</time></trkpt><trkpt lat="43.065017646851445" lon="13.011234152195872"><ele>701.0</ele><time>2026-04-18T07:28:16.996Z</time></trkpt><trkpt lat="43.0649236113609" lon="13.011120928528676"><ele>701.0</ele><time>2026-04-18T07:28:17.996Z</time></trkpt><trkpt lat="43.064834301061794" lon="13.011005228945765"><ele>701.0</ele><time>2026-04-18T07:28:18.996Z</time></trkpt><trkpt lat="43.06473855483837" lon="13.010873903679578"><ele>705.75</ele><time>2026-04-18T07:28:19.996Z</time></trkpt><trkpt lat="43.06462703844105" lon="13.010754432853785"><ele>710.5</ele><time>2026-04-18T07:28:20.996Z</time></trkpt><trkpt lat="43.06451129635083" lon="13.010650116888197"><ele>715.25</ele><time>2026-04-18T07:28:21.996Z</time></trkpt><trkpt lat="43.06438780977446" lon="13.010558896472517"><ele>720.0</ele><time>2026-04-18T07:28:22.996Z</time></trkpt><trkpt lat="43.06427637808973" lon="13.01043668597843"><ele>720.0</ele><time>2026-04-18T07:28:23.996Z</time></trkpt><trkpt lat="43.06415575898251" lon="13.010330451934493"><ele>720.0</ele><time>2026-04-18T07:28:24.996Z</time></trkpt><trkpt lat="43.06404138804939" lon="13.010226791268133"><ele>720.0</ele><time>2026-04-18T07:28:25.996Z</time></trkpt><trkpt lat="43.06392841631335" lon="13.010166108466047"><ele>720.0</ele><time>2026-04-18T07:28:26.996Z</time></trkpt><trkpt lat="43.06383177144829" lon="13.01011072391089"><ele>723.5</ele><time>2026-04-18T07:28:27.996Z</time></trkpt><trkpt lat="43.063715510158914" lon="13.010131608525604"><ele>727.0</ele><time>2026-04-18T07:28:28.996Z</time></trkpt><trkpt lat="43.0636001321724" lon="13.010202143002768"><ele>730.5</ele><time>2026-04-18T07:28:29.996Z</time></trkpt><trkpt lat="43.06348522033757" lon="13.010257194384051"><ele>734.0</ele><time>2026-04-18T07:28:30.996Z</time></trkpt><trkpt lat="43.06339903421607" lon="13.01030443092098"><ele>734.0</ele><time>2026-04-18T07:28:31.996Z</time></trkpt><trkpt lat="43.06333394806878" lon="13.010314495340069"><ele>734.0</ele><time>2026-04-18T07:28:32.996Z</time></trkpt><trkpt lat="43.0632672370836" lon="13.010263700724366"><ele>734.0</ele><time>2026-04-18T07:28:34.996Z</time></trkpt><trkpt lat="43.06331859827726" lon="13.010064666311639"><ele>734.0</ele><time>2026-04-18T07:28:35.996Z</time></trkpt><trkpt lat="43.06334586727556" lon="13.009968826703881"><ele>734.0</ele><time>2026-04-18T07:28:36.996Z</time></trkpt><trkpt lat="43.06334387225533" lon="13.009840620625786"><ele>735.4000000000001</ele><time>2026-04-18T07:28:37.996Z</time></trkpt><trkpt lat="43.06329465280221" lon="13.009717395353004"><ele>736.8</ele><time>2026-04-18T07:28:38.996Z</time></trkpt><trkpt lat="43.06321288194025" lon="13.009616608369232"><ele>738.2</ele><time>2026-04-18T07:28:39.996Z</time></trkpt><trkpt lat="43.063113042228146" lon="13.009561365049567"><ele>739.5999999999999</ele><time>2026-04-18T07:28:40.996Z</time></trkpt><trkpt lat="43.06300614157459" lon="13.009529087952135"><ele>741.0</ele><time>2026-04-18T07:28:41.996Z</time></trkpt><trkpt lat="43.062905283060196" lon="13.00946637543442"><ele>741.0</ele><time>2026-04-18T07:28:42.996Z</time></trkpt><trkpt lat="43.06279145026286" lon="13.00944151472637"><ele>741.0</ele><time>2026-04-18T07:28:43.996Z</time></trkpt><trkpt lat="43.06267521537726" lon="13.009409341654345"><ele>741.0</ele><time>2026-04-18T07:28:44.996Z</time></trkpt><trkpt lat="43.062560381512945" lon="13.009382875488033"><ele>741.0</ele><time>2026-04-18T07:28:45.996Z</time></trkpt><trkpt lat="43.062443901435806" lon="13.009393724257029"><ele>743.4</ele><time>2026-04-18T07:28:46.996Z</time></trkpt><trkpt lat="43.06233162195603" lon="13.009400119590422"><ele>745.8</ele><time>2026-04-18T07:28:47.996Z</time></trkpt><trkpt lat="43.06221801763409" lon="13.00939747163498"><ele>748.1999999999999</ele><time>2026-04-18T07:28:48.996Z</time></trkpt><trkpt lat="43.06210618143573" lon="13.009387784482074"><ele>750.5999999999999</ele><time>2026-04-18T07:28:49.996Z</time></trkpt><trkpt lat="43.06199654138083" lon="13.009372375949503"><ele>753.0</ele><time>2026-04-18T07:28:50.996Z</time></trkpt><trkpt lat="43.06189311412423" lon="13.009338100225804"><ele>753.0</ele><time>2026-04-18T07:28:51.996Z</time></trkpt><trkpt lat="43.061799226413775" lon="13.009277144480174"><ele>753.0</ele><time>2026-04-18T07:28:52.996Z</time></trkpt><trkpt lat="43.06170437459143" lon="13.009221743792809"><ele>753.0</ele><time>2026-04-18T07:28:53.996Z</time></trkpt><trkpt lat="43.06162024277325" lon="13.009177751091931"><ele>753.0</ele><time>2026-04-18T07:28:54.996Z</time></trkpt><trkpt lat="43.061534491684725" lon="13.00913291156712"><ele>753.0</ele><time>2026-04-18T07:28:55.996Z</time></trkpt><trkpt lat="43.06144308638338" lon="13.009088852599419"><ele>753.2</ele><time>2026-04-18T07:28:56.996Z</time></trkpt><trkpt lat="43.06135730569907" lon="13.009043096607178"><ele>753.4</ele><time>2026-04-18T07:28:57.996Z</time></trkpt><trkpt lat="43.06129624673205" lon="13.008966220984268"><ele>753.6</ele><time>2026-04-18T07:28:58.996Z</time></trkpt><trkpt lat="43.06124500576307" lon="13.00890163646983"><ele>753.8000000000001</ele><time>2026-04-18T07:28:59.996Z</time></trkpt><trkpt lat="43.061193628362595" lon="13.008847441590252"><ele>754.0</ele><time>2026-04-18T07:29:00.996Z</time></trkpt><trkpt lat="43.061281715256136" lon="13.00851902421304"><ele>754.0</ele><time>2026-04-18T07:29:01.996Z</time></trkpt><trkpt lat="43.061289297439465" lon="13.00835450907532"><ele>754.0</ele><time>2026-04-18T07:29:02.995Z</time></trkpt><trkpt lat="43.06129385419505" lon="13.008187308838686"><ele>754.0</ele><time>2026-04-18T07:29:03.995Z</time></trkpt><trkpt lat="43.06129504136769" lon="13.008009200363931"><ele>754.0</ele><time>2026-04-18T07:29:04.995Z</time></trkpt><trkpt lat="43.06129540974983" lon="13.007827245674246"><ele>754.0</ele><time>2026-04-18T07:29:05.995Z</time></trkpt><trkpt lat="43.06129347922548" lon="13.007642426323338"><ele>754.0</ele><time>2026-04-18T07:29:06.995Z</time></trkpt><trkpt lat="43.06128958566302" lon="13.007455965508179"><ele>754.0</ele><time>2026-04-18T07:29:07.995Z</time></trkpt><trkpt lat="43.061287470908425" lon="13.007263694200997"><ele>754.0</ele><time>2026-04-18T07:29:08.995Z</time></trkpt><trkpt lat="43.06128643376071" lon="13.007074854846277"><ele>754.0</ele><time>2026-04-18T07:29:09.995Z</time></trkpt><trkpt lat="43.06128588051463" lon="13.006885559459604"><ele>754.0</ele><time>2026-04-18T07:29:10.996Z</time></trkpt><trkpt lat="43.06128303470455" lon="13.006701676364765"><ele>754.0</ele><time>2026-04-18T07:29:11.996Z</time></trkpt><trkpt lat="43.06128044526939" lon="13.006520112074776"><ele>754.0</ele><time>2026-04-18T07:29:12.996Z</time></trkpt><trkpt lat="43.06127584708501" lon="13.00634044669515"><ele>756.5</ele><time>2026-04-18T07:29:13.996Z</time></trkpt><trkpt lat="43.06127043778222" lon="13.00615979905688"><ele>759.0</ele><time>2026-04-18T07:29:14.996Z</time></trkpt><trkpt lat="43.061263312616624" lon="13.005976544849181"><ele>761.5</ele><time>2026-04-18T07:29:15.996Z</time></trkpt><trkpt lat="43.06124988565093" lon="13.005793261626415"><ele>764.0</ele><time>2026-04-18T07:29:16.997Z</time></trkpt><trkpt lat="43.06122851491362" lon="13.00562773367059"><ele>765.8000000000001</ele><time>2026-04-18T07:29:17.997Z</time></trkpt><trkpt lat="43.0612014989306" lon="13.005471735485365"><ele>767.6</ele><time>2026-04-18T07:29:18.997Z</time></trkpt><trkpt lat="43.061171737323015" lon="13.005323862640688"><ele>769.4</ele><time>2026-04-18T07:29:19.997Z</time></trkpt><trkpt lat="43.061134732273835" lon="13.005184247327842"><ele>771.2</ele><time>2026-04-18T07:29:20.997Z</time></trkpt><trkpt lat="43.06109601461174" lon="13.005068661950533"><ele>773.0</ele><time>2026-04-18T07:29:21.997Z</time></trkpt><trkpt lat="43.06104614176999" lon="13.004964995422004"><ele>772.75</ele><time>2026-04-18T07:29:22.997Z</time></trkpt><trkpt lat="43.060974922261224" lon="13.004855746084258"><ele>772.5</ele><time>2026-04-18T07:29:23.997Z</time></trkpt><trkpt lat="43.06088505294374" lon="13.004752038452274"><ele>772.25</ele><time>2026-04-18T07:29:24.997Z</time></trkpt><trkpt lat="43.06079518569632" lon="13.00464900572905"><ele>772.0</ele><time>2026-04-18T07:29:25.997Z</time></trkpt><trkpt lat="43.06071452231166" lon="13.004534368597636"><ele>772.0</ele><time>2026-04-18T07:29:26.997Z</time></trkpt><trkpt lat="43.060632075985914" lon="13.004396399014256"><ele>772.0</ele><time>2026-04-18T07:29:27.998Z</time></trkpt><trkpt lat="43.0605481163892" lon="13.004259224397753"><ele>772.0</ele><time>2026-04-18T07:29:28.998Z</time></trkpt><trkpt lat="43.06046664179737" lon="13.004111410903109"><ele>772.0</ele><time>2026-04-18T07:29:29.999Z</time></trkpt><trkpt lat="43.060387109059256" lon="13.00396009350873"><ele>773.75</ele><time>2026-04-18T07:29:30.999Z</time></trkpt><trkpt lat="43.06030703081227" lon="13.003812488323383"><ele>775.5</ele><time>2026-04-18T07:29:31.999Z</time></trkpt><trkpt lat="43.06022411469384" lon="13.003670093738151"><ele>777.25</ele><time>2026-04-18T07:29:32.999Z</time></trkpt><trkpt lat="43.060146222093096" lon="13.003541527673297"><ele>779.0</ele><time>2026-04-18T07:29:33.999Z</time></trkpt><trkpt lat="43.060105589299" lon="13.003401480600493"><ele>779.0</ele><time>2026-04-18T07:29:34.999Z</time></trkpt><trkpt lat="43.060042316233584" lon="13.003307280045167"><ele>779.0</ele><time>2026-04-18T07:29:35.999Z</time></trkpt><trkpt lat="43.05998788180412" lon="13.003230312915974"><ele>779.0</ele><time>2026-04-18T07:29:36.999Z</time></trkpt><trkpt lat="43.05993580797973" lon="13.003171558737286"><ele>779.0</ele><time>2026-04-18T07:29:37.999Z</time></trkpt><trkpt lat="43.05997843764236" lon="13.003003047916723"><ele>779.0</ele><time>2026-04-18T07:29:41.999Z</time></trkpt><trkpt lat="43.06000617757904" lon="13.002830680598139"><ele>780.2</ele><time>2026-04-18T07:29:43.999Z</time></trkpt><trkpt lat="43.06002219473363" lon="13.002717556947013"><ele>781.4000000000001</ele><time>2026-04-18T07:29:44.999Z</time></trkpt><trkpt lat="43.060062007646565" lon="13.002642156802493"><ele>782.6</ele><time>2026-04-18T07:29:45.999Z</time></trkpt><trkpt lat="43.06015707272098" lon="13.00252221029001"><ele>783.8</ele><time>2026-04-18T07:29:47.999Z</time></trkpt><trkpt lat="43.06024141671551" lon="13.002463158911734"><ele>785.0</ele><time>2026-04-18T07:29:48.999Z</time></trkpt><trkpt lat="43.06031796614827" lon="13.002410976592307"><ele>787.4</ele><time>2026-04-18T07:29:49.999Z</time></trkpt><trkpt lat="43.06039785502224" lon="13.002361229902077"><ele>789.8</ele><time>2026-04-18T07:29:50.999Z</time></trkpt><trkpt lat="43.060496377835626" lon="13.002322013361129"><ele>792.2</ele><time>2026-04-18T07:29:51.999Z</time></trkpt><trkpt lat="43.060587866801214" lon="13.00229585056266"><ele>794.6</ele><time>2026-04-18T07:29:52.999Z</time></trkpt><trkpt lat="43.06068901035854" lon="13.002304638399387"><ele>797.0</ele><time>2026-04-18T07:29:53.999Z</time></trkpt><trkpt lat="43.060784164419765" lon="13.002337544438701"><ele>799.2</ele><time>2026-04-18T07:29:54.999Z</time></trkpt><trkpt lat="43.06088843849012" lon="13.002365157358792"><ele>801.4000000000001</ele><time>2026-04-18T07:29:55.999Z</time></trkpt><trkpt lat="43.060982406881436" lon="13.002377048183156"><ele>803.5999999999999</ele><time>2026-04-18T07:29:56.999Z</time></trkpt><trkpt lat="43.06107674346537" lon="13.002358722869353"><ele>805.8</ele><time>2026-04-18T07:29:57.999Z</time></trkpt><trkpt lat="43.06116246200601" lon="13.002325586545496"><ele>808.0</ele><time>2026-04-18T07:29:58.999Z</time></trkpt><trkpt lat="43.06123144050737" lon="13.002332591547168"><ele>808.0</ele><time>2026-04-18T07:29:59.999Z</time></trkpt><trkpt lat="43.061303839296464" lon="13.002386038738816"><ele>808.0</ele><time>2026-04-18T07:30:00.999Z</time></trkpt><trkpt lat="43.061373674603686" lon="13.002475544289153"><ele>808.0</ele><time>2026-04-18T07:30:01.999Z</time></trkpt><trkpt lat="43.06145365948536" lon="13.002530485344323"><ele>808.0</ele><time>2026-04-18T07:30:02.999Z</time></trkpt><trkpt lat="43.06154479352259" lon="13.002519689623002"><ele>808.0</ele><time>2026-04-18T07:30:03.999Z</time></trkpt><trkpt lat="43.061640682489674" lon="13.002469772948828"><ele>810.8</ele><time>2026-04-18T07:30:04.999Z</time></trkpt><trkpt lat="43.06172776253827" lon="13.002412952417895"><ele>813.5999999999999</ele><time>2026-04-18T07:30:05.999Z</time></trkpt><trkpt lat="43.06181294228315" lon="13.002366861520084"><ele>816.4000000000001</ele><time>2026-04-18T07:30:06.999Z</time></trkpt><trkpt lat="43.061904922354344" lon="13.002320302412961"><ele>819.2</ele><time>2026-04-18T07:30:07.999Z</time></trkpt><trkpt lat="43.06198498497471" lon="13.0022586026079"><ele>822.0</ele><time>2026-04-18T07:30:08.999Z</time></trkpt><trkpt lat="43.062042421616994" lon="13.002179021669031"><ele>822.0</ele><time>2026-04-18T07:30:09.999Z</time></trkpt><trkpt lat="43.062105139331564" lon="13.001993749023114"><ele>822.0</ele><time>2026-04-18T07:30:11.999Z</time></trkpt><trkpt lat="43.0621259126854" lon="13.001899150306143"><ele>822.0</ele><time>2026-04-18T07:30:12.999Z</time></trkpt><trkpt lat="43.06215136976829" lon="13.001813605234318"><ele>822.0</ele><time>2026-04-18T07:30:13.999Z</time></trkpt><trkpt lat="43.06218527479804" lon="13.001734093895985"><ele>822.0</ele><time>2026-04-18T07:30:15.999Z</time></trkpt><trkpt lat="43.062286565149186" lon="13.001665802515765"><ele>826.0</ele><time>2026-04-18T07:30:17.999Z</time></trkpt><trkpt lat="43.0624156822776" lon="13.001602547827163"><ele>830.0</ele><time>2026-04-18T07:30:19.999Z</time></trkpt><trkpt lat="43.06246745076319" lon="13.001521987894526"><ele>834.0</ele><time>2026-04-18T07:30:20.999Z</time></trkpt><trkpt lat="43.06249989876961" lon="13.001446190779182"><ele>838.0</ele><time>2026-04-18T07:30:21.999Z</time></trkpt><trkpt lat="43.06252833074834" lon="13.00133408299133"><ele>842.0</ele><time>2026-04-18T07:30:22.999Z</time></trkpt><trkpt lat="43.062594782520584" lon="13.001212498796148"><ele>842.0000000000001</ele><time>2026-04-18T07:30:23.999Z</time></trkpt><trkpt lat="43.06264901335535" lon="13.001087949030293"><ele>842.0</ele><time>2026-04-18T07:30:24.999Z</time></trkpt><trkpt lat="43.062669231308064" lon="13.00099901302448"><ele>842.0</ele><time>2026-04-18T07:30:25.999Z</time></trkpt><trkpt lat="43.06268041413028" lon="13.00089378305173"><ele>842.0</ele><time>2026-04-18T07:30:26.999Z</time></trkpt><trkpt lat="43.06268238988155" lon="13.000797703714346"><ele>842.0000000000001</ele><time>2026-04-18T07:30:27.999Z</time></trkpt><trkpt lat="43.06267701274375" lon="13.000656084870831"><ele>842.0</ele><time>2026-04-18T07:30:28.999Z</time></trkpt><trkpt lat="43.062648810990126" lon="13.000527681700198"><ele>845.0</ele><time>2026-04-18T07:30:29.999Z</time></trkpt><trkpt lat="43.06253201221417" lon="13.00040807871503"><ele>848.0</ele><time>2026-04-18T07:30:31.999Z</time></trkpt><trkpt lat="43.06240417455153" lon="13.000569971970204"><ele>851.0</ele><time>2026-04-18T07:30:32.999Z</time></trkpt><trkpt lat="43.062293024431675" lon="13.000583053812107"><ele>854.0</ele><time>2026-04-18T07:30:33.999Z</time></trkpt><trkpt lat="43.06218589892675" lon="13.000585618632215"><ele>854.5000000000001</ele><time>2026-04-18T07:30:34.999Z</time></trkpt><trkpt lat="43.06210503547156" lon="13.000565319393365"><ele>855.0</ele><time>2026-04-18T07:30:35.999Z</time></trkpt><trkpt lat="43.062027807640014" lon="13.000535773672064"><ele>855.5</ele><time>2026-04-18T07:30:36.999Z</time></trkpt><trkpt lat="43.06195576127369" lon="13.00049291883724"><ele>856.0</ele><time>2026-04-18T07:30:37.999Z</time></trkpt><trkpt lat="43.06188873060561" lon="13.00043723051495"><ele>856.5000000000001</ele><time>2026-04-18T07:30:38.999Z</time></trkpt><trkpt lat="43.061820895183764" lon="13.000367668450995"><ele>857.0</ele><time>2026-04-18T07:30:39.999Z</time></trkpt><trkpt lat="43.06175527929528" lon="13.00030017505287"><ele>857.0</ele><time>2026-04-18T07:30:40.999Z</time></trkpt><trkpt lat="43.061617853468235" lon="13.000142559594103"><ele>857.0</ele><time>2026-04-18T07:30:41.999Z</time></trkpt><trkpt lat="43.06150298165881" lon="13.000042801801216"><ele>857.0</ele><time>2026-04-18T07:30:42.999Z</time></trkpt><trkpt lat="43.061392845186845" lon="12.999946726986114"><ele>857.0</ele><time>2026-04-18T07:30:43.999Z</time></trkpt><trkpt lat="43.06131491258993" lon="12.999825319018775"><ele>857.0</ele><time>2026-04-18T07:30:44.999Z</time></trkpt><trkpt lat="43.06122697838729" lon="12.999726309622416"><ele>857.0</ele><time>2026-04-18T07:30:45.999Z</time></trkpt><trkpt lat="43.061149649314125" lon="12.999636729821272"><ele>857.0</ele><time>2026-04-18T07:30:46.999Z</time></trkpt><trkpt lat="43.06109685256439" lon="12.999533162354744"><ele>857.0</ele><time>2026-04-18T07:30:47.999Z</time></trkpt><trkpt lat="43.06104281725121" lon="12.99940468256099"><ele>857.0</ele><time>2026-04-18T07:30:48.999Z</time></trkpt><trkpt lat="43.06099092478803" lon="12.999274804762653"><ele>857.0000000000001</ele><time>2026-04-18T07:30:49.999Z</time></trkpt><trkpt lat="43.06096206607155" lon="12.999177188103932"><ele>857.0</ele><time>2026-04-18T07:30:50.999Z</time></trkpt><trkpt lat="43.06099331907753" lon="12.999090366508318"><ele>857.0</ele><time>2026-04-18T07:30:52.999Z</time></trkpt><trkpt lat="43.06110488161008" lon="12.999036064831376"><ele>857.0</ele><time>2026-04-18T07:30:54.999Z</time></trkpt><trkpt lat="43.06112343582161" lon="12.99894348938575"><ele>857.0000000000001</ele><time>2026-04-18T07:30:55.999Z</time></trkpt><trkpt lat="43.06113091356614" lon="12.998823639461898"><ele>857.0</ele><time>2026-04-18T07:30:56.999Z</time></trkpt><trkpt lat="43.06108050612114" lon="12.998697955455999"><ele>862.25</ele><time>2026-04-18T07:30:57.999Z</time></trkpt><trkpt lat="43.06104551241667" lon="12.99854213650018"><ele>867.5</ele><time>2026-04-18T07:30:58.999Z</time></trkpt><trkpt lat="43.06098113608737" lon="12.998395560478597"><ele>872.75</ele><time>2026-04-18T07:30:59.999Z</time></trkpt><trkpt lat="43.060941691526175" lon="12.998250207835964"><ele>878.0</ele><time>2026-04-18T07:31:00.999Z</time></trkpt><trkpt lat="43.06090738967733" lon="12.998104788214999"><ele>877.8</ele><time>2026-04-18T07:31:01.999Z</time></trkpt><trkpt lat="43.06086131874304" lon="12.997975159231029"><ele>877.5999999999999</ele><time>2026-04-18T07:31:02.999Z</time></trkpt><trkpt lat="43.060800348368126" lon="12.997862881214633"><ele>877.4000000000001</ele><time>2026-04-18T07:31:03.999Z</time></trkpt><trkpt lat="43.06074648063825" lon="12.997731639678268"><ele>877.2</ele><time>2026-04-18T07:31:04.999Z</time></trkpt><trkpt lat="43.06071465750293" lon="12.997605082732617"><ele>877.0</ele><time>2026-04-18T07:31:05.999Z</time></trkpt><trkpt lat="43.060656655123665" lon="12.997489082504282"><ele>882.0</ele><time>2026-04-18T07:31:06.999Z</time></trkpt><trkpt lat="43.06062688755457" lon="12.997346104010676"><ele>887.0</ele><time>2026-04-18T07:31:07.999Z</time></trkpt><trkpt lat="43.06057069387339" lon="12.997232215772762"><ele>892.0</ele><time>2026-04-18T07:31:08.999Z</time></trkpt><trkpt lat="43.0605272068796" lon="12.997101235614874"><ele>897.0</ele><time>2026-04-18T07:31:09.999Z</time></trkpt><trkpt lat="43.06047093791062" lon="12.996957488789857"><ele>902.0</ele><time>2026-04-18T07:31:10.999Z</time></trkpt><trkpt lat="43.06038419683991" lon="12.996837015720137"><ele>902.0</ele><time>2026-04-18T07:31:11.999Z</time></trkpt><trkpt lat="43.06029490668532" lon="12.996731451726015"><ele>902.0</ele><time>2026-04-18T07:31:12.999Z</time></trkpt><trkpt lat="43.06019757334019" lon="12.99660893918629"><ele>902.0</ele><time>2026-04-18T07:31:13.999Z</time></trkpt><trkpt lat="43.06009479103115" lon="12.996473185148455"><ele>902.0</ele><time>2026-04-18T07:31:14.999Z</time></trkpt><trkpt lat="43.05998854554512" lon="12.996354265945053"><ele>903.6</ele><time>2026-04-18T07:31:15.999Z</time></trkpt><trkpt lat="43.0598843212785" lon="12.996253319925067"><ele>905.2</ele><time>2026-04-18T07:31:16.999Z</time></trkpt><trkpt lat="43.05978830452395" lon="12.99618231039184"><ele>906.8</ele><time>2026-04-18T07:31:17.999Z</time></trkpt><trkpt lat="43.059700079127445" lon="12.996129626979473"><ele>908.4</ele><time>2026-04-18T07:31:18.999Z</time></trkpt><trkpt lat="43.05962487774922" lon="12.996058737478311"><ele>910.0</ele><time>2026-04-18T07:31:19.999Z</time></trkpt><trkpt lat="43.05953633669493" lon="12.995997683369335"><ele>910.0</ele><time>2026-04-18T07:31:20.999Z</time></trkpt><trkpt lat="43.05944437886186" lon="12.995934447771798"><ele>910.0</ele><time>2026-04-18T07:31:21.999Z</time></trkpt><trkpt lat="43.05936402813219" lon="12.995900481211226"><ele>910.0</ele><time>2026-04-18T07:31:22.999Z</time></trkpt><trkpt lat="43.059239679310565" lon="12.99578752287734"><ele>910.0</ele><time>2026-04-18T07:31:24.999Z</time></trkpt><trkpt lat="43.05916048086912" lon="12.99573036483403"><ele>910.0</ele><time>2026-04-18T07:31:25.999Z</time></trkpt><trkpt lat="43.059062121833094" lon="12.99567962643242"><ele>914.4</ele><time>2026-04-18T07:31:26.999Z</time></trkpt><trkpt lat="43.05898174029208" lon="12.995618115266243"><ele>918.8</ele><time>2026-04-18T07:31:27.999Z</time></trkpt><trkpt lat="43.05889975034631" lon="12.99556043043396"><ele>923.2</ele><time>2026-04-18T07:31:28.999Z</time></trkpt><trkpt lat="43.05881299572777" lon="12.995500069085935"><ele>927.6</ele><time>2026-04-18T07:31:29.999Z</time></trkpt><trkpt lat="43.05872183550415" lon="12.995438349709925"><ele>932.0</ele><time>2026-04-18T07:31:30.999Z</time></trkpt><trkpt lat="43.05864788850599" lon="12.995353507840136"><ele>932.0</ele><time>2026-04-18T07:31:31.999Z</time></trkpt><trkpt lat="43.058558842999716" lon="12.99526619156073"><ele>932.0</ele><time>2026-04-18T07:31:32.999Z</time></trkpt><trkpt lat="43.05846263566791" lon="12.995191205027616"><ele>932.0</ele><time>2026-04-18T07:31:33.999Z</time></trkpt><trkpt lat="43.05837533415248" lon="12.995118544678688"><ele>932.0</ele><time>2026-04-18T07:31:34.999Z</time></trkpt><trkpt lat="43.058277677844025" lon="12.995082480658537"><ele>932.0</ele><time>2026-04-18T07:31:36Z</time></trkpt><trkpt lat="43.058187976927016" lon="12.995006167622568"><ele>937.0</ele><time>2026-04-18T07:31:37Z</time></trkpt><trkpt lat="43.05808884514952" lon="12.994941308565998"><ele>942.0</ele><time>2026-04-18T07:31:38Z</time></trkpt><trkpt lat="43.057994829967235" lon="12.994879795813818"><ele>947.0</ele><time>2026-04-18T07:31:39Z</time></trkpt><trkpt lat="43.05789301888821" lon="12.994837469558203"><ele>952.0</ele><time>2026-04-18T07:31:40Z</time></trkpt><trkpt lat="43.05779900979103" lon="12.994772328554534"><ele>957.0</ele><time>2026-04-18T07:31:41Z</time></trkpt><trkpt lat="43.05770493700365" lon="12.994714028796633"><ele>957.0</ele><time>2026-04-18T07:31:42Z</time></trkpt><trkpt lat="43.05760428450921" lon="12.994648984895372"><ele>957.0</ele><time>2026-04-18T07:31:43Z</time></trkpt><trkpt lat="43.05750669788182" lon="12.99458995462838"><ele>957.0</ele><time>2026-04-18T07:31:44Z</time></trkpt><trkpt lat="43.05740506696377" lon="12.994522546425399"><ele>957.0</ele><time>2026-04-18T07:31:45Z</time></trkpt><trkpt lat="43.05729979911351" lon="12.994461316836748"><ele>957.0</ele><time>2026-04-18T07:31:46Z</time></trkpt><trkpt lat="43.057206444761036" lon="12.994385272888776"><ele>961.0</ele><time>2026-04-18T07:31:47Z</time></trkpt><trkpt lat="43.05709594015312" lon="12.994345173715606"><ele>965.0</ele><time>2026-04-18T07:31:48Z</time></trkpt><trkpt lat="43.05699006682955" lon="12.994289825671245"><ele>969.0</ele><time>2026-04-18T07:31:49Z</time></trkpt><trkpt lat="43.05688863765162" lon="12.994201357954774"><ele>973.0</ele><time>2026-04-18T07:31:50Z</time></trkpt><trkpt lat="43.05678984737215" lon="12.994116496420306"><ele>973.0</ele><time>2026-04-18T07:31:51Z</time></trkpt><trkpt lat="43.05670152267625" lon="12.994022355911357"><ele>973.0</ele><time>2026-04-18T07:31:52Z</time></trkpt><trkpt lat="43.05661925921159" lon="12.99391890413362"><ele>973.0</ele><time>2026-04-18T07:31:53Z</time></trkpt><trkpt lat="43.05654607983012" lon="12.993818679482391"><ele>973.0</ele><time>2026-04-18T07:31:54Z</time></trkpt><trkpt lat="43.05647156786922" lon="12.993733556946578"><ele>973.0</ele><time>2026-04-18T07:31:55Z</time></trkpt><trkpt lat="43.05641576473009" lon="12.99361428751595"><ele>972.0</ele><time>2026-04-18T07:31:56Z</time></trkpt><trkpt lat="43.05640040523872" lon="12.993467651079836"><ele>971.0</ele><time>2026-04-18T07:31:57Z</time></trkpt><trkpt lat="43.05636625227482" lon="12.993315497461253"><ele>970.0</ele><time>2026-04-18T07:31:58Z</time></trkpt><trkpt lat="43.056319711375714" lon="12.993156698320103"><ele>969.0</ele><time>2026-04-18T07:31:59Z</time></trkpt><trkpt lat="43.05628184128252" lon="12.992989386833369"><ele>969.0</ele><time>2026-04-18T07:32:00Z</time></trkpt><trkpt lat="43.05623855734615" lon="12.992850051023533"><ele>969.0</ele><time>2026-04-18T07:32:01Z</time></trkpt><trkpt lat="43.056175830201425" lon="12.992781717726642"><ele>969.0</ele><time>2026-04-18T07:32:02Z</time></trkpt><trkpt lat="43.056110870125536" lon="12.992712026497522"><ele>969.0</ele><time>2026-04-18T07:32:03Z</time></trkpt><trkpt lat="43.05604438102818" lon="12.992640194540003"><ele>969.0</ele><time>2026-04-18T07:32:04Z</time></trkpt><trkpt lat="43.05599075492379" lon="12.992586879318742"><ele>969.0</ele><time>2026-04-18T07:32:05Z</time></trkpt><trkpt lat="43.055947167025195" lon="12.992498402687392"><ele>974.0</ele><time>2026-04-18T07:32:07Z</time></trkpt><trkpt lat="43.055976920538924" lon="12.992389363483978"><ele>979.0000000000001</ele><time>2026-04-18T07:32:08Z</time></trkpt><trkpt lat="43.056014338302546" lon="12.992275338380946"><ele>984.0000000000001</ele><time>2026-04-18T07:32:09Z</time></trkpt><trkpt lat="43.05602414030196" lon="12.992133070414589"><ele>989.0</ele><time>2026-04-18T07:32:10Z</time></trkpt><trkpt lat="43.05601335464804" lon="12.992007203532134"><ele>994.0</ele><time>2026-04-18T07:32:11Z</time></trkpt><trkpt lat="43.05596438405012" lon="12.991895204111225"><ele>994.0</ele><time>2026-04-18T07:32:12Z</time></trkpt><trkpt lat="43.05587991220739" lon="12.99181358696096"><ele>994.0000000000001</ele><time>2026-04-18T07:32:12.999Z</time></trkpt><trkpt lat="43.05578285859098" lon="12.991714093222834"><ele>994.0000000000001</ele><time>2026-04-18T07:32:13.999Z</time></trkpt><trkpt lat="43.055722474805805" lon="12.991605182234517"><ele>994.0</ele><time>2026-04-18T07:32:14.999Z</time></trkpt><trkpt lat="43.0556803274427" lon="12.991499279632782"><ele>994.0</ele><time>2026-04-18T07:32:15.999Z</time></trkpt><trkpt lat="43.05564801538286" lon="12.99134986427322"><ele>1002.4000000000001</ele><time>2026-04-18T07:32:16.999Z</time></trkpt><trkpt lat="43.055624750228056" lon="12.991213453343928"><ele>1010.8000000000001</ele><time>2026-04-18T07:32:17.999Z</time></trkpt><trkpt lat="43.055624714306475" lon="12.991104963848937"><ele>1019.1999999999999</ele><time>2026-04-18T07:32:18.999Z</time></trkpt><trkpt lat="43.05565709564719" lon="12.990973684449896"><ele>1027.6</ele><time>2026-04-18T07:32:19.999Z</time></trkpt><trkpt lat="43.05572070423519" lon="12.990831158454366"><ele>1036.0</ele><time>2026-04-18T07:32:20.999Z</time></trkpt><trkpt lat="43.055776289947396" lon="12.990700018780439"><ele>1037.8</ele><time>2026-04-18T07:32:21.999Z</time></trkpt><trkpt lat="43.055804649518855" lon="12.990591397428618"><ele>1039.6</ele><time>2026-04-18T07:32:22.999Z</time></trkpt><trkpt lat="43.05582788478098" lon="12.990493889395701"><ele>1041.4</ele><time>2026-04-18T07:32:23.999Z</time></trkpt><trkpt lat="43.05579586538542" lon="12.990335161806847"><ele>1043.2</ele><time>2026-04-18T07:32:25.999Z</time></trkpt><trkpt lat="43.05574537002679" lon="12.990238462921859"><ele>1045.0</ele><time>2026-04-18T07:32:26.999Z</time></trkpt><trkpt lat="43.05572129486223" lon="12.99012287704502"><ele>1045.0</ele><time>2026-04-18T07:32:27.999Z</time></trkpt><trkpt lat="43.055755669421266" lon="12.990014629945087"><ele>1045.0</ele><time>2026-04-18T07:32:28.999Z</time></trkpt><trkpt lat="43.05576304158038" lon="12.98989117799139"><ele>1045.0</ele><time>2026-04-18T07:32:29.999Z</time></trkpt><trkpt lat="43.05577719846777" lon="12.989752880265534"><ele>1045.0</ele><time>2026-04-18T07:32:30.999Z</time></trkpt><trkpt lat="43.05579242076594" lon="12.989646072456903"><ele>1045.0</ele><time>2026-04-18T07:32:31.999Z</time></trkpt><trkpt lat="43.0558275361697" lon="12.989535019068756"><ele>1045.0</ele><time>2026-04-18T07:32:32.999Z</time></trkpt><trkpt lat="43.055836719835725" lon="12.989424191341278"><ele>1043.0</ele><time>2026-04-18T07:32:33.999Z</time></trkpt><trkpt lat="43.05586735796518" lon="12.989334209231279"><ele>1041.0</ele><time>2026-04-18T07:32:34.999Z</time></trkpt><trkpt lat="43.05590216069244" lon="12.989252644001368"><ele>1039.0</ele><time>2026-04-18T07:32:35.999Z</time></trkpt><trkpt lat="43.05593120631578" lon="12.989172711883613"><ele>1037.0</ele><time>2026-04-18T07:32:36.999Z</time></trkpt><trkpt lat="43.05600977107113" lon="12.989034977941163"><ele>1035.0</ele><time>2026-04-18T07:32:38.999Z</time></trkpt><trkpt lat="43.05609034377665" lon="12.989036868802618"><ele>1033.0</ele><time>2026-04-18T07:32:39.999Z</time></trkpt><trkpt lat="43.05615351986502" lon="12.988982054251174"><ele>1033.0</ele><time>2026-04-18T07:32:40.999Z</time></trkpt><trkpt lat="43.05621326758785" lon="12.988936964223123"><ele>1033.0</ele><time>2026-04-18T07:32:41.999Z</time></trkpt><trkpt lat="43.05626302331309" lon="12.98887191926146"><ele>1033.0</ele><time>2026-04-18T07:32:42.999Z</time></trkpt><trkpt lat="43.0563452611576" lon="12.988792170677131"><ele>1033.0</ele><time>2026-04-18T07:32:44.999Z</time></trkpt><trkpt lat="43.05641303703068" lon="12.988702511421106"><ele>1033.0</ele><time>2026-04-18T07:32:46.999Z</time></trkpt><trkpt lat="43.05645802525246" lon="12.988631183620495"><ele>1033.0</ele><time>2026-04-18T07:32:48.999Z</time></trkpt><trkpt lat="43.05626452900736" lon="12.988322681528627"><ele>1034.8</ele><time>2026-04-18T07:32:49.999Z</time></trkpt><trkpt lat="43.05623563439698" lon="12.988239903796545"><ele>1036.6</ele><time>2026-04-18T07:32:50.999Z</time></trkpt><trkpt lat="43.05614237037606" lon="12.988107210047511"><ele>1038.4</ele><time>2026-04-18T07:32:52.999Z</time></trkpt><trkpt lat="43.056074871447066" lon="12.988018267163"><ele>1040.2</ele><time>2026-04-18T07:32:53.999Z</time></trkpt><trkpt lat="43.05601426861345" lon="12.987982091418008"><ele>1042.0</ele><time>2026-04-18T07:32:54.999Z</time></trkpt><trkpt lat="43.05593079144952" lon="12.98792800972963"><ele>1042.0</ele><time>2026-04-18T07:32:55.999Z</time></trkpt><trkpt lat="43.05585354392807" lon="12.987883882884981"><ele>1042.0</ele><time>2026-04-18T07:32:56.999Z</time></trkpt><trkpt lat="43.05578135726417" lon="12.987830088516489"><ele>1042.0</ele><time>2026-04-18T07:32:57.999Z</time></trkpt><trkpt lat="43.055710628800036" lon="12.987779599539376"><ele>1042.0</ele><time>2026-04-18T07:32:58.999Z</time></trkpt><trkpt lat="43.055651133254955" lon="12.987747488321268"><ele>1042.0</ele><time>2026-04-18T07:32:59.999Z</time></trkpt><trkpt lat="43.05552801834267" lon="12.987746863393475"><ele>1042.0</ele><time>2026-04-18T07:33:01.999Z</time></trkpt><trkpt lat="43.05545042118666" lon="12.987799682762233"><ele>1046.6</ele><time>2026-04-18T07:33:03.999Z</time></trkpt><trkpt lat="43.05536305749258" lon="12.987746751448627"><ele>1051.2</ele><time>2026-04-18T07:33:05.999Z</time></trkpt><trkpt lat="43.05526626550363" lon="12.987725563391809"><ele>1055.8</ele><time>2026-04-18T07:33:07.999Z</time></trkpt><trkpt lat="43.05517155817728" lon="12.987796675817837"><ele>1060.4</ele><time>2026-04-18T07:33:09.999Z</time></trkpt><trkpt lat="43.05505229888794" lon="12.987838605000945"><ele>1065.0</ele><time>2026-04-18T07:33:11.999Z</time></trkpt><trkpt lat="43.05498178026381" lon="12.987841843127795"><ele>1071.0</ele><time>2026-04-18T07:33:12.999Z</time></trkpt><trkpt lat="43.05490361420042" lon="12.987828745379714"><ele>1077.0</ele><time>2026-04-18T07:33:13.999Z</time></trkpt><trkpt lat="43.054806214144925" lon="12.987791794329283"><ele>1083.0</ele><time>2026-04-18T07:33:15.999Z</time></trkpt><trkpt lat="43.0547394029643" lon="12.987732627844627"><ele>1089.0</ele><time>2026-04-18T07:33:17.999Z</time></trkpt><trkpt lat="43.05465180783953" lon="12.987695556894668"><ele>1095.0</ele><time>2026-04-18T07:33:20.999Z</time></trkpt><trkpt lat="43.054596813658875" lon="12.987764917533118"><ele>1101.0</ele><time>2026-04-18T07:33:22.999Z</time></trkpt><trkpt lat="43.05461672328241" lon="12.987904029806552"><ele>1101.0</ele><time>2026-04-18T07:33:24.999Z</time></trkpt><trkpt lat="43.05460391041736" lon="12.988062457275552"><ele>1101.0</ele><time>2026-04-18T07:33:26.999Z</time></trkpt><trkpt lat="43.05459702229882" lon="12.988210552117367"><ele>1101.0</ele><time>2026-04-18T07:33:28.999Z</time></trkpt><trkpt lat="43.0545768794653" lon="12.988370460680477"><ele>1101.0</ele><time>2026-04-18T07:33:30.999Z</time></trkpt><trkpt lat="43.054551655956715" lon="12.988468568699052"><ele>1101.0</ele><time>2026-04-18T07:33:31.999Z</time></trkpt><trkpt lat="43.054483476969885" lon="12.988618832968784"><ele>1100.3999999999999</ele><time>2026-04-18T07:33:33.999Z</time></trkpt><trkpt lat="43.054435671945306" lon="12.988688864083928"><ele>1099.8</ele><time>2026-04-18T07:33:34.999Z</time></trkpt><trkpt lat="43.05435924521989" lon="12.988797103544657"><ele>1099.1999999999998</ele><time>2026-04-18T07:33:36.999Z</time></trkpt><trkpt lat="43.05428847302582" lon="12.988923193301723"><ele>1098.6</ele><time>2026-04-18T07:33:38.999Z</time></trkpt><trkpt lat="43.054232215450526" lon="12.988970873597316"><ele>1098.0</ele><time>2026-04-18T07:33:39.999Z</time></trkpt><trkpt lat="43.0541230305395" lon="12.989038087745449"><ele>1101.2</ele><time>2026-04-18T07:33:42Z</time></trkpt><trkpt lat="43.054026332263916" lon="12.989044296093821"><ele>1104.4</ele><time>2026-04-18T07:33:44Z</time></trkpt><trkpt lat="43.0539617921617" lon="12.98902575753476"><ele>1107.6000000000001</ele><time>2026-04-18T07:33:45Z</time></trkpt><trkpt lat="43.053840233534686" lon="12.989004527057611"><ele>1110.8</ele><time>2026-04-18T07:33:47Z</time></trkpt><trkpt lat="43.05373716865286" lon="12.988987185412979"><ele>1114.0</ele><time>2026-04-18T07:33:49Z</time></trkpt><trkpt lat="43.05362555162339" lon="12.9888808777305"><ele>1114.0</ele><time>2026-04-18T07:33:51Z</time></trkpt><trkpt lat="43.05356449871255" lon="12.988835951721265"><ele>1114.0</ele><time>2026-04-18T07:33:52Z</time></trkpt><trkpt lat="43.05347676679268" lon="12.988793489027112"><ele>1114.0</ele><time>2026-04-18T07:33:53Z</time></trkpt><trkpt lat="43.05338588548557" lon="12.988744451891922"><ele>1114.0</ele><time>2026-04-18T07:33:54Z</time></trkpt><trkpt lat="43.05330353141627" lon="12.988672086528931"><ele>1114.0</ele><time>2026-04-18T07:33:55Z</time></trkpt><trkpt lat="43.053210597718454" lon="12.988596085720255"><ele>1115.6000000000001</ele><time>2026-04-18T07:33:56Z</time></trkpt><trkpt lat="43.05312910461656" lon="12.988530104119809"><ele>1117.2</ele><time>2026-04-18T07:33:57Z</time></trkpt><trkpt lat="43.05304823186293" lon="12.98845886120319"><ele>1118.8000000000002</ele><time>2026-04-18T07:33:58Z</time></trkpt><trkpt lat="43.05296433570479" lon="12.98837661880258"><ele>1120.4</ele><time>2026-04-18T07:33:59Z</time></trkpt><trkpt lat="43.05286353220504" lon="12.988267690381885"><ele>1122.0</ele><time>2026-04-18T07:34:00Z</time></trkpt><trkpt lat="43.05278522181216" lon="12.988189341705024"><ele>1125.0</ele><time>2026-04-18T07:34:01Z</time></trkpt><trkpt lat="43.05270514727522" lon="12.988110552463617"><ele>1128.0</ele><time>2026-04-18T07:34:02Z</time></trkpt><trkpt lat="43.05263580774409" lon="12.988029453981817"><ele>1131.0</ele><time>2026-04-18T07:34:03Z</time></trkpt><trkpt lat="43.052552475194815" lon="12.98792798208419"><ele>1134.0</ele><time>2026-04-18T07:34:04Z</time></trkpt><trkpt lat="43.05246150896998" lon="12.987819166842414"><ele>1137.0</ele><time>2026-04-18T07:34:05Z</time></trkpt><trkpt lat="43.0523649229603" lon="12.987698071757324"><ele>1138.25</ele><time>2026-04-18T07:34:06Z</time></trkpt><trkpt lat="43.0522552697471" lon="12.987555648059345"><ele>1139.5</ele><time>2026-04-18T07:34:07Z</time></trkpt><trkpt lat="43.05212638766307" lon="12.987406394220361"><ele>1140.75</ele><time>2026-04-18T07:34:08Z</time></trkpt><trkpt lat="43.05203859547516" lon="12.987310757704066"><ele>1142.0</ele><time>2026-04-18T07:34:09Z</time></trkpt><trkpt lat="43.05195995934875" lon="12.987237338580307"><ele>1143.4</ele><time>2026-04-18T07:34:10Z</time></trkpt><trkpt lat="43.05187981528614" lon="12.987161874943386"><ele>1144.8000000000002</ele><time>2026-04-18T07:34:11Z</time></trkpt><trkpt lat="43.051802658521666" lon="12.987084924137534"><ele>1146.2</ele><time>2026-04-18T07:34:12Z</time></trkpt><trkpt lat="43.05172269200455" lon="12.98699975228704"><ele>1147.6000000000001</ele><time>2026-04-18T07:34:13Z</time></trkpt><trkpt lat="43.05163432862968" lon="12.986901045220725"><ele>1149.0</ele><time>2026-04-18T07:34:14Z</time></trkpt><trkpt lat="43.05155637053934" lon="12.986809050587059"><ele>1150.0</ele><time>2026-04-18T07:34:15Z</time></trkpt><trkpt lat="43.051471691263544" lon="12.986711884923801"><ele>1151.0</ele><time>2026-04-18T07:34:16Z</time></trkpt><trkpt lat="43.051386756625334" lon="12.986604027369427"><ele>1152.0</ele><time>2026-04-18T07:34:17Z</time></trkpt><trkpt lat="43.05131446910262" lon="12.986515452951343"><ele>1153.0</ele><time>2026-04-18T07:34:18Z</time></trkpt><trkpt lat="43.0512323874243" lon="12.986415879401177"><ele>1154.0</ele><time>2026-04-18T07:34:19Z</time></trkpt><trkpt lat="43.05115439648694" lon="12.986306516914672"><ele>1155.25</ele><time>2026-04-18T07:34:20Z</time></trkpt><trkpt lat="43.05106303266947" lon="12.986185788611355"><ele>1156.5</ele><time>2026-04-18T07:34:21Z</time></trkpt><trkpt lat="43.05096697443314" lon="12.986051735853655"><ele>1157.75</ele><time>2026-04-18T07:34:22Z</time></trkpt><trkpt lat="43.05086050135177" lon="12.985892626500021"><ele>1159.0</ele><time>2026-04-18T07:34:23Z</time></trkpt><trkpt lat="43.05075994947771" lon="12.985733561623293"><ele>1160.3333333333333</ele><time>2026-04-18T07:34:24Z</time></trkpt><trkpt lat="43.050649536597895" lon="12.985576669497103"><ele>1161.6666666666667</ele><time>2026-04-18T07:34:24.999Z</time></trkpt><trkpt lat="43.050547427601366" lon="12.985419433269472"><ele>1163.0</ele><time>2026-04-18T07:34:25.999Z</time></trkpt><trkpt lat="43.050442388268436" lon="12.985258033549611"><ele>1163.0</ele><time>2026-04-18T07:34:26.999Z</time></trkpt><trkpt lat="43.05033648185036" lon="12.985095220722755"><ele>1163.0</ele><time>2026-04-18T07:34:27.999Z</time></trkpt><trkpt lat="43.050237697113815" lon="12.984958155888648"><ele>1163.0</ele><time>2026-04-18T07:34:28.999Z</time></trkpt><trkpt lat="43.05015215845682" lon="12.98483220491811"><ele>1163.0</ele><time>2026-04-18T07:34:29.999Z</time></trkpt><trkpt lat="43.05007244373789" lon="12.98470516926338"><ele>1163.2</ele><time>2026-04-18T07:34:30.999Z</time></trkpt><trkpt lat="43.04999915866385" lon="12.984580966940827"><ele>1163.4</ele><time>2026-04-18T07:34:31.999Z</time></trkpt><trkpt lat="43.049936455809956" lon="12.984469378590001"><ele>1163.6000000000001</ele><time>2026-04-18T07:34:32.999Z</time></trkpt><trkpt lat="43.049875784278555" lon="12.984354418999558"><ele>1163.8</ele><time>2026-04-18T07:34:33.999Z</time></trkpt><trkpt lat="43.04981951722145" lon="12.984247503688206"><ele>1164.0</ele><time>2026-04-18T07:34:34.999Z</time></trkpt><trkpt lat="43.049773338239284" lon="12.984145676167445"><ele>1159.5</ele><time>2026-04-18T07:34:35.999Z</time></trkpt><trkpt lat="43.04971759609135" lon="12.984060474350457"><ele>1155.0</ele><time>2026-04-18T07:34:36.999Z</time></trkpt><trkpt lat="43.04966163878819" lon="12.983980900959738"><ele>1150.5</ele><time>2026-04-18T07:34:37.999Z</time></trkpt><trkpt lat="43.04960763286421" lon="12.983909970468707"><ele>1146.0</ele><time>2026-04-18T07:34:38.999Z</time></trkpt><trkpt lat="43.04954682687606" lon="12.983816706925147"><ele>1141.5</ele><time>2026-04-18T07:34:39.999Z</time></trkpt><trkpt lat="43.04950336278125" lon="12.983734046642853"><ele>1137.0</ele><time>2026-04-18T07:34:40.999Z</time></trkpt><trkpt lat="43.04947482116526" lon="12.983626781737918"><ele>1137.0</ele><time>2026-04-18T07:34:41.999Z</time></trkpt><trkpt lat="43.04944116358587" lon="12.983505345430338"><ele>1137.0</ele><time>2026-04-18T07:34:42.999Z</time></trkpt><trkpt lat="43.049420939279685" lon="12.983402476739546"><ele>1137.0</ele><time>2026-04-18T07:34:43.999Z</time></trkpt><trkpt lat="43.04940119942889" lon="12.983303337338652"><ele>1137.0</ele><time>2026-04-18T07:34:44.999Z</time></trkpt><trkpt lat="43.04937234631903" lon="12.983219068687617"><ele>1137.0</ele><time>2026-04-18T07:34:45.999Z</time></trkpt><trkpt lat="43.04933324686024" lon="12.983145393681381"><ele>1137.0</ele><time>2026-04-18T07:34:46.999Z</time></trkpt><trkpt lat="43.04932142642082" lon="12.983032224425937"><ele>1137.5</ele><time>2026-04-18T07:34:47.999Z</time></trkpt><trkpt lat="43.049294009377846" lon="12.982924877296673"><ele>1138.0</ele><time>2026-04-18T07:34:48.999Z</time></trkpt><trkpt lat="43.04924421092739" lon="12.982848546618952"><ele>1138.5</ele><time>2026-04-18T07:34:49.999Z</time></trkpt><trkpt lat="43.04919246129982" lon="12.982734410477459"><ele>1139.0</ele><time>2026-04-18T07:34:50.999Z</time></trkpt><trkpt lat="43.049164877195324" lon="12.982606104518748"><ele>1139.5</ele><time>2026-04-18T07:34:51.999Z</time></trkpt><trkpt lat="43.04913558655972" lon="12.982515824330395"><ele>1140.0</ele><time>2026-04-18T07:34:52.999Z</time></trkpt><trkpt lat="43.04909170770112" lon="12.982434230274826"><ele>1133.6</ele><time>2026-04-18T07:34:53.999Z</time></trkpt><trkpt lat="43.049044652534235" lon="12.98233140250752"><ele>1127.2</ele><time>2026-04-18T07:34:55.999Z</time></trkpt><trkpt lat="43.04896825717354" lon="12.982295518174084"><ele>1120.8</ele><time>2026-04-18T07:34:57.999Z</time></trkpt><trkpt lat="43.048890631522184" lon="12.982240100441082"><ele>1114.4</ele><time>2026-04-18T07:34:58.999Z</time></trkpt><trkpt lat="43.04881242923369" lon="12.982117222475424"><ele>1108.0</ele><time>2026-04-18T07:35:00.999Z</time></trkpt><trkpt lat="43.04875152439" lon="12.982030576963323"><ele>1108.0</ele><time>2026-04-18T07:35:02.999Z</time></trkpt><trkpt lat="43.048719433588" lon="12.98195104161552"><ele>1108.0</ele><time>2026-04-18T07:35:03.999Z</time></trkpt><trkpt lat="43.04869833684944" lon="12.98186642802144"><ele>1108.0</ele><time>2026-04-18T07:35:04.999Z</time></trkpt><trkpt lat="43.048604387974" lon="12.981794829604667"><ele>1108.0</ele><time>2026-04-18T07:35:06.999Z</time></trkpt><trkpt lat="43.048522020130385" lon="12.981765109826684"><ele>1108.0</ele><time>2026-04-18T07:35:07.999Z</time></trkpt><trkpt lat="43.04847673674676" lon="12.981697370339377"><ele>1108.0</ele><time>2026-04-18T07:35:08.999Z</time></trkpt><trkpt lat="43.04844166656105" lon="12.981610385808471"><ele>1109.0</ele><time>2026-04-18T07:35:09.999Z</time></trkpt><trkpt lat="43.04840436285431" lon="12.981539149602073"><ele>1110.0</ele><time>2026-04-18T07:35:10.999Z</time></trkpt><trkpt lat="43.04830382718988" lon="12.98154408499992"><ele>1111.0</ele><time>2026-04-18T07:35:12.999Z</time></trkpt><trkpt lat="43.04823748376674" lon="12.981547898102885"><ele>1112.0</ele><time>2026-04-18T07:35:13.999Z</time></trkpt><trkpt lat="43.04814979808949" lon="12.981526852831887"><ele>1113.0</ele><time>2026-04-18T07:35:14.999Z</time></trkpt><trkpt lat="43.048078629683054" lon="12.98146298019408"><ele>1114.0</ele><time>2026-04-18T07:35:15.999Z</time></trkpt><trkpt lat="43.048012681000756" lon="12.981394192554335"><ele>1108.0</ele><time>2026-04-18T07:35:16.999Z</time></trkpt><trkpt lat="43.047941014485076" lon="12.981308952650293"><ele>1102.0</ele><time>2026-04-18T07:35:17.999Z</time></trkpt><trkpt lat="43.04787411357774" lon="12.981203688997441"><ele>1096.0</ele><time>2026-04-18T07:35:18.999Z</time></trkpt><trkpt lat="43.04781969130768" lon="12.981132851828827"><ele>1090.0</ele><time>2026-04-18T07:35:19.999Z</time></trkpt><trkpt lat="43.047744757737206" lon="12.981046245837604"><ele>1084.0</ele><time>2026-04-18T07:35:20.999Z</time></trkpt><trkpt lat="43.04768215622281" lon="12.980959098235905"><ele>1084.0</ele><time>2026-04-18T07:35:21.999Z</time></trkpt><trkpt lat="43.04759863195196" lon="12.980885414661163"><ele>1084.0</ele><time>2026-04-18T07:35:22.999Z</time></trkpt><trkpt lat="43.04749447598022" lon="12.980803080054233"><ele>1084.0</ele><time>2026-04-18T07:35:23.999Z</time></trkpt><trkpt lat="43.047412852829716" lon="12.980719589579829"><ele>1084.0</ele><time>2026-04-18T07:35:24.999Z</time></trkpt><trkpt lat="43.04735835019515" lon="12.980616764259933"><ele>1084.0</ele><time>2026-04-18T07:35:25.999Z</time></trkpt><trkpt lat="43.047314313224845" lon="12.98053360605912"><ele>1085.2857142857142</ele><time>2026-04-18T07:35:26.999Z</time></trkpt><trkpt lat="43.047270224721096" lon="12.980451077274488"><ele>1086.5714285714287</ele><time>2026-04-18T07:35:27.999Z</time></trkpt><trkpt lat="43.04722733202568" lon="12.980355086152993"><ele>1087.857142857143</ele><time>2026-04-18T07:35:28.999Z</time></trkpt><trkpt lat="43.047180890029495" lon="12.980266990769369"><ele>1089.142857142857</ele><time>2026-04-18T07:35:29.999Z</time></trkpt><trkpt lat="43.04713207957457" lon="12.980199384547737"><ele>1090.4285714285713</ele><time>2026-04-18T07:35:30.999Z</time></trkpt><trkpt lat="43.04709648193616" lon="12.980114541550481"><ele>1091.7142857142858</ele><time>2026-04-18T07:35:31.999Z</time></trkpt><trkpt lat="43.047076407322486" lon="12.980027079339173"><ele>1093.0</ele><time>2026-04-18T07:35:32.999Z</time></trkpt><trkpt lat="43.04704008573038" lon="12.97993183068498"><ele>1093.0</ele><time>2026-04-18T07:35:33.999Z</time></trkpt><trkpt lat="43.04700390805867" lon="12.979820887162042"><ele>1093.0</ele><time>2026-04-18T07:35:34.999Z</time></trkpt><trkpt lat="43.046943408441415" lon="12.979719798598408"><ele>1093.0</ele><time>2026-04-18T07:35:35.999Z</time></trkpt><trkpt lat="43.04688707235624" lon="12.979600072440695"><ele>1093.0</ele><time>2026-04-18T07:35:36.999Z</time></trkpt><trkpt lat="43.04683046867032" lon="12.97946530920031"><ele>1093.0</ele><time>2026-04-18T07:35:37.999Z</time></trkpt><trkpt lat="43.046765562616315" lon="12.97932061792237"><ele>1095.25</ele><time>2026-04-18T07:35:38.999Z</time></trkpt><trkpt lat="43.046688491257946" lon="12.979181093414358"><ele>1097.5</ele><time>2026-04-18T07:35:39.999Z</time></trkpt><trkpt lat="43.04660816325483" lon="12.979028536122941"><ele>1099.75</ele><time>2026-04-18T07:35:40.999Z</time></trkpt><trkpt lat="43.04652989914328" lon="12.97888863285544"><ele>1102.0</ele><time>2026-04-18T07:35:41.999Z</time></trkpt><trkpt lat="43.04643402967461" lon="12.97876136279999"><ele>1099.0</ele><time>2026-04-18T07:35:42.999Z</time></trkpt><trkpt lat="43.046337128253676" lon="12.978624620005935"><ele>1096.0</ele><time>2026-04-18T07:35:43.999Z</time></trkpt><trkpt lat="43.04624407202338" lon="12.978465851841845"><ele>1093.0</ele><time>2026-04-18T07:35:44.999Z</time></trkpt><trkpt lat="43.04616178824459" lon="12.978288510381999"><ele>1090.0</ele><time>2026-04-18T07:35:45.999Z</time></trkpt><trkpt lat="43.04609581995799" lon="12.978106139942996"><ele>1090.0</ele><time>2026-04-18T07:35:46.999Z</time></trkpt><trkpt lat="43.04600915748277" lon="12.977924420791915"><ele>1090.0</ele><time>2026-04-18T07:35:48Z</time></trkpt><trkpt lat="43.045918881685054" lon="12.977735544400629"><ele>1090.0</ele><time>2026-04-18T07:35:49Z</time></trkpt><trkpt lat="43.04584623740619" lon="12.97759147168089"><ele>1088.0</ele><time>2026-04-18T07:35:50Z</time></trkpt><trkpt lat="43.04578261919378" lon="12.977452838232379"><ele>1086.0</ele><time>2026-04-18T07:35:51Z</time></trkpt><trkpt lat="43.04572560441113" lon="12.977322711894681"><ele>1084.0</ele><time>2026-04-18T07:35:52Z</time></trkpt><trkpt lat="43.045671765796484" lon="12.977205114624523"><ele>1082.0</ele><time>2026-04-18T07:35:53Z</time></trkpt><trkpt lat="43.04562339668182" lon="12.977090652968313"><ele>1080.0</ele><time>2026-04-18T07:35:54Z</time></trkpt><trkpt lat="43.04558668226861" lon="12.976971718486851"><ele>1080.0</ele><time>2026-04-18T07:35:55Z</time></trkpt><trkpt lat="43.04557265521323" lon="12.976880233560642"><ele>1080.0</ele><time>2026-04-18T07:35:56Z</time></trkpt><trkpt lat="43.04559288962423" lon="12.976780510126252"><ele>1080.0</ele><time>2026-04-18T07:35:58Z</time></trkpt><trkpt lat="43.045637622376404" lon="12.97664886836295"><ele>1080.0</ele><time>2026-04-18T07:36:00Z</time></trkpt><trkpt lat="43.04567523952502" lon="12.976531631569607"><ele>1080.0</ele><time>2026-04-18T07:36:02Z</time></trkpt><trkpt lat="43.0457129339987" lon="12.976388014624911"><ele>1080.4</ele><time>2026-04-18T07:36:04Z</time></trkpt><trkpt lat="43.04574891999457" lon="12.976230087334292"><ele>1080.8</ele><time>2026-04-18T07:36:06Z</time></trkpt><trkpt lat="43.04577668348396" lon="12.976125752661082"><ele>1081.2</ele><time>2026-04-18T07:36:07Z</time></trkpt><trkpt lat="43.04580310717954" lon="12.976013502622669"><ele>1081.6</ele><time>2026-04-18T07:36:08Z</time></trkpt><trkpt lat="43.045822410456736" lon="12.975900989937559"><ele>1082.0</ele><time>2026-04-18T07:36:09Z</time></trkpt><trkpt lat="43.04584484485086" lon="12.97579704660474"><ele>1080.1666666666667</ele><time>2026-04-18T07:36:10Z</time></trkpt><trkpt lat="43.04586694876786" lon="12.97568102787633"><ele>1078.3333333333335</ele><time>2026-04-18T07:36:11Z</time></trkpt><trkpt lat="43.04589441953704" lon="12.975559382377213"><ele>1076.5</ele><time>2026-04-18T07:36:11.999Z</time></trkpt><trkpt lat="43.04592845482097" lon="12.975462938952896"><ele>1074.6666666666667</ele><time>2026-04-18T07:36:12.999Z</time></trkpt><trkpt lat="43.04595869130462" lon="12.975361079812439"><ele>1072.8333333333333</ele><time>2026-04-18T07:36:13.999Z</time></trkpt><trkpt lat="43.045988393600005" lon="12.975258633377381"><ele>1071.0</ele><time>2026-04-18T07:36:14.999Z</time></trkpt><trkpt lat="43.046012993022366" lon="12.975169756881352"><ele>1071.0</ele><time>2026-04-18T07:36:15.999Z</time></trkpt><trkpt lat="43.046039646802946" lon="12.975060140397277"><ele>1071.0</ele><time>2026-04-18T07:36:16.999Z</time></trkpt><trkpt lat="43.04605061317893" lon="12.97496438082248"><ele>1071.0</ele><time>2026-04-18T07:36:17.999Z</time></trkpt><trkpt lat="43.04605933986395" lon="12.974861318259643"><ele>1071.0</ele><time>2026-04-18T07:36:18.999Z</time></trkpt><trkpt lat="43.046080650592046" lon="12.974759922965042"><ele>1071.0</ele><time>2026-04-18T07:36:19.999Z</time></trkpt><trkpt lat="43.04610538340824" lon="12.974641306499633"><ele>1071.0</ele><time>2026-04-18T07:36:20.999Z</time></trkpt><trkpt lat="43.046133468163774" lon="12.974536362734584"><ele>1068.8333333333333</ele><time>2026-04-18T07:36:21.999Z</time></trkpt><trkpt lat="43.046149755144555" lon="12.974423260809385"><ele>1066.6666666666667</ele><time>2026-04-18T07:36:22.999Z</time></trkpt><trkpt lat="43.04616996065301" lon="12.974319656504301"><ele>1064.5</ele><time>2026-04-18T07:36:23.999Z</time></trkpt><trkpt lat="43.04616706426782" lon="12.974207239153344"><ele>1062.3333333333335</ele><time>2026-04-18T07:36:24.999Z</time></trkpt><trkpt lat="43.04616643210128" lon="12.974116718626739"><ele>1060.1666666666667</ele><time>2026-04-18T07:36:25.999Z</time></trkpt><trkpt lat="43.04616465035201" lon="12.974001747690188"><ele>1058.0</ele><time>2026-04-18T07:36:26.999Z</time></trkpt><trkpt lat="43.046156434688335" lon="12.973910930690607"><ele>1056.5</ele><time>2026-04-18T07:36:28.999Z</time></trkpt><trkpt lat="43.0460904989849" lon="12.973902636477446"><ele>1055.0</ele><time>2026-04-18T07:36:55.999Z</time></trkpt><trkpt lat="43.04598284734384" lon="12.97392416015281"><ele>1053.5</ele><time>2026-04-18T07:36:57.999Z</time></trkpt><trkpt lat="43.0459108467335" lon="12.973954375723851"><ele>1052.0</ele><time>2026-04-18T07:36:58.999Z</time></trkpt><trkpt lat="43.04582627695102" lon="12.973987699976766"><ele>1050.5</ele><time>2026-04-18T07:36:59.999Z</time></trkpt><trkpt lat="43.04573889070295" lon="12.974029428041272"><ele>1049.0</ele><time>2026-04-18T07:37:00.999Z</time></trkpt><trkpt lat="43.04566460685283" lon="12.974071406318442"><ele>1049.0</ele><time>2026-04-18T07:37:01.999Z</time></trkpt><trkpt lat="43.04559459587946" lon="12.974112970493339"><ele>1049.0</ele><time>2026-04-18T07:37:02.999Z</time></trkpt><trkpt lat="43.04552529287473" lon="12.974144783938806"><ele>1049.0</ele><time>2026-04-18T07:37:03.999Z</time></trkpt><trkpt lat="43.04546410781631" lon="12.974183412114922"><ele>1049.0</ele><time>2026-04-18T07:37:04.999Z</time></trkpt><trkpt lat="43.04540357383995" lon="12.974224296499177"><ele>1049.0</ele><time>2026-04-18T07:37:05.999Z</time></trkpt><trkpt lat="43.045308408407614" lon="12.9743172622481"><ele>1049.0</ele><time>2026-04-18T07:37:07.999Z</time></trkpt><trkpt lat="43.0452360234995" lon="12.974386595847983"><ele>1049.0</ele><time>2026-04-18T07:37:09.998Z</time></trkpt><trkpt lat="43.04516322956399" lon="12.974467455530588"><ele>1049.0</ele><time>2026-04-18T07:37:11.998Z</time></trkpt><trkpt lat="43.045101296248454" lon="12.974499824877805"><ele>1049.0</ele><time>2026-04-18T07:37:13.998Z</time></trkpt><trkpt lat="43.04499812273795" lon="12.974520398143726"><ele>1049.0</ele><time>2026-04-18T07:37:15.998Z</time></trkpt><trkpt lat="43.04488566724074" lon="12.97460218120876"><ele>1049.0</ele><time>2026-04-18T07:37:17.998Z</time></trkpt><trkpt lat="43.04478938232631" lon="12.974718046751377"><ele>1048.8333333333335</ele><time>2026-04-18T07:37:19.998Z</time></trkpt><trkpt lat="43.04471706871074" lon="12.974824141565135"><ele>1048.6666666666667</ele><time>2026-04-18T07:37:21.998Z</time></trkpt><trkpt lat="43.04465165930877" lon="12.974874755791582"><ele>1048.5</ele><time>2026-04-18T07:37:22.998Z</time></trkpt><trkpt lat="43.04459263088167" lon="12.974936865405827"><ele>1048.3333333333333</ele><time>2026-04-18T07:37:23.998Z</time></trkpt><trkpt lat="43.04451819818655" lon="12.975018834044937"><ele>1048.1666666666665</ele><time>2026-04-18T07:37:25.998Z</time></trkpt><trkpt lat="43.044477243991665" lon="12.975085832677943"><ele>1048.0</ele><time>2026-04-18T07:37:26.998Z</time></trkpt><trkpt lat="43.04443724295877" lon="12.975200748378013"><ele>1048.0</ele><time>2026-04-18T07:37:28.998Z</time></trkpt><trkpt lat="43.04440404406699" lon="12.975274259398462"><ele>1048.0</ele><time>2026-04-18T07:37:29.998Z</time></trkpt><trkpt lat="43.04432423923509" lon="12.975347009357048"><ele>1048.0</ele><time>2026-04-18T07:37:31.998Z</time></trkpt><trkpt lat="43.04424668101606" lon="12.975379849847705"><ele>1048.0</ele><time>2026-04-18T07:37:33.998Z</time></trkpt><trkpt lat="43.04415806500052" lon="12.97544868824398"><ele>1048.0</ele><time>2026-04-18T07:37:35.998Z</time></trkpt><trkpt lat="43.04409630753953" lon="12.97552687510818"><ele>1048.0</ele><time>2026-04-18T07:37:37.998Z</time></trkpt><trkpt lat="43.0440427027018" lon="12.975634475110976"><ele>1043.6</ele><time>2026-04-18T07:37:39.998Z</time></trkpt><trkpt lat="43.04400017116647" lon="12.97569818379791"><ele>1039.1999999999998</ele><time>2026-04-18T07:37:40.998Z</time></trkpt><trkpt lat="43.043925034350735" lon="12.975807470914514"><ele>1034.8</ele><time>2026-04-18T07:37:42.998Z</time></trkpt><trkpt lat="43.04386317133543" lon="12.975901885559729"><ele>1030.3999999999999</ele><time>2026-04-18T07:37:44.998Z</time></trkpt><trkpt lat="43.04375093445613" lon="12.975980939708512"><ele>1026.0</ele><time>2026-04-18T07:37:46.998Z</time></trkpt><trkpt lat="43.043691204990864" lon="12.976012981577364"><ele>1026.0</ele><time>2026-04-18T07:37:47.998Z</time></trkpt><trkpt lat="43.043602639243396" lon="12.976114498245916"><ele>1026.0</ele><time>2026-04-18T07:37:49.998Z</time></trkpt><trkpt lat="43.043553859184236" lon="12.976252322156785"><ele>1026.0</ele><time>2026-04-18T07:37:51.998Z</time></trkpt><trkpt lat="43.04351708412504" lon="12.976349740962867"><ele>1026.0</ele><time>2026-04-18T07:37:53.999Z</time></trkpt><trkpt lat="43.04347600826817" lon="12.976446378250483"><ele>1026.0</ele><time>2026-04-18T07:37:55.999Z</time></trkpt><trkpt lat="43.043461609873795" lon="12.976560731702104"><ele>1026.0</ele><time>2026-04-18T07:37:57.999Z</time></trkpt><trkpt lat="43.043452381882666" lon="12.976665571064894"><ele>1026.0</ele><time>2026-04-18T07:38:00Z</time></trkpt><trkpt lat="43.043448253903904" lon="12.976833234257594"><ele>1026.0</ele><time>2026-04-18T07:38:02Z</time></trkpt><trkpt lat="43.043460076109355" lon="12.976991421556413"><ele>1026.0</ele><time>2026-04-18T07:38:04Z</time></trkpt><trkpt lat="43.04349145457734" lon="12.977112400479449"><ele>1026.0</ele><time>2026-04-18T07:38:06Z</time></trkpt><trkpt lat="43.04349389164505" lon="12.977232981969673"><ele>1025.0</ele><time>2026-04-18T07:38:08Z</time></trkpt><trkpt lat="43.043506928072645" lon="12.977347023738606"><ele>1023.9999999999999</ele><time>2026-04-18T07:38:09Z</time></trkpt><trkpt lat="43.043523588363406" lon="12.977455566659637"><ele>1022.9999999999999</ele><time>2026-04-18T07:38:10Z</time></trkpt><trkpt lat="43.04353603560489" lon="12.977551355745918"><ele>1022.0</ele><time>2026-04-18T07:38:11Z</time></trkpt><trkpt lat="43.043543626280204" lon="12.97772120645858"><ele>1021.0</ele><time>2026-04-18T07:38:13Z</time></trkpt><trkpt lat="43.043577723594865" lon="12.977888847927332"><ele>1018.0</ele><time>2026-04-18T07:38:15Z</time></trkpt><trkpt lat="43.0435927413632" lon="12.977981277130867"><ele>1014.9999999999999</ele><time>2026-04-18T07:38:16Z</time></trkpt><trkpt lat="43.04361739465468" lon="12.978146383940173"><ele>1011.9999999999999</ele><time>2026-04-18T07:38:18Z</time></trkpt><trkpt lat="43.04360545932158" lon="12.97828890145768"><ele>1009.0</ele><time>2026-04-18T07:38:20Z</time></trkpt><trkpt lat="43.043628671749104" lon="12.97844094810368"><ele>1006.0</ele><time>2026-04-18T07:38:22Z</time></trkpt><trkpt lat="43.04362620896913" lon="12.978537070548937"><ele>1003.0</ele><time>2026-04-18T07:38:23Z</time></trkpt><trkpt lat="43.043648678418016" lon="12.978678104856058"><ele>999.9999999999999</ele><time>2026-04-18T07:38:25Z</time></trkpt><trkpt lat="43.043640147078406" lon="12.978809568301859"><ele>996.9999999999999</ele><time>2026-04-18T07:38:27Z</time></trkpt><trkpt lat="43.04364158070424" lon="12.978964382339122"><ele>994.0</ele><time>2026-04-18T07:38:29Z</time></trkpt><trkpt lat="43.04363436002591" lon="12.979133131261879"><ele>991.0</ele><time>2026-04-18T07:38:31Z</time></trkpt><trkpt lat="43.043647884203594" lon="12.979220148929754"><ele>988.4999999999999</ele><time>2026-04-18T07:38:32Z</time></trkpt><trkpt lat="43.04366024876877" lon="12.979356679449632"><ele>986.0</ele><time>2026-04-18T07:38:34Z</time></trkpt><trkpt lat="43.043654146458934" lon="12.979486358091966"><ele>983.5</ele><time>2026-04-18T07:38:36Z</time></trkpt><trkpt lat="43.043651657611996" lon="12.979617530996483"><ele>981.0</ele><time>2026-04-18T07:38:38Z</time></trkpt><trkpt lat="43.043644608597695" lon="12.979711491125759"><ele>978.4999999999999</ele><time>2026-04-18T07:38:39Z</time></trkpt><trkpt lat="43.043628625215646" lon="12.979806712214492"><ele>976.0</ele><time>2026-04-18T07:38:40Z</time></trkpt><trkpt lat="43.04360677267196" lon="12.979906514639262"><ele>976.0</ele><time>2026-04-18T07:38:41Z</time></trkpt><trkpt lat="43.0435794382701" lon="12.979998687478059"><ele>975.9999999999999</ele><time>2026-04-18T07:38:42Z</time></trkpt><trkpt lat="43.04349698681058" lon="12.980082744552169"><ele>975.9999999999999</ele><time>2026-04-18T07:38:43.999Z</time></trkpt><trkpt lat="43.04340088277784" lon="12.980089926839293"><ele>976.0</ele><time>2026-04-18T07:38:45.999Z</time></trkpt><trkpt lat="43.043337834531755" lon="12.980115230981527"><ele>976.0</ele><time>2026-04-18T07:38:46.999Z</time></trkpt><trkpt lat="43.04322174261833" lon="12.980117270483232"><ele>969.3333333333333</ele><time>2026-04-18T07:38:48.999Z</time></trkpt><trkpt lat="43.04311959581145" lon="12.980177179877295"><ele>962.6666666666666</ele><time>2026-04-18T07:38:50.999Z</time></trkpt><trkpt lat="43.04303332508777" lon="12.980233822616258"><ele>956.0</ele><time>2026-04-18T07:38:52.999Z</time></trkpt><trkpt lat="43.042954558482194" lon="12.980275641250829"><ele>949.3333333333333</ele><time>2026-04-18T07:38:55.999Z</time></trkpt><trkpt lat="43.042910071180415" lon="12.980342152300565"><ele>942.6666666666666</ele><time>2026-04-18T07:38:58.999Z</time></trkpt><trkpt lat="43.04289864801561" lon="12.980446369284566"><ele>936.0</ele><time>2026-04-18T07:39:00.999Z</time></trkpt><trkpt lat="43.04288960062391" lon="12.980537808983598"><ele>936.0</ele><time>2026-04-18T07:39:02.999Z</time></trkpt><trkpt lat="43.04292087044985" lon="12.98062553785939"><ele>936.0000000000001</ele><time>2026-04-18T07:39:04.999Z</time></trkpt><trkpt lat="43.04295579506849" lon="12.980698006822923"><ele>936.0</ele><time>2026-04-18T07:39:06.999Z</time></trkpt><trkpt lat="43.043002545328235" lon="12.980765793553026"><ele>936.0</ele><time>2026-04-18T07:39:08.999Z</time></trkpt><trkpt lat="43.04294010617385" lon="12.980830761970653"><ele>936.0000000000001</ele><time>2026-04-18T07:39:12.999Z</time></trkpt><trkpt lat="43.04285216279072" lon="12.980837025528366"><ele>936.0</ele><time>2026-04-18T07:39:14.999Z</time></trkpt><trkpt lat="43.042791399081366" lon="12.980867333489243"><ele>936.0</ele><time>2026-04-18T07:39:16.999Z</time></trkpt><trkpt lat="43.04269593036558" lon="12.980881564446527"><ele>932.8333333333334</ele><time>2026-04-18T07:39:18.999Z</time></trkpt><trkpt lat="43.04259263907223" lon="12.980935881851602"><ele>929.6666666666667</ele><time>2026-04-18T07:39:20.999Z</time></trkpt><trkpt lat="43.04251547822948" lon="12.980968492813398"><ele>926.5</ele><time>2026-04-18T07:39:22.999Z</time></trkpt><trkpt lat="43.04245487028373" lon="12.981009828119856"><ele>923.3333333333334</ele><time>2026-04-18T07:39:24.999Z</time></trkpt><trkpt lat="43.04238969461458" lon="12.980997796075528"><ele>920.1666666666667</ele><time>2026-04-18T07:39:27.999Z</time></trkpt><trkpt lat="43.04233466485962" lon="12.98092456381082"><ele>917.0</ele><time>2026-04-18T07:39:29.999Z</time></trkpt><trkpt lat="43.04229265797843" lon="12.980849064844108"><ele>915.6666666666667</ele><time>2026-04-18T07:39:31.999Z</time></trkpt><trkpt lat="43.04223570079281" lon="12.980750847880532"><ele>914.3333333333334</ele><time>2026-04-18T07:39:35.999Z</time></trkpt><trkpt lat="43.04220679757248" lon="12.980647856285612"><ele>913.0</ele><time>2026-04-18T07:39:38.999Z</time></trkpt><trkpt lat="43.042184495344344" lon="12.980527744649512"><ele>911.6666666666667</ele><time>2026-04-18T07:39:41.999Z</time></trkpt><trkpt lat="43.04216672409223" lon="12.980409246153746"><ele>910.3333333333334</ele><time>2026-04-18T07:39:43.999Z</time></trkpt><trkpt lat="43.04214974412802" lon="12.980296822641005"><ele>909.0</ele><time>2026-04-18T07:39:45.999Z</time></trkpt><trkpt lat="43.04211322702481" lon="12.980121010224334"><ele>907.3333333333334</ele><time>2026-04-18T07:39:47.999Z</time></trkpt><trkpt lat="43.04213626365581" lon="12.979977200329419"><ele>905.6666666666667</ele><time>2026-04-18T07:39:49.999Z</time></trkpt><trkpt lat="43.04213441982133" lon="12.979837550060921"><ele>904.0</ele><time>2026-04-18T07:39:51.999Z</time></trkpt><trkpt lat="43.042068420658296" lon="12.979790553255981"><ele>902.3333333333334</ele><time>2026-04-18T07:39:52.999Z</time></trkpt><trkpt lat="43.042003856372276" lon="12.97974755399195"><ele>900.6666666666667</ele><time>2026-04-18T07:39:53.999Z</time></trkpt><trkpt lat="43.04194741095154" lon="12.979692369666154"><ele>899.0</ele><time>2026-04-18T07:39:54.999Z</time></trkpt><trkpt lat="43.04192936096043" lon="12.979609539930838"><ele>899.0000000000001</ele><time>2026-04-18T07:39:55.999Z</time></trkpt><trkpt lat="43.04189893797888" lon="12.979521857999432"><ele>899.0</ele><time>2026-04-18T07:39:56.999Z</time></trkpt><trkpt lat="43.04182534481756" lon="12.979430689508543"><ele>899.0</ele><time>2026-04-18T07:39:57.999Z</time></trkpt><trkpt lat="43.04175901501734" lon="12.97938315531575"><ele>899.0</ele><time>2026-04-18T07:39:58.999Z</time></trkpt><trkpt lat="43.04168789198132" lon="12.97935190960589"><ele>899.0000000000001</ele><time>2026-04-18T07:40:00Z</time></trkpt><trkpt lat="43.04160859086133" lon="12.979282695268116"><ele>899.0</ele><time>2026-04-18T07:40:01Z</time></trkpt><trkpt lat="43.04153578249611" lon="12.979193057918957"><ele>893.0000000000001</ele><time>2026-04-18T07:40:02Z</time></trkpt><trkpt lat="43.04148215997763" lon="12.97910515003526"><ele>887.0</ele><time>2026-04-18T07:40:03Z</time></trkpt><trkpt lat="43.04142469908436" lon="12.979022431817848"><ele>881.0</ele><time>2026-04-18T07:40:04Z</time></trkpt><trkpt lat="43.04136726584261" lon="12.97896508524843"><ele>875.0</ele><time>2026-04-18T07:40:05Z</time></trkpt><trkpt lat="43.04127904319653" lon="12.978897511376136"><ele>869.0000000000001</ele><time>2026-04-18T07:40:07Z</time></trkpt><trkpt lat="43.0412186461447" lon="12.978855469649698"><ele>863.0</ele><time>2026-04-18T07:40:08Z</time></trkpt><trkpt lat="43.04116850127153" lon="12.978771334109725"><ele>863.0000000000001</ele><time>2026-04-18T07:40:09Z</time></trkpt><trkpt lat="43.0411122688622" lon="12.978692279625646"><ele>863.0</ele><time>2026-04-18T07:40:10Z</time></trkpt><trkpt lat="43.041058933268744" lon="12.978623737419811"><ele>863.0</ele><time>2026-04-18T07:40:11Z</time></trkpt><trkpt lat="43.04099977462511" lon="12.978545844771276"><ele>863.0</ele><time>2026-04-18T07:40:12Z</time></trkpt><trkpt lat="43.040929240986266" lon="12.978489640516274"><ele>863.0000000000001</ele><time>2026-04-18T07:40:13Z</time></trkpt><trkpt lat="43.0408620957537" lon="12.978437950831555"><ele>863.0</ele><time>2026-04-18T07:40:14Z</time></trkpt><trkpt lat="43.040800000380834" lon="12.978350361478094"><ele>859.1666666666667</ele><time>2026-04-18T07:40:15Z</time></trkpt><trkpt lat="43.04074633886495" lon="12.978268213452813"><ele>855.3333333333334</ele><time>2026-04-18T07:40:16Z</time></trkpt><trkpt lat="43.04068229573704" lon="12.97820884557212"><ele>851.5</ele><time>2026-04-18T07:40:17Z</time></trkpt><trkpt lat="43.04061415562882" lon="12.978148247989402"><ele>847.6666666666667</ele><time>2026-04-18T07:40:18Z</time></trkpt><trkpt lat="43.040513346068124" lon="12.978030322368742"><ele>843.8333333333334</ele><time>2026-04-18T07:40:20Z</time></trkpt><trkpt lat="43.04046293221674" lon="12.977954691151924"><ele>840.0</ele><time>2026-04-18T07:40:21Z</time></trkpt><trkpt lat="43.040414917030354" lon="12.9778812478472"><ele>840.0</ele><time>2026-04-18T07:40:22Z</time></trkpt><trkpt lat="43.04037373853331" lon="12.977794859705794"><ele>840.0</ele><time>2026-04-18T07:40:23Z</time></trkpt><trkpt lat="43.04031941685024" lon="12.977712780201411"><ele>840.0</ele><time>2026-04-18T07:40:24Z</time></trkpt><trkpt lat="43.0402790484246" lon="12.977631613696062"><ele>840.0</ele><time>2026-04-18T07:40:25Z</time></trkpt><trkpt lat="43.04024077523817" lon="12.977559503566415"><ele>840.0</ele><time>2026-04-18T07:40:26Z</time></trkpt><trkpt lat="43.04015034368432" lon="12.97747762800387"><ele>840.0</ele><time>2026-04-18T07:40:28Z</time></trkpt><trkpt lat="43.04007069597645" lon="12.977437379701064"><ele>836.6666666666666</ele><time>2026-04-18T07:40:30Z</time></trkpt><trkpt lat="43.04001104489482" lon="12.977388277412274"><ele>833.3333333333333</ele><time>2026-04-18T07:40:31Z</time></trkpt><trkpt lat="43.03994793197266" lon="12.977341290699544"><ele>830.0</ele><time>2026-04-18T07:40:32Z</time></trkpt><trkpt lat="43.039884124105534" lon="12.977278697732654"><ele>826.6666666666666</ele><time>2026-04-18T07:40:33Z</time></trkpt><trkpt lat="43.039831163367595" lon="12.977207630186106"><ele>823.3333333333333</ele><time>2026-04-18T07:40:34Z</time></trkpt><trkpt lat="43.039766921507685" lon="12.977126535984473"><ele>820.0</ele><time>2026-04-18T07:40:35Z</time></trkpt><trkpt lat="43.03971055876277" lon="12.977032874617892"><ele>819.9999999999999</ele><time>2026-04-18T07:40:36Z</time></trkpt><trkpt lat="43.039650279055316" lon="12.976961685140827"><ele>820.0</ele><time>2026-04-18T07:40:37Z</time></trkpt><trkpt lat="43.0395898455287" lon="12.976887417054582"><ele>820.0</ele><time>2026-04-18T07:40:38Z</time></trkpt><trkpt lat="43.039504739280424" lon="12.976782773688715"><ele>820.0</ele><time>2026-04-18T07:40:40Z</time></trkpt><trkpt lat="43.03943675699077" lon="12.976697570816107"><ele>819.9999999999999</ele><time>2026-04-18T07:40:42Z</time></trkpt><trkpt lat="43.03937777213841" lon="12.97665713255747"><ele>820.0</ele><time>2026-04-18T07:40:44Z</time></trkpt><trkpt lat="43.039360910893514" lon="12.976750157470168"><ele>820.0</ele><time>2026-04-18T07:40:47Z</time></trkpt><trkpt lat="43.039379738037525" lon="12.976891332600898"><ele>820.0</ele><time>2026-04-18T07:40:49Z</time></trkpt><trkpt lat="43.03936999783567" lon="12.977050884631089"><ele>820.0</ele><time>2026-04-18T07:40:50.999Z</time></trkpt><trkpt lat="43.039368511537845" lon="12.977145803506872"><ele>820.0</ele><time>2026-04-18T07:40:51.999Z</time></trkpt><trkpt lat="43.039372436257736" lon="12.977239968607053"><ele>820.0</ele><time>2026-04-18T07:40:52.999Z</time></trkpt><trkpt lat="43.03939285319976" lon="12.97737640476002"><ele>819.9999999999999</ele><time>2026-04-18T07:40:54.999Z</time></trkpt><trkpt lat="43.039411593788216" lon="12.97750871166203"><ele>820.0</ele><time>2026-04-18T07:40:56.999Z</time></trkpt><trkpt lat="43.039430506320556" lon="12.977591832152832"><ele>820.0</ele><time>2026-04-18T07:40:57.999Z</time></trkpt><trkpt lat="43.03947415184377" lon="12.97772306515416"><ele>820.0</ele><time>2026-04-18T07:40:59.999Z</time></trkpt><trkpt lat="43.039494008348385" lon="12.977839116068502"><ele>819.9999999999999</ele><time>2026-04-18T07:41:01.999Z</time></trkpt><trkpt lat="43.039509103545335" lon="12.977926907837888"><ele>820.0</ele><time>2026-04-18T07:41:03.999Z</time></trkpt><trkpt lat="43.03943429408156" lon="12.977946501927297"><ele>815.8</ele><time>2026-04-18T07:41:07.999Z</time></trkpt><trkpt lat="43.03934084476618" lon="12.977914464339339"><ele>811.6</ele><time>2026-04-18T07:41:10.999Z</time></trkpt><trkpt lat="43.039278602404956" lon="12.977871821417848"><ele>807.4000000000001</ele><time>2026-04-18T07:41:11.999Z</time></trkpt><trkpt lat="43.03919669411362" lon="12.977820262679035"><ele>803.2</ele><time>2026-04-18T07:41:13.999Z</time></trkpt><trkpt lat="43.03909673599825" lon="12.977761101284056"><ele>799.0</ele><time>2026-04-18T07:41:15.999Z</time></trkpt><trkpt lat="43.0390071679441" lon="12.97771341602734"><ele>795.8333333333333</ele><time>2026-04-18T07:41:17.999Z</time></trkpt><trkpt lat="43.03893472864691" lon="12.977661353200432"><ele>792.6666666666666</ele><time>2026-04-18T07:41:19.999Z</time></trkpt><trkpt lat="43.03887527597142" lon="12.977612567835072"><ele>789.5</ele><time>2026-04-18T07:41:21.999Z</time></trkpt><trkpt lat="43.03879393699074" lon="12.977559788505468"><ele>786.3333333333333</ele><time>2026-04-18T07:41:24.999Z</time></trkpt><trkpt lat="43.03871965323795" lon="12.977493599848943"><ele>783.1666666666666</ele><time>2026-04-18T07:41:26.999Z</time></trkpt><trkpt lat="43.03864585879867" lon="12.977447015080267"><ele>780.0</ele><time>2026-04-18T07:41:27.999Z</time></trkpt><trkpt lat="43.03857810056005" lon="12.977410699742432"><ele>780.0</ele><time>2026-04-18T07:41:28.999Z</time></trkpt><trkpt lat="43.03851606383439" lon="12.977381970462273"><ele>780.0</ele><time>2026-04-18T07:41:29.999Z</time></trkpt><trkpt lat="43.03845512955822" lon="12.97735102521672"><ele>780.0</ele><time>2026-04-18T07:41:30.999Z</time></trkpt><trkpt lat="43.03839671381497" lon="12.977295911625227"><ele>780.0</ele><time>2026-04-18T07:41:31.999Z</time></trkpt><trkpt lat="43.03831056392618" lon="12.977217614447284"><ele>780.0</ele><time>2026-04-18T07:41:33.999Z</time></trkpt><trkpt lat="43.038254417291995" lon="12.97716259630857"><ele>780.0</ele><time>2026-04-18T07:41:34.999Z</time></trkpt><trkpt lat="43.038189857743184" lon="12.977000529976456"><ele>773.6</ele><time>2026-04-18T07:41:36.999Z</time></trkpt><trkpt lat="43.038175830041" lon="12.976902360233781"><ele>767.2</ele><time>2026-04-18T07:41:37.999Z</time></trkpt><trkpt lat="43.0381525901414" lon="12.976779104149522"><ele>760.8</ele><time>2026-04-18T07:41:38.999Z</time></trkpt><trkpt lat="43.03812064910091" lon="12.976644274163402"><ele>754.4</ele><time>2026-04-18T07:41:39.999Z</time></trkpt><trkpt lat="43.03808941568207" lon="12.976510063902502"><ele>748.0</ele><time>2026-04-18T07:41:40.999Z</time></trkpt><trkpt lat="43.03805509954823" lon="12.976370966736324"><ele>748.0</ele><time>2026-04-18T07:41:41.999Z</time></trkpt><trkpt lat="43.03803064124576" lon="12.976238732624553"><ele>748.0</ele><time>2026-04-18T07:41:42.999Z</time></trkpt><trkpt lat="43.03801478813752" lon="12.976118671363468"><ele>748.0</ele><time>2026-04-18T07:41:43.999Z</time></trkpt><trkpt lat="43.03796268774651" lon="12.975986078832955"><ele>748.0</ele><time>2026-04-18T07:41:45.999Z</time></trkpt><trkpt lat="43.03792558802689" lon="12.975907722266264"><ele>748.0</ele><time>2026-04-18T07:41:46.999Z</time></trkpt><trkpt lat="43.037895132734" lon="12.975822523106869"><ele>748.0</ele><time>2026-04-18T07:41:47.999Z</time></trkpt><trkpt lat="43.03785768007722" lon="12.97569648460776"><ele>748.4</ele><time>2026-04-18T07:41:49.999Z</time></trkpt><trkpt lat="43.03786309628846" lon="12.975540599703754"><ele>748.8</ele><time>2026-04-18T07:41:51.999Z</time></trkpt><trkpt lat="43.037843683080624" lon="12.975423111849647"><ele>749.2</ele><time>2026-04-18T07:41:53.999Z</time></trkpt><trkpt lat="43.03784949346551" lon="12.975285362019628"><ele>749.6</ele><time>2026-04-18T07:41:55.999Z</time></trkpt><trkpt lat="43.03789175211766" lon="12.975174573594769"><ele>750.0</ele><time>2026-04-18T07:41:57.999Z</time></trkpt><trkpt lat="43.03794540311948" lon="12.975085311319853"><ele>750.0</ele><time>2026-04-18T07:41:59.999Z</time></trkpt><trkpt lat="43.03791083584096" lon="12.974992137542953"><ele>750.0</ele><time>2026-04-18T07:42:01.999Z</time></trkpt><trkpt lat="43.03782080936791" lon="12.974995643903787"><ele>750.0</ele><time>2026-04-18T07:42:03.999Z</time></trkpt><trkpt lat="43.03772546018987" lon="12.975034897996373"><ele>750.0</ele><time>2026-04-18T07:42:06Z</time></trkpt><trkpt lat="43.03765520284303" lon="12.975057785624593"><ele>750.0</ele><time>2026-04-18T07:42:07Z</time></trkpt><trkpt lat="43.037551022263834" lon="12.97509037938045"><ele>750.0</ele><time>2026-04-18T07:42:09Z</time></trkpt><trkpt lat="43.037474206476084" lon="12.97510895366071"><ele>745.8333333333334</ele><time>2026-04-18T07:42:10Z</time></trkpt><trkpt lat="43.03740144412846" lon="12.97513498640678"><ele>741.6666666666666</ele><time>2026-04-18T07:42:11Z</time></trkpt><trkpt lat="43.037325800677486" lon="12.975178495047235"><ele>737.5</ele><time>2026-04-18T07:42:12Z</time></trkpt><trkpt lat="43.037258585026514" lon="12.975249779746743"><ele>733.3333333333333</ele><time>2026-04-18T07:42:13Z</time></trkpt><trkpt lat="43.037185743268964" lon="12.975330911982404"><ele>729.1666666666666</ele><time>2026-04-18T07:42:14Z</time></trkpt><trkpt lat="43.037109004398815" lon="12.975409846955401"><ele>725.0</ele><time>2026-04-18T07:42:15Z</time></trkpt><trkpt lat="43.03702811902551" lon="12.975493896839962"><ele>725.0</ele><time>2026-04-18T07:42:16Z</time></trkpt><trkpt lat="43.036961163534336" lon="12.975571285879663"><ele>725.0</ele><time>2026-04-18T07:42:17Z</time></trkpt><trkpt lat="43.036868257662555" lon="12.975661487897202"><ele>725.0</ele><time>2026-04-18T07:42:18Z</time></trkpt><trkpt lat="43.03677368005531" lon="12.975736379163134"><ele>725.0</ele><time>2026-04-18T07:42:19Z</time></trkpt><trkpt lat="43.03666757180438" lon="12.975797799563413"><ele>725.0</ele><time>2026-04-18T07:42:20Z</time></trkpt><trkpt lat="43.036557342799036" lon="12.975846147418421"><ele>720.5</ele><time>2026-04-18T07:42:21Z</time></trkpt><trkpt lat="43.03645604944956" lon="12.975891268883924"><ele>716.0</ele><time>2026-04-18T07:42:22Z</time></trkpt><trkpt lat="43.03634790229603" lon="12.975963193209834"><ele>711.5</ele><time>2026-04-18T07:42:23Z</time></trkpt><trkpt lat="43.03624875323008" lon="12.976036234617519"><ele>707.0</ele><time>2026-04-18T07:42:24Z</time></trkpt><trkpt lat="43.03614286066421" lon="12.976111208763376"><ele>707.0</ele><time>2026-04-18T07:42:25Z</time></trkpt><trkpt lat="43.03604841367775" lon="12.976193046360327"><ele>707.0</ele><time>2026-04-18T07:42:26Z</time></trkpt><trkpt lat="43.03595439617182" lon="12.976283557444871"><ele>707.0</ele><time>2026-04-18T07:42:27Z</time></trkpt><trkpt lat="43.03585811065134" lon="12.976364751137611"><ele>707.0</ele><time>2026-04-18T07:42:28Z</time></trkpt><trkpt lat="43.03576509666748" lon="12.976454759092597"><ele>706.4000000000001</ele><time>2026-04-18T07:42:29Z</time></trkpt><trkpt lat="43.03568711888366" lon="12.976535398944824"><ele>705.8000000000001</ele><time>2026-04-18T07:42:30Z</time></trkpt><trkpt lat="43.035614536714704" lon="12.976610033187416"><ele>705.2</ele><time>2026-04-18T07:42:31Z</time></trkpt><trkpt lat="43.035555509443284" lon="12.976713021241775"><ele>704.6</ele><time>2026-04-18T07:42:32Z</time></trkpt><trkpt lat="43.03549822651311" lon="12.976806507693352"><ele>704.0</ele><time>2026-04-18T07:42:33Z</time></trkpt><trkpt lat="43.035434457400285" lon="12.976879840447653"><ele>704.0</ele><time>2026-04-18T07:42:34Z</time></trkpt><trkpt lat="43.035359082888" lon="12.976899212662246"><ele>704.0</ele><time>2026-04-18T07:42:37Z</time></trkpt><trkpt lat="43.03530027342526" lon="12.97683615666326"><ele>704.0</ele><time>2026-04-18T07:42:39Z</time></trkpt><trkpt lat="43.0352551063095" lon="12.976740395912405"><ele>704.0</ele><time>2026-04-18T07:42:41Z</time></trkpt><trkpt lat="43.03518175256727" lon="12.9766605748277"><ele>704.0</ele><time>2026-04-18T07:42:43Z</time></trkpt><trkpt lat="43.03510254636864" lon="12.976571363032189"><ele>704.0</ele><time>2026-04-18T07:42:45Z</time></trkpt><trkpt lat="43.03503255092364" lon="12.976487322320587"><ele>704.0</ele><time>2026-04-18T07:42:47Z</time></trkpt><trkpt lat="43.03498403530308" lon="12.976411422246944"><ele>704.0</ele><time>2026-04-18T07:42:49Z</time></trkpt><trkpt lat="43.03492818143101" lon="12.976365313821747"><ele>704.0</ele><time>2026-04-18T07:42:50Z</time></trkpt><trkpt lat="43.03485451272072" lon="12.976267569781069"><ele>704.0</ele><time>2026-04-18T07:42:52Z</time></trkpt><trkpt lat="43.03478770155234" lon="12.976163060332802"><ele>704.0</ele><time>2026-04-18T07:42:54Z</time></trkpt><trkpt lat="43.03469889930262" lon="12.97607127960827"><ele>704.5</ele><time>2026-04-18T07:42:56Z</time></trkpt><trkpt lat="43.03461157152436" lon="12.975961535319389"><ele>705.0</ele><time>2026-04-18T07:42:58Z</time></trkpt><trkpt lat="43.03456618956327" lon="12.97589641751521"><ele>705.5</ele><time>2026-04-18T07:42:59Z</time></trkpt><trkpt lat="43.03452017875953" lon="12.975827562532123"><ele>706.0</ele><time>2026-04-18T07:43:00Z</time></trkpt><trkpt lat="43.034469828648305" lon="12.975762950764327"><ele>706.5</ele><time>2026-04-18T07:43:01Z</time></trkpt><trkpt lat="43.03442751876769" lon="12.975685831724979"><ele>707.0</ele><time>2026-04-18T07:43:02Z</time></trkpt><trkpt lat="43.03438347688916" lon="12.975596642885744"><ele>707.0</ele><time>2026-04-18T07:43:03Z</time></trkpt><trkpt lat="43.03435090195067" lon="12.975516360016307"><ele>707.0</ele><time>2026-04-18T07:43:04Z</time></trkpt><trkpt lat="43.03429501958965" lon="12.97536861189536"><ele>707.0</ele><time>2026-04-18T07:43:05.999Z</time></trkpt><trkpt lat="43.03427986628256" lon="12.975280422132188"><ele>707.0</ele><time>2026-04-18T07:43:07.999Z</time></trkpt><trkpt lat="43.03424903895653" lon="12.97519830766555"><ele>707.0</ele><time>2026-04-18T07:43:10.999Z</time></trkpt><trkpt lat="43.034225900136484" lon="12.975278907426194"><ele>707.0</ele><time>2026-04-18T07:43:13.999Z</time></trkpt><trkpt lat="43.0342867139636" lon="12.975419063513941"><ele>707.0</ele><time>2026-04-18T07:43:15.999Z</time></trkpt><trkpt lat="43.03434126521396" lon="12.97556288493573"><ele>707.0</ele><time>2026-04-18T07:43:17.999Z</time></trkpt><trkpt lat="43.03438010764741" lon="12.975641608418439"><ele>707.0</ele><time>2026-04-18T07:43:18.999Z</time></trkpt><trkpt lat="43.034422136719826" lon="12.975708749499855"><ele>707.0</ele><time>2026-04-18T07:43:19.999Z</time></trkpt><trkpt lat="43.0345073375107" lon="12.975826739433542"><ele>707.0</ele><time>2026-04-18T07:43:21.999Z</time></trkpt><trkpt lat="43.0345532515964" lon="12.97589186018853"><ele>707.0</ele><time>2026-04-18T07:43:22.999Z</time></trkpt><trkpt lat="43.03460011595821" lon="12.975957566961254"><ele>707.5</ele><time>2026-04-18T07:43:23.999Z</time></trkpt><trkpt lat="43.034648822708824" lon="12.976025747553582"><ele>708.0</ele><time>2026-04-18T07:43:24.999Z</time></trkpt><trkpt lat="43.03470115515931" lon="12.9760887917379"><ele>708.5</ele><time>2026-04-18T07:43:25.999Z</time></trkpt><trkpt lat="43.03475763666692" lon="12.976151495964567"><ele>709.0</ele><time>2026-04-18T07:43:26.999Z</time></trkpt><trkpt lat="43.034841621830545" lon="12.976258786864795"><ele>709.5</ele><time>2026-04-18T07:43:28.999Z</time></trkpt><trkpt lat="43.03490188352279" lon="12.976320492238672"><ele>710.0</ele><time>2026-04-18T07:43:30.999Z</time></trkpt><trkpt lat="43.03494432309245" lon="12.976222330385438"><ele>710.0</ele><time>2026-04-18T07:43:33.999Z</time></trkpt><trkpt lat="43.034951915577786" lon="12.976087708586029"><ele>710.0</ele><time>2026-04-18T07:43:35.999Z</time></trkpt><trkpt lat="43.03494463420609" lon="12.975960728489467"><ele>710.0</ele><time>2026-04-18T07:43:37.999Z</time></trkpt><trkpt lat="43.034949930560366" lon="12.975866581683809"><ele>710.0</ele><time>2026-04-18T07:43:38.999Z</time></trkpt><trkpt lat="43.03495855652048" lon="12.97575908851822"><ele>710.0</ele><time>2026-04-18T07:43:39.999Z</time></trkpt><trkpt lat="43.0349643149579" lon="12.975652825651867"><ele>710.0</ele><time>2026-04-18T07:43:40.999Z</time></trkpt><trkpt lat="43.034971666767525" lon="12.975547323985877"><ele>710.0</ele><time>2026-04-18T07:43:41.999Z</time></trkpt><trkpt lat="43.0349790923708" lon="12.975426107998716"><ele>710.0</ele><time>2026-04-18T07:43:42.999Z</time></trkpt><trkpt lat="43.03498409978119" lon="12.97528985864262"><ele>710.0</ele><time>2026-04-18T07:43:43.999Z</time></trkpt><trkpt lat="43.035003372045686" lon="12.975157398424875"><ele>710.0</ele><time>2026-04-18T07:43:44.999Z</time></trkpt><trkpt lat="43.035012580096684" lon="12.97500900850127"><ele>710.0</ele><time>2026-04-18T07:43:45.999Z</time></trkpt><trkpt lat="43.035026568244355" lon="12.974865437806482"><ele>710.1666666666666</ele><time>2026-04-18T07:43:46.999Z</time></trkpt><trkpt lat="43.035040590811725" lon="12.974738737671464"><ele>710.3333333333333</ele><time>2026-04-18T07:43:47.999Z</time></trkpt><trkpt lat="43.035042595577885" lon="12.974632047724334"><ele>710.5</ele><time>2026-04-18T07:43:48.999Z</time></trkpt><trkpt lat="43.03503241945363" lon="12.974540684443715"><ele>710.6666666666666</ele><time>2026-04-18T07:43:52.999Z</time></trkpt><trkpt lat="43.03499511763269" lon="12.974426348826226"><ele>710.8333333333334</ele><time>2026-04-18T07:43:54.999Z</time></trkpt><trkpt lat="43.034970412784745" lon="12.974289365509254"><ele>711.0</ele><time>2026-04-18T07:43:56.999Z</time></trkpt><trkpt lat="43.03493429123739" lon="12.97414103432974"><ele>712.1666666666666</ele><time>2026-04-18T07:43:58.999Z</time></trkpt><trkpt lat="43.03489609040001" lon="12.973973470924953"><ele>713.3333333333334</ele><time>2026-04-18T07:44:00.999Z</time></trkpt><trkpt lat="43.034875054395094" lon="12.973885405590503"><ele>714.5</ele><time>2026-04-18T07:44:01.999Z</time></trkpt><trkpt lat="43.03485517176313" lon="12.973800564227846"><ele>715.6666666666667</ele><time>2026-04-18T07:44:02.999Z</time></trkpt><trkpt lat="43.03483077912862" lon="12.973719327681948"><ele>716.8333333333334</ele><time>2026-04-18T07:44:03.999Z</time></trkpt><trkpt lat="43.03480764694051" lon="12.973638920758804"><ele>718.0</ele><time>2026-04-18T07:44:04.999Z</time></trkpt><trkpt lat="43.034786510079314" lon="12.97355346120016"><ele>718.0</ele><time>2026-04-18T07:44:05.999Z</time></trkpt><trkpt lat="43.03476062277099" lon="12.973465777755521"><ele>718.0</ele><time>2026-04-18T07:44:06.999Z</time></trkpt><trkpt lat="43.034734778563816" lon="12.973374464785598"><ele>718.0</ele><time>2026-04-18T07:44:07.999Z</time></trkpt><trkpt lat="43.03470752039205" lon="12.973280155913526"><ele>718.0</ele><time>2026-04-18T07:44:08.999Z</time></trkpt><trkpt lat="43.03469242447209" lon="12.973187235241799"><ele>718.0</ele><time>2026-04-18T07:44:09.999Z</time></trkpt><trkpt lat="43.034675571671954" lon="12.973085951843316"><ele>718.0</ele><time>2026-04-18T07:44:10.999Z</time></trkpt><trkpt lat="43.03466038049706" lon="12.972991752953652"><ele>718.0</ele><time>2026-04-18T07:44:12Z</time></trkpt><trkpt lat="43.034642599857044" lon="12.97288905722706"><ele>721.0</ele><time>2026-04-18T07:44:13Z</time></trkpt><trkpt lat="43.03462512582206" lon="12.972793975203949"><ele>724.0</ele><time>2026-04-18T07:44:14Z</time></trkpt><trkpt lat="43.03460651167313" lon="12.972680111743042"><ele>727.0</ele><time>2026-04-18T07:44:15Z</time></trkpt><trkpt lat="43.03459225630071" lon="12.972560269554862"><ele>730.0</ele><time>2026-04-18T07:44:16Z</time></trkpt><trkpt lat="43.03458376501394" lon="12.972422077844445"><ele>733.0</ele><time>2026-04-18T07:44:17Z</time></trkpt><trkpt lat="43.034581873084264" lon="12.972267981152456"><ele>735.1666666666667</ele><time>2026-04-18T07:44:18Z</time></trkpt><trkpt lat="43.03458021632308" lon="12.972134901865692"><ele>737.3333333333334</ele><time>2026-04-18T07:44:19Z</time></trkpt><trkpt lat="43.034578457331925" lon="12.972030095790142"><ele>739.5</ele><time>2026-04-18T07:44:20Z</time></trkpt><trkpt lat="43.03457608303457" lon="12.971928187196847"><ele>741.6666666666666</ele><time>2026-04-18T07:44:21Z</time></trkpt><trkpt lat="43.034573184019244" lon="12.971822497584347"><ele>743.8333333333333</ele><time>2026-04-18T07:44:22Z</time></trkpt><trkpt lat="43.034575091695636" lon="12.971695247395326"><ele>746.0</ele><time>2026-04-18T07:44:24Z</time></trkpt><trkpt lat="43.034578373724045" lon="12.97158554390163"><ele>746.0</ele><time>2026-04-18T07:44:27Z</time></trkpt><trkpt lat="43.034577261809424" lon="12.9714914253832"><ele>746.0</ele><time>2026-04-18T07:44:29Z</time></trkpt><trkpt lat="43.03455443745736" lon="12.971591435299406"><ele>746.0</ele><time>2026-04-18T07:44:36Z</time></trkpt><trkpt lat="43.03456117768622" lon="12.97172636730065"><ele>746.0</ele><time>2026-04-18T07:44:38Z</time></trkpt><trkpt lat="43.03457314967298" lon="12.97186632465093"><ele>746.0</ele><time>2026-04-18T07:44:40Z</time></trkpt><trkpt lat="43.03460801334161" lon="12.971964939564478"><ele>746.0</ele><time>2026-04-18T07:44:42Z</time></trkpt><trkpt lat="43.03467763849038" lon="12.972046669983165"><ele>746.0</ele><time>2026-04-18T07:44:44Z</time></trkpt><trkpt lat="43.034775867060176" lon="12.972075606126362"><ele>746.0</ele><time>2026-04-18T07:44:46Z</time></trkpt><trkpt lat="43.03489081278227" lon="12.972061854127361"><ele>746.0</ele><time>2026-04-18T07:44:48Z</time></trkpt><trkpt lat="43.03495191274617" lon="12.97202609828352"><ele>746.0</ele><time>2026-04-18T07:44:50Z</time></trkpt><trkpt lat="43.03499723764281" lon="12.972127321084287"><ele>746.0</ele><time>2026-04-18T07:44:52Z</time></trkpt><trkpt lat="43.03505296944937" lon="12.972224052187496"><ele>747.0</ele><time>2026-04-18T07:44:54Z</time></trkpt><trkpt lat="43.03509306480706" lon="12.97229241401553"><ele>748.0</ele><time>2026-04-18T07:44:57Z</time></trkpt><trkpt lat="43.03512445162114" lon="12.972212338580983"><ele>749.0</ele><time>2026-04-18T07:45:01Z</time></trkpt><trkpt lat="43.03515479461094" lon="12.972068156088131"><ele>750.0</ele><time>2026-04-18T07:45:03Z</time></trkpt><trkpt lat="43.03513043806783" lon="12.971987456012494"><ele>751.0</ele><time>2026-04-18T07:45:04Z</time></trkpt><trkpt lat="43.03511579145565" lon="12.97187144530041"><ele>752.0</ele><time>2026-04-18T07:45:05Z</time></trkpt><trkpt lat="43.03509131770433" lon="12.971722985795394"><ele>753.8</ele><time>2026-04-18T07:45:07Z</time></trkpt><trkpt lat="43.035081462496485" lon="12.97160140827446"><ele>755.6</ele><time>2026-04-18T07:45:11Z</time></trkpt><trkpt lat="43.03506879562942" lon="12.971482469426139"><ele>757.4</ele><time>2026-04-18T07:45:12Z</time></trkpt><trkpt lat="43.03505619872268" lon="12.971372995074535"><ele>759.1999999999999</ele><time>2026-04-18T07:45:12.999Z</time></trkpt><trkpt lat="43.03507112668413" lon="12.971202629807264"><ele>761.0</ele><time>2026-04-18T07:45:14.999Z</time></trkpt><trkpt lat="43.035062419970096" lon="12.971049605523781"><ele>761.0</ele><time>2026-04-18T07:45:16.999Z</time></trkpt><trkpt lat="43.03511758085326" lon="12.970936839730362"><ele>761.0</ele><time>2026-04-18T07:45:18.999Z</time></trkpt><trkpt lat="43.03517611071063" lon="12.97088751052439"><ele>761.0</ele><time>2026-04-18T07:45:19.999Z</time></trkpt><trkpt lat="43.03525068975417" lon="12.970740477089988"><ele>761.0</ele><time>2026-04-18T07:45:21.999Z</time></trkpt><trkpt lat="43.03528121721634" lon="12.970656381033553"><ele>761.0</ele><time>2026-04-18T07:45:22.999Z</time></trkpt><trkpt lat="43.035308183172305" lon="12.970574283804964"><ele>761.0</ele><time>2026-04-18T07:45:23.999Z</time></trkpt><trkpt lat="43.03533617190002" lon="12.97049643295348"><ele>763.8</ele><time>2026-04-18T07:45:24.999Z</time></trkpt><trkpt lat="43.035368293437664" lon="12.970368020617013"><ele>766.5999999999999</ele><time>2026-04-18T07:45:26.999Z</time></trkpt><trkpt lat="43.035366673365665" lon="12.970207354128856"><ele>769.4</ele><time>2026-04-18T07:45:28.999Z</time></trkpt><trkpt lat="43.0354272619529" lon="12.97014793314258"><ele>772.2</ele><time>2026-04-18T07:45:32.999Z</time></trkpt><trkpt lat="43.035529149830786" lon="12.970106739054852"><ele>775.0</ele><time>2026-04-18T07:45:34.999Z</time></trkpt><trkpt lat="43.035574445741396" lon="12.97004207656187"><ele>776.9999999999999</ele><time>2026-04-18T07:45:35.999Z</time></trkpt><trkpt lat="43.03564759915521" lon="12.96989810749496"><ele>779.0</ele><time>2026-04-18T07:45:37.999Z</time></trkpt><trkpt lat="43.03569687929332" lon="12.96984090940782"><ele>781.0</ele><time>2026-04-18T07:45:38.999Z</time></trkpt><trkpt lat="43.0357437857334" lon="12.96974931040087"><ele>783.0</ele><time>2026-04-18T07:45:39.999Z</time></trkpt><trkpt lat="43.03578432475532" lon="12.969655618054476"><ele>784.9999999999999</ele><time>2026-04-18T07:45:40.999Z</time></trkpt><trkpt lat="43.03582961732201" lon="12.969567145281186"><ele>787.0</ele><time>2026-04-18T07:45:41.999Z</time></trkpt><trkpt lat="43.035887276829754" lon="12.969483725365707"><ele>789.3333333333333</ele><time>2026-04-18T07:45:42.999Z</time></trkpt><trkpt lat="43.03596775933605" lon="12.969458435353413"><ele>791.6666666666666</ele><time>2026-04-18T07:45:43.999Z</time></trkpt><trkpt lat="43.036052422051604" lon="12.969421448927944"><ele>794.0</ele><time>2026-04-18T07:45:44.999Z</time></trkpt><trkpt lat="43.036129129789956" lon="12.969369647429616"><ele>796.3333333333333</ele><time>2026-04-18T07:45:45.999Z</time></trkpt><trkpt lat="43.03619982122968" lon="12.969308416858972"><ele>798.6666666666666</ele><time>2026-04-18T07:45:46.999Z</time></trkpt><trkpt lat="43.03627341412456" lon="12.969250626247527"><ele>801.0</ele><time>2026-04-18T07:45:47.999Z</time></trkpt><trkpt lat="43.0363297884927" lon="12.96920860266827"><ele>801.5</ele><time>2026-04-18T07:45:48.999Z</time></trkpt><trkpt lat="43.03642255577728" lon="12.969114604593454"><ele>802.0</ele><time>2026-04-18T07:45:50.999Z</time></trkpt><trkpt lat="43.03652998044845" lon="12.969101364817588"><ele>802.5</ele><time>2026-04-18T07:45:52.999Z</time></trkpt><trkpt lat="43.03659605651419" lon="12.969074010773816"><ele>803.0</ele><time>2026-04-18T07:45:53.999Z</time></trkpt><trkpt lat="43.03666100035472" lon="12.969042834623393"><ele>803.5</ele><time>2026-04-18T07:45:54.999Z</time></trkpt><trkpt lat="43.03672307806588" lon="12.968992059713665"><ele>804.0</ele><time>2026-04-18T07:45:55.999Z</time></trkpt><trkpt lat="43.036794079532704" lon="12.968944174230751"><ele>807.8333333333334</ele><time>2026-04-18T07:45:56.999Z</time></trkpt><trkpt lat="43.03685118657819" lon="12.968906149287415"><ele>811.6666666666667</ele><time>2026-04-18T07:45:57.999Z</time></trkpt><trkpt lat="43.03691300841409" lon="12.968858246939112"><ele>815.5</ele><time>2026-04-18T07:45:58.999Z</time></trkpt><trkpt lat="43.0370020604427" lon="12.968737314411767"><ele>819.3333333333334</ele><time>2026-04-18T07:46:00.999Z</time></trkpt><trkpt lat="43.03705025267686" lon="12.96867984886319"><ele>823.1666666666667</ele><time>2026-04-18T07:46:01.999Z</time></trkpt><trkpt lat="43.03710249129579" lon="12.96862052858057"><ele>827.0</ele><time>2026-04-18T07:46:02.999Z</time></trkpt><trkpt lat="43.03719867180393" lon="12.96852332576297"><ele>827.0000000000001</ele><time>2026-04-18T07:46:04.999Z</time></trkpt><trkpt lat="43.03728277869942" lon="12.968464041660683"><ele>827.0</ele><time>2026-04-18T07:46:06.999Z</time></trkpt><trkpt lat="43.03734665821524" lon="12.968433508731556"><ele>827.0</ele><time>2026-04-18T07:46:14.999Z</time></trkpt><trkpt lat="43.037418656340975" lon="12.96839917221741"><ele>827.0</ele><time>2026-04-18T07:46:54Z</time></trkpt><trkpt lat="43.03748446344401" lon="12.968388918608495"><ele>827.0000000000001</ele><time>2026-04-18T07:47:33.999Z</time></trkpt><trkpt lat="43.037561753730905" lon="12.968377542158901"><ele>827.0</ele><time>2026-04-18T07:47:36.999Z</time></trkpt><trkpt lat="43.03765422057403" lon="12.968390715605265"><ele>830.5000000000001</ele><time>2026-04-18T07:47:38.999Z</time></trkpt><trkpt lat="43.03771848602693" lon="12.968407972744453"><ele>834.0</ele><time>2026-04-18T07:47:39.999Z</time></trkpt><trkpt lat="43.037812074867105" lon="12.968388870357407"><ele>837.5</ele><time>2026-04-18T07:47:41.999Z</time></trkpt><trkpt lat="43.0378898549026" lon="12.968267494781163"><ele>841.0</ele><time>2026-04-18T07:47:43.999Z</time></trkpt><trkpt lat="43.03792817922597" lon="12.968197866831135"><ele>844.5000000000001</ele><time>2026-04-18T07:47:44.999Z</time></trkpt><trkpt lat="43.03798509190675" lon="12.968126909664745"><ele>848.0</ele><time>2026-04-18T07:47:45.999Z</time></trkpt><trkpt lat="43.03801877559096" lon="12.968045061304817"><ele>849.1666666666667</ele><time>2026-04-18T07:47:46.999Z</time></trkpt><trkpt lat="43.03807927582743" lon="12.967916893576579"><ele>850.3333333333334</ele><time>2026-04-18T07:47:48.999Z</time></trkpt><trkpt lat="43.0381245060924" lon="12.967844122179814"><ele>851.5</ele><time>2026-04-18T07:47:49.999Z</time></trkpt><trkpt lat="43.038173119283655" lon="12.967765053321887"><ele>852.6666666666667</ele><time>2026-04-18T07:47:50.999Z</time></trkpt><trkpt lat="43.03823054535741" lon="12.967635438234979"><ele>853.8333333333334</ele><time>2026-04-18T07:47:52.999Z</time></trkpt><trkpt lat="43.038293457582455" lon="12.967620503287126"><ele>855.0</ele><time>2026-04-18T07:47:53.999Z</time></trkpt><trkpt lat="43.03836929346086" lon="12.967630226768874"><ele>859.0</ele><time>2026-04-18T07:47:54.999Z</time></trkpt><trkpt lat="43.03842398088913" lon="12.967683778361748"><ele>863.0</ele><time>2026-04-18T07:47:55.999Z</time></trkpt><trkpt lat="43.0384970569045" lon="12.967809390125726"><ele>867.0</ele><time>2026-04-18T07:47:57.999Z</time></trkpt><trkpt lat="43.03856458763172" lon="12.967774874766942"><ele>871.0</ele><time>2026-04-18T07:47:58.999Z</time></trkpt><trkpt lat="43.03864197084226" lon="12.967652100159619"><ele>875.0</ele><time>2026-04-18T07:48:00.999Z</time></trkpt><trkpt lat="43.038732303160465" lon="12.967709188815759"><ele>875.0000000000001</ele><time>2026-04-18T07:48:03.999Z</time></trkpt><trkpt lat="43.0388176562256" lon="12.967756307819084"><ele>875.0</ele><time>2026-04-18T07:48:06.999Z</time></trkpt><trkpt lat="43.03888506900823" lon="12.967799137105354"><ele>875.0</ele><time>2026-04-18T07:48:08.999Z</time></trkpt><trkpt lat="43.03899715222553" lon="12.96782860281043"><ele>875.0</ele><time>2026-04-18T07:48:10.999Z</time></trkpt><trkpt lat="43.039070030175516" lon="12.967810954089245"><ele>875.0000000000001</ele><time>2026-04-18T07:48:11.999Z</time></trkpt><trkpt lat="43.0391304834734" lon="12.967764040859096"><ele>875.0</ele><time>2026-04-18T07:48:12.999Z</time></trkpt><trkpt lat="43.03920857226944" lon="12.967711841106112"><ele>880.5000000000001</ele><time>2026-04-18T07:48:13.999Z</time></trkpt><trkpt lat="43.03927781091542" lon="12.967675172412468"><ele>886.0</ele><time>2026-04-18T07:48:14.999Z</time></trkpt><trkpt lat="43.039360244039976" lon="12.96763558416735"><ele>891.5</ele><time>2026-04-18T07:48:15.999Z</time></trkpt><trkpt lat="43.03942526646624" lon="12.967620322156822"><ele>897.0</ele><time>2026-04-18T07:48:16.999Z</time></trkpt><trkpt lat="43.03948351139086" lon="12.967474195148087"><ele>902.5000000000001</ele><time>2026-04-18T07:48:18.999Z</time></trkpt><trkpt lat="43.039514826016344" lon="12.967376146048775"><ele>908.0</ele><time>2026-04-18T07:48:19.999Z</time></trkpt><trkpt lat="43.039542002362474" lon="12.96727745975313"><ele>909.1666666666667</ele><time>2026-04-18T07:48:20.999Z</time></trkpt><trkpt lat="43.039584214723455" lon="12.967179418870765"><ele>910.3333333333334</ele><time>2026-04-18T07:48:21.999Z</time></trkpt><trkpt lat="43.03964955200631" lon="12.96711646175635"><ele>911.5</ele><time>2026-04-18T07:48:22.999Z</time></trkpt><trkpt lat="43.03972900959827" lon="12.967100366864747"><ele>912.6666666666667</ele><time>2026-04-18T07:48:24Z</time></trkpt><trkpt lat="43.03981297410811" lon="12.967078942201297"><ele>913.8333333333334</ele><time>2026-04-18T07:48:25Z</time></trkpt><trkpt lat="43.039885040969665" lon="12.967095603577182"><ele>915.0</ele><time>2026-04-18T07:48:26Z</time></trkpt><trkpt lat="43.03998498262415" lon="12.967146625121927"><ele>922.0</ele><time>2026-04-18T07:48:28Z</time></trkpt><trkpt lat="43.04004704617362" lon="12.967105537312934"><ele>929.0</ele><time>2026-04-18T07:48:29Z</time></trkpt><trkpt lat="43.040065102928956" lon="12.967008982229741"><ele>936.0</ele><time>2026-04-18T07:48:30Z</time></trkpt><trkpt lat="43.0400913680947" lon="12.96691504718755"><ele>943.0</ele><time>2026-04-18T07:48:31Z</time></trkpt><trkpt lat="43.04019706932852" lon="12.966859151381646"><ele>950.0</ele><time>2026-04-18T07:48:33Z</time></trkpt><trkpt lat="43.04020500270093" lon="12.966671688275152"><ele>951.1666666666667</ele><time>2026-04-18T07:48:35Z</time></trkpt><trkpt lat="43.04021108783011" lon="12.96657198799521"><ele>952.3333333333334</ele><time>2026-04-18T07:48:36Z</time></trkpt><trkpt lat="43.0402657696638" lon="12.966511605873984"><ele>953.5</ele><time>2026-04-18T07:48:37Z</time></trkpt><trkpt lat="43.040335984594684" lon="12.9664525414425"><ele>954.6666666666667</ele><time>2026-04-18T07:48:38Z</time></trkpt><trkpt lat="43.04041467367139" lon="12.966426814514492"><ele>955.8333333333334</ele><time>2026-04-18T07:48:39Z</time></trkpt><trkpt lat="43.04048171590243" lon="12.966432173987327"><ele>957.0</ele><time>2026-04-18T07:48:40Z</time></trkpt><trkpt lat="43.04052653340667" lon="12.966586602290926"><ele>957.0</ele><time>2026-04-18T07:48:42Z</time></trkpt><trkpt lat="43.04060334312195" lon="12.96667799087603"><ele>957.0</ele><time>2026-04-18T07:48:44Z</time></trkpt><trkpt lat="43.040679702898466" lon="12.966682925760182"><ele>957.0</ele><time>2026-04-18T07:48:45Z</time></trkpt><trkpt lat="43.04076723076262" lon="12.966729647807023"><ele>957.0</ele><time>2026-04-18T07:48:46Z</time></trkpt><trkpt lat="43.04083095125227" lon="12.966813412705159"><ele>957.0</ele><time>2026-04-18T07:48:47Z</time></trkpt><trkpt lat="43.04087942471704" lon="12.966914125815126"><ele>957.0</ele><time>2026-04-18T07:48:48Z</time></trkpt><trkpt lat="43.04099167488614" lon="12.966988791617746"><ele>964.0</ele><time>2026-04-18T07:48:50Z</time></trkpt><trkpt lat="43.04107779124304" lon="12.966973571082258"><ele>971.0</ele><time>2026-04-18T07:48:52Z</time></trkpt><trkpt lat="43.04117784993142" lon="12.966902989124382"><ele>978.0</ele><time>2026-04-18T07:48:54Z</time></trkpt><trkpt lat="43.041193717433636" lon="12.966815074122914"><ele>985.0</ele><time>2026-04-18T07:48:56Z</time></trkpt><trkpt lat="43.04116215206319" lon="12.966674776675685"><ele>992.0</ele><time>2026-04-18T07:48:58Z</time></trkpt><trkpt lat="43.04122600849835" lon="12.966529199771"><ele>992.0000000000001</ele><time>2026-04-18T07:49:00Z</time></trkpt><trkpt lat="43.041289156541914" lon="12.966456198187467"><ele>992.0</ele><time>2026-04-18T07:49:01Z</time></trkpt><trkpt lat="43.04134015623024" lon="12.966358776378284"><ele>992.0</ele><time>2026-04-18T07:49:02Z</time></trkpt><trkpt lat="43.04138298693613" lon="12.966281293182561"><ele>992.0</ele><time>2026-04-18T07:49:03Z</time></trkpt><trkpt lat="43.04145504602844" lon="12.96620426986064"><ele>992.0000000000001</ele><time>2026-04-18T07:49:04Z</time></trkpt><trkpt lat="43.04152328342804" lon="12.966150068432661"><ele>992.0</ele><time>2026-04-18T07:49:05Z</time></trkpt><trkpt lat="43.04159195981235" lon="12.966095274466214"><ele>1001.4000000000001</ele><time>2026-04-18T07:49:06Z</time></trkpt><trkpt lat="43.041650417560206" lon="12.9660419194209"><ele>1010.8000000000001</ele><time>2026-04-18T07:49:07Z</time></trkpt><trkpt lat="43.04176509625446" lon="12.965906661999773"><ele>1020.2</ele><time>2026-04-18T07:49:09Z</time></trkpt><trkpt lat="43.04183137511843" lon="12.96584412820706"><ele>1029.6000000000001</ele><time>2026-04-18T07:49:10Z</time></trkpt><trkpt lat="43.04189198633279" lon="12.965713154372892"><ele>1039.0</ele><time>2026-04-18T07:49:12Z</time></trkpt><trkpt lat="43.04185957385721" lon="12.965593334267863"><ele>1039.2</ele><time>2026-04-18T07:49:13Z</time></trkpt><trkpt lat="43.04187417708556" lon="12.965458281725356"><ele>1039.4</ele><time>2026-04-18T07:49:15Z</time></trkpt><trkpt lat="43.0418743432271" lon="12.965267396671877"><ele>1039.6</ele><time>2026-04-18T07:49:17Z</time></trkpt><trkpt lat="43.04181197381291" lon="12.965125720794303"><ele>1039.8</ele><time>2026-04-18T07:49:19Z</time></trkpt><trkpt lat="43.041751383931235" lon="12.965053145154474"><ele>1040.0</ele><time>2026-04-18T07:49:20Z</time></trkpt><trkpt lat="43.041728189494506" lon="12.964874883212637"><ele>1042.5</ele><time>2026-04-18T07:49:22Z</time></trkpt><trkpt lat="43.041741504514654" lon="12.964783026661769"><ele>1045.0</ele><time>2026-04-18T07:49:23Z</time></trkpt><trkpt lat="43.04178936899169" lon="12.964724208895172"><ele>1047.5</ele><time>2026-04-18T07:49:24Z</time></trkpt><trkpt lat="43.04186585583908" lon="12.964656361332091"><ele>1050.0</ele><time>2026-04-18T07:49:25Z</time></trkpt><trkpt lat="43.041906426240956" lon="12.964504313552387"><ele>1052.5</ele><time>2026-04-18T07:49:27Z</time></trkpt><trkpt lat="43.04190521076381" lon="12.96441453654312"><ele>1055.0</ele><time>2026-04-18T07:49:28Z</time></trkpt><trkpt lat="43.041910346816046" lon="12.964304344955924"><ele>1055.0</ele><time>2026-04-18T07:49:29Z</time></trkpt><trkpt lat="43.04190291013103" lon="12.964204719387755"><ele>1055.0</ele><time>2026-04-18T07:49:30Z</time></trkpt><trkpt lat="43.04190233282106" lon="12.964107076337157"><ele>1055.0</ele><time>2026-04-18T07:49:31Z</time></trkpt><trkpt lat="43.04188399563401" lon="12.964011006559312"><ele>1055.0</ele><time>2026-04-18T07:49:32Z</time></trkpt><trkpt lat="43.04187075535192" lon="12.963906929150685"><ele>1055.0</ele><time>2026-04-18T07:49:33Z</time></trkpt><trkpt lat="43.04185834566449" lon="12.96380368072082"><ele>1055.0</ele><time>2026-04-18T07:49:34Z</time></trkpt><trkpt lat="43.041848297837106" lon="12.963717743094659"><ele>1055.0</ele><time>2026-04-18T07:49:35Z</time></trkpt><trkpt lat="43.04184372104791" lon="12.963528705302927"><ele>1057.4285714285716</ele><time>2026-04-18T07:49:37Z</time></trkpt><trkpt lat="43.041851566864054" lon="12.963432379390582"><ele>1059.857142857143</ele><time>2026-04-18T07:49:38Z</time></trkpt><trkpt lat="43.041862073725376" lon="12.963337143364402"><ele>1062.2857142857142</ele><time>2026-04-18T07:49:38.999Z</time></trkpt><trkpt lat="43.04187165735748" lon="12.963239736299128"><ele>1064.7142857142858</ele><time>2026-04-18T07:49:39.999Z</time></trkpt><trkpt lat="43.04188018852039" lon="12.963133867905038"><ele>1067.142857142857</ele><time>2026-04-18T07:49:40.999Z</time></trkpt><trkpt lat="43.041883669085" lon="12.963037941454512"><ele>1069.5714285714287</ele><time>2026-04-18T07:49:41.999Z</time></trkpt><trkpt lat="43.04188091317652" lon="12.962940971184524"><ele>1072.0</ele><time>2026-04-18T07:49:42.999Z</time></trkpt><trkpt lat="43.041863949392486" lon="12.962855678897343"><ele>1074.4</ele><time>2026-04-18T07:49:43.999Z</time></trkpt><trkpt lat="43.04181578676358" lon="12.962796339361647"><ele>1076.8000000000002</ele><time>2026-04-18T07:49:44.999Z</time></trkpt><trkpt lat="43.04175715228271" lon="12.96273784347654"><ele>1079.2</ele><time>2026-04-18T07:49:45.999Z</time></trkpt><trkpt lat="43.04166656936555" lon="12.96258387836979"><ele>1081.6000000000001</ele><time>2026-04-18T07:49:47.999Z</time></trkpt><trkpt lat="43.041615971052565" lon="12.962461089601053"><ele>1084.0</ele><time>2026-04-18T07:49:48.999Z</time></trkpt><trkpt lat="43.04158629322754" lon="12.962351824470908"><ele>1084.0</ele><time>2026-04-18T07:49:49.999Z</time></trkpt><trkpt lat="43.04155188016083" lon="12.962230578690336"><ele>1084.0</ele><time>2026-04-18T07:49:50.999Z</time></trkpt><trkpt lat="43.04152259941371" lon="12.962138884704864"><ele>1084.0</ele><time>2026-04-18T07:49:51.999Z</time></trkpt><trkpt lat="43.04153732829517" lon="12.96205408301563"><ele>1084.0</ele><time>2026-04-18T07:49:52.999Z</time></trkpt><trkpt lat="43.04155253337455" lon="12.961963255617997"><ele>1084.0</ele><time>2026-04-18T07:49:53.999Z</time></trkpt><trkpt lat="43.04148833497766" lon="12.961850847539848"><ele>1084.0</ele><time>2026-04-18T07:49:55.999Z</time></trkpt><trkpt lat="43.04139549870486" lon="12.961846115153302"><ele>1084.0</ele><time>2026-04-18T07:49:56.999Z</time></trkpt><trkpt lat="43.04132900959832" lon="12.961813224014334"><ele>1084.0</ele><time>2026-04-18T07:49:57.999Z</time></trkpt><trkpt lat="43.04128766115423" lon="12.961709375637357"><ele>1084.0</ele><time>2026-04-18T07:49:59.999Z</time></trkpt><trkpt lat="43.041231574506" lon="12.961666505312673"><ele>1084.0</ele><time>2026-04-18T07:50:27.999Z</time></trkpt><trkpt lat="43.04116229883332" lon="12.961613427987658"><ele>1084.0</ele><time>2026-04-18T07:50:29Z</time></trkpt><trkpt lat="43.041092656019494" lon="12.961565093590286"><ele>1084.0</ele><time>2026-04-18T07:50:30Z</time></trkpt><trkpt lat="43.04101143081308" lon="12.961516736903349"><ele>1087.7142857142858</ele><time>2026-04-18T07:50:31Z</time></trkpt><trkpt lat="43.040960221078144" lon="12.961459450254257"><ele>1091.4285714285716</ele><time>2026-04-18T07:50:32Z</time></trkpt><trkpt lat="43.04093261767765" lon="12.96137225509967"><ele>1095.1428571428573</ele><time>2026-04-18T07:50:33Z</time></trkpt><trkpt lat="43.04091504829211" lon="12.961281856715807"><ele>1098.857142857143</ele><time>2026-04-18T07:50:34Z</time></trkpt><trkpt lat="43.04086974546149" lon="12.961212414128878"><ele>1102.5714285714287</ele><time>2026-04-18T07:50:35Z</time></trkpt><trkpt lat="43.04079539496359" lon="12.961165678064688"><ele>1106.2857142857144</ele><time>2026-04-18T07:50:36Z</time></trkpt><trkpt lat="43.040729555988726" lon="12.961142530903478"><ele>1110.0</ele><time>2026-04-18T07:50:37Z</time></trkpt><trkpt lat="43.0406968322516" lon="12.961062215893891"><ele>1110.0000000000002</ele><time>2026-04-18T07:50:38Z</time></trkpt><trkpt lat="43.04063722026407" lon="12.961013658249016"><ele>1110.0</ele><time>2026-04-18T07:50:39Z</time></trkpt><trkpt lat="43.040559110754195" lon="12.961040402925503"><ele>1110.0</ele><time>2026-04-18T07:50:40Z</time></trkpt><trkpt lat="43.04049281540415" lon="12.961054104625745"><ele>1110.0</ele><time>2026-04-18T07:50:41Z</time></trkpt><trkpt lat="43.04042784333653" lon="12.96100413742215"><ele>1110.0</ele><time>2026-04-18T07:50:42Z</time></trkpt><trkpt lat="43.0403837164377" lon="12.960919983179451"><ele>1110.0000000000002</ele><time>2026-04-18T07:50:43Z</time></trkpt><trkpt lat="43.04031214198847" lon="12.960872921883166"><ele>1110.0</ele><time>2026-04-18T07:50:44Z</time></trkpt><trkpt lat="43.04022231471388" lon="12.96082389480203"><ele>1114.3333333333333</ele><time>2026-04-18T07:50:45Z</time></trkpt><trkpt lat="43.04012550819926" lon="12.960775970231623"><ele>1118.6666666666667</ele><time>2026-04-18T07:50:46Z</time></trkpt><trkpt lat="43.0400447888557" lon="12.960721697389761"><ele>1123.0</ele><time>2026-04-18T07:50:47Z</time></trkpt><trkpt lat="43.03997939055189" lon="12.960644508811209"><ele>1127.3333333333335</ele><time>2026-04-18T07:50:48Z</time></trkpt><trkpt lat="43.039921569456965" lon="12.960554716365866"><ele>1131.6666666666667</ele><time>2026-04-18T07:50:49Z</time></trkpt><trkpt lat="43.03985677078406" lon="12.960494053523442"><ele>1136.0</ele><time>2026-04-18T07:50:50Z</time></trkpt><trkpt lat="43.039767268978835" lon="12.960481001859428"><ele>1136.6</ele><time>2026-04-18T07:50:51Z</time></trkpt><trkpt lat="43.03966194050828" lon="12.960510881597937"><ele>1137.1999999999998</ele><time>2026-04-18T07:50:52Z</time></trkpt><trkpt lat="43.039560243719755" lon="12.960563120635792"><ele>1137.8000000000002</ele><time>2026-04-18T07:50:53Z</time></trkpt><trkpt lat="43.039494769420756" lon="12.960616039247075"><ele>1138.4</ele><time>2026-04-18T07:50:54Z</time></trkpt><trkpt lat="43.03936904363715" lon="12.96057841586572"><ele>1139.0</ele><time>2026-04-18T07:50:56Z</time></trkpt><trkpt lat="43.039266088041984" lon="12.960535237762942"><ele>1139.0</ele><time>2026-04-18T07:50:57Z</time></trkpt><trkpt lat="43.039178292191075" lon="12.960516380048249"><ele>1139.0</ele><time>2026-04-18T07:50:58Z</time></trkpt><trkpt lat="43.03910264255134" lon="12.96047277390524"><ele>1139.0</ele><time>2026-04-18T07:50:59Z</time></trkpt><trkpt lat="43.03901873994588" lon="12.960424977347529"><ele>1139.0</ele><time>2026-04-18T07:51:00Z</time></trkpt><trkpt lat="43.03894956835213" lon="12.960431304735163"><ele>1139.0</ele><time>2026-04-18T07:51:01Z</time></trkpt><trkpt lat="43.038853990130264" lon="12.96044909036311"><ele>1139.0</ele><time>2026-04-18T07:51:02Z</time></trkpt><trkpt lat="43.03877100386806" lon="12.960439661721052"><ele>1139.0</ele><time>2026-04-18T07:51:03Z</time></trkpt><trkpt lat="43.038684825826174" lon="12.960418502010869"><ele>1139.0</ele><time>2026-04-18T07:51:04Z</time></trkpt><trkpt lat="43.03859128998648" lon="12.960394582021973"><ele>1139.0</ele><time>2026-04-18T07:51:05Z</time></trkpt><trkpt lat="43.038515877307525" lon="12.960375912707157"><ele>1139.0</ele><time>2026-04-18T07:51:06Z</time></trkpt><trkpt lat="43.03845128937689" lon="12.960361080369307"><ele>1139.0</ele><time>2026-04-18T07:51:07Z</time></trkpt><trkpt lat="43.0383856092661" lon="12.960337638878714"><ele>1139.0</ele><time>2026-04-18T07:51:08Z</time></trkpt><trkpt lat="43.03832059925515" lon="12.960288312418935"><ele>1138.0</ele><time>2026-04-18T07:51:09Z</time></trkpt><trkpt lat="43.0382700646735" lon="12.960223497613514"><ele>1137.0</ele><time>2026-04-18T07:51:10Z</time></trkpt><trkpt lat="43.03822298645658" lon="12.960150491839965"><ele>1136.0</ele><time>2026-04-18T07:51:11Z</time></trkpt><trkpt lat="43.03817544565713" lon="12.960067942636151"><ele>1135.0</ele><time>2026-04-18T07:51:12Z</time></trkpt><trkpt lat="43.03812321853151" lon="12.960002943503001"><ele>1134.0</ele><time>2026-04-18T07:51:13Z</time></trkpt><trkpt lat="43.038074136314485" lon="12.959932548464659"><ele>1133.0</ele><time>2026-04-18T07:51:14Z</time></trkpt><trkpt lat="43.03802403745821" lon="12.959840654492785"><ele>1132.0</ele><time>2026-04-18T07:51:15Z</time></trkpt><trkpt lat="43.037980034547815" lon="12.959774002611702"><ele>1135.3333333333333</ele><time>2026-04-18T07:51:16Z</time></trkpt><trkpt lat="43.03793014848167" lon="12.95969941243401"><ele>1138.6666666666665</ele><time>2026-04-18T07:51:17Z</time></trkpt><trkpt lat="43.03787881206926" lon="12.959618303419623"><ele>1142.0</ele><time>2026-04-18T07:51:18Z</time></trkpt><trkpt lat="43.03782572654368" lon="12.959535702373802"><ele>1145.3333333333333</ele><time>2026-04-18T07:51:19Z</time></trkpt><trkpt lat="43.037774626893324" lon="12.959474423576149"><ele>1148.6666666666667</ele><time>2026-04-18T07:51:20Z</time></trkpt><trkpt lat="43.03770713706498" lon="12.959416536623362"><ele>1152.0</ele><time>2026-04-18T07:51:21Z</time></trkpt><trkpt lat="43.03762646238283" lon="12.959353817286495"><ele>1152.0</ele><time>2026-04-18T07:51:22Z</time></trkpt><trkpt lat="43.03755205313074" lon="12.959287658103712"><ele>1152.0</ele><time>2026-04-18T07:51:23Z</time></trkpt><trkpt lat="43.03743739397315" lon="12.959174419316003"><ele>1152.0</ele><time>2026-04-18T07:51:25Z</time></trkpt><trkpt lat="43.037377813389085" lon="12.959116634084308"><ele>1152.0</ele><time>2026-04-18T07:51:26Z</time></trkpt><trkpt lat="43.03730370912226" lon="12.9589937815704"><ele>1152.0</ele><time>2026-04-18T07:51:28Z</time></trkpt><trkpt lat="43.03722930276146" lon="12.95887898409047"><ele>1150.4</ele><time>2026-04-18T07:51:30Z</time></trkpt><trkpt lat="43.03717505176792" lon="12.958778088973816"><ele>1148.8000000000002</ele><time>2026-04-18T07:51:32Z</time></trkpt><trkpt lat="43.037129728586756" lon="12.95866713070817"><ele>1147.2</ele><time>2026-04-18T07:51:34Z</time></trkpt><trkpt lat="43.03709201146596" lon="12.958548176999365"><ele>1145.6000000000001</ele><time>2026-04-18T07:51:36Z</time></trkpt><trkpt lat="43.03705518248003" lon="12.958419552127982"><ele>1144.0</ele><time>2026-04-18T07:51:38Z</time></trkpt><trkpt lat="43.03704066987807" lon="12.958308116568546"><ele>1144.0</ele><time>2026-04-18T07:51:39Z</time></trkpt><trkpt lat="43.037034881769394" lon="12.958170031443899"><ele>1144.0</ele><time>2026-04-18T07:51:40Z</time></trkpt><trkpt lat="43.037041752402274" lon="12.958040953740204"><ele>1144.0</ele><time>2026-04-18T07:51:41Z</time></trkpt><trkpt lat="43.03705554700934" lon="12.957912082676803"><ele>1144.0</ele><time>2026-04-18T07:51:42Z</time></trkpt><trkpt lat="43.0370548393251" lon="12.957787926462883"><ele>1144.0</ele><time>2026-04-18T07:51:43Z</time></trkpt><trkpt lat="43.03704841324464" lon="12.957650352761826"><ele>1145.6666666666665</ele><time>2026-04-18T07:51:44Z</time></trkpt><trkpt lat="43.03704223897185" lon="12.957516859964334"><ele>1147.3333333333333</ele><time>2026-04-18T07:51:45Z</time></trkpt><trkpt lat="43.037033827189454" lon="12.957396291162107"><ele>1149.0</ele><time>2026-04-18T07:51:46Z</time></trkpt><trkpt lat="43.037024354085986" lon="12.957300863444827"><ele>1150.6666666666667</ele><time>2026-04-18T07:51:47Z</time></trkpt><trkpt lat="43.03701543971678" lon="12.95720788543633"><ele>1152.3333333333335</ele><time>2026-04-18T07:51:48Z</time></trkpt><trkpt lat="43.03699441817201" lon="12.957125373214103"><ele>1154.0</ele><time>2026-04-18T07:51:48.999Z</time></trkpt><trkpt lat="43.036956494432594" lon="12.95705213613152"><ele>1154.0</ele><time>2026-04-18T07:51:49.999Z</time></trkpt><trkpt lat="43.03690838309539" lon="12.95697365454149"><ele>1154.0</ele><time>2026-04-18T07:51:50.999Z</time></trkpt><trkpt lat="43.036854067099895" lon="12.956876918161257"><ele>1154.0</ele><time>2026-04-18T07:51:51.999Z</time></trkpt><trkpt lat="43.036828279779655" lon="12.95679320527085"><ele>1154.0</ele><time>2026-04-18T07:51:52.999Z</time></trkpt><trkpt lat="43.03677649441556" lon="12.95669461903929"><ele>1154.0</ele><time>2026-04-18T07:51:53.999Z</time></trkpt><trkpt lat="43.03672195506073" lon="12.956635766678477"><ele>1154.0</ele><time>2026-04-18T07:51:54.999Z</time></trkpt><trkpt lat="43.03664807020364" lon="12.95655385050578"><ele>1152.4</ele><time>2026-04-18T07:51:55.999Z</time></trkpt><trkpt lat="43.03657309467159" lon="12.956469478266994"><ele>1150.8000000000002</ele><time>2026-04-18T07:51:56.999Z</time></trkpt><trkpt lat="43.03651219182898" lon="12.956374617856918"><ele>1149.1999999999998</ele><time>2026-04-18T07:51:57.999Z</time></trkpt><trkpt lat="43.03644718829483" lon="12.956271161986416"><ele>1147.6</ele><time>2026-04-18T07:51:58.999Z</time></trkpt><trkpt lat="43.03637779967395" lon="12.956183555449792"><ele>1146.0</ele><time>2026-04-18T07:51:59.999Z</time></trkpt><trkpt lat="43.03634327040634" lon="12.956104799405713"><ele>1146.0</ele><time>2026-04-18T07:52:00.999Z</time></trkpt><trkpt lat="43.036292030761274" lon="12.955983069779373"><ele>1146.0</ele><time>2026-04-18T07:52:01.999Z</time></trkpt><trkpt lat="43.036244952718334" lon="12.955898951096353"><ele>1146.0</ele><time>2026-04-18T07:52:02.999Z</time></trkpt><trkpt lat="43.03619977273368" lon="12.9557935693613"><ele>1146.0</ele><time>2026-04-18T07:52:03.999Z</time></trkpt><trkpt lat="43.03614757272846" lon="12.955709079943876"><ele>1146.0</ele><time>2026-04-18T07:52:04.999Z</time></trkpt><trkpt lat="43.03609617792553" lon="12.955586010640086"><ele>1148.0</ele><time>2026-04-18T07:52:05.999Z</time></trkpt><trkpt lat="43.03604310687944" lon="12.955493385425054"><ele>1150.0</ele><time>2026-04-18T07:52:06.999Z</time></trkpt><trkpt lat="43.035982032123094" lon="12.955377775068326"><ele>1152.0</ele><time>2026-04-18T07:52:07.999Z</time></trkpt><trkpt lat="43.035922948719964" lon="12.955299466938884"><ele>1154.0</ele><time>2026-04-18T07:52:08.999Z</time></trkpt><trkpt lat="43.03586716116288" lon="12.955206769158575"><ele>1156.0</ele><time>2026-04-18T07:52:09.999Z</time></trkpt><trkpt lat="43.03582028890445" lon="12.95514544400637"><ele>1158.0</ele><time>2026-04-18T07:52:10.999Z</time></trkpt><trkpt lat="43.035759026604396" lon="12.955092528121645"><ele>1155.4</ele><time>2026-04-18T07:52:11.999Z</time></trkpt><trkpt lat="43.035680169391675" lon="12.955015736141478"><ele>1152.8</ele><time>2026-04-18T07:52:12.999Z</time></trkpt><trkpt lat="43.03558910080427" lon="12.954949302111434"><ele>1150.2</ele><time>2026-04-18T07:52:13.999Z</time></trkpt><trkpt lat="43.035498231930056" lon="12.954871718557037"><ele>1147.6</ele><time>2026-04-18T07:52:14.999Z</time></trkpt><trkpt lat="43.03543882485495" lon="12.954813784352437"><ele>1145.0</ele><time>2026-04-18T07:52:15.999Z</time></trkpt><trkpt lat="43.03536919718166" lon="12.95474909768285"><ele>1145.0</ele><time>2026-04-18T07:52:16.999Z</time></trkpt><trkpt lat="43.03529539987965" lon="12.954710003325179"><ele>1145.0</ele><time>2026-04-18T07:52:17.999Z</time></trkpt><trkpt lat="43.03522895299867" lon="12.954702529756897"><ele>1145.0</ele><time>2026-04-18T07:52:18.999Z</time></trkpt><trkpt lat="43.03516095603166" lon="12.954689326415103"><ele>1145.0</ele><time>2026-04-18T07:52:20.999Z</time></trkpt><trkpt lat="43.03514433612677" lon="12.954560273629262"><ele>1145.0</ele><time>2026-04-18T07:52:28.999Z</time></trkpt><trkpt lat="43.03512301550099" lon="12.954457220289987"><ele>1145.0</ele><time>2026-04-18T07:52:29.999Z</time></trkpt><trkpt lat="43.03508555581721" lon="12.954362372073794"><ele>1145.0</ele><time>2026-04-18T07:52:30.999Z</time></trkpt><trkpt lat="43.03503629441761" lon="12.954285425467932"><ele>1145.0</ele><time>2026-04-18T07:52:31.999Z</time></trkpt><trkpt lat="43.034999096763435" lon="12.954213535145072"><ele>1145.0</ele><time>2026-04-18T07:52:32.999Z</time></trkpt><trkpt lat="43.034965620716896" lon="12.954136754559816"><ele>1145.0</ele><time>2026-04-18T07:52:33.999Z</time></trkpt><trkpt lat="43.03487355569837" lon="12.9540268488453"><ele>1145.0</ele><time>2026-04-18T07:52:36Z</time></trkpt><trkpt lat="43.03475789762361" lon="12.954015628502384"><ele>1145.0</ele><time>2026-04-18T07:52:38Z</time></trkpt><trkpt lat="43.03467229962841" lon="12.95398976719442"><ele>1145.0</ele><time>2026-04-18T07:52:40Z</time></trkpt><trkpt lat="43.03461073994497" lon="12.953863969965706"><ele>1145.0</ele><time>2026-04-18T07:52:43Z</time></trkpt><trkpt lat="43.03457347228594" lon="12.953769900074354"><ele>1145.0</ele><time>2026-04-18T07:52:44Z</time></trkpt><trkpt lat="43.034529140774744" lon="12.953685459055858"><ele>1145.0</ele><time>2026-04-18T07:52:45Z</time></trkpt><trkpt lat="43.03451303670992" lon="12.95358021835557"><ele>1145.0</ele><time>2026-04-18T07:52:46Z</time></trkpt><trkpt lat="43.034503237551334" lon="12.953482645747552"><ele>1145.0</ele><time>2026-04-18T07:52:47Z</time></trkpt><trkpt lat="43.034461402719415" lon="12.953346399352835"><ele>1145.0</ele><time>2026-04-18T07:52:49Z</time></trkpt><trkpt lat="43.03445819236935" lon="12.95317998483451"><ele>1145.0</ele><time>2026-04-18T07:52:51Z</time></trkpt><trkpt lat="43.0344706684966" lon="12.953000373283263"><ele>1145.0</ele><time>2026-04-18T07:52:53Z</time></trkpt><trkpt lat="43.03446986307972" lon="12.95289578646402"><ele>1145.0</ele><time>2026-04-18T07:52:54Z</time></trkpt><trkpt lat="43.03447012900066" lon="12.952780284842497"><ele>1145.0</ele><time>2026-04-18T07:52:55Z</time></trkpt><trkpt lat="43.0344794400476" lon="12.952663899946964"><ele>1146.0</ele><time>2026-04-18T07:52:56Z</time></trkpt><trkpt lat="43.034494413170194" lon="12.952520555619767"><ele>1147.0</ele><time>2026-04-18T07:52:57Z</time></trkpt><trkpt lat="43.03450260426954" lon="12.95238597834622"><ele>1148.0</ele><time>2026-04-18T07:52:58Z</time></trkpt><trkpt lat="43.03450073330929" lon="12.952229974733013"><ele>1149.0</ele><time>2026-04-18T07:52:59Z</time></trkpt><trkpt lat="43.03450699368924" lon="12.952033438478031"><ele>1149.0</ele><time>2026-04-18T07:53:01Z</time></trkpt><trkpt lat="43.03453654020273" lon="12.951844760556893"><ele>1149.0</ele><time>2026-04-18T07:53:03Z</time></trkpt><trkpt lat="43.03455292061195" lon="12.951695781083517"><ele>1149.0</ele><time>2026-04-18T07:53:05Z</time></trkpt><trkpt lat="43.03446950851246" lon="12.951566282195943"><ele>1149.0</ele><time>2026-04-18T07:53:07Z</time></trkpt><trkpt lat="43.03440449136243" lon="12.951507130347093"><ele>1147.6000000000001</ele><time>2026-04-18T07:53:08Z</time></trkpt><trkpt lat="43.03433882227807" lon="12.951427106222276"><ele>1146.2</ele><time>2026-04-18T07:53:09Z</time></trkpt><trkpt lat="43.03427847326477" lon="12.951349149695778"><ele>1144.8000000000002</ele><time>2026-04-18T07:53:10Z</time></trkpt><trkpt lat="43.03420423256954" lon="12.951255484724868"><ele>1143.4</ele><time>2026-04-18T07:53:11Z</time></trkpt><trkpt lat="43.03412607367225" lon="12.951168745327326"><ele>1142.0</ele><time>2026-04-18T07:53:12Z</time></trkpt><trkpt lat="43.03405817206084" lon="12.951068253512029"><ele>1142.0</ele><time>2026-04-18T07:53:13Z</time></trkpt><trkpt lat="43.03399646910615" lon="12.950960984926397"><ele>1142.0</ele><time>2026-04-18T07:53:14Z</time></trkpt><trkpt lat="43.033936090431915" lon="12.950863105022787"><ele>1142.0</ele><time>2026-04-18T07:53:15Z</time></trkpt><trkpt lat="43.03388272268498" lon="12.950781731491293"><ele>1142.0</ele><time>2026-04-18T07:53:16Z</time></trkpt><trkpt lat="43.03383442386536" lon="12.950712275214205"><ele>1142.0</ele><time>2026-04-18T07:53:17Z</time></trkpt><trkpt lat="43.03372462506695" lon="12.950580195875117"><ele>1143.6</ele><time>2026-04-18T07:53:19Z</time></trkpt><trkpt lat="43.033632466610726" lon="12.95047023754368"><ele>1145.2</ele><time>2026-04-18T07:53:21Z</time></trkpt><trkpt lat="43.03356071389332" lon="12.95035447648975"><ele>1146.8</ele><time>2026-04-18T07:53:23Z</time></trkpt><trkpt lat="43.03348737723659" lon="12.950294852701285"><ele>1148.4</ele><time>2026-04-18T07:53:25Z</time></trkpt><trkpt lat="43.03337423660412" lon="12.95026384109455"><ele>1150.0</ele><time>2026-04-18T07:53:27Z</time></trkpt><trkpt lat="43.03329197974056" lon="12.950229948528385"><ele>1146.4</ele><time>2026-04-18T07:53:28Z</time></trkpt><trkpt lat="43.03319694413745" lon="12.950188377227068"><ele>1142.8</ele><time>2026-04-18T07:53:29Z</time></trkpt><trkpt lat="43.03310323499494" lon="12.950149338078893"><ele>1139.2</ele><time>2026-04-18T07:53:30Z</time></trkpt><trkpt lat="43.033014060401314" lon="12.950109557290416"><ele>1135.6</ele><time>2026-04-18T07:53:31Z</time></trkpt><trkpt lat="43.03292616293583" lon="12.95007132032447"><ele>1132.0</ele><time>2026-04-18T07:53:32Z</time></trkpt><trkpt lat="43.03283224287022" lon="12.950037745789594"><ele>1132.0</ele><time>2026-04-18T07:53:33Z</time></trkpt><trkpt lat="43.03272898986028" lon="12.950010155665831"><ele>1132.0</ele><time>2026-04-18T07:53:34Z</time></trkpt><trkpt lat="43.03263724038412" lon="12.949994694932952"><ele>1132.0</ele><time>2026-04-18T07:53:35Z</time></trkpt><trkpt lat="43.03255143184014" lon="12.949977782609515"><ele>1132.0</ele><time>2026-04-18T07:53:36Z</time></trkpt><trkpt lat="43.03245764837006" lon="12.949969301087314"><ele>1132.0</ele><time>2026-04-18T07:53:37Z</time></trkpt><trkpt lat="43.03234856492771" lon="12.949959427735589"><ele>1128.8</ele><time>2026-04-18T07:53:38Z</time></trkpt><trkpt lat="43.032238552314915" lon="12.949953660695279"><ele>1125.6</ele><time>2026-04-18T07:53:39Z</time></trkpt><trkpt lat="43.03213415457808" lon="12.949943345414127"><ele>1122.3999999999999</ele><time>2026-04-18T07:53:40Z</time></trkpt><trkpt lat="43.03202061862119" lon="12.94994051724953"><ele>1119.2</ele><time>2026-04-18T07:53:41Z</time></trkpt><trkpt lat="43.03190803790829" lon="12.949936444477673"><ele>1116.0</ele><time>2026-04-18T07:53:42Z</time></trkpt><trkpt lat="43.031799048992355" lon="12.949930082582393"><ele>1116.0</ele><time>2026-04-18T07:53:43Z</time></trkpt><trkpt lat="43.031698140960806" lon="12.949919176210237"><ele>1116.0</ele><time>2026-04-18T07:53:44Z</time></trkpt><trkpt lat="43.03160706406598" lon="12.94991147512851"><ele>1116.0</ele><time>2026-04-18T07:53:45Z</time></trkpt><trkpt lat="43.03153101727835" lon="12.949884457833882"><ele>1116.0</ele><time>2026-04-18T07:53:46Z</time></trkpt><trkpt lat="43.03145360968081" lon="12.949865621182889"><ele>1116.0</ele><time>2026-04-18T07:53:47Z</time></trkpt><trkpt lat="43.03137754526965" lon="12.9498448629325"><ele>1116.0</ele><time>2026-04-18T07:53:48Z</time></trkpt><trkpt lat="43.03129450093303" lon="12.949842983011145"><ele>1114.8333333333333</ele><time>2026-04-18T07:53:49Z</time></trkpt><trkpt lat="43.0312048493276" lon="12.949858819081841"><ele>1113.6666666666667</ele><time>2026-04-18T07:53:50Z</time></trkpt><trkpt lat="43.03112035358314" lon="12.94987711573948"><ele>1112.5</ele><time>2026-04-18T07:53:51Z</time></trkpt><trkpt lat="43.0310512972106" lon="12.94987556989659"><ele>1111.3333333333335</ele><time>2026-04-18T07:53:52Z</time></trkpt><trkpt lat="43.03097943658727" lon="12.949874776331502"><ele>1110.1666666666667</ele><time>2026-04-18T07:53:53Z</time></trkpt><trkpt lat="43.030907493604964" lon="12.949858812385706"><ele>1109.0</ele><time>2026-04-18T07:53:54Z</time></trkpt><trkpt lat="43.03083410992068" lon="12.949826108635895"><ele>1105.6000000000001</ele><time>2026-04-18T07:53:55Z</time></trkpt><trkpt lat="43.03073885280662" lon="12.949797466448562"><ele>1102.2</ele><time>2026-04-18T07:53:57Z</time></trkpt><trkpt lat="43.03064705264427" lon="12.949782503911306"><ele>1098.8000000000002</ele><time>2026-04-18T07:53:59Z</time></trkpt><trkpt lat="43.030547307525616" lon="12.949745403952381"><ele>1095.4</ele><time>2026-04-18T07:54:01Z</time></trkpt><trkpt lat="43.03044455314753" lon="12.949707779013643"><ele>1092.0</ele><time>2026-04-18T07:54:02.999Z</time></trkpt><trkpt lat="43.0303223076246" lon="12.949674802945806"><ele>1092.0</ele><time>2026-04-18T07:54:04.999Z</time></trkpt><trkpt lat="43.030245812180716" lon="12.94965827777374"><ele>1092.0</ele><time>2026-04-18T07:54:05.999Z</time></trkpt><trkpt lat="43.03017984708599" lon="12.949648075140875"><ele>1092.0</ele><time>2026-04-18T07:54:06.999Z</time></trkpt><trkpt lat="43.03011170466337" lon="12.949641702770414"><ele>1092.0</ele><time>2026-04-18T07:54:07.999Z</time></trkpt><trkpt lat="43.03004735835168" lon="12.949632028029987"><ele>1092.0</ele><time>2026-04-18T07:54:08.999Z</time></trkpt><trkpt lat="43.02998432928073" lon="12.94962416253432"><ele>1092.0</ele><time>2026-04-18T07:54:09.999Z</time></trkpt><trkpt lat="43.02986880738366" lon="12.949587790032172"><ele>1085.2</ele><time>2026-04-18T07:54:11.999Z</time></trkpt><trkpt lat="43.029763118679384" lon="12.949541419128202"><ele>1078.4</ele><time>2026-04-18T07:54:13.999Z</time></trkpt><trkpt lat="43.02965554913911" lon="12.949454214802506"><ele>1071.6</ele><time>2026-04-18T07:54:15.999Z</time></trkpt><trkpt lat="43.029560456079196" lon="12.949348985236965"><ele>1064.8</ele><time>2026-04-18T07:54:17.999Z</time></trkpt><trkpt lat="43.02950043552797" lon="12.949301629223065"><ele>1058.0</ele><time>2026-04-18T07:54:18.999Z</time></trkpt><trkpt lat="43.029440453354894" lon="12.94924148071077"><ele>1060.3333333333335</ele><time>2026-04-18T07:54:19.999Z</time></trkpt><trkpt lat="43.029343534306186" lon="12.949131609226246"><ele>1062.6666666666667</ele><time>2026-04-18T07:54:21.999Z</time></trkpt><trkpt lat="43.02929129697425" lon="12.949061284988705"><ele>1065.0</ele><time>2026-04-18T07:54:22.999Z</time></trkpt><trkpt lat="43.029248547797046" lon="12.948992090293066"><ele>1067.3333333333333</ele><time>2026-04-18T07:54:23.999Z</time></trkpt><trkpt lat="43.02918573318452" lon="12.948923753534"><ele>1069.6666666666665</ele><time>2026-04-18T07:54:24.999Z</time></trkpt><trkpt lat="43.02911723881029" lon="12.948870275872233"><ele>1072.0</ele><time>2026-04-18T07:54:25.999Z</time></trkpt><trkpt lat="43.02905935341727" lon="12.948805315690016"><ele>1065.8</ele><time>2026-04-18T07:54:26.999Z</time></trkpt><trkpt lat="43.02899523989504" lon="12.94875622917341"><ele>1059.6</ele><time>2026-04-18T07:54:27.999Z</time></trkpt><trkpt lat="43.02888610745765" lon="12.94864484172634"><ele>1053.3999999999999</ele><time>2026-04-18T07:54:29.999Z</time></trkpt><trkpt lat="43.028825481565086" lon="12.94860870761025"><ele>1047.2</ele><time>2026-04-18T07:54:30.999Z</time></trkpt><trkpt lat="43.028703063840396" lon="12.948570561196966"><ele>1041.0</ele><time>2026-04-18T07:54:32.999Z</time></trkpt><trkpt lat="43.02863985753633" lon="12.948549109688386"><ele>1041.0</ele><time>2026-04-18T07:54:33.999Z</time></trkpt><trkpt lat="43.02853064024363" lon="12.948516929437176"><ele>1041.0</ele><time>2026-04-18T07:54:35.999Z</time></trkpt><trkpt lat="43.028431891774694" lon="12.948499676112878"><ele>1041.0</ele><time>2026-04-18T07:54:37.999Z</time></trkpt><trkpt lat="43.02835601369981" lon="12.948502508287"><ele>1041.0</ele><time>2026-04-18T07:54:38.999Z</time></trkpt><trkpt lat="43.02826789562509" lon="12.948495402023454"><ele>1041.0</ele><time>2026-04-18T07:54:39.999Z</time></trkpt><trkpt lat="43.028164783952185" lon="12.948483713129294"><ele>1035.3999999999999</ele><time>2026-04-18T07:54:41Z</time></trkpt><trkpt lat="43.02805555750661" lon="12.948474080953428"><ele>1029.8</ele><time>2026-04-18T07:54:42Z</time></trkpt><trkpt lat="43.02795241982994" lon="12.948464153307171"><ele>1024.1999999999998</ele><time>2026-04-18T07:54:43Z</time></trkpt><trkpt lat="43.02786663997064" lon="12.948451478903483"><ele>1018.5999999999999</ele><time>2026-04-18T07:54:44Z</time></trkpt><trkpt lat="43.027765210885164" lon="12.948441402123938"><ele>1013.0</ele><time>2026-04-18T07:54:45Z</time></trkpt><trkpt lat="43.027661024772776" lon="12.94842409318229"><ele>1013.0000000000001</ele><time>2026-04-18T07:54:46Z</time></trkpt><trkpt lat="43.027575521724245" lon="12.948392041032763"><ele>1013.0</ele><time>2026-04-18T07:54:47Z</time></trkpt><trkpt lat="43.027511236159995" lon="12.94834893353654"><ele>1013.0</ele><time>2026-04-18T07:54:48Z</time></trkpt><trkpt lat="43.02746367495868" lon="12.94828689662734"><ele>1013.0</ele><time>2026-04-18T07:54:49Z</time></trkpt><trkpt lat="43.02742082864649" lon="12.948213022280253"><ele>1013.0000000000001</ele><time>2026-04-18T07:54:50Z</time></trkpt><trkpt lat="43.027378520533524" lon="12.948087369059914"><ele>1013.0</ele><time>2026-04-18T07:54:52Z</time></trkpt><trkpt lat="43.027357392911775" lon="12.948000507208997"><ele>1009.6666666666667</ele><time>2026-04-18T07:54:55Z</time></trkpt><trkpt lat="43.027305482638425" lon="12.94794549164812"><ele>1006.3333333333334</ele><time>2026-04-18T07:55:00Z</time></trkpt><trkpt lat="43.02723012889311" lon="12.948012468321824"><ele>1003.0</ele><time>2026-04-18T07:55:03Z</time></trkpt><trkpt lat="43.027177009299756" lon="12.948103308870147"><ele>999.6666666666667</ele><time>2026-04-18T07:55:05Z</time></trkpt><trkpt lat="43.02711848195923" lon="12.948138480798283"><ele>996.3333333333334</ele><time>2026-04-18T07:55:07Z</time></trkpt><trkpt lat="43.02700807406711" lon="12.948200524390568"><ele>993.0</ele><time>2026-04-18T07:55:09Z</time></trkpt><trkpt lat="43.026870232378215" lon="12.948224036926144"><ele>993.0</ele><time>2026-04-18T07:55:11Z</time></trkpt><trkpt lat="43.02680388811919" lon="12.948244029415104"><ele>993.0</ele><time>2026-04-18T07:55:12Z</time></trkpt><trkpt lat="43.02673422319011" lon="12.948259422284519"><ele>993.0</ele><time>2026-04-18T07:55:13Z</time></trkpt><trkpt lat="43.02666470706851" lon="12.948281642163408"><ele>993.0</ele><time>2026-04-18T07:55:14Z</time></trkpt><trkpt lat="43.026581248314024" lon="12.948329563494072"><ele>993.0</ele><time>2026-04-18T07:55:16Z</time></trkpt><trkpt lat="43.02653225600054" lon="12.94839312558603"><ele>993.0</ele><time>2026-04-18T07:55:18Z</time></trkpt><trkpt lat="43.02648009683572" lon="12.948502323694505"><ele>987.8571428571429</ele><time>2026-04-18T07:55:20Z</time></trkpt><trkpt lat="43.02641506847981" lon="12.948587770604608"><ele>982.7142857142858</ele><time>2026-04-18T07:55:22Z</time></trkpt><trkpt lat="43.02634262145866" lon="12.948639472590244"><ele>977.5714285714287</ele><time>2026-04-18T07:55:26Z</time></trkpt><trkpt lat="43.02627182124844" lon="12.94867524000236"><ele>972.4285714285714</ele><time>2026-04-18T07:55:29Z</time></trkpt><trkpt lat="43.026228641705494" lon="12.948745264730425"><ele>967.2857142857144</ele><time>2026-04-18T07:55:32Z</time></trkpt><trkpt lat="43.026171473012006" lon="12.94878699508944"><ele>962.1428571428572</ele><time>2026-04-18T07:55:34Z</time></trkpt><trkpt lat="43.02610462935301" lon="12.948803824800237"><ele>957.0</ele><time>2026-04-18T07:55:37Z</time></trkpt><trkpt lat="43.02607274022964" lon="12.948878857519082"><ele>957.0</ele><time>2026-04-18T07:55:40Z</time></trkpt><trkpt lat="43.02606048948901" lon="12.948973968756409"><ele>957.0000000000001</ele><time>2026-04-18T07:55:43Z</time></trkpt><trkpt lat="43.02607791484721" lon="12.949080624415359"><ele>957.0</ele><time>2026-04-18T07:55:46Z</time></trkpt><trkpt lat="43.02603032538489" lon="12.949157297569846"><ele>957.0</ele><time>2026-04-18T07:55:51Z</time></trkpt><trkpt lat="43.02596958893563" lon="12.949195748922584"><ele>957.0000000000001</ele><time>2026-04-18T07:55:57Z</time></trkpt><trkpt lat="43.02590366309181" lon="12.949186804118078"><ele>957.0</ele><time>2026-04-18T07:56:01Z</time></trkpt><trkpt lat="43.025836208522726" lon="12.949138497262556"><ele>957.0</ele><time>2026-04-18T07:56:05Z</time></trkpt><trkpt lat="43.025754765927985" lon="12.949143170440879"><ele>951.5</ele><time>2026-04-18T07:56:09Z</time></trkpt><trkpt lat="43.025670015717196" lon="12.949158688071142"><ele>946.0</ele><time>2026-04-18T07:56:12.999Z</time></trkpt><trkpt lat="43.02560600013457" lon="12.949184561331192"><ele>940.5</ele><time>2026-04-18T07:56:15.999Z</time></trkpt><trkpt lat="43.02553550058877" lon="12.949248932655447"><ele>935.0</ele><time>2026-04-18T07:56:45.999Z</time></trkpt><trkpt lat="43.025464968217854" lon="12.949283991857001"><ele>929.5</ele><time>2026-04-18T07:56:54Z</time></trkpt><trkpt lat="43.025390678058216" lon="12.949302417712593"><ele>924.0</ele><time>2026-04-18T07:57:06Z</time></trkpt><trkpt lat="43.025314582009266" lon="12.949294208797873"><ele>924.0</ele><time>2026-04-18T07:57:09Z</time></trkpt><trkpt lat="43.02523680512772" lon="12.949226913961164"><ele>924.0</ele><time>2026-04-18T07:57:14Z</time></trkpt><trkpt lat="43.02516236752204" lon="12.949172522667851"><ele>924.0</ele><time>2026-04-18T07:57:16Z</time></trkpt><trkpt lat="43.02508285309932" lon="12.949136292277903"><ele>924.0</ele><time>2026-04-18T07:57:20Z</time></trkpt><trkpt lat="43.02502139936029" lon="12.949117119763626"><ele>924.0</ele><time>2026-04-18T07:57:23Z</time></trkpt><trkpt lat="43.02494208438853" lon="12.949095555418452"><ele>924.0</ele><time>2026-04-18T07:57:28Z</time></trkpt><trkpt lat="43.024874270664704" lon="12.949087567554855"><ele>918.5714285714286</ele><time>2026-04-18T07:57:30Z</time></trkpt><trkpt lat="43.02480038927921" lon="12.949101085295938"><ele>913.1428571428571</ele><time>2026-04-18T07:57:33Z</time></trkpt><trkpt lat="43.024725575971594" lon="12.94906212992143"><ele>907.7142857142858</ele><time>2026-04-18T07:57:48Z</time></trkpt><trkpt lat="43.024651546061946" lon="12.949077941066058"><ele>902.2857142857142</ele><time>2026-04-18T07:57:52Z</time></trkpt><trkpt lat="43.02459793522672" lon="12.949143781715971"><ele>896.8571428571429</ele><time>2026-04-18T07:57:55Z</time></trkpt><trkpt lat="43.02454998099412" lon="12.949234575180565"><ele>891.4285714285714</ele><time>2026-04-18T07:57:58Z</time></trkpt><trkpt lat="43.02451253918213" lon="12.949308026957915"><ele>886.0</ele><time>2026-04-18T07:58:02Z</time></trkpt><trkpt lat="43.024465781283304" lon="12.949394744778886"><ele>884.4285714285714</ele><time>2026-04-18T07:58:09Z</time></trkpt><trkpt lat="43.02444303435547" lon="12.949484354259855"><ele>882.8571428571429</ele><time>2026-04-18T07:58:12Z</time></trkpt><trkpt lat="43.02442100809655" lon="12.94957118713126"><ele>881.2857142857142</ele><time>2026-04-18T07:58:17Z</time></trkpt><trkpt lat="43.02438445099017" lon="12.949651815126261"><ele>879.7142857142858</ele><time>2026-04-18T07:58:20.999Z</time></trkpt><trkpt lat="43.024343333615654" lon="12.949725815499697"><ele>878.1428571428571</ele><time>2026-04-18T07:58:23.999Z</time></trkpt><trkpt lat="43.02428364370703" lon="12.949785084584612"><ele>876.5714285714286</ele><time>2026-04-18T07:58:25.999Z</time></trkpt><trkpt lat="43.0242163612046" lon="12.949829520522528"><ele>875.0</ele><time>2026-04-18T07:58:28.999Z</time></trkpt><trkpt lat="43.024155147768234" lon="12.94986937099196"><ele>876.5000000000001</ele><time>2026-04-18T07:58:30.999Z</time></trkpt><trkpt lat="43.02408826098251" lon="12.949888181381832"><ele>878.0</ele><time>2026-04-18T07:58:34.999Z</time></trkpt><trkpt lat="43.02403273958294" lon="12.949803934473461"><ele>879.5</ele><time>2026-04-18T07:59:03.999Z</time></trkpt><trkpt lat="43.024028511737676" lon="12.949692449975789"><ele>881.0</ele><time>2026-04-18T07:59:06.999Z</time></trkpt><trkpt lat="43.023990918174704" lon="12.949616086245396"><ele>882.5000000000001</ele><time>2026-04-18T07:59:09.999Z</time></trkpt><trkpt lat="43.023926102406165" lon="12.949522631432504"><ele>884.0</ele><time>2026-04-18T07:59:13.999Z</time></trkpt><trkpt lat="43.023896716260616" lon="12.949434015360904"><ele>884.0000000000001</ele><time>2026-04-18T07:59:16.999Z</time></trkpt><trkpt lat="43.02391220689744" lon="12.94933107398482"><ele>884.0</ele><time>2026-04-18T07:59:19.999Z</time></trkpt><trkpt lat="43.02389474395587" lon="12.949194782085536"><ele>884.0</ele><time>2026-04-18T07:59:24.999Z</time></trkpt><trkpt lat="43.023850950486285" lon="12.949104789902027"><ele>884.0</ele><time>2026-04-18T07:59:27.999Z</time></trkpt><trkpt lat="43.02381603869686" lon="12.949032150955189"><ele>884.0000000000001</ele><time>2026-04-18T07:59:29.999Z</time></trkpt><trkpt lat="43.02375866922962" lon="12.948972443600356"><ele>884.0</ele><time>2026-04-18T07:59:33.999Z</time></trkpt><trkpt lat="43.02376172461439" lon="12.948862103479057"><ele>884.0</ele><time>2026-04-18T07:59:39.999Z</time></trkpt><trkpt lat="43.02378346985437" lon="12.948971762924195"><ele>884.0000000000001</ele><time>2026-04-18T08:00:21.999Z</time></trkpt><trkpt lat="43.023791051515474" lon="12.949155867929365"><ele>884.0000000000001</ele><time>2026-04-18T08:00:23.999Z</time></trkpt><trkpt lat="43.02380263519164" lon="12.94927708197393"><ele>884.0</ele><time>2026-04-18T08:00:24.999Z</time></trkpt><trkpt lat="43.023808540970144" lon="12.949398313118945"><ele>884.0</ele><time>2026-04-18T08:00:25.999Z</time></trkpt><trkpt lat="43.023818396644636" lon="12.949515656476184"><ele>884.0000000000001</ele><time>2026-04-18T08:00:26.999Z</time></trkpt><trkpt lat="43.02382776747434" lon="12.94961345097998"><ele>884.0</ele><time>2026-04-18T08:00:27.999Z</time></trkpt><trkpt lat="43.02382873122205" lon="12.949733159456303"><ele>884.0</ele><time>2026-04-18T08:00:30.999Z</time></trkpt><trkpt lat="43.02383050023776" lon="12.949893126283719"><ele>884.0</ele><time>2026-04-18T08:00:32.999Z</time></trkpt><trkpt lat="43.02384841613699" lon="12.949996165844482"><ele>884.0000000000001</ele><time>2026-04-18T08:00:34.999Z</time></trkpt><trkpt lat="43.02378171196023" lon="12.95006027111584"><ele>884.0</ele><time>2026-04-18T08:00:36.998Z</time></trkpt><trkpt lat="43.02368592949795" lon="12.949997610576345"><ele>884.0</ele><time>2026-04-18T08:00:38.998Z</time></trkpt><trkpt lat="43.02360135724875" lon="12.949873533204702"><ele>884.0000000000001</ele><time>2026-04-18T08:00:40.998Z</time></trkpt><trkpt lat="43.02355050718586" lon="12.949800441438216"><ele>884.0000000000001</ele><time>2026-04-18T08:00:41.998Z</time></trkpt><trkpt lat="43.02349612904264" lon="12.949717402993103"><ele>884.0</ele><time>2026-04-18T08:00:42.998Z</time></trkpt><trkpt lat="43.023435415993944" lon="12.949626286507536"><ele>884.0</ele><time>2026-04-18T08:00:43.998Z</time></trkpt><trkpt lat="43.0233737057809" lon="12.949527913146385"><ele>884.0000000000001</ele><time>2026-04-18T08:00:44.998Z</time></trkpt><trkpt lat="43.02331867440813" lon="12.949432277412074"><ele>884.0</ele><time>2026-04-18T08:00:45.998Z</time></trkpt><trkpt lat="43.02325931999802" lon="12.94932705826474"><ele>884.0</ele><time>2026-04-18T08:00:46.998Z</time></trkpt><trkpt lat="43.023197266482605" lon="12.94922835274942"><ele>884.0</ele><time>2026-04-18T08:00:47.998Z</time></trkpt><trkpt lat="43.02313710914104" lon="12.949159659047718"><ele>884.0000000000001</ele><time>2026-04-18T08:00:48.998Z</time></trkpt><trkpt lat="43.023063449926" lon="12.949142002808351"><ele>884.0</ele><time>2026-04-18T08:00:49.998Z</time></trkpt><trkpt lat="43.02298362358722" lon="12.949170034176293"><ele>885.2</ele><time>2026-04-18T08:00:50.998Z</time></trkpt><trkpt lat="43.02291310912743" lon="12.949231126436846"><ele>886.4000000000001</ele><time>2026-04-18T08:00:51.998Z</time></trkpt><trkpt lat="43.02284594465017" lon="12.949306447684442"><ele>887.6</ele><time>2026-04-18T08:00:52.998Z</time></trkpt><trkpt lat="43.02277362332257" lon="12.949382139469058"><ele>888.8</ele><time>2026-04-18T08:00:53.998Z</time></trkpt><trkpt lat="43.02268458803556" lon="12.9494847936602"><ele>890.0</ele><time>2026-04-18T08:00:54.998Z</time></trkpt><trkpt lat="43.02257463165758" lon="12.949586483072856"><ele>888.5</ele><time>2026-04-18T08:00:55.998Z</time></trkpt><trkpt lat="43.022462724727326" lon="12.94967759205917"><ele>887.0</ele><time>2026-04-18T08:00:56.998Z</time></trkpt><trkpt lat="43.02234680801791" lon="12.949784581266062"><ele>885.5</ele><time>2026-04-18T08:00:57.998Z</time></trkpt><trkpt lat="43.0222503660831" lon="12.94985818248989"><ele>884.0</ele><time>2026-04-18T08:00:58.999Z</time></trkpt><trkpt lat="43.02216744244445" lon="12.949939975024476"><ele>884.0</ele><time>2026-04-18T08:00:59.999Z</time></trkpt><trkpt lat="43.02208491144416" lon="12.95002836498776"><ele>884.0000000000001</ele><time>2026-04-18T08:01:00.999Z</time></trkpt><trkpt lat="43.02199498323354" lon="12.950095664349618"><ele>884.0000000000001</ele><time>2026-04-18T08:01:01.999Z</time></trkpt><trkpt lat="43.021892030545246" lon="12.950133150821948"><ele>884.0</ele><time>2026-04-18T08:01:02.999Z</time></trkpt><trkpt lat="43.02179014620901" lon="12.950134372056185"><ele>884.0</ele><time>2026-04-18T08:01:03.999Z</time></trkpt><trkpt lat="43.02168705181853" lon="12.95012224721165"><ele>887.8000000000001</ele><time>2026-04-18T08:01:04.999Z</time></trkpt><trkpt lat="43.02158749295256" lon="12.95012315974648"><ele>891.6000000000001</ele><time>2026-04-18T08:01:06Z</time></trkpt><trkpt lat="43.02148783430654" lon="12.950171017023012"><ele>895.4</ele><time>2026-04-18T08:01:06.999Z</time></trkpt><trkpt lat="43.0213927079717" lon="12.950264316983679"><ele>899.2</ele><time>2026-04-18T08:01:08Z</time></trkpt><trkpt lat="43.02129348858857" lon="12.950368554163749"><ele>903.0</ele><time>2026-04-18T08:01:09Z</time></trkpt><trkpt lat="43.021193845589714" lon="12.950453344543297"><ele>903.0</ele><time>2026-04-18T08:01:09.999Z</time></trkpt><trkpt lat="43.02108580192808" lon="12.950544232855064"><ele>903.0</ele><time>2026-04-18T08:01:11Z</time></trkpt><trkpt lat="43.02097437481238" lon="12.950632201671514"><ele>903.0</ele><time>2026-04-18T08:01:12Z</time></trkpt><trkpt lat="43.02086686394195" lon="12.950704218065713"><ele>903.0</ele><time>2026-04-18T08:01:13Z</time></trkpt><trkpt lat="43.020748622174175" lon="12.950774415312067"><ele>905.5</ele><time>2026-04-18T08:01:13.999Z</time></trkpt><trkpt lat="43.020623586926256" lon="12.95083362237854"><ele>908.0</ele><time>2026-04-18T08:01:14.999Z</time></trkpt><trkpt lat="43.020489864387514" lon="12.95088598457111"><ele>910.5</ele><time>2026-04-18T08:01:15.999Z</time></trkpt><trkpt lat="43.020353228100625" lon="12.950921929403501"><ele>913.0</ele><time>2026-04-18T08:01:16.999Z</time></trkpt><trkpt lat="43.020211654021466" lon="12.950934114748097"><ele>917.8</ele><time>2026-04-18T08:01:17.999Z</time></trkpt><trkpt lat="43.020070389926474" lon="12.95094884036559"><ele>922.5999999999999</ele><time>2026-04-18T08:01:18.999Z</time></trkpt><trkpt lat="43.01995240317999" lon="12.950968770381289"><ele>927.4000000000001</ele><time>2026-04-18T08:01:19.999Z</time></trkpt><trkpt lat="43.01986660920178" lon="12.951017466711743"><ele>932.2</ele><time>2026-04-18T08:01:20.999Z</time></trkpt><trkpt lat="43.01982978600365" lon="12.951100922413515"><ele>937.0</ele><time>2026-04-18T08:01:21.999Z</time></trkpt><trkpt lat="43.019782090362554" lon="12.951204363554474"><ele>938.75</ele><time>2026-04-18T08:01:23.999Z</time></trkpt><trkpt lat="43.01974322514112" lon="12.951289117939794"><ele>940.5</ele><time>2026-04-18T08:01:24.999Z</time></trkpt><trkpt lat="43.0197387719902" lon="12.951443770415645"><ele>942.25</ele><time>2026-04-18T08:01:26.999Z</time></trkpt><trkpt lat="43.019545657070985" lon="12.951405075645237"><ele>944.0</ele><time>2026-04-18T08:01:27.999Z</time></trkpt><trkpt lat="43.01943594511769" lon="12.95140382013802"><ele>944.0000000000001</ele><time>2026-04-18T08:01:29.999Z</time></trkpt><trkpt lat="43.01937308338923" lon="12.951388475701181"><ele>944.0</ele><time>2026-04-18T08:01:31.999Z</time></trkpt><trkpt lat="43.019279392562744" lon="12.95142054470577"><ele>944.0</ele><time>2026-04-18T08:01:34.999Z</time></trkpt><trkpt lat="43.01919171903512" lon="12.95148509095818"><ele>944.0</ele><time>2026-04-18T08:01:36.999Z</time></trkpt><trkpt lat="43.01911832656142" lon="12.95154458903638"><ele>944.0000000000001</ele><time>2026-04-18T08:01:38.999Z</time></trkpt><trkpt lat="43.01904742831812" lon="12.951586733090283"><ele>944.0</ele><time>2026-04-18T08:01:40.999Z</time></trkpt><trkpt lat="43.018967558348734" lon="12.951631601569838"><ele>947.3333333333334</ele><time>2026-04-18T08:01:42.999Z</time></trkpt><trkpt lat="43.018874969721836" lon="12.951710612482374"><ele>950.6666666666667</ele><time>2026-04-18T08:01:44.999Z</time></trkpt><trkpt lat="43.01877654692737" lon="12.951767657816175"><ele>954.0</ele><time>2026-04-18T08:01:46.999Z</time></trkpt><trkpt lat="43.018706416277176" lon="12.95179238482221"><ele>957.3333333333333</ele><time>2026-04-18T08:01:47.999Z</time></trkpt><trkpt lat="43.01864104658088" lon="12.951819134626502"><ele>960.6666666666666</ele><time>2026-04-18T08:01:48.999Z</time></trkpt><trkpt lat="43.01857092896806" lon="12.951870307787688"><ele>964.0</ele><time>2026-04-18T08:01:49.999Z</time></trkpt><trkpt lat="43.01850366942921" lon="12.951909716093434"><ele>963.9999999999999</ele><time>2026-04-18T08:01:50.999Z</time></trkpt><trkpt lat="43.01844669199108" lon="12.951957255811577"><ele>964.0</ele><time>2026-04-18T08:01:51.999Z</time></trkpt><trkpt lat="43.01834340218712" lon="12.952068162719206"><ele>964.0</ele><time>2026-04-18T08:01:53.999Z</time></trkpt><trkpt lat="43.018279182164385" lon="12.952125751439743"><ele>964.0</ele><time>2026-04-18T08:01:54.999Z</time></trkpt><trkpt lat="43.01822152857947" lon="12.9521784846313"><ele>963.9999999999999</ele><time>2026-04-18T08:01:55.999Z</time></trkpt><trkpt lat="43.018163676863814" lon="12.952235421265184"><ele>964.0</ele><time>2026-04-18T08:01:56.999Z</time></trkpt><trkpt lat="43.01810418461115" lon="12.952288732980247"><ele>965.8000000000001</ele><time>2026-04-18T08:01:57.999Z</time></trkpt><trkpt lat="43.018042211672615" lon="12.952357563056383"><ele>967.6000000000001</ele><time>2026-04-18T08:01:58.999Z</time></trkpt><trkpt lat="43.01797479291014" lon="12.952419497295615"><ele>969.4</ele><time>2026-04-18T08:01:59.999Z</time></trkpt><trkpt lat="43.01791656809172" lon="12.952476716779591"><ele>971.2</ele><time>2026-04-18T08:02:00.999Z</time></trkpt><trkpt lat="43.01779709031126" lon="12.952567024239423"><ele>973.0</ele><time>2026-04-18T08:02:02.999Z</time></trkpt><trkpt lat="43.01771593622273" lon="12.952654328392553"><ele>975.8333333333333</ele><time>2026-04-18T08:02:04.999Z</time></trkpt><trkpt lat="43.01765423066419" lon="12.952722339299827"><ele>978.6666666666666</ele><time>2026-04-18T08:02:07.999Z</time></trkpt><trkpt lat="43.01760368877298" lon="12.952795165950507"><ele>981.5</ele><time>2026-04-18T08:02:08.999Z</time></trkpt><trkpt lat="43.01753870944288" lon="12.952847346917157"><ele>984.3333333333333</ele><time>2026-04-18T08:02:09.999Z</time></trkpt><trkpt lat="43.017433331064154" lon="12.952920147287786"><ele>987.1666666666666</ele><time>2026-04-18T08:02:11.999Z</time></trkpt><trkpt lat="43.017367188315205" lon="12.952968466590596"><ele>990.0</ele><time>2026-04-18T08:02:13.999Z</time></trkpt><trkpt lat="43.01724209398283" lon="12.952965632914307"><ele>991.2</ele><time>2026-04-18T08:02:15.999Z</time></trkpt><trkpt lat="43.017113658904115" lon="12.952991423004761"><ele>992.4</ele><time>2026-04-18T08:02:17.999Z</time></trkpt><trkpt lat="43.01703995903621" lon="12.953014466715912"><ele>993.5999999999999</ele><time>2026-04-18T08:02:18.999Z</time></trkpt><trkpt lat="43.01693072314891" lon="12.952951167215437"><ele>994.8</ele><time>2026-04-18T08:02:20.999Z</time></trkpt><trkpt lat="43.01681001484941" lon="12.952917513717296"><ele>996.0</ele><time>2026-04-18T08:02:22.999Z</time></trkpt><trkpt lat="43.01674416186021" lon="12.952891770951004"><ele>996.0</ele><time>2026-04-18T08:02:23.999Z</time></trkpt><trkpt lat="43.01669049477225" lon="12.95281711917818"><ele>996.0</ele><time>2026-04-18T08:02:24.999Z</time></trkpt><trkpt lat="43.01664880065085" lon="12.95273544167629"><ele>996.0</ele><time>2026-04-18T08:02:25.999Z</time></trkpt><trkpt lat="43.01653693754365" lon="12.952677154470168"><ele>996.0</ele><time>2026-04-18T08:02:27.999Z</time></trkpt><trkpt lat="43.01645604667949" lon="12.952624989664764"><ele>996.0</ele><time>2026-04-18T08:02:29.999Z</time></trkpt><trkpt lat="43.01643445899472" lon="12.952543756195414"><ele>996.0</ele><time>2026-04-18T08:02:30.999Z</time></trkpt><trkpt lat="43.01633168432168" lon="12.952468702827682"><ele>997.75</ele><time>2026-04-18T08:02:32.999Z</time></trkpt><trkpt lat="43.0162604521559" lon="12.952424862148993"><ele>999.5</ele><time>2026-04-18T08:02:34.999Z</time></trkpt><trkpt lat="43.01620378511754" lon="12.952386461530233"><ele>1001.25</ele><time>2026-04-18T08:02:51.998Z</time></trkpt><trkpt lat="43.01622998692973" lon="12.952290902092825"><ele>1003.0</ele><time>2026-04-18T08:02:54.998Z</time></trkpt><trkpt lat="43.01646779670849" lon="12.952294916624197"><ele>1002.9999999999999</ele><time>2026-04-18T08:03:01.998Z</time></trkpt><trkpt lat="43.016525144423774" lon="12.95225203126876"><ele>1003.0</ele><time>2026-04-18T08:03:02.998Z</time></trkpt><trkpt lat="43.01660100644335" lon="12.952143135256355"><ele>1003.0</ele><time>2026-04-18T08:03:05Z</time></trkpt><trkpt lat="43.016657159877056" lon="12.952068490342914"><ele>1003.0</ele><time>2026-04-18T08:03:06Z</time></trkpt><trkpt lat="43.016700611741314" lon="12.951994230226052"><ele>1002.9999999999999</ele><time>2026-04-18T08:03:07Z</time></trkpt><trkpt lat="43.016751221947814" lon="12.951886520035396"><ele>1003.0</ele><time>2026-04-18T08:03:09Z</time></trkpt><trkpt lat="43.01680396241222" lon="12.951784865603656"><ele>1002.4</ele><time>2026-04-18T08:03:11Z</time></trkpt><trkpt lat="43.01686007826785" lon="12.951650566847862"><ele>1001.8</ele><time>2026-04-18T08:03:13Z</time></trkpt><trkpt lat="43.01690752544149" lon="12.951533315229156"><ele>1001.2</ele><time>2026-04-18T08:03:15Z</time></trkpt><trkpt lat="43.01695666989027" lon="12.951419580448164"><ele>1000.6</ele><time>2026-04-18T08:03:17Z</time></trkpt><trkpt lat="43.01700955880166" lon="12.951320154861888"><ele>1000.0</ele><time>2026-04-18T08:03:19Z</time></trkpt><trkpt lat="43.01706097036606" lon="12.951224841216387"><ele>999.9999999999999</ele><time>2026-04-18T08:03:21Z</time></trkpt><trkpt lat="43.01710296422923" lon="12.951148843147598"><ele>1000.0</ele><time>2026-04-18T08:03:23Z</time></trkpt><trkpt lat="43.01709245549271" lon="12.951055979515425"><ele>1000.0</ele><time>2026-04-18T08:03:27.999Z</time></trkpt><trkpt lat="43.01699971611714" lon="12.950994719751582"><ele>1000.0</ele><time>2026-04-18T08:03:29.999Z</time></trkpt><trkpt lat="43.01694844543031" lon="12.950929654221683"><ele>999.9999999999999</ele><time>2026-04-18T08:03:30.999Z</time></trkpt><trkpt lat="43.01690435205731" lon="12.95085199022361"><ele>1000.0</ele><time>2026-04-18T08:03:31.999Z</time></trkpt><trkpt lat="43.0168509095037" lon="12.950776677286251"><ele>1000.2</ele><time>2026-04-18T08:03:32.999Z</time></trkpt><trkpt lat="43.01679093883399" lon="12.950691464155302"><ele>1000.4</ele><time>2026-04-18T08:03:33.999Z</time></trkpt><trkpt lat="43.01672351645288" lon="12.950602390488246"><ele>1000.5999999999999</ele><time>2026-04-18T08:03:34.999Z</time></trkpt><trkpt lat="43.01665153510607" lon="12.950515494325446"><ele>1000.8</ele><time>2026-04-18T08:03:35.999Z</time></trkpt><trkpt lat="43.016570213403675" lon="12.950424361922288"><ele>1001.0</ele><time>2026-04-18T08:03:36.999Z</time></trkpt><trkpt lat="43.016480230740264" lon="12.950331755618771"><ele>1005.0</ele><time>2026-04-18T08:03:37.999Z</time></trkpt><trkpt lat="43.01639275225691" lon="12.950239768196232"><ele>1008.9999999999999</ele><time>2026-04-18T08:03:38.999Z</time></trkpt><trkpt lat="43.016303557440615" lon="12.950147748355446"><ele>1012.9999999999999</ele><time>2026-04-18T08:03:39.999Z</time></trkpt><trkpt lat="43.01621235547553" lon="12.950069654294241"><ele>1017.0</ele><time>2026-04-18T08:03:40.999Z</time></trkpt><trkpt lat="43.01612928612229" lon="12.950009285749838"><ele>1021.0</ele><time>2026-04-18T08:03:41.999Z</time></trkpt><trkpt lat="43.01604253770552" lon="12.949939813156512"><ele>1020.9999999999999</ele><time>2026-04-18T08:03:42.999Z</time></trkpt><trkpt lat="43.015957326076574" lon="12.949876932004289"><ele>1021.0</ele><time>2026-04-18T08:03:43.999Z</time></trkpt><trkpt lat="43.015868311766305" lon="12.949805813069592"><ele>1021.0</ele><time>2026-04-18T08:03:44.999Z</time></trkpt><trkpt lat="43.015803772397526" lon="12.94972608423123"><ele>1021.0</ele><time>2026-04-18T08:03:45.999Z</time></trkpt><trkpt lat="43.015745973527316" lon="12.949664148725944"><ele>1020.9999999999999</ele><time>2026-04-18T08:03:46.999Z</time></trkpt><trkpt lat="43.01566920679941" lon="12.94960306928802"><ele>1021.0</ele><time>2026-04-18T08:03:47.999Z</time></trkpt><trkpt lat="43.01559400126328" lon="12.949584399927431"><ele>1025.0</ele><time>2026-04-18T08:03:48.999Z</time></trkpt><trkpt lat="43.015495544706546" lon="12.949570753984364"><ele>1029.0</ele><time>2026-04-18T08:03:49.999Z</time></trkpt><trkpt lat="43.015390320183506" lon="12.94954170408608"><ele>1033.0</ele><time>2026-04-18T08:03:50.999Z</time></trkpt><trkpt lat="43.015293227924744" lon="12.949518346146784"><ele>1037.0</ele><time>2026-04-18T08:03:51.999Z</time></trkpt><trkpt lat="43.01517269528756" lon="12.949511205460194"><ele>1041.0</ele><time>2026-04-18T08:03:52.999Z</time></trkpt><trkpt lat="43.0150860109593" lon="12.949516539560543"><ele>1041.0</ele><time>2026-04-18T08:03:53.999Z</time></trkpt><trkpt lat="43.01499765694476" lon="12.949488527794069"><ele>1041.0</ele><time>2026-04-18T08:03:54.999Z</time></trkpt><trkpt lat="43.01489963341353" lon="12.949447354439094"><ele>1041.0</ele><time>2026-04-18T08:03:55.999Z</time></trkpt><trkpt lat="43.0148050619622" lon="12.949415280488214"><ele>1041.0</ele><time>2026-04-18T08:03:56.999Z</time></trkpt><trkpt lat="43.01471665550371" lon="12.949387021649338"><ele>1041.0</ele><time>2026-04-18T08:03:57.999Z</time></trkpt><trkpt lat="43.01461733778078" lon="12.949360195544978"><ele>1042.3333333333333</ele><time>2026-04-18T08:03:58.999Z</time></trkpt><trkpt lat="43.014522908523574" lon="12.949370138272375"><ele>1043.6666666666667</ele><time>2026-04-18T08:03:59.999Z</time></trkpt><trkpt lat="43.01444540470273" lon="12.949385632087221"><ele>1045.0</ele><time>2026-04-18T08:04:00.999Z</time></trkpt><trkpt lat="43.01436860247763" lon="12.94939279235307"><ele>1046.3333333333335</ele><time>2026-04-18T08:04:01.999Z</time></trkpt><trkpt lat="43.01430006361659" lon="12.94940099022809"><ele>1047.6666666666667</ele><time>2026-04-18T08:04:02.999Z</time></trkpt><trkpt lat="43.01422762066055" lon="12.949405830051694"><ele>1049.0</ele><time>2026-04-18T08:04:03.999Z</time></trkpt><trkpt lat="43.014142262706685" lon="12.949407512387594"><ele>1051.6666666666667</ele><time>2026-04-18T08:04:04.999Z</time></trkpt><trkpt lat="43.014066603023444" lon="12.949400495279262"><ele>1054.3333333333335</ele><time>2026-04-18T08:04:05.999Z</time></trkpt><trkpt lat="43.01399194709638" lon="12.94938814140363"><ele>1057.0</ele><time>2026-04-18T08:04:06.999Z</time></trkpt><trkpt lat="43.013902278734655" lon="12.949355885832851"><ele>1059.6666666666667</ele><time>2026-04-18T08:04:07.999Z</time></trkpt><trkpt lat="43.01380577299101" lon="12.949310477302582"><ele>1062.3333333333333</ele><time>2026-04-18T08:04:08.999Z</time></trkpt><trkpt lat="43.0137154641972" lon="12.949274526916913"><ele>1065.0</ele><time>2026-04-18T08:04:09.999Z</time></trkpt><trkpt lat="43.013624575889054" lon="12.949230775347054"><ele>1064.2</ele><time>2026-04-18T08:04:10.999Z</time></trkpt><trkpt lat="43.013523672344654" lon="12.94917122029125"><ele>1063.4</ele><time>2026-04-18T08:04:11.999Z</time></trkpt><trkpt lat="43.01342480426841" lon="12.949119344004911"><ele>1062.6</ele><time>2026-04-18T08:04:12.999Z</time></trkpt><trkpt lat="43.013317348258205" lon="12.949054457754148"><ele>1061.8</ele><time>2026-04-18T08:04:13.999Z</time></trkpt><trkpt lat="43.0132173865886" lon="12.948999574499835"><ele>1061.0</ele><time>2026-04-18T08:04:14.999Z</time></trkpt><trkpt lat="43.01311020846188" lon="12.948941660458871"><ele>1063.6</ele><time>2026-04-18T08:04:15.999Z</time></trkpt><trkpt lat="43.01301972262135" lon="12.948890736293128"><ele>1066.1999999999998</ele><time>2026-04-18T08:04:16.999Z</time></trkpt><trkpt lat="43.01292433843461" lon="12.948811345564328"><ele>1068.8000000000002</ele><time>2026-04-18T08:04:17.999Z</time></trkpt><trkpt lat="43.012842350332996" lon="12.948728932818575"><ele>1071.4</ele><time>2026-04-18T08:04:18.999Z</time></trkpt><trkpt lat="43.01275679832025" lon="12.948638707867543"><ele>1074.0</ele><time>2026-04-18T08:04:19.999Z</time></trkpt><trkpt lat="43.012692407827004" lon="12.94859164899074"><ele>1074.0</ele><time>2026-04-18T08:04:20.999Z</time></trkpt><trkpt lat="43.01261951586676" lon="12.948562240513574"><ele>1074.0</ele><time>2026-04-18T08:04:21.999Z</time></trkpt><trkpt lat="43.01253989606714" lon="12.948544043156565"><ele>1074.0</ele><time>2026-04-18T08:04:22.999Z</time></trkpt><trkpt lat="43.01245995558443" lon="12.948562540382865"><ele>1074.0</ele><time>2026-04-18T08:04:23.999Z</time></trkpt><trkpt lat="43.01238564605798" lon="12.948564256036674"><ele>1074.0</ele><time>2026-04-18T08:04:24.999Z</time></trkpt><trkpt lat="43.01231489721541" lon="12.94855991674675"><ele>1074.0</ele><time>2026-04-18T08:04:25.999Z</time></trkpt><trkpt lat="43.012161520051606" lon="12.948650654898719"><ele>1078.6000000000001</ele><time>2026-04-18T08:04:27.999Z</time></trkpt><trkpt lat="43.012056966919126" lon="12.948735422178432"><ele>1083.2</ele><time>2026-04-18T08:04:28.999Z</time></trkpt><trkpt lat="43.0119676682724" lon="12.948806092808278"><ele>1087.8000000000002</ele><time>2026-04-18T08:04:29.999Z</time></trkpt><trkpt lat="43.01189879992825" lon="12.948875116573676"><ele>1092.4</ele><time>2026-04-18T08:04:30.999Z</time></trkpt><trkpt lat="43.01185762901592" lon="12.94894682171868"><ele>1097.0</ele><time>2026-04-18T08:04:31.999Z</time></trkpt><trkpt lat="43.01177617304376" lon="12.949029045797058"><ele>1097.0</ele><time>2026-04-18T08:04:32.999Z</time></trkpt><trkpt lat="43.0117172499877" lon="12.949157906648402"><ele>1097.0</ele><time>2026-04-18T08:04:33.999Z</time></trkpt><trkpt lat="43.01164509877817" lon="12.949277159153322"><ele>1097.0</ele><time>2026-04-18T08:04:34.999Z</time></trkpt><trkpt lat="43.01157772279196" lon="12.949389559382727"><ele>1097.0</ele><time>2026-04-18T08:04:35.999Z</time></trkpt><trkpt lat="43.011510060535095" lon="12.949471926029032"><ele>1097.0</ele><time>2026-04-18T08:04:36.999Z</time></trkpt><trkpt lat="43.011459771976234" lon="12.94954219162116"><ele>1101.5</ele><time>2026-04-18T08:04:37.999Z</time></trkpt><trkpt lat="43.01140606200354" lon="12.949590512586417"><ele>1106.0</ele><time>2026-04-18T08:04:38.999Z</time></trkpt><trkpt lat="43.01131274920419" lon="12.949682118774618"><ele>1110.5</ele><time>2026-04-18T08:04:40.999Z</time></trkpt><trkpt lat="43.01127796015567" lon="12.949758220454985"><ele>1115.0</ele><time>2026-04-18T08:04:41.999Z</time></trkpt><trkpt lat="43.01122900644499" lon="12.949831555375253"><ele>1119.5</ele><time>2026-04-18T08:04:42.999Z</time></trkpt><trkpt lat="43.01118363981946" lon="12.949937022984443"><ele>1124.0</ele><time>2026-04-18T08:04:43.999Z</time></trkpt><trkpt lat="43.01112752890033" lon="12.950022713948801"><ele>1124.2</ele><time>2026-04-18T08:04:44.999Z</time></trkpt><trkpt lat="43.01104332846263" lon="12.950119224973308"><ele>1124.4</ele><time>2026-04-18T08:04:45.999Z</time></trkpt><trkpt lat="43.01095403215009" lon="12.950204499537481"><ele>1124.6</ele><time>2026-04-18T08:04:46.999Z</time></trkpt><trkpt lat="43.01087859939287" lon="12.950291315470992"><ele>1124.8</ele><time>2026-04-18T08:04:47.999Z</time></trkpt><trkpt lat="43.01082223962159" lon="12.95037296702134"><ele>1125.0</ele><time>2026-04-18T08:04:48.999Z</time></trkpt><trkpt lat="43.010784423814485" lon="12.950518830873527"><ele>1125.0</ele><time>2026-04-18T08:04:50.999Z</time></trkpt><trkpt lat="43.01077077756393" lon="12.950666281110625"><ele>1125.0</ele><time>2026-04-18T08:04:52.999Z</time></trkpt><trkpt lat="43.010732878506836" lon="12.950773647031971"><ele>1125.0</ele><time>2026-04-18T08:04:54.998Z</time></trkpt><trkpt lat="43.01066536360869" lon="12.950811754225215"><ele>1125.0</ele><time>2026-04-18T08:04:56.998Z</time></trkpt><trkpt lat="43.010600689291834" lon="12.950803362586381"><ele>1125.0</ele><time>2026-04-18T08:04:57.998Z</time></trkpt><trkpt lat="43.01050241485353" lon="12.950791765315975"><ele>1125.0</ele><time>2026-04-18T08:04:58.998Z</time></trkpt><trkpt lat="43.01041305749772" lon="12.950849749661462"><ele>1128.2</ele><time>2026-04-18T08:04:59.998Z</time></trkpt><trkpt lat="43.01035493112423" lon="12.95094434478369"><ele>1131.4</ele><time>2026-04-18T08:05:00.998Z</time></trkpt><trkpt lat="43.0103026479353" lon="12.951053338822302"><ele>1134.6</ele><time>2026-04-18T08:05:01.998Z</time></trkpt><trkpt lat="43.01024749908863" lon="12.9511728116882"><ele>1137.8</ele><time>2026-04-18T08:05:02.998Z</time></trkpt><trkpt lat="43.01018954438555" lon="12.951304169568212"><ele>1141.0</ele><time>2026-04-18T08:05:03.998Z</time></trkpt><trkpt lat="43.0101320584249" lon="12.951438886415756"><ele>1141.0</ele><time>2026-04-18T08:05:04.998Z</time></trkpt><trkpt lat="43.010073918572786" lon="12.951561561997654"><ele>1141.0</ele><time>2026-04-18T08:05:05.998Z</time></trkpt><trkpt lat="43.01001292633708" lon="12.951677550692246"><ele>1141.0</ele><time>2026-04-18T08:05:06.998Z</time></trkpt><trkpt lat="43.009951393517184" lon="12.951790339690945"><ele>1141.0</ele><time>2026-04-18T08:05:07.998Z</time></trkpt><trkpt lat="43.00987696160503" lon="12.951886041181533"><ele>1141.0</ele><time>2026-04-18T08:05:08.998Z</time></trkpt><trkpt lat="43.009815101862415" lon="12.951990951613475"><ele>1141.5714285714287</ele><time>2026-04-18T08:05:09.998Z</time></trkpt><trkpt lat="43.00975733534371" lon="12.952079042526734"><ele>1142.142857142857</ele><time>2026-04-18T08:05:11Z</time></trkpt><trkpt lat="43.00970219281402" lon="12.95215680083502"><ele>1142.7142857142858</ele><time>2026-04-18T08:05:12Z</time></trkpt><trkpt lat="43.00964572269359" lon="12.952223459316281"><ele>1143.2857142857142</ele><time>2026-04-18T08:05:13Z</time></trkpt><trkpt lat="43.00960627224718" lon="12.952291246610802"><ele>1143.857142857143</ele><time>2026-04-18T08:05:14Z</time></trkpt><trkpt lat="43.009542212043684" lon="12.952340075802477"><ele>1144.4285714285716</ele><time>2026-04-18T08:05:15Z</time></trkpt><trkpt lat="43.00948454213533" lon="12.95238024335817"><ele>1145.0</ele><time>2026-04-18T08:05:16Z</time></trkpt><trkpt lat="43.00938743284698" lon="12.952453687520155"><ele>1147.8333333333335</ele><time>2026-04-18T08:05:18Z</time></trkpt><trkpt lat="43.0092941461813" lon="12.952551916529487"><ele>1150.6666666666667</ele><time>2026-04-18T08:05:20Z</time></trkpt><trkpt lat="43.00922167532942" lon="12.952599812708181"><ele>1153.5</ele><time>2026-04-18T08:05:21Z</time></trkpt><trkpt lat="43.00915161820403" lon="12.952658735828058"><ele>1156.3333333333333</ele><time>2026-04-18T08:05:22Z</time></trkpt><trkpt lat="43.00908047264428" lon="12.952718574372833"><ele>1159.1666666666665</ele><time>2026-04-18T08:05:23Z</time></trkpt><trkpt lat="43.00901264129375" lon="12.952774365718877"><ele>1162.0</ele><time>2026-04-18T08:05:24Z</time></trkpt><trkpt lat="43.00894010048033" lon="12.952833177323837"><ele>1162.0</ele><time>2026-04-18T08:05:25Z</time></trkpt><trkpt lat="43.0088606977519" lon="12.952894420263775"><ele>1162.0</ele><time>2026-04-18T08:05:26Z</time></trkpt><trkpt lat="43.00877787426664" lon="12.952978242769364"><ele>1162.0</ele><time>2026-04-18T08:05:27Z</time></trkpt><trkpt lat="43.00867595763979" lon="12.953043525169544"><ele>1162.0</ele><time>2026-04-18T08:05:28Z</time></trkpt><trkpt lat="43.00855643371014" lon="12.953092299597365"><ele>1162.0</ele><time>2026-04-18T08:05:29Z</time></trkpt><trkpt lat="43.00843754338291" lon="12.953183590514028"><ele>1163.5</ele><time>2026-04-18T08:05:30Z</time></trkpt><trkpt lat="43.00830031155614" lon="12.953258094546744"><ele>1165.0</ele><time>2026-04-18T08:05:31Z</time></trkpt><trkpt lat="43.00816645040872" lon="12.953328858229138"><ele>1166.5</ele><time>2026-04-18T08:05:32Z</time></trkpt><trkpt lat="43.00803326818842" lon="12.95340240106687"><ele>1168.0</ele><time>2026-04-18T08:05:33Z</time></trkpt><trkpt lat="43.00789629852843" lon="12.953523353711013"><ele>1168.0</ele><time>2026-04-18T08:05:34Z</time></trkpt><trkpt lat="43.007791667111185" lon="12.95363811102077"><ele>1168.0</ele><time>2026-04-18T08:05:35Z</time></trkpt><trkpt lat="43.007694695785354" lon="12.953777841193777"><ele>1168.0</ele><time>2026-04-18T08:05:36Z</time></trkpt><trkpt lat="43.00758711437975" lon="12.95391245853132"><ele>1168.0</ele><time>2026-04-18T08:05:37Z</time></trkpt><trkpt lat="43.00748287783602" lon="12.954021073235547"><ele>1168.25</ele><time>2026-04-18T08:05:38Z</time></trkpt><trkpt lat="43.00738659964783" lon="12.954115628707358"><ele>1168.5</ele><time>2026-04-18T08:05:39Z</time></trkpt><trkpt lat="43.00726501402101" lon="12.954196761903287"><ele>1168.75</ele><time>2026-04-18T08:05:40Z</time></trkpt><trkpt lat="43.007128078351876" lon="12.954194235541156"><ele>1169.0</ele><time>2026-04-18T08:05:41Z</time></trkpt><trkpt lat="43.00697307719669" lon="12.954148629672012"><ele>1169.0</ele><time>2026-04-18T08:05:42Z</time></trkpt><trkpt lat="43.006815362017484" lon="12.954105307673068"><ele>1169.0</ele><time>2026-04-18T08:05:42.999Z</time></trkpt><trkpt lat="43.00668349898389" lon="12.954082520887894"><ele>1169.0</ele><time>2026-04-18T08:05:43.999Z</time></trkpt><trkpt lat="43.006562679455556" lon="12.954060426754214"><ele>1169.0</ele><time>2026-04-18T08:05:44.999Z</time></trkpt><trkpt lat="43.006445323172876" lon="12.954064032822474"><ele>1170.5</ele><time>2026-04-18T08:05:45.999Z</time></trkpt><trkpt lat="43.00632980510881" lon="12.954090663172584"><ele>1172.0</ele><time>2026-04-18T08:05:46.999Z</time></trkpt><trkpt lat="43.006211575450166" lon="12.954149246020403"><ele>1173.5</ele><time>2026-04-18T08:05:47.999Z</time></trkpt><trkpt lat="43.006081804365955" lon="12.954226160730485"><ele>1175.0</ele><time>2026-04-18T08:05:48.999Z</time></trkpt><trkpt lat="43.00594365439097" lon="12.954296684626707"><ele>1175.3333333333335</ele><time>2026-04-18T08:05:49.999Z</time></trkpt><trkpt lat="43.0058023650784" lon="12.954370181810818"><ele>1175.6666666666667</ele><time>2026-04-18T08:05:50.999Z</time></trkpt><trkpt lat="43.00564041282473" lon="12.954447554512383"><ele>1176.0</ele><time>2026-04-18T08:05:51.999Z</time></trkpt><trkpt lat="43.0054896278333" lon="12.954530961605288"><ele>1176.0</ele><time>2026-04-18T08:05:52.999Z</time></trkpt><trkpt lat="43.00534218069725" lon="12.954602028713637"><ele>1176.0</ele><time>2026-04-18T08:05:53.999Z</time></trkpt><trkpt lat="43.00520337891969" lon="12.954675982388247"><ele>1176.0</ele><time>2026-04-18T08:05:54.999Z</time></trkpt><trkpt lat="43.00507424527809" lon="12.954754631064612"><ele>1176.0</ele><time>2026-04-18T08:05:55.999Z</time></trkpt><trkpt lat="43.00496411188542" lon="12.95482230402588"><ele>1175.6</ele><time>2026-04-18T08:05:56.999Z</time></trkpt><trkpt lat="43.00486487341673" lon="12.95484941773234"><ele>1175.1999999999998</ele><time>2026-04-18T08:05:57.999Z</time></trkpt><trkpt lat="43.004755031144285" lon="12.954902570175316"><ele>1174.8000000000002</ele><time>2026-04-18T08:05:58.999Z</time></trkpt><trkpt lat="43.00464628118359" lon="12.95495368688183"><ele>1174.4</ele><time>2026-04-18T08:05:59.999Z</time></trkpt><trkpt lat="43.00453659470533" lon="12.95500320467748"><ele>1174.0</ele><time>2026-04-18T08:06:00.999Z</time></trkpt><trkpt lat="43.00442286871266" lon="12.95505390549236"><ele>1174.0</ele><time>2026-04-18T08:06:01.999Z</time></trkpt><trkpt lat="43.00433424826361" lon="12.955090925132787"><ele>1174.0</ele><time>2026-04-18T08:06:02.999Z</time></trkpt><trkpt lat="43.00424307032279" lon="12.95512839817031"><ele>1174.0</ele><time>2026-04-18T08:06:03.999Z</time></trkpt><trkpt lat="43.00415850150925" lon="12.955165243350017"><ele>1174.0</ele><time>2026-04-18T08:06:04.999Z</time></trkpt><trkpt lat="43.004093818487135" lon="12.955210904710244"><ele>1174.0</ele><time>2026-04-18T08:06:05.999Z</time></trkpt><trkpt lat="43.00401812125969" lon="12.955222868837655"><ele>1174.0</ele><time>2026-04-18T08:06:07.999Z</time></trkpt><trkpt lat="43.00398832748279" lon="12.955066533734483"><ele>1178.4</ele><time>2026-04-18T08:06:08.999Z</time></trkpt><trkpt lat="43.00393259090726" lon="12.954986341696682"><ele>1182.8000000000002</ele><time>2026-04-18T08:06:09.999Z</time></trkpt><trkpt lat="43.0038457408977" lon="12.954941971601508"><ele>1187.1999999999998</ele><time>2026-04-18T08:06:10.999Z</time></trkpt><trkpt lat="43.003728044036215" lon="12.95489049563719"><ele>1191.6</ele><time>2026-04-18T08:06:11.999Z</time></trkpt><trkpt lat="43.003593014268816" lon="12.954880902501554"><ele>1196.0</ele><time>2026-04-18T08:06:12.999Z</time></trkpt><trkpt lat="43.00347990792903" lon="12.954832130792543"><ele>1196.0</ele><time>2026-04-18T08:06:13.999Z</time></trkpt><trkpt lat="43.00334458950032" lon="12.954799520122554"><ele>1196.0</ele><time>2026-04-18T08:06:14.999Z</time></trkpt><trkpt lat="43.00321018051329" lon="12.954739502695602"><ele>1196.0</ele><time>2026-04-18T08:06:15.999Z</time></trkpt><trkpt lat="43.00307047690295" lon="12.954667809157154"><ele>1196.0</ele><time>2026-04-18T08:06:16.999Z</time></trkpt><trkpt lat="43.00294447391414" lon="12.954676613274355"><ele>1199.2</ele><time>2026-04-18T08:06:17.999Z</time></trkpt><trkpt lat="43.002834158141454" lon="12.95467938409095"><ele>1202.3999999999999</ele><time>2026-04-18T08:06:18.999Z</time></trkpt><trkpt lat="43.00273523554624" lon="12.95469514652376"><ele>1205.6</ele><time>2026-04-18T08:06:19.999Z</time></trkpt><trkpt lat="43.002692965449405" lon="12.95459160367815"><ele>1208.8</ele><time>2026-04-18T08:06:20.999Z</time></trkpt><trkpt lat="43.00260300691896" lon="12.95442680581906"><ele>1212.0</ele><time>2026-04-18T08:06:22.999Z</time></trkpt><trkpt lat="43.002526347206846" lon="12.954311372556516"><ele>1216.2</ele><time>2026-04-18T08:06:23.999Z</time></trkpt><trkpt lat="43.00244888571005" lon="12.954204372459033"><ele>1220.4</ele><time>2026-04-18T08:06:24.999Z</time></trkpt><trkpt lat="43.00237200926762" lon="12.954086849516928"><ele>1224.6</ele><time>2026-04-18T08:06:25.999Z</time></trkpt><trkpt lat="43.002278637581014" lon="12.953991892682001"><ele>1228.8</ele><time>2026-04-18T08:06:26.999Z</time></trkpt><trkpt lat="43.00219976798359" lon="12.953896035980604"><ele>1233.0</ele><time>2026-04-18T08:06:27.999Z</time></trkpt><trkpt lat="43.002107393330014" lon="12.953837891276507"><ele>1233.0</ele><time>2026-04-18T08:06:28.999Z</time></trkpt><trkpt lat="43.00198904958208" lon="12.953813733385141"><ele>1233.0</ele><time>2026-04-18T08:06:29.999Z</time></trkpt><trkpt lat="43.00187702562245" lon="12.953740434842807"><ele>1233.0</ele><time>2026-04-18T08:06:30.999Z</time></trkpt><trkpt lat="43.001765955635975" lon="12.953670910455916"><ele>1233.0</ele><time>2026-04-18T08:06:31.999Z</time></trkpt><trkpt lat="43.001647940764485" lon="12.953619505330376"><ele>1234.2</ele><time>2026-04-18T08:06:32.999Z</time></trkpt><trkpt lat="43.001547188848285" lon="12.953592444497225"><ele>1235.4</ele><time>2026-04-18T08:06:33.999Z</time></trkpt><trkpt lat="43.00144631913553" lon="12.953523473613766"><ele>1236.6000000000001</ele><time>2026-04-18T08:06:34.999Z</time></trkpt><trkpt lat="43.00136161059464" lon="12.95346220925904"><ele>1237.8</ele><time>2026-04-18T08:06:35.999Z</time></trkpt><trkpt lat="43.001270208415356" lon="12.953421613105862"><ele>1239.0</ele><time>2026-04-18T08:06:36.999Z</time></trkpt><trkpt lat="43.001204742066996" lon="12.953351643448313"><ele>1239.0</ele><time>2026-04-18T08:06:37.999Z</time></trkpt><trkpt lat="43.001092901526086" lon="12.953362133305006"><ele>1239.0</ele><time>2026-04-18T08:06:38.999Z</time></trkpt><trkpt lat="43.00098847267294" lon="12.953377358651467"><ele>1239.0</ele><time>2026-04-18T08:06:39.999Z</time></trkpt><trkpt lat="43.00087524077223" lon="12.95342205964785"><ele>1239.0</ele><time>2026-04-18T08:06:40.999Z</time></trkpt><trkpt lat="43.00078665184883" lon="12.95354058012497"><ele>1245.0</ele><time>2026-04-18T08:06:41.999Z</time></trkpt><trkpt lat="43.00065493014282" lon="12.953649409575851"><ele>1251.0</ele><time>2026-04-18T08:06:42.999Z</time></trkpt><trkpt lat="43.000521630610564" lon="12.953710754976159"><ele>1257.0</ele><time>2026-04-18T08:06:43.999Z</time></trkpt><trkpt lat="43.00038236089485" lon="12.953744460819062"><ele>1263.0</ele><time>2026-04-18T08:06:44.999Z</time></trkpt><trkpt lat="43.000259901199875" lon="12.953809680099248"><ele>1263.0</ele><time>2026-04-18T08:06:45.999Z</time></trkpt><trkpt lat="43.00012848604343" lon="12.953873055814839"><ele>1263.0</ele><time>2026-04-18T08:06:46.999Z</time></trkpt><trkpt lat="42.999985930772056" lon="12.953949801236188"><ele>1263.0</ele><time>2026-04-18T08:06:47.999Z</time></trkpt><trkpt lat="42.999873223127466" lon="12.954039047369521"><ele>1263.0</ele><time>2026-04-18T08:06:48.999Z</time></trkpt><trkpt lat="42.999748414920596" lon="12.954131567061971"><ele>1262.75</ele><time>2026-04-18T08:06:49.999Z</time></trkpt><trkpt lat="42.99962284623337" lon="12.954231923328532"><ele>1262.5</ele><time>2026-04-18T08:06:50.999Z</time></trkpt><trkpt lat="42.999493783802414" lon="12.95433504777318"><ele>1262.25</ele><time>2026-04-18T08:06:51.999Z</time></trkpt><trkpt lat="42.99936759394095" lon="12.954435840819368"><ele>1262.0</ele><time>2026-04-18T08:06:52.999Z</time></trkpt><trkpt lat="42.999235478941884" lon="12.954492038050162"><ele>1265.25</ele><time>2026-04-18T08:06:53.999Z</time></trkpt><trkpt lat="42.99910498647086" lon="12.954554866925967"><ele>1268.5</ele><time>2026-04-18T08:06:54.999Z</time></trkpt><trkpt lat="42.99898262908678" lon="12.95460505215575"><ele>1271.75</ele><time>2026-04-18T08:06:55.999Z</time></trkpt><trkpt lat="42.998858928879315" lon="12.954638735326782"><ele>1275.0</ele><time>2026-04-18T08:06:56.999Z</time></trkpt><trkpt lat="42.99873493599861" lon="12.954642167205451"><ele>1275.0</ele><time>2026-04-18T08:06:57.999Z</time></trkpt><trkpt lat="42.998617188877326" lon="12.954648434608771"><ele>1275.0</ele><time>2026-04-18T08:06:58.999Z</time></trkpt><trkpt lat="42.99850028421052" lon="12.954664857677852"><ele>1275.0</ele><time>2026-04-18T08:06:59.999Z</time></trkpt><trkpt lat="42.998393817833666" lon="12.95469525676682"><ele>1275.0</ele><time>2026-04-18T08:07:00.999Z</time></trkpt><trkpt lat="42.998284007061926" lon="12.954713844355897"><ele>1275.75</ele><time>2026-04-18T08:07:01.999Z</time></trkpt><trkpt lat="42.99816879409772" lon="12.954733313208385"><ele>1276.5</ele><time>2026-04-18T08:07:02.999Z</time></trkpt><trkpt lat="42.99803667008634" lon="12.954753236523434"><ele>1277.25</ele><time>2026-04-18T08:07:03.999Z</time></trkpt><trkpt lat="42.99788317439257" lon="12.954762405280151"><ele>1278.0</ele><time>2026-04-18T08:07:04.999Z</time></trkpt><trkpt lat="42.997733916752324" lon="12.954797250501915"><ele>1278.0</ele><time>2026-04-18T08:07:05.999Z</time></trkpt><trkpt lat="42.997579754112365" lon="12.954841184790824"><ele>1278.0</ele><time>2026-04-18T08:07:06.999Z</time></trkpt><trkpt lat="42.99742619793688" lon="12.954867867999589"><ele>1278.0</ele><time>2026-04-18T08:07:07.999Z</time></trkpt><trkpt lat="42.99728187267401" lon="12.95492049410862"><ele>1278.6</ele><time>2026-04-18T08:07:08.999Z</time></trkpt><trkpt lat="42.997163744281835" lon="12.955000003132861"><ele>1279.1999999999998</ele><time>2026-04-18T08:07:09.999Z</time></trkpt><trkpt lat="42.997073017741315" lon="12.955071015224645"><ele>1279.8</ele><time>2026-04-18T08:07:10.999Z</time></trkpt><trkpt lat="42.996989610597126" lon="12.955107469746709"><ele>1280.3999999999999</ele><time>2026-04-18T08:07:11.999Z</time></trkpt><trkpt lat="42.996919540080384" lon="12.955127003236548"><ele>1281.0</ele><time>2026-04-18T08:07:12.999Z</time></trkpt><trkpt lat="42.996796437259775" lon="12.955114877385506"><ele>1281.75</ele><time>2026-04-18T08:07:14.999Z</time></trkpt><trkpt lat="42.99668147601625" lon="12.955112817851377"><ele>1282.5</ele><time>2026-04-18T08:07:15.998Z</time></trkpt><trkpt lat="42.996577322997936" lon="12.955125921080292"><ele>1283.25</ele><time>2026-04-18T08:07:17Z</time></trkpt><trkpt lat="42.996453931570585" lon="12.955110284338236"><ele>1284.0</ele><time>2026-04-18T08:07:18Z</time></trkpt><trkpt lat="42.996338938902404" lon="12.95506782038176"><ele>1286.2</ele><time>2026-04-18T08:07:19Z</time></trkpt><trkpt lat="42.996232551975055" lon="12.955017771403305"><ele>1288.4</ele><time>2026-04-18T08:07:20Z</time></trkpt><trkpt lat="42.996142526177" lon="12.954970889685649"><ele>1290.6</ele><time>2026-04-18T08:07:21Z</time></trkpt><trkpt lat="42.996065297052475" lon="12.954920056362791"><ele>1292.8</ele><time>2026-04-18T08:07:22Z</time></trkpt><trkpt lat="42.995978743654135" lon="12.954848474593094"><ele>1295.0</ele><time>2026-04-18T08:07:23Z</time></trkpt><trkpt lat="42.99590958917946" lon="12.954780941421946"><ele>1295.0</ele><time>2026-04-18T08:07:24Z</time></trkpt><trkpt lat="42.99584990572793" lon="12.954714392789592"><ele>1295.0</ele><time>2026-04-18T08:07:25Z</time></trkpt><trkpt lat="42.99579220284429" lon="12.954645099954476"><ele>1295.0</ele><time>2026-04-18T08:07:26Z</time></trkpt><trkpt lat="42.99575912526129" lon="12.954559149844751"><ele>1295.0</ele><time>2026-04-18T08:07:27Z</time></trkpt><trkpt lat="42.99569520950711" lon="12.954497025342162"><ele>1295.0</ele><time>2026-04-18T08:07:29Z</time></trkpt><trkpt lat="42.99563036055458" lon="12.954506502226225"><ele>1295.0</ele><time>2026-04-18T08:07:34Z</time></trkpt><trkpt lat="42.99557494944654" lon="12.954430468593273"><ele>1295.0</ele><time>2026-04-18T08:07:41Z</time></trkpt><trkpt lat="42.99551531524018" lon="12.954274491682714"><ele>1297.8</ele><time>2026-04-18T08:07:46Z</time></trkpt><trkpt lat="42.9954721055309" lon="12.954182784561034"><ele>1300.6</ele><time>2026-04-18T08:07:47Z</time></trkpt><trkpt lat="42.99539121202763" lon="12.95408051591722"><ele>1303.4</ele><time>2026-04-18T08:07:49Z</time></trkpt><trkpt lat="42.99528040522548" lon="12.953973959695348"><ele>1306.2</ele><time>2026-04-18T08:07:51Z</time></trkpt><trkpt lat="42.99524621806305" lon="12.95386877782778"><ele>1309.0</ele><time>2026-04-18T08:07:52Z</time></trkpt><trkpt lat="42.99522231198654" lon="12.953754033381303"><ele>1309.0</ele><time>2026-04-18T08:07:53Z</time></trkpt><trkpt lat="42.99519529265622" lon="12.953617312010575"><ele>1309.0</ele><time>2026-04-18T08:07:54Z</time></trkpt><trkpt lat="42.995190563471475" lon="12.953482618397086"><ele>1309.0</ele><time>2026-04-18T08:07:55Z</time></trkpt><trkpt lat="42.9952134160411" lon="12.953341731046985"><ele>1309.0</ele><time>2026-04-18T08:07:56Z</time></trkpt><trkpt lat="42.99524863517032" lon="12.953178594484855"><ele>1309.0</ele><time>2026-04-18T08:07:56.999Z</time></trkpt><trkpt lat="42.995282051455256" lon="12.953005554635457"><ele>1309.5</ele><time>2026-04-18T08:07:57.999Z</time></trkpt><trkpt lat="42.99529492392033" lon="12.952832679620903"><ele>1310.0</ele><time>2026-04-18T08:07:58.999Z</time></trkpt><trkpt lat="42.995335968800994" lon="12.952674407098472"><ele>1310.5</ele><time>2026-04-18T08:07:59.999Z</time></trkpt><trkpt lat="42.99537324158646" lon="12.952532169888022"><ele>1311.0</ele><time>2026-04-18T08:08:00.999Z</time></trkpt><trkpt lat="42.99540946093474" lon="12.952402571053826"><ele>1313.6</ele><time>2026-04-18T08:08:01.999Z</time></trkpt><trkpt lat="42.995447956207684" lon="12.952259492293326"><ele>1316.1999999999998</ele><time>2026-04-18T08:08:02.999Z</time></trkpt><trkpt lat="42.99547628532861" lon="12.952111280580617"><ele>1318.8000000000002</ele><time>2026-04-18T08:08:03.999Z</time></trkpt><trkpt lat="42.99552345490202" lon="12.951968195346423"><ele>1321.4</ele><time>2026-04-18T08:08:04.999Z</time></trkpt><trkpt lat="42.99553574460296" lon="12.95181742645713"><ele>1324.0</ele><time>2026-04-18T08:08:05.999Z</time></trkpt><trkpt lat="42.99557367296782" lon="12.951692089821298"><ele>1326.2</ele><time>2026-04-18T08:08:06.999Z</time></trkpt><trkpt lat="42.995601554305786" lon="12.951570027794913"><ele>1328.4</ele><time>2026-04-18T08:08:07.999Z</time></trkpt><trkpt lat="42.9956238956167" lon="12.951478490113104"><ele>1330.6</ele><time>2026-04-18T08:08:08.999Z</time></trkpt><trkpt lat="42.995689451251" lon="12.951325206240536"><ele>1332.8</ele><time>2026-04-18T08:08:09.999Z</time></trkpt><trkpt lat="42.99568726739557" lon="12.951231518508271"><ele>1335.0</ele><time>2026-04-18T08:08:10.999Z</time></trkpt><trkpt lat="42.99566014645527" lon="12.951068784251845"><ele>1335.0</ele><time>2026-04-18T08:08:11.999Z</time></trkpt><trkpt lat="42.99560850281449" lon="12.950947328535708"><ele>1335.0</ele><time>2026-04-18T08:08:12.999Z</time></trkpt><trkpt lat="42.995507297981376" lon="12.950890450114311"><ele>1335.0</ele><time>2026-04-18T08:08:13.999Z</time></trkpt><trkpt lat="42.995375809808145" lon="12.95086791554624"><ele>1335.0</ele><time>2026-04-18T08:08:15.999Z</time></trkpt><trkpt lat="42.99525584581257" lon="12.950837398856494"><ele>1335.6666666666667</ele><time>2026-04-18T08:08:17.999Z</time></trkpt><trkpt lat="42.99517411391136" lon="12.950845318272856"><ele>1336.3333333333333</ele><time>2026-04-18T08:08:18.999Z</time></trkpt><trkpt lat="42.99510994039185" lon="12.950834104266805"><ele>1337.0</ele><time>2026-04-18T08:08:19.999Z</time></trkpt><trkpt lat="42.995044040887684" lon="12.950785087349095"><ele>1337.6666666666665</ele><time>2026-04-18T08:08:20.999Z</time></trkpt><trkpt lat="42.994983575601026" lon="12.950738268154046"><ele>1338.3333333333333</ele><time>2026-04-18T08:08:21.999Z</time></trkpt><trkpt lat="42.99491488584958" lon="12.950675636237788"><ele>1339.0</ele><time>2026-04-18T08:08:22.999Z</time></trkpt><trkpt lat="42.99483202933084" lon="12.950624240700739"><ele>1342.2</ele><time>2026-04-18T08:08:23.999Z</time></trkpt><trkpt lat="42.994761649245774" lon="12.950523040183986"><ele>1345.4</ele><time>2026-04-18T08:08:24.999Z</time></trkpt><trkpt lat="42.99469254578898" lon="12.950436860785363"><ele>1348.6</ele><time>2026-04-18T08:08:25.999Z</time></trkpt><trkpt lat="42.99462367153653" lon="12.950348591573393"><ele>1351.8</ele><time>2026-04-18T08:08:26.999Z</time></trkpt><trkpt lat="42.99455014477664" lon="12.950269706202105"><ele>1355.0</ele><time>2026-04-18T08:08:27.999Z</time></trkpt><trkpt lat="42.99449368750324" lon="12.95019077188392"><ele>1355.0</ele><time>2026-04-18T08:08:28.999Z</time></trkpt><trkpt lat="42.99440871802275" lon="12.950041977799282"><ele>1355.0</ele><time>2026-04-18T08:08:30.999Z</time></trkpt><trkpt lat="42.99437170466251" lon="12.949936718090058"><ele>1355.0</ele><time>2026-04-18T08:08:31.999Z</time></trkpt><trkpt lat="42.99431347359325" lon="12.949863951219841"><ele>1355.0</ele><time>2026-04-18T08:08:32.999Z</time></trkpt><trkpt lat="42.99423430072404" lon="12.949794340572923"><ele>1355.0</ele><time>2026-04-18T08:08:33.999Z</time></trkpt><trkpt lat="42.99417508442087" lon="12.949721714216437"><ele>1359.1666666666667</ele><time>2026-04-18T08:08:34.999Z</time></trkpt><trkpt lat="42.994106765596825" lon="12.949626182991045"><ele>1363.3333333333335</ele><time>2026-04-18T08:08:35.999Z</time></trkpt><trkpt lat="42.99404026185308" lon="12.949558538094553"><ele>1367.5</ele><time>2026-04-18T08:08:36.999Z</time></trkpt><trkpt lat="42.993963118841975" lon="12.949545030281326"><ele>1371.6666666666667</ele><time>2026-04-18T08:08:37.999Z</time></trkpt><trkpt lat="42.99388176758831" lon="12.949506328863274"><ele>1375.8333333333333</ele><time>2026-04-18T08:08:38.999Z</time></trkpt><trkpt lat="42.99380113101276" lon="12.9494692777312"><ele>1380.0</ele><time>2026-04-18T08:08:39.999Z</time></trkpt><trkpt lat="42.99371118075164" lon="12.94942986571771"><ele>1380.0</ele><time>2026-04-18T08:08:40.999Z</time></trkpt><trkpt lat="42.993628267964915" lon="12.94938974092369"><ele>1380.0</ele><time>2026-04-18T08:08:41.999Z</time></trkpt><trkpt lat="42.99353471162881" lon="12.949358609242974"><ele>1380.0</ele><time>2026-04-18T08:08:42.999Z</time></trkpt><trkpt lat="42.99344208419724" lon="12.94933383413739"><ele>1380.0</ele><time>2026-04-18T08:08:43.999Z</time></trkpt><trkpt lat="42.99334270941519" lon="12.949318537465517"><ele>1380.0</ele><time>2026-04-18T08:08:44.999Z</time></trkpt><trkpt lat="42.99324337143649" lon="12.949324502659906"><ele>1382.0</ele><time>2026-04-18T08:08:45.999Z</time></trkpt><trkpt lat="42.99314248341101" lon="12.949364259204113"><ele>1384.0</ele><time>2026-04-18T08:08:46.999Z</time></trkpt><trkpt lat="42.99304056019417" lon="12.949366859665753"><ele>1386.0</ele><time>2026-04-18T08:08:47.999Z</time></trkpt><trkpt lat="42.99293797815761" lon="12.949398015447503"><ele>1388.0</ele><time>2026-04-18T08:08:48.999Z</time></trkpt><trkpt lat="42.99282671053946" lon="12.949421394927471"><ele>1390.0</ele><time>2026-04-18T08:08:49.999Z</time></trkpt><trkpt lat="42.99270987764063" lon="12.949447504703015"><ele>1390.0</ele><time>2026-04-18T08:08:50.999Z</time></trkpt><trkpt lat="42.99259533464034" lon="12.94945270628451"><ele>1390.0</ele><time>2026-04-18T08:08:51.999Z</time></trkpt><trkpt lat="42.992480277648596" lon="12.949497728859477"><ele>1390.0</ele><time>2026-04-18T08:08:52.999Z</time></trkpt><trkpt lat="42.99237268672206" lon="12.949518286859133"><ele>1390.0</ele><time>2026-04-18T08:08:53.999Z</time></trkpt><trkpt lat="42.99227155421516" lon="12.949543254271918"><ele>1390.0</ele><time>2026-04-18T08:08:54.999Z</time></trkpt><trkpt lat="42.9921813698746" lon="12.94956849318414"><ele>1391.1666666666665</ele><time>2026-04-18T08:08:55.999Z</time></trkpt><trkpt lat="42.99210067208685" lon="12.949584241058512"><ele>1392.3333333333333</ele><time>2026-04-18T08:08:56.999Z</time></trkpt><trkpt lat="42.99202722633042" lon="12.949614842416539"><ele>1393.5</ele><time>2026-04-18T08:08:57.999Z</time></trkpt><trkpt lat="42.991953687320645" lon="12.949636933131105"><ele>1394.6666666666667</ele><time>2026-04-18T08:08:58.999Z</time></trkpt><trkpt lat="42.99189002718578" lon="12.949657847658512"><ele>1395.8333333333335</ele><time>2026-04-18T08:08:59.999Z</time></trkpt><trkpt lat="42.991774674115625" lon="12.949693995058455"><ele>1397.0</ele><time>2026-04-18T08:09:01.999Z</time></trkpt><trkpt lat="42.99166883261224" lon="12.949723736131816"><ele>1397.6</ele><time>2026-04-18T08:09:03.999Z</time></trkpt><trkpt lat="42.99154879463944" lon="12.949749913410338"><ele>1398.1999999999998</ele><time>2026-04-18T08:09:05.999Z</time></trkpt><trkpt lat="42.99144902211654" lon="12.949745049391845"><ele>1398.8</ele><time>2026-04-18T08:09:07.999Z</time></trkpt><trkpt lat="42.99135901282924" lon="12.949724488525563"><ele>1399.4</ele><time>2026-04-18T08:09:10.999Z</time></trkpt><trkpt lat="42.99126171918725" lon="12.949683831194791"><ele>1400.0</ele><time>2026-04-18T08:10:40.999Z</time></trkpt><trkpt lat="42.991185458279325" lon="12.949640692672666"><ele>1400.0</ele><time>2026-04-18T08:10:41.999Z</time></trkpt><trkpt lat="42.99108340171902" lon="12.949612977179882"><ele>1400.0</ele><time>2026-04-18T08:10:42.999Z</time></trkpt><trkpt lat="42.99097308909866" lon="12.949587616073444"><ele>1400.0</ele><time>2026-04-18T08:10:43.999Z</time></trkpt><trkpt lat="42.99087171116575" lon="12.949542084919317"><ele>1400.0</ele><time>2026-04-18T08:10:44.999Z</time></trkpt><trkpt lat="42.990778186155104" lon="12.949483455768025"><ele>1400.0</ele><time>2026-04-18T08:10:45.999Z</time></trkpt><trkpt lat="42.99067848735304" lon="12.949409552202939"><ele>1398.75</ele><time>2026-04-18T08:10:46.999Z</time></trkpt><trkpt lat="42.99057236859358" lon="12.949332145580255"><ele>1397.5</ele><time>2026-04-18T08:10:47.999Z</time></trkpt><trkpt lat="42.99047198187627" lon="12.949245970647844"><ele>1396.25</ele><time>2026-04-18T08:10:48.999Z</time></trkpt><trkpt lat="42.990380539108386" lon="12.949183814457745"><ele>1395.0</ele><time>2026-04-18T08:10:49.999Z</time></trkpt><trkpt lat="42.99025077889886" lon="12.949143429491121"><ele>1393.75</ele><time>2026-04-18T08:10:50.999Z</time></trkpt><trkpt lat="42.990115199871525" lon="12.949132228010187"><ele>1392.5</ele><time>2026-04-18T08:10:51.999Z</time></trkpt><trkpt lat="42.989985967993285" lon="12.949154923298133"><ele>1391.25</ele><time>2026-04-18T08:10:52.999Z</time></trkpt><trkpt lat="42.98985485073147" lon="12.94914800208478"><ele>1390.0</ele><time>2026-04-18T08:10:53.999Z</time></trkpt><trkpt lat="42.98971116244562" lon="12.949167676113749"><ele>1386.75</ele><time>2026-04-18T08:10:54.999Z</time></trkpt><trkpt lat="42.989565032371246" lon="12.949189109285287"><ele>1383.5</ele><time>2026-04-18T08:10:55.999Z</time></trkpt><trkpt lat="42.989429977655895" lon="12.949185302613257"><ele>1380.25</ele><time>2026-04-18T08:10:56.999Z</time></trkpt><trkpt lat="42.989290431702905" lon="12.94917317989596"><ele>1377.0</ele><time>2026-04-18T08:10:57.999Z</time></trkpt><trkpt lat="42.98916161244277" lon="12.94917910541462"><ele>1373.25</ele><time>2026-04-18T08:10:58.999Z</time></trkpt><trkpt lat="42.98903527571586" lon="12.94921071361657"><ele>1369.5</ele><time>2026-04-18T08:10:59.999Z</time></trkpt><trkpt lat="42.988913388241926" lon="12.949240363463915"><ele>1365.75</ele><time>2026-04-18T08:11:00.999Z</time></trkpt><trkpt lat="42.98878310703429" lon="12.949273641939401"><ele>1362.0</ele><time>2026-04-18T08:11:01.999Z</time></trkpt><trkpt lat="42.98866317694156" lon="12.949315345949636"><ele>1362.0</ele><time>2026-04-18T08:11:02.999Z</time></trkpt><trkpt lat="42.98854763241684" lon="12.949368054026692"><ele>1362.0</ele><time>2026-04-18T08:11:03.999Z</time></trkpt><trkpt lat="42.98845336122902" lon="12.949431624501399"><ele>1362.0</ele><time>2026-04-18T08:11:04.999Z</time></trkpt><trkpt lat="42.988360420018516" lon="12.949507791829683"><ele>1362.0</ele><time>2026-04-18T08:11:05.999Z</time></trkpt><trkpt lat="42.988286481732615" lon="12.94958864630153"><ele>1362.0</ele><time>2026-04-18T08:11:06.999Z</time></trkpt><trkpt lat="42.988240321048586" lon="12.94966082152409"><ele>1359.5</ele><time>2026-04-18T08:11:07.999Z</time></trkpt><trkpt lat="42.988160609361366" lon="12.949732121833978"><ele>1357.0</ele><time>2026-04-18T08:11:08.999Z</time></trkpt><trkpt lat="42.98771017536073" lon="12.949362456136102"><ele>1357.0</ele><time>2026-04-18T08:11:10.999Z</time></trkpt><trkpt lat="42.987642248535145" lon="12.949362642050646"><ele>1357.0</ele><time>2026-04-18T08:11:11.999Z</time></trkpt><trkpt lat="42.987550451599596" lon="12.949361963179078"><ele>1357.0</ele><time>2026-04-18T08:11:13.999Z</time></trkpt><trkpt lat="42.987482735180755" lon="12.949291438525004"><ele>1357.0</ele><time>2026-04-18T08:12:21.999Z</time></trkpt><trkpt lat="42.98745383636548" lon="12.94917154301196"><ele>1357.0</ele><time>2026-04-18T08:12:23.999Z</time></trkpt><trkpt lat="42.987458943936865" lon="12.949032916668607"><ele>1357.0</ele><time>2026-04-18T08:12:25.999Z</time></trkpt><trkpt lat="42.987503407787464" lon="12.94892371184445"><ele>1358.8</ele><time>2026-04-18T08:12:27.999Z</time></trkpt><trkpt lat="42.98757396132275" lon="12.948801687899671"><ele>1360.6</ele><time>2026-04-18T08:12:29.999Z</time></trkpt><trkpt lat="42.987641821519375" lon="12.948681681653431"><ele>1362.3999999999999</ele><time>2026-04-18T08:12:31.999Z</time></trkpt><trkpt lat="42.987633683089264" lon="12.948568439423996"><ele>1364.1999999999998</ele><time>2026-04-18T08:12:34.999Z</time></trkpt><trkpt lat="42.98759553299684" lon="12.948438741304031"><ele>1366.0</ele><time>2026-04-18T08:12:37.999Z</time></trkpt><trkpt lat="42.98754946644713" lon="12.948363622656911"><ele>1366.6</ele><time>2026-04-18T08:12:39.999Z</time></trkpt><trkpt lat="42.987540586484776" lon="12.948236723477894"><ele>1367.1999999999998</ele><time>2026-04-18T08:12:42.999Z</time></trkpt><trkpt lat="42.987550981364336" lon="12.948084843401446"><ele>1367.8000000000002</ele><time>2026-04-18T08:12:44.999Z</time></trkpt><trkpt lat="42.98758186589348" lon="12.947914671951942"><ele>1368.4</ele><time>2026-04-18T08:12:46.999Z</time></trkpt><trkpt lat="42.98760101184411" lon="12.947819450016008"><ele>1369.0</ele><time>2026-04-18T08:12:47.999Z</time></trkpt><trkpt lat="42.9876115408525" lon="12.947714146113025"><ele>1369.0</ele><time>2026-04-18T08:12:48.999Z</time></trkpt><trkpt lat="42.987630149392324" lon="12.947610652617483"><ele>1369.0</ele><time>2026-04-18T08:12:49.999Z</time></trkpt><trkpt lat="42.98766108342301" lon="12.947453938343122"><ele>1369.0</ele><time>2026-04-18T08:12:51.999Z</time></trkpt><trkpt lat="42.98767509880002" lon="12.947358029755494"><ele>1369.0</ele><time>2026-04-18T08:12:52.999Z</time></trkpt><trkpt lat="42.98768715092709" lon="12.947266778689682"><ele>1369.0</ele><time>2026-04-18T08:12:53.999Z</time></trkpt><trkpt lat="42.98770243602563" lon="12.947181034525833"><ele>1369.0</ele><time>2026-04-18T08:12:54.999Z</time></trkpt><trkpt lat="42.987726249990594" lon="12.947099965768906"><ele>1368.0</ele><time>2026-04-18T08:12:55.999Z</time></trkpt><trkpt lat="42.98774687019838" lon="12.946947244079979"><ele>1367.0</ele><time>2026-04-18T08:12:57.999Z</time></trkpt><trkpt lat="42.987755416462086" lon="12.946818551930848"><ele>1366.0</ele><time>2026-04-18T08:12:58.999Z</time></trkpt><trkpt lat="42.98774322058761" lon="12.946678051259557"><ele>1365.0</ele><time>2026-04-18T08:12:59.999Z</time></trkpt><trkpt lat="42.987675367908366" lon="12.946564027094668"><ele>1364.0</ele><time>2026-04-18T08:13:01.999Z</time></trkpt><trkpt lat="42.98758220165781" lon="12.946496209540205"><ele>1360.4</ele><time>2026-04-18T08:13:03.999Z</time></trkpt><trkpt lat="42.98744356011663" lon="12.94650385087796"><ele>1356.8000000000002</ele><time>2026-04-18T08:13:05.999Z</time></trkpt><trkpt lat="42.98734886420765" lon="12.946497244698524"><ele>1353.1999999999998</ele><time>2026-04-18T08:13:06.999Z</time></trkpt><trkpt lat="42.987254091798484" lon="12.94648726188287"><ele>1349.6</ele><time>2026-04-18T08:13:07.999Z</time></trkpt><trkpt lat="42.98716719007282" lon="12.94646872036899"><ele>1346.0</ele><time>2026-04-18T08:13:08.999Z</time></trkpt><trkpt lat="42.98708955890367" lon="12.946442626506915"><ele>1346.0</ele><time>2026-04-18T08:13:09.999Z</time></trkpt><trkpt lat="42.98696931769241" lon="12.946382995955398"><ele>1346.0</ele><time>2026-04-18T08:13:11.999Z</time></trkpt><trkpt lat="42.986893827009055" lon="12.946354982817956"><ele>1346.0</ele><time>2026-04-18T08:13:12.999Z</time></trkpt><trkpt lat="42.98680925781149" lon="12.94634236724684"><ele>1346.0</ele><time>2026-04-18T08:13:13.999Z</time></trkpt><trkpt lat="42.986717075066736" lon="12.946345863463002"><ele>1346.0</ele><time>2026-04-18T08:13:14.999Z</time></trkpt><trkpt lat="42.98662702917374" lon="12.94635182341273"><ele>1346.1999999999998</ele><time>2026-04-18T08:13:15.999Z</time></trkpt><trkpt lat="42.9865372255167" lon="12.946359372676131"><ele>1346.3999999999999</ele><time>2026-04-18T08:13:16.999Z</time></trkpt><trkpt lat="42.9864371465433" lon="12.946375690138233"><ele>1346.6</ele><time>2026-04-18T08:13:17.999Z</time></trkpt><trkpt lat="42.98632391529974" lon="12.946381124668067"><ele>1346.8</ele><time>2026-04-18T08:13:18.999Z</time></trkpt><trkpt lat="42.98621639062713" lon="12.946383180429875"><ele>1347.0</ele><time>2026-04-18T08:13:19.999Z</time></trkpt><trkpt lat="42.98608644517564" lon="12.946388882410636"><ele>1347.0</ele><time>2026-04-18T08:13:20.999Z</time></trkpt><trkpt lat="42.9859500181829" lon="12.946393936062742"><ele>1347.0</ele><time>2026-04-18T08:13:21.999Z</time></trkpt><trkpt lat="42.98580495423199" lon="12.946391846065788"><ele>1347.0</ele><time>2026-04-18T08:13:22.999Z</time></trkpt><trkpt lat="42.98564821463786" lon="12.946392673479432"><ele>1347.0</ele><time>2026-04-18T08:13:23.999Z</time></trkpt><trkpt lat="42.98548859004153" lon="12.946393674014931"><ele>1347.0</ele><time>2026-04-18T08:13:24.999Z</time></trkpt><trkpt lat="42.98532817703576" lon="12.946393431927829"><ele>1347.0</ele><time>2026-04-18T08:13:25.999Z</time></trkpt><trkpt lat="42.98516154973497" lon="12.946393053130553"><ele>1347.0</ele><time>2026-04-18T08:13:26.999Z</time></trkpt><trkpt lat="42.98500382114201" lon="12.946385584141929"><ele>1346.6666666666667</ele><time>2026-04-18T08:13:27.999Z</time></trkpt><trkpt lat="42.98485009719038" lon="12.946383815928519"><ele>1346.3333333333335</ele><time>2026-04-18T08:13:28.999Z</time></trkpt><trkpt lat="42.984691730695154" lon="12.94637152065846"><ele>1346.0</ele><time>2026-04-18T08:13:29.999Z</time></trkpt><trkpt lat="42.98453187527317" lon="12.946352942971997"><ele>1346.0</ele><time>2026-04-18T08:13:30.999Z</time></trkpt><trkpt lat="42.98437748368189" lon="12.946328135069663"><ele>1346.0</ele><time>2026-04-18T08:13:31.999Z</time></trkpt><trkpt lat="42.984223107481796" lon="12.946296017558732"><ele>1346.0</ele><time>2026-04-18T08:13:32.999Z</time></trkpt><trkpt lat="42.984062527685396" lon="12.946261320022323"><ele>1349.75</ele><time>2026-04-18T08:13:34Z</time></trkpt><trkpt lat="42.98390952562915" lon="12.94623026144893"><ele>1353.5</ele><time>2026-04-18T08:13:35Z</time></trkpt><trkpt lat="42.9837760754009" lon="12.946207848583192"><ele>1357.25</ele><time>2026-04-18T08:13:36Z</time></trkpt><trkpt lat="42.98365053607871" lon="12.946198131169034"><ele>1361.0</ele><time>2026-04-18T08:13:37Z</time></trkpt><trkpt lat="42.9835359002887" lon="12.946192859176227"><ele>1361.0</ele><time>2026-04-18T08:13:38Z</time></trkpt><trkpt lat="42.98342444518016" lon="12.946193739823453"><ele>1361.0</ele><time>2026-04-18T08:13:39Z</time></trkpt><trkpt lat="42.98331999000393" lon="12.946195254176304"><ele>1361.0</ele><time>2026-04-18T08:13:40Z</time></trkpt><trkpt lat="42.98321873484801" lon="12.946198856069989"><ele>1361.0</ele><time>2026-04-18T08:13:41Z</time></trkpt><trkpt lat="42.98311054542444" lon="12.946202324783057"><ele>1361.0</ele><time>2026-04-18T08:13:42Z</time></trkpt><trkpt lat="42.982994959566874" lon="12.946205469013409"><ele>1362.25</ele><time>2026-04-18T08:13:43Z</time></trkpt><trkpt lat="42.98288148020721" lon="12.946205520620579"><ele>1363.5</ele><time>2026-04-18T08:13:44Z</time></trkpt><trkpt lat="42.98275538097515" lon="12.946201889499863"><ele>1364.75</ele><time>2026-04-18T08:13:45Z</time></trkpt><trkpt lat="42.98262025502156" lon="12.946211091523208"><ele>1366.0</ele><time>2026-04-18T08:13:46Z</time></trkpt><trkpt lat="42.982474515716845" lon="12.946228482401612"><ele>1366.0</ele><time>2026-04-18T08:13:47Z</time></trkpt><trkpt lat="42.98232015943981" lon="12.946232066613057"><ele>1366.0</ele><time>2026-04-18T08:13:48Z</time></trkpt><trkpt lat="42.98216686706327" lon="12.946233709352954"><ele>1366.0</ele><time>2026-04-18T08:13:49Z</time></trkpt><trkpt lat="42.98200697134079" lon="12.94622089457226"><ele>1366.0</ele><time>2026-04-18T08:13:50Z</time></trkpt><trkpt lat="42.98184640171565" lon="12.946169321329718"><ele>1366.0</ele><time>2026-04-18T08:13:51Z</time></trkpt><trkpt lat="42.98169999005357" lon="12.946091902447794"><ele>1366.0</ele><time>2026-04-18T08:13:52Z</time></trkpt><trkpt lat="42.98156267178884" lon="12.9460048361637"><ele>1365.75</ele><time>2026-04-18T08:13:53Z</time></trkpt><trkpt lat="42.98142183855822" lon="12.945922190828869"><ele>1365.5</ele><time>2026-04-18T08:13:54Z</time></trkpt><trkpt lat="42.98128321989783" lon="12.945856087819623"><ele>1365.25</ele><time>2026-04-18T08:13:55Z</time></trkpt><trkpt lat="42.98115139041335" lon="12.945808279496891"><ele>1365.0</ele><time>2026-04-18T08:13:56Z</time></trkpt><trkpt lat="42.981023829005146" lon="12.945747163695504"><ele>1364.5</ele><time>2026-04-18T08:13:57Z</time></trkpt><trkpt lat="42.98090203343373" lon="12.945692157344133"><ele>1364.0</ele><time>2026-04-18T08:13:58Z</time></trkpt><trkpt lat="42.98077550287047" lon="12.945636212498416"><ele>1363.5</ele><time>2026-04-18T08:13:59Z</time></trkpt><trkpt lat="42.980650349160896" lon="12.945571930074143"><ele>1363.0</ele><time>2026-04-18T08:14:00Z</time></trkpt><trkpt lat="42.9805411055847" lon="12.945513091201223"><ele>1363.0</ele><time>2026-04-18T08:14:01Z</time></trkpt><trkpt lat="42.98042362687429" lon="12.945444935980042"><ele>1363.0</ele><time>2026-04-18T08:14:02Z</time></trkpt><trkpt lat="42.98030811720219" lon="12.945378420226966"><ele>1363.0</ele><time>2026-04-18T08:14:03Z</time></trkpt><trkpt lat="42.98019927247289" lon="12.94533146082502"><ele>1363.0</ele><time>2026-04-18T08:14:04Z</time></trkpt><trkpt lat="42.980076936370416" lon="12.945290996123253"><ele>1361.5</ele><time>2026-04-18T08:14:05Z</time></trkpt><trkpt lat="42.97995490745051" lon="12.94524676768344"><ele>1360.0</ele><time>2026-04-18T08:14:06Z</time></trkpt><trkpt lat="42.97982798738941" lon="12.945207565207237"><ele>1358.5</ele><time>2026-04-18T08:14:07Z</time></trkpt><trkpt lat="42.97969600593017" lon="12.945165016986293"><ele>1357.0</ele><time>2026-04-18T08:14:08Z</time></trkpt><trkpt lat="42.97959258366485" lon="12.945125185676051"><ele>1357.0</ele><time>2026-04-18T08:14:09Z</time></trkpt><trkpt lat="42.979479023564096" lon="12.945072477455616"><ele>1357.0</ele><time>2026-04-18T08:14:10Z</time></trkpt><trkpt lat="42.979369891940365" lon="12.94501791553296"><ele>1357.0</ele><time>2026-04-18T08:14:11Z</time></trkpt><trkpt lat="42.979264699449516" lon="12.944967327301766"><ele>1357.0</ele><time>2026-04-18T08:14:12Z</time></trkpt><trkpt lat="42.97916632165123" lon="12.944919780713333"><ele>1354.8</ele><time>2026-04-18T08:14:13Z</time></trkpt><trkpt lat="42.97907344473067" lon="12.944872596670365"><ele>1352.6</ele><time>2026-04-18T08:14:14Z</time></trkpt><trkpt lat="42.97898894651703" lon="12.944821856683511"><ele>1350.3999999999999</ele><time>2026-04-18T08:14:15Z</time></trkpt><trkpt lat="42.978904569184174" lon="12.94476462198517"><ele>1348.1999999999998</ele><time>2026-04-18T08:14:16Z</time></trkpt><trkpt lat="42.97883642644336" lon="12.944711414554183"><ele>1346.0</ele><time>2026-04-18T08:14:17Z</time></trkpt><trkpt lat="42.97874301790383" lon="12.944627823334669"><ele>1346.0</ele><time>2026-04-18T08:14:19Z</time></trkpt><trkpt lat="42.97861357187657" lon="12.94464634128889"><ele>1346.0</ele><time>2026-04-18T08:14:21Z</time></trkpt><trkpt lat="42.978548725220286" lon="12.944704934922788"><ele>1346.0</ele><time>2026-04-18T08:14:22Z</time></trkpt><trkpt lat="42.97849011815779" lon="12.94477238686862"><ele>1346.0</ele><time>2026-04-18T08:14:23Z</time></trkpt><trkpt lat="42.97842465522203" lon="12.944852895116261"><ele>1346.0</ele><time>2026-04-18T08:14:24Z</time></trkpt><trkpt lat="42.97835155572562" lon="12.944933092433505"><ele>1344.25</ele><time>2026-04-18T08:14:25Z</time></trkpt><trkpt lat="42.9782724634283" lon="12.9450255754624"><ele>1342.5</ele><time>2026-04-18T08:14:26Z</time></trkpt><trkpt lat="42.97818467174512" lon="12.945119177022281"><ele>1340.75</ele><time>2026-04-18T08:14:27Z</time></trkpt><trkpt lat="42.97808738303618" lon="12.945213760518115"><ele>1339.0</ele><time>2026-04-18T08:14:28Z</time></trkpt><trkpt lat="42.97798171067794" lon="12.945312458527763"><ele>1339.0</ele><time>2026-04-18T08:14:28.999Z</time></trkpt><trkpt lat="42.97787574537282" lon="12.945418198163088"><ele>1339.0</ele><time>2026-04-18T08:14:29.999Z</time></trkpt><trkpt lat="42.977760836527764" lon="12.945531829791726"><ele>1339.0</ele><time>2026-04-18T08:14:30.999Z</time></trkpt><trkpt lat="42.977646685249844" lon="12.945644891243914"><ele>1339.0</ele><time>2026-04-18T08:14:31.999Z</time></trkpt><trkpt lat="42.977526061774924" lon="12.94577239461457"><ele>1333.3333333333333</ele><time>2026-04-18T08:14:32.999Z</time></trkpt><trkpt lat="42.97739822286374" lon="12.945905722482676"><ele>1327.6666666666667</ele><time>2026-04-18T08:14:33.999Z</time></trkpt><trkpt lat="42.97726420867205" lon="12.946043863057008"><ele>1322.0</ele><time>2026-04-18T08:14:34.999Z</time></trkpt><trkpt lat="42.97712918776921" lon="12.946187281836668"><ele>1322.0</ele><time>2026-04-18T08:14:35.999Z</time></trkpt><trkpt lat="42.97699074362582" lon="12.946325903497513"><ele>1322.0</ele><time>2026-04-18T08:14:36.999Z</time></trkpt><trkpt lat="42.97685120504083" lon="12.946459821562975"><ele>1322.0</ele><time>2026-04-18T08:14:37.999Z</time></trkpt><trkpt lat="42.97670898928622" lon="12.946595939440977"><ele>1314.3333333333335</ele><time>2026-04-18T08:14:38.999Z</time></trkpt><trkpt lat="42.97657181162263" lon="12.946729622689565"><ele>1306.6666666666667</ele><time>2026-04-18T08:14:39.999Z</time></trkpt><trkpt lat="42.97643427045019" lon="12.94686871825077"><ele>1299.0</ele><time>2026-04-18T08:14:40.999Z</time></trkpt><trkpt lat="42.9762969443724" lon="12.947003024864493"><ele>1299.0</ele><time>2026-04-18T08:14:41.999Z</time></trkpt><trkpt lat="42.97615834231476" lon="12.947130342216925"><ele>1299.0</ele><time>2026-04-18T08:14:42.999Z</time></trkpt><trkpt lat="42.97602570081898" lon="12.947258809710128"><ele>1299.0</ele><time>2026-04-18T08:14:43.999Z</time></trkpt><trkpt lat="42.975890675828296" lon="12.947387929019785"><ele>1294.3333333333333</ele><time>2026-04-18T08:14:44.999Z</time></trkpt><trkpt lat="42.97574701920261" lon="12.947522292472824"><ele>1289.6666666666665</ele><time>2026-04-18T08:14:45.999Z</time></trkpt><trkpt lat="42.97560202091258" lon="12.947636028774333"><ele>1285.0</ele><time>2026-04-18T08:14:46.999Z</time></trkpt><trkpt lat="42.97545143449462" lon="12.947738537979786"><ele>1284.0</ele><time>2026-04-18T08:14:47.999Z</time></trkpt><trkpt lat="42.975302579441454" lon="12.947846487113306"><ele>1283.0</ele><time>2026-04-18T08:14:48.999Z</time></trkpt><trkpt lat="42.97515598162523" lon="12.947943694651366"><ele>1282.0</ele><time>2026-04-18T08:14:49.999Z</time></trkpt><trkpt lat="42.975019236911606" lon="12.948026729579311"><ele>1279.25</ele><time>2026-04-18T08:14:50.999Z</time></trkpt><trkpt lat="42.97488703135557" lon="12.948115128110606"><ele>1276.5</ele><time>2026-04-18T08:14:51.999Z</time></trkpt><trkpt lat="42.974768792016704" lon="12.948225358895465"><ele>1273.75</ele><time>2026-04-18T08:14:52.999Z</time></trkpt><trkpt lat="42.974653511982694" lon="12.948343813089963"><ele>1271.0</ele><time>2026-04-18T08:14:53.999Z</time></trkpt><trkpt lat="42.97454954839679" lon="12.948478910264084"><ele>1268.5</ele><time>2026-04-18T08:14:54.999Z</time></trkpt><trkpt lat="42.97445726518841" lon="12.948617104627706"><ele>1266.0</ele><time>2026-04-18T08:14:55.999Z</time></trkpt><trkpt lat="42.97436764100724" lon="12.948754802520918"><ele>1263.5</ele><time>2026-04-18T08:14:56.999Z</time></trkpt><trkpt lat="42.974276737954334" lon="12.948883252158842"><ele>1261.0</ele><time>2026-04-18T08:14:57.999Z</time></trkpt><trkpt lat="42.97418393019854" lon="12.94899962038878"><ele>1261.0</ele><time>2026-04-18T08:14:58.999Z</time></trkpt><trkpt lat="42.97407997500895" lon="12.949099442357404"><ele>1261.0</ele><time>2026-04-18T08:14:59.999Z</time></trkpt><trkpt lat="42.973975298713846" lon="12.94919225166746"><ele>1261.0</ele><time>2026-04-18T08:15:00.999Z</time></trkpt><trkpt lat="42.97387576989449" lon="12.949294520009957"><ele>1261.0</ele><time>2026-04-18T08:15:01.999Z</time></trkpt><trkpt lat="42.97377913401581" lon="12.949403100346384"><ele>1258.0</ele><time>2026-04-18T08:15:02.999Z</time></trkpt><trkpt lat="42.973672780248705" lon="12.94951337392837"><ele>1255.0</ele><time>2026-04-18T08:15:03.999Z</time></trkpt><trkpt lat="42.97356930549664" lon="12.94962419898288"><ele>1252.0</ele><time>2026-04-18T08:15:04.999Z</time></trkpt><trkpt lat="42.97348390715422" lon="12.949736096041024"><ele>1249.0</ele><time>2026-04-18T08:15:05.999Z</time></trkpt><trkpt lat="42.97340557058826" lon="12.949824577173551"><ele>1246.0</ele><time>2026-04-18T08:15:06.999Z</time></trkpt><trkpt lat="42.973323476654144" lon="12.94990048964466"><ele>1243.0</ele><time>2026-04-18T08:15:07.999Z</time></trkpt><trkpt lat="42.97322644291062" lon="12.949956247679744"><ele>1240.0</ele><time>2026-04-18T08:15:08.999Z</time></trkpt><trkpt lat="42.973147965904516" lon="12.950011517425414"><ele>1237.0</ele><time>2026-04-18T08:15:09.999Z</time></trkpt><trkpt lat="42.973052801242154" lon="12.950068229159461"><ele>1234.0</ele><time>2026-04-18T08:15:10.999Z</time></trkpt><trkpt lat="42.972959715870196" lon="12.950119084888643"><ele>1231.4</ele><time>2026-04-18T08:15:11.999Z</time></trkpt><trkpt lat="42.972856555089514" lon="12.950167763965375"><ele>1228.8000000000002</ele><time>2026-04-18T08:15:12.999Z</time></trkpt><trkpt lat="42.97276719770927" lon="12.950210821294148"><ele>1226.1999999999998</ele><time>2026-04-18T08:15:13.999Z</time></trkpt><trkpt lat="42.97268501319917" lon="12.950252793028685"><ele>1223.6</ele><time>2026-04-18T08:15:14.999Z</time></trkpt><trkpt lat="42.972607746051764" lon="12.950306631152147"><ele>1221.0</ele><time>2026-04-18T08:15:15.999Z</time></trkpt><trkpt lat="42.9725405684052" lon="12.95036482204003"><ele>1217.5</ele><time>2026-04-18T08:15:16.999Z</time></trkpt><trkpt lat="42.97247197669303" lon="12.95041947811156"><ele>1214.0</ele><time>2026-04-18T08:15:17.999Z</time></trkpt><trkpt lat="42.97238653272642" lon="12.950454934836126"><ele>1210.5</ele><time>2026-04-18T08:15:18.999Z</time></trkpt><trkpt lat="42.97231263662285" lon="12.950502717375363"><ele>1207.0</ele><time>2026-04-18T08:15:19.999Z</time></trkpt><trkpt lat="42.97225247821436" lon="12.950558321294332"><ele>1203.5</ele><time>2026-04-18T08:15:20.999Z</time></trkpt><trkpt lat="42.972205611801876" lon="12.95062821542652"><ele>1200.0</ele><time>2026-04-18T08:15:21.999Z</time></trkpt><trkpt lat="42.97215971814805" lon="12.95071189347234"><ele>1200.0</ele><time>2026-04-18T08:15:22.999Z</time></trkpt><trkpt lat="42.97210004634397" lon="12.95078873479196"><ele>1200.0</ele><time>2026-04-18T08:15:23.999Z</time></trkpt><trkpt lat="42.972034929004614" lon="12.950858269156907"><ele>1200.0</ele><time>2026-04-18T08:15:24.999Z</time></trkpt><trkpt lat="42.97199440722256" lon="12.950928645476797"><ele>1200.0</ele><time>2026-04-18T08:15:25.999Z</time></trkpt><trkpt lat="42.97194013099437" lon="12.950998894157657"><ele>1200.0</ele><time>2026-04-18T08:15:26.999Z</time></trkpt><trkpt lat="42.97188732750301" lon="12.9510749009136"><ele>1200.0</ele><time>2026-04-18T08:15:27.999Z</time></trkpt><trkpt lat="42.971829165923374" lon="12.951149615151108"><ele>1199.2</ele><time>2026-04-18T08:15:28.999Z</time></trkpt><trkpt lat="42.97176549288709" lon="12.95122038509132"><ele>1198.4</ele><time>2026-04-18T08:15:29.999Z</time></trkpt><trkpt lat="42.971677777615376" lon="12.95128153872655"><ele>1197.6</ele><time>2026-04-18T08:15:30.999Z</time></trkpt><trkpt lat="42.97158576633717" lon="12.951335642132783"><ele>1196.8</ele><time>2026-04-18T08:15:31.999Z</time></trkpt><trkpt lat="42.97150462739241" lon="12.951384140947512"><ele>1196.0</ele><time>2026-04-18T08:15:32.999Z</time></trkpt><trkpt lat="42.97141812476939" lon="12.951432435440402"><ele>1192.6666666666667</ele><time>2026-04-18T08:15:33.999Z</time></trkpt><trkpt lat="42.97133564745247" lon="12.951463007967433"><ele>1189.3333333333335</ele><time>2026-04-18T08:15:34.999Z</time></trkpt><trkpt lat="42.97126781461146" lon="12.951484416302552"><ele>1186.0</ele><time>2026-04-18T08:15:35.999Z</time></trkpt><trkpt lat="42.97119478341237" lon="12.951484859461765"><ele>1182.6666666666667</ele><time>2026-04-18T08:15:36.999Z</time></trkpt><trkpt lat="42.971124336393" lon="12.951468063988811"><ele>1179.3333333333333</ele><time>2026-04-18T08:15:37.999Z</time></trkpt><trkpt lat="42.97103443132284" lon="12.951403294443056"><ele>1176.0</ele><time>2026-04-18T08:15:39Z</time></trkpt><trkpt lat="42.97093492498489" lon="12.951296824902036"><ele>1176.75</ele><time>2026-04-18T08:15:40Z</time></trkpt><trkpt lat="42.97081380105478" lon="12.951251172581044"><ele>1177.5</ele><time>2026-04-18T08:15:41Z</time></trkpt><trkpt lat="42.970707269204524" lon="12.951180929592121"><ele>1178.25</ele><time>2026-04-18T08:15:42Z</time></trkpt><trkpt lat="42.97059790158014" lon="12.951134658019864"><ele>1179.0</ele><time>2026-04-18T08:15:43Z</time></trkpt><trkpt lat="42.970477955045" lon="12.951126425766075"><ele>1179.0</ele><time>2026-04-18T08:15:44Z</time></trkpt><trkpt lat="42.970351491499216" lon="12.951146715619766"><ele>1179.0</ele><time>2026-04-18T08:15:45Z</time></trkpt><trkpt lat="42.97022637223154" lon="12.951172663783028"><ele>1179.0</ele><time>2026-04-18T08:15:46Z</time></trkpt><trkpt lat="42.97010520248048" lon="12.951205772706752"><ele>1179.0</ele><time>2026-04-18T08:15:47Z</time></trkpt><trkpt lat="42.96998013758056" lon="12.951240905253671"><ele>1180.5</ele><time>2026-04-18T08:15:48Z</time></trkpt><trkpt lat="42.969846365164116" lon="12.951241893546925"><ele>1182.0</ele><time>2026-04-18T08:15:49Z</time></trkpt><trkpt lat="42.969700576484975" lon="12.951251043314459"><ele>1183.5</ele><time>2026-04-18T08:15:50Z</time></trkpt><trkpt lat="42.96956917371261" lon="12.951253184243027"><ele>1185.0</ele><time>2026-04-18T08:15:51Z</time></trkpt><trkpt lat="42.96943375694436" lon="12.951267878984684"><ele>1185.0</ele><time>2026-04-18T08:15:52Z</time></trkpt><trkpt lat="42.96929545398233" lon="12.951276242867152"><ele>1185.0</ele><time>2026-04-18T08:15:53Z</time></trkpt><trkpt lat="42.96915380489479" lon="12.951278257064796"><ele>1185.0</ele><time>2026-04-18T08:15:54Z</time></trkpt><trkpt lat="42.96902334647915" lon="12.95124463228387"><ele>1185.0</ele><time>2026-04-18T08:15:55Z</time></trkpt><trkpt lat="42.96890967317985" lon="12.951225948692725"><ele>1186.0</ele><time>2026-04-18T08:15:56Z</time></trkpt><trkpt lat="42.96880501381944" lon="12.951194667950112"><ele>1187.0</ele><time>2026-04-18T08:15:57Z</time></trkpt><trkpt lat="42.96870638314276" lon="12.951158964843545"><ele>1188.0</ele><time>2026-04-18T08:15:58Z</time></trkpt><trkpt lat="42.968614497204335" lon="12.951125167169687"><ele>1189.0</ele><time>2026-04-18T08:15:59Z</time></trkpt><trkpt lat="42.96852016661339" lon="12.9511097098553"><ele>1190.0</ele><time>2026-04-18T08:16:00Z</time></trkpt><trkpt lat="42.968436319439405" lon="12.951073741949942"><ele>1190.6</ele><time>2026-04-18T08:16:01Z</time></trkpt><trkpt lat="42.968356589862374" lon="12.951037162524273"><ele>1191.2</ele><time>2026-04-18T08:16:02Z</time></trkpt><trkpt lat="42.96827549061641" lon="12.951009666905968"><ele>1191.8</ele><time>2026-04-18T08:16:03Z</time></trkpt><trkpt lat="42.968204284757505" lon="12.950985525497373"><ele>1192.4</ele><time>2026-04-18T08:16:04Z</time></trkpt><trkpt lat="42.9681006391531" lon="12.950961393246951"><ele>1193.0</ele><time>2026-04-18T08:16:06Z</time></trkpt><trkpt lat="42.967975711516246" lon="12.951399540025886"><ele>1193.0</ele><time>2026-04-18T08:16:07Z</time></trkpt><trkpt lat="42.96792569333955" lon="12.951474619072453"><ele>1193.0</ele><time>2026-04-18T08:16:08Z</time></trkpt><trkpt lat="42.96785598459057" lon="12.951514404245199"><ele>1193.0</ele><time>2026-04-18T08:16:09Z</time></trkpt><trkpt lat="42.96777535681216" lon="12.951513571595239"><ele>1193.0</ele><time>2026-04-18T08:16:10Z</time></trkpt><trkpt lat="42.96769271634868" lon="12.951494725097481"><ele>1193.0</ele><time>2026-04-18T08:16:11Z</time></trkpt><trkpt lat="42.96758380989764" lon="12.951492767108824"><ele>1193.0</ele><time>2026-04-18T08:16:12Z</time></trkpt><trkpt lat="42.96748171039603" lon="12.951513585245518"><ele>1194.142857142857</ele><time>2026-04-18T08:16:13Z</time></trkpt><trkpt lat="42.96742234258741" lon="12.951543614408777"><ele>1195.2857142857142</ele><time>2026-04-18T08:16:14Z</time></trkpt><trkpt lat="42.96735924577148" lon="12.951564599425742"><ele>1196.4285714285716</ele><time>2026-04-18T08:16:15Z</time></trkpt><trkpt lat="42.96729558510307" lon="12.951571531909684"><ele>1197.5714285714284</ele><time>2026-04-18T08:16:16Z</time></trkpt><trkpt lat="42.96722266083599" lon="12.951562768519366"><ele>1198.7142857142858</ele><time>2026-04-18T08:16:17Z</time></trkpt><trkpt lat="42.967159310276685" lon="12.951505977936089"><ele>1199.857142857143</ele><time>2026-04-18T08:16:18Z</time></trkpt><trkpt lat="42.967089392096746" lon="12.951475304735563"><ele>1201.0</ele><time>2026-04-18T08:16:19Z</time></trkpt><trkpt lat="42.9670195611727" lon="12.951463870378353"><ele>1201.0</ele><time>2026-04-18T08:16:20Z</time></trkpt><trkpt lat="42.96694548420153" lon="12.951459642768278"><ele>1201.0</ele><time>2026-04-18T08:16:21Z</time></trkpt><trkpt lat="42.96681944420509" lon="12.95149856158613"><ele>1201.0</ele><time>2026-04-18T08:16:23Z</time></trkpt><trkpt lat="42.966757983388646" lon="12.951572518211009"><ele>1201.0</ele><time>2026-04-18T08:16:24Z</time></trkpt><trkpt lat="42.96669187578858" lon="12.951684816545553"><ele>1201.0</ele><time>2026-04-18T08:16:25Z</time></trkpt><trkpt lat="42.96663551755392" lon="12.951804943905346"><ele>1200.8</ele><time>2026-04-18T08:16:26Z</time></trkpt><trkpt lat="42.96656554560403" lon="12.95190663209826"><ele>1200.6</ele><time>2026-04-18T08:16:27Z</time></trkpt><trkpt lat="42.96647690383348" lon="12.95200208793247"><ele>1200.4</ele><time>2026-04-18T08:16:28Z</time></trkpt><trkpt lat="42.96639392896329" lon="12.952099779135244"><ele>1200.2</ele><time>2026-04-18T08:16:29Z</time></trkpt><trkpt lat="42.96630177076135" lon="12.952194125017646"><ele>1200.0</ele><time>2026-04-18T08:16:30Z</time></trkpt><trkpt lat="42.96621326755462" lon="12.952253419825979"><ele>1200.0</ele><time>2026-04-18T08:16:31Z</time></trkpt><trkpt lat="42.966121954845384" lon="12.952315373034844"><ele>1200.0</ele><time>2026-04-18T08:16:32Z</time></trkpt><trkpt lat="42.96604598406672" lon="12.952396417199465"><ele>1200.0</ele><time>2026-04-18T08:16:33Z</time></trkpt><trkpt lat="42.965992708211836" lon="12.952525067872797"><ele>1200.0</ele><time>2026-04-18T08:16:34Z</time></trkpt><trkpt lat="42.965990265229244" lon="12.95266069670273"><ele>1200.0</ele><time>2026-04-18T08:16:35Z</time></trkpt><trkpt lat="42.96597130450448" lon="12.952802430382846"><ele>1200.2</ele><time>2026-04-18T08:16:36Z</time></trkpt><trkpt lat="42.96597854125769" lon="12.952939834331257"><ele>1200.4</ele><time>2026-04-18T08:16:37Z</time></trkpt><trkpt lat="42.96603876865972" lon="12.953060726306328"><ele>1200.6</ele><time>2026-04-18T08:16:38Z</time></trkpt><trkpt lat="42.966095444677684" lon="12.953178085492224"><ele>1200.8</ele><time>2026-04-18T08:16:39Z</time></trkpt><trkpt lat="42.96612867483215" lon="12.953304654518117"><ele>1201.0</ele><time>2026-04-18T08:16:40Z</time></trkpt><trkpt lat="42.96615067007189" lon="12.953439527195913"><ele>1202.2</ele><time>2026-04-18T08:16:41Z</time></trkpt><trkpt lat="42.96618478144468" lon="12.953583542412506"><ele>1203.3999999999999</ele><time>2026-04-18T08:16:42Z</time></trkpt><trkpt lat="42.966226064002186" lon="12.953719009145306"><ele>1204.6</ele><time>2026-04-18T08:16:42.999Z</time></trkpt><trkpt lat="42.966246922136136" lon="12.953859113384292"><ele>1205.8</ele><time>2026-04-18T08:16:43.999Z</time></trkpt><trkpt lat="42.966240008930775" lon="12.953994910057803"><ele>1207.0</ele><time>2026-04-18T08:16:44.999Z</time></trkpt><trkpt lat="42.96621768438613" lon="12.954120924355953"><ele>1207.6</ele><time>2026-04-18T08:16:45.999Z</time></trkpt><trkpt lat="42.96618618833545" lon="12.95421545315945"><ele>1208.2</ele><time>2026-04-18T08:16:46.999Z</time></trkpt><trkpt lat="42.966101319040924" lon="12.95436747878869"><ele>1208.8</ele><time>2026-04-18T08:16:48.999Z</time></trkpt><trkpt lat="42.966044659037536" lon="12.95446949880618"><ele>1209.4</ele><time>2026-04-18T08:16:49.999Z</time></trkpt><trkpt lat="42.965975014846805" lon="12.95457554538984"><ele>1210.0</ele><time>2026-04-18T08:16:50.999Z</time></trkpt><trkpt lat="42.96589087577841" lon="12.954682477210714"><ele>1215.2</ele><time>2026-04-18T08:16:51.999Z</time></trkpt><trkpt lat="42.96580760304952" lon="12.954794390982459"><ele>1220.4</ele><time>2026-04-18T08:16:52.999Z</time></trkpt><trkpt lat="42.96573281318225" lon="12.954908320518628"><ele>1225.6</ele><time>2026-04-18T08:16:53.999Z</time></trkpt><trkpt lat="42.96567239726662" lon="12.955006138633452"><ele>1230.8</ele><time>2026-04-18T08:16:54.999Z</time></trkpt><trkpt lat="42.965599318805495" lon="12.955097589279577"><ele>1236.0</ele><time>2026-04-18T08:16:55.999Z</time></trkpt><trkpt lat="42.965557405241604" lon="12.955171477339317"><ele>1237.1428571428573</ele><time>2026-04-18T08:16:56.999Z</time></trkpt><trkpt lat="42.96552305078459" lon="12.95524602289969"><ele>1238.2857142857142</ele><time>2026-04-18T08:16:57.999Z</time></trkpt><trkpt lat="42.96546361012553" lon="12.95531089536148"><ele>1239.4285714285716</ele><time>2026-04-18T08:16:58.999Z</time></trkpt><trkpt lat="42.96540293640908" lon="12.955365635764396"><ele>1240.5714285714287</ele><time>2026-04-18T08:16:59.999Z</time></trkpt><trkpt lat="42.96533217560336" lon="12.9554344550997"><ele>1241.7142857142858</ele><time>2026-04-18T08:17:00.999Z</time></trkpt><trkpt lat="42.96527663460836" lon="12.955483571658274"><ele>1242.857142857143</ele><time>2026-04-18T08:17:01.999Z</time></trkpt><trkpt lat="42.965222487274204" lon="12.955567251518438"><ele>1244.0</ele><time>2026-04-18T08:17:02.999Z</time></trkpt><trkpt lat="42.9651734282035" lon="12.955649526705036"><ele>1244.0</ele><time>2026-04-18T08:17:03.999Z</time></trkpt><trkpt lat="42.96512643002334" lon="12.955728055347043"><ele>1244.0</ele><time>2026-04-18T08:17:04.999Z</time></trkpt><trkpt lat="42.96506286710812" lon="12.955811823316308"><ele>1244.0</ele><time>2026-04-18T08:17:05.999Z</time></trkpt><trkpt lat="42.965004443854404" lon="12.955884442282645"><ele>1244.0</ele><time>2026-04-18T08:17:06.999Z</time></trkpt><trkpt lat="42.964944056455096" lon="12.955958499645737"><ele>1244.0</ele><time>2026-04-18T08:17:07.999Z</time></trkpt><trkpt lat="42.9648911690652" lon="12.956047988105652"><ele>1244.0</ele><time>2026-04-18T08:17:08.999Z</time></trkpt><trkpt lat="42.96484236799579" lon="12.956141083699647"><ele>1248.8333333333335</ele><time>2026-04-18T08:17:09.999Z</time></trkpt><trkpt lat="42.96479937036679" lon="12.956222122561357"><ele>1253.6666666666667</ele><time>2026-04-18T08:17:10.999Z</time></trkpt><trkpt lat="42.9647362582722" lon="12.956331379234925"><ele>1258.5</ele><time>2026-04-18T08:17:11.999Z</time></trkpt><trkpt lat="42.964679490413026" lon="12.956441350835016"><ele>1263.3333333333333</ele><time>2026-04-18T08:17:12.999Z</time></trkpt><trkpt lat="42.964623940234105" lon="12.956540526834956"><ele>1268.1666666666665</ele><time>2026-04-18T08:17:13.999Z</time></trkpt><trkpt lat="42.96457798913841" lon="12.956620816184488"><ele>1273.0</ele><time>2026-04-18T08:17:14.999Z</time></trkpt><trkpt lat="42.96452309533401" lon="12.956722405877098"><ele>1274.0</ele><time>2026-04-18T08:17:15.999Z</time></trkpt><trkpt lat="42.96447112446367" lon="12.956844112627536"><ele>1275.0</ele><time>2026-04-18T08:17:16.999Z</time></trkpt><trkpt lat="42.96442708525538" lon="12.95693800226304"><ele>1276.0</ele><time>2026-04-18T08:17:17.999Z</time></trkpt><trkpt lat="42.96438234304106" lon="12.957045405860272"><ele>1277.0</ele><time>2026-04-18T08:17:18.999Z</time></trkpt><trkpt lat="42.96434634403113" lon="12.957130718521482"><ele>1278.0</ele><time>2026-04-18T08:17:19.999Z</time></trkpt><trkpt lat="42.96429990271191" lon="12.957224710072898"><ele>1279.0</ele><time>2026-04-18T08:17:20.999Z</time></trkpt><trkpt lat="42.96425587608701" lon="12.957316261491325"><ele>1279.0</ele><time>2026-04-18T08:17:21.999Z</time></trkpt><trkpt lat="42.9642159972931" lon="12.957404725406645"><ele>1279.0</ele><time>2026-04-18T08:17:22.999Z</time></trkpt><trkpt lat="42.96416904618718" lon="12.957500123862783"><ele>1279.0</ele><time>2026-04-18T08:17:23.999Z</time></trkpt><trkpt lat="42.96412693902623" lon="12.957607953185953"><ele>1279.0</ele><time>2026-04-18T08:17:24.999Z</time></trkpt><trkpt lat="42.96407327223267" lon="12.957746390095402"><ele>1279.0</ele><time>2026-04-18T08:17:25.999Z</time></trkpt><trkpt lat="42.96404186784816" lon="12.957879684419117"><ele>1285.75</ele><time>2026-04-18T08:17:26.999Z</time></trkpt><trkpt lat="42.963983908140605" lon="12.95801574114191"><ele>1292.5</ele><time>2026-04-18T08:17:27.999Z</time></trkpt><trkpt lat="42.96392211890775" lon="12.958149192218757"><ele>1299.25</ele><time>2026-04-18T08:17:28.999Z</time></trkpt><trkpt lat="42.9638621935126" lon="12.958290036902365"><ele>1306.0</ele><time>2026-04-18T08:17:29.999Z</time></trkpt><trkpt lat="42.963801960626355" lon="12.958430595373517"><ele>1307.4</ele><time>2026-04-18T08:17:30.999Z</time></trkpt><trkpt lat="42.9637385915062" lon="12.958563320529914"><ele>1308.8</ele><time>2026-04-18T08:17:31.999Z</time></trkpt><trkpt lat="42.96367413656505" lon="12.958690492313755"><ele>1310.2</ele><time>2026-04-18T08:17:32.999Z</time></trkpt><trkpt lat="42.96361866029303" lon="12.958811977049834"><ele>1311.6000000000001</ele><time>2026-04-18T08:17:33.999Z</time></trkpt><trkpt lat="42.96355839316212" lon="12.958945171505185"><ele>1313.0</ele><time>2026-04-18T08:17:34.999Z</time></trkpt><trkpt lat="42.96350021184642" lon="12.95907084252811"><ele>1313.0</ele><time>2026-04-18T08:17:35.999Z</time></trkpt><trkpt lat="42.9634512354432" lon="12.959192427585755"><ele>1313.0</ele><time>2026-04-18T08:17:36.999Z</time></trkpt><trkpt lat="42.96339568516854" lon="12.959311981682498"><ele>1313.0</ele><time>2026-04-18T08:17:37.999Z</time></trkpt><trkpt lat="42.96332992635134" lon="12.959430011612733"><ele>1313.0</ele><time>2026-04-18T08:17:38.999Z</time></trkpt><trkpt lat="42.96327237294168" lon="12.959543635932636"><ele>1313.0</ele><time>2026-04-18T08:17:39.999Z</time></trkpt><trkpt lat="42.96320981437927" lon="12.95965996684059"><ele>1312.0</ele><time>2026-04-18T08:17:40.999Z</time></trkpt><trkpt lat="42.963149239729965" lon="12.959771840094167"><ele>1311.0</ele><time>2026-04-18T08:17:41.999Z</time></trkpt><trkpt lat="42.96308810029592" lon="12.959882211662402"><ele>1310.0</ele><time>2026-04-18T08:17:42.999Z</time></trkpt><trkpt lat="42.96303434264026" lon="12.959982869771105"><ele>1309.0</ele><time>2026-04-18T08:17:43.999Z</time></trkpt><trkpt lat="42.96297906328614" lon="12.960086713718871"><ele>1308.0</ele><time>2026-04-18T08:17:45Z</time></trkpt><trkpt lat="42.962921535765446" lon="12.960189278961256"><ele>1308.0</ele><time>2026-04-18T08:17:46Z</time></trkpt><trkpt lat="42.9628427421886" lon="12.960287054196746"><ele>1308.0</ele><time>2026-04-18T08:17:47Z</time></trkpt><trkpt lat="42.962736476634426" lon="12.960367726126973"><ele>1308.0</ele><time>2026-04-18T08:17:48Z</time></trkpt><trkpt lat="42.96262552578448" lon="12.960416080685805"><ele>1308.0</ele><time>2026-04-18T08:17:49Z</time></trkpt><trkpt lat="42.96252259018416" lon="12.96046512789633"><ele>1309.0</ele><time>2026-04-18T08:17:50Z</time></trkpt><trkpt lat="42.962425457326006" lon="12.960517410199445"><ele>1310.0</ele><time>2026-04-18T08:17:51Z</time></trkpt><trkpt lat="42.962324985217144" lon="12.96057646255105"><ele>1311.0</ele><time>2026-04-18T08:17:52Z</time></trkpt><trkpt lat="42.962214781391204" lon="12.960641075105865"><ele>1312.0</ele><time>2026-04-18T08:17:53Z</time></trkpt><trkpt lat="42.962097650504134" lon="12.9607020082469"><ele>1312.0</ele><time>2026-04-18T08:17:54Z</time></trkpt><trkpt lat="42.96198953290769" lon="12.960767126670344"><ele>1312.0</ele><time>2026-04-18T08:17:55Z</time></trkpt><trkpt lat="42.96188590066937" lon="12.960821613897224"><ele>1312.0</ele><time>2026-04-18T08:17:56Z</time></trkpt><trkpt lat="42.961766704763235" lon="12.960867595164792"><ele>1312.0</ele><time>2026-04-18T08:17:57Z</time></trkpt><trkpt lat="42.96163588091782" lon="12.960907997641634"><ele>1309.75</ele><time>2026-04-18T08:17:58Z</time></trkpt><trkpt lat="42.96150010197232" lon="12.960992793722665"><ele>1307.5</ele><time>2026-04-18T08:17:59Z</time></trkpt><trkpt lat="42.96136879716883" lon="12.961074592471531"><ele>1305.25</ele><time>2026-04-18T08:18:00Z</time></trkpt><trkpt lat="42.961233850525716" lon="12.96116623724526"><ele>1303.0</ele><time>2026-04-18T08:18:01Z</time></trkpt><trkpt lat="42.96109650569962" lon="12.961250791330245"><ele>1303.0</ele><time>2026-04-18T08:18:02Z</time></trkpt><trkpt lat="42.96099006897392" lon="12.961330003424855"><ele>1303.0</ele><time>2026-04-18T08:18:03Z</time></trkpt><trkpt lat="42.960882579632276" lon="12.961385512494223"><ele>1303.0</ele><time>2026-04-18T08:18:04Z</time></trkpt><trkpt lat="42.9607859574662" lon="12.961425186427205"><ele>1303.0</ele><time>2026-04-18T08:18:05Z</time></trkpt><trkpt lat="42.96073432302083" lon="12.961476502068338"><ele>1303.0</ele><time>2026-04-18T08:18:06Z</time></trkpt><trkpt lat="42.96068717095647" lon="12.961569249369031"><ele>1304.25</ele><time>2026-04-18T08:18:07Z</time></trkpt><trkpt lat="42.960639956708384" lon="12.961695022232767"><ele>1305.5</ele><time>2026-04-18T08:18:08Z</time></trkpt><trkpt lat="42.960579245447285" lon="12.961839825408383"><ele>1306.75</ele><time>2026-04-18T08:18:09Z</time></trkpt><trkpt lat="42.96050791461435" lon="12.962003268597574"><ele>1308.0</ele><time>2026-04-18T08:18:10Z</time></trkpt><trkpt lat="42.960427991313416" lon="12.962171266429824"><ele>1308.0</ele><time>2026-04-18T08:18:11Z</time></trkpt><trkpt lat="42.96033188330366" lon="12.962303946082411"><ele>1308.0</ele><time>2026-04-18T08:18:12Z</time></trkpt><trkpt lat="42.960221583414516" lon="12.962423342465922"><ele>1308.0</ele><time>2026-04-18T08:18:13Z</time></trkpt><trkpt lat="42.96009533643615" lon="12.96251419130848"><ele>1308.0</ele><time>2026-04-18T08:18:14Z</time></trkpt><trkpt lat="42.959967504689814" lon="12.96257951826536"><ele>1304.0</ele><time>2026-04-18T08:18:15Z</time></trkpt><trkpt lat="42.95986929449229" lon="12.962648926601359"><ele>1300.0</ele><time>2026-04-18T08:18:16Z</time></trkpt><trkpt lat="42.95976045349657" lon="12.962736878714743"><ele>1296.0</ele><time>2026-04-18T08:18:17Z</time></trkpt><trkpt lat="42.959647116008355" lon="12.962811934182076"><ele>1292.0</ele><time>2026-04-18T08:18:18Z</time></trkpt><trkpt lat="42.959536675025895" lon="12.962879013436739"><ele>1292.0</ele><time>2026-04-18T08:18:19Z</time></trkpt><trkpt lat="42.959433363737745" lon="12.962961762902244"><ele>1292.0</ele><time>2026-04-18T08:18:20Z</time></trkpt><trkpt lat="42.959340133208094" lon="12.963055711127389"><ele>1292.0</ele><time>2026-04-18T08:18:21Z</time></trkpt><trkpt lat="42.95924600728809" lon="12.96315372622536"><ele>1292.0</ele><time>2026-04-18T08:18:22Z</time></trkpt><trkpt lat="42.95915218065504" lon="12.963241583600038"><ele>1293.8</ele><time>2026-04-18T08:18:23Z</time></trkpt><trkpt lat="42.959060532216796" lon="12.963326002087245"><ele>1295.6</ele><time>2026-04-18T08:18:24Z</time></trkpt><trkpt lat="42.9589707693567" lon="12.963397871339712"><ele>1297.3999999999999</ele><time>2026-04-18T08:18:25Z</time></trkpt><trkpt lat="42.95887144666912" lon="12.963459471880377"><ele>1299.1999999999998</ele><time>2026-04-18T08:18:26Z</time></trkpt><trkpt lat="42.958772699831336" lon="12.96352535811586"><ele>1301.0</ele><time>2026-04-18T08:18:27Z</time></trkpt><trkpt lat="42.95866522092251" lon="12.963594785574928"><ele>1301.0</ele><time>2026-04-18T08:18:28Z</time></trkpt><trkpt lat="42.95856685217759" lon="12.963672874384512"><ele>1301.0</ele><time>2026-04-18T08:18:29Z</time></trkpt><trkpt lat="42.958478986749185" lon="12.963754457654913"><ele>1301.0</ele><time>2026-04-18T08:18:30Z</time></trkpt><trkpt lat="42.95838507827594" lon="12.96382218411768"><ele>1301.0</ele><time>2026-04-18T08:18:31Z</time></trkpt><trkpt lat="42.958289325196645" lon="12.963878662505365"><ele>1301.0</ele><time>2026-04-18T08:18:32Z</time></trkpt><trkpt lat="42.95820649871652" lon="12.963961099973751"><ele>1305.4</ele><time>2026-04-18T08:18:33Z</time></trkpt><trkpt lat="42.9581217763954" lon="12.964038258743324"><ele>1309.8</ele><time>2026-04-18T08:18:34Z</time></trkpt><trkpt lat="42.95803113667189" lon="12.964122760059304"><ele>1314.2</ele><time>2026-04-18T08:18:35Z</time></trkpt><trkpt lat="42.95793114281411" lon="12.96418133237864"><ele>1318.6000000000001</ele><time>2026-04-18T08:18:36Z</time></trkpt><trkpt lat="42.95781857599278" lon="12.964244126380107"><ele>1323.0</ele><time>2026-04-18T08:18:37Z</time></trkpt><trkpt lat="42.95771030388301" lon="12.96431271796602"><ele>1323.0</ele><time>2026-04-18T08:18:38Z</time></trkpt><trkpt lat="42.95759843649803" lon="12.964379429275244"><ele>1323.0</ele><time>2026-04-18T08:18:39Z</time></trkpt><trkpt lat="42.95749389415444" lon="12.964443777269938"><ele>1323.0</ele><time>2026-04-18T08:18:40Z</time></trkpt><trkpt lat="42.95739223359189" lon="12.964510053149382"><ele>1323.0</ele><time>2026-04-18T08:18:41Z</time></trkpt><trkpt lat="42.95729660194398" lon="12.96458733156927"><ele>1329.25</ele><time>2026-04-18T08:18:42Z</time></trkpt><trkpt lat="42.95719113282764" lon="12.964686360846994"><ele>1335.5</ele><time>2026-04-18T08:18:43Z</time></trkpt><trkpt lat="42.95709516460481" lon="12.964772552808288"><ele>1341.75</ele><time>2026-04-18T08:18:44Z</time></trkpt><trkpt lat="42.95698855638149" lon="12.964861054034666"><ele>1348.0</ele><time>2026-04-18T08:18:45Z</time></trkpt><trkpt lat="42.95685415257271" lon="12.964972343613656"><ele>1345.0</ele><time>2026-04-18T08:18:46Z</time></trkpt><trkpt lat="42.95672515758705" lon="12.965070517983834"><ele>1342.0</ele><time>2026-04-18T08:18:47Z</time></trkpt><trkpt lat="42.9566079143432" lon="12.965149211521158"><ele>1339.0</ele><time>2026-04-18T08:18:48Z</time></trkpt><trkpt lat="42.95651096103425" lon="12.96523490688138"><ele>1336.0</ele><time>2026-04-18T08:18:49Z</time></trkpt><trkpt lat="42.956401512422396" lon="12.965306600481078"><ele>1342.0</ele><time>2026-04-18T08:18:49.999Z</time></trkpt><trkpt lat="42.956273573763426" lon="12.965344168224682"><ele>1348.0</ele><time>2026-04-18T08:18:50.999Z</time></trkpt><trkpt lat="42.95615923411423" lon="12.965402752930263"><ele>1354.0</ele><time>2026-04-18T08:18:51.999Z</time></trkpt><trkpt lat="42.956051421639586" lon="12.965487426479205"><ele>1360.0</ele><time>2026-04-18T08:18:52.999Z</time></trkpt><trkpt lat="42.95596704051611" lon="12.9655690207518"><ele>1360.0</ele><time>2026-04-18T08:18:53.999Z</time></trkpt><trkpt lat="42.955890501786364" lon="12.96564344659456"><ele>1360.0</ele><time>2026-04-18T08:18:54.999Z</time></trkpt><trkpt lat="42.95582911903285" lon="12.965701215977795"><ele>1360.0</ele><time>2026-04-18T08:18:55.999Z</time></trkpt><trkpt lat="42.95576960811192" lon="12.965737433521252"><ele>1360.0</ele><time>2026-04-18T08:18:56.999Z</time></trkpt><trkpt lat="42.95569056125872" lon="12.965746798147313"><ele>1360.0</ele><time>2026-04-18T08:18:57.999Z</time></trkpt><trkpt lat="42.955610814025654" lon="12.965745632072577"><ele>1360.0</ele><time>2026-04-18T08:18:58.999Z</time></trkpt><trkpt lat="42.95549917843954" lon="12.965734786268815"><ele>1360.0</ele><time>2026-04-18T08:18:59.999Z</time></trkpt><trkpt lat="42.95540524149738" lon="12.96574337536311"><ele>1360.0</ele><time>2026-04-18T08:19:00.999Z</time></trkpt><trkpt lat="42.95531306642707" lon="12.965776251876969"><ele>1360.0</ele><time>2026-04-18T08:19:01.999Z</time></trkpt><trkpt lat="42.95521350063727" lon="12.96583310807244"><ele>1360.0</ele><time>2026-04-18T08:19:02.999Z</time></trkpt><trkpt lat="42.95511772774624" lon="12.965894424902382"><ele>1360.0</ele><time>2026-04-18T08:19:03.999Z</time></trkpt><trkpt lat="42.95502385310298" lon="12.965958181665181"><ele>1360.0</ele><time>2026-04-18T08:19:04.999Z</time></trkpt><trkpt lat="42.95493239704948" lon="12.966017952283714"><ele>1360.0</ele><time>2026-04-18T08:19:05.999Z</time></trkpt><trkpt lat="42.954859712847124" lon="12.966080273500332"><ele>1360.0</ele><time>2026-04-18T08:19:06.999Z</time></trkpt><trkpt lat="42.95478856930825" lon="12.966153003782306"><ele>1360.0</ele><time>2026-04-18T08:19:07.999Z</time></trkpt><trkpt lat="42.95471426096869" lon="12.966232810047774"><ele>1360.0</ele><time>2026-04-18T08:19:08.999Z</time></trkpt><trkpt lat="42.95464526360896" lon="12.966316438244284"><ele>1360.0</ele><time>2026-04-18T08:19:09.999Z</time></trkpt><trkpt lat="42.95456845922489" lon="12.966407383590525"><ele>1360.0</ele><time>2026-04-18T08:19:10.999Z</time></trkpt><trkpt lat="42.95449727749596" lon="12.966500867648385"><ele>1360.0</ele><time>2026-04-18T08:19:11.999Z</time></trkpt><trkpt lat="42.954430061636366" lon="12.966611494787907"><ele>1360.0</ele><time>2026-04-18T08:19:12.999Z</time></trkpt><trkpt lat="42.954351046722394" lon="12.966732358992028"><ele>1360.0</ele><time>2026-04-18T08:19:13.999Z</time></trkpt><trkpt lat="42.954266132535" lon="12.96686768914809"><ele>1360.5</ele><time>2026-04-18T08:19:14.999Z</time></trkpt><trkpt lat="42.95417840638293" lon="12.967023402979132"><ele>1361.0</ele><time>2026-04-18T08:19:15.999Z</time></trkpt><trkpt lat="42.95409229195552" lon="12.967193520724344"><ele>1361.5</ele><time>2026-04-18T08:19:16.999Z</time></trkpt><trkpt lat="42.95401291116167" lon="12.967366812725302"><ele>1362.0</ele><time>2026-04-18T08:19:17.999Z</time></trkpt><trkpt lat="42.95392844878622" lon="12.967544178984415"><ele>1362.0</ele><time>2026-04-18T08:19:18.999Z</time></trkpt><trkpt lat="42.95383782042371" lon="12.967733064777581"><ele>1362.0</ele><time>2026-04-18T08:19:19.999Z</time></trkpt><trkpt lat="42.953766494403716" lon="12.967914129289053"><ele>1362.0</ele><time>2026-04-18T08:19:20.999Z</time></trkpt><trkpt lat="42.95370414060057" lon="12.968085895384375"><ele>1362.0</ele><time>2026-04-18T08:19:21.999Z</time></trkpt><trkpt lat="42.95365925604313" lon="12.968238323966869"><ele>1362.0</ele><time>2026-04-18T08:19:22.999Z</time></trkpt><trkpt lat="42.95364514301571" lon="12.968380283773328"><ele>1362.0</ele><time>2026-04-18T08:19:23.999Z</time></trkpt><trkpt lat="42.953645804441955" lon="12.968523964801465"><ele>1362.0</ele><time>2026-04-18T08:19:24.999Z</time></trkpt><trkpt lat="42.953656015502034" lon="12.968674110076066"><ele>1362.0</ele><time>2026-04-18T08:19:25.999Z</time></trkpt><trkpt lat="42.95365173463526" lon="12.968835414339967"><ele>1361.0</ele><time>2026-04-18T08:19:26.999Z</time></trkpt><trkpt lat="42.95364563998373" lon="12.968999981367302"><ele>1360.0</ele><time>2026-04-18T08:19:27.999Z</time></trkpt><trkpt lat="42.95365285561422" lon="12.969175887451717"><ele>1359.0</ele><time>2026-04-18T08:19:28.999Z</time></trkpt><trkpt lat="42.953663239887774" lon="12.969364429560986"><ele>1358.0</ele><time>2026-04-18T08:19:29.999Z</time></trkpt><trkpt lat="42.953667787749076" lon="12.96954098844661"><ele>1360.0</ele><time>2026-04-18T08:19:30.999Z</time></trkpt><trkpt lat="42.953657590798976" lon="12.96970264891691"><ele>1362.0</ele><time>2026-04-18T08:19:31.999Z</time></trkpt><trkpt lat="42.95362573595156" lon="12.969858382522673"><ele>1364.0</ele><time>2026-04-18T08:19:32.999Z</time></trkpt><trkpt lat="42.953586196636" lon="12.970025485746609"><ele>1366.0</ele><time>2026-04-18T08:19:33.999Z</time></trkpt><trkpt lat="42.95355307141676" lon="12.970180499428963"><ele>1365.0</ele><time>2026-04-18T08:19:34.999Z</time></trkpt><trkpt lat="42.95351353411751" lon="12.970325798255677"><ele>1364.0</ele><time>2026-04-18T08:19:35.999Z</time></trkpt><trkpt lat="42.95346459301596" lon="12.9704518294873"><ele>1363.0</ele><time>2026-04-18T08:19:36.999Z</time></trkpt><trkpt lat="42.953398191856834" lon="12.970550565435785"><ele>1362.0</ele><time>2026-04-18T08:19:37.999Z</time></trkpt><trkpt lat="42.95333957422664" lon="12.970629064586433"><ele>1361.0</ele><time>2026-04-18T08:19:38.999Z</time></trkpt><trkpt lat="42.95327265596049" lon="12.970683731763437"><ele>1361.0</ele><time>2026-04-18T08:19:39.999Z</time></trkpt><trkpt lat="42.953207458106206" lon="12.970730291507845"><ele>1361.0</ele><time>2026-04-18T08:19:40.999Z</time></trkpt><trkpt lat="42.953126957957885" lon="12.970783506065818"><ele>1361.0</ele><time>2026-04-18T08:19:42.999Z</time></trkpt><trkpt lat="42.95305038097394" lon="12.970826839045875"><ele>1361.0</ele><time>2026-04-18T08:19:44.999Z</time></trkpt><trkpt lat="42.95298688871902" lon="12.970915041075678"><ele>1361.0</ele><time>2026-04-18T08:19:46.999Z</time></trkpt><trkpt lat="42.9529042421422" lon="12.970985332124648"><ele>1361.0</ele><time>2026-04-18T08:19:48.999Z</time></trkpt><trkpt lat="42.95278900763647" lon="12.971011722878552"><ele>1361.5</ele><time>2026-04-18T08:19:51Z</time></trkpt><trkpt lat="42.95272500022466" lon="12.971041370195277"><ele>1362.0</ele><time>2026-04-18T08:19:53Z</time></trkpt><trkpt lat="42.952651963744806" lon="12.971082142262272"><ele>1362.5</ele><time>2026-04-18T08:19:55Z</time></trkpt><trkpt lat="42.95258727371726" lon="12.97112740194593"><ele>1363.0</ele><time>2026-04-18T08:19:56Z</time></trkpt><trkpt lat="42.95252555587784" lon="12.97119754471381"><ele>1363.5</ele><time>2026-04-18T08:19:57Z</time></trkpt><trkpt lat="42.95246131072227" lon="12.971224687573864"><ele>1364.0</ele><time>2026-04-18T08:19:58Z</time></trkpt><trkpt lat="42.952326999589225" lon="12.971260808081075"><ele>1364.0</ele><time>2026-04-18T08:20:00Z</time></trkpt><trkpt lat="42.95223624203126" lon="12.971300586661416"><ele>1364.0</ele><time>2026-04-18T08:20:01Z</time></trkpt><trkpt lat="42.952078289178" lon="12.971381482732511"><ele>1364.0</ele><time>2026-04-18T08:20:03Z</time></trkpt><trkpt lat="42.952001852079604" lon="12.971408093159313"><ele>1364.0</ele><time>2026-04-18T08:20:04Z</time></trkpt><trkpt lat="42.95192724003587" lon="12.971455351587514"><ele>1364.0</ele><time>2026-04-18T08:20:05Z</time></trkpt><trkpt lat="42.951851684683184" lon="12.971520594215216"><ele>1364.0</ele><time>2026-04-18T08:20:06Z</time></trkpt><trkpt lat="42.95177585815385" lon="12.971566483822974"><ele>1364.0</ele><time>2026-04-18T08:20:07Z</time></trkpt><trkpt lat="42.951709516986426" lon="12.971598654562943"><ele>1364.0</ele><time>2026-04-18T08:20:08Z</time></trkpt><trkpt lat="42.95163025367019" lon="12.971632084490077"><ele>1364.0</ele><time>2026-04-18T08:20:09Z</time></trkpt><trkpt lat="42.951552897146435" lon="12.97166999087086"><ele>1364.0</ele><time>2026-04-18T08:20:10Z</time></trkpt><trkpt lat="42.95147171291409" lon="12.971732852941729"><ele>1364.0</ele><time>2026-04-18T08:20:11Z</time></trkpt><trkpt lat="42.951407244159824" lon="12.971795055961234"><ele>1362.6666666666667</ele><time>2026-04-18T08:20:12Z</time></trkpt><trkpt lat="42.9513352870587" lon="12.971877417259156"><ele>1361.3333333333335</ele><time>2026-04-18T08:20:13Z</time></trkpt><trkpt lat="42.95127308665616" lon="12.971952779337448"><ele>1360.0</ele><time>2026-04-18T08:20:14Z</time></trkpt><trkpt lat="42.95121672991953" lon="12.972015730097024"><ele>1358.6666666666667</ele><time>2026-04-18T08:20:15Z</time></trkpt><trkpt lat="42.951167648194016" lon="12.972076157344185"><ele>1357.3333333333333</ele><time>2026-04-18T08:20:16Z</time></trkpt><trkpt lat="42.95112631465224" lon="12.972153457455926"><ele>1356.0</ele><time>2026-04-18T08:20:17Z</time></trkpt><trkpt lat="42.951089099560654" lon="12.972240929391747"><ele>1356.0</ele><time>2026-04-18T08:20:18Z</time></trkpt><trkpt lat="42.951069698849686" lon="12.972335316378038"><ele>1356.0</ele><time>2026-04-18T08:20:19Z</time></trkpt><trkpt lat="42.95105520706899" lon="12.972430426304674"><ele>1356.0</ele><time>2026-04-18T08:20:20Z</time></trkpt><trkpt lat="42.95105479867377" lon="12.972543154090635"><ele>1356.0</ele><time>2026-04-18T08:20:21Z</time></trkpt><trkpt lat="42.951049987123284" lon="12.972637616020272"><ele>1356.0</ele><time>2026-04-18T08:20:22Z</time></trkpt><trkpt lat="42.95105863163712" lon="12.97274022041261"><ele>1356.0</ele><time>2026-04-18T08:20:23Z</time></trkpt><trkpt lat="42.95107098513792" lon="12.972831860658045"><ele>1356.0</ele><time>2026-04-18T08:20:24Z</time></trkpt><trkpt lat="42.95109866447569" lon="12.972982677347881"><ele>1358.0</ele><time>2026-04-18T08:20:26Z</time></trkpt><trkpt lat="42.95111704072532" lon="12.973103611234691"><ele>1360.0</ele><time>2026-04-18T08:20:28Z</time></trkpt><trkpt lat="42.95114638299202" lon="12.97318086807654"><ele>1362.0</ele><time>2026-04-18T08:20:30Z</time></trkpt><trkpt lat="42.95118980649358" lon="12.973290463812479"><ele>1364.0</ele><time>2026-04-18T08:20:35Z</time></trkpt><trkpt lat="42.951152715806366" lon="12.973384938790874"><ele>1366.0</ele><time>2026-04-18T08:20:38Z</time></trkpt><trkpt lat="42.951083465126125" lon="12.973425404632232"><ele>1368.0</ele><time>2026-04-18T08:20:59Z</time></trkpt><trkpt lat="42.951017494607804" lon="12.97340333939435"><ele>1368.0</ele><time>2026-04-18T08:21:03Z</time></trkpt><trkpt lat="42.95095444249936" lon="12.973385079419122"><ele>1368.0</ele><time>2026-04-18T08:21:08.999Z</time></trkpt><trkpt lat="42.950895577393354" lon="12.973347607271826"><ele>1368.0</ele><time>2026-04-18T08:21:10.999Z</time></trkpt><trkpt lat="42.95076400469015" lon="12.973280997580474"><ele>1368.0</ele><time>2026-04-18T08:21:12.999Z</time></trkpt><trkpt lat="42.95069389805758" lon="12.973224481993748"><ele>1368.0</ele><time>2026-04-18T08:21:13.999Z</time></trkpt><trkpt lat="42.95062157147408" lon="12.973136564276583"><ele>1368.0</ele><time>2026-04-18T08:21:14.999Z</time></trkpt><trkpt lat="42.950558528107884" lon="12.973077449329388"><ele>1364.4</ele><time>2026-04-18T08:21:15.999Z</time></trkpt><trkpt lat="42.95049540448028" lon="12.972944513985173"><ele>1360.8000000000002</ele><time>2026-04-18T08:21:17.999Z</time></trkpt><trkpt lat="42.95045271654264" lon="12.972876468172451"><ele>1357.2</ele><time>2026-04-18T08:21:18.999Z</time></trkpt><trkpt lat="42.95039088206914" lon="12.972752260758952"><ele>1353.6</ele><time>2026-04-18T08:21:20.999Z</time></trkpt><trkpt lat="42.95031585416754" lon="12.97267101682151"><ele>1350.0</ele><time>2026-04-18T08:21:22.999Z</time></trkpt><trkpt lat="42.95023206954168" lon="12.972620822141872"><ele>1350.0</ele><time>2026-04-18T08:21:24.999Z</time></trkpt><trkpt lat="42.95013400476532" lon="12.972595693279093"><ele>1350.0</ele><time>2026-04-18T08:21:26.999Z</time></trkpt><trkpt lat="42.95002369828173" lon="12.972649728862471"><ele>1350.0</ele><time>2026-04-18T08:21:28.999Z</time></trkpt><trkpt lat="42.94992152112441" lon="12.97272807635373"><ele>1350.0</ele><time>2026-04-18T08:21:30.999Z</time></trkpt><trkpt lat="42.94983522516688" lon="12.972807363423163"><ele>1350.0</ele><time>2026-04-18T08:21:32.999Z</time></trkpt><trkpt lat="42.94975080106261" lon="12.972862972480154"><ele>1347.8333333333333</ele><time>2026-04-18T08:21:34.999Z</time></trkpt><trkpt lat="42.94967288837127" lon="12.972942564785145"><ele>1345.6666666666667</ele><time>2026-04-18T08:21:36.999Z</time></trkpt><trkpt lat="42.94958961924158" lon="12.973023143305936"><ele>1343.5</ele><time>2026-04-18T08:21:38.999Z</time></trkpt><trkpt lat="42.949533184707114" lon="12.973069511653074"><ele>1341.3333333333335</ele><time>2026-04-18T08:21:40.999Z</time></trkpt><trkpt lat="42.9494612798126" lon="12.973119726801466"><ele>1339.1666666666667</ele><time>2026-04-18T08:21:43.999Z</time></trkpt><trkpt lat="42.9494054382592" lon="12.973180887129795"><ele>1337.0</ele><time>2026-04-18T08:21:44.999Z</time></trkpt><trkpt lat="42.94935888101954" lon="12.973244857718115"><ele>1337.0</ele><time>2026-04-18T08:21:45.999Z</time></trkpt><trkpt lat="42.94929429077238" lon="12.973295949254963"><ele>1337.0</ele><time>2026-04-18T08:21:46.999Z</time></trkpt><trkpt lat="42.94919851379728" lon="12.973332748722724"><ele>1337.0</ele><time>2026-04-18T08:21:48.999Z</time></trkpt><trkpt lat="42.94914160992826" lon="12.97339582865644"><ele>1337.0</ele><time>2026-04-18T08:21:49.999Z</time></trkpt><trkpt lat="42.94902998841473" lon="12.97346867551936"><ele>1337.0</ele><time>2026-04-18T08:21:51.999Z</time></trkpt><trkpt lat="42.94896339672925" lon="12.973512920745986"><ele>1337.0</ele><time>2026-04-18T08:21:53.999Z</time></trkpt><trkpt lat="42.948880315087344" lon="12.973551607491583"><ele>1335.6</ele><time>2026-04-18T08:22:16Z</time></trkpt><trkpt lat="42.94879072985204" lon="12.973635370720961"><ele>1334.1999999999998</ele><time>2026-04-18T08:22:23Z</time></trkpt><trkpt lat="42.948727075666646" lon="12.973702567213445"><ele>1332.8</ele><time>2026-04-18T08:22:25Z</time></trkpt><trkpt lat="42.94863355506292" lon="12.973792237220891"><ele>1331.4</ele><time>2026-04-18T08:22:27Z</time></trkpt><trkpt lat="42.94855300956291" lon="12.973849646082828"><ele>1330.0</ele><time>2026-04-18T08:22:29Z</time></trkpt><trkpt lat="42.94846822554852" lon="12.973913955924587"><ele>1330.0</ele><time>2026-04-18T08:22:31Z</time></trkpt><trkpt lat="42.94840265552452" lon="12.973958831158312"><ele>1330.0</ele><time>2026-04-18T08:22:32Z</time></trkpt><trkpt lat="42.94830969549553" lon="12.974008796944696"><ele>1330.0</ele><time>2026-04-18T08:22:34Z</time></trkpt><trkpt lat="42.948239342194256" lon="12.974049209720153"><ele>1330.0</ele><time>2026-04-18T08:22:36Z</time></trkpt><trkpt lat="42.94814886179916" lon="12.974128332269887"><ele>1330.0</ele><time>2026-04-18T08:22:38Z</time></trkpt><trkpt lat="42.94803999149514" lon="12.974152063199817"><ele>1329.0</ele><time>2026-04-18T08:22:40Z</time></trkpt><trkpt lat="42.94795937185933" lon="12.974170956591"><ele>1328.0</ele><time>2026-04-18T08:22:42Z</time></trkpt><trkpt lat="42.94788897803174" lon="12.974198267697437"><ele>1327.0</ele><time>2026-04-18T08:22:43Z</time></trkpt><trkpt lat="42.94779757738275" lon="12.97423948364768"><ele>1326.0</ele><time>2026-04-18T08:22:45Z</time></trkpt><trkpt lat="42.947729703841254" lon="12.974271389261606"><ele>1325.0</ele><time>2026-04-18T08:22:47Z</time></trkpt><trkpt lat="42.94761641985457" lon="12.974303950682035"><ele>1324.0</ele><time>2026-04-18T08:22:49Z</time></trkpt><trkpt lat="42.94754365013433" lon="12.974321001187953"><ele>1319.2</ele><time>2026-04-18T08:22:51Z</time></trkpt><trkpt lat="42.9474640047335" lon="12.974376618588073"><ele>1314.4</ele><time>2026-04-18T08:22:56Z</time></trkpt><trkpt lat="42.94738294158974" lon="12.974423288659827"><ele>1309.6</ele><time>2026-04-18T08:22:58Z</time></trkpt><trkpt lat="42.94728470377862" lon="12.974454795730932"><ele>1304.8</ele><time>2026-04-18T08:23:00Z</time></trkpt><trkpt lat="42.947182387105464" lon="12.974505419496527"><ele>1300.0</ele><time>2026-04-18T08:23:02Z</time></trkpt><trkpt lat="42.94708636594698" lon="12.97453927160338"><ele>1300.0</ele><time>2026-04-18T08:23:04Z</time></trkpt><trkpt lat="42.94697710329141" lon="12.974566350971566"><ele>1300.0</ele><time>2026-04-18T08:23:06Z</time></trkpt><trkpt lat="42.9468545475575" lon="12.974614438983172"><ele>1300.0</ele><time>2026-04-18T08:23:08Z</time></trkpt><trkpt lat="42.94677146984731" lon="12.974629108229738"><ele>1300.0</ele><time>2026-04-18T08:23:09Z</time></trkpt><trkpt lat="42.94669369492144" lon="12.97465221892328"><ele>1300.0</ele><time>2026-04-18T08:23:10Z</time></trkpt><trkpt lat="42.94661836638811" lon="12.974678387920349"><ele>1296.4285714285713</ele><time>2026-04-18T08:23:11Z</time></trkpt><trkpt lat="42.94655154125308" lon="12.974704818967265"><ele>1292.857142857143</ele><time>2026-04-18T08:23:12Z</time></trkpt><trkpt lat="42.946478885087515" lon="12.974719470077778"><ele>1289.2857142857142</ele><time>2026-04-18T08:23:13Z</time></trkpt><trkpt lat="42.94640747256546" lon="12.97473527766055"><ele>1285.7142857142858</ele><time>2026-04-18T08:23:14Z</time></trkpt><trkpt lat="42.94633529128005" lon="12.974755662949992"><ele>1282.142857142857</ele><time>2026-04-18T08:23:14.999Z</time></trkpt><trkpt lat="42.94626378181401" lon="12.97478941342223"><ele>1278.5714285714287</ele><time>2026-04-18T08:23:15.999Z</time></trkpt><trkpt lat="42.94619077493534" lon="12.97482170892892"><ele>1275.0</ele><time>2026-04-18T08:23:16.999Z</time></trkpt><trkpt lat="42.94611555492152" lon="12.974844304728208"><ele>1275.0</ele><time>2026-04-18T08:23:17.999Z</time></trkpt><trkpt lat="42.94604486326839" lon="12.974857612399147"><ele>1275.0</ele><time>2026-04-18T08:23:18.999Z</time></trkpt><trkpt lat="42.945981905254094" lon="12.974879327719556"><ele>1275.0</ele><time>2026-04-18T08:23:19.999Z</time></trkpt><trkpt lat="42.945913256596285" lon="12.974909382495142"><ele>1275.0</ele><time>2026-04-18T08:23:20.999Z</time></trkpt><trkpt lat="42.94585333776858" lon="12.974940731929381"><ele>1275.0</ele><time>2026-04-18T08:23:21.999Z</time></trkpt><trkpt lat="42.94579522077547" lon="12.974983914933738"><ele>1275.0</ele><time>2026-04-18T08:23:22.999Z</time></trkpt><trkpt lat="42.945672969367955" lon="12.974985684321693"><ele>1272.1666666666667</ele><time>2026-04-18T08:23:24.999Z</time></trkpt><trkpt lat="42.945609224275394" lon="12.97497975469966"><ele>1269.3333333333333</ele><time>2026-04-18T08:23:25.999Z</time></trkpt><trkpt lat="42.945535714794914" lon="12.974987069487419"><ele>1266.5</ele><time>2026-04-18T08:23:26.999Z</time></trkpt><trkpt lat="42.94545686899427" lon="12.974979113647453"><ele>1263.6666666666665</ele><time>2026-04-18T08:23:27.999Z</time></trkpt><trkpt lat="42.94538801141208" lon="12.974944219955884"><ele>1260.8333333333333</ele><time>2026-04-18T08:23:28.999Z</time></trkpt><trkpt lat="42.94531172490352" lon="12.974900796236971"><ele>1258.0</ele><time>2026-04-18T08:23:29.999Z</time></trkpt><trkpt lat="42.94523404752649" lon="12.974848632845612"><ele>1258.0</ele><time>2026-04-18T08:23:30.999Z</time></trkpt><trkpt lat="42.94516603281128" lon="12.974786012759768"><ele>1258.0</ele><time>2026-04-18T08:23:31.999Z</time></trkpt><trkpt lat="42.94509807111947" lon="12.974723433510936"><ele>1258.0</ele><time>2026-04-18T08:23:32.999Z</time></trkpt><trkpt lat="42.94504251641498" lon="12.97465185942204"><ele>1258.0</ele><time>2026-04-18T08:23:33.999Z</time></trkpt><trkpt lat="42.944982129749086" lon="12.974577340751393"><ele>1258.0</ele><time>2026-04-18T08:23:34.999Z</time></trkpt><trkpt lat="42.94492818164229" lon="12.974504865055252"><ele>1258.0</ele><time>2026-04-18T08:23:35.999Z</time></trkpt><trkpt lat="42.94487146623386" lon="12.97442400889522"><ele>1255.8</ele><time>2026-04-18T08:23:36.999Z</time></trkpt><trkpt lat="42.94480609124002" lon="12.974335370298203"><ele>1253.6</ele><time>2026-04-18T08:23:37.999Z</time></trkpt><trkpt lat="42.94473502735773" lon="12.974240651096554"><ele>1251.4</ele><time>2026-04-18T08:23:38.999Z</time></trkpt><trkpt lat="42.944672216165195" lon="12.974141494277262"><ele>1249.2</ele><time>2026-04-18T08:23:39.999Z</time></trkpt><trkpt lat="42.944609857812544" lon="12.974053356504843"><ele>1247.0</ele><time>2026-04-18T08:23:40.999Z</time></trkpt><trkpt lat="42.94454637966091" lon="12.973970501765804"><ele>1246.0</ele><time>2026-04-18T08:23:41.999Z</time></trkpt><trkpt lat="42.944470860211105" lon="12.973886760307082"><ele>1245.0</ele><time>2026-04-18T08:23:42.999Z</time></trkpt><trkpt lat="42.94435594005612" lon="12.973817455795052"><ele>1244.0</ele><time>2026-04-18T08:23:43.999Z</time></trkpt><trkpt lat="42.9442166067301" lon="12.97375120240566"><ele>1243.0</ele><time>2026-04-18T08:23:44.999Z</time></trkpt><trkpt lat="42.944090035751195" lon="12.973690672110823"><ele>1240.25</ele><time>2026-04-18T08:23:45.999Z</time></trkpt><trkpt lat="42.94396272489306" lon="12.973617451805374"><ele>1237.5</ele><time>2026-04-18T08:23:46.999Z</time></trkpt><trkpt lat="42.943827504726116" lon="12.973525858642871"><ele>1234.75</ele><time>2026-04-18T08:23:47.999Z</time></trkpt><trkpt lat="42.94371497277208" lon="12.973450362511535"><ele>1232.0</ele><time>2026-04-18T08:23:48.999Z</time></trkpt><trkpt lat="42.94361625191378" lon="12.973395135932986"><ele>1232.0</ele><time>2026-04-18T08:23:49.999Z</time></trkpt><trkpt lat="42.94354353448856" lon="12.973334832171114"><ele>1232.0</ele><time>2026-04-18T08:23:50.999Z</time></trkpt><trkpt lat="42.94348158856674" lon="12.973244094767072"><ele>1232.0</ele><time>2026-04-18T08:23:51.999Z</time></trkpt><trkpt lat="42.94341521780605" lon="12.97314802585345"><ele>1232.0</ele><time>2026-04-18T08:23:52.999Z</time></trkpt><trkpt lat="42.94334291393558" lon="12.973032616515779"><ele>1232.0</ele><time>2026-04-18T08:23:53.999Z</time></trkpt><trkpt lat="42.94326708011043" lon="12.972909695161611"><ele>1230.5</ele><time>2026-04-18T08:23:54.999Z</time></trkpt><trkpt lat="42.94318195435586" lon="12.972801383920933"><ele>1229.0</ele><time>2026-04-18T08:23:55.999Z</time></trkpt><trkpt lat="42.94308657352186" lon="12.97270358776219"><ele>1227.5</ele><time>2026-04-18T08:23:56.999Z</time></trkpt><trkpt lat="42.94297854764682" lon="12.972614283719777"><ele>1226.0</ele><time>2026-04-18T08:23:57.999Z</time></trkpt><trkpt lat="42.942860590445164" lon="12.972513676059258"><ele>1225.1666666666667</ele><time>2026-04-18T08:23:58.999Z</time></trkpt><trkpt lat="42.94276419333414" lon="12.972421255508708"><ele>1224.3333333333335</ele><time>2026-04-18T08:23:59.999Z</time></trkpt><trkpt lat="42.94270079240823" lon="12.972362815971664"><ele>1223.5</ele><time>2026-04-18T08:24:00.999Z</time></trkpt><trkpt lat="42.94263297751074" lon="12.972323772874864"><ele>1222.6666666666667</ele><time>2026-04-18T08:24:03Z</time></trkpt><trkpt lat="42.942560889795864" lon="12.972334178181114"><ele>1221.8333333333333</ele><time>2026-04-18T08:26:26Z</time></trkpt><trkpt lat="42.94250036377839" lon="12.972363858163057"><ele>1221.0</ele><time>2026-04-18T08:26:30Z</time></trkpt><trkpt lat="42.9424031399968" lon="12.972405233039948"><ele>1220.0</ele><time>2026-04-18T08:26:33Z</time></trkpt><trkpt lat="42.94228708163329" lon="12.972449978290959"><ele>1219.0</ele><time>2026-04-18T08:26:35Z</time></trkpt><trkpt lat="42.94219892080037" lon="12.972479544359231"><ele>1218.0</ele><time>2026-04-18T08:26:36Z</time></trkpt><trkpt lat="42.94211061033132" lon="12.972517338123785"><ele>1217.0</ele><time>2026-04-18T08:26:37Z</time></trkpt><trkpt lat="42.942002246984316" lon="12.972565540950194"><ele>1216.0</ele><time>2026-04-18T08:26:38Z</time></trkpt><trkpt lat="42.94188751657137" lon="12.972630171947369"><ele>1214.2</ele><time>2026-04-18T08:26:39Z</time></trkpt><trkpt lat="42.94177313241321" lon="12.972699640178716"><ele>1212.3999999999999</ele><time>2026-04-18T08:26:40Z</time></trkpt><trkpt lat="42.941685143403454" lon="12.97274694098976"><ele>1210.6</ele><time>2026-04-18T08:26:41Z</time></trkpt><trkpt lat="42.94158132883697" lon="12.972789335187189"><ele>1208.8</ele><time>2026-04-18T08:26:42Z</time></trkpt><trkpt lat="42.94149675438332" lon="12.97283261226265"><ele>1207.0</ele><time>2026-04-18T08:26:43Z</time></trkpt><trkpt lat="42.94141841143668" lon="12.972878131045775"><ele>1203.3333333333333</ele><time>2026-04-18T08:26:44Z</time></trkpt><trkpt lat="42.94135018233251" lon="12.972919254069678"><ele>1199.6666666666665</ele><time>2026-04-18T08:26:45Z</time></trkpt><trkpt lat="42.94125979764698" lon="12.972946135215437"><ele>1196.0</ele><time>2026-04-18T08:26:46Z</time></trkpt><trkpt lat="42.9411621690879" lon="12.972969490522425"><ele>1192.3333333333333</ele><time>2026-04-18T08:26:47Z</time></trkpt><trkpt lat="42.94107784359756" lon="12.973001654861505"><ele>1188.6666666666667</ele><time>2026-04-18T08:26:48Z</time></trkpt><trkpt lat="42.94100007563945" lon="12.973024420341666"><ele>1185.0</ele><time>2026-04-18T08:26:49Z</time></trkpt><trkpt lat="42.9409148460501" lon="12.973053862841748"><ele>1181.5</ele><time>2026-04-18T08:26:50Z</time></trkpt><trkpt lat="42.94083518535585" lon="12.973076177412072"><ele>1178.0</ele><time>2026-04-18T08:26:51Z</time></trkpt><trkpt lat="42.94072808632311" lon="12.972997818775147"><ele>1174.5</ele><time>2026-04-18T08:26:53Z</time></trkpt><trkpt lat="42.94068163063456" lon="12.972931677212735"><ele>1171.0</ele><time>2026-04-18T08:26:54Z</time></trkpt><trkpt lat="42.94062580724804" lon="12.972856224902035"><ele>1167.5</ele><time>2026-04-18T08:26:56Z</time></trkpt><trkpt lat="42.94053843965932" lon="12.972838339929782"><ele>1164.0</ele><time>2026-04-18T08:26:58Z</time></trkpt><trkpt lat="42.94042840479518" lon="12.972885110211177"><ele>1164.0</ele><time>2026-04-18T08:27:00Z</time></trkpt><trkpt lat="42.940362793313646" lon="12.972899610524156"><ele>1164.0</ele><time>2026-04-18T08:27:01Z</time></trkpt><trkpt lat="42.94025078852192" lon="12.972864638652233"><ele>1164.0</ele><time>2026-04-18T08:27:03Z</time></trkpt><trkpt lat="42.94017741743833" lon="12.972824196597307"><ele>1164.0</ele><time>2026-04-18T08:27:05Z</time></trkpt><trkpt lat="42.94010818163294" lon="12.97273788279517"><ele>1164.0</ele><time>2026-04-18T08:27:07Z</time></trkpt><trkpt lat="42.940032817312776" lon="12.972661787234319"><ele>1164.0</ele><time>2026-04-18T08:27:09Z</time></trkpt><trkpt lat="42.93994940693095" lon="12.972655524229339"><ele>1159.5</ele><time>2026-04-18T08:27:11Z</time></trkpt><trkpt lat="42.939841665941174" lon="12.972648960602648"><ele>1155.0</ele><time>2026-04-18T08:27:13Z</time></trkpt><trkpt lat="42.93977227662077" lon="12.972659507078044"><ele>1150.5</ele><time>2026-04-18T08:27:14Z</time></trkpt><trkpt lat="42.93970499358062" lon="12.972676828380168"><ele>1146.0</ele><time>2026-04-18T08:27:15Z</time></trkpt><trkpt lat="42.93963018762229" lon="12.972693389017136"><ele>1141.5</ele><time>2026-04-18T08:27:16Z</time></trkpt><trkpt lat="42.93955826196434" lon="12.972731358362552"><ele>1137.0</ele><time>2026-04-18T08:27:17Z</time></trkpt><trkpt lat="42.93949613789773" lon="12.972776860124013"><ele>1137.0</ele><time>2026-04-18T08:27:18Z</time></trkpt><trkpt lat="42.939444408372566" lon="12.972839095080966"><ele>1137.0</ele><time>2026-04-18T08:27:19Z</time></trkpt><trkpt lat="42.939367288489706" lon="12.972901040649589"><ele>1137.0</ele><time>2026-04-18T08:27:20Z</time></trkpt><trkpt lat="42.93929017869805" lon="12.972945918145216"><ele>1137.0</ele><time>2026-04-18T08:27:21Z</time></trkpt><trkpt lat="42.93919793213742" lon="12.97299824758553"><ele>1137.0</ele><time>2026-04-18T08:27:22Z</time></trkpt><trkpt lat="42.93911527855093" lon="12.973053563159977"><ele>1137.0</ele><time>2026-04-18T08:27:23Z</time></trkpt><trkpt lat="42.93902931838327" lon="12.973118948478131"><ele>1133.0</ele><time>2026-04-18T08:27:24Z</time></trkpt><trkpt lat="42.938943538003436" lon="12.97318339997324"><ele>1129.0</ele><time>2026-04-18T08:27:25Z</time></trkpt><trkpt lat="42.9388574332841" lon="12.973244427497011"><ele>1125.0</ele><time>2026-04-18T08:27:26Z</time></trkpt><trkpt lat="42.93877603693054" lon="12.97331267482091"><ele>1121.0</ele><time>2026-04-18T08:27:27Z</time></trkpt><trkpt lat="42.9387103959143" lon="12.973371799074735"><ele>1117.0</ele><time>2026-04-18T08:27:28Z</time></trkpt><trkpt lat="42.93859568579916" lon="12.97341814630426"><ele>1115.5</ele><time>2026-04-18T08:27:30Z</time></trkpt><trkpt lat="42.93850212479888" lon="12.973426873249025"><ele>1114.0</ele><time>2026-04-18T08:27:32Z</time></trkpt><trkpt lat="42.93841966493232" lon="12.973438254047062"><ele>1112.5</ele><time>2026-04-18T08:27:34Z</time></trkpt><trkpt lat="42.93833378052539" lon="12.973451853022155"><ele>1111.0</ele><time>2026-04-18T08:27:37Z</time></trkpt><trkpt lat="42.938273332502945" lon="12.973418129898493"><ele>1109.5</ele><time>2026-04-18T08:28:21Z</time></trkpt><trkpt lat="42.93820598954359" lon="12.973329199391806"><ele>1108.0</ele><time>2026-04-18T08:28:23Z</time></trkpt><trkpt lat="42.938160478976386" lon="12.973258919225474"><ele>1108.0</ele><time>2026-04-18T08:28:24Z</time></trkpt><trkpt lat="42.938117123125444" lon="12.973174846080484"><ele>1108.0</ele><time>2026-04-18T08:28:25Z</time></trkpt><trkpt lat="42.93807496710432" lon="12.973082745986563"><ele>1108.0</ele><time>2026-04-18T08:28:26Z</time></trkpt><trkpt lat="42.938029455374526" lon="12.972981664866175"><ele>1108.0</ele><time>2026-04-18T08:28:27Z</time></trkpt><trkpt lat="42.93798848400084" lon="12.972869968006622"><ele>1108.0</ele><time>2026-04-18T08:28:28Z</time></trkpt><trkpt lat="42.93793694654728" lon="12.972746820026156"><ele>1108.0</ele><time>2026-04-18T08:28:29Z</time></trkpt><trkpt lat="42.937875914164586" lon="12.972614657588354"><ele>1107.5</ele><time>2026-04-18T08:28:30Z</time></trkpt><trkpt lat="42.93781909649193" lon="12.97247160107441"><ele>1107.0</ele><time>2026-04-18T08:28:31Z</time></trkpt><trkpt lat="42.937762685057216" lon="12.972334174072648"><ele>1106.5</ele><time>2026-04-18T08:28:32Z</time></trkpt><trkpt lat="42.93769213076173" lon="12.972183646661295"><ele>1106.0</ele><time>2026-04-18T08:28:33Z</time></trkpt><trkpt lat="42.93760883775128" lon="12.972036214882651"><ele>1106.25</ele><time>2026-04-18T08:28:34Z</time></trkpt><trkpt lat="42.937529710245435" lon="12.971895109036915"><ele>1106.5</ele><time>2026-04-18T08:28:35Z</time></trkpt><trkpt lat="42.93745362151611" lon="12.97174446828409"><ele>1106.75</ele><time>2026-04-18T08:28:36Z</time></trkpt><trkpt lat="42.937366903367995" lon="12.971606839382922"><ele>1107.0</ele><time>2026-04-18T08:28:37Z</time></trkpt><trkpt lat="42.9372663197658" lon="12.971486094482477"><ele>1107.0</ele><time>2026-04-18T08:28:38Z</time></trkpt><trkpt lat="42.93715202343244" lon="12.971392366946162"><ele>1107.0</ele><time>2026-04-18T08:28:39Z</time></trkpt><trkpt lat="42.93704238921412" lon="12.971306034264256"><ele>1107.0</ele><time>2026-04-18T08:28:40Z</time></trkpt><trkpt lat="42.936952935000555" lon="12.971215265591942"><ele>1107.0</ele><time>2026-04-18T08:28:41Z</time></trkpt><trkpt lat="42.93686743707524" lon="12.97112057747105"><ele>1107.0</ele><time>2026-04-18T08:28:42Z</time></trkpt><trkpt lat="42.9367603740388" lon="12.971055558570624"><ele>1107.0</ele><time>2026-04-18T08:28:43Z</time></trkpt><trkpt lat="42.93665680969703" lon="12.971027379984482"><ele>1107.0</ele><time>2026-04-18T08:28:44Z</time></trkpt><trkpt lat="42.93656942133826" lon="12.970996310809019"><ele>1107.0</ele><time>2026-04-18T08:28:45Z</time></trkpt><trkpt lat="42.93648786231901" lon="12.970977200116705"><ele>1107.0</ele><time>2026-04-18T08:28:46Z</time></trkpt><trkpt lat="42.93641534336064" lon="12.970936446651823"><ele>1105.5</ele><time>2026-04-18T08:28:47Z</time></trkpt><trkpt lat="42.936355697843275" lon="12.9709002193829"><ele>1104.0</ele><time>2026-04-18T08:28:48Z</time></trkpt><trkpt lat="42.936310497651974" lon="12.970833473138644"><ele>1102.5</ele><time>2026-04-18T08:28:49Z</time></trkpt><trkpt lat="42.93626101648345" lon="12.9707439882354"><ele>1101.0</ele><time>2026-04-18T08:28:50Z</time></trkpt><trkpt lat="42.93621176380952" lon="12.970644375726787"><ele>1099.5</ele><time>2026-04-18T08:28:51Z</time></trkpt><trkpt lat="42.936166425538715" lon="12.97055395410629"><ele>1098.0</ele><time>2026-04-18T08:28:52Z</time></trkpt><trkpt lat="42.936112001249526" lon="12.970456823336573"><ele>1098.0</ele><time>2026-04-18T08:28:53Z</time></trkpt><trkpt lat="42.93606100430608" lon="12.97037025750118"><ele>1098.0</ele><time>2026-04-18T08:28:54Z</time></trkpt><trkpt lat="42.93601605238713" lon="12.970289257736678"><ele>1098.0</ele><time>2026-04-18T08:28:55Z</time></trkpt><trkpt lat="42.9359765184698" lon="12.970209245221982"><ele>1098.0</ele><time>2026-04-18T08:28:56Z</time></trkpt><trkpt lat="42.93595016855435" lon="12.970115649021968"><ele>1098.0</ele><time>2026-04-18T08:28:57Z</time></trkpt><trkpt lat="42.93592695889949" lon="12.970009224568596"><ele>1098.0</ele><time>2026-04-18T08:28:58Z</time></trkpt><trkpt lat="42.93589980714018" lon="12.969905633891385"><ele>1100.3333333333333</ele><time>2026-04-18T08:28:59Z</time></trkpt><trkpt lat="42.93586453499789" lon="12.969818706505764"><ele>1102.6666666666667</ele><time>2026-04-18T08:29:00Z</time></trkpt><trkpt lat="42.93583601187631" lon="12.969740616505288"><ele>1105.0</ele><time>2026-04-18T08:29:01Z</time></trkpt><trkpt lat="42.93581179303008" lon="12.969656506327071"><ele>1107.3333333333335</ele><time>2026-04-18T08:29:02Z</time></trkpt><trkpt lat="42.93579169586153" lon="12.9695649750068"><ele>1109.6666666666667</ele><time>2026-04-18T08:29:03Z</time></trkpt><trkpt lat="42.935788985350236" lon="12.969472762506753"><ele>1112.0</ele><time>2026-04-18T08:29:04Z</time></trkpt><trkpt lat="42.93577546586507" lon="12.969305767830285"><ele>1112.0</ele><time>2026-04-18T08:29:06Z</time></trkpt><trkpt lat="42.935758943842046" lon="12.969205163785903"><ele>1112.0</ele><time>2026-04-18T08:29:07Z</time></trkpt><trkpt lat="42.93575916465205" lon="12.969096511144432"><ele>1112.0</ele><time>2026-04-18T08:29:08Z</time></trkpt><trkpt lat="42.93576209076344" lon="12.96899004872795"><ele>1112.0</ele><time>2026-04-18T08:29:09Z</time></trkpt><trkpt lat="42.935755919956186" lon="12.96888262456944"><ele>1112.0</ele><time>2026-04-18T08:29:10Z</time></trkpt><trkpt lat="42.9357457813472" lon="12.968766444529283"><ele>1112.0</ele><time>2026-04-18T08:29:11Z</time></trkpt><trkpt lat="42.93573916506803" lon="12.968651321801062"><ele>1111.3333333333335</ele><time>2026-04-18T08:29:12Z</time></trkpt><trkpt lat="42.93574346624165" lon="12.968541795355412"><ele>1110.6666666666667</ele><time>2026-04-18T08:29:13Z</time></trkpt><trkpt lat="42.93575441633383" lon="12.968416213548997"><ele>1110.0</ele><time>2026-04-18T08:29:14Z</time></trkpt><trkpt lat="42.935770218742256" lon="12.968316210479074"><ele>1109.3333333333333</ele><time>2026-04-18T08:29:15Z</time></trkpt><trkpt lat="42.93577031993579" lon="12.968199337563368"><ele>1108.6666666666665</ele><time>2026-04-18T08:29:16Z</time></trkpt><trkpt lat="42.9357584114122" lon="12.968082097031523"><ele>1108.0</ele><time>2026-04-18T08:29:17Z</time></trkpt><trkpt lat="42.93573701271708" lon="12.967960566482787"><ele>1108.0</ele><time>2026-04-18T08:29:18Z</time></trkpt><trkpt lat="42.93571479236646" lon="12.967827812328721"><ele>1108.0</ele><time>2026-04-18T08:29:19Z</time></trkpt><trkpt lat="42.93568526855049" lon="12.96768798450833"><ele>1108.0</ele><time>2026-04-18T08:29:20Z</time></trkpt><trkpt lat="42.935638334919695" lon="12.967552184273472"><ele>1108.0</ele><time>2026-04-18T08:29:21Z</time></trkpt><trkpt lat="42.93556798868033" lon="12.96741655615169"><ele>1108.0</ele><time>2026-04-18T08:29:22Z</time></trkpt><trkpt lat="42.93548613735687" lon="12.967275018716249"><ele>1108.25</ele><time>2026-04-18T08:29:23Z</time></trkpt><trkpt lat="42.93538979623399" lon="12.967147034746064"><ele>1108.5</ele><time>2026-04-18T08:29:24Z</time></trkpt><trkpt lat="42.93528988128689" lon="12.967032899349713"><ele>1108.75</ele><time>2026-04-18T08:29:25Z</time></trkpt><trkpt lat="42.93518665735652" lon="12.966933132186806"><ele>1109.0</ele><time>2026-04-18T08:29:26Z</time></trkpt><trkpt lat="42.93509311495664" lon="12.966845375625443"><ele>1108.6000000000001</ele><time>2026-04-18T08:29:27Z</time></trkpt><trkpt lat="42.93504520272337" lon="12.96671521822319"><ele>1108.2</ele><time>2026-04-18T08:29:28Z</time></trkpt><trkpt lat="42.93501443907501" lon="12.966560779379549"><ele>1107.8000000000002</ele><time>2026-04-18T08:29:29Z</time></trkpt><trkpt lat="42.93496411647025" lon="12.966431739197906"><ele>1107.4</ele><time>2026-04-18T08:29:30Z</time></trkpt><trkpt lat="42.93490111701984" lon="12.966310224764694"><ele>1107.0</ele><time>2026-04-18T08:29:31Z</time></trkpt><trkpt lat="42.934835269745406" lon="12.966192652654941"><ele>1105.8</ele><time>2026-04-18T08:29:32Z</time></trkpt><trkpt lat="42.93476464876196" lon="12.96606886803586"><ele>1104.6</ele><time>2026-04-18T08:29:33Z</time></trkpt><trkpt lat="42.934691297240185" lon="12.965947052490566"><ele>1103.3999999999999</ele><time>2026-04-18T08:29:34Z</time></trkpt><trkpt lat="42.93460616201179" lon="12.965842283399867"><ele>1102.2</ele><time>2026-04-18T08:29:35Z</time></trkpt><trkpt lat="42.93452613604864" lon="12.965767056038144"><ele>1101.0</ele><time>2026-04-18T08:29:36Z</time></trkpt><trkpt lat="42.93443303046949" lon="12.965725186069013"><ele>1100.2</ele><time>2026-04-18T08:29:37Z</time></trkpt><trkpt lat="42.93432531385872" lon="12.965702289434079"><ele>1099.3999999999999</ele><time>2026-04-18T08:29:38Z</time></trkpt><trkpt lat="42.93421848492329" lon="12.965679040494225"><ele>1098.6</ele><time>2026-04-18T08:29:39Z</time></trkpt><trkpt lat="42.93411519840606" lon="12.965656132877392"><ele>1097.8</ele><time>2026-04-18T08:29:40Z</time></trkpt><trkpt lat="42.934011864280116" lon="12.96564555142917"><ele>1097.0</ele><time>2026-04-18T08:29:41Z</time></trkpt><trkpt lat="42.933913887587735" lon="12.965658845829667"><ele>1094.8</ele><time>2026-04-18T08:29:42Z</time></trkpt><trkpt lat="42.93381299838929" lon="12.965676285429904"><ele>1092.6</ele><time>2026-04-18T08:29:43Z</time></trkpt><trkpt lat="42.93370644054248" lon="12.965725993640548"><ele>1090.3999999999999</ele><time>2026-04-18T08:29:44Z</time></trkpt><trkpt lat="42.93360126879375" lon="12.965768986925646"><ele>1088.2</ele><time>2026-04-18T08:29:44.999Z</time></trkpt><trkpt lat="42.93350093580331" lon="12.965792156642417"><ele>1086.0</ele><time>2026-04-18T08:29:45.999Z</time></trkpt><trkpt lat="42.9333967203341" lon="12.965824263131845"><ele>1087.8</ele><time>2026-04-18T08:29:46.999Z</time></trkpt><trkpt lat="42.93330764341387" lon="12.96589318821263"><ele>1089.6</ele><time>2026-04-18T08:29:47.999Z</time></trkpt><trkpt lat="42.93322939790687" lon="12.965957389015932"><ele>1091.4</ele><time>2026-04-18T08:29:48.999Z</time></trkpt><trkpt lat="42.933125878383656" lon="12.965983319198658"><ele>1093.2</ele><time>2026-04-18T08:29:49.999Z</time></trkpt><trkpt lat="42.93302470734909" lon="12.965949270934924"><ele>1095.0</ele><time>2026-04-18T08:29:50.999Z</time></trkpt><trkpt lat="42.932905836926594" lon="12.965936449120411"><ele>1095.0</ele><time>2026-04-18T08:29:51.999Z</time></trkpt><trkpt lat="42.93281261039948" lon="12.965946257896313"><ele>1095.0</ele><time>2026-04-18T08:29:52.999Z</time></trkpt><trkpt lat="42.93270604842721" lon="12.965955342902104"><ele>1095.0</ele><time>2026-04-18T08:29:53.999Z</time></trkpt><trkpt lat="42.932593433486375" lon="12.965957351170735"><ele>1095.0</ele><time>2026-04-18T08:29:54.999Z</time></trkpt><trkpt lat="42.93247879551247" lon="12.965942808492692"><ele>1095.0</ele><time>2026-04-18T08:29:55.999Z</time></trkpt><trkpt lat="42.93237244318395" lon="12.965917347884927"><ele>1093.6</ele><time>2026-04-18T08:29:56.999Z</time></trkpt><trkpt lat="42.93226939496863" lon="12.965872327936541"><ele>1092.2</ele><time>2026-04-18T08:29:57.999Z</time></trkpt><trkpt lat="42.93217129790867" lon="12.965845390037117"><ele>1090.8</ele><time>2026-04-18T08:29:58.999Z</time></trkpt><trkpt lat="42.93206996950203" lon="12.965840047663942"><ele>1089.4</ele><time>2026-04-18T08:29:59.999Z</time></trkpt><trkpt lat="42.931968365908915" lon="12.965837581827271"><ele>1088.0</ele><time>2026-04-18T08:30:00.999Z</time></trkpt><trkpt lat="42.93187550914159" lon="12.965838417194128"><ele>1086.2</ele><time>2026-04-18T08:30:01.999Z</time></trkpt><trkpt lat="42.93178591598357" lon="12.965838403381786"><ele>1084.4</ele><time>2026-04-18T08:30:02.999Z</time></trkpt><trkpt lat="42.931703942272584" lon="12.965849526827329"><ele>1082.6000000000001</ele><time>2026-04-18T08:30:03.999Z</time></trkpt><trkpt lat="42.931610066563394" lon="12.965864546989392"><ele>1080.8</ele><time>2026-04-18T08:30:04.999Z</time></trkpt><trkpt lat="42.93152088850285" lon="12.965890423788556"><ele>1079.0</ele><time>2026-04-18T08:30:05.999Z</time></trkpt><trkpt lat="42.93143146541062" lon="12.96592571284001"><ele>1079.0</ele><time>2026-04-18T08:30:06.999Z</time></trkpt><trkpt lat="42.93135944268417" lon="12.96597035984324"><ele>1079.0</ele><time>2026-04-18T08:30:07.999Z</time></trkpt><trkpt lat="42.931288444511274" lon="12.966134427111127"><ele>1079.0</ele><time>2026-04-18T08:30:09.999Z</time></trkpt><trkpt lat="42.931251272050616" lon="12.96622937441558"><ele>1079.0</ele><time>2026-04-18T08:30:10.999Z</time></trkpt><trkpt lat="42.931220023220206" lon="12.96632681805304"><ele>1079.0</ele><time>2026-04-18T08:30:11.999Z</time></trkpt><trkpt lat="42.931186522436356" lon="12.966411571988033"><ele>1079.0</ele><time>2026-04-18T08:30:12.999Z</time></trkpt><trkpt lat="42.93112957762631" lon="12.96646673833291"><ele>1079.0</ele><time>2026-04-18T08:30:15.999Z</time></trkpt><trkpt lat="42.93107648941062" lon="12.966568409850069"><ele>1079.0</ele><time>2026-04-18T08:30:18.999Z</time></trkpt><trkpt lat="42.931008369482385" lon="12.966626170970432"><ele>1079.0</ele><time>2026-04-18T08:30:22Z</time></trkpt><trkpt lat="42.93092983176527" lon="12.96669182446511"><ele>1079.0</ele><time>2026-04-18T08:30:24Z</time></trkpt><trkpt lat="42.93083046689476" lon="12.96671635913829"><ele>1079.0</ele><time>2026-04-18T08:30:26Z</time></trkpt><trkpt lat="42.93074204888125" lon="12.966717481788658"><ele>1079.0</ele><time>2026-04-18T08:30:28Z</time></trkpt><trkpt lat="42.93063091796214" lon="12.966722457702645"><ele>1079.0</ele><time>2026-04-18T08:30:30Z</time></trkpt><trkpt lat="42.930485618131314" lon="12.966710496453633"><ele>1079.0</ele><time>2026-04-18T08:30:32Z</time></trkpt><trkpt lat="42.93039752441078" lon="12.966726535911677"><ele>1079.0</ele><time>2026-04-18T08:30:33Z</time></trkpt><trkpt lat="42.930300960982585" lon="12.96673757692612"><ele>1079.0</ele><time>2026-04-18T08:30:34Z</time></trkpt><trkpt lat="42.930207406704554" lon="12.96674211262979"><ele>1079.0</ele><time>2026-04-18T08:30:35Z</time></trkpt><trkpt lat="42.93010852869465" lon="12.966751639619853"><ele>1079.0</ele><time>2026-04-18T08:30:36Z</time></trkpt><trkpt lat="42.930009392005985" lon="12.966748424869557"><ele>1079.0</ele><time>2026-04-18T08:30:37Z</time></trkpt><trkpt lat="42.929929730546405" lon="12.966712383577558"><ele>1079.0</ele><time>2026-04-18T08:30:38Z</time></trkpt><trkpt lat="42.92984964821877" lon="12.966636405277976"><ele>1079.0</ele><time>2026-04-18T08:30:39Z</time></trkpt><trkpt lat="42.92977228061484" lon="12.96654139857491"><ele>1072.5</ele><time>2026-04-18T08:30:40Z</time></trkpt><trkpt lat="42.92968790202864" lon="12.966440919884302"><ele>1066.0</ele><time>2026-04-18T08:30:41Z</time></trkpt><trkpt lat="42.929600965794684" lon="12.966349512362074"><ele>1059.5</ele><time>2026-04-18T08:30:42Z</time></trkpt><trkpt lat="42.929501600016" lon="12.966255521019106"><ele>1053.0</ele><time>2026-04-18T08:30:43Z</time></trkpt><trkpt lat="42.92940406435555" lon="12.966164461561338"><ele>1053.0</ele><time>2026-04-18T08:30:44Z</time></trkpt><trkpt lat="42.92931543768401" lon="12.96607964943707"><ele>1053.0</ele><time>2026-04-18T08:30:45Z</time></trkpt><trkpt lat="42.92924364570018" lon="12.966000536732368"><ele>1053.0</ele><time>2026-04-18T08:30:46Z</time></trkpt><trkpt lat="42.92916511821324" lon="12.965910281712805"><ele>1053.0</ele><time>2026-04-18T08:30:47Z</time></trkpt><trkpt lat="42.92911282909266" lon="12.96582978736322"><ele>1053.0</ele><time>2026-04-18T08:30:48Z</time></trkpt><trkpt lat="42.929111404383974" lon="12.96566446242071"><ele>1051.2</ele><time>2026-04-18T08:30:51Z</time></trkpt><trkpt lat="42.9291434328243" lon="12.965550801532036"><ele>1049.4</ele><time>2026-04-18T08:30:52Z</time></trkpt><trkpt lat="42.92917897077897" lon="12.965422947069257"><ele>1047.6000000000001</ele><time>2026-04-18T08:30:53Z</time></trkpt><trkpt lat="42.9292150547576" lon="12.965287892945241"><ele>1045.8</ele><time>2026-04-18T08:30:54Z</time></trkpt><trkpt lat="42.92923898373929" lon="12.96513573682749"><ele>1044.0</ele><time>2026-04-18T08:30:55Z</time></trkpt><trkpt lat="42.92925676807166" lon="12.964974154179417"><ele>1041.25</ele><time>2026-04-18T08:30:56Z</time></trkpt><trkpt lat="42.92927403428262" lon="12.96480161337702"><ele>1038.5</ele><time>2026-04-18T08:30:57Z</time></trkpt><trkpt lat="42.92929344807481" lon="12.964625414502672"><ele>1035.75</ele><time>2026-04-18T08:30:58Z</time></trkpt><trkpt lat="42.9293105345329" lon="12.964443796507194"><ele>1033.0</ele><time>2026-04-18T08:30:59Z</time></trkpt><trkpt lat="42.929336207343674" lon="12.964261172364699"><ele>1031.25</ele><time>2026-04-18T08:31:00Z</time></trkpt><trkpt lat="42.92936277235978" lon="12.964070048598236"><ele>1029.5</ele><time>2026-04-18T08:31:01Z</time></trkpt><trkpt lat="42.92938087420049" lon="12.963884981951862"><ele>1027.75</ele><time>2026-04-18T08:31:02Z</time></trkpt><trkpt lat="42.929387164132876" lon="12.963705009723352"><ele>1026.0</ele><time>2026-04-18T08:31:03Z</time></trkpt><trkpt lat="42.92938022018564" lon="12.963529870069726"><ele>1026.75</ele><time>2026-04-18T08:31:04Z</time></trkpt><trkpt lat="42.92936114317111" lon="12.963356473590766"><ele>1027.5</ele><time>2026-04-18T08:31:05Z</time></trkpt><trkpt lat="42.929321156781945" lon="12.96319549867829"><ele>1028.25</ele><time>2026-04-18T08:31:06Z</time></trkpt><trkpt lat="42.92926312331386" lon="12.963048881843406"><ele>1029.0</ele><time>2026-04-18T08:31:07Z</time></trkpt><trkpt lat="42.92919776965909" lon="12.962914335223045"><ele>1029.0</ele><time>2026-04-18T08:31:08Z</time></trkpt><trkpt lat="42.929132206106026" lon="12.962789207768491"><ele>1029.0</ele><time>2026-04-18T08:31:09Z</time></trkpt><trkpt lat="42.92907653073549" lon="12.962679659401253"><ele>1029.0</ele><time>2026-04-18T08:31:10Z</time></trkpt><trkpt lat="42.92903740895476" lon="12.962579612001054"><ele>1029.0</ele><time>2026-04-18T08:31:11Z</time></trkpt><trkpt lat="42.92901217821661" lon="12.962491276979085"><ele>1029.0</ele><time>2026-04-18T08:31:12Z</time></trkpt><trkpt lat="42.92900256789816" lon="12.962332170388898"><ele>1028.0</ele><time>2026-04-18T08:31:14Z</time></trkpt><trkpt lat="42.929089049059925" lon="12.962228615737065"><ele>1027.0</ele><time>2026-04-18T08:31:16Z</time></trkpt><trkpt lat="42.929166989504886" lon="12.962237142194951"><ele>1026.0</ele><time>2026-04-18T08:31:17Z</time></trkpt><trkpt lat="42.92928575706505" lon="12.962276325835088"><ele>1025.0</ele><time>2026-04-18T08:31:19Z</time></trkpt><trkpt lat="42.92939165931788" lon="12.962304423036379"><ele>1024.0</ele><time>2026-04-18T08:31:21Z</time></trkpt><trkpt lat="42.92947206039261" lon="12.962282119086172"><ele>1020.0</ele><time>2026-04-18T08:31:22Z</time></trkpt><trkpt lat="42.92952808248228" lon="12.96165414137235"><ele>1020.0</ele><time>2026-04-18T08:31:23Z</time></trkpt><trkpt lat="42.929575943130295" lon="12.961584586067087"><ele>1020.0</ele><time>2026-04-18T08:31:24Z</time></trkpt><trkpt lat="42.92962045356406" lon="12.961506573340172"><ele>1020.0</ele><time>2026-04-18T08:31:25Z</time></trkpt><trkpt lat="42.92963711778274" lon="12.961405020597143"><ele>1020.0</ele><time>2026-04-18T08:31:26Z</time></trkpt><trkpt lat="42.92963342574472" lon="12.961296819595129"><ele>1020.0</ele><time>2026-04-18T08:31:27Z</time></trkpt><trkpt lat="42.92964138781029" lon="12.961155264926374"><ele>1020.0</ele><time>2026-04-18T08:31:28Z</time></trkpt><trkpt lat="42.929676553859835" lon="12.96100222306423"><ele>1020.8</ele><time>2026-04-18T08:31:29Z</time></trkpt><trkpt lat="42.929707561683045" lon="12.960863113057187"><ele>1021.6</ele><time>2026-04-18T08:31:30Z</time></trkpt><trkpt lat="42.929730926717426" lon="12.960731549242015"><ele>1022.4000000000001</ele><time>2026-04-18T08:31:31Z</time></trkpt><trkpt lat="42.929749414347754" lon="12.960607628957252"><ele>1023.2</ele><time>2026-04-18T08:31:32Z</time></trkpt><trkpt lat="42.9297767787768" lon="12.96048218020461"><ele>1024.0</ele><time>2026-04-18T08:31:33Z</time></trkpt><trkpt lat="42.92979859282708" lon="12.960321146386876"><ele>1024.0</ele><time>2026-04-18T08:31:34Z</time></trkpt><trkpt lat="42.92981417579796" lon="12.96017277374462"><ele>1024.0</ele><time>2026-04-18T08:31:35Z</time></trkpt><trkpt lat="42.9298223863815" lon="12.960048812106601"><ele>1024.0</ele><time>2026-04-18T08:31:36Z</time></trkpt><trkpt lat="42.929812544902944" lon="12.959922491310914"><ele>1024.0</ele><time>2026-04-18T08:31:37Z</time></trkpt><trkpt lat="42.92978099847977" lon="12.959791249312966"><ele>1024.0</ele><time>2026-04-18T08:31:38Z</time></trkpt><trkpt lat="42.9297242692736" lon="12.959661430040411"><ele>1024.0</ele><time>2026-04-18T08:31:39Z</time></trkpt><trkpt lat="42.929642930312625" lon="12.95954350227841"><ele>1024.0</ele><time>2026-04-18T08:31:40Z</time></trkpt><trkpt lat="42.92953995467947" lon="12.959436382107043"><ele>1024.0</ele><time>2026-04-18T08:31:41Z</time></trkpt><trkpt lat="42.92942314679092" lon="12.95933587076162"><ele>1024.0</ele><time>2026-04-18T08:31:42Z</time></trkpt><trkpt lat="42.9293295065721" lon="12.959225615038134"><ele>1024.0</ele><time>2026-04-18T08:31:43Z</time></trkpt><trkpt lat="42.929247215921265" lon="12.959101184513365"><ele>1024.0</ele><time>2026-04-18T08:31:44Z</time></trkpt><trkpt lat="42.929170821669985" lon="12.958987008421092"><ele>1024.0</ele><time>2026-04-18T08:31:45Z</time></trkpt><trkpt lat="42.92912237987827" lon="12.958868104007944"><ele>1024.0</ele><time>2026-04-18T08:31:46Z</time></trkpt><trkpt lat="42.929111016111506" lon="12.95873700867764"><ele>1024.0</ele><time>2026-04-18T08:31:47Z</time></trkpt><trkpt lat="42.92912955597296" lon="12.958592409567204"><ele>1023.9999999999999</ele><time>2026-04-18T08:31:48Z</time></trkpt><trkpt lat="42.92915535895512" lon="12.958490974098892"><ele>1024.0</ele><time>2026-04-18T08:31:49Z</time></trkpt><trkpt lat="42.92917133043355" lon="12.958373127806476"><ele>1024.0</ele><time>2026-04-18T08:31:51Z</time></trkpt><trkpt lat="42.92918383351815" lon="12.958273671299045"><ele>1024.0</ele><time>2026-04-18T08:31:52.999Z</time></trkpt><trkpt lat="42.9291827141305" lon="12.958141319182934"><ele>1023.9999999999999</ele><time>2026-04-18T08:31:54.999Z</time></trkpt><trkpt lat="42.92918026351089" lon="12.958047784885919"><ele>1024.0</ele><time>2026-04-18T08:31:55.999Z</time></trkpt><trkpt lat="42.92918487165984" lon="12.957945747977563"><ele>1023.6</ele><time>2026-04-18T08:31:56.999Z</time></trkpt><trkpt lat="42.92919728561211" lon="12.957845705606594"><ele>1023.2</ele><time>2026-04-18T08:31:57.999Z</time></trkpt><trkpt lat="42.92918493763524" lon="12.957726959817796"><ele>1022.8000000000001</ele><time>2026-04-18T08:31:58.999Z</time></trkpt><trkpt lat="42.92915262349384" lon="12.957595064129181"><ele>1022.4000000000001</ele><time>2026-04-18T08:31:59.999Z</time></trkpt><trkpt lat="42.92912307911488" lon="12.957452800692305"><ele>1022.0</ele><time>2026-04-18T08:32:00.999Z</time></trkpt><trkpt lat="42.929111791286275" lon="12.957290736383284"><ele>1020.5</ele><time>2026-04-18T08:32:01.999Z</time></trkpt><trkpt lat="42.92912780626993" lon="12.957100235279484"><ele>1019.0</ele><time>2026-04-18T08:32:02.999Z</time></trkpt><trkpt lat="42.92916575819978" lon="12.956907155046116"><ele>1017.5</ele><time>2026-04-18T08:32:03.999Z</time></trkpt><trkpt lat="42.92920884105634" lon="12.956721509131635"><ele>1016.0</ele><time>2026-04-18T08:32:04.999Z</time></trkpt><trkpt lat="42.92924229355616" lon="12.956545101773594"><ele>1014.25</ele><time>2026-04-18T08:32:05.999Z</time></trkpt><trkpt lat="42.929269695342086" lon="12.956389531524067"><ele>1012.5</ele><time>2026-04-18T08:32:06.999Z</time></trkpt><trkpt lat="42.92928451466313" lon="12.956233142559032"><ele>1010.75</ele><time>2026-04-18T08:32:07.999Z</time></trkpt><trkpt lat="42.929277702725244" lon="12.956060707265502"><ele>1009.0</ele><time>2026-04-18T08:32:08.999Z</time></trkpt><trkpt lat="42.929284264448825" lon="12.955907683253937"><ele>1008.4000000000001</ele><time>2026-04-18T08:32:09.999Z</time></trkpt><trkpt lat="42.92931795125139" lon="12.955755938386211"><ele>1007.8000000000001</ele><time>2026-04-18T08:32:10.999Z</time></trkpt><trkpt lat="42.929372211154515" lon="12.955618256351297"><ele>1007.1999999999999</ele><time>2026-04-18T08:32:11.999Z</time></trkpt><trkpt lat="42.92942363830226" lon="12.95549979001317"><ele>1006.5999999999999</ele><time>2026-04-18T08:32:12.999Z</time></trkpt><trkpt lat="42.92946387652753" lon="12.955382790625846"><ele>1006.0</ele><time>2026-04-18T08:32:13.999Z</time></trkpt><trkpt lat="42.92942484114418" lon="12.955260224604116"><ele>1005.9999999999999</ele><time>2026-04-18T08:32:15.999Z</time></trkpt><trkpt lat="42.9293889964609" lon="12.955176578337664"><ele>1006.0</ele><time>2026-04-18T08:32:16.999Z</time></trkpt><trkpt lat="42.92937575982394" lon="12.955076718933709"><ele>1006.0</ele><time>2026-04-18T08:32:17.998Z</time></trkpt><trkpt lat="42.92936379778752" lon="12.95496341125639"><ele>1006.0</ele><time>2026-04-18T08:32:18.998Z</time></trkpt><trkpt lat="42.92932859461903" lon="12.954870142532226"><ele>1005.9999999999999</ele><time>2026-04-18T08:32:19.998Z</time></trkpt><trkpt lat="42.92928917497576" lon="12.95477448834133"><ele>1006.0</ele><time>2026-04-18T08:32:20.998Z</time></trkpt><trkpt lat="42.92924815438852" lon="12.95468807310035"><ele>1006.0</ele><time>2026-04-18T08:32:21.998Z</time></trkpt><trkpt lat="42.9292001002574" lon="12.9545775425088"><ele>1005.9999999999999</ele><time>2026-04-18T08:32:22.998Z</time></trkpt><trkpt lat="42.92915750999491" lon="12.954465264836262"><ele>1005.9999999999999</ele><time>2026-04-18T08:32:23.998Z</time></trkpt><trkpt lat="42.92911543162586" lon="12.95434819804305"><ele>1006.0</ele><time>2026-04-18T08:32:24.999Z</time></trkpt><trkpt lat="42.92907299317448" lon="12.954236492818156"><ele>1006.0</ele><time>2026-04-18T08:32:25.999Z</time></trkpt><trkpt lat="42.92903032511249" lon="12.954125800015856"><ele>1006.1666666666666</ele><time>2026-04-18T08:32:26.999Z</time></trkpt><trkpt lat="42.92898291285415" lon="12.95402734090849"><ele>1006.3333333333333</ele><time>2026-04-18T08:32:27.999Z</time></trkpt><trkpt lat="42.92892200688412" lon="12.953938253651396"><ele>1006.5</ele><time>2026-04-18T08:32:28.999Z</time></trkpt><trkpt lat="42.92887217958847" lon="12.953857766587507"><ele>1006.6666666666667</ele><time>2026-04-18T08:32:29.999Z</time></trkpt><trkpt lat="42.92883703706295" lon="12.953761584228232"><ele>1006.8333333333334</ele><time>2026-04-18T08:32:30.999Z</time></trkpt><trkpt lat="42.92880818182011" lon="12.953650244510785"><ele>1007.0</ele><time>2026-04-18T08:32:32.999Z</time></trkpt><trkpt lat="42.92878609827395" lon="12.953548310807388"><ele>1007.0000000000001</ele><time>2026-04-18T08:32:36.999Z</time></trkpt><trkpt lat="42.928747438327385" lon="12.953445962400407"><ele>1007.0</ele><time>2026-04-18T08:32:38.999Z</time></trkpt><trkpt lat="42.928697947244956" lon="12.95327591703488"><ele>1007.0</ele><time>2026-04-18T08:32:40.999Z</time></trkpt><trkpt lat="42.928677370111785" lon="12.953185150187569"><ele>1007.0</ele><time>2026-04-18T08:32:41.999Z</time></trkpt><trkpt lat="42.92866286157295" lon="12.953087733886953"><ele>1007.0000000000001</ele><time>2026-04-18T08:32:42.999Z</time></trkpt><trkpt lat="42.92864692812576" lon="12.952987843328746"><ele>1007.0</ele><time>2026-04-18T08:32:43.999Z</time></trkpt><trkpt lat="42.92863209992476" lon="12.952883377378638"><ele>1007.0000000000001</ele><time>2026-04-18T08:32:44.999Z</time></trkpt><trkpt lat="42.928617398969195" lon="12.952766592373306"><ele>1007.0</ele><time>2026-04-18T08:32:45.999Z</time></trkpt><trkpt lat="42.928589458064785" lon="12.952653873211784"><ele>1007.0</ele><time>2026-04-18T08:32:46.999Z</time></trkpt><trkpt lat="42.92855408000785" lon="12.952574399981026"><ele>1007.0</ele><time>2026-04-18T08:32:47.999Z</time></trkpt><trkpt lat="42.928512133856394" lon="12.952496823176308"><ele>1007.0000000000001</ele><time>2026-04-18T08:32:49.999Z</time></trkpt><trkpt lat="42.928479707189126" lon="12.952369183541046"><ele>1007.0</ele><time>2026-04-18T08:32:51.999Z</time></trkpt><trkpt lat="42.928446169057594" lon="12.95225715876041"><ele>1007.0</ele><time>2026-04-18T08:32:53.999Z</time></trkpt><trkpt lat="42.92841935148879" lon="12.952152619977152"><ele>1007.0</ele><time>2026-04-18T08:32:55.999Z</time></trkpt><trkpt lat="42.928415660395665" lon="12.952061857295655"><ele>1007.0</ele><time>2026-04-18T08:32:57.999Z</time></trkpt><trkpt lat="42.9283615904899" lon="12.951995762417727"><ele>1007.0</ele><time>2026-04-18T08:33:05.999Z</time></trkpt><trkpt lat="42.92829455513374" lon="12.951975441645383"><ele>1007.0</ele><time>2026-04-18T08:33:09.999Z</time></trkpt><trkpt lat="42.92823418853618" lon="12.95193811540319"><ele>1007.0</ele><time>2026-04-18T08:33:11.999Z</time></trkpt><trkpt lat="42.92818597847027" lon="12.951876047287518"><ele>1007.0</ele><time>2026-04-18T08:33:13.999Z</time></trkpt><trkpt lat="42.92813131825934" lon="12.9518221689663"><ele>1003.8333333333334</ele><time>2026-04-18T08:33:16.999Z</time></trkpt><trkpt lat="42.92818298657805" lon="12.951761913165535"><ele>1000.6666666666667</ele><time>2026-04-18T08:33:26.999Z</time></trkpt><trkpt lat="42.928265732492704" lon="12.951764258213194"><ele>997.5</ele><time>2026-04-18T08:33:28.999Z</time></trkpt><trkpt lat="42.92833021118088" lon="12.951701103423703"><ele>994.3333333333333</ele><time>2026-04-18T08:33:31.999Z</time></trkpt><trkpt lat="42.928319561703454" lon="12.951583296301687"><ele>991.1666666666666</ele><time>2026-04-18T08:33:34.999Z</time></trkpt><trkpt lat="42.928268406230465" lon="12.951490369890623"><ele>988.0</ele><time>2026-04-18T08:33:36.999Z</time></trkpt><trkpt lat="42.928238114527225" lon="12.95138719459806"><ele>987.9999999999999</ele><time>2026-04-18T08:33:38.999Z</time></trkpt><trkpt lat="42.928223548360364" lon="12.951300686171955"><ele>988.0</ele><time>2026-04-18T08:33:40.999Z</time></trkpt><trkpt lat="42.92816212029352" lon="12.951238292573764"><ele>988.0</ele><time>2026-04-18T08:33:42.999Z</time></trkpt><trkpt lat="42.928139829856576" lon="12.951130429418718"><ele>988.0</ele><time>2026-04-18T08:33:44.999Z</time></trkpt><trkpt lat="42.92809887978625" lon="12.95103035966381"><ele>987.9999999999999</ele><time>2026-04-18T08:33:46.999Z</time></trkpt><trkpt lat="42.928059370502424" lon="12.950927084889964"><ele>988.0</ele><time>2026-04-18T08:33:48.999Z</time></trkpt><trkpt lat="42.928028495435804" lon="12.950827517916085"><ele>989.8333333333333</ele><time>2026-04-18T08:33:50.999Z</time></trkpt><trkpt lat="42.928013788336884" lon="12.950733145633654"><ele>991.6666666666666</ele><time>2026-04-18T08:33:52.999Z</time></trkpt><trkpt lat="42.92796603102593" lon="12.95066340268218"><ele>993.5</ele><time>2026-04-18T08:33:54.999Z</time></trkpt><trkpt lat="42.92794731998769" lon="12.950551837590728"><ele>995.3333333333333</ele><time>2026-04-18T08:33:56.999Z</time></trkpt><trkpt lat="42.9278858376391" lon="12.950440955740467"><ele>997.1666666666666</ele><time>2026-04-18T08:33:58.999Z</time></trkpt><trkpt lat="42.92784790854631" lon="12.950333030379275"><ele>999.0</ele><time>2026-04-18T08:34:00.999Z</time></trkpt><trkpt lat="42.92782988065778" lon="12.950227423696473"><ele>999.0</ele><time>2026-04-18T08:34:02.998Z</time></trkpt><trkpt lat="42.927830221450414" lon="12.95011960077441"><ele>999.0000000000001</ele><time>2026-04-18T08:34:04.998Z</time></trkpt><trkpt lat="42.92785784204197" lon="12.949998369658228"><ele>999.0000000000001</ele><time>2026-04-18T08:34:06.998Z</time></trkpt><trkpt lat="42.927901930347254" lon="12.949886398696528"><ele>999.0</ele><time>2026-04-18T08:34:08.998Z</time></trkpt><trkpt lat="42.927909197243764" lon="12.949776290637073"><ele>999.0</ele><time>2026-04-18T08:34:11.998Z</time></trkpt><trkpt lat="42.92781419477663" lon="12.949692218362006"><ele>999.0</ele><time>2026-04-18T08:34:13.998Z</time></trkpt><trkpt lat="42.9277322000436" lon="12.949657436197885"><ele>999.0</ele><time>2026-04-18T08:34:14.998Z</time></trkpt><trkpt lat="42.927632621608865" lon="12.94963798989164"><ele>999.0</ele><time>2026-04-18T08:34:15.998Z</time></trkpt><trkpt lat="42.92752246418949" lon="12.949624293818166"><ele>999.0</ele><time>2026-04-18T08:34:16.998Z</time></trkpt><trkpt lat="42.92743779766944" lon="12.949599994652408"><ele>999.0</ele><time>2026-04-18T08:34:17.998Z</time></trkpt><trkpt lat="42.927373938050266" lon="12.949609895274634"><ele>999.0</ele><time>2026-04-18T08:34:18.998Z</time></trkpt><trkpt lat="42.927306444913356" lon="12.949662745006012"><ele>999.0</ele><time>2026-04-18T08:34:19.998Z</time></trkpt><trkpt lat="42.927203508264405" lon="12.949698845391866"><ele>999.0</ele><time>2026-04-18T08:34:20.998Z</time></trkpt><trkpt lat="42.92706398087943" lon="12.949644178518652"><ele>999.0</ele><time>2026-04-18T08:34:21.998Z</time></trkpt><trkpt lat="42.92695256257827" lon="12.94959091508712"><ele>999.0</ele><time>2026-04-18T08:34:22.998Z</time></trkpt><trkpt lat="42.926854278778464" lon="12.949562777996515"><ele>999.0</ele><time>2026-04-18T08:34:23.998Z</time></trkpt><trkpt lat="42.92674973198" lon="12.949547845832413"><ele>999.0000000000001</ele><time>2026-04-18T08:34:24.998Z</time></trkpt><trkpt lat="42.92664013623304" lon="12.949524470925711"><ele>999.0000000000001</ele><time>2026-04-18T08:34:25.998Z</time></trkpt><trkpt lat="42.92653272501223" lon="12.949495884014851"><ele>999.0</ele><time>2026-04-18T08:34:26.998Z</time></trkpt><trkpt lat="42.926418608385134" lon="12.949497465150062"><ele>999.0</ele><time>2026-04-18T08:34:27.998Z</time></trkpt><trkpt lat="42.9263038928573" lon="12.949491156073083"><ele>999.0</ele><time>2026-04-18T08:34:28.998Z</time></trkpt><trkpt lat="42.92618592044294" lon="12.949468417858498"><ele>999.0</ele><time>2026-04-18T08:34:29.998Z</time></trkpt><trkpt lat="42.92607674217069" lon="12.949435362243298"><ele>999.0</ele><time>2026-04-18T08:34:31Z</time></trkpt><trkpt lat="42.925981513407585" lon="12.949386751605266"><ele>999.0</ele><time>2026-04-18T08:34:32Z</time></trkpt><trkpt lat="42.92587861413699" lon="12.949310743075076"><ele>999.25</ele><time>2026-04-18T08:34:33Z</time></trkpt><trkpt lat="42.925749800761984" lon="12.949298143956264"><ele>999.5</ele><time>2026-04-18T08:34:34Z</time></trkpt><trkpt lat="42.92563321418055" lon="12.949286125216691"><ele>999.75</ele><time>2026-04-18T08:34:35Z</time></trkpt><trkpt lat="42.925515974518156" lon="12.949307017408497"><ele>1000.0</ele><time>2026-04-18T08:34:36Z</time></trkpt><trkpt lat="42.92540750548798" lon="12.949325964643984"><ele>1000.0</ele><time>2026-04-18T08:34:37Z</time></trkpt><trkpt lat="42.92531074557874" lon="12.949322409224784"><ele>1000.0</ele><time>2026-04-18T08:34:38Z</time></trkpt><trkpt lat="42.92521796830652" lon="12.949326690920193"><ele>1000.0</ele><time>2026-04-18T08:34:39Z</time></trkpt><trkpt lat="42.92512418143459" lon="12.949361318603751"><ele>1000.0</ele><time>2026-04-18T08:34:40Z</time></trkpt><trkpt lat="42.92501940781449" lon="12.949396391543905"><ele>1000.0</ele><time>2026-04-18T08:34:41Z</time></trkpt><trkpt lat="42.924892044460414" lon="12.94940316215273"><ele>1000.2</ele><time>2026-04-18T08:34:42Z</time></trkpt><trkpt lat="42.9247724597689" lon="12.949381153620399"><ele>1000.4</ele><time>2026-04-18T08:34:43Z</time></trkpt><trkpt lat="42.924674471798006" lon="12.9493425780736"><ele>1000.5999999999999</ele><time>2026-04-18T08:34:44Z</time></trkpt><trkpt lat="42.92459931972142" lon="12.949265234040226"><ele>1000.8</ele><time>2026-04-18T08:34:45Z</time></trkpt><trkpt lat="42.92453736002881" lon="12.949145092784795"><ele>1001.0</ele><time>2026-04-18T08:34:46Z</time></trkpt><trkpt lat="42.924478215159816" lon="12.948985525122033"><ele>1000.1999999999999</ele><time>2026-04-18T08:34:47Z</time></trkpt><trkpt lat="42.924427516082524" lon="12.948827394251998"><ele>999.3999999999999</ele><time>2026-04-18T08:34:48Z</time></trkpt><trkpt lat="42.92437073501453" lon="12.948684429777137"><ele>998.6</ele><time>2026-04-18T08:34:49Z</time></trkpt><trkpt lat="42.92431284199125" lon="12.948573905726743"><ele>997.8</ele><time>2026-04-18T08:34:49.999Z</time></trkpt><trkpt lat="42.92428884344805" lon="12.948476974821943"><ele>997.0</ele><time>2026-04-18T08:34:50.999Z</time></trkpt><trkpt lat="42.924326697175104" lon="12.948374414503128"><ele>995.4000000000001</ele><time>2026-04-18T08:34:51.999Z</time></trkpt><trkpt lat="42.92437086065177" lon="12.948240654635308"><ele>993.8000000000001</ele><time>2026-04-18T08:34:52.999Z</time></trkpt><trkpt lat="42.924356523362434" lon="12.948100139199841"><ele>992.2</ele><time>2026-04-18T08:34:53.999Z</time></trkpt><trkpt lat="42.92434304356184" lon="12.947924265692622"><ele>990.6</ele><time>2026-04-18T08:34:54.999Z</time></trkpt><trkpt lat="42.924308227032185" lon="12.9477912156944"><ele>989.0</ele><time>2026-04-18T08:34:55.999Z</time></trkpt><trkpt lat="42.92427118220625" lon="12.947678273605954"><ele>989.25</ele><time>2026-04-18T08:34:56.999Z</time></trkpt><trkpt lat="42.924196904771" lon="12.947556529888725"><ele>989.5</ele><time>2026-04-18T08:34:57.999Z</time></trkpt><trkpt lat="42.92410841261866" lon="12.94743654083629"><ele>989.75</ele><time>2026-04-18T08:34:58.999Z</time></trkpt><trkpt lat="42.924042110572955" lon="12.947314990807941"><ele>990.0</ele><time>2026-04-18T08:34:59.999Z</time></trkpt><trkpt lat="42.92398076169942" lon="12.947195573181055"><ele>986.6</ele><time>2026-04-18T08:35:00.999Z</time></trkpt><trkpt lat="42.92390664410563" lon="12.947101864344809"><ele>983.2</ele><time>2026-04-18T08:35:01.999Z</time></trkpt><trkpt lat="42.92381865558823" lon="12.947020910650219"><ele>979.8</ele><time>2026-04-18T08:35:02.999Z</time></trkpt><trkpt lat="42.92374145556859" lon="12.946931438666159"><ele>976.4</ele><time>2026-04-18T08:35:03.999Z</time></trkpt><trkpt lat="42.923657963170186" lon="12.946807125203184"><ele>973.0</ele><time>2026-04-18T08:35:04.999Z</time></trkpt><trkpt lat="42.92359015368165" lon="12.946680026396018"><ele>973.0</ele><time>2026-04-18T08:35:05.999Z</time></trkpt><trkpt lat="42.92351607501444" lon="12.94655889866334"><ele>973.0</ele><time>2026-04-18T08:35:06.999Z</time></trkpt><trkpt lat="42.92344410969625" lon="12.946454875731728"><ele>973.0</ele><time>2026-04-18T08:35:07.999Z</time></trkpt><trkpt lat="42.92337723708837" lon="12.946338347596202"><ele>973.0</ele><time>2026-04-18T08:35:08.999Z</time></trkpt><trkpt lat="42.92330219086483" lon="12.946225423727917"><ele>973.0</ele><time>2026-04-18T08:35:09.999Z</time></trkpt><trkpt lat="42.923235083811356" lon="12.946110950939923"><ele>973.0</ele><time>2026-04-18T08:35:10.999Z</time></trkpt><trkpt lat="42.92316711988668" lon="12.94601224674651"><ele>973.0</ele><time>2026-04-18T08:35:11.999Z</time></trkpt><trkpt lat="42.923095126180236" lon="12.945913786149568"><ele>973.0</ele><time>2026-04-18T08:35:12.999Z</time></trkpt><trkpt lat="42.92302643687737" lon="12.945820121730646"><ele>973.0</ele><time>2026-04-18T08:35:13.999Z</time></trkpt><trkpt lat="42.922960289123154" lon="12.945705565762607"><ele>973.0</ele><time>2026-04-18T08:35:14.999Z</time></trkpt><trkpt lat="42.922890139545856" lon="12.945605880953135"><ele>972.8</ele><time>2026-04-18T08:35:15.999Z</time></trkpt><trkpt lat="42.92281809513456" lon="12.94551359576987"><ele>972.5999999999999</ele><time>2026-04-18T08:35:16.999Z</time></trkpt><trkpt lat="42.92274880181324" lon="12.945430053071172"><ele>972.4000000000001</ele><time>2026-04-18T08:35:17.999Z</time></trkpt><trkpt lat="42.92267473608884" lon="12.945349078088013"><ele>972.2</ele><time>2026-04-18T08:35:18.999Z</time></trkpt><trkpt lat="42.92259897721584" lon="12.945270447827802"><ele>972.0</ele><time>2026-04-18T08:35:19.999Z</time></trkpt><trkpt lat="42.92253116110994" lon="12.945191496796205"><ele>972.0</ele><time>2026-04-18T08:35:20.999Z</time></trkpt><trkpt lat="42.92245293955628" lon="12.945113489053202"><ele>972.0</ele><time>2026-04-18T08:35:21.999Z</time></trkpt><trkpt lat="42.922379522450285" lon="12.945040425890149"><ele>972.0</ele><time>2026-04-18T08:35:22.999Z</time></trkpt><trkpt lat="42.92230901297286" lon="12.944968856116942"><ele>972.0</ele><time>2026-04-18T08:35:23.999Z</time></trkpt><trkpt lat="42.92223428221818" lon="12.94488521746261"><ele>972.0</ele><time>2026-04-18T08:35:24.999Z</time></trkpt><trkpt lat="42.92216325092893" lon="12.944796621672532"><ele>968.0</ele><time>2026-04-18T08:35:25.999Z</time></trkpt><trkpt lat="42.922085133784144" lon="12.944715952880978"><ele>964.0</ele><time>2026-04-18T08:35:26.999Z</time></trkpt><trkpt lat="42.92199503564702" lon="12.944658502575301"><ele>960.0</ele><time>2026-04-18T08:35:27.999Z</time></trkpt><trkpt lat="42.921895597248806" lon="12.944597646466999"><ele>956.0</ele><time>2026-04-18T08:35:28.999Z</time></trkpt><trkpt lat="42.92178546980198" lon="12.944511683387852"><ele>952.0</ele><time>2026-04-18T08:35:29.999Z</time></trkpt><trkpt lat="42.92168547854634" lon="12.94442734608208"><ele>952.0</ele><time>2026-04-18T08:35:30.999Z</time></trkpt><trkpt lat="42.921581638918475" lon="12.944350305672364"><ele>952.0</ele><time>2026-04-18T08:35:31.999Z</time></trkpt><trkpt lat="42.92148109087996" lon="12.944283876997345"><ele>952.0</ele><time>2026-04-18T08:35:32.999Z</time></trkpt><trkpt lat="42.92137996410393" lon="12.944213287930397"><ele>952.0</ele><time>2026-04-18T08:35:33.999Z</time></trkpt><trkpt lat="42.92128097403979" lon="12.944162774195057"><ele>952.0</ele><time>2026-04-18T08:35:34.999Z</time></trkpt><trkpt lat="42.92118844916728" lon="12.944110009999594"><ele>945.25</ele><time>2026-04-18T08:35:35.999Z</time></trkpt><trkpt lat="42.92109681186565" lon="12.944041984272484"><ele>938.5</ele><time>2026-04-18T08:35:36.999Z</time></trkpt><trkpt lat="42.9210032586221" lon="12.943934047448268"><ele>931.75</ele><time>2026-04-18T08:35:37.999Z</time></trkpt><trkpt lat="42.92091923803244" lon="12.943818124180762"><ele>925.0</ele><time>2026-04-18T08:35:38.999Z</time></trkpt><trkpt lat="42.92084155490961" lon="12.943693139322447"><ele>923.5</ele><time>2026-04-18T08:35:39.999Z</time></trkpt><trkpt lat="42.92076494058411" lon="12.943565064399"><ele>922.0</ele><time>2026-04-18T08:35:40.999Z</time></trkpt><trkpt lat="42.92068210941928" lon="12.94342073779565"><ele>920.5</ele><time>2026-04-18T08:35:41.999Z</time></trkpt><trkpt lat="42.92060940680437" lon="12.943289449082856"><ele>919.0</ele><time>2026-04-18T08:35:42.999Z</time></trkpt><trkpt lat="42.92056190775621" lon="12.943212298368646"><ele>916.8333333333333</ele><time>2026-04-18T08:35:43.999Z</time></trkpt><trkpt lat="42.92051369273142" lon="12.94314567986253"><ele>914.6666666666666</ele><time>2026-04-18T08:36:13.998Z</time></trkpt><trkpt lat="42.92046343463563" lon="12.943067236917896"><ele>912.5</ele><time>2026-04-18T08:36:15.998Z</time></trkpt><trkpt lat="42.92039831774226" lon="12.942996203821341"><ele>910.3333333333333</ele><time>2026-04-18T08:36:17.998Z</time></trkpt><trkpt lat="42.92035577658611" lon="12.942868336081366"><ele>908.1666666666666</ele><time>2026-04-18T08:36:19.998Z</time></trkpt><trkpt lat="42.92033640223225" lon="12.942753402934503"><ele>906.0</ele><time>2026-04-18T08:36:21.998Z</time></trkpt><trkpt lat="42.92032139220747" lon="12.942663891339832"><ele>904.9999999999999</ele><time>2026-04-18T08:36:26.998Z</time></trkpt><trkpt lat="42.92035367739667" lon="12.94254662056032"><ele>904.0</ele><time>2026-04-18T08:36:29.998Z</time></trkpt><trkpt lat="42.92031394163345" lon="12.942473589174988"><ele>902.9999999999999</ele><time>2026-04-18T08:36:32.998Z</time></trkpt><trkpt lat="42.92026079266279" lon="12.942410666499178"><ele>901.9999999999999</ele><time>2026-04-18T08:36:34.998Z</time></trkpt><trkpt lat="42.92019878182732" lon="12.942384006754374"><ele>901.0</ele><time>2026-04-18T08:36:36Z</time></trkpt><trkpt lat="42.92011909721953" lon="12.942334279820424"><ele>899.9999999999999</ele><time>2026-04-18T08:36:39Z</time></trkpt><trkpt lat="42.920100615816594" lon="12.942246644751368"><ele>898.9999999999999</ele><time>2026-04-18T08:36:40Z</time></trkpt><trkpt lat="42.92000304237229" lon="12.942177847907397"><ele>904.2</ele><time>2026-04-18T08:36:42Z</time></trkpt><trkpt lat="42.919920706404106" lon="12.942044045106297"><ele>909.4000000000001</ele><time>2026-04-18T08:36:44Z</time></trkpt><trkpt lat="42.91982638708843" lon="12.94196734296349"><ele>914.6</ele><time>2026-04-18T08:36:46Z</time></trkpt><trkpt lat="42.919765066344176" lon="12.941921121583123"><ele>919.8</ele><time>2026-04-18T08:36:47Z</time></trkpt><trkpt lat="42.9196889788071" lon="12.94186215770243"><ele>925.0</ele><time>2026-04-18T08:36:48Z</time></trkpt><trkpt lat="42.91959947868877" lon="12.941804949022526"><ele>925.0</ele><time>2026-04-18T08:36:49Z</time></trkpt><trkpt lat="42.91952092706482" lon="12.941759983646168"><ele>925.0</ele><time>2026-04-18T08:36:50Z</time></trkpt><trkpt lat="42.91944923737364" lon="12.941724334220055"><ele>925.0</ele><time>2026-04-18T08:36:51Z</time></trkpt><trkpt lat="42.91938425277438" lon="12.941686518996782"><ele>925.0</ele><time>2026-04-18T08:36:52Z</time></trkpt><trkpt lat="42.91931672469579" lon="12.941648531278883"><ele>925.0</ele><time>2026-04-18T08:36:53Z</time></trkpt><trkpt lat="42.919246098497815" lon="12.941624699431294"><ele>925.0</ele><time>2026-04-18T08:36:54Z</time></trkpt><trkpt lat="42.91917880603174" lon="12.94159960640385"><ele>925.0</ele><time>2026-04-18T08:36:55Z</time></trkpt><trkpt lat="42.919064905934775" lon="12.941523577779371"><ele>928.4999999999999</ele><time>2026-04-18T08:36:57Z</time></trkpt><trkpt lat="42.918991195633424" lon="12.941494501098813"><ele>932.0</ele><time>2026-04-18T08:36:58Z</time></trkpt><trkpt lat="42.9189080866202" lon="12.941480463794813"><ele>935.5</ele><time>2026-04-18T08:36:59Z</time></trkpt><trkpt lat="42.91882584886979" lon="12.941465756703028"><ele>939.0</ele><time>2026-04-18T08:36:59.999Z</time></trkpt><trkpt lat="42.918744376407474" lon="12.941445559406908"><ele>942.4999999999999</ele><time>2026-04-18T08:37:00.999Z</time></trkpt><trkpt lat="42.918679716208686" lon="12.94143260245079"><ele>946.0</ele><time>2026-04-18T08:37:01.999Z</time></trkpt><trkpt lat="42.918599902414805" lon="12.941394642932014"><ele>945.9999999999999</ele><time>2026-04-18T08:37:02.999Z</time></trkpt><trkpt lat="42.91852500561013" lon="12.941355170426347"><ele>946.0</ele><time>2026-04-18T08:37:03.999Z</time></trkpt><trkpt lat="42.918448012711124" lon="12.941320338922603"><ele>946.0</ele><time>2026-04-18T08:37:04.999Z</time></trkpt><trkpt lat="42.91836558858039" lon="12.94130987895021"><ele>946.0</ele><time>2026-04-18T08:37:05.999Z</time></trkpt><trkpt lat="42.918278412628354" lon="12.941294435409919"><ele>945.9999999999999</ele><time>2026-04-18T08:37:06.999Z</time></trkpt><trkpt lat="42.918178523537584" lon="12.941278150229746"><ele>946.0</ele><time>2026-04-18T08:37:07.999Z</time></trkpt><trkpt lat="42.918100350893745" lon="12.941257915260527"><ele>947.1666666666666</ele><time>2026-04-18T08:37:08.999Z</time></trkpt><trkpt lat="42.91801982279442" lon="12.941241957998095"><ele>948.3333333333333</ele><time>2026-04-18T08:37:09.999Z</time></trkpt><trkpt lat="42.91794931222061" lon="12.941231156155467"><ele>949.5</ele><time>2026-04-18T08:37:10.999Z</time></trkpt><trkpt lat="42.91787845892772" lon="12.941201706744419"><ele>950.6666666666667</ele><time>2026-04-18T08:37:11.999Z</time></trkpt><trkpt lat="42.91780434673635" lon="12.941153738460676"><ele>951.8333333333334</ele><time>2026-04-18T08:37:12.999Z</time></trkpt><trkpt lat="42.91774042881807" lon="12.941111207526772"><ele>953.0</ele><time>2026-04-18T08:37:13.999Z</time></trkpt><trkpt lat="42.91765793779128" lon="12.941089984239177"><ele>953.0</ele><time>2026-04-18T08:37:14.999Z</time></trkpt><trkpt lat="42.91756932041349" lon="12.941092080680702"><ele>953.0</ele><time>2026-04-18T08:37:15.999Z</time></trkpt><trkpt lat="42.917468613067825" lon="12.941078158411418"><ele>953.0</ele><time>2026-04-18T08:37:16.999Z</time></trkpt><trkpt lat="42.91736950876619" lon="12.941043967976366"><ele>953.0</ele><time>2026-04-18T08:37:17.999Z</time></trkpt><trkpt lat="42.91727886066814" lon="12.941033655234637"><ele>953.0</ele><time>2026-04-18T08:37:18.999Z</time></trkpt><trkpt lat="42.91720488591954" lon="12.9410225786769"><ele>952.6666666666667</ele><time>2026-04-18T08:37:19.999Z</time></trkpt><trkpt lat="42.91709454623407" lon="12.94099975953745"><ele>952.3333333333334</ele><time>2026-04-18T08:37:21.999Z</time></trkpt><trkpt lat="42.91701529550228" lon="12.940950356554188"><ele>952.0</ele><time>2026-04-18T08:37:23.999Z</time></trkpt><trkpt lat="42.91694193846212" lon="12.940964740701853"><ele>951.6666666666667</ele><time>2026-04-18T08:37:24.999Z</time></trkpt><trkpt lat="42.91683957958212" lon="12.940952776182472"><ele>951.3333333333334</ele><time>2026-04-18T08:37:25.999Z</time></trkpt><trkpt lat="42.91677290435374" lon="12.940962677148372"><ele>951.0</ele><time>2026-04-18T08:37:27.999Z</time></trkpt><trkpt lat="42.91667062049008" lon="12.94099497282397"><ele>949.8</ele><time>2026-04-18T08:37:29.999Z</time></trkpt><trkpt lat="42.91656153409662" lon="12.94097403471284"><ele>948.5999999999999</ele><time>2026-04-18T08:37:31.999Z</time></trkpt><trkpt lat="42.91646764745516" lon="12.94090531428306"><ele>947.4</ele><time>2026-04-18T08:37:33.999Z</time></trkpt><trkpt lat="42.916348322050254" lon="12.940891718254475"><ele>946.2</ele><time>2026-04-18T08:37:35.999Z</time></trkpt><trkpt lat="42.91628252218625" lon="12.940891561738738"><ele>945.0</ele><time>2026-04-18T08:37:36.999Z</time></trkpt><trkpt lat="42.91621962433743" lon="12.940869908418062"><ele>945.0</ele><time>2026-04-18T08:37:37.999Z</time></trkpt><trkpt lat="42.916115671307736" lon="12.940848217408512"><ele>945.0</ele><time>2026-04-18T08:37:39.999Z</time></trkpt><trkpt lat="42.91599792279274" lon="12.940883070972792"><ele>945.0</ele><time>2026-04-18T08:37:41.999Z</time></trkpt><trkpt lat="42.91588829436669" lon="12.940923096647255"><ele>945.0</ele><time>2026-04-18T08:37:43.999Z</time></trkpt><trkpt lat="42.91580512670547" lon="12.940843790667008"><ele>945.0</ele><time>2026-04-18T08:37:45.999Z</time></trkpt><trkpt lat="42.91574785337227" lon="12.940801077460806"><ele>945.1666666666666</ele><time>2026-04-18T08:37:47.999Z</time></trkpt><trkpt lat="42.91569018928158" lon="12.940862846615335"><ele>945.3333333333333</ele><time>2026-04-18T08:38:02.999Z</time></trkpt><trkpt lat="42.91561253491181" lon="12.940904332810222"><ele>945.5</ele><time>2026-04-18T08:38:05.999Z</time></trkpt><trkpt lat="42.915504352313064" lon="12.940892290787739"><ele>945.6666666666666</ele><time>2026-04-18T08:38:07.999Z</time></trkpt><trkpt lat="42.91543045963137" lon="12.940922715278688"><ele>945.8333333333333</ele><time>2026-04-18T08:38:08.999Z</time></trkpt><trkpt lat="42.91535114877709" lon="12.940957038767433"><ele>946.0</ele><time>2026-04-18T08:38:09.999Z</time></trkpt><trkpt lat="42.91526822309267" lon="12.941002115546341"><ele>945.9999999999999</ele><time>2026-04-18T08:38:10.999Z</time></trkpt><trkpt lat="42.915201648889266" lon="12.94104217575119"><ele>946.0</ele><time>2026-04-18T08:38:11.999Z</time></trkpt><trkpt lat="42.915118180396156" lon="12.941064823793901"><ele>946.0</ele><time>2026-04-18T08:38:12.999Z</time></trkpt><trkpt lat="42.91503168249758" lon="12.941069206786096"><ele>946.0</ele><time>2026-04-18T08:38:13.999Z</time></trkpt><trkpt lat="42.91496004339759" lon="12.941090398553676"><ele>945.9999999999999</ele><time>2026-04-18T08:38:14.999Z</time></trkpt><trkpt lat="42.91487898895029" lon="12.941181792888319"><ele>946.0</ele><time>2026-04-18T08:38:16.999Z</time></trkpt><trkpt lat="42.914793884856394" lon="12.941179278723402"><ele>946.0</ele><time>2026-04-18T08:38:18.999Z</time></trkpt><trkpt lat="42.91472644184981" lon="12.94125343318036"><ele>945.9999999999999</ele><time>2026-04-18T08:38:20.999Z</time></trkpt><trkpt lat="42.914637495088485" lon="12.941164037238506"><ele>945.9999999999999</ele><time>2026-04-18T08:38:22.999Z</time></trkpt><trkpt lat="42.91459560572813" lon="12.941094314561187"><ele>946.0</ele><time>2026-04-18T08:38:23.999Z</time></trkpt><trkpt lat="42.9144683401414" lon="12.94105650189785"><ele>946.0</ele><time>2026-04-18T08:38:25.999Z</time></trkpt><trkpt lat="42.91440462373095" lon="12.94103862799177"><ele>945.9999999999999</ele><time>2026-04-18T08:38:26.999Z</time></trkpt><trkpt lat="42.91434886721211" lon="12.94098925966872"><ele>946.0</ele><time>2026-04-18T08:38:27.998Z</time></trkpt><trkpt lat="42.91426925641865" lon="12.940882314684284"><ele>946.0</ele><time>2026-04-18T08:38:29.998Z</time></trkpt><trkpt lat="42.91414902547626" lon="12.940838751690265"><ele>946.0</ele><time>2026-04-18T08:38:31.998Z</time></trkpt><trkpt lat="42.91408199877205" lon="12.940845565145775"><ele>945.9999999999999</ele><time>2026-04-18T08:38:32.998Z</time></trkpt><trkpt lat="42.91402000737713" lon="12.940865604378924"><ele>946.0</ele><time>2026-04-18T08:38:33.998Z</time></trkpt><trkpt lat="42.913947421828574" lon="12.940886076220572"><ele>945.9999999999999</ele><time>2026-04-18T08:38:34.998Z</time></trkpt><trkpt lat="42.91388243805503" lon="12.940885188792656"><ele>946.0</ele><time>2026-04-18T08:38:35.998Z</time></trkpt><trkpt lat="42.91380738009346" lon="12.940879333645661"><ele>946.0</ele><time>2026-04-18T08:38:36.998Z</time></trkpt><trkpt lat="42.91372543764204" lon="12.940874003622158"><ele>946.0</ele><time>2026-04-18T08:38:37.998Z</time></trkpt><trkpt lat="42.913658593120616" lon="12.940847748194747"><ele>945.9999999999999</ele><time>2026-04-18T08:38:38.998Z</time></trkpt><trkpt lat="42.913576398977696" lon="12.940815128443711"><ele>946.0</ele><time>2026-04-18T08:38:39.998Z</time></trkpt><trkpt lat="42.91349655209503" lon="12.940810883738216"><ele>947.4999999999999</ele><time>2026-04-18T08:38:40.998Z</time></trkpt><trkpt lat="42.91342500875634" lon="12.940819682733192"><ele>949.0</ele><time>2026-04-18T08:38:42Z</time></trkpt><trkpt lat="42.91334928742066" lon="12.94083595680934"><ele>950.5</ele><time>2026-04-18T08:38:43Z</time></trkpt><trkpt lat="42.91322954139046" lon="12.94073562591204"><ele>952.0</ele><time>2026-04-18T08:38:45Z</time></trkpt><trkpt lat="42.91316944469482" lon="12.940694317394247"><ele>953.4999999999999</ele><time>2026-04-18T08:38:46Z</time></trkpt><trkpt lat="42.91309678274829" lon="12.940687626306744"><ele>955.0</ele><time>2026-04-18T08:38:47Z</time></trkpt><trkpt lat="42.913026731458274" lon="12.940660137306581"><ele>955.0</ele><time>2026-04-18T08:38:48Z</time></trkpt><trkpt lat="42.91291358819502" lon="12.940613122269944"><ele>955.0</ele><time>2026-04-18T08:38:50Z</time></trkpt><trkpt lat="42.91279690504292" lon="12.94060056521193"><ele>955.0</ele><time>2026-04-18T08:38:52Z</time></trkpt><trkpt lat="42.91272127994044" lon="12.940596023309526"><ele>955.0</ele><time>2026-04-18T08:38:54Z</time></trkpt><trkpt lat="42.912682434144045" lon="12.940499936109685"><ele>955.0</ele><time>2026-04-18T08:38:56Z</time></trkpt><trkpt lat="42.91259743749431" lon="12.940499284048691"><ele>955.6666666666666</ele><time>2026-04-18T08:38:59Z</time></trkpt><trkpt lat="42.91254237178774" lon="12.940438656893223"><ele>956.3333333333333</ele><time>2026-04-18T08:39:02Z</time></trkpt><trkpt lat="42.9125622472765" lon="12.94032567130793"><ele>957.0</ele><time>2026-04-18T08:39:04Z</time></trkpt><trkpt lat="42.912505657188156" lon="12.940236326844815"><ele>957.6666666666667</ele><time>2026-04-18T08:39:06Z</time></trkpt><trkpt lat="42.912403840434976" lon="12.940226418100186"><ele>958.3333333333334</ele><time>2026-04-18T08:39:08Z</time></trkpt><trkpt lat="42.912309747744054" lon="12.940219571554271"><ele>959.0</ele><time>2026-04-18T08:39:10Z</time></trkpt><trkpt lat="42.91219631097604" lon="12.940208429824459"><ele>959.0</ele><time>2026-04-18T08:39:12Z</time></trkpt><trkpt lat="42.91213267138284" lon="12.940214810566458"><ele>959.0</ele><time>2026-04-18T08:39:12.999Z</time></trkpt><trkpt lat="42.91206971418632" lon="12.94020337864094"><ele>959.0</ele><time>2026-04-18T08:39:13.999Z</time></trkpt><trkpt lat="42.91200586494301" lon="12.940202522513175"><ele>959.0</ele><time>2026-04-18T08:39:14.999Z</time></trkpt><trkpt lat="42.91188644416501" lon="12.940195306946599"><ele>959.0</ele><time>2026-04-18T08:39:16.999Z</time></trkpt><trkpt lat="42.91181368294929" lon="12.940203216515583"><ele>959.0</ele><time>2026-04-18T08:39:17.999Z</time></trkpt><trkpt lat="42.911749824362225" lon="12.940216344950867"><ele>959.0</ele><time>2026-04-18T08:39:18.999Z</time></trkpt><trkpt lat="42.91167502170179" lon="12.940209934906784"><ele>959.3333333333334</ele><time>2026-04-18T08:39:19.999Z</time></trkpt><trkpt lat="42.91160050622559" lon="12.940221450380092"><ele>959.6666666666667</ele><time>2026-04-18T08:39:20.999Z</time></trkpt><trkpt lat="42.91153308285644" lon="12.940239124065055"><ele>960.0</ele><time>2026-04-18T08:39:21.999Z</time></trkpt><trkpt lat="42.91145860216186" lon="12.940228033696611"><ele>960.3333333333333</ele><time>2026-04-18T08:39:22.999Z</time></trkpt><trkpt lat="42.91139161260741" lon="12.940207494186271"><ele>960.6666666666666</ele><time>2026-04-18T08:39:23.999Z</time></trkpt><trkpt lat="42.911282016927" lon="12.940205031648121"><ele>961.0</ele><time>2026-04-18T08:39:25.999Z</time></trkpt><trkpt lat="42.91114820224182" lon="12.940179914545984"><ele>960.9999999999999</ele><time>2026-04-18T08:39:27.999Z</time></trkpt><trkpt lat="42.91106313422851" lon="12.940102291098249"><ele>961.0</ele><time>2026-04-18T08:39:29.999Z</time></trkpt><trkpt lat="42.91098804316435" lon="12.940043474948022"><ele>961.0</ele><time>2026-04-18T08:39:31.999Z</time></trkpt><trkpt lat="42.91091246045439" lon="12.940121995022261"><ele>961.0</ele><time>2026-04-18T08:39:33.999Z</time></trkpt><trkpt lat="42.91082771602563" lon="12.940165746261462"><ele>960.9999999999999</ele><time>2026-04-18T08:39:35.999Z</time></trkpt><trkpt lat="42.91079099431033" lon="12.940088244319632"><ele>961.0</ele><time>2026-04-18T08:39:36.999Z</time></trkpt><trkpt lat="42.91071238065491" lon="12.940095605557623"><ele>960.6666666666666</ele><time>2026-04-18T08:39:38.999Z</time></trkpt><trkpt lat="42.91062477661498" lon="12.940095821426356"><ele>960.3333333333333</ele><time>2026-04-18T08:39:41.999Z</time></trkpt><trkpt lat="42.91055271073062" lon="12.940018044257984"><ele>960.0</ele><time>2026-04-18T08:39:43.999Z</time></trkpt><trkpt lat="42.91045290095495" lon="12.940063369903347"><ele>959.6666666666667</ele><time>2026-04-18T08:39:46.999Z</time></trkpt><trkpt lat="42.91035731879443" lon="12.94007844085953"><ele>959.3333333333334</ele><time>2026-04-18T08:39:48.999Z</time></trkpt><trkpt lat="42.91029474416857" lon="12.940095861053193"><ele>959.0</ele><time>2026-04-18T08:39:49.999Z</time></trkpt><trkpt lat="42.9101946589581" lon="12.940171073340414"><ele>959.0000000000001</ele><time>2026-04-18T08:39:51.999Z</time></trkpt><trkpt lat="42.910085856177126" lon="12.940145553863744"><ele>959.0</ele><time>2026-04-18T08:39:53.999Z</time></trkpt><trkpt lat="42.90999425571294" lon="12.940129039843537"><ele>959.0</ele><time>2026-04-18T08:39:55.999Z</time></trkpt><trkpt lat="42.909930672422206" lon="12.94007553899986"><ele>959.0</ele><time>2026-04-18T08:39:57.999Z</time></trkpt><trkpt lat="42.909877249462745" lon="12.940018882042454"><ele>959.0000000000001</ele><time>2026-04-18T08:39:59.999Z</time></trkpt><trkpt lat="42.909940978987045" lon="12.939941691069524"><ele>959.0</ele><time>2026-04-18T08:40:03.999Z</time></trkpt><trkpt lat="42.90988806699095" lon="12.93983939499239"><ele>959.5000000000001</ele><time>2026-04-18T08:40:07.999Z</time></trkpt><trkpt lat="42.90979830064939" lon="12.939773098519854"><ele>960.0</ele><time>2026-04-18T08:40:11.999Z</time></trkpt><trkpt lat="42.90973365532301" lon="12.939748652634034"><ele>960.5</ele><time>2026-04-18T08:40:14.999Z</time></trkpt><trkpt lat="42.909679463614644" lon="12.939699990826606"><ele>961.0</ele><time>2026-04-18T08:40:48Z</time></trkpt><trkpt lat="42.9096787322691" lon="12.9397967445379"><ele>961.5000000000001</ele><time>2026-04-18T08:40:51Z</time></trkpt><trkpt lat="42.90974303842" lon="12.939904404764603"><ele>962.0</ele><time>2026-04-18T08:40:53Z</time></trkpt><trkpt lat="42.909814244351914" lon="12.939986182466994"><ele>962.0</ele><time>2026-04-18T08:40:55Z</time></trkpt><trkpt lat="42.909907469060265" lon="12.940009763284106"><ele>962.0</ele><time>2026-04-18T08:40:57Z</time></trkpt><trkpt lat="42.909991451305004" lon="12.940023185222362"><ele>962.0</ele><time>2026-04-18T08:40:59Z</time></trkpt><trkpt lat="42.910076863769305" lon="12.94009319561705"><ele>962.0</ele><time>2026-04-18T08:41:01Z</time></trkpt><trkpt lat="42.91018176466612" lon="12.940129141731493"><ele>962.0</ele><time>2026-04-18T08:41:03Z</time></trkpt><trkpt lat="42.910291318180505" lon="12.940148422595051"><ele>961.4000000000001</ele><time>2026-04-18T08:41:05Z</time></trkpt><trkpt lat="42.910384463767656" lon="12.940156058663543"><ele>960.8000000000001</ele><time>2026-04-18T08:41:07Z</time></trkpt><trkpt lat="42.91045393379187" lon="12.94018162032813"><ele>960.2</ele><time>2026-04-18T08:41:08Z</time></trkpt><trkpt lat="42.91053992731042" lon="12.940218820158163"><ele>959.6</ele><time>2026-04-18T08:41:10Z</time></trkpt><trkpt lat="42.9106405358351" lon="12.940261631326159"><ele>959.0</ele><time>2026-04-18T08:41:12Z</time></trkpt><trkpt lat="42.91074245239166" lon="12.940273219193537"><ele>959.0000000000001</ele><time>2026-04-18T08:41:14Z</time></trkpt><trkpt lat="42.91079810500167" lon="12.940228835518175"><ele>959.0</ele><time>2026-04-18T08:41:15Z</time></trkpt><trkpt lat="42.91084854595596" lon="12.940174054475964"><ele>959.0</ele><time>2026-04-18T08:41:16Z</time></trkpt><trkpt lat="42.910905119446525" lon="12.940120576749164"><ele>959.0</ele><time>2026-04-18T08:41:17Z</time></trkpt><trkpt lat="42.910987370008165" lon="12.940141809689644"><ele>959.0000000000001</ele><time>2026-04-18T08:41:19Z</time></trkpt><trkpt lat="42.91105450776845" lon="12.940253399840854"><ele>959.0</ele><time>2026-04-18T08:41:20.999Z</time></trkpt><trkpt lat="42.91114350260027" lon="12.9402147210066"><ele>959.3333333333334</ele><time>2026-04-18T08:41:22.999Z</time></trkpt><trkpt lat="42.91122259701092" lon="12.940169961200022"><ele>959.6666666666667</ele><time>2026-04-18T08:41:23.999Z</time></trkpt><trkpt lat="42.911309236074636" lon="12.940174802818747"><ele>960.0</ele><time>2026-04-18T08:41:24.999Z</time></trkpt><trkpt lat="42.911407326782545" lon="12.940177128313554"><ele>960.3333333333333</ele><time>2026-04-18T08:41:25.999Z</time></trkpt><trkpt lat="42.911474258591156" lon="12.94019237417344"><ele>960.6666666666666</ele><time>2026-04-18T08:41:26.999Z</time></trkpt><trkpt lat="42.91154525065425" lon="12.940230401490524"><ele>961.0</ele><time>2026-04-18T08:41:27.999Z</time></trkpt><trkpt lat="42.911617091095195" lon="12.940235059210565"><ele>960.9999999999999</ele><time>2026-04-18T08:41:29.999Z</time></trkpt><trkpt lat="42.91161119260404" lon="12.940145548855641"><ele>961.0</ele><time>2026-04-18T09:05:10.999Z</time></trkpt><trkpt lat="42.911549474464444" lon="12.940079370179548"><ele>961.0</ele><time>2026-04-18T09:05:12.999Z</time></trkpt><trkpt lat="42.911493226135505" lon="12.940021469657443"><ele>961.0</ele><time>2026-04-18T09:05:14.999Z</time></trkpt><trkpt lat="42.91147107959447" lon="12.939919672374678"><ele>960.9999999999999</ele><time>2026-04-18T09:05:17.999Z</time></trkpt><trkpt lat="42.911403285879054" lon="12.939857648972092"><ele>961.0</ele><time>2026-04-18T09:05:19.999Z</time></trkpt><trkpt lat="42.9113257913544" lon="12.939831002833339"><ele>961.0</ele><time>2026-04-18T09:05:22.999Z</time></trkpt><trkpt lat="42.91125484176889" lon="12.939788305479896"><ele>960.9999999999999</ele><time>2026-04-18T09:05:25.999Z</time></trkpt><trkpt lat="42.91122124241577" lon="12.939698344056161"><ele>961.0</ele><time>2026-04-18T09:05:29.999Z</time></trkpt><trkpt lat="42.91119458830289" lon="12.93961822421362"><ele>961.0</ele><time>2026-04-18T09:05:55.998Z</time></trkpt><trkpt lat="42.91117607975303" lon="12.939534307010074"><ele>960.9999999999999</ele><time>2026-04-18T09:06:00Z</time></trkpt><trkpt lat="42.91114175811916" lon="12.939459773243097"><ele>961.0</ele><time>2026-04-18T09:06:06Z</time></trkpt><trkpt lat="42.911082261899885" lon="12.939424156359063"><ele>961.0</ele><time>2026-04-18T09:06:21.999Z</time></trkpt><trkpt lat="42.911029134665704" lon="12.939517316869782"><ele>960.9999999999999</ele><time>2026-04-18T09:06:29.999Z</time></trkpt><trkpt lat="42.91103420153574" lon="12.93961587222507"><ele>961.0</ele><time>2026-04-18T09:06:36.999Z</time></trkpt><trkpt lat="42.91110210195947" lon="12.939715232425995"><ele>961.0</ele><time>2026-04-18T09:06:40.999Z</time></trkpt><trkpt lat="42.91117750929222" lon="12.939759841552995"><ele>961.0</ele><time>2026-04-18T09:06:42.999Z</time></trkpt><trkpt lat="42.911199617797024" lon="12.939882847121222"><ele>960.9999999999999</ele><time>2026-04-18T09:06:44.999Z</time></trkpt><trkpt lat="42.91119844413944" lon="12.939991787527504"><ele>961.0</ele><time>2026-04-18T09:06:46.999Z</time></trkpt><trkpt lat="42.91110857318075" lon="12.940053655228521"><ele>961.0</ele><time>2026-04-18T09:06:49.999Z</time></trkpt><trkpt lat="42.911017052217275" lon="12.940089607834706"><ele>960.9999999999999</ele><time>2026-04-18T09:06:51.999Z</time></trkpt><trkpt lat="42.91091908417325" lon="12.940091332249628"><ele>960.9999999999999</ele><time>2026-04-18T09:06:53.999Z</time></trkpt><trkpt lat="42.91083325713166" lon="12.940101780505518"><ele>961.0</ele><time>2026-04-18T09:06:55.999Z</time></trkpt><trkpt lat="42.91072106974842" lon="12.940106150305336"><ele>961.0</ele><time>2026-04-18T09:06:57.999Z</time></trkpt><trkpt lat="42.91061784172731" lon="12.940148965011412"><ele>960.6666666666666</ele><time>2026-04-18T09:06:59.999Z</time></trkpt><trkpt lat="42.910514956819206" lon="12.940211654474016"><ele>960.3333333333333</ele><time>2026-04-18T09:07:01.999Z</time></trkpt><trkpt lat="42.91044991817315" lon="12.940221497059108"><ele>960.0</ele><time>2026-04-18T09:07:02.999Z</time></trkpt><trkpt lat="42.91032876794884" lon="12.940195240755767"><ele>959.6666666666667</ele><time>2026-04-18T09:07:04.999Z</time></trkpt><trkpt lat="42.91025917547114" lon="12.94018481429535"><ele>959.3333333333334</ele><time>2026-04-18T09:07:05.999Z</time></trkpt><trkpt lat="42.910193930541276" lon="12.9401767128409"><ele>959.0</ele><time>2026-04-18T09:07:06.999Z</time></trkpt><trkpt lat="42.91013095821788" lon="12.940173386912171"><ele>958.2</ele><time>2026-04-18T09:07:07.999Z</time></trkpt><trkpt lat="42.91005586937899" lon="12.940166886139982"><ele>957.4000000000001</ele><time>2026-04-18T09:07:08.999Z</time></trkpt><trkpt lat="42.909947202939" lon="12.940167470757482"><ele>956.6</ele><time>2026-04-18T09:07:10.999Z</time></trkpt><trkpt lat="42.90986932302376" lon="12.940198442847022"><ele>955.8</ele><time>2026-04-18T09:07:12.999Z</time></trkpt><trkpt lat="42.909765140296905" lon="12.940186666166605"><ele>955.0</ele><time>2026-04-18T09:07:14.999Z</time></trkpt><trkpt lat="42.90968820678467" lon="12.940124123270401"><ele>955.0</ele><time>2026-04-18T09:07:16.999Z</time></trkpt><trkpt lat="42.90960930011909" lon="12.940033517754328"><ele>955.0</ele><time>2026-04-18T09:07:18.999Z</time></trkpt><trkpt lat="42.909545673344496" lon="12.940024897637043"><ele>955.0</ele><time>2026-04-18T09:07:21.999Z</time></trkpt><trkpt lat="42.909465656614856" lon="12.940092153843134"><ele>955.0</ele><time>2026-04-18T09:07:24.999Z</time></trkpt><trkpt lat="42.909361411052835" lon="12.940100366164561"><ele>955.0</ele><time>2026-04-18T09:07:26.999Z</time></trkpt><trkpt lat="42.909259727981954" lon="12.940077050627433"><ele>954.8333333333333</ele><time>2026-04-18T09:07:28.999Z</time></trkpt><trkpt lat="42.909143061976906" lon="12.94005966518039"><ele>954.6666666666666</ele><time>2026-04-18T09:07:30.999Z</time></trkpt><trkpt lat="42.90907967178306" lon="12.9400499828687"><ele>954.5</ele><time>2026-04-18T09:07:31.999Z</time></trkpt><trkpt lat="42.90901884134127" lon="12.940022780755429"><ele>954.3333333333333</ele><time>2026-04-18T09:07:32.999Z</time></trkpt><trkpt lat="42.90895505749583" lon="12.939985317030647"><ele>954.1666666666666</ele><time>2026-04-18T09:07:33.999Z</time></trkpt><trkpt lat="42.908875573835665" lon="12.93995395190397"><ele>954.0</ele><time>2026-04-18T09:07:34.999Z</time></trkpt><trkpt lat="42.908807746099946" lon="12.939931334896562"><ele>954.0</ele><time>2026-04-18T09:07:35.999Z</time></trkpt><trkpt lat="42.908736514836654" lon="12.939896612080778"><ele>954.0</ele><time>2026-04-18T09:07:36.999Z</time></trkpt><trkpt lat="42.90866805033569" lon="12.939853654001816"><ele>954.0</ele><time>2026-04-18T09:07:37.999Z</time></trkpt><trkpt lat="42.908604491977286" lon="12.93983006707767"><ele>954.0</ele><time>2026-04-18T09:07:38.999Z</time></trkpt><trkpt lat="42.90852953456318" lon="12.939834014036249"><ele>954.0</ele><time>2026-04-18T09:07:39.999Z</time></trkpt><trkpt lat="42.9084196270253" lon="12.939856744512136"><ele>954.0</ele><time>2026-04-18T09:07:41.999Z</time></trkpt><trkpt lat="42.90833293642111" lon="12.939965483335607"><ele>950.2</ele><time>2026-04-18T09:07:43.998Z</time></trkpt><trkpt lat="42.908267731413204" lon="12.939998605034177"><ele>946.4000000000001</ele><time>2026-04-18T09:07:44.998Z</time></trkpt><trkpt lat="42.90815562845274" lon="12.940072416742453"><ele>942.6</ele><time>2026-04-18T09:07:46.998Z</time></trkpt><trkpt lat="42.90806597630227" lon="12.940200147447602"><ele>938.8</ele><time>2026-04-18T09:07:48.998Z</time></trkpt><trkpt lat="42.90800612756997" lon="12.940259676125399"><ele>935.0</ele><time>2026-04-18T09:07:49.998Z</time></trkpt><trkpt lat="42.90791443957516" lon="12.940309686872544"><ele>933.3333333333334</ele><time>2026-04-18T09:07:51.998Z</time></trkpt><trkpt lat="42.90785599477495" lon="12.940233197328729"><ele>931.6666666666667</ele><time>2026-04-18T09:07:53.998Z</time></trkpt><trkpt lat="42.907779144609385" lon="12.940176475424346"><ele>930.0</ele><time>2026-04-18T09:07:55.998Z</time></trkpt><trkpt lat="42.9077091673072" lon="12.940196892916928"><ele>928.3333333333333</ele><time>2026-04-18T09:07:57.998Z</time></trkpt><trkpt lat="42.90764149666023" lon="12.940180279136776"><ele>926.6666666666666</ele><time>2026-04-18T09:07:59.998Z</time></trkpt><trkpt lat="42.907537725243564" lon="12.940185318394635"><ele>925.0</ele><time>2026-04-18T09:08:01.998Z</time></trkpt><trkpt lat="42.90745627313114" lon="12.940255098523814"><ele>919.9999999999999</ele><time>2026-04-18T09:08:03.999Z</time></trkpt><trkpt lat="42.9073881895983" lon="12.940303077811922"><ele>915.0</ele><time>2026-04-18T09:08:05.999Z</time></trkpt><trkpt lat="42.90728820953722" lon="12.940309244017234"><ele>910.0</ele><time>2026-04-18T09:08:07.999Z</time></trkpt><trkpt lat="42.9072015898749" lon="12.940355349201946"><ele>905.0</ele><time>2026-04-18T09:08:10.999Z</time></trkpt><trkpt lat="42.907140745289084" lon="12.940408292316926"><ele>899.9999999999999</ele><time>2026-04-18T09:08:12.999Z</time></trkpt><trkpt lat="42.90708678252455" lon="12.940489467291302"><ele>895.0</ele><time>2026-04-18T09:08:14.999Z</time></trkpt><trkpt lat="42.907010994720544" lon="12.940582477140483"><ele>894.9999999999999</ele><time>2026-04-18T09:08:16.999Z</time></trkpt><trkpt lat="42.90692476064121" lon="12.940625112969668"><ele>895.0</ele><time>2026-04-18T09:08:18.999Z</time></trkpt><trkpt lat="42.9068573701497" lon="12.940636785736523"><ele>895.0</ele><time>2026-04-18T09:08:20.999Z</time></trkpt><trkpt lat="42.90678201041738" lon="12.940686152207707"><ele>895.0</ele><time>2026-04-18T09:08:23.999Z</time></trkpt><trkpt lat="42.90672366026037" lon="12.940590224078873"><ele>894.9999999999999</ele><time>2026-04-18T09:08:26.999Z</time></trkpt><trkpt lat="42.90672550662395" lon="12.940501337601829"><ele>895.0</ele><time>2026-04-18T09:08:27.999Z</time></trkpt><trkpt lat="42.90673772545018" lon="12.940398794474957"><ele>895.0</ele><time>2026-04-18T09:08:28.999Z</time></trkpt><trkpt lat="42.906754785818094" lon="12.940283782408054"><ele>895.0</ele><time>2026-04-18T09:08:29.999Z</time></trkpt><trkpt lat="42.90677115146219" lon="12.940163442279196"><ele>895.0</ele><time>2026-04-18T09:08:30.999Z</time></trkpt><trkpt lat="42.90680720157198" lon="12.94005237964574"><ele>895.0</ele><time>2026-04-18T09:08:31.999Z</time></trkpt><trkpt lat="42.90686818090926" lon="12.939955995830985"><ele>895.0</ele><time>2026-04-18T09:08:32.999Z</time></trkpt><trkpt lat="42.906954234026394" lon="12.939877171151334"><ele>895.8</ele><time>2026-04-18T09:08:33.999Z</time></trkpt><trkpt lat="42.90704110140344" lon="12.939804014520869"><ele>896.6</ele><time>2026-04-18T09:08:34.999Z</time></trkpt><trkpt lat="42.907134292635035" lon="12.939734675060977"><ele>897.4000000000001</ele><time>2026-04-18T09:08:35.999Z</time></trkpt><trkpt lat="42.907223515166216" lon="12.939677741063692"><ele>898.2</ele><time>2026-04-18T09:08:36.999Z</time></trkpt><trkpt lat="42.907307212204785" lon="12.939618696424956"><ele>899.0</ele><time>2026-04-18T09:08:37.999Z</time></trkpt><trkpt lat="42.90738347807517" lon="12.93954855562072"><ele>899.0</ele><time>2026-04-18T09:08:38.999Z</time></trkpt><trkpt lat="42.90744977021385" lon="12.939452385996898"><ele>899.0000000000001</ele><time>2026-04-18T09:08:39.999Z</time></trkpt><trkpt lat="42.90750587301973" lon="12.939339093035226"><ele>899.0000000000001</ele><time>2026-04-18T09:08:40.999Z</time></trkpt><trkpt lat="42.907528683302004" lon="12.939196542070373"><ele>899.0</ele><time>2026-04-18T09:08:41.999Z</time></trkpt><trkpt lat="42.90752679531414" lon="12.939045822342658"><ele>899.0</ele><time>2026-04-18T09:08:42.999Z</time></trkpt><trkpt lat="42.907510342795504" lon="12.938891586178322"><ele>896.25</ele><time>2026-04-18T09:08:43.999Z</time></trkpt><trkpt lat="42.90749527514456" lon="12.93873701118878"><ele>893.5</ele><time>2026-04-18T09:08:44.999Z</time></trkpt><trkpt lat="42.907487843863336" lon="12.938577403195804"><ele>890.75</ele><time>2026-04-18T09:08:45.999Z</time></trkpt><trkpt lat="42.907481507455586" lon="12.938411882174508"><ele>888.0</ele><time>2026-04-18T09:08:46.999Z</time></trkpt><trkpt lat="42.9074753685583" lon="12.938246476614713"><ele>886.75</ele><time>2026-04-18T09:08:47.999Z</time></trkpt><trkpt lat="42.90747057600036" lon="12.938085430112762"><ele>885.5</ele><time>2026-04-18T09:08:48.999Z</time></trkpt><trkpt lat="42.9074632604225" lon="12.937923718125093"><ele>884.25</ele><time>2026-04-18T09:08:49.999Z</time></trkpt><trkpt lat="42.907452731668464" lon="12.937769858284703"><ele>883.0</ele><time>2026-04-18T09:08:50.999Z</time></trkpt><trkpt lat="42.9074504627317" lon="12.937627429894151"><ele>884.2</ele><time>2026-04-18T09:08:51.999Z</time></trkpt><trkpt lat="42.90747202322083" lon="12.93750807740491"><ele>885.4</ele><time>2026-04-18T09:08:52.999Z</time></trkpt><trkpt lat="42.907533508144624" lon="12.937435255703374"><ele>886.6000000000001</ele><time>2026-04-18T09:08:53.999Z</time></trkpt><trkpt lat="42.907631213517135" lon="12.93738523698846"><ele>887.8000000000001</ele><time>2026-04-18T09:08:54.999Z</time></trkpt><trkpt lat="42.90774005765318" lon="12.937339344998804"><ele>889.0</ele><time>2026-04-18T09:08:55.999Z</time></trkpt><trkpt lat="42.907861340553225" lon="12.937301304403228"><ele>889.0</ele><time>2026-04-18T09:08:56.999Z</time></trkpt><trkpt lat="42.90798195089038" lon="12.937270882820812"><ele>889.0000000000001</ele><time>2026-04-18T09:08:57.999Z</time></trkpt><trkpt lat="42.90809400925596" lon="12.937238041485152"><ele>889.0000000000001</ele><time>2026-04-18T09:08:58.999Z</time></trkpt><trkpt lat="42.908201013330924" lon="12.937207847059389"><ele>889.0</ele><time>2026-04-18T09:08:59.999Z</time></trkpt><trkpt lat="42.90830053162959" lon="12.937172412070929"><ele>889.0</ele><time>2026-04-18T09:09:00.999Z</time></trkpt><trkpt lat="42.908392706338375" lon="12.937136378086505"><ele>889.4000000000001</ele><time>2026-04-18T09:09:01.999Z</time></trkpt><trkpt lat="42.90848555244686" lon="12.937091268279982"><ele>889.8000000000001</ele><time>2026-04-18T09:09:02.999Z</time></trkpt><trkpt lat="42.90858110379219" lon="12.93704509849146"><ele>890.1999999999999</ele><time>2026-04-18T09:09:03.999Z</time></trkpt><trkpt lat="42.908681058697546" lon="12.936997726926828"><ele>890.5999999999999</ele><time>2026-04-18T09:09:04.999Z</time></trkpt><trkpt lat="42.90878195174728" lon="12.936948707835738"><ele>891.0</ele><time>2026-04-18T09:09:05.999Z</time></trkpt><trkpt lat="42.90888258574856" lon="12.936896933449471"><ele>891.0</ele><time>2026-04-18T09:09:06.999Z</time></trkpt><trkpt lat="42.90897918637198" lon="12.936847179890476"><ele>890.9999999999999</ele><time>2026-04-18T09:09:07.999Z</time></trkpt><trkpt lat="42.909091000236344" lon="12.93681576354745"><ele>890.9999999999999</ele><time>2026-04-18T09:09:08.999Z</time></trkpt><trkpt lat="42.90919449063579" lon="12.936775464327985"><ele>891.0</ele><time>2026-04-18T09:09:09.999Z</time></trkpt><trkpt lat="42.90927002031507" lon="12.936746580196965"><ele>891.0</ele><time>2026-04-18T09:09:10.999Z</time></trkpt><trkpt lat="42.90933141088252" lon="12.936724158203331"><ele>887.2857142857143</ele><time>2026-04-18T09:09:11.999Z</time></trkpt><trkpt lat="42.90939705559273" lon="12.936700295290716"><ele>883.5714285714286</ele><time>2026-04-18T09:09:12.999Z</time></trkpt><trkpt lat="42.90946411036628" lon="12.936676796799844"><ele>879.8571428571429</ele><time>2026-04-18T09:09:13.999Z</time></trkpt><trkpt lat="42.909533435627736" lon="12.9366532197705"><ele>876.1428571428571</ele><time>2026-04-18T09:09:14.999Z</time></trkpt><trkpt lat="42.909598137450956" lon="12.936608559708672"><ele>872.4285714285714</ele><time>2026-04-18T09:09:15.999Z</time></trkpt><trkpt lat="42.90967292319934" lon="12.936587785465127"><ele>868.7142857142858</ele><time>2026-04-18T09:09:16.999Z</time></trkpt><trkpt lat="42.909755988832835" lon="12.936561173296482"><ele>865.0</ele><time>2026-04-18T09:09:17.999Z</time></trkpt><trkpt lat="42.90986156587647" lon="12.93653184636203"><ele>865.0</ele><time>2026-04-18T09:09:18.999Z</time></trkpt><trkpt lat="42.90998078528134" lon="12.936500488738561"><ele>865.0</ele><time>2026-04-18T09:09:19.999Z</time></trkpt><trkpt lat="42.91010608809855" lon="12.936468350543889"><ele>865.0</ele><time>2026-04-18T09:09:20.999Z</time></trkpt><trkpt lat="42.91023247372511" lon="12.936433115137172"><ele>865.0</ele><time>2026-04-18T09:09:21.999Z</time></trkpt><trkpt lat="42.91036822400362" lon="12.936393843337246"><ele>864.6666666666666</ele><time>2026-04-18T09:09:22.999Z</time></trkpt><trkpt lat="42.91051554399597" lon="12.936349905512863"><ele>864.3333333333333</ele><time>2026-04-18T09:09:23.999Z</time></trkpt><trkpt lat="42.910673129440596" lon="12.93630322776548"><ele>864.0</ele><time>2026-04-18T09:09:24.999Z</time></trkpt><trkpt lat="42.9108295228187" lon="12.936259771778499"><ele>862.75</ele><time>2026-04-18T09:09:25.999Z</time></trkpt><trkpt lat="42.91097756335989" lon="12.936216816484318"><ele>861.5</ele><time>2026-04-18T09:09:26.999Z</time></trkpt><trkpt lat="42.91112633968261" lon="12.936181814237198"><ele>860.25</ele><time>2026-04-18T09:09:27.999Z</time></trkpt><trkpt lat="42.91127225331193" lon="12.936161519165614"><ele>859.0</ele><time>2026-04-18T09:09:28.999Z</time></trkpt><trkpt lat="42.91142389473352" lon="12.936153086659814"><ele>859.0</ele><time>2026-04-18T09:09:29.999Z</time></trkpt><trkpt lat="42.911572292783035" lon="12.936150750979365"><ele>859.0</ele><time>2026-04-18T09:09:30.999Z</time></trkpt><trkpt lat="42.91172968610656" lon="12.936140299847567"><ele>859.0</ele><time>2026-04-18T09:09:31.999Z</time></trkpt><trkpt lat="42.91188523973616" lon="12.936130006286685"><ele>857.0</ele><time>2026-04-18T09:09:32.999Z</time></trkpt><trkpt lat="42.91204301718179" lon="12.936121420125273"><ele>855.0</ele><time>2026-04-18T09:09:33.999Z</time></trkpt><trkpt lat="42.912178310713934" lon="12.936131328361682"><ele>853.0</ele><time>2026-04-18T09:09:34.999Z</time></trkpt><trkpt lat="42.91231200847387" lon="12.936149600366138"><ele>851.0</ele><time>2026-04-18T09:09:35.999Z</time></trkpt><trkpt lat="42.91243600689369" lon="12.936178473856707"><ele>851.0</ele><time>2026-04-18T09:09:36.999Z</time></trkpt><trkpt lat="42.91255476647836" lon="12.936205768292107"><ele>851.0</ele><time>2026-04-18T09:09:37.999Z</time></trkpt><trkpt lat="42.91267739803043" lon="12.936229778948507"><ele>851.0</ele><time>2026-04-18T09:09:38.999Z</time></trkpt><trkpt lat="42.912801793360266" lon="12.936251351718866"><ele>851.0</ele><time>2026-04-18T09:09:39.999Z</time></trkpt><trkpt lat="42.91292247937656" lon="12.93625185761785"><ele>848.5</ele><time>2026-04-18T09:09:40.999Z</time></trkpt><trkpt lat="42.913031720449666" lon="12.9362341323452"><ele>846.0</ele><time>2026-04-18T09:09:41.999Z</time></trkpt><trkpt lat="42.91313498037338" lon="12.936186120119705"><ele>843.5</ele><time>2026-04-18T09:09:42.999Z</time></trkpt><trkpt lat="42.91323159773289" lon="12.936089402675398"><ele>841.0</ele><time>2026-04-18T09:09:43.999Z</time></trkpt><trkpt lat="42.91330818926269" lon="12.935970697622386"><ele>840.0</ele><time>2026-04-18T09:09:44.999Z</time></trkpt><trkpt lat="42.91337743755208" lon="12.935839932719023"><ele>839.0</ele><time>2026-04-18T09:09:45.999Z</time></trkpt><trkpt lat="42.91344504623636" lon="12.935693161553214"><ele>838.0</ele><time>2026-04-18T09:09:46.999Z</time></trkpt><trkpt lat="42.913523169800364" lon="12.935555563943273"><ele>837.0</ele><time>2026-04-18T09:09:47.999Z</time></trkpt><trkpt lat="42.91360054499234" lon="12.935415772278372"><ele>837.0</ele><time>2026-04-18T09:09:48.999Z</time></trkpt><trkpt lat="42.913663346949235" lon="12.93526096034291"><ele>837.0</ele><time>2026-04-18T09:09:49.999Z</time></trkpt><trkpt lat="42.91369507385159" lon="12.935076254945793"><ele>837.0</ele><time>2026-04-18T09:09:50.999Z</time></trkpt><trkpt lat="42.91368239802847" lon="12.934888851181855"><ele>837.0</ele><time>2026-04-18T09:09:51.999Z</time></trkpt><trkpt lat="42.913657086443386" lon="12.934730378723925"><ele>835.6666666666666</ele><time>2026-04-18T09:09:52.999Z</time></trkpt><trkpt lat="42.913640942963724" lon="12.934589945311751"><ele>834.3333333333333</ele><time>2026-04-18T09:09:53.999Z</time></trkpt><trkpt lat="42.91363636716224" lon="12.93445886462085"><ele>833.0</ele><time>2026-04-18T09:09:54.998Z</time></trkpt><trkpt lat="42.91364408955341" lon="12.93436611046856"><ele>831.6666666666666</ele><time>2026-04-18T09:09:55.998Z</time></trkpt><trkpt lat="42.91367432658617" lon="12.934262613516887"><ele>830.3333333333333</ele><time>2026-04-18T09:09:57.998Z</time></trkpt><trkpt lat="42.913692212285945" lon="12.934178097849937"><ele>829.0</ele><time>2026-04-18T09:10:00.998Z</time></trkpt><trkpt lat="42.9136484436648" lon="12.934096005105173"><ele>826.2</ele><time>2026-04-18T09:21:58.999Z</time></trkpt><trkpt lat="42.91361473608415" lon="12.933979347276388"><ele>823.4000000000001</ele><time>2026-04-18T09:22:00.999Z</time></trkpt><trkpt lat="42.91355513832032" lon="12.933874138224386"><ele>820.6</ele><time>2026-04-18T09:22:02.999Z</time></trkpt><trkpt lat="42.91349236173774" lon="12.933761160563595"><ele>817.8</ele><time>2026-04-18T09:22:04.999Z</time></trkpt><trkpt lat="42.913452964077635" lon="12.933627112043883"><ele>815.0</ele><time>2026-04-18T09:22:06.999Z</time></trkpt><trkpt lat="42.91342097197476" lon="12.93354086465917"><ele>816.3333333333334</ele><time>2026-04-18T09:22:08.999Z</time></trkpt><trkpt lat="42.91338970906438" lon="12.933455591527528"><ele>817.6666666666667</ele><time>2026-04-18T09:22:10.999Z</time></trkpt><trkpt lat="42.91332037785532" lon="12.933419310001083"><ele>819.0</ele><time>2026-04-18T09:22:11.999Z</time></trkpt><trkpt lat="42.91322706258217" lon="12.933367906597807"><ele>820.3333333333333</ele><time>2026-04-18T09:22:13.999Z</time></trkpt><trkpt lat="42.91313172692751" lon="12.933317976064384"><ele>821.6666666666666</ele><time>2026-04-18T09:22:15.999Z</time></trkpt><trkpt lat="42.91304684575678" lon="12.933271162009511"><ele>823.0</ele><time>2026-04-18T09:22:17.999Z</time></trkpt><trkpt lat="42.91295431098256" lon="12.933218789697118"><ele>822.9999999999999</ele><time>2026-04-18T09:22:19.999Z</time></trkpt><trkpt lat="42.91289194819453" lon="12.933187649331495"><ele>823.0</ele><time>2026-04-18T09:22:21.999Z</time></trkpt><trkpt lat="42.912782243832375" lon="12.933138306174996"><ele>823.0</ele><time>2026-04-18T09:22:23.999Z</time></trkpt><trkpt lat="42.91269016760213" lon="12.933098063925687"><ele>823.0</ele><time>2026-04-18T09:22:25.999Z</time></trkpt><trkpt lat="42.91261406662239" lon="12.933067297207948"><ele>822.9999999999999</ele><time>2026-04-18T09:22:26.999Z</time></trkpt><trkpt lat="42.91255033029272" lon="12.933048577265634"><ele>823.0</ele><time>2026-04-18T09:22:27.999Z</time></trkpt><trkpt lat="42.91248511916411" lon="12.933057047098062"><ele>822.4</ele><time>2026-04-18T09:22:28.999Z</time></trkpt><trkpt lat="42.912417952509294" lon="12.933102641138005"><ele>821.8</ele><time>2026-04-18T09:22:29.999Z</time></trkpt><trkpt lat="42.9123594789886" lon="12.933257551541468"><ele>821.2</ele><time>2026-04-18T09:22:30.999Z</time></trkpt><trkpt lat="42.91226598159906" lon="12.933260352332661"><ele>820.6</ele><time>2026-04-18T09:22:31.999Z</time></trkpt><trkpt lat="42.912176289629436" lon="12.933240552459647"><ele>820.0</ele><time>2026-04-18T09:22:32.999Z</time></trkpt><trkpt lat="42.91211298846069" lon="12.933230885566237"><ele>820.0</ele><time>2026-04-18T09:22:33.999Z</time></trkpt><trkpt lat="42.912014511785145" lon="12.933215846971295"><ele>820.0</ele><time>2026-04-18T09:22:35.999Z</time></trkpt><trkpt lat="42.91193385531212" lon="12.933206777254405"><ele>820.0</ele><time>2026-04-18T09:22:37.999Z</time></trkpt><trkpt lat="42.91181164006605" lon="12.933217600566561"><ele>820.0</ele><time>2026-04-18T09:22:39.999Z</time></trkpt><trkpt lat="42.91174500181623" lon="12.933227745260178"><ele>820.0</ele><time>2026-04-18T09:22:40.999Z</time></trkpt><trkpt lat="42.91163883380273" lon="12.933246036975271"><ele>818.2</ele><time>2026-04-18T09:22:42.999Z</time></trkpt><trkpt lat="42.911522326457664" lon="12.933288090247267"><ele>816.4</ele><time>2026-04-18T09:22:45Z</time></trkpt><trkpt lat="42.91143115122438" lon="12.933279249089884"><ele>814.5999999999999</ele><time>2026-04-18T09:22:47Z</time></trkpt><trkpt lat="42.911320416909895" lon="12.933268511275637"><ele>812.8</ele><time>2026-04-18T09:22:49Z</time></trkpt><trkpt lat="42.91123026238368" lon="12.933259769119447"><ele>811.0</ele><time>2026-04-18T09:22:51Z</time></trkpt><trkpt lat="42.91116717524318" lon="12.933253651646158"><ele>811.0</ele><time>2026-04-18T09:22:52Z</time></trkpt><trkpt lat="42.91106179809754" lon="12.932912618529459"><ele>811.0</ele><time>2026-04-18T09:22:54Z</time></trkpt><trkpt lat="42.91097160583854" lon="12.932920177572129"><ele>811.0</ele><time>2026-04-18T09:22:56Z</time></trkpt><trkpt lat="42.910895111381095" lon="12.93300316687515"><ele>809.6666666666666</ele><time>2026-04-18T09:22:58Z</time></trkpt><trkpt lat="42.91085247020027" lon="12.933068936839843"><ele>808.3333333333333</ele><time>2026-04-18T09:22:59Z</time></trkpt><trkpt lat="42.91078531654775" lon="12.933177990155952"><ele>807.0</ele><time>2026-04-18T09:23:01Z</time></trkpt><trkpt lat="42.91069282442722" lon="12.9332828966795"><ele>805.6666666666667</ele><time>2026-04-18T09:23:03Z</time></trkpt><trkpt lat="42.910632810067696" lon="12.933316223509694"><ele>804.3333333333334</ele><time>2026-04-18T09:23:04Z</time></trkpt><trkpt lat="42.91056792964965" lon="12.933349338452024"><ele>803.0</ele><time>2026-04-18T09:23:05Z</time></trkpt><trkpt lat="42.91048424302006" lon="12.93338568428567"><ele>801.2</ele><time>2026-04-18T09:23:07Z</time></trkpt><trkpt lat="42.910393232695455" lon="12.933419064117343"><ele>799.4</ele><time>2026-04-18T09:23:09Z</time></trkpt><trkpt lat="42.9103110822247" lon="12.933427201307188"><ele>797.6</ele><time>2026-04-18T09:23:11Z</time></trkpt><trkpt lat="42.91021142994521" lon="12.93345056435752"><ele>795.8000000000001</ele><time>2026-04-18T09:23:14Z</time></trkpt><trkpt lat="42.91010502835674" lon="12.9334897348432"><ele>794.0</ele><time>2026-04-18T09:23:16Z</time></trkpt><trkpt lat="42.90999661371045" lon="12.933520505186296"><ele>792.8000000000001</ele><time>2026-04-18T09:23:18Z</time></trkpt><trkpt lat="42.90987961018326" lon="12.933528092429937"><ele>791.6</ele><time>2026-04-18T09:23:20Z</time></trkpt><trkpt lat="42.909767515525616" lon="12.933543573493305"><ele>790.4</ele><time>2026-04-18T09:23:22Z</time></trkpt><trkpt lat="42.90965675644732" lon="12.933577100298924"><ele>789.2</ele><time>2026-04-18T09:23:24Z</time></trkpt><trkpt lat="42.909570379762854" lon="12.933589828129385"><ele>788.0</ele><time>2026-04-18T09:23:26Z</time></trkpt><trkpt lat="42.909506907188934" lon="12.933627965537342"><ele>788.0</ele><time>2026-04-18T09:23:27Z</time></trkpt><trkpt lat="42.9094003500049" lon="12.93369733556242"><ele>788.0</ele><time>2026-04-18T09:23:29Z</time></trkpt><trkpt lat="42.90931662237319" lon="12.933760629541393"><ele>788.0</ele><time>2026-04-18T09:23:31Z</time></trkpt><trkpt lat="42.90921527562084" lon="12.93378439092922"><ele>788.0</ele><time>2026-04-18T09:23:33Z</time></trkpt><trkpt lat="42.90914440637311" lon="12.933791105886396"><ele>788.0</ele><time>2026-04-18T09:23:34Z</time></trkpt><trkpt lat="42.90902312568189" lon="12.933810206142537"><ele>785.2</ele><time>2026-04-18T09:23:36Z</time></trkpt><trkpt lat="42.908951138059734" lon="12.933792650373116"><ele>782.4</ele><time>2026-04-18T09:23:38Z</time></trkpt><trkpt lat="42.90885034423297" lon="12.933829463632543"><ele>779.6</ele><time>2026-04-18T09:23:40Z</time></trkpt><trkpt lat="42.90874811323169" lon="12.933837005631108"><ele>776.8000000000001</ele><time>2026-04-18T09:23:42Z</time></trkpt><trkpt lat="42.908629332467754" lon="12.933863750925672"><ele>774.0</ele><time>2026-04-18T09:23:44Z</time></trkpt><trkpt lat="42.90856459668247" lon="12.933846567028612"><ele>774.0</ele><time>2026-04-18T09:23:45Z</time></trkpt><trkpt lat="42.90849806300474" lon="12.933813370711087"><ele>774.0</ele><time>2026-04-18T09:23:46Z</time></trkpt><trkpt lat="42.90843416347117" lon="12.933802996984332"><ele>774.0</ele><time>2026-04-18T09:23:47Z</time></trkpt><trkpt lat="42.90835272937293" lon="12.933817892081167"><ele>774.0</ele><time>2026-04-18T09:23:48Z</time></trkpt><trkpt lat="42.90828142991621" lon="12.9338364653297"><ele>774.0</ele><time>2026-04-18T09:23:49Z</time></trkpt><trkpt lat="42.90821508124525" lon="12.933853083491167"><ele>774.0</ele><time>2026-04-18T09:23:50Z</time></trkpt><trkpt lat="42.90812825879678" lon="12.933861667364535"><ele>774.0</ele><time>2026-04-18T09:23:51Z</time></trkpt><trkpt lat="42.90804097229182" lon="12.933853768274272"><ele>771.5</ele><time>2026-04-18T09:23:52Z</time></trkpt><trkpt lat="42.90794863480027" lon="12.933850302162716"><ele>769.0</ele><time>2026-04-18T09:23:53Z</time></trkpt><trkpt lat="42.90786175666062" lon="12.933847976470531"><ele>766.5</ele><time>2026-04-18T09:23:54Z</time></trkpt><trkpt lat="42.907785071430695" lon="12.933852652966578"><ele>764.0</ele><time>2026-04-18T09:23:55Z</time></trkpt><trkpt lat="42.90771010835134" lon="12.933861085635819"><ele>761.5</ele><time>2026-04-18T09:23:56Z</time></trkpt><trkpt lat="42.90764004632552" lon="12.93386265831655"><ele>759.0</ele><time>2026-04-18T09:23:57Z</time></trkpt><trkpt lat="42.907574497525324" lon="12.933863339221178"><ele>760.0</ele><time>2026-04-18T09:23:58Z</time></trkpt><trkpt lat="42.90747847346387" lon="12.933885225956145"><ele>761.0</ele><time>2026-04-18T09:24:00Z</time></trkpt><trkpt lat="42.90745217345764" lon="12.93402230597857"><ele>762.0</ele><time>2026-04-18T09:24:03Z</time></trkpt><trkpt lat="42.907466745293476" lon="12.934159696489068"><ele>763.0</ele><time>2026-04-18T09:24:04.999Z</time></trkpt><trkpt lat="42.90746963809585" lon="12.934269552119858"><ele>764.0</ele><time>2026-04-18T09:24:06.999Z</time></trkpt><trkpt lat="42.90736783267913" lon="12.934218636750423"><ele>761.1428571428572</ele><time>2026-04-18T09:24:09.999Z</time></trkpt><trkpt lat="42.907282578568555" lon="12.934171669812299"><ele>758.2857142857142</ele><time>2026-04-18T09:24:11.999Z</time></trkpt><trkpt lat="42.90722149669995" lon="12.934116486189483"><ele>755.4285714285714</ele><time>2026-04-18T09:24:13.999Z</time></trkpt><trkpt lat="42.90716758325152" lon="12.934067940440658"><ele>752.5714285714287</ele><time>2026-04-18T09:24:18.999Z</time></trkpt><trkpt lat="42.90710456900983" lon="12.934036940232694"><ele>749.7142857142858</ele><time>2026-04-18T09:24:33.999Z</time></trkpt><trkpt lat="42.90705472193576" lon="12.933982497628067"><ele>746.8571428571429</ele><time>2026-04-18T09:24:35.999Z</time></trkpt><trkpt lat="42.90700152410523" lon="12.933909094528047"><ele>744.0</ele><time>2026-04-18T09:24:37.999Z</time></trkpt><trkpt lat="42.906945007556004" lon="12.933868924539926"><ele>744.0000000000001</ele><time>2026-04-18T09:24:39.999Z</time></trkpt><trkpt lat="42.90687349826242" lon="12.933794789197862"><ele>744.0</ele><time>2026-04-18T09:24:41.999Z</time></trkpt><trkpt lat="42.906838175199276" lon="12.933713197123025"><ele>744.0</ele><time>2026-04-18T09:24:43.999Z</time></trkpt><trkpt lat="42.90683547313448" lon="12.9336146986681"><ele>744.0</ele><time>2026-04-18T09:24:45.999Z</time></trkpt><trkpt lat="42.906780846915424" lon="12.933553012846353"><ele>744.0</ele><time>2026-04-18T09:24:48.999Z</time></trkpt><trkpt lat="42.906735360138136" lon="12.933619723811358"><ele>744.0000000000001</ele><time>2026-04-18T09:24:51Z</time></trkpt><trkpt lat="42.90671363343765" lon="12.933707557048129"><ele>744.0</ele><time>2026-04-18T09:25:04Z</time></trkpt><trkpt lat="42.906706167011116" lon="12.933801909766574"><ele>741.1428571428572</ele><time>2026-04-18T09:25:12Z</time></trkpt><trkpt lat="42.90664321296708" lon="12.933783940238401"><ele>738.2857142857143</ele><time>2026-04-18T09:25:19Z</time></trkpt><trkpt lat="42.906577426426495" lon="12.933764957297818"><ele>735.4285714285714</ele><time>2026-04-18T09:25:27Z</time></trkpt><trkpt lat="42.90650988959892" lon="12.933749423801668"><ele>732.5714285714287</ele><time>2026-04-18T09:25:31Z</time></trkpt><trkpt lat="42.90643460768886" lon="12.933729671466178"><ele>729.7142857142857</ele><time>2026-04-18T09:25:36Z</time></trkpt><trkpt lat="42.906389226725" lon="12.933644438345194"><ele>726.8571428571429</ele><time>2026-04-18T09:25:39Z</time></trkpt><trkpt lat="42.90635944410094" lon="12.933544759241261"><ele>724.0</ele><time>2026-04-18T09:25:42Z</time></trkpt><trkpt lat="42.90634295705374" lon="12.933459681771014"><ele>724.0</ele><time>2026-04-18T09:25:45Z</time></trkpt><trkpt lat="42.90632870609934" lon="12.933351990805797"><ele>724.0</ele><time>2026-04-18T09:25:49Z</time></trkpt><trkpt lat="42.90627658088557" lon="12.93340985071384"><ele>724.0</ele><time>2026-04-18T09:25:54Z</time></trkpt><trkpt lat="42.90624089676194" lon="12.933502771905003"><ele>724.0</ele><time>2026-04-18T09:25:59Z</time></trkpt><trkpt lat="42.90621953363145" lon="12.933589216881291"><ele>724.0</ele><time>2026-04-18T09:26:02Z</time></trkpt><trkpt lat="42.90615311532445" lon="12.933583295903016"><ele>724.0</ele><time>2026-04-18T09:26:05Z</time></trkpt><trkpt lat="42.90608601737631" lon="12.933670282436209"><ele>724.0</ele><time>2026-04-18T09:26:09Z</time></trkpt><trkpt lat="42.90611156392378" lon="12.933844533575382"><ele>724.0</ele><time>2026-04-18T09:26:14.999Z</time></trkpt><trkpt lat="42.90603021244016" lon="12.933904559408303"><ele>724.0</ele><time>2026-04-18T09:26:17.999Z</time></trkpt><trkpt lat="42.90596110465071" lon="12.933905149904112"><ele>724.0</ele><time>2026-04-18T09:26:19.999Z</time></trkpt><trkpt lat="42.9058919908691" lon="12.933918113344307"><ele>724.0</ele><time>2026-04-18T09:26:22.999Z</time></trkpt><trkpt lat="42.905813459053626" lon="12.933939761408634"><ele>724.0</ele><time>2026-04-18T09:26:25.999Z</time></trkpt><trkpt lat="42.90572662146452" lon="12.933945764035533"><ele>720.4000000000001</ele><time>2026-04-18T09:26:27.999Z</time></trkpt><trkpt lat="42.90561940528987" lon="12.933918451808665"><ele>716.8</ele><time>2026-04-18T09:26:29.999Z</time></trkpt><trkpt lat="42.90552150241482" lon="12.933891416379325"><ele>713.2</ele><time>2026-04-18T09:26:31.999Z</time></trkpt><trkpt lat="42.905416079654614" lon="12.93384931730147"><ele>709.5999999999999</ele><time>2026-04-18T09:26:33.999Z</time></trkpt><trkpt lat="42.905361885599326" lon="12.933804274053449"><ele>706.0</ele><time>2026-04-18T09:26:34.999Z</time></trkpt><trkpt lat="42.90527271087793" lon="12.933773209507553"><ele>706.0</ele><time>2026-04-18T09:26:36.999Z</time></trkpt><trkpt lat="42.905174217684504" lon="12.933856233825912"><ele>706.0</ele><time>2026-04-18T09:26:38.999Z</time></trkpt><trkpt lat="42.90509792625839" lon="12.933844526367418"><ele>706.0</ele><time>2026-04-18T09:26:40.999Z</time></trkpt><trkpt lat="42.90503230903846" lon="12.93395668451311"><ele>706.0</ele><time>2026-04-18T09:26:43.999Z</time></trkpt><trkpt lat="42.90499216193219" lon="12.934043572306937"><ele>706.0</ele><time>2026-04-18T09:26:45.999Z</time></trkpt><trkpt lat="42.90489901533145" lon="12.934008048107568"><ele>702.0</ele><time>2026-04-18T09:26:47.999Z</time></trkpt><trkpt lat="42.904837303146785" lon="12.934065139150045"><ele>698.0</ele><time>2026-04-18T09:26:49.999Z</time></trkpt><trkpt lat="42.9047550599041" lon="12.934121181102652"><ele>694.0</ele><time>2026-04-18T09:26:52.999Z</time></trkpt><trkpt lat="42.90470253515545" lon="12.934013597027192"><ele>690.0</ele><time>2026-04-18T09:27:17Z</time></trkpt><trkpt lat="42.90466135957881" lon="12.93389247484453"><ele>686.0</ele><time>2026-04-18T09:27:20Z</time></trkpt><trkpt lat="42.90462553338302" lon="12.93379520254875"><ele>682.0</ele><time>2026-04-18T09:27:22Z</time></trkpt><trkpt lat="42.90455414683867" lon="12.933691847898569"><ele>682.0</ele><time>2026-04-18T09:27:24Z</time></trkpt><trkpt lat="42.90460837918366" lon="12.933608473497618"><ele>682.0</ele><time>2026-04-18T09:27:27Z</time></trkpt><trkpt lat="42.904692887120966" lon="12.933566439186974"><ele>682.0</ele><time>2026-04-18T09:27:29Z</time></trkpt><trkpt lat="42.9047681206213" lon="12.93352792685672"><ele>682.0</ele><time>2026-04-18T09:27:32Z</time></trkpt><trkpt lat="42.904818895702874" lon="12.933451200181612"><ele>682.0</ele><time>2026-04-18T09:27:34Z</time></trkpt><trkpt lat="42.90489117779923" lon="12.933395952494694"><ele>682.0</ele><time>2026-04-18T09:27:36Z</time></trkpt><trkpt lat="42.90488449612438" lon="12.933310120824471"><ele>681.0</ele><time>2026-04-18T09:27:38Z</time></trkpt><trkpt lat="42.90494105770227" lon="12.933244749329871"><ele>680.0</ele><time>2026-04-18T09:27:41Z</time></trkpt><trkpt lat="42.90494121881041" lon="12.9331478604677"><ele>679.0</ele><time>2026-04-18T09:27:43Z</time></trkpt><trkpt lat="42.90498470683695" lon="12.933022628262474"><ele>678.0</ele><time>2026-04-18T09:27:45Z</time></trkpt><trkpt lat="42.90505259914018" lon="12.932980809862778"><ele>677.0</ele><time>2026-04-18T09:27:47Z</time></trkpt><trkpt lat="42.905112941707785" lon="12.932926205536603"><ele>676.0</ele><time>2026-04-18T09:27:53Z</time></trkpt><trkpt lat="42.90518263872088" lon="12.932924962920884"><ele>676.0</ele><time>2026-04-18T09:28:01Z</time></trkpt><trkpt lat="42.905233985582164" lon="12.93285706386646"><ele>676.0</ele><time>2026-04-18T09:28:08Z</time></trkpt><trkpt lat="42.90517899011702" lon="12.93278012273855"><ele>676.0</ele><time>2026-04-18T09:28:12Z</time></trkpt><trkpt lat="42.90508532237578" lon="12.932780348504354"><ele>676.0</ele><time>2026-04-18T09:28:15Z</time></trkpt><trkpt lat="42.904986934978886" lon="12.932788772367621"><ele>676.0</ele><time>2026-04-18T09:28:17Z</time></trkpt><trkpt lat="42.904890262193106" lon="12.932807499313228"><ele>676.0</ele><time>2026-04-18T09:28:19Z</time></trkpt><trkpt lat="42.904846282805565" lon="12.932904538312515"><ele>671.4</ele><time>2026-04-18T09:28:21.999Z</time></trkpt><trkpt lat="42.90479517498287" lon="12.933010046670514"><ele>666.8</ele><time>2026-04-18T09:28:23.999Z</time></trkpt><trkpt lat="42.90474593378547" lon="12.933106336607237"><ele>662.1999999999999</ele><time>2026-04-18T09:28:25.999Z</time></trkpt><trkpt lat="42.904680754977484" lon="12.933126627178133"><ele>657.5999999999999</ele><time>2026-04-18T09:28:26.999Z</time></trkpt><trkpt lat="42.90455984132299" lon="12.933155352183153"><ele>653.0</ele><time>2026-04-18T09:28:28.999Z</time></trkpt><trkpt lat="42.904455305759825" lon="12.933169276587618"><ele>653.0</ele><time>2026-04-18T09:28:30.999Z</time></trkpt><trkpt lat="42.90439235431646" lon="12.93316085202532"><ele>653.0</ele><time>2026-04-18T09:28:33.999Z</time></trkpt><trkpt lat="42.90432155961774" lon="12.933198510204198"><ele>653.0</ele><time>2026-04-18T09:28:37.999Z</time></trkpt><trkpt lat="42.90420590272957" lon="12.93321137280313"><ele>653.0</ele><time>2026-04-18T09:29:03Z</time></trkpt><trkpt lat="42.90412795988271" lon="12.93320237347422"><ele>653.0</ele><time>2026-04-18T09:29:07Z</time></trkpt><trkpt lat="42.90405612318356" lon="12.933188976460997"><ele>653.0</ele><time>2026-04-18T09:29:13Z</time></trkpt><trkpt lat="42.90399397452975" lon="12.933156517432696"><ele>649.1666666666666</ele><time>2026-04-18T09:29:16Z</time></trkpt><trkpt lat="42.90392050048818" lon="12.933124963248972"><ele>645.3333333333333</ele><time>2026-04-18T09:29:19Z</time></trkpt><trkpt lat="42.9038583179286" lon="12.933084791925136"><ele>641.5</ele><time>2026-04-18T09:29:21Z</time></trkpt><trkpt lat="42.903751811877235" lon="12.933066637455358"><ele>637.6666666666666</ele><time>2026-04-18T09:29:24Z</time></trkpt><trkpt lat="42.90366248431652" lon="12.93306285219697"><ele>633.8333333333334</ele><time>2026-04-18T09:29:26Z</time></trkpt><trkpt lat="42.90359891542392" lon="12.933090682587515"><ele>630.0</ele><time>2026-04-18T09:29:27Z</time></trkpt><trkpt lat="42.903526989026695" lon="12.933109558555536"><ele>630.0</ele><time>2026-04-18T09:29:29Z</time></trkpt><trkpt lat="42.903459353754435" lon="12.933131894509922"><ele>630.0</ele><time>2026-04-18T09:29:32Z</time></trkpt><trkpt lat="42.903385060896134" lon="12.93315131358913"><ele>630.0</ele><time>2026-04-18T09:29:37Z</time></trkpt><trkpt lat="42.9034049592" lon="12.93338376996641"><ele>630.0</ele><time>2026-04-18T09:30:11Z</time></trkpt><trkpt lat="42.903431004378135" lon="12.933462632516868"><ele>630.0</ele><time>2026-04-18T09:30:12Z</time></trkpt><trkpt lat="42.903429016071414" lon="12.933552514290483"><ele>630.0</ele><time>2026-04-18T09:30:14Z</time></trkpt><trkpt lat="42.90334359402536" lon="12.933537148425568"><ele>627.0</ele><time>2026-04-18T09:30:24Z</time></trkpt><trkpt lat="42.903303777145915" lon="12.933442090523213"><ele>624.0</ele><time>2026-04-18T09:30:28Z</time></trkpt><trkpt lat="42.90321215962578" lon="12.933403589791128"><ele>621.0</ele><time>2026-04-18T09:30:28.999Z</time></trkpt><trkpt lat="42.90312340646936" lon="12.933326301953196"><ele>618.0</ele><time>2026-04-18T09:30:29.999Z</time></trkpt><trkpt lat="42.90307185545765" lon="12.933254918311237"><ele>615.0</ele><time>2026-04-18T09:30:30.999Z</time></trkpt><trkpt lat="42.90304344337779" lon="12.933141136488777"><ele>612.0</ele><time>2026-04-18T09:30:32.999Z</time></trkpt><trkpt lat="42.90313031922406" lon="12.933076836087428"><ele>610.0</ele><time>2026-04-18T09:30:34.999Z</time></trkpt><trkpt lat="42.90319390558032" lon="12.933053538057752"><ele>608.0</ele><time>2026-04-18T09:30:35.999Z</time></trkpt><trkpt lat="42.90329525334622" lon="12.932976418330876"><ele>606.0</ele><time>2026-04-18T09:30:37.999Z</time></trkpt><trkpt lat="42.90339063303148" lon="12.932837896616498"><ele>604.0</ele><time>2026-04-18T09:30:39.999Z</time></trkpt><trkpt lat="42.90343941237452" lon="12.932747975153644"><ele>602.0</ele><time>2026-04-18T09:30:40.999Z</time></trkpt><trkpt lat="42.90350303104879" lon="12.9326395207189"><ele>599.1666666666666</ele><time>2026-04-18T09:30:41.999Z</time></trkpt><trkpt lat="42.903555353440126" lon="12.932570868427863"><ele>596.3333333333333</ele><time>2026-04-18T09:30:42.999Z</time></trkpt><trkpt lat="42.90361785962487" lon="12.932546655492553"><ele>593.5</ele><time>2026-04-18T09:30:43.999Z</time></trkpt><trkpt lat="42.9037215556126" lon="12.932582852516434"><ele>590.6666666666666</ele><time>2026-04-18T09:30:45.999Z</time></trkpt><trkpt lat="42.90384130560793" lon="12.932568912551508"><ele>587.8333333333334</ele><time>2026-04-18T09:30:47.999Z</time></trkpt><trkpt lat="42.9038388608645" lon="12.932458171081029"><ele>585.0</ele><time>2026-04-18T09:30:49.999Z</time></trkpt><trkpt lat="42.90372495214769" lon="12.932421994285066"><ele>585.0</ele><time>2026-04-18T09:30:51.999Z</time></trkpt><trkpt lat="42.90366009903776" lon="12.93243196612633"><ele>585.0</ele><time>2026-04-18T09:30:52.999Z</time></trkpt><trkpt lat="42.90359270434959" lon="12.932391225426182"><ele>585.0</ele><time>2026-04-18T09:30:53.999Z</time></trkpt><trkpt lat="42.90353292455952" lon="12.932340102069515"><ele>585.0</ele><time>2026-04-18T09:30:54.999Z</time></trkpt><trkpt lat="42.90346839119659" lon="12.932295119371377"><ele>585.0</ele><time>2026-04-18T09:30:55.999Z</time></trkpt><trkpt lat="42.90336817473523" lon="12.932247620679014"><ele>585.0</ele><time>2026-04-18T09:30:57.999Z</time></trkpt><trkpt lat="42.90325589210227" lon="12.932334015496792"><ele>580.6</ele><time>2026-04-18T09:30:59.999Z</time></trkpt><trkpt lat="42.90316743667939" lon="12.932402861260478"><ele>576.2</ele><time>2026-04-18T09:31:00.999Z</time></trkpt><trkpt lat="42.90307834595861" lon="12.932398623593444"><ele>571.8</ele><time>2026-04-18T09:31:01.999Z</time></trkpt><trkpt lat="42.90297296944323" lon="12.932370375694434"><ele>567.4</ele><time>2026-04-18T09:31:02.999Z</time></trkpt><trkpt lat="42.90287206069595" lon="12.932322788244225"><ele>563.0</ele><time>2026-04-18T09:31:03.999Z</time></trkpt><trkpt lat="42.902794319019165" lon="12.932243840455033"><ele>563.0</ele><time>2026-04-18T09:31:04.999Z</time></trkpt><trkpt lat="42.902694636283314" lon="12.932176637813091"><ele>563.0</ele><time>2026-04-18T09:31:07Z</time></trkpt><trkpt lat="42.90260368129998" lon="12.932187799887828"><ele>563.0</ele><time>2026-04-18T09:31:08Z</time></trkpt><trkpt lat="42.90248199928178" lon="12.932225082600901"><ele>563.0</ele><time>2026-04-18T09:31:09Z</time></trkpt><trkpt lat="42.90236027926558" lon="12.932228469217376"><ele>563.0</ele><time>2026-04-18T09:31:10Z</time></trkpt><trkpt lat="42.902247451851366" lon="12.93221441874518"><ele>559.0</ele><time>2026-04-18T09:31:11Z</time></trkpt><trkpt lat="42.90215055109468" lon="12.932197650892618"><ele>555.0</ele><time>2026-04-18T09:31:12Z</time></trkpt><trkpt lat="42.90204354904182" lon="12.932209990313906"><ele>551.0</ele><time>2026-04-18T09:31:13Z</time></trkpt><trkpt lat="42.901940136818695" lon="12.932189421097743"><ele>547.0</ele><time>2026-04-18T09:31:14Z</time></trkpt><trkpt lat="42.901866452348564" lon="12.93213490303649"><ele>543.0</ele><time>2026-04-18T09:31:15Z</time></trkpt><trkpt lat="42.90178978057655" lon="12.932096676638244"><ele>542.1666666666666</ele><time>2026-04-18T09:31:16Z</time></trkpt><trkpt lat="42.901712154088585" lon="12.9320792305382"><ele>541.3333333333334</ele><time>2026-04-18T09:31:17Z</time></trkpt><trkpt lat="42.90163106988624" lon="12.932045385535414"><ele>540.5</ele><time>2026-04-18T09:31:18Z</time></trkpt><trkpt lat="42.90155435346155" lon="12.931997316046756"><ele>539.6666666666667</ele><time>2026-04-18T09:31:19Z</time></trkpt><trkpt lat="42.90147994661386" lon="12.93195254468002"><ele>538.8333333333334</ele><time>2026-04-18T09:31:20Z</time></trkpt><trkpt lat="42.901403156010005" lon="12.931910901691825"><ele>538.0</ele><time>2026-04-18T09:31:21Z</time></trkpt><trkpt lat="42.90132379472658" lon="12.931871432623423"><ele>538.0</ele><time>2026-04-18T09:31:22Z</time></trkpt><trkpt lat="42.90125262101334" lon="12.931853777537285"><ele>538.0</ele><time>2026-04-18T09:31:23Z</time></trkpt><trkpt lat="42.90117530969859" lon="12.93185056519876"><ele>538.0</ele><time>2026-04-18T09:31:24Z</time></trkpt><trkpt lat="42.90110277756965" lon="12.931881487974149"><ele>538.0</ele><time>2026-04-18T09:31:25Z</time></trkpt><trkpt lat="42.90102151049727" lon="12.931940496540971"><ele>538.0</ele><time>2026-04-18T09:31:26Z</time></trkpt><trkpt lat="42.90093863842107" lon="12.931955713677457"><ele>538.0</ele><time>2026-04-18T09:31:27Z</time></trkpt><trkpt lat="42.90087744533335" lon="12.932003664696747"><ele>538.1666666666667</ele><time>2026-04-18T09:31:28Z</time></trkpt><trkpt lat="42.90080866077606" lon="12.932049599633736"><ele>538.3333333333334</ele><time>2026-04-18T09:31:29Z</time></trkpt><trkpt lat="42.90071930507798" lon="12.932086205557093"><ele>538.5</ele><time>2026-04-18T09:31:30Z</time></trkpt><trkpt lat="42.90065195190117" lon="12.932141926029974"><ele>538.6666666666666</ele><time>2026-04-18T09:31:31Z</time></trkpt><trkpt lat="42.90057619238373" lon="12.932167304394918"><ele>538.8333333333333</ele><time>2026-04-18T09:31:32Z</time></trkpt><trkpt lat="42.90049857758555" lon="12.932241296202575"><ele>539.0</ele><time>2026-04-18T09:31:34Z</time></trkpt><trkpt lat="42.90043920465717" lon="12.932274780999286"><ele>539.0</ele><time>2026-04-18T09:31:36Z</time></trkpt><trkpt lat="42.90035873741595" lon="12.932335268817202"><ele>539.0</ele><time>2026-04-18T09:31:38Z</time></trkpt><trkpt lat="42.900255060651055" lon="12.932402337633809"><ele>539.0</ele><time>2026-04-18T09:31:40Z</time></trkpt><trkpt lat="42.90016868754676" lon="12.932372042213329"><ele>539.0</ele><time>2026-04-18T09:31:43Z</time></trkpt><trkpt lat="42.90006582578241" lon="12.932291006271889"><ele>539.0</ele><time>2026-04-18T09:31:45Z</time></trkpt><trkpt lat="42.89999141354664" lon="12.932250787127819"><ele>539.4</ele><time>2026-04-18T09:31:46Z</time></trkpt><trkpt lat="42.89990961063122" lon="12.932260425632839"><ele>539.8</ele><time>2026-04-18T09:31:47Z</time></trkpt><trkpt lat="42.89981161819313" lon="12.93226371914382"><ele>540.2</ele><time>2026-04-18T09:31:48Z</time></trkpt><trkpt lat="42.899721952803624" lon="12.932273091716484"><ele>540.6</ele><time>2026-04-18T09:31:49Z</time></trkpt><trkpt lat="42.89962510012908" lon="12.932263603148721"><ele>541.0</ele><time>2026-04-18T09:31:50Z</time></trkpt><trkpt lat="42.89952569349367" lon="12.932214813806949"><ele>541.0</ele><time>2026-04-18T09:31:51Z</time></trkpt><trkpt lat="42.899423083575826" lon="12.932197267893757"><ele>541.0</ele><time>2026-04-18T09:31:52Z</time></trkpt><trkpt lat="42.89930864498955" lon="12.932162970116547"><ele>541.0</ele><time>2026-04-18T09:31:53Z</time></trkpt><trkpt lat="42.899195823214065" lon="12.932128806539692"><ele>541.0</ele><time>2026-04-18T09:31:54Z</time></trkpt><trkpt lat="42.89906129571183" lon="12.9320898259862"><ele>542.0</ele><time>2026-04-18T09:31:55Z</time></trkpt><trkpt lat="42.898936953133195" lon="12.932015669024997"><ele>543.0</ele><time>2026-04-18T09:31:56Z</time></trkpt><trkpt lat="42.89880477475516" lon="12.931953712764257"><ele>544.0</ele><time>2026-04-18T09:31:57Z</time></trkpt><trkpt lat="42.89866073585511" lon="12.931892625002483"><ele>545.0</ele><time>2026-04-18T09:31:58Z</time></trkpt><trkpt lat="42.89852660144635" lon="12.931828274913272"><ele>543.5</ele><time>2026-04-18T09:31:59Z</time></trkpt><trkpt lat="42.8983949326443" lon="12.931746690334354"><ele>542.0</ele><time>2026-04-18T09:32:00Z</time></trkpt><trkpt lat="42.89825230305805" lon="12.931683872170142"><ele>540.5</ele><time>2026-04-18T09:32:01Z</time></trkpt><trkpt lat="42.898122724466695" lon="12.93159760991767"><ele>539.0</ele><time>2026-04-18T09:32:02Z</time></trkpt><trkpt lat="42.89801164579728" lon="12.93153239396762"><ele>538.25</ele><time>2026-04-18T09:32:03Z</time></trkpt><trkpt lat="42.89788605991764" lon="12.931442558816673"><ele>537.5</ele><time>2026-04-18T09:32:04Z</time></trkpt><trkpt lat="42.897794084133466" lon="12.931335670671794"><ele>536.75</ele><time>2026-04-18T09:32:05Z</time></trkpt><trkpt lat="42.89768252069977" lon="12.931218350256993"><ele>536.0</ele><time>2026-04-18T09:32:06Z</time></trkpt><trkpt lat="42.89756949583762" lon="12.931104514788444"><ele>534.6666666666666</ele><time>2026-04-18T09:32:07Z</time></trkpt><trkpt lat="42.897432950459205" lon="12.930997898248211"><ele>533.3333333333334</ele><time>2026-04-18T09:32:08Z</time></trkpt><trkpt lat="42.897303249286324" lon="12.930907808399766"><ele>532.0</ele><time>2026-04-18T09:32:09Z</time></trkpt><trkpt lat="42.897172022555985" lon="12.9308175501131"><ele>532.25</ele><time>2026-04-18T09:32:10Z</time></trkpt><trkpt lat="42.89704251072165" lon="12.930726032815304"><ele>532.5</ele><time>2026-04-18T09:32:11Z</time></trkpt><trkpt lat="42.89691871301623" lon="12.930622289133842"><ele>532.75</ele><time>2026-04-18T09:32:12Z</time></trkpt><trkpt lat="42.89679679026443" lon="12.930515885047384"><ele>533.0</ele><time>2026-04-18T09:32:13Z</time></trkpt><trkpt lat="42.89665161124099" lon="12.930454261371253"><ele>533.0</ele><time>2026-04-18T09:32:14Z</time></trkpt><trkpt lat="42.8965504471351" lon="12.93039698505144"><ele>533.0</ele><time>2026-04-18T09:32:15Z</time></trkpt><trkpt lat="42.89643765799795" lon="12.930327678360007"><ele>533.0</ele><time>2026-04-18T09:32:16Z</time></trkpt><trkpt lat="42.896311323458946" lon="12.930260277110262"><ele>533.0</ele><time>2026-04-18T09:32:17Z</time></trkpt><trkpt lat="42.89619146811092" lon="12.93020858287744"><ele>533.0</ele><time>2026-04-18T09:32:18Z</time></trkpt><trkpt lat="42.89607701424423" lon="12.930167041738628"><ele>533.0</ele><time>2026-04-18T09:32:19Z</time></trkpt><trkpt lat="42.89594886689391" lon="12.930129621494839"><ele>533.0</ele><time>2026-04-18T09:32:20Z</time></trkpt><trkpt lat="42.89583158890131" lon="12.930065542349082"><ele>533.0</ele><time>2026-04-18T09:32:21Z</time></trkpt><trkpt lat="42.895723307287454" lon="12.930045731382442"><ele>532.0</ele><time>2026-04-18T09:32:22Z</time></trkpt><trkpt lat="42.89562011046887" lon="12.929979628298831"><ele>531.0</ele><time>2026-04-18T09:32:23Z</time></trkpt><trkpt lat="42.89553307342276" lon="12.92993166775347"><ele>530.0</ele><time>2026-04-18T09:32:24Z</time></trkpt><trkpt lat="42.895466699352156" lon="12.929909206147553"><ele>529.0</ele><time>2026-04-18T09:32:25Z</time></trkpt><trkpt lat="42.895407016794344" lon="12.929881126323167"><ele>528.0</ele><time>2026-04-18T09:32:57.999Z</time></trkpt><trkpt lat="42.8953188507988" lon="12.929863902247366"><ele>527.0</ele><time>2026-04-18T09:32:59.999Z</time></trkpt><trkpt lat="42.89521333282058" lon="12.929796223858105"><ele>527.0</ele><time>2026-04-18T09:33:01.999Z</time></trkpt><trkpt lat="42.895113228242714" lon="12.929688564062523"><ele>527.0</ele><time>2026-04-18T09:33:03.999Z</time></trkpt><trkpt lat="42.895051108730435" lon="12.929636267047886"><ele>527.0</ele><time>2026-04-18T09:33:04.999Z</time></trkpt><trkpt lat="42.89497727520779" lon="12.929596673009296"><ele>527.0</ele><time>2026-04-18T09:33:05.999Z</time></trkpt><trkpt lat="42.894907456010394" lon="12.929552573378645"><ele>527.0</ele><time>2026-04-18T09:33:06.999Z</time></trkpt><trkpt lat="42.89483669092542" lon="12.929509108414463"><ele>527.0</ele><time>2026-04-18T09:33:07.999Z</time></trkpt><trkpt lat="42.89477375848437" lon="12.929442294486241"><ele>525.6</ele><time>2026-04-18T09:33:08.999Z</time></trkpt><trkpt lat="42.89471253530823" lon="12.929394187248473"><ele>524.2</ele><time>2026-04-18T09:33:09.999Z</time></trkpt><trkpt lat="42.89462559245811" lon="12.929348361529799"><ele>522.8</ele><time>2026-04-18T09:33:10.999Z</time></trkpt><trkpt lat="42.89453624282463" lon="12.929338803160716"><ele>521.4</ele><time>2026-04-18T09:33:11.999Z</time></trkpt><trkpt lat="42.894425312691986" lon="12.929362403067522"><ele>520.0</ele><time>2026-04-18T09:33:13Z</time></trkpt><trkpt lat="42.8942959059107" lon="12.92939868283445"><ele>520.4</ele><time>2026-04-18T09:33:14Z</time></trkpt><trkpt lat="42.89419517266456" lon="12.929406555167962"><ele>520.8</ele><time>2026-04-18T09:33:15Z</time></trkpt><trkpt lat="42.894118298156826" lon="12.929343919915391"><ele>521.2</ele><time>2026-04-18T09:33:16Z</time></trkpt><trkpt lat="42.894032942556045" lon="12.92933906218702"><ele>521.6</ele><time>2026-04-18T09:33:17Z</time></trkpt><trkpt lat="42.89396226788839" lon="12.92934370716785"><ele>522.0</ele><time>2026-04-18T09:33:18Z</time></trkpt><trkpt lat="42.89383607392558" lon="12.929246389360541"><ele>522.8333333333334</ele><time>2026-04-18T09:33:20Z</time></trkpt><trkpt lat="42.893758603624256" lon="12.929209779664077"><ele>523.6666666666666</ele><time>2026-04-18T09:33:21Z</time></trkpt><trkpt lat="42.89368530568705" lon="12.92916854795941"><ele>524.5</ele><time>2026-04-18T09:33:22Z</time></trkpt><trkpt lat="42.89363186433814" lon="12.929112520990133"><ele>525.3333333333333</ele><time>2026-04-18T09:33:23Z</time></trkpt><trkpt lat="42.89356641835838" lon="12.929031676275656"><ele>526.1666666666666</ele><time>2026-04-18T09:33:24Z</time></trkpt><trkpt lat="42.89348520683794" lon="12.9289689553166"><ele>527.0</ele><time>2026-04-18T09:33:25Z</time></trkpt><trkpt lat="42.89340236807805" lon="12.92891094081808"><ele>525.3333333333333</ele><time>2026-04-18T09:33:26Z</time></trkpt><trkpt lat="42.89332627173549" lon="12.928860051936732"><ele>523.6666666666666</ele><time>2026-04-18T09:33:27Z</time></trkpt><trkpt lat="42.89324158039854" lon="12.928803415436514"><ele>522.0</ele><time>2026-04-18T09:33:28Z</time></trkpt><trkpt lat="42.89318227068405" lon="12.928761861392376"><ele>520.3333333333334</ele><time>2026-04-18T09:33:29Z</time></trkpt><trkpt lat="42.89311725867479" lon="12.928716368178176"><ele>518.6666666666667</ele><time>2026-04-18T09:33:30Z</time></trkpt><trkpt lat="42.89304440684553" lon="12.928665236069257"><ele>517.0</ele><time>2026-04-18T09:33:31Z</time></trkpt><trkpt lat="42.892974300274496" lon="12.92861246360442"><ele>517.0</ele><time>2026-04-18T09:33:32Z</time></trkpt><trkpt lat="42.8929050993865" lon="12.928552076117574"><ele>517.0</ele><time>2026-04-18T09:33:33Z</time></trkpt><trkpt lat="42.89283829009294" lon="12.92848656539214"><ele>517.0</ele><time>2026-04-18T09:33:34Z</time></trkpt><trkpt lat="42.89277096290462" lon="12.92841454644208"><ele>517.0</ele><time>2026-04-18T09:33:35Z</time></trkpt><trkpt lat="42.892712718463606" lon="12.928344974899156"><ele>517.0</ele><time>2026-04-18T09:33:36Z</time></trkpt><trkpt lat="42.89265182468474" lon="12.928260841926452"><ele>517.0</ele><time>2026-04-18T09:33:37Z</time></trkpt><trkpt lat="42.892599057968134" lon="12.928157593034324"><ele>517.2</ele><time>2026-04-18T09:33:38Z</time></trkpt><trkpt lat="42.89256131735593" lon="12.928036096861762"><ele>517.4000000000001</ele><time>2026-04-18T09:33:39Z</time></trkpt><trkpt lat="42.8925260123195" lon="12.927849741823731"><ele>517.5999999999999</ele><time>2026-04-18T09:33:41Z</time></trkpt><trkpt lat="42.89251417085932" lon="12.927726699145182"><ele>517.8</ele><time>2026-04-18T09:33:42Z</time></trkpt><trkpt lat="42.89250501893356" lon="12.92761224004278"><ele>518.0</ele><time>2026-04-18T09:33:43Z</time></trkpt><trkpt lat="42.892541099578686" lon="12.927527665226565"><ele>528.0</ele><time>2026-04-18T09:33:44Z</time></trkpt><trkpt lat="42.892590261858075" lon="12.927393396505712"><ele>538.0</ele><time>2026-04-18T09:33:46Z</time></trkpt><trkpt lat="42.892653596847076" lon="12.927226450215274"><ele>548.0</ele><time>2026-04-18T09:33:47Z</time></trkpt><trkpt lat="42.8926956247848" lon="12.92710133057915"><ele>558.0</ele><time>2026-04-18T09:33:48Z</time></trkpt><trkpt lat="42.89273178561319" lon="12.92700173442454"><ele>568.0</ele><time>2026-04-18T09:33:49Z</time></trkpt><trkpt lat="42.89274689680946" lon="12.926828611613551"><ele>568.0</ele><time>2026-04-18T09:33:51Z</time></trkpt><trkpt lat="42.89262551658205" lon="12.926774262379661"><ele>568.0</ele><time>2026-04-18T09:33:52Z</time></trkpt><trkpt lat="42.89256582985718" lon="12.926721906829481"><ele>568.0</ele><time>2026-04-18T09:33:53Z</time></trkpt><trkpt lat="42.892494007027175" lon="12.926627237653193"><ele>568.0</ele><time>2026-04-18T09:33:54Z</time></trkpt><trkpt lat="42.89243831124016" lon="12.92655068108516"><ele>568.0</ele><time>2026-04-18T09:33:55Z</time></trkpt><trkpt lat="42.89238718709887" lon="12.926444064816739"><ele>563.0</ele><time>2026-04-18T09:33:56Z</time></trkpt><trkpt lat="42.89234027630614" lon="12.926331327181648"><ele>558.0</ele><time>2026-04-18T09:33:57Z</time></trkpt><trkpt lat="42.89228433165487" lon="12.926245342852068"><ele>553.0</ele><time>2026-04-18T09:33:58Z</time></trkpt><trkpt lat="42.89218997504666" lon="12.92618759917627"><ele>548.0</ele><time>2026-04-18T09:33:59Z</time></trkpt><trkpt lat="42.89211091601281" lon="12.92611015283266"><ele>543.0</ele><time>2026-04-18T09:34:00Z</time></trkpt><trkpt lat="42.892050459463825" lon="12.92604802216855"><ele>543.0</ele><time>2026-04-18T09:34:01Z</time></trkpt><trkpt lat="42.89195799686444" lon="12.925964482398992"><ele>543.0</ele><time>2026-04-18T09:34:02Z</time></trkpt><trkpt lat="42.89189763848852" lon="12.925892801705977"><ele>543.0</ele><time>2026-04-18T09:34:03Z</time></trkpt><trkpt lat="42.89184447499927" lon="12.925790023450023"><ele>543.0</ele><time>2026-04-18T09:34:04Z</time></trkpt><trkpt lat="42.8918104541623" lon="12.92568001599816"><ele>543.0</ele><time>2026-04-18T09:34:05Z</time></trkpt><trkpt lat="42.891784698078865" lon="12.925584087402171"><ele>543.0</ele><time>2026-04-18T09:34:06Z</time></trkpt><trkpt lat="42.891768040083385" lon="12.925488787468419"><ele>546.5</ele><time>2026-04-18T09:34:09Z</time></trkpt><trkpt lat="42.89173192844435" lon="12.925353613782104"><ele>550.0</ele><time>2026-04-18T09:34:13Z</time></trkpt><trkpt lat="42.89185646256164" lon="12.925231539754394"><ele>553.5</ele><time>2026-04-18T09:34:16Z</time></trkpt><trkpt lat="42.891927540828924" lon="12.925136232692322"><ele>557.0</ele><time>2026-04-18T09:34:18Z</time></trkpt><trkpt lat="42.89198063728004" lon="12.925007768304257"><ele>559.6666666666666</ele><time>2026-04-18T09:34:20Z</time></trkpt><trkpt lat="42.89205750304473" lon="12.924895948730697"><ele>562.3333333333333</ele><time>2026-04-18T09:34:22Z</time></trkpt><trkpt lat="42.89208525594795" lon="12.924990652995472"><ele>565.0</ele><time>2026-04-18T09:34:26.999Z</time></trkpt><trkpt lat="42.8921645663593" lon="12.924925928895046"><ele>567.6666666666666</ele><time>2026-04-18T09:34:30.999Z</time></trkpt><trkpt lat="42.89220119520872" lon="12.924845633203889"><ele>570.3333333333334</ele><time>2026-04-18T09:34:32.999Z</time></trkpt><trkpt lat="42.89225157227357" lon="12.924771121591775"><ele>573.0</ele><time>2026-04-18T09:34:33.999Z</time></trkpt><trkpt lat="42.89230591591942" lon="12.924692180730784"><ele>573.0</ele><time>2026-04-18T09:34:34.999Z</time></trkpt><trkpt lat="42.892363467410405" lon="12.924646852967644"><ele>573.0</ele><time>2026-04-18T09:34:35.999Z</time></trkpt><trkpt lat="42.89242283985493" lon="12.924603050404306"><ele>573.0</ele><time>2026-04-18T09:34:36.999Z</time></trkpt><trkpt lat="42.892484109706686" lon="12.924555831868851"><ele>573.0</ele><time>2026-04-18T09:34:37.999Z</time></trkpt><trkpt lat="42.89254141697362" lon="12.92448845666643"><ele>573.0</ele><time>2026-04-18T09:34:38.999Z</time></trkpt><trkpt lat="42.892602992853554" lon="12.924439774887684"><ele>573.0</ele><time>2026-04-18T09:34:39.999Z</time></trkpt><trkpt lat="42.89270339016977" lon="12.924350896120659"><ele>574.5</ele><time>2026-04-18T09:34:41.999Z</time></trkpt><trkpt lat="42.89280481629897" lon="12.924244307849833"><ele>576.0</ele><time>2026-04-18T09:34:43.999Z</time></trkpt><trkpt lat="42.89287424406549" lon="12.924197409843709"><ele>577.5</ele><time>2026-04-18T09:34:44.999Z</time></trkpt><trkpt lat="42.89293983541646" lon="12.924158448256712"><ele>579.0</ele><time>2026-04-18T09:34:45.999Z</time></trkpt><trkpt lat="42.892998445174385" lon="12.924112062590687"><ele>580.5</ele><time>2026-04-18T09:34:46.999Z</time></trkpt><trkpt lat="42.89305519923657" lon="12.92405320530174"><ele>582.0</ele><time>2026-04-18T09:34:47.999Z</time></trkpt><trkpt lat="42.89311353150189" lon="12.924005881394512"><ele>582.0</ele><time>2026-04-18T09:34:48.999Z</time></trkpt><trkpt lat="42.89318332386243" lon="12.923953664121123"><ele>582.0</ele><time>2026-04-18T09:34:49.999Z</time></trkpt><trkpt lat="42.89324021161351" lon="12.923888088684558"><ele>582.0</ele><time>2026-04-18T09:34:50.999Z</time></trkpt><trkpt lat="42.89329324295902" lon="12.923822546966585"><ele>582.0</ele><time>2026-04-18T09:34:51.999Z</time></trkpt><trkpt lat="42.893365875976066" lon="12.923779337341445"><ele>582.0</ele><time>2026-04-18T09:34:52.999Z</time></trkpt><trkpt lat="42.89342973982687" lon="12.92373323518601"><ele>582.0</ele><time>2026-04-18T09:34:53.999Z</time></trkpt><trkpt lat="42.89349887892406" lon="12.923674269724101"><ele>583.1666666666666</ele><time>2026-04-18T09:34:54.999Z</time></trkpt><trkpt lat="42.89356984601646" lon="12.92360997003281"><ele>584.3333333333334</ele><time>2026-04-18T09:34:55.999Z</time></trkpt><trkpt lat="42.89363179917236" lon="12.923552343300345"><ele>585.5</ele><time>2026-04-18T09:34:56.999Z</time></trkpt><trkpt lat="42.89370701385106" lon="12.923494945459423"><ele>586.6666666666667</ele><time>2026-04-18T09:34:57.999Z</time></trkpt><trkpt lat="42.89377965294127" lon="12.923430613323557"><ele>587.8333333333334</ele><time>2026-04-18T09:34:58.999Z</time></trkpt><trkpt lat="42.89383551040423" lon="12.923372541741392"><ele>589.0</ele><time>2026-04-18T09:34:59.998Z</time></trkpt><trkpt lat="42.89389686410131" lon="12.923306492537234"><ele>589.0</ele><time>2026-04-18T09:35:00.998Z</time></trkpt><trkpt lat="42.893954074365496" lon="12.923255935330843"><ele>589.0</ele><time>2026-04-18T09:35:01.998Z</time></trkpt><trkpt lat="42.89403877574092" lon="12.92319102909269"><ele>589.0</ele><time>2026-04-18T09:35:02.998Z</time></trkpt><trkpt lat="42.89411381337546" lon="12.923124751412317"><ele>589.0</ele><time>2026-04-18T09:35:03.998Z</time></trkpt><trkpt lat="42.89418330361186" lon="12.92305803012722"><ele>589.0</ele><time>2026-04-18T09:35:04.998Z</time></trkpt><trkpt lat="42.89424203340773" lon="12.922992447503466"><ele>589.0</ele><time>2026-04-18T09:35:05.998Z</time></trkpt><trkpt lat="42.89430743591473" lon="12.922921678060018"><ele>592.3333333333334</ele><time>2026-04-18T09:35:06.998Z</time></trkpt><trkpt lat="42.89432857769152" lon="12.92275428045422"><ele>595.6666666666667</ele><time>2026-04-18T09:35:08.998Z</time></trkpt><trkpt lat="42.89435818236997" lon="12.92262912519932"><ele>599.0</ele><time>2026-04-18T09:35:09.998Z</time></trkpt><trkpt lat="42.89439851303996" lon="12.922537333797232"><ele>602.3333333333334</ele><time>2026-04-18T09:35:10.998Z</time></trkpt><trkpt lat="42.89444399065262" lon="12.922453860955864"><ele>605.6666666666666</ele><time>2026-04-18T09:35:11.998Z</time></trkpt><trkpt lat="42.89446997639435" lon="12.922373054962273"><ele>609.0</ele><time>2026-04-18T09:35:12.998Z</time></trkpt><trkpt lat="42.89455027248961" lon="12.922289455682133"><ele>609.0</ele><time>2026-04-18T09:35:14.998Z</time></trkpt><trkpt lat="42.894686529182515" lon="12.92226778832393"><ele>609.0</ele><time>2026-04-18T09:35:16.998Z</time></trkpt><trkpt lat="42.89475406277095" lon="12.922236919667535"><ele>609.0</ele><time>2026-04-18T09:35:17.998Z</time></trkpt><trkpt lat="42.89485756483101" lon="12.922162151331394"><ele>609.0</ele><time>2026-04-18T09:35:19.999Z</time></trkpt><trkpt lat="42.894922644229204" lon="12.92215617792483"><ele>609.0</ele><time>2026-04-18T09:35:20.999Z</time></trkpt><trkpt lat="42.89505451899869" lon="12.92211820847792"><ele>614.6</ele><time>2026-04-18T09:35:22.999Z</time></trkpt><trkpt lat="42.89511342914434" lon="12.922086812366205"><ele>620.2</ele><time>2026-04-18T09:35:23.999Z</time></trkpt><trkpt lat="42.895234097690405" lon="12.92204727900085"><ele>625.8000000000001</ele><time>2026-04-18T09:35:25.999Z</time></trkpt><trkpt lat="42.895323669542115" lon="12.922065429064917"><ele>631.4</ele><time>2026-04-18T09:35:26.999Z</time></trkpt><trkpt lat="42.89538977099348" lon="12.922078752855532"><ele>637.0</ele><time>2026-04-18T09:35:27.999Z</time></trkpt><trkpt lat="42.89550710227097" lon="12.922104452288902"><ele>637.0</ele><time>2026-04-18T09:35:29.999Z</time></trkpt><trkpt lat="42.89557682507622" lon="12.922068594908389"><ele>637.0</ele><time>2026-04-18T09:35:30.999Z</time></trkpt><trkpt lat="42.895656617402494" lon="12.922055378562538"><ele>637.0</ele><time>2026-04-18T09:35:31.999Z</time></trkpt><trkpt lat="42.89572965918762" lon="12.922032342996603"><ele>637.0</ele><time>2026-04-18T09:35:32.999Z</time></trkpt><trkpt lat="42.89579915701575" lon="12.9220158624504"><ele>637.0</ele><time>2026-04-18T09:35:33.999Z</time></trkpt><trkpt lat="42.89585720726121" lon="12.921957032761922"><ele>637.0</ele><time>2026-04-18T09:35:34.999Z</time></trkpt><trkpt lat="42.8959165013776" lon="12.92187169001075"><ele>636.2857142857143</ele><time>2026-04-18T09:35:35.999Z</time></trkpt><trkpt lat="42.89596919253359" lon="12.921808123480067"><ele>635.5714285714286</ele><time>2026-04-18T09:35:36.999Z</time></trkpt><trkpt lat="42.89601207533136" lon="12.921735212815822"><ele>634.8571428571429</ele><time>2026-04-18T09:35:37.999Z</time></trkpt><trkpt lat="42.896066619120504" lon="12.921646847092475"><ele>634.1428571428571</ele><time>2026-04-18T09:35:38.999Z</time></trkpt><trkpt lat="42.896127939060335" lon="12.921588097013814"><ele>633.4285714285714</ele><time>2026-04-18T09:35:39.999Z</time></trkpt><trkpt lat="42.896175674599924" lon="12.921523865143524"><ele>632.7142857142858</ele><time>2026-04-18T09:35:40.999Z</time></trkpt><trkpt lat="42.89620851261224" lon="12.921447290240508"><ele>632.0</ele><time>2026-04-18T09:35:41.999Z</time></trkpt><trkpt lat="42.89628419782606" lon="12.921285037642425"><ele>632.0000000000001</ele><time>2026-04-18T09:35:43.999Z</time></trkpt><trkpt lat="42.89633182042361" lon="12.921221554240228"><ele>632.0</ele><time>2026-04-18T09:35:44.999Z</time></trkpt><trkpt lat="42.89639048096489" lon="12.921182971680148"><ele>632.0</ele><time>2026-04-18T09:35:45.999Z</time></trkpt><trkpt lat="42.896456713106" lon="12.921162483096785"><ele>632.0</ele><time>2026-04-18T09:35:46.999Z</time></trkpt><trkpt lat="42.896521908715435" lon="12.921174150018702"><ele>632.0</ele><time>2026-04-18T09:35:47.999Z</time></trkpt><trkpt lat="42.896598679669346" lon="12.92122211443077"><ele>632.0000000000001</ele><time>2026-04-18T09:35:48.999Z</time></trkpt><trkpt lat="42.89667047359574" lon="12.921299435979325"><ele>632.0</ele><time>2026-04-18T09:35:49.999Z</time></trkpt><trkpt lat="42.89672900076416" lon="12.921368416576094"><ele>635.6666666666666</ele><time>2026-04-18T09:35:50.999Z</time></trkpt><trkpt lat="42.89681274534846" lon="12.921432426331712"><ele>639.3333333333333</ele><time>2026-04-18T09:35:52.999Z</time></trkpt><trkpt lat="42.896886552866555" lon="12.921486749191285"><ele>643.0</ele><time>2026-04-18T09:35:54.999Z</time></trkpt><trkpt lat="42.896956940807975" lon="12.92152647031779"><ele>646.6666666666666</ele><time>2026-04-18T09:35:56.999Z</time></trkpt><trkpt lat="42.89702650813714" lon="12.921454272750404"><ele>650.3333333333334</ele><time>2026-04-18T09:35:58.999Z</time></trkpt><trkpt lat="42.897075090607515" lon="12.921373093884768"><ele>654.0</ele><time>2026-04-18T09:36:00.999Z</time></trkpt><trkpt lat="42.89711990172249" lon="12.921312124233229"><ele>654.0</ele><time>2026-04-18T09:36:01.999Z</time></trkpt><trkpt lat="42.89719971092604" lon="12.921247320166147"><ele>654.0</ele><time>2026-04-18T09:36:03.999Z</time></trkpt><trkpt lat="42.89730159075107" lon="12.921295676178044"><ele>654.0</ele><time>2026-04-18T09:36:05.999Z</time></trkpt><trkpt lat="42.89744150475305" lon="12.921303752843306"><ele>654.0</ele><time>2026-04-18T09:36:07.999Z</time></trkpt><trkpt lat="42.89755012421088" lon="12.9212340946919"><ele>655.8000000000001</ele><time>2026-04-18T09:36:09.999Z</time></trkpt><trkpt lat="42.897668972633156" lon="12.92118183609162"><ele>657.6</ele><time>2026-04-18T09:36:11.999Z</time></trkpt><trkpt lat="42.89778265098335" lon="12.921169075543764"><ele>659.4</ele><time>2026-04-18T09:36:13.999Z</time></trkpt><trkpt lat="42.89783522867436" lon="12.92104759417422"><ele>661.2</ele><time>2026-04-18T09:36:15.999Z</time></trkpt><trkpt lat="42.897867219260156" lon="12.92096362744823"><ele>663.0</ele><time>2026-04-18T09:36:16.999Z</time></trkpt><trkpt lat="42.8979137493851" lon="12.92087233128835"><ele>663.0</ele><time>2026-04-18T09:36:18.999Z</time></trkpt><trkpt lat="42.89797746486454" lon="12.920896479567213"><ele>663.0</ele><time>2026-04-18T09:36:20.999Z</time></trkpt><trkpt lat="42.898066839036645" lon="12.9209084203565"><ele>663.0</ele><time>2026-04-18T09:36:23.999Z</time></trkpt><trkpt lat="42.898145730866396" lon="12.920965687088888"><ele>663.0</ele><time>2026-04-18T09:36:26.999Z</time></trkpt><trkpt lat="42.89819854844828" lon="12.921041351850858"><ele>663.0</ele><time>2026-04-18T09:36:27.999Z</time></trkpt><trkpt lat="42.89828385277833" lon="12.921096833580298"><ele>663.0</ele><time>2026-04-18T09:36:29.999Z</time></trkpt><trkpt lat="42.89839813381156" lon="12.921135986017356"><ele>667.5</ele><time>2026-04-18T09:36:31.999Z</time></trkpt><trkpt lat="42.89851849488893" lon="12.921130995875123"><ele>672.0</ele><time>2026-04-18T09:36:33.999Z</time></trkpt><trkpt lat="42.89859527755678" lon="12.921117892730052"><ele>676.5</ele><time>2026-04-18T09:36:34.999Z</time></trkpt><trkpt lat="42.89866446096915" lon="12.921132970535863"><ele>681.0</ele><time>2026-04-18T09:36:35.999Z</time></trkpt><trkpt lat="42.898747972692234" lon="12.921164001277631"><ele>685.5</ele><time>2026-04-18T09:36:36.999Z</time></trkpt><trkpt lat="42.898814632528584" lon="12.92121880690729"><ele>690.0</ele><time>2026-04-18T09:36:37.999Z</time></trkpt><trkpt lat="42.89888431760628" lon="12.921262181313669"><ele>690.0</ele><time>2026-04-18T09:36:38.999Z</time></trkpt><trkpt lat="42.898969511031915" lon="12.921291179205864"><ele>690.0</ele><time>2026-04-18T09:36:39.999Z</time></trkpt><trkpt lat="42.899043758922" lon="12.921312433913272"><ele>690.0</ele><time>2026-04-18T09:36:40.999Z</time></trkpt><trkpt lat="42.89911050346893" lon="12.921319364788216"><ele>690.0</ele><time>2026-04-18T09:36:41.999Z</time></trkpt><trkpt lat="42.89918857717012" lon="12.921373013496243"><ele>690.0</ele><time>2026-04-18T09:36:42.999Z</time></trkpt><trkpt lat="42.89926228939464" lon="12.921408168393443"><ele>690.0</ele><time>2026-04-18T09:36:43.999Z</time></trkpt><trkpt lat="42.899395185859774" lon="12.921429100300463"><ele>693.0</ele><time>2026-04-18T09:36:45.999Z</time></trkpt><trkpt lat="42.8995374473908" lon="12.921498593220534"><ele>696.0</ele><time>2026-04-18T09:36:47.999Z</time></trkpt><trkpt lat="42.89963354921551" lon="12.921454414807808"><ele>699.0</ele><time>2026-04-18T09:36:49.999Z</time></trkpt><trkpt lat="42.899749069207836" lon="12.921426312855976"><ele>702.0</ele><time>2026-04-18T09:36:51.999Z</time></trkpt><trkpt lat="42.89984755126464" lon="12.9214112480414"><ele>702.0</ele><time>2026-04-18T09:36:52.999Z</time></trkpt><trkpt lat="42.89992781903808" lon="12.921400673842346"><ele>702.0</ele><time>2026-04-18T09:36:53.999Z</time></trkpt><trkpt lat="42.89999550393898" lon="12.92139220324613"><ele>702.0</ele><time>2026-04-18T09:36:54.999Z</time></trkpt><trkpt lat="42.900074353433794" lon="12.921385601632117"><ele>702.0</ele><time>2026-04-18T09:36:55.999Z</time></trkpt><trkpt lat="42.90015028878333" lon="12.921375959185296"><ele>702.0</ele><time>2026-04-18T09:36:56.999Z</time></trkpt><trkpt lat="42.90024162094697" lon="12.921320978852085"><ele>702.0</ele><time>2026-04-18T09:36:57.999Z</time></trkpt><trkpt lat="42.90032821701806" lon="12.921254349489026"><ele>702.75</ele><time>2026-04-18T09:36:58.999Z</time></trkpt><trkpt lat="42.900435768921746" lon="12.921181894281824"><ele>703.5</ele><time>2026-04-18T09:36:59.999Z</time></trkpt><trkpt lat="42.900564293883754" lon="12.92112232072711"><ele>704.25</ele><time>2026-04-18T09:37:00.998Z</time></trkpt><trkpt lat="42.900690108855464" lon="12.921107428092586"><ele>705.0</ele><time>2026-04-18T09:37:01.998Z</time></trkpt><trkpt lat="42.90081629636484" lon="12.921109525041278"><ele>706.2</ele><time>2026-04-18T09:37:02.998Z</time></trkpt><trkpt lat="42.900931549049396" lon="12.92111140980082"><ele>707.4</ele><time>2026-04-18T09:37:03.998Z</time></trkpt><trkpt lat="42.90104634090619" lon="12.921139368529348"><ele>708.5999999999999</ele><time>2026-04-18T09:37:04.998Z</time></trkpt><trkpt lat="42.901140409928104" lon="12.921107018972364"><ele>709.8</ele><time>2026-04-18T09:37:05.998Z</time></trkpt><trkpt lat="42.90122127387532" lon="12.921091817033528"><ele>711.0</ele><time>2026-04-18T09:37:06.998Z</time></trkpt><trkpt lat="42.9012824404191" lon="12.9210201416372"><ele>711.0</ele><time>2026-04-18T09:37:07.998Z</time></trkpt><trkpt lat="42.901330443261394" lon="12.920940303080771"><ele>711.0</ele><time>2026-04-18T09:37:08.998Z</time></trkpt><trkpt lat="42.90132082031079" lon="12.9207804193733"><ele>711.0</ele><time>2026-04-18T09:37:09.998Z</time></trkpt><trkpt lat="42.90128410620367" lon="12.920654036011566"><ele>711.0</ele><time>2026-04-18T09:37:10.998Z</time></trkpt><trkpt lat="42.901178090230744" lon="12.920593598093209"><ele>711.0</ele><time>2026-04-18T09:37:11.998Z</time></trkpt><trkpt lat="42.90105765494295" lon="12.920529067638856"><ele>707.0</ele><time>2026-04-18T09:37:12.998Z</time></trkpt><trkpt lat="42.90096562327673" lon="12.920404140595668"><ele>703.0</ele><time>2026-04-18T09:37:13.998Z</time></trkpt><trkpt lat="42.90085451563656" lon="12.920277048807753"><ele>699.0</ele><time>2026-04-18T09:37:14.998Z</time></trkpt><trkpt lat="42.9007402649928" lon="12.92017288584837"><ele>695.0</ele><time>2026-04-18T09:37:15.998Z</time></trkpt><trkpt lat="42.900629205812024" lon="12.920067497715692"><ele>694.75</ele><time>2026-04-18T09:37:16.998Z</time></trkpt><trkpt lat="42.9005319960251" lon="12.91994711753673"><ele>694.5</ele><time>2026-04-18T09:37:17.998Z</time></trkpt><trkpt lat="42.90042523122011" lon="12.919819985336396"><ele>694.25</ele><time>2026-04-18T09:37:18.998Z</time></trkpt><trkpt lat="42.900310061226236" lon="12.919703315141275"><ele>694.0</ele><time>2026-04-18T09:37:19.998Z</time></trkpt><trkpt lat="42.900206377593555" lon="12.919574063084205"><ele>694.0</ele><time>2026-04-18T09:37:20.998Z</time></trkpt><trkpt lat="42.90011034880358" lon="12.919459506301079"><ele>694.0</ele><time>2026-04-18T09:37:21.998Z</time></trkpt><trkpt lat="42.90001484538122" lon="12.919333831512057"><ele>694.0</ele><time>2026-04-18T09:37:22.998Z</time></trkpt><trkpt lat="42.899929234079075" lon="12.919211404752538"><ele>694.0</ele><time>2026-04-18T09:37:23.998Z</time></trkpt><trkpt lat="42.89983628470638" lon="12.919081795808218"><ele>693.5</ele><time>2026-04-18T09:37:24.999Z</time></trkpt><trkpt lat="42.89974866583813" lon="12.918944963462607"><ele>693.0</ele><time>2026-04-18T09:37:25.999Z</time></trkpt><trkpt lat="42.89967381911852" lon="12.918818031121157"><ele>692.5</ele><time>2026-04-18T09:37:26.999Z</time></trkpt><trkpt lat="42.89960678942823" lon="12.918697942234836"><ele>692.0</ele><time>2026-04-18T09:37:27.999Z</time></trkpt><trkpt lat="42.899544837478345" lon="12.918579738632893"><ele>692.0</ele><time>2026-04-18T09:37:28.999Z</time></trkpt><trkpt lat="42.899473519644395" lon="12.918508695319677"><ele>692.0</ele><time>2026-04-18T09:37:30.999Z</time></trkpt><trkpt lat="42.89943737506985" lon="12.918424607099379"><ele>692.0</ele><time>2026-04-18T09:37:33.999Z</time></trkpt><trkpt lat="42.899389952978574" lon="12.918348753442793"><ele>692.0</ele><time>2026-04-18T09:37:35.999Z</time></trkpt><trkpt lat="42.899334867466926" lon="12.918284489100765"><ele>692.0</ele><time>2026-04-18T09:37:40.999Z</time></trkpt><trkpt lat="42.89933800408568" lon="12.918386658949286"><ele>692.0</ele><time>2026-04-18T09:37:43.999Z</time></trkpt><trkpt lat="42.899407641803485" lon="12.918415760953811"><ele>692.0</ele><time>2026-04-18T09:37:45.999Z</time></trkpt><trkpt lat="42.89947445846015" lon="12.918430368608211"><ele>692.0</ele><time>2026-04-18T09:37:47.999Z</time></trkpt><trkpt lat="42.89952612150298" lon="12.91834932319378"><ele>692.0</ele><time>2026-04-18T09:37:50.999Z</time></trkpt><trkpt lat="42.899586356999556" lon="12.918283790246976"><ele>692.0</ele><time>2026-04-18T09:37:52.999Z</time></trkpt><trkpt lat="42.899644964001524" lon="12.918244359097944"><ele>692.0</ele><time>2026-04-18T09:37:53.999Z</time></trkpt><trkpt lat="42.899717241888716" lon="12.918211997314431"><ele>692.0</ele><time>2026-04-18T09:37:54.999Z</time></trkpt><trkpt lat="42.89980408216999" lon="12.918117217477791"><ele>693.0</ele><time>2026-04-18T09:37:56.999Z</time></trkpt><trkpt lat="42.89984602098071" lon="12.918015388049634"><ele>694.0</ele><time>2026-04-18T09:37:58.999Z</time></trkpt><trkpt lat="42.89978441830989" lon="12.917934471729495"><ele>695.0</ele><time>2026-04-18T09:38:02.999Z</time></trkpt><trkpt lat="42.899724030612504" lon="12.917845982595841"><ele>696.0</ele><time>2026-04-18T09:38:04.999Z</time></trkpt><trkpt lat="42.89968623030618" lon="12.917749510040721"><ele>697.0</ele><time>2026-04-18T09:38:06.999Z</time></trkpt><trkpt lat="42.89963096148412" lon="12.917644136343307"><ele>698.0</ele><time>2026-04-18T09:38:08.999Z</time></trkpt><trkpt lat="42.899574239881524" lon="12.917510060660845"><ele>697.9999999999999</ele><time>2026-04-18T09:38:10.999Z</time></trkpt><trkpt lat="42.899537466541084" lon="12.917436995350673"><ele>698.0</ele><time>2026-04-18T09:38:11.999Z</time></trkpt><trkpt lat="42.89950155053725" lon="12.917359562599955"><ele>698.0</ele><time>2026-04-18T09:38:12.999Z</time></trkpt><trkpt lat="42.89947814657465" lon="12.917270712877274"><ele>698.0</ele><time>2026-04-18T09:38:13.999Z</time></trkpt><trkpt lat="42.899443785560706" lon="12.91718546697982"><ele>698.0</ele><time>2026-04-18T09:38:14.999Z</time></trkpt><trkpt lat="42.899410629558275" lon="12.917102936944271"><ele>697.9999999999999</ele><time>2026-04-18T09:38:15.999Z</time></trkpt><trkpt lat="42.89938455191643" lon="12.91702065546514"><ele>698.0</ele><time>2026-04-18T09:38:16.999Z</time></trkpt><trkpt lat="42.899344522969855" lon="12.916939081838642"><ele>698.0</ele><time>2026-04-18T09:38:17.999Z</time></trkpt><trkpt lat="42.89928554021074" lon="12.916798894594653"><ele>698.0</ele><time>2026-04-18T09:38:19.999Z</time></trkpt><trkpt lat="42.89922288785107" lon="12.916680382032732"><ele>698.0</ele><time>2026-04-18T09:38:21.999Z</time></trkpt><trkpt lat="42.89918206975354" lon="12.916612757684879"><ele>698.0</ele><time>2026-04-18T09:38:23.999Z</time></trkpt><trkpt lat="42.899121958970284" lon="12.91652655332035"><ele>698.0</ele><time>2026-04-18T09:38:27.999Z</time></trkpt><trkpt lat="42.89907595443845" lon="12.916396416034251"><ele>691.2</ele><time>2026-04-18T09:38:29.999Z</time></trkpt><trkpt lat="42.899036565905405" lon="12.916243744346389"><ele>684.4</ele><time>2026-04-18T09:38:31.999Z</time></trkpt><trkpt lat="42.899008854089956" lon="12.91615268786209"><ele>677.6</ele><time>2026-04-18T09:38:41.999Z</time></trkpt><trkpt lat="42.89899724922294" lon="12.916067269115764"><ele>670.8000000000001</ele><time>2026-04-18T09:38:45.999Z</time></trkpt><trkpt lat="42.89903542378026" lon="12.915952377986539"><ele>664.0</ele><time>2026-04-18T09:38:47.999Z</time></trkpt><trkpt lat="42.8991012416964" lon="12.915838715820724"><ele>662.3333333333334</ele><time>2026-04-18T09:38:49.999Z</time></trkpt><trkpt lat="42.899146812237674" lon="12.915772024393183"><ele>660.6666666666667</ele><time>2026-04-18T09:38:50.999Z</time></trkpt><trkpt lat="42.89923814632431" lon="12.915670580286251"><ele>659.0</ele><time>2026-04-18T09:38:52.999Z</time></trkpt><trkpt lat="42.899305738107614" lon="12.915624106187277"><ele>657.3333333333334</ele><time>2026-04-18T09:38:53.999Z</time></trkpt><trkpt lat="42.89936499421782" lon="12.915592955294144"><ele>655.6666666666666</ele><time>2026-04-18T09:38:54.999Z</time></trkpt><trkpt lat="42.899423336501236" lon="12.915543538610615"><ele>654.0</ele><time>2026-04-18T09:38:55.999Z</time></trkpt><trkpt lat="42.899491893896794" lon="12.915489078609923"><ele>657.6666666666666</ele><time>2026-04-18T09:38:56.999Z</time></trkpt><trkpt lat="42.89956651371625" lon="12.915461124320732"><ele>661.3333333333334</ele><time>2026-04-18T09:38:57.999Z</time></trkpt><trkpt lat="42.89964447811235" lon="12.915420556332657"><ele>665.0</ele><time>2026-04-18T09:38:59.999Z</time></trkpt><trkpt lat="42.899592507388455" lon="12.915352918874122"><ele>668.6666666666667</ele><time>2026-04-18T09:39:01.999Z</time></trkpt><trkpt lat="42.899469222360885" lon="12.915361980914952"><ele>672.3333333333334</ele><time>2026-04-18T09:39:03.999Z</time></trkpt><trkpt lat="42.89940304350054" lon="12.915369578232085"><ele>676.0</ele><time>2026-04-18T09:39:04.999Z</time></trkpt><trkpt lat="42.899287287513246" lon="12.915321578561977"><ele>672.3333333333334</ele><time>2026-04-18T09:39:06.999Z</time></trkpt><trkpt lat="42.89921972664405" lon="12.915297678157462"><ele>668.6666666666667</ele><time>2026-04-18T09:39:07.999Z</time></trkpt><trkpt lat="42.89910086425319" lon="12.915236775308614"><ele>665.0</ele><time>2026-04-18T09:39:09.999Z</time></trkpt><trkpt lat="42.89902867237652" lon="12.915216746899173"><ele>661.3333333333334</ele><time>2026-04-18T09:39:10.999Z</time></trkpt><trkpt lat="42.89896478954294" lon="12.915215199754819"><ele>657.6666666666666</ele><time>2026-04-18T09:39:11.999Z</time></trkpt><trkpt lat="42.89886290831121" lon="12.91520065017923"><ele>654.0</ele><time>2026-04-18T09:39:13.999Z</time></trkpt><trkpt lat="42.89875757388444" lon="12.91521393875043"><ele>654.0</ele><time>2026-04-18T09:39:15.999Z</time></trkpt><trkpt lat="42.89869161301997" lon="12.915233274669122"><ele>654.0</ele><time>2026-04-18T09:39:16.999Z</time></trkpt><trkpt lat="42.898591743267076" lon="12.915235666514404"><ele>654.0</ele><time>2026-04-18T09:39:17.999Z</time></trkpt><trkpt lat="42.89851324884422" lon="12.915256384926797"><ele>654.0</ele><time>2026-04-18T09:39:18.999Z</time></trkpt><trkpt lat="42.898416093025645" lon="12.915331827597454"><ele>654.0</ele><time>2026-04-18T09:39:20.999Z</time></trkpt><trkpt lat="42.89836374853554" lon="12.915445301521542"><ele>649.5</ele><time>2026-04-18T09:39:22.999Z</time></trkpt><trkpt lat="42.8982652638096" lon="12.915529332948573"><ele>645.0</ele><time>2026-04-18T09:39:24.999Z</time></trkpt><trkpt lat="42.89821801170682" lon="12.915594693721934"><ele>640.5</ele><time>2026-04-18T09:39:25.999Z</time></trkpt><trkpt lat="42.898150001474924" lon="12.915727011783506"><ele>636.0</ele><time>2026-04-18T09:39:27.999Z</time></trkpt><trkpt lat="42.89803543834458" lon="12.915856695798052"><ele>637.0</ele><time>2026-04-18T09:39:29.999Z</time></trkpt><trkpt lat="42.89799014670624" lon="12.915941780739482"><ele>638.0</ele><time>2026-04-18T09:39:30.999Z</time></trkpt><trkpt lat="42.89796071093424" lon="12.91602010929275"><ele>639.0</ele><time>2026-04-18T09:39:31.999Z</time></trkpt><trkpt lat="42.89787374423069" lon="12.916075887851706"><ele>640.0</ele><time>2026-04-18T09:39:33.999Z</time></trkpt><trkpt lat="42.897795027390515" lon="12.916083567017884"><ele>641.0</ele><time>2026-04-18T09:39:36.999Z</time></trkpt><trkpt lat="42.89774217728993" lon="12.91619647112005"><ele>642.0</ele><time>2026-04-18T09:39:39.999Z</time></trkpt><trkpt lat="42.89769279327484" lon="12.916319741867333"><ele>642.0</ele><time>2026-04-18T09:39:41.999Z</time></trkpt><trkpt lat="42.897645091198996" lon="12.916394484810303"><ele>642.0</ele><time>2026-04-18T09:39:43.999Z</time></trkpt><trkpt lat="42.89759587602049" lon="12.916463795312119"><ele>642.0</ele><time>2026-04-18T09:39:45.999Z</time></trkpt><trkpt lat="42.897549439033355" lon="12.916527279801109"><ele>642.0</ele><time>2026-04-18T09:39:47.999Z</time></trkpt><trkpt lat="42.897470165184544" lon="12.916591579338034"><ele>642.0</ele><time>2026-04-18T09:39:49.999Z</time></trkpt><trkpt lat="42.897366842913485" lon="12.91669379945936"><ele>642.0</ele><time>2026-04-18T09:39:51.999Z</time></trkpt><trkpt lat="42.897312417799526" lon="12.916758083418644"><ele>638.2</ele><time>2026-04-18T09:39:52.999Z</time></trkpt><trkpt lat="42.89720215690236" lon="12.916821239250519"><ele>634.4000000000001</ele><time>2026-04-18T09:39:54.999Z</time></trkpt><trkpt lat="42.897124604034026" lon="12.91685209322922"><ele>630.5999999999999</ele><time>2026-04-18T09:39:55.999Z</time></trkpt><trkpt lat="42.897053320070086" lon="12.91690419188564"><ele>626.8</ele><time>2026-04-18T09:39:56.999Z</time></trkpt><trkpt lat="42.896972577438355" lon="12.916961232677288"><ele>623.0</ele><time>2026-04-18T09:39:57.999Z</time></trkpt><trkpt lat="42.89688484835486" lon="12.917004364209214"><ele>623.0</ele><time>2026-04-18T09:39:58.999Z</time></trkpt><trkpt lat="42.896795449100395" lon="12.917016498056812"><ele>623.0</ele><time>2026-04-18T09:39:59.999Z</time></trkpt><trkpt lat="42.8966974749809" lon="12.916952733516815"><ele>623.0</ele><time>2026-04-18T09:40:01.999Z</time></trkpt><trkpt lat="42.89667752366568" lon="12.916860374329794"><ele>623.0</ele><time>2026-04-18T09:40:03.999Z</time></trkpt><trkpt lat="42.89669084456478" lon="12.916700564016121"><ele>623.0</ele><time>2026-04-18T09:40:05.999Z</time></trkpt><trkpt lat="42.896725365335236" lon="12.91661703763873"><ele>623.1666666666666</ele><time>2026-04-18T09:40:06.999Z</time></trkpt><trkpt lat="42.896759658674085" lon="12.916524579072412"><ele>623.3333333333333</ele><time>2026-04-18T09:40:07.999Z</time></trkpt><trkpt lat="42.89678047008167" lon="12.916423125971876"><ele>623.5</ele><time>2026-04-18T09:40:08.999Z</time></trkpt><trkpt lat="42.89680968647522" lon="12.916341543322648"><ele>623.6666666666666</ele><time>2026-04-18T09:40:09.999Z</time></trkpt><trkpt lat="42.896845087184836" lon="12.916250225741692"><ele>623.8333333333334</ele><time>2026-04-18T09:40:10.999Z</time></trkpt><trkpt lat="42.89685841629727" lon="12.91616177782124"><ele>624.0</ele><time>2026-04-18T09:40:12.999Z</time></trkpt><trkpt lat="42.89685451453544" lon="12.915991304549095"><ele>626.6666666666666</ele><time>2026-04-18T09:40:14.999Z</time></trkpt><trkpt lat="42.896856844102736" lon="12.91590229462971"><ele>629.3333333333334</ele><time>2026-04-18T09:40:15.999Z</time></trkpt><trkpt lat="42.8968488415286" lon="12.91577514914417"><ele>632.0</ele><time>2026-04-18T09:40:17.999Z</time></trkpt><trkpt lat="42.89682947949994" lon="12.91568774734474"><ele>634.6666666666667</ele><time>2026-04-18T09:40:21.999Z</time></trkpt><trkpt lat="42.896822325316194" lon="12.915564315536214"><ele>637.3333333333334</ele><time>2026-04-18T09:40:28.999Z</time></trkpt><trkpt lat="42.89681889752135" lon="12.91545847705018"><ele>640.0</ele><time>2026-04-18T09:40:30.999Z</time></trkpt><trkpt lat="42.89682665595083" lon="12.91536472860559"><ele>640.0</ele><time>2026-04-18T09:40:32.999Z</time></trkpt><trkpt lat="42.89682524862931" lon="12.915271364431591"><ele>640.0</ele><time>2026-04-18T09:40:36.999Z</time></trkpt><trkpt lat="42.896820095148904" lon="12.915170104554576"><ele>640.0</ele><time>2026-04-18T09:40:41.999Z</time></trkpt><trkpt lat="42.89683218818335" lon="12.915060476421242"><ele>640.0</ele><time>2026-04-18T09:40:43.999Z</time></trkpt><trkpt lat="42.896853415068676" lon="12.914947844296968"><ele>640.0</ele><time>2026-04-18T09:40:45.999Z</time></trkpt><trkpt lat="42.89687978770131" lon="12.914824571773943"><ele>640.0</ele><time>2026-04-18T09:40:47.999Z</time></trkpt><trkpt lat="42.89688956079733" lon="12.914711039448198"><ele>644.5</ele><time>2026-04-18T09:40:49.999Z</time></trkpt><trkpt lat="42.89691350205635" lon="12.914591625826334"><ele>649.0</ele><time>2026-04-18T09:40:51.999Z</time></trkpt><trkpt lat="42.89692403774763" lon="12.914498130973554"><ele>653.5</ele><time>2026-04-18T09:40:55.999Z</time></trkpt><trkpt lat="42.89694241060402" lon="12.914409305667887"><ele>658.0</ele><time>2026-04-18T09:40:57.999Z</time></trkpt><trkpt lat="42.896941748003954" lon="12.914296400794278"><ele>662.5</ele><time>2026-04-18T09:41:02.999Z</time></trkpt><trkpt lat="42.896903939340504" lon="12.91416939707906"><ele>667.0</ele><time>2026-04-18T09:41:09.999Z</time></trkpt><trkpt lat="42.896856817486515" lon="12.914071413805672"><ele>672.2</ele><time>2026-04-18T09:41:11.999Z</time></trkpt><trkpt lat="42.89683625340519" lon="12.913966357026613"><ele>677.4000000000001</ele><time>2026-04-18T09:41:14.999Z</time></trkpt><trkpt lat="42.8968445033575" lon="12.913846086054887"><ele>682.5999999999999</ele><time>2026-04-18T09:41:17.999Z</time></trkpt><trkpt lat="42.8968965288889" lon="12.913747645344422"><ele>687.8</ele><time>2026-04-18T09:41:19.999Z</time></trkpt><trkpt lat="42.89694667610972" lon="12.91362633355395"><ele>693.0</ele><time>2026-04-18T09:41:21.999Z</time></trkpt><trkpt lat="42.896946205912535" lon="12.913489723959627"><ele>696.1666666666666</ele><time>2026-04-18T09:41:23.999Z</time></trkpt><trkpt lat="42.89692546504021" lon="12.913337945118158"><ele>699.3333333333334</ele><time>2026-04-18T09:41:25.999Z</time></trkpt><trkpt lat="42.89690708033732" lon="12.913234398857128"><ele>702.5</ele><time>2026-04-18T09:41:26.999Z</time></trkpt><trkpt lat="42.89688335302904" lon="12.913123716944746"><ele>705.6666666666667</ele><time>2026-04-18T09:41:27.999Z</time></trkpt><trkpt lat="42.89686183104591" lon="12.913017760726623"><ele>708.8333333333334</ele><time>2026-04-18T09:41:28.999Z</time></trkpt><trkpt lat="42.896856318974194" lon="12.912913440345427"><ele>712.0</ele><time>2026-04-18T09:41:29.999Z</time></trkpt><trkpt lat="42.896863243488596" lon="12.91281345512389"><ele>712.0</ele><time>2026-04-18T09:41:30.999Z</time></trkpt><trkpt lat="42.89686359815441" lon="12.912628615029515"><ele>712.0</ele><time>2026-04-18T09:41:32.999Z</time></trkpt><trkpt lat="42.896854804609085" lon="12.912529670954727"><ele>712.0</ele><time>2026-04-18T09:41:33.999Z</time></trkpt><trkpt lat="42.89686169802803" lon="12.912434740345137"><ele>712.0</ele><time>2026-04-18T09:41:34.999Z</time></trkpt><trkpt lat="42.896876592864345" lon="12.9122538966963"><ele>712.0</ele><time>2026-04-18T09:41:37Z</time></trkpt><trkpt lat="42.896953683506275" lon="12.912128466114604"><ele>713.8</ele><time>2026-04-18T09:41:39Z</time></trkpt><trkpt lat="42.89704264019059" lon="12.91203453106579"><ele>715.6</ele><time>2026-04-18T09:41:41Z</time></trkpt><trkpt lat="42.89710334709692" lon="12.911905608908777"><ele>717.4</ele><time>2026-04-18T09:41:43Z</time></trkpt><trkpt lat="42.89716845074166" lon="12.911834155982753"><ele>719.1999999999999</ele><time>2026-04-18T09:41:45Z</time></trkpt><trkpt lat="42.89711931400174" lon="12.911703446027893"><ele>721.0</ele><time>2026-04-18T09:41:48Z</time></trkpt><trkpt lat="42.89709183949849" lon="12.911581436974187"><ele>721.5</ele><time>2026-04-18T09:41:50Z</time></trkpt><trkpt lat="42.897137740306135" lon="12.911477402852352"><ele>722.0</ele><time>2026-04-18T09:41:52Z</time></trkpt><trkpt lat="42.89721933048193" lon="12.911403017057127"><ele>722.5</ele><time>2026-04-18T09:41:54Z</time></trkpt><trkpt lat="42.89729332451396" lon="12.911298721022561"><ele>723.0</ele><time>2026-04-18T09:41:56Z</time></trkpt><trkpt lat="42.897300651763004" lon="12.911191616892157"><ele>723.5</ele><time>2026-04-18T09:41:58Z</time></trkpt><trkpt lat="42.897290159781654" lon="12.911104042339895"><ele>724.0</ele><time>2026-04-18T09:41:59Z</time></trkpt><trkpt lat="42.89723104988162" lon="12.910947582229891"><ele>722.8333333333334</ele><time>2026-04-18T09:42:01Z</time></trkpt><trkpt lat="42.897248833647375" lon="12.910851412748817"><ele>721.6666666666667</ele><time>2026-04-18T09:42:02Z</time></trkpt><trkpt lat="42.89725559179731" lon="12.910753586390461"><ele>720.5</ele><time>2026-04-18T09:42:03Z</time></trkpt><trkpt lat="42.897261918421805" lon="12.91064700805556"><ele>719.3333333333334</ele><time>2026-04-18T09:42:04Z</time></trkpt><trkpt lat="42.89726870975477" lon="12.910553679326503"><ele>718.1666666666666</ele><time>2026-04-18T09:42:05Z</time></trkpt><trkpt lat="42.89727233469655" lon="12.910402436618304"><ele>717.0</ele><time>2026-04-18T09:42:07Z</time></trkpt><trkpt lat="42.89721474498003" lon="12.910328383924162"><ele>717.0</ele><time>2026-04-18T09:42:09.999Z</time></trkpt><trkpt lat="42.89713598241064" lon="12.910345149447386"><ele>717.0</ele><time>2026-04-18T09:42:11.999Z</time></trkpt><trkpt lat="42.897054931251276" lon="12.910376488695668"><ele>717.0</ele><time>2026-04-18T09:42:12.999Z</time></trkpt><trkpt lat="42.89697105506738" lon="12.910394929763743"><ele>717.0</ele><time>2026-04-18T09:42:13.999Z</time></trkpt><trkpt lat="42.89689235409893" lon="12.910406746847556"><ele>717.0</ele><time>2026-04-18T09:42:14.999Z</time></trkpt><trkpt lat="42.89680318239995" lon="12.910422971307987"><ele>717.0</ele><time>2026-04-18T09:42:15.999Z</time></trkpt><trkpt lat="42.89670787973265" lon="12.910424123212026"><ele>716.0</ele><time>2026-04-18T09:42:16.999Z</time></trkpt><trkpt lat="42.89659958106834" lon="12.910422039259544"><ele>715.0</ele><time>2026-04-18T09:42:17.999Z</time></trkpt><trkpt lat="42.89650115736853" lon="12.910425168686384"><ele>714.0</ele><time>2026-04-18T09:42:18.999Z</time></trkpt><trkpt lat="42.89640591796046" lon="12.910431588537904"><ele>713.0</ele><time>2026-04-18T09:42:19.999Z</time></trkpt><trkpt lat="42.89630290347445" lon="12.910432061199087"><ele>712.0</ele><time>2026-04-18T09:42:20.999Z</time></trkpt><trkpt lat="42.89618286660681" lon="12.910413746721893"><ele>712.0</ele><time>2026-04-18T09:42:21.999Z</time></trkpt><trkpt lat="42.89604731713877" lon="12.910392614088924"><ele>712.0</ele><time>2026-04-18T09:42:22.999Z</time></trkpt><trkpt lat="42.895904891184635" lon="12.91039523795108"><ele>712.0</ele><time>2026-04-18T09:42:23.999Z</time></trkpt><trkpt lat="42.89575229654672" lon="12.91042013954128"><ele>712.0</ele><time>2026-04-18T09:42:24.999Z</time></trkpt><trkpt lat="42.895601938597295" lon="12.910456661990915"><ele>710.0</ele><time>2026-04-18T09:42:25.999Z</time></trkpt><trkpt lat="42.89545160103594" lon="12.91051308207752"><ele>708.0</ele><time>2026-04-18T09:42:26.999Z</time></trkpt><trkpt lat="42.8953219714346" lon="12.910622856694223"><ele>706.0</ele><time>2026-04-18T09:42:27.999Z</time></trkpt><trkpt lat="42.89521678088704" lon="12.910783776587463"><ele>705.0</ele><time>2026-04-18T09:42:28.999Z</time></trkpt><trkpt lat="42.89512002516752" lon="12.910954294614072"><ele>704.0</ele><time>2026-04-18T09:42:29.999Z</time></trkpt><trkpt lat="42.8950174492385" lon="12.911092281776124"><ele>703.0</ele><time>2026-04-18T09:42:30.999Z</time></trkpt><trkpt lat="42.894895367477815" lon="12.911194607281086"><ele>702.0</ele><time>2026-04-18T09:42:31.999Z</time></trkpt><trkpt lat="42.89476525054976" lon="12.911279260657215"><ele>702.0</ele><time>2026-04-18T09:42:32.999Z</time></trkpt><trkpt lat="42.89463156690343" lon="12.9113521856595"><ele>702.0</ele><time>2026-04-18T09:42:33.999Z</time></trkpt><trkpt lat="42.894511643909865" lon="12.91142873238966"><ele>702.0</ele><time>2026-04-18T09:42:34.999Z</time></trkpt><trkpt lat="42.894400382897544" lon="12.911499818793823"><ele>702.0</ele><time>2026-04-18T09:42:35.999Z</time></trkpt><trkpt lat="42.89427817493594" lon="12.911552535799723"><ele>701.25</ele><time>2026-04-18T09:42:36.999Z</time></trkpt><trkpt lat="42.894160739923166" lon="12.911582129902591"><ele>700.5</ele><time>2026-04-18T09:42:37.999Z</time></trkpt><trkpt lat="42.89403448838198" lon="12.911597564251464"><ele>699.75</ele><time>2026-04-18T09:42:38.999Z</time></trkpt><trkpt lat="42.89389595137548" lon="12.911616631729808"><ele>699.0</ele><time>2026-04-18T09:42:39.999Z</time></trkpt><trkpt lat="42.8937458432628" lon="12.91163900040042"><ele>699.0</ele><time>2026-04-18T09:42:40.999Z</time></trkpt><trkpt lat="42.89359148069053" lon="12.911646209746031"><ele>699.0</ele><time>2026-04-18T09:42:41.999Z</time></trkpt><trkpt lat="42.89344335406417" lon="12.911639610398746"><ele>699.0</ele><time>2026-04-18T09:42:42.999Z</time></trkpt><trkpt lat="42.89329098809495" lon="12.911645614196946"><ele>699.5</ele><time>2026-04-18T09:42:43.999Z</time></trkpt><trkpt lat="42.8931472899749" lon="12.911662700148808"><ele>700.0</ele><time>2026-04-18T09:42:44.999Z</time></trkpt><trkpt lat="42.89301134576648" lon="12.911678226405174"><ele>700.5</ele><time>2026-04-18T09:42:45.999Z</time></trkpt><trkpt lat="42.892905380171875" lon="12.911709451473316"><ele>701.0</ele><time>2026-04-18T09:42:46.999Z</time></trkpt><trkpt lat="42.89283539356044" lon="12.911770888673848"><ele>701.5</ele><time>2026-04-18T09:42:47.999Z</time></trkpt><trkpt lat="42.89280226722327" lon="12.911858978802943"><ele>702.0</ele><time>2026-04-18T09:42:48.999Z</time></trkpt><trkpt lat="42.89277876640856" lon="12.911947525958796"><ele>702.5</ele><time>2026-04-18T09:42:49.999Z</time></trkpt><trkpt lat="42.892715086653894" lon="12.912101261728141"><ele>703.0</ele><time>2026-04-18T09:42:51.999Z</time></trkpt><trkpt lat="42.89265411511233" lon="12.912179878897343"><ele>703.5</ele><time>2026-04-18T09:42:52.999Z</time></trkpt><trkpt lat="42.89258905319682" lon="12.912253991159206"><ele>704.0</ele><time>2026-04-18T09:42:53.999Z</time></trkpt><trkpt lat="42.89251466405122" lon="12.912321748645706"><ele>704.0</ele><time>2026-04-18T09:42:54.999Z</time></trkpt><trkpt lat="42.89244353088783" lon="12.91238465554591"><ele>704.0</ele><time>2026-04-18T09:42:55.999Z</time></trkpt><trkpt lat="42.892375876576025" lon="12.91245828499597"><ele>704.0</ele><time>2026-04-18T09:42:56.999Z</time></trkpt><trkpt lat="42.89230660424755" lon="12.912535258484064"><ele>704.0</ele><time>2026-04-18T09:42:57.999Z</time></trkpt><trkpt lat="42.8922205383509" lon="12.91260722787927"><ele>704.0</ele><time>2026-04-18T09:42:58.999Z</time></trkpt><trkpt lat="42.892116736661094" lon="12.91263434732151"><ele>704.8000000000001</ele><time>2026-04-18T09:42:59.999Z</time></trkpt><trkpt lat="42.89201334508972" lon="12.91265536188044"><ele>705.6</ele><time>2026-04-18T09:43:00.999Z</time></trkpt><trkpt lat="42.891941921365024" lon="12.912713099557488"><ele>706.4</ele><time>2026-04-18T09:43:01.999Z</time></trkpt><trkpt lat="42.89186625362475" lon="12.912793416254774"><ele>707.2</ele><time>2026-04-18T09:43:02.999Z</time></trkpt><trkpt lat="42.891791009032104" lon="12.912882247340077"><ele>708.0</ele><time>2026-04-18T09:43:03.999Z</time></trkpt><trkpt lat="42.89171627901781" lon="12.912956657261532"><ele>708.8333333333334</ele><time>2026-04-18T09:43:04.999Z</time></trkpt><trkpt lat="42.89165722963114" lon="12.91301044168978"><ele>709.6666666666666</ele><time>2026-04-18T09:43:05.999Z</time></trkpt><trkpt lat="42.891605034148455" lon="12.913061923325367"><ele>710.5</ele><time>2026-04-18T09:43:06.999Z</time></trkpt><trkpt lat="42.89152972492223" lon="12.913122555026659"><ele>711.3333333333333</ele><time>2026-04-18T09:43:08.999Z</time></trkpt><trkpt lat="42.89143427701389" lon="12.913054934807612"><ele>712.1666666666666</ele><time>2026-04-18T09:43:12.999Z</time></trkpt><trkpt lat="42.89134017319739" lon="12.913033349495374"><ele>713.0</ele><time>2026-04-18T09:43:13.999Z</time></trkpt><trkpt lat="42.89125084410774" lon="12.913036440463951"><ele>713.0</ele><time>2026-04-18T09:43:14.999Z</time></trkpt><trkpt lat="42.8911590748393" lon="12.913044181845706"><ele>713.0</ele><time>2026-04-18T09:43:15.999Z</time></trkpt><trkpt lat="42.891052164913766" lon="12.91303809997229"><ele>713.0</ele><time>2026-04-18T09:43:16.999Z</time></trkpt><trkpt lat="42.890915185149126" lon="12.913036238098329"><ele>713.0</ele><time>2026-04-18T09:43:17.999Z</time></trkpt><trkpt lat="42.89077062045984" lon="12.913034855302019"><ele>711.6666666666666</ele><time>2026-04-18T09:43:18.999Z</time></trkpt><trkpt lat="42.89062072912222" lon="12.91303175503986"><ele>710.3333333333334</ele><time>2026-04-18T09:43:19.999Z</time></trkpt><trkpt lat="42.890449199418676" lon="12.913027535478168"><ele>709.0</ele><time>2026-04-18T09:43:20.999Z</time></trkpt><trkpt lat="42.89029599618448" lon="12.91302675047879"><ele>709.0</ele><time>2026-04-18T09:43:21.999Z</time></trkpt><trkpt lat="42.89017917236069" lon="12.913030912353113"><ele>709.0</ele><time>2026-04-18T09:43:22.999Z</time></trkpt><trkpt lat="42.89011452519394" lon="12.913026501157457"><ele>709.0</ele><time>2026-04-18T09:43:23.999Z</time></trkpt><trkpt lat="42.89003605733695" lon="12.9130176318826"><ele>709.0</ele><time>2026-04-18T09:43:26.999Z</time></trkpt><trkpt lat="42.88996220472653" lon="12.913011260367162"><ele>709.0</ele><time>2026-04-18T09:43:29.999Z</time></trkpt><trkpt lat="42.88988700510575" lon="12.91301202091919"><ele>709.0</ele><time>2026-04-18T09:43:31.999Z</time></trkpt><trkpt lat="42.889815764893264" lon="12.913002252115696"><ele>707.8333333333334</ele><time>2026-04-18T09:43:33.999Z</time></trkpt><trkpt lat="42.88972314486871" lon="12.913000348787902"><ele>706.6666666666667</ele><time>2026-04-18T09:43:35.999Z</time></trkpt><trkpt lat="42.88965458529515" lon="12.913004950013695"><ele>705.5</ele><time>2026-04-18T09:43:36.999Z</time></trkpt><trkpt lat="42.88958124199497" lon="12.913008693764192"><ele>704.3333333333334</ele><time>2026-04-18T09:43:37.999Z</time></trkpt><trkpt lat="42.88949946918401" lon="12.913007366115075"><ele>703.1666666666666</ele><time>2026-04-18T09:43:38.999Z</time></trkpt><trkpt lat="42.88941084143814" lon="12.913005916008014"><ele>702.0</ele><time>2026-04-18T09:43:39.999Z</time></trkpt><trkpt lat="42.88931198672889" lon="12.913006355947905"><ele>701.5</ele><time>2026-04-18T09:43:40.999Z</time></trkpt><trkpt lat="42.889195101705" lon="12.913010710696167"><ele>701.0</ele><time>2026-04-18T09:43:42Z</time></trkpt><trkpt lat="42.88906441208151" lon="12.913009592597685"><ele>700.5</ele><time>2026-04-18T09:43:43Z</time></trkpt><trkpt lat="42.88893032888068" lon="12.91300327093445"><ele>700.0</ele><time>2026-04-18T09:43:44Z</time></trkpt><trkpt lat="42.888803202229745" lon="12.91299979332159"><ele>700.0</ele><time>2026-04-18T09:43:45Z</time></trkpt><trkpt lat="42.88867881652149" lon="12.912999834241354"><ele>700.0</ele><time>2026-04-18T09:43:46Z</time></trkpt><trkpt lat="42.88855773756194" lon="12.912997803811814"><ele>700.0</ele><time>2026-04-18T09:43:47Z</time></trkpt><trkpt lat="42.88844081186477" lon="12.912986356696868"><ele>700.0</ele><time>2026-04-18T09:43:48Z</time></trkpt><trkpt lat="42.888329123923285" lon="12.91295280066321"><ele>698.75</ele><time>2026-04-18T09:43:49Z</time></trkpt><trkpt lat="42.88821770034077" lon="12.912891762101447"><ele>697.5</ele><time>2026-04-18T09:43:50Z</time></trkpt><trkpt lat="42.88811111671205" lon="12.912813403620563"><ele>696.25</ele><time>2026-04-18T09:43:51Z</time></trkpt><trkpt lat="42.88801263711791" lon="12.912720765655601"><ele>695.0</ele><time>2026-04-18T09:43:52Z</time></trkpt><trkpt lat="42.88791049220726" lon="12.912623950012541"><ele>693.25</ele><time>2026-04-18T09:43:53Z</time></trkpt><trkpt lat="42.88780546905413" lon="12.912530169451408"><ele>691.5</ele><time>2026-04-18T09:43:54Z</time></trkpt><trkpt lat="42.8876968057366" lon="12.912435611020165"><ele>689.75</ele><time>2026-04-18T09:43:55Z</time></trkpt><trkpt lat="42.88758441254502" lon="12.912337284194017"><ele>688.0</ele><time>2026-04-18T09:43:56Z</time></trkpt><trkpt lat="42.88747209892832" lon="12.91223466046207"><ele>688.0</ele><time>2026-04-18T09:43:57Z</time></trkpt><trkpt lat="42.887361816345674" lon="12.912129843926824"><ele>688.0</ele><time>2026-04-18T09:43:58Z</time></trkpt><trkpt lat="42.88726035571224" lon="12.91202444640804"><ele>688.0</ele><time>2026-04-18T09:43:59Z</time></trkpt><trkpt lat="42.887164870473946" lon="12.91192049912644"><ele>688.0</ele><time>2026-04-18T09:44:00Z</time></trkpt><trkpt lat="42.88706911125557" lon="12.911808931453601"><ele>686.25</ele><time>2026-04-18T09:44:01Z</time></trkpt><trkpt lat="42.8869705382588" lon="12.911692986194453"><ele>684.5</ele><time>2026-04-18T09:44:02Z</time></trkpt><trkpt lat="42.88687852081529" lon="12.911572161886872"><ele>682.75</ele><time>2026-04-18T09:44:03Z</time></trkpt><trkpt lat="42.886792207456075" lon="12.911448849937631"><ele>681.0</ele><time>2026-04-18T09:44:04Z</time></trkpt><trkpt lat="42.88671630837564" lon="12.911317757424085"><ele>681.0</ele><time>2026-04-18T09:44:05Z</time></trkpt><trkpt lat="42.88665051508487" lon="12.911176468214814"><ele>681.0</ele><time>2026-04-18T09:44:06Z</time></trkpt><trkpt lat="42.8865823554542" lon="12.911024696016947"><ele>681.0</ele><time>2026-04-18T09:44:07Z</time></trkpt><trkpt lat="42.88651027925985" lon="12.91086793494245"><ele>681.0</ele><time>2026-04-18T09:44:08Z</time></trkpt><trkpt lat="42.88642574501685" lon="12.910706037004786"><ele>686.6666666666666</ele><time>2026-04-18T09:44:09Z</time></trkpt><trkpt lat="42.886337498033754" lon="12.910534813649681"><ele>692.3333333333333</ele><time>2026-04-18T09:44:10Z</time></trkpt><trkpt lat="42.88625121381877" lon="12.910358599079998"><ele>698.0</ele><time>2026-04-18T09:44:11Z</time></trkpt><trkpt lat="42.886167435703925" lon="12.91018178130597"><ele>703.6666666666666</ele><time>2026-04-18T09:44:12Z</time></trkpt><trkpt lat="42.88609030712868" lon="12.910005072257032"><ele>709.3333333333334</ele><time>2026-04-18T09:44:13Z</time></trkpt><trkpt lat="42.88602770348933" lon="12.909818024872616"><ele>715.0</ele><time>2026-04-18T09:44:14Z</time></trkpt><trkpt lat="42.88599001880303" lon="12.909619168383857"><ele>715.0</ele><time>2026-04-18T09:44:15Z</time></trkpt><trkpt lat="42.885964307667074" lon="12.909427676265688"><ele>715.0</ele><time>2026-04-18T09:44:16Z</time></trkpt><trkpt lat="42.8859380521857" lon="12.909237433097578"><ele>715.0</ele><time>2026-04-18T09:44:17Z</time></trkpt><trkpt lat="42.88588786525663" lon="12.909079132619915"><ele>715.0</ele><time>2026-04-18T09:44:18Z</time></trkpt><trkpt lat="42.885792061619476" lon="12.90896216739745"><ele>708.25</ele><time>2026-04-18T09:44:19Z</time></trkpt><trkpt lat="42.88566543080064" lon="12.90887680646512"><ele>701.5</ele><time>2026-04-18T09:44:20Z</time></trkpt><trkpt lat="42.88553515505749" lon="12.908808805377994"><ele>694.75</ele><time>2026-04-18T09:44:21Z</time></trkpt><trkpt lat="42.885417172651394" lon="12.908760275405607"><ele>688.0</ele><time>2026-04-18T09:44:22Z</time></trkpt><trkpt lat="42.88530650168404" lon="12.908740132165613"><ele>688.0</ele><time>2026-04-18T09:44:23Z</time></trkpt><trkpt lat="42.88520657181347" lon="12.908803334298655"><ele>688.0</ele><time>2026-04-18T09:44:24Z</time></trkpt><trkpt lat="42.885149842402626" lon="12.908926668429466"><ele>688.0</ele><time>2026-04-18T09:44:25Z</time></trkpt><trkpt lat="42.88515416911609" lon="12.909046833764803"><ele>688.0</ele><time>2026-04-18T09:44:26Z</time></trkpt><trkpt lat="42.88516189818023" lon="12.909160885761498"><ele>688.0</ele><time>2026-04-18T09:44:27.999Z</time></trkpt><trkpt lat="42.88509349856855" lon="12.909140111233919"><ele>689.0</ele><time>2026-04-18T09:44:29.999Z</time></trkpt><trkpt lat="42.88501878323012" lon="12.909109447994018"><ele>690.0</ele><time>2026-04-18T09:44:30.999Z</time></trkpt><trkpt lat="42.88495144843212" lon="12.909090716895344"><ele>691.0</ele><time>2026-04-18T09:44:31.999Z</time></trkpt><trkpt lat="42.88485296949832" lon="12.90914553375192"><ele>692.0</ele><time>2026-04-18T09:44:33.999Z</time></trkpt><trkpt lat="42.88480266029369" lon="12.909198982760243"><ele>693.0</ele><time>2026-04-18T09:44:34.999Z</time></trkpt><trkpt lat="42.8846693791215" lon="12.909185937982848"><ele>693.0</ele><time>2026-04-18T09:44:36.999Z</time></trkpt><trkpt lat="42.88459067783609" lon="12.909159185632745"><ele>693.0</ele><time>2026-04-18T09:44:37.999Z</time></trkpt><trkpt lat="42.88451438264236" lon="12.909158652318368"><ele>693.0</ele><time>2026-04-18T09:44:38.999Z</time></trkpt><trkpt lat="42.88443292543184" lon="12.909181398353462"><ele>693.0</ele><time>2026-04-18T09:44:39.999Z</time></trkpt><trkpt lat="42.88434350385894" lon="12.909217306108706"><ele>693.0</ele><time>2026-04-18T09:44:40.999Z</time></trkpt><trkpt lat="42.8842492796721" lon="12.909248428709247"><ele>693.0</ele><time>2026-04-18T09:44:41.999Z</time></trkpt><trkpt lat="42.884157506631915" lon="12.909258157218142"><ele>701.0</ele><time>2026-04-18T09:44:42.999Z</time></trkpt><trkpt lat="42.88406565726487" lon="12.909282331369988"><ele>709.0</ele><time>2026-04-18T09:44:43.999Z</time></trkpt><trkpt lat="42.883976848410704" lon="12.90928903325054"><ele>717.0</ele><time>2026-04-18T09:44:44.999Z</time></trkpt><trkpt lat="42.88387768121991" lon="12.909278281203276"><ele>725.0</ele><time>2026-04-18T09:44:45.999Z</time></trkpt><trkpt lat="42.88376867046617" lon="12.90927507958429"><ele>733.0</ele><time>2026-04-18T09:44:46.999Z</time></trkpt><trkpt lat="42.88365624146234" lon="12.909285166681594"><ele>733.0</ele><time>2026-04-18T09:44:47.999Z</time></trkpt><trkpt lat="42.88354032311089" lon="12.909278471936409"><ele>733.0</ele><time>2026-04-18T09:44:48.999Z</time></trkpt><trkpt lat="42.88342739040121" lon="12.909263283899282"><ele>733.0</ele><time>2026-04-18T09:44:49.999Z</time></trkpt><trkpt lat="42.88330436747481" lon="12.909252105662404"><ele>733.0</ele><time>2026-04-18T09:44:50.999Z</time></trkpt><trkpt lat="42.883190522528345" lon="12.909231155552781"><ele>727.5999999999999</ele><time>2026-04-18T09:44:51.999Z</time></trkpt><trkpt lat="42.883078527255904" lon="12.909212681092676"><ele>722.1999999999999</ele><time>2026-04-18T09:44:52.999Z</time></trkpt><trkpt lat="42.88298092620883" lon="12.909203264412417"><ele>716.8</ele><time>2026-04-18T09:44:53.999Z</time></trkpt><trkpt lat="42.88287566843395" lon="12.909183088116587"><ele>711.4</ele><time>2026-04-18T09:44:54.999Z</time></trkpt><trkpt lat="42.88275304562284" lon="12.909157048902081"><ele>706.0</ele><time>2026-04-18T09:44:55.999Z</time></trkpt><trkpt lat="42.882661785927624" lon="12.909142813789774"><ele>705.8333333333334</ele><time>2026-04-18T09:44:56.999Z</time></trkpt><trkpt lat="42.88256740500593" lon="12.909154120168104"><ele>705.6666666666667</ele><time>2026-04-18T09:44:57.999Z</time></trkpt><trkpt lat="42.88247391034445" lon="12.90916144566073"><ele>705.5</ele><time>2026-04-18T09:44:58.999Z</time></trkpt><trkpt lat="42.88237742692816" lon="12.909177390682853"><ele>705.3333333333334</ele><time>2026-04-18T09:44:59.999Z</time></trkpt><trkpt lat="42.882291022733604" lon="12.909202318792925"><ele>705.1666666666666</ele><time>2026-04-18T09:45:00.999Z</time></trkpt><trkpt lat="42.88222558145599" lon="12.909225116367693"><ele>705.0</ele><time>2026-04-18T09:45:01.999Z</time></trkpt><trkpt lat="42.88210490004886" lon="12.909365321312182"><ele>709.0</ele><time>2026-04-18T09:45:03.999Z</time></trkpt><trkpt lat="42.88201736433779" lon="12.90938484368255"><ele>713.0</ele><time>2026-04-18T09:45:04.999Z</time></trkpt><trkpt lat="42.8819282192369" lon="12.909383680832015"><ele>717.0</ele><time>2026-04-18T09:45:05.999Z</time></trkpt><trkpt lat="42.881838936299246" lon="12.909386386445261"><ele>721.0</ele><time>2026-04-18T09:45:06.999Z</time></trkpt><trkpt lat="42.881758304234005" lon="12.90941566552449"><ele>725.0</ele><time>2026-04-18T09:45:07.999Z</time></trkpt><trkpt lat="42.881664047247575" lon="12.909462967967059"><ele>725.0</ele><time>2026-04-18T09:45:08.999Z</time></trkpt><trkpt lat="42.8815744295047" lon="12.909481345764407"><ele>725.0</ele><time>2026-04-18T09:45:09.999Z</time></trkpt><trkpt lat="42.88149343596091" lon="12.909461310223366"><ele>725.0</ele><time>2026-04-18T09:45:10.999Z</time></trkpt><trkpt lat="42.8813966525098" lon="12.909447995618768"><ele>725.0</ele><time>2026-04-18T09:45:11.999Z</time></trkpt><trkpt lat="42.88131311596891" lon="12.909454859033245"><ele>725.0</ele><time>2026-04-18T09:45:12.999Z</time></trkpt><trkpt lat="42.88121666052601" lon="12.909465600710824"><ele>725.0</ele><time>2026-04-18T09:45:13.999Z</time></trkpt><trkpt lat="42.88113365066686" lon="12.9094989736707"><ele>725.0</ele><time>2026-04-18T09:45:14.999Z</time></trkpt><trkpt lat="42.881032350902295" lon="12.909523572445986"><ele>725.0</ele><time>2026-04-18T09:45:15.999Z</time></trkpt><trkpt lat="42.880950919991605" lon="12.909592308399306"><ele>725.0</ele><time>2026-04-18T09:45:16.999Z</time></trkpt><trkpt lat="42.88085597708004" lon="12.909656949561047"><ele>725.0</ele><time>2026-04-18T09:45:17.999Z</time></trkpt><trkpt lat="42.88076131570084" lon="12.909695403888781"><ele>725.0</ele><time>2026-04-18T09:45:18.999Z</time></trkpt><trkpt lat="42.8806559750226" lon="12.909750502258246"><ele>725.0</ele><time>2026-04-18T09:45:19.999Z</time></trkpt><trkpt lat="42.8805334715729" lon="12.909803146002435"><ele>725.0</ele><time>2026-04-18T09:45:20.999Z</time></trkpt><trkpt lat="42.8804278258958" lon="12.909849952517824"><ele>725.0</ele><time>2026-04-18T09:45:21.999Z</time></trkpt><trkpt lat="42.88032866714064" lon="12.909899717344622"><ele>725.0</ele><time>2026-04-18T09:45:22.999Z</time></trkpt><trkpt lat="42.88023360525121" lon="12.909942117672582"><ele>725.0</ele><time>2026-04-18T09:45:23.999Z</time></trkpt><trkpt lat="42.880147643469705" lon="12.909967947973506"><ele>725.0</ele><time>2026-04-18T09:45:24.999Z</time></trkpt><trkpt lat="42.88006047641382" lon="12.909980692954575"><ele>725.0</ele><time>2026-04-18T09:45:25.999Z</time></trkpt><trkpt lat="42.879968981240765" lon="12.90999415869874"><ele>725.0</ele><time>2026-04-18T09:45:26.999Z</time></trkpt><trkpt lat="42.87988142496604" lon="12.910022587555808"><ele>725.2</ele><time>2026-04-18T09:45:27.999Z</time></trkpt><trkpt lat="42.87979016048218" lon="12.910045430450122"><ele>725.4</ele><time>2026-04-18T09:45:28.999Z</time></trkpt><trkpt lat="42.87968264667706" lon="12.910065528675123"><ele>725.5999999999999</ele><time>2026-04-18T09:45:29.999Z</time></trkpt><trkpt lat="42.87959962580348" lon="12.910080032049619"><ele>725.8</ele><time>2026-04-18T09:45:30.999Z</time></trkpt><trkpt lat="42.87950386631409" lon="12.910089388343522"><ele>726.0</ele><time>2026-04-18T09:45:31.999Z</time></trkpt><trkpt lat="42.87941516828379" lon="12.910095959996463"><ele>729.3333333333334</ele><time>2026-04-18T09:45:32.999Z</time></trkpt><trkpt lat="42.87933129234669" lon="12.910107697737013"><ele>732.6666666666666</ele><time>2026-04-18T09:45:33.999Z</time></trkpt><trkpt lat="42.87924536883865" lon="12.910146161418556"><ele>736.0</ele><time>2026-04-18T09:45:34.999Z</time></trkpt><trkpt lat="42.87915344086054" lon="12.910159790701151"><ele>739.3333333333333</ele><time>2026-04-18T09:45:35.999Z</time></trkpt><trkpt lat="42.87907738507714" lon="12.910134285680856"><ele>742.6666666666666</ele><time>2026-04-18T09:45:36.999Z</time></trkpt><trkpt lat="42.87900920137573" lon="12.910142239355649"><ele>746.0</ele><time>2026-04-18T09:45:38.999Z</time></trkpt><trkpt lat="42.87894701538101" lon="12.910174445787"><ele>746.0</ele><time>2026-04-18T09:45:39.999Z</time></trkpt><trkpt lat="42.878884245970816" lon="12.910207635717754"><ele>746.0</ele><time>2026-04-18T09:45:40.999Z</time></trkpt><trkpt lat="42.878817819445636" lon="12.910266612325175"><ele>746.0</ele><time>2026-04-18T09:45:41.999Z</time></trkpt><trkpt lat="42.878732143289476" lon="12.910306767928803"><ele>746.0</ele><time>2026-04-18T09:45:42.999Z</time></trkpt><trkpt lat="42.87865653122306" lon="12.910355751462498"><ele>746.0</ele><time>2026-04-18T09:45:43.999Z</time></trkpt><trkpt lat="42.8785681618368" lon="12.910437156292554"><ele>746.0</ele><time>2026-04-18T09:45:44.999Z</time></trkpt><trkpt lat="42.87848306422208" lon="12.91052231283857"><ele>745.1999999999999</ele><time>2026-04-18T09:45:45.999Z</time></trkpt><trkpt lat="42.87840959898603" lon="12.910595076916431"><ele>744.4</ele><time>2026-04-18T09:45:46.999Z</time></trkpt><trkpt lat="42.87830243652425" lon="12.91064875510967"><ele>743.6</ele><time>2026-04-18T09:45:48Z</time></trkpt><trkpt lat="42.878214389148106" lon="12.910702445443853"><ele>742.8</ele><time>2026-04-18T09:45:49Z</time></trkpt><trkpt lat="42.8781176753327" lon="12.910753303378723"><ele>742.0</ele><time>2026-04-18T09:45:50Z</time></trkpt><trkpt lat="42.87801165629113" lon="12.91077686463086"><ele>742.0</ele><time>2026-04-18T09:45:51Z</time></trkpt><trkpt lat="42.87790624380724" lon="12.910792444161551"><ele>742.0</ele><time>2026-04-18T09:45:52Z</time></trkpt><trkpt lat="42.87781150105682" lon="12.910824304459396"><ele>742.0</ele><time>2026-04-18T09:45:53Z</time></trkpt><trkpt lat="42.87774013887022" lon="12.910876837558085"><ele>742.0</ele><time>2026-04-18T09:45:54Z</time></trkpt><trkpt lat="42.877670897929356" lon="12.9109487027456"><ele>742.0</ele><time>2026-04-18T09:45:55Z</time></trkpt><trkpt lat="42.87759691504203" lon="12.911033027657483"><ele>745.0</ele><time>2026-04-18T09:45:56Z</time></trkpt><trkpt lat="42.87750991433839" lon="12.91110812217702"><ele>748.0</ele><time>2026-04-18T09:45:57Z</time></trkpt><trkpt lat="42.87741862648304" lon="12.911164803386919"><ele>751.0</ele><time>2026-04-18T09:45:58Z</time></trkpt><trkpt lat="42.877333299470806" lon="12.911174588369102"><ele>754.0</ele><time>2026-04-18T09:45:59Z</time></trkpt><trkpt lat="42.877242608006746" lon="12.911142645833642"><ele>757.0</ele><time>2026-04-18T09:46:00Z</time></trkpt><trkpt lat="42.87717144772061" lon="12.9111379838978"><ele>757.0</ele><time>2026-04-18T09:46:01Z</time></trkpt><trkpt lat="42.87710342196218" lon="12.911137093338187"><ele>757.0</ele><time>2026-04-18T09:46:02Z</time></trkpt><trkpt lat="42.87701582725833" lon="12.911183831028"><ele>757.0</ele><time>2026-04-18T09:46:03Z</time></trkpt><trkpt lat="42.8769045944296" lon="12.911231480885126"><ele>757.0</ele><time>2026-04-18T09:46:04Z</time></trkpt><trkpt lat="42.87679486152596" lon="12.911241602860056"><ele>757.0</ele><time>2026-04-18T09:46:05Z</time></trkpt><trkpt lat="42.87668556518494" lon="12.911218553014862"><ele>756.5</ele><time>2026-04-18T09:46:06Z</time></trkpt><trkpt lat="42.876588168572525" lon="12.911221257931189"><ele>756.0</ele><time>2026-04-18T09:46:07Z</time></trkpt><trkpt lat="42.87649013606614" lon="12.911232899442352"><ele>755.5</ele><time>2026-04-18T09:46:08Z</time></trkpt><trkpt lat="42.876413520717094" lon="12.91127433873215"><ele>755.0</ele><time>2026-04-18T09:46:09Z</time></trkpt><trkpt lat="42.87633814127606" lon="12.911304031996233"><ele>754.5</ele><time>2026-04-18T09:46:10Z</time></trkpt><trkpt lat="42.87625473513173" lon="12.91133575494738"><ele>754.0</ele><time>2026-04-18T09:46:11Z</time></trkpt><trkpt lat="42.876183692353955" lon="12.911405585773283"><ele>754.0</ele><time>2026-04-18T09:46:12Z</time></trkpt><trkpt lat="42.87609624965543" lon="12.911484351684898"><ele>754.0</ele><time>2026-04-18T09:46:13Z</time></trkpt><trkpt lat="42.87601842042854" lon="12.911528480455663"><ele>754.0</ele><time>2026-04-18T09:46:14Z</time></trkpt><trkpt lat="42.87591310362548" lon="12.911533302890488"><ele>754.0</ele><time>2026-04-18T09:46:15Z</time></trkpt><trkpt lat="42.87581230615624" lon="12.91150155108578"><ele>754.0</ele><time>2026-04-18T09:46:16Z</time></trkpt><trkpt lat="42.87570048108824" lon="12.911504437060563"><ele>754.2</ele><time>2026-04-18T09:46:17Z</time></trkpt><trkpt lat="42.875580751160875" lon="12.911475191920147"><ele>754.4000000000001</ele><time>2026-04-18T09:46:18Z</time></trkpt><trkpt lat="42.87548803551798" lon="12.911490548401758"><ele>754.6</ele><time>2026-04-18T09:46:19Z</time></trkpt><trkpt lat="42.8753962978957" lon="12.911487265472374"><ele>754.8</ele><time>2026-04-18T09:46:20Z</time></trkpt><trkpt lat="42.875296804571065" lon="12.911447356306779"><ele>755.0</ele><time>2026-04-18T09:46:21Z</time></trkpt><trkpt lat="42.8752192825145" lon="12.911433964783393"><ele>755.0</ele><time>2026-04-18T09:46:22Z</time></trkpt><trkpt lat="42.87512230395414" lon="12.911410208477536"><ele>755.0</ele><time>2026-04-18T09:46:23Z</time></trkpt><trkpt lat="42.87499653321312" lon="12.911418428349576"><ele>755.0</ele><time>2026-04-18T09:46:24Z</time></trkpt><trkpt lat="42.87486943529387" lon="12.911409786175193"><ele>755.0</ele><time>2026-04-18T09:46:25Z</time></trkpt><trkpt lat="42.87475066821376" lon="12.911411078358627"><ele>755.8</ele><time>2026-04-18T09:46:26Z</time></trkpt><trkpt lat="42.87464205855915" lon="12.91143574480455"><ele>756.6</ele><time>2026-04-18T09:46:27Z</time></trkpt><trkpt lat="42.874554346869175" lon="12.91148590386853"><ele>757.4000000000001</ele><time>2026-04-18T09:46:28Z</time></trkpt><trkpt lat="42.874450355303786" lon="12.911558742723829"><ele>758.2</ele><time>2026-04-18T09:46:29Z</time></trkpt><trkpt lat="42.87434105669753" lon="12.91159083962499"><ele>759.0</ele><time>2026-04-18T09:46:30Z</time></trkpt><trkpt lat="42.87424208188176" lon="12.911634472783277"><ele>759.4000000000001</ele><time>2026-04-18T09:46:31Z</time></trkpt><trkpt lat="42.87413813410856" lon="12.91167537451689"><ele>759.8</ele><time>2026-04-18T09:46:32Z</time></trkpt><trkpt lat="42.87404563161128" lon="12.911739056645828"><ele>760.2</ele><time>2026-04-18T09:46:33Z</time></trkpt><trkpt lat="42.873956287760095" lon="12.911801857338531"><ele>760.5999999999999</ele><time>2026-04-18T09:46:34Z</time></trkpt><trkpt lat="42.87387508808934" lon="12.911876137444931"><ele>761.0</ele><time>2026-04-18T09:46:35Z</time></trkpt><trkpt lat="42.873787721658125" lon="12.911907011347793"><ele>762.8333333333333</ele><time>2026-04-18T09:46:36Z</time></trkpt><trkpt lat="42.87368496555644" lon="12.911851369923259"><ele>764.6666666666666</ele><time>2026-04-18T09:46:37Z</time></trkpt><trkpt lat="42.87360167126615" lon="12.911789943345818"><ele>766.5</ele><time>2026-04-18T09:46:38Z</time></trkpt><trkpt lat="42.87352955815597" lon="12.911769409976968"><ele>768.3333333333333</ele><time>2026-04-18T09:46:39Z</time></trkpt><trkpt lat="42.87347161321151" lon="12.911821487306245"><ele>770.1666666666666</ele><time>2026-04-18T09:46:40Z</time></trkpt><trkpt lat="42.87342841602886" lon="12.911943295312513"><ele>772.0</ele><time>2026-04-18T09:46:41Z</time></trkpt><trkpt lat="42.87342158469264" lon="12.912065415706603"><ele>771.9999999999999</ele><time>2026-04-18T09:46:42Z</time></trkpt><trkpt lat="42.873354238639195" lon="12.91211850871144"><ele>772.0</ele><time>2026-04-18T09:46:44Z</time></trkpt><trkpt lat="42.87331584512249" lon="12.912211290046132"><ele>772.0</ele><time>2026-04-18T09:46:46Z</time></trkpt><trkpt lat="42.8732743403495" lon="12.912298648654758"><ele>772.0</ele><time>2026-04-18T09:46:48Z</time></trkpt><trkpt lat="42.873200376889" lon="12.912458921710309"><ele>771.9999999999999</ele><time>2026-04-18T09:46:50Z</time></trkpt><trkpt lat="42.873165238795266" lon="12.912548602949299"><ele>772.0</ele><time>2026-04-18T09:46:51Z</time></trkpt><trkpt lat="42.87312919096647" lon="12.91264394261189"><ele>772.4000000000001</ele><time>2026-04-18T09:46:51.999Z</time></trkpt><trkpt lat="42.873088368981165" lon="12.912775591070377"><ele>772.8000000000001</ele><time>2026-04-18T09:46:52.999Z</time></trkpt><trkpt lat="42.87306339581326" lon="12.91293273468307"><ele>773.2</ele><time>2026-04-18T09:46:53.999Z</time></trkpt><trkpt lat="42.87304374236586" lon="12.913084873997182"><ele>773.6</ele><time>2026-04-18T09:46:54.999Z</time></trkpt><trkpt lat="42.87301244034719" lon="12.913225085195204"><ele>774.0</ele><time>2026-04-18T09:46:55.999Z</time></trkpt><trkpt lat="42.87296110383738" lon="12.913353834736737"><ele>775.0</ele><time>2026-04-18T09:46:56.999Z</time></trkpt><trkpt lat="42.87290371719494" lon="12.913460742363931"><ele>776.0</ele><time>2026-04-18T09:46:57.999Z</time></trkpt><trkpt lat="42.87284048811398" lon="12.913571331105125"><ele>777.0</ele><time>2026-04-18T09:46:58.999Z</time></trkpt><trkpt lat="42.87278961446085" lon="12.913685770215034"><ele>778.0</ele><time>2026-04-18T09:46:59.999Z</time></trkpt><trkpt lat="42.87274501832041" lon="12.913768559319"><ele>779.0</ele><time>2026-04-18T09:47:00.999Z</time></trkpt><trkpt lat="42.872696402685484" lon="12.913830745792152"><ele>780.0</ele><time>2026-04-18T09:47:01.999Z</time></trkpt><trkpt lat="42.8726358642682" lon="12.913993348373854"><ele>776.8</ele><time>2026-04-18T09:47:03.999Z</time></trkpt><trkpt lat="42.872590345201154" lon="12.914105748820363"><ele>773.6</ele><time>2026-04-18T09:47:04.999Z</time></trkpt><trkpt lat="42.87255302529601" lon="12.914227853332354"><ele>770.4000000000001</ele><time>2026-04-18T09:47:05.999Z</time></trkpt><trkpt lat="42.872503933532876" lon="12.914359797628265"><ele>767.2</ele><time>2026-04-18T09:47:06.999Z</time></trkpt><trkpt lat="42.872459887562044" lon="12.914464124890996"><ele>764.0</ele><time>2026-04-18T09:47:07.999Z</time></trkpt><trkpt lat="42.87241909053459" lon="12.9145361854108"><ele>764.0</ele><time>2026-04-18T09:47:08.999Z</time></trkpt><trkpt lat="42.872372981880794" lon="12.914660856439808"><ele>764.0</ele><time>2026-04-18T09:47:09.999Z</time></trkpt><trkpt lat="42.87234332572269" lon="12.914775889033281"><ele>764.0</ele><time>2026-04-18T09:47:10.999Z</time></trkpt><trkpt lat="42.8723121422168" lon="12.914870723005144"><ele>764.0</ele><time>2026-04-18T09:47:11.999Z</time></trkpt><trkpt lat="42.872268945532156" lon="12.914972354199197"><ele>764.0</ele><time>2026-04-18T09:47:12.999Z</time></trkpt><trkpt lat="42.87221671959717" lon="12.915074927202241"><ele>764.0</ele><time>2026-04-18T09:47:13.999Z</time></trkpt><trkpt lat="42.87215092896579" lon="12.915188113669437"><ele>764.0</ele><time>2026-04-18T09:47:14.999Z</time></trkpt><trkpt lat="42.87209875401055" lon="12.915282566283869"><ele>764.0</ele><time>2026-04-18T09:47:15.999Z</time></trkpt><trkpt lat="42.87203023297392" lon="12.915399995159092"><ele>764.0</ele><time>2026-04-18T09:47:16.999Z</time></trkpt><trkpt lat="42.87196889613603" lon="12.915510105422365"><ele>764.0</ele><time>2026-04-18T09:47:17.999Z</time></trkpt><trkpt lat="42.87191843482449" lon="12.915630560915105"><ele>764.0</ele><time>2026-04-18T09:47:18.999Z</time></trkpt><trkpt lat="42.87187847801715" lon="12.915742035901365"><ele>764.0</ele><time>2026-04-18T09:47:19.999Z</time></trkpt><trkpt lat="42.871839283823945" lon="12.91586978153991"><ele>764.0</ele><time>2026-04-18T09:47:20.999Z</time></trkpt><trkpt lat="42.871783015358524" lon="12.915996804248957"><ele>764.0</ele><time>2026-04-18T09:47:21.999Z</time></trkpt><trkpt lat="42.871728222883135" lon="12.916098627223475"><ele>764.0</ele><time>2026-04-18T09:47:22.999Z</time></trkpt><trkpt lat="42.87167123977975" lon="12.916194613404489"><ele>764.0</ele><time>2026-04-18T09:47:23.999Z</time></trkpt><trkpt lat="42.87161994785953" lon="12.916286007167788"><ele>758.0</ele><time>2026-04-18T09:47:24.999Z</time></trkpt><trkpt lat="42.87156160274249" lon="12.916393889579618"><ele>752.0</ele><time>2026-04-18T09:47:25.999Z</time></trkpt><trkpt lat="42.871500108226904" lon="12.91651556562217"><ele>746.0</ele><time>2026-04-18T09:47:26.999Z</time></trkpt><trkpt lat="42.87143884595276" lon="12.916591226711665"><ele>740.0</ele><time>2026-04-18T09:47:27.999Z</time></trkpt><trkpt lat="42.87136980511183" lon="12.916661687771924"><ele>734.0</ele><time>2026-04-18T09:47:28.999Z</time></trkpt><trkpt lat="42.871327766326274" lon="12.916806198118694"><ele>733.3333333333333</ele><time>2026-04-18T09:47:30.999Z</time></trkpt><trkpt lat="42.87127056037068" lon="12.916936077473169"><ele>732.6666666666666</ele><time>2026-04-18T09:47:32.999Z</time></trkpt><trkpt lat="42.871229307568015" lon="12.917009632496873"><ele>732.0</ele><time>2026-04-18T09:47:33.999Z</time></trkpt><trkpt lat="42.87119944412236" lon="12.917091507827008"><ele>731.3333333333334</ele><time>2026-04-18T09:47:34.999Z</time></trkpt><trkpt lat="42.87117079396858" lon="12.917211258920117"><ele>730.6666666666667</ele><time>2026-04-18T09:47:35.999Z</time></trkpt><trkpt lat="42.87113528534831" lon="12.917296445428363"><ele>730.0</ele><time>2026-04-18T09:47:36.999Z</time></trkpt><trkpt lat="42.87109352455758" lon="12.917364770253963"><ele>730.0</ele><time>2026-04-18T09:47:37.999Z</time></trkpt><trkpt lat="42.87104393552896" lon="12.917468427632757"><ele>730.0</ele><time>2026-04-18T09:47:39.999Z</time></trkpt><trkpt lat="42.87102084968892" lon="12.917599211065989"><ele>730.0</ele><time>2026-04-18T09:47:41.999Z</time></trkpt><trkpt lat="42.87099309849408" lon="12.917697776066948"><ele>730.0</ele><time>2026-04-18T09:47:43.999Z</time></trkpt><trkpt lat="42.87097482185698" lon="12.917800021907071"><ele>730.0</ele><time>2026-04-18T09:47:45.999Z</time></trkpt><trkpt lat="42.87096139509868" lon="12.917889413056225"><ele>730.0</ele><time>2026-04-18T09:47:47.999Z</time></trkpt><trkpt lat="42.870895664745255" lon="12.917905349350006"><ele>724.8333333333334</ele><time>2026-04-18T09:47:55Z</time></trkpt><trkpt lat="42.87085455946717" lon="12.917978810945062"><ele>719.6666666666667</ele><time>2026-04-18T09:48:02Z</time></trkpt><trkpt lat="42.870886220722156" lon="12.918081767981816"><ele>714.5</ele><time>2026-04-18T09:48:04Z</time></trkpt><trkpt lat="42.870919989101864" lon="12.918225525696306"><ele>709.3333333333334</ele><time>2026-04-18T09:48:06Z</time></trkpt><trkpt lat="42.870931808302274" lon="12.91831409825894"><ele>704.1666666666666</ele><time>2026-04-18T09:48:07Z</time></trkpt><trkpt lat="42.87096967222102" lon="12.918459282885399"><ele>699.0</ele><time>2026-04-18T09:48:09Z</time></trkpt><trkpt lat="42.871044687973" lon="12.91857794208635"><ele>699.0</ele><time>2026-04-18T09:48:11Z</time></trkpt><trkpt lat="42.87104628715131" lon="12.918683985995889"><ele>699.0</ele><time>2026-04-18T09:48:13Z</time></trkpt><trkpt lat="42.870975225167946" lon="12.918645832875894"><ele>699.0</ele><time>2026-04-18T09:48:16Z</time></trkpt><trkpt lat="42.87089369334217" lon="12.918549010387704"><ele>699.0</ele><time>2026-04-18T09:48:18Z</time></trkpt><trkpt lat="42.870834309267885" lon="12.918497285371437"><ele>699.0</ele><time>2026-04-18T09:48:19Z</time></trkpt><trkpt lat="42.87077145884299" lon="12.918451046138221"><ele>699.0</ele><time>2026-04-18T09:48:20Z</time></trkpt><trkpt lat="42.87072941356646" lon="12.918377359498157"><ele>695.3333333333334</ele><time>2026-04-18T09:48:21Z</time></trkpt><trkpt lat="42.870689036925164" lon="12.918293900760169"><ele>691.6666666666666</ele><time>2026-04-18T09:48:22Z</time></trkpt><trkpt lat="42.870640555392335" lon="12.918198297207905"><ele>688.0</ele><time>2026-04-18T09:48:23Z</time></trkpt><trkpt lat="42.87058913762863" lon="12.918108744745666"><ele>684.3333333333333</ele><time>2026-04-18T09:48:24Z</time></trkpt><trkpt lat="42.87052941771035" lon="12.918026631236343"><ele>680.6666666666666</ele><time>2026-04-18T09:48:25Z</time></trkpt><trkpt lat="42.870467925444004" lon="12.917938686237736"><ele>677.0</ele><time>2026-04-18T09:48:26Z</time></trkpt><trkpt lat="42.870421467224205" lon="12.917865615357076"><ele>677.0</ele><time>2026-04-18T09:48:27Z</time></trkpt><trkpt lat="42.870408835127485" lon="12.917769926537273"><ele>677.0</ele><time>2026-04-18T09:48:29Z</time></trkpt><trkpt lat="42.87036895450785" lon="12.917852458628095"><ele>677.0</ele><time>2026-04-18T09:48:32Z</time></trkpt><trkpt lat="42.870411104009854" lon="12.918025941794578"><ele>677.0</ele><time>2026-04-18T09:48:34Z</time></trkpt><trkpt lat="42.870439100348285" lon="12.918135599035127"><ele>677.0</ele><time>2026-04-18T09:48:35Z</time></trkpt><trkpt lat="42.87047983963446" lon="12.918302965304441"><ele>677.0</ele><time>2026-04-18T09:48:37Z</time></trkpt><trkpt lat="42.87047333785417" lon="12.918400726212756"><ele>677.0</ele><time>2026-04-18T09:48:38Z</time></trkpt><trkpt lat="42.870474001829926" lon="12.918511686796514"><ele>677.0</ele><time>2026-04-18T09:48:39Z</time></trkpt><trkpt lat="42.87047203027311" lon="12.918635013566925"><ele>677.0</ele><time>2026-04-18T09:48:40Z</time></trkpt><trkpt lat="42.870496077187035" lon="12.918757972285423"><ele>677.0</ele><time>2026-04-18T09:48:41Z</time></trkpt><trkpt lat="42.87052788048536" lon="12.918883174976152"><ele>677.0</ele><time>2026-04-18T09:48:42Z</time></trkpt><trkpt lat="42.87056317806715" lon="12.918995104963038"><ele>674.8</ele><time>2026-04-18T09:48:43Z</time></trkpt><trkpt lat="42.870611565915404" lon="12.919076911572422"><ele>672.6</ele><time>2026-04-18T09:48:44Z</time></trkpt><trkpt lat="42.870663869861815" lon="12.919155103446007"><ele>670.4</ele><time>2026-04-18T09:48:45Z</time></trkpt><trkpt lat="42.87056647325561" lon="12.919293462341122"><ele>668.1999999999999</ele><time>2026-04-18T09:48:47Z</time></trkpt><trkpt lat="42.8705070701278" lon="12.91937387059872"><ele>666.0</ele><time>2026-04-18T09:48:48Z</time></trkpt><trkpt lat="42.87048688093247" lon="12.919468400414251"><ele>665.8</ele><time>2026-04-18T09:48:49Z</time></trkpt><trkpt lat="42.87048004866065" lon="12.919611507686556"><ele>665.5999999999999</ele><time>2026-04-18T09:48:50Z</time></trkpt><trkpt lat="42.870465587147535" lon="12.9197483107818"><ele>665.4</ele><time>2026-04-18T09:48:51Z</time></trkpt><trkpt lat="42.87045140959019" lon="12.919853416928115"><ele>665.2</ele><time>2026-04-18T09:48:52Z</time></trkpt><trkpt lat="42.870431147541396" lon="12.919958928107379"><ele>665.0</ele><time>2026-04-18T09:48:53Z</time></trkpt><trkpt lat="42.870419235067466" lon="12.920074482070914"><ele>662.6</ele><time>2026-04-18T09:48:54Z</time></trkpt><trkpt lat="42.87042052928623" lon="12.92019384930569"><ele>660.2</ele><time>2026-04-18T09:48:55Z</time></trkpt><trkpt lat="42.87043305900168" lon="12.920333581701792"><ele>657.8</ele><time>2026-04-18T09:48:56Z</time></trkpt><trkpt lat="42.87043926845759" lon="12.920496658530837"><ele>655.4</ele><time>2026-04-18T09:48:57Z</time></trkpt><trkpt lat="42.87045016653727" lon="12.920629788607208"><ele>653.0</ele><time>2026-04-18T09:48:58Z</time></trkpt><trkpt lat="42.870434738104926" lon="12.920745080506826"><ele>653.0</ele><time>2026-04-18T09:48:59Z</time></trkpt><trkpt lat="42.8704300322564" lon="12.9208481565777"><ele>653.0</ele><time>2026-04-18T09:49:00Z</time></trkpt><trkpt lat="42.87044236790885" lon="12.920995927388544"><ele>653.0</ele><time>2026-04-18T09:49:02Z</time></trkpt><trkpt lat="42.870443187154365" lon="12.921110378589054"><ele>653.0</ele><time>2026-04-18T09:49:04Z</time></trkpt><trkpt lat="42.87038712995006" lon="12.92106213748195"><ele>653.0</ele><time>2026-04-18T09:49:07Z</time></trkpt><trkpt lat="42.8703576107189" lon="12.920891824428447"><ele>653.0</ele><time>2026-04-18T09:49:09Z</time></trkpt><trkpt lat="42.8703333957985" lon="12.92076987048755"><ele>653.0</ele><time>2026-04-18T09:49:10Z</time></trkpt><trkpt lat="42.87029510180608" lon="12.92063717539336"><ele>653.0</ele><time>2026-04-18T09:49:11Z</time></trkpt><trkpt lat="42.87026107899114" lon="12.920501855147657"><ele>653.0</ele><time>2026-04-18T09:49:12Z</time></trkpt><trkpt lat="42.870233447135476" lon="12.92036488004828"><ele>653.0</ele><time>2026-04-18T09:49:13Z</time></trkpt><trkpt lat="42.87020408894198" lon="12.920237514755714"><ele>653.0</ele><time>2026-04-18T09:49:14Z</time></trkpt><trkpt lat="42.870167706183835" lon="12.92011448328083"><ele>653.0</ele><time>2026-04-18T09:49:15Z</time></trkpt><trkpt lat="42.87013225311249" lon="12.919993591678235"><ele>653.0</ele><time>2026-04-18T09:49:16Z</time></trkpt><trkpt lat="42.8701126978409" lon="12.919903270721456"><ele>653.0</ele><time>2026-04-18T09:49:17Z</time></trkpt><trkpt lat="42.8700782947213" lon="12.919818165394641"><ele>653.0</ele><time>2026-04-18T09:49:18Z</time></trkpt><trkpt lat="42.87004562729169" lon="12.919741761164572"><ele>653.0</ele><time>2026-04-18T09:49:19Z</time></trkpt><trkpt lat="42.87002191056556" lon="12.919646765326473"><ele>655.1666666666666</ele><time>2026-04-18T09:49:20Z</time></trkpt><trkpt lat="42.87002075517276" lon="12.91954892240087"><ele>657.3333333333333</ele><time>2026-04-18T09:49:21Z</time></trkpt><trkpt lat="42.870046365349054" lon="12.919445178757696"><ele>659.5</ele><time>2026-04-18T09:49:22Z</time></trkpt><trkpt lat="42.87008856856774" lon="12.919369471447641"><ele>661.6666666666666</ele><time>2026-04-18T09:49:23Z</time></trkpt><trkpt lat="42.87012190844058" lon="12.919206550970188"><ele>663.8333333333334</ele><time>2026-04-18T09:49:25Z</time></trkpt><trkpt lat="42.870099598133955" lon="12.91910329249661"><ele>666.0</ele><time>2026-04-18T09:49:26Z</time></trkpt><trkpt lat="42.870058968998784" lon="12.91902939876421"><ele>655.8</ele><time>2026-04-18T09:49:28Z</time></trkpt><trkpt lat="42.87001886994481" lon="12.919114187949857"><ele>645.5999999999999</ele><time>2026-04-18T09:49:30.999Z</time></trkpt><trkpt lat="42.86999355104236" lon="12.919262436700201"><ele>635.4</ele><time>2026-04-18T09:49:32.999Z</time></trkpt><trkpt lat="42.869947523668664" lon="12.919350101176857"><ele>625.2</ele><time>2026-04-18T09:49:33.999Z</time></trkpt><trkpt lat="42.86988734688617" lon="12.919426407506592"><ele>615.0</ele><time>2026-04-18T09:49:34.999Z</time></trkpt><trkpt lat="42.869808609028254" lon="12.919527740892294"><ele>615.0</ele><time>2026-04-18T09:49:36.999Z</time></trkpt><trkpt lat="42.8697592357493" lon="12.91945621133523"><ele>615.0</ele><time>2026-04-18T09:49:43.999Z</time></trkpt><trkpt lat="42.869804268136974" lon="12.919341520695092"><ele>615.0</ele><time>2026-04-18T09:49:44.999Z</time></trkpt><trkpt lat="42.86984852911505" lon="12.919239460860181"><ele>615.0</ele><time>2026-04-18T09:49:45.999Z</time></trkpt><trkpt lat="42.86987359275232" lon="12.91908890282344"><ele>615.0</ele><time>2026-04-18T09:49:46.999Z</time></trkpt><trkpt lat="42.86985626015912" lon="12.918918364060863"><ele>615.0</ele><time>2026-04-18T09:49:47.999Z</time></trkpt><trkpt lat="42.86980895732733" lon="12.9187512811037"><ele>615.0</ele><time>2026-04-18T09:49:48.999Z</time></trkpt><trkpt lat="42.86974816360533" lon="12.918594541169098"><ele>615.0</ele><time>2026-04-18T09:49:49.999Z</time></trkpt><trkpt lat="42.869704142144016" lon="12.918465659996144"><ele>615.0</ele><time>2026-04-18T09:49:50.999Z</time></trkpt><trkpt lat="42.86966519904144" lon="12.918341570319793"><ele>616.0</ele><time>2026-04-18T09:49:51.999Z</time></trkpt><trkpt lat="42.869627568637775" lon="12.91821333794495"><ele>617.0</ele><time>2026-04-18T09:49:52.999Z</time></trkpt><trkpt lat="42.86959283516319" lon="12.9180886868416"><ele>618.0</ele><time>2026-04-18T09:49:53.999Z</time></trkpt><trkpt lat="42.86953263476802" lon="12.91799237329996"><ele>619.0</ele><time>2026-04-18T09:49:54.999Z</time></trkpt><trkpt lat="42.86944007067901" lon="12.917952973821981"><ele>620.0</ele><time>2026-04-18T09:49:55.999Z</time></trkpt><trkpt lat="42.86933226182029" lon="12.917968477153904"><ele>612.0</ele><time>2026-04-18T09:49:56.999Z</time></trkpt><trkpt lat="42.86920353237634" lon="12.91796892145969"><ele>604.0</ele><time>2026-04-18T09:49:57.999Z</time></trkpt><trkpt lat="42.869081931763716" lon="12.91793543996199"><ele>596.0</ele><time>2026-04-18T09:49:58.999Z</time></trkpt><trkpt lat="42.868963504836344" lon="12.917872713767578"><ele>588.0</ele><time>2026-04-18T09:50:00Z</time></trkpt><trkpt lat="42.86884390491178" lon="12.917807126855173"><ele>588.0</ele><time>2026-04-18T09:50:01Z</time></trkpt><trkpt lat="42.86872620382992" lon="12.917765381433055"><ele>588.0</ele><time>2026-04-18T09:50:02Z</time></trkpt><trkpt lat="42.86860855789666" lon="12.917770033498709"><ele>588.0</ele><time>2026-04-18T09:50:03Z</time></trkpt><trkpt lat="42.868485793320936" lon="12.917822348146933"><ele>588.0</ele><time>2026-04-18T09:50:04Z</time></trkpt><trkpt lat="42.86836710355815" lon="12.917846702888722"><ele>584.0</ele><time>2026-04-18T09:50:05Z</time></trkpt><trkpt lat="42.86825001318301" lon="12.917829568358487"><ele>580.0</ele><time>2026-04-18T09:50:06Z</time></trkpt><trkpt lat="42.86813593720996" lon="12.91777550450711"><ele>576.0</ele><time>2026-04-18T09:50:07Z</time></trkpt><trkpt lat="42.868038865897624" lon="12.917695992671574"><ele>572.0</ele><time>2026-04-18T09:50:08Z</time></trkpt><trkpt lat="42.86796381578825" lon="12.917596898075955"><ele>576.5</ele><time>2026-04-18T09:50:09Z</time></trkpt><trkpt lat="42.86792177927942" lon="12.917466476409714"><ele>581.0</ele><time>2026-04-18T09:50:10Z</time></trkpt><trkpt lat="42.86789017578308" lon="12.917307804484796"><ele>585.5</ele><time>2026-04-18T09:50:11Z</time></trkpt><trkpt lat="42.867857689387314" lon="12.91712678065113"><ele>590.0</ele><time>2026-04-18T09:50:12Z</time></trkpt><trkpt lat="42.86783475217755" lon="12.91699457268507"><ele>590.0</ele><time>2026-04-18T09:50:13Z</time></trkpt><trkpt lat="42.86779335630422" lon="12.916868339228936"><ele>590.0</ele><time>2026-04-18T09:50:14Z</time></trkpt><trkpt lat="42.86772687962365" lon="12.916728803212383"><ele>590.0</ele><time>2026-04-18T09:50:15Z</time></trkpt><trkpt lat="42.86764685496974" lon="12.916597115452056"><ele>590.0</ele><time>2026-04-18T09:50:16Z</time></trkpt><trkpt lat="42.86757546552562" lon="12.916491194623463"><ele>585.8</ele><time>2026-04-18T09:50:17Z</time></trkpt><trkpt lat="42.86750392207419" lon="12.91639081520499"><ele>581.6</ele><time>2026-04-18T09:50:18Z</time></trkpt><trkpt lat="42.86743646831795" lon="12.916301240456868"><ele>577.4</ele><time>2026-04-18T09:50:19Z</time></trkpt><trkpt lat="42.86737012548616" lon="12.916210381348172"><ele>573.2</ele><time>2026-04-18T09:50:20Z</time></trkpt><trkpt lat="42.86730322017359" lon="12.91612475114567"><ele>569.0</ele><time>2026-04-18T09:50:21Z</time></trkpt><trkpt lat="42.86722447550869" lon="12.91603357897073"><ele>569.0</ele><time>2026-04-18T09:50:22Z</time></trkpt><trkpt lat="42.86713839466177" lon="12.915940185465548"><ele>569.0</ele><time>2026-04-18T09:50:23Z</time></trkpt><trkpt lat="42.86704944719774" lon="12.915855878111117"><ele>569.0</ele><time>2026-04-18T09:50:24Z</time></trkpt><trkpt lat="42.86695775898509" lon="12.915773984675088"><ele>569.0</ele><time>2026-04-18T09:50:25Z</time></trkpt><trkpt lat="42.86686278091208" lon="12.91569848562583"><ele>569.0</ele><time>2026-04-18T09:50:26Z</time></trkpt><trkpt lat="42.86676947290545" lon="12.915617769837288"><ele>567.0</ele><time>2026-04-18T09:50:27Z</time></trkpt><trkpt lat="42.8666874760177" lon="12.915531805446905"><ele>565.0</ele><time>2026-04-18T09:50:28Z</time></trkpt><trkpt lat="42.866618934148846" lon="12.91544076680293"><ele>563.0</ele><time>2026-04-18T09:50:29Z</time></trkpt><trkpt lat="42.86656120274047" lon="12.915320961328273"><ele>561.0</ele><time>2026-04-18T09:50:30Z</time></trkpt><trkpt lat="42.86651569741526" lon="12.91520061647048"><ele>559.0</ele><time>2026-04-18T09:50:31Z</time></trkpt><trkpt lat="42.86647788929798" lon="12.915063333426378"><ele>564.0</ele><time>2026-04-18T09:50:32Z</time></trkpt><trkpt lat="42.866441661405325" lon="12.91491695951684"><ele>569.0</ele><time>2026-04-18T09:50:33Z</time></trkpt><trkpt lat="42.86639360165812" lon="12.914786986916491"><ele>574.0</ele><time>2026-04-18T09:50:34Z</time></trkpt><trkpt lat="42.86633045533224" lon="12.914672482454856"><ele>579.0</ele><time>2026-04-18T09:50:35Z</time></trkpt><trkpt lat="42.866254262654394" lon="12.914562727907155"><ele>584.0</ele><time>2026-04-18T09:50:36Z</time></trkpt><trkpt lat="42.86616675863092" lon="12.914459313355213"><ele>584.0</ele><time>2026-04-18T09:50:37Z</time></trkpt><trkpt lat="42.86606384814441" lon="12.914363660349045"><ele>584.0</ele><time>2026-04-18T09:50:38Z</time></trkpt><trkpt lat="42.8659560651819" lon="12.91426479992878"><ele>584.0</ele><time>2026-04-18T09:50:39Z</time></trkpt><trkpt lat="42.86585780205609" lon="12.914175436301184"><ele>584.0</ele><time>2026-04-18T09:50:40Z</time></trkpt><trkpt lat="42.86577675932082" lon="12.914093201916703"><ele>581.0</ele><time>2026-04-18T09:50:41Z</time></trkpt><trkpt lat="42.8657050512498" lon="12.914005901604378"><ele>578.0</ele><time>2026-04-18T09:50:42Z</time></trkpt><trkpt lat="42.865642548524804" lon="12.913905517544427"><ele>575.0</ele><time>2026-04-18T09:50:43Z</time></trkpt><trkpt lat="42.8655762711066" lon="12.913782900693448"><ele>572.0</ele><time>2026-04-18T09:50:44Z</time></trkpt><trkpt lat="42.86549557483653" lon="12.913644026772028"><ele>569.0</ele><time>2026-04-18T09:50:45Z</time></trkpt><trkpt lat="42.86540237513621" lon="12.913513406302279"><ele>566.0</ele><time>2026-04-18T09:50:46Z</time></trkpt><trkpt lat="42.865291317305434" lon="12.913387904017066"><ele>563.0</ele><time>2026-04-18T09:50:47Z</time></trkpt><trkpt lat="42.86517109104222" lon="12.91326140680711"><ele>560.0</ele><time>2026-04-18T09:50:48Z</time></trkpt><trkpt lat="42.86504909232906" lon="12.9131224996766"><ele>560.0</ele><time>2026-04-18T09:50:49Z</time></trkpt><trkpt lat="42.86493567033511" lon="12.912993848701268"><ele>560.0</ele><time>2026-04-18T09:50:50Z</time></trkpt><trkpt lat="42.86484109531256" lon="12.912878572106372"><ele>560.0</ele><time>2026-04-18T09:50:51Z</time></trkpt><trkpt lat="42.86476264661641" lon="12.912772051337672"><ele>560.0</ele><time>2026-04-18T09:50:52Z</time></trkpt><trkpt lat="42.864723945985574" lon="12.912649799159176"><ele>564.75</ele><time>2026-04-18T09:50:53Z</time></trkpt><trkpt lat="42.864683699158526" lon="12.9124965867044"><ele>569.5</ele><time>2026-04-18T09:50:54Z</time></trkpt><trkpt lat="42.864625228581424" lon="12.912327145787811"><ele>574.25</ele><time>2026-04-18T09:50:55Z</time></trkpt><trkpt lat="42.86455758203794" lon="12.9121536258935"><ele>579.0</ele><time>2026-04-18T09:50:56Z</time></trkpt><trkpt lat="42.864518759190815" lon="12.911984803685653"><ele>579.0</ele><time>2026-04-18T09:50:57Z</time></trkpt><trkpt lat="42.86451456276564" lon="12.911807565391653"><ele>579.0</ele><time>2026-04-18T09:50:58Z</time></trkpt><trkpt lat="42.864531706114754" lon="12.911631462718198"><ele>579.0</ele><time>2026-04-18T09:50:59Z</time></trkpt><trkpt lat="42.86457063179949" lon="12.9114677399682"><ele>579.0</ele><time>2026-04-18T09:51:00Z</time></trkpt><trkpt lat="42.86462042665093" lon="12.91130108078953"><ele>583.5</ele><time>2026-04-18T09:51:01Z</time></trkpt><trkpt lat="42.864652656585726" lon="12.911127104048598"><ele>588.0</ele><time>2026-04-18T09:51:02Z</time></trkpt><trkpt lat="42.86465391423594" lon="12.910938999280152"><ele>592.5</ele><time>2026-04-18T09:51:03Z</time></trkpt><trkpt lat="42.86464242719612" lon="12.910749055181423"><ele>597.0</ele><time>2026-04-18T09:51:04Z</time></trkpt><trkpt lat="42.86462021565029" lon="12.910550920497124"><ele>598.3333333333334</ele><time>2026-04-18T09:51:05Z</time></trkpt><trkpt lat="42.86459610596183" lon="12.91035656352388"><ele>599.6666666666667</ele><time>2026-04-18T09:51:06Z</time></trkpt><trkpt lat="42.864564732993195" lon="12.910149647321672"><ele>601.0</ele><time>2026-04-18T09:51:07Z</time></trkpt><trkpt lat="42.86453536351969" lon="12.90994791667451"><ele>602.25</ele><time>2026-04-18T09:51:08Z</time></trkpt><trkpt lat="42.86450064637013" lon="12.909739263626149"><ele>603.5</ele><time>2026-04-18T09:51:09Z</time></trkpt><trkpt lat="42.864458571092804" lon="12.909547063536333"><ele>604.75</ele><time>2026-04-18T09:51:10Z</time></trkpt><trkpt lat="42.864422208140404" lon="12.909374906243478"><ele>606.0</ele><time>2026-04-18T09:51:11Z</time></trkpt><trkpt lat="42.86439302747543" lon="12.909212860593005"><ele>606.0</ele><time>2026-04-18T09:51:12Z</time></trkpt><trkpt lat="42.8644021887334" lon="12.909062435384724"><ele>606.0</ele><time>2026-04-18T09:51:13Z</time></trkpt><trkpt lat="42.864440969208296" lon="12.908907987993297"><ele>606.0</ele><time>2026-04-18T09:51:14Z</time></trkpt><trkpt lat="42.86449754719996" lon="12.90873175342507"><ele>606.0</ele><time>2026-04-18T09:51:15Z</time></trkpt><trkpt lat="42.8645338668552" lon="12.90856165266104"><ele>603.75</ele><time>2026-04-18T09:51:16Z</time></trkpt><trkpt lat="42.8645303966321" lon="12.908392330156172"><ele>601.5</ele><time>2026-04-18T09:51:17Z</time></trkpt><trkpt lat="42.864507617886105" lon="12.908213335780388"><ele>599.25</ele><time>2026-04-18T09:51:18Z</time></trkpt><trkpt lat="42.86447439241947" lon="12.90802927666044"><ele>597.0</ele><time>2026-04-18T09:51:19Z</time></trkpt><trkpt lat="42.8644503729477" lon="12.907843662301586"><ele>597.0</ele><time>2026-04-18T09:51:20Z</time></trkpt><trkpt lat="42.86444207929122" lon="12.90765560223827"><ele>597.0</ele><time>2026-04-18T09:51:21Z</time></trkpt><trkpt lat="42.864439859263186" lon="12.907466183165063"><ele>597.0</ele><time>2026-04-18T09:51:22Z</time></trkpt><trkpt lat="42.86442352268412" lon="12.9072727818057"><ele>597.0</ele><time>2026-04-18T09:51:23Z</time></trkpt><trkpt lat="42.86439182618688" lon="12.907090205073356"><ele>601.5</ele><time>2026-04-18T09:51:24Z</time></trkpt><trkpt lat="42.864349344402875" lon="12.906914180434287"><ele>606.0</ele><time>2026-04-18T09:51:25Z</time></trkpt><trkpt lat="42.86430608577982" lon="12.906741052340452"><ele>610.5</ele><time>2026-04-18T09:51:26Z</time></trkpt><trkpt lat="42.86426136124194" lon="12.906564992780517"><ele>615.0</ele><time>2026-04-18T09:51:27Z</time></trkpt><trkpt lat="42.86421467788479" lon="12.906387030126078"><ele>606.5</ele><time>2026-04-18T09:51:28Z</time></trkpt><trkpt lat="42.864164951584556" lon="12.906218500562277"><ele>598.0</ele><time>2026-04-18T09:51:29Z</time></trkpt><trkpt lat="42.86410432553583" lon="12.906048579607479"><ele>589.5</ele><time>2026-04-18T09:51:30Z</time></trkpt><trkpt lat="42.86403688585086" lon="12.905879071861163"><ele>581.0</ele><time>2026-04-18T09:51:31Z</time></trkpt><trkpt lat="42.86396483608091" lon="12.905713008126881"><ele>581.0</ele><time>2026-04-18T09:51:32Z</time></trkpt><trkpt lat="42.863889932287414" lon="12.90556574942144"><ele>581.0</ele><time>2026-04-18T09:51:33Z</time></trkpt><trkpt lat="42.863803957994286" lon="12.905424205381898"><ele>581.0</ele><time>2026-04-18T09:51:34Z</time></trkpt><trkpt lat="42.86371781610718" lon="12.905277383867336"><ele>581.0</ele><time>2026-04-18T09:51:35Z</time></trkpt><trkpt lat="42.86363182756166" lon="12.90514034513745"><ele>580.0</ele><time>2026-04-18T09:51:36Z</time></trkpt><trkpt lat="42.86353856225506" lon="12.905009156792099"><ele>579.0</ele><time>2026-04-18T09:51:37Z</time></trkpt><trkpt lat="42.86344712850966" lon="12.904890485403111"><ele>578.0</ele><time>2026-04-18T09:51:37.999Z</time></trkpt><trkpt lat="42.86334408906831" lon="12.904785977471967"><ele>577.0</ele><time>2026-04-18T09:51:38.999Z</time></trkpt><trkpt lat="42.86325683658157" lon="12.904693485021177"><ele>577.0</ele><time>2026-04-18T09:51:39.999Z</time></trkpt><trkpt lat="42.863180029244134" lon="12.904590086832602"><ele>577.0</ele><time>2026-04-18T09:51:40.999Z</time></trkpt><trkpt lat="42.86311734641975" lon="12.90447455202933"><ele>577.0</ele><time>2026-04-18T09:51:41.999Z</time></trkpt><trkpt lat="42.86306513273987" lon="12.90434900373739"><ele>577.0</ele><time>2026-04-18T09:51:42.999Z</time></trkpt><trkpt lat="42.863015622849424" lon="12.90423451136958"><ele>577.0</ele><time>2026-04-18T09:51:43.999Z</time></trkpt><trkpt lat="42.862984475445145" lon="12.904111918006778"><ele>576.75</ele><time>2026-04-18T09:51:44.999Z</time></trkpt><trkpt lat="42.862956026499035" lon="12.903967067173378"><ele>576.5</ele><time>2026-04-18T09:51:45.999Z</time></trkpt><trkpt lat="42.86291514643655" lon="12.903814421796838"><ele>576.25</ele><time>2026-04-18T09:51:46.999Z</time></trkpt><trkpt lat="42.86285082057602" lon="12.903692376631211"><ele>576.0</ele><time>2026-04-18T09:51:47.999Z</time></trkpt><trkpt lat="42.86276229607493" lon="12.903545432442273"><ele>578.5</ele><time>2026-04-18T09:51:48.999Z</time></trkpt><trkpt lat="42.86270238461865" lon="12.90340117564671"><ele>581.0</ele><time>2026-04-18T09:51:49.999Z</time></trkpt><trkpt lat="42.8626475218464" lon="12.903245296501096"><ele>583.5</ele><time>2026-04-18T09:51:50.999Z</time></trkpt><trkpt lat="42.86259123024653" lon="12.903091957502578"><ele>586.0</ele><time>2026-04-18T09:51:51.999Z</time></trkpt><trkpt lat="42.86255173086373" lon="12.902929171742555"><ele>588.25</ele><time>2026-04-18T09:51:52.999Z</time></trkpt><trkpt lat="42.8625309639163" lon="12.902779069955097"><ele>590.5</ele><time>2026-04-18T09:51:53.999Z</time></trkpt><trkpt lat="42.862515057023316" lon="12.902617775566627"><ele>592.75</ele><time>2026-04-18T09:51:54.999Z</time></trkpt><trkpt lat="42.862516661132155" lon="12.90244315705074"><ele>595.0</ele><time>2026-04-18T09:51:55.999Z</time></trkpt><trkpt lat="42.86251508014922" lon="12.902264843030672"><ele>595.0</ele><time>2026-04-18T09:51:56.999Z</time></trkpt><trkpt lat="42.86249822178806" lon="12.902095531208323"><ele>595.0</ele><time>2026-04-18T09:51:57.999Z</time></trkpt><trkpt lat="42.8624788616949" lon="12.901913480062651"><ele>595.0</ele><time>2026-04-18T09:51:58.999Z</time></trkpt><trkpt lat="42.86246578279344" lon="12.901730213719524"><ele>595.0</ele><time>2026-04-18T09:51:59.999Z</time></trkpt><trkpt lat="42.86244512855498" lon="12.901555951230177"><ele>595.5</ele><time>2026-04-18T09:52:00.999Z</time></trkpt><trkpt lat="42.86243146201215" lon="12.901408345331307"><ele>596.0</ele><time>2026-04-18T09:52:01.999Z</time></trkpt><trkpt lat="42.86246712828555" lon="12.90124986119346"><ele>596.5</ele><time>2026-04-18T09:52:02.999Z</time></trkpt><trkpt lat="42.86248918125972" lon="12.90108016829385"><ele>597.0</ele><time>2026-04-18T09:52:03.999Z</time></trkpt><trkpt lat="42.862495703317634" lon="12.900895363084885"><ele>598.25</ele><time>2026-04-18T09:52:04.999Z</time></trkpt><trkpt lat="42.86248492182848" lon="12.900731345428241"><ele>599.5</ele><time>2026-04-18T09:52:06Z</time></trkpt><trkpt lat="42.86250063704435" lon="12.900576619211376"><ele>600.75</ele><time>2026-04-18T09:52:07Z</time></trkpt><trkpt lat="42.86253776171705" lon="12.900405553997128"><ele>602.0</ele><time>2026-04-18T09:52:08Z</time></trkpt><trkpt lat="42.86257798771615" lon="12.900219029136679"><ele>607.5</ele><time>2026-04-18T09:52:09Z</time></trkpt><trkpt lat="42.862624619600474" lon="12.900060896995246"><ele>613.0</ele><time>2026-04-18T09:52:10Z</time></trkpt><trkpt lat="42.86266421828587" lon="12.899925314701033"><ele>618.5</ele><time>2026-04-18T09:52:11Z</time></trkpt><trkpt lat="42.86272243611976" lon="12.89978286870213"><ele>624.0</ele><time>2026-04-18T09:52:12Z</time></trkpt><trkpt lat="42.86277798160968" lon="12.899620960690248"><ele>624.0</ele><time>2026-04-18T09:52:13Z</time></trkpt><trkpt lat="42.86284340813635" lon="12.899486441410586"><ele>624.0</ele><time>2026-04-18T09:52:14Z</time></trkpt><trkpt lat="42.86288460691539" lon="12.899371691417041"><ele>624.0</ele><time>2026-04-18T09:52:15Z</time></trkpt><trkpt lat="42.86290630514706" lon="12.899229263354753"><ele>624.0</ele><time>2026-04-18T09:52:16Z</time></trkpt><trkpt lat="42.86290581415871" lon="12.899057004497122"><ele>624.0</ele><time>2026-04-18T09:52:17Z</time></trkpt><trkpt lat="42.86289787043493" lon="12.89888014623702"><ele>622.8</ele><time>2026-04-18T09:52:18Z</time></trkpt><trkpt lat="42.86291117761757" lon="12.898719681460273"><ele>621.5999999999999</ele><time>2026-04-18T09:52:19Z</time></trkpt><trkpt lat="42.862923827597555" lon="12.89856378647032"><ele>620.4</ele><time>2026-04-18T09:52:20Z</time></trkpt><trkpt lat="42.8629262957872" lon="12.898414574461901"><ele>619.1999999999999</ele><time>2026-04-18T09:52:21Z</time></trkpt><trkpt lat="42.86294324824335" lon="12.898273986338"><ele>618.0</ele><time>2026-04-18T09:52:22Z</time></trkpt><trkpt lat="42.86298149560395" lon="12.898127143051154"><ele>617.75</ele><time>2026-04-18T09:52:23Z</time></trkpt><trkpt lat="42.863025308517976" lon="12.897980746815977"><ele>617.5</ele><time>2026-04-18T09:52:24Z</time></trkpt><trkpt lat="42.86307940562804" lon="12.89783009082894"><ele>617.25</ele><time>2026-04-18T09:52:25Z</time></trkpt><trkpt lat="42.86310069002131" lon="12.897671431052206"><ele>617.0</ele><time>2026-04-18T09:52:26Z</time></trkpt><trkpt lat="42.8630988356424" lon="12.89752193402186"><ele>617.75</ele><time>2026-04-18T09:52:27Z</time></trkpt><trkpt lat="42.86313182334418" lon="12.897360208245107"><ele>618.5</ele><time>2026-04-18T09:52:28Z</time></trkpt><trkpt lat="42.86314959960155" lon="12.897199557127715"><ele>619.25</ele><time>2026-04-18T09:52:29Z</time></trkpt><trkpt lat="42.86317729992854" lon="12.897043572744849"><ele>620.0</ele><time>2026-04-18T09:52:30Z</time></trkpt><trkpt lat="42.86318681361262" lon="12.896900730147955"><ele>620.0</ele><time>2026-04-18T09:52:31Z</time></trkpt><trkpt lat="42.86319052395809" lon="12.896765770676673"><ele>620.0</ele><time>2026-04-18T09:52:32Z</time></trkpt><trkpt lat="42.863197187540266" lon="12.896625925341588"><ele>620.0</ele><time>2026-04-18T09:52:33Z</time></trkpt><trkpt lat="42.86322665261899" lon="12.896512974343356"><ele>620.0</ele><time>2026-04-18T09:52:34Z</time></trkpt><trkpt lat="42.86324511429431" lon="12.896423334502048"><ele>620.0</ele><time>2026-04-18T09:52:35Z</time></trkpt><trkpt lat="42.86322774721021" lon="12.896233631765048"><ele>621.3333333333333</ele><time>2026-04-18T09:52:37Z</time></trkpt><trkpt lat="42.86318850882748" lon="12.896109382001208"><ele>622.6666666666666</ele><time>2026-04-18T09:52:38Z</time></trkpt><trkpt lat="42.86316063510256" lon="12.895986238268996"><ele>624.0</ele><time>2026-04-18T09:52:39Z</time></trkpt><trkpt lat="42.86311615652348" lon="12.895870794599663"><ele>625.3333333333334</ele><time>2026-04-18T09:52:40Z</time></trkpt><trkpt lat="42.86308441485429" lon="12.895775287632055"><ele>626.6666666666667</ele><time>2026-04-18T09:52:41Z</time></trkpt><trkpt lat="42.86305577964246" lon="12.895671975246223"><ele>628.0</ele><time>2026-04-18T09:52:42Z</time></trkpt><trkpt lat="42.86301564451875" lon="12.895589581526249"><ele>630.75</ele><time>2026-04-18T09:52:43Z</time></trkpt><trkpt lat="42.8629310134644" lon="12.8955061650759"><ele>633.5</ele><time>2026-04-18T09:52:45Z</time></trkpt><trkpt lat="42.862808317534764" lon="12.89545173061744"><ele>636.25</ele><time>2026-04-18T09:52:47Z</time></trkpt><trkpt lat="42.86269996803168" lon="12.895402708807048"><ele>639.0</ele><time>2026-04-18T09:52:49Z</time></trkpt><trkpt lat="42.86259554253879" lon="12.895386876529932"><ele>639.6666666666666</ele><time>2026-04-18T09:52:51Z</time></trkpt><trkpt lat="42.86248562306867" lon="12.895367400706066"><ele>640.3333333333334</ele><time>2026-04-18T09:52:53Z</time></trkpt><trkpt lat="42.86243028195605" lon="12.89532009848079"><ele>641.0</ele><time>2026-04-18T09:52:54Z</time></trkpt><trkpt lat="42.86238161344143" lon="12.895264297906868"><ele>641.6666666666667</ele><time>2026-04-18T09:52:55Z</time></trkpt><trkpt lat="42.862290968176076" lon="12.895194205904913"><ele>642.3333333333334</ele><time>2026-04-18T09:52:57Z</time></trkpt><trkpt lat="42.86219655097657" lon="12.895167229873643"><ele>643.0</ele><time>2026-04-18T09:52:59Z</time></trkpt><trkpt lat="42.862144733406964" lon="12.895082877351893"><ele>643.0</ele><time>2026-04-18T09:53:01Z</time></trkpt><trkpt lat="42.86220308297089" lon="12.89499208452562"><ele>643.0</ele><time>2026-04-18T09:53:03Z</time></trkpt><trkpt lat="42.86212560039897" lon="12.89490366389839"><ele>643.0</ele><time>2026-04-18T09:53:06Z</time></trkpt><trkpt lat="42.862066343052014" lon="12.894869745715235"><ele>643.0</ele><time>2026-04-18T09:53:07Z</time></trkpt><trkpt lat="42.86196271199953" lon="12.89473424290733"><ele>643.0</ele><time>2026-04-18T09:53:09Z</time></trkpt><trkpt lat="42.861887484854286" lon="12.894650200195189"><ele>643.0</ele><time>2026-04-18T09:53:10Z</time></trkpt><trkpt lat="42.86180263612902" lon="12.894562447839512"><ele>643.0</ele><time>2026-04-18T09:53:11Z</time></trkpt><trkpt lat="42.861684396929185" lon="12.89447020689688"><ele>643.0</ele><time>2026-04-18T09:53:12Z</time></trkpt><trkpt lat="42.86156129165695" lon="12.894368993715505"><ele>643.0</ele><time>2026-04-18T09:53:13Z</time></trkpt><trkpt lat="42.86145059926485" lon="12.894260904773175"><ele>646.5</ele><time>2026-04-18T09:53:14Z</time></trkpt><trkpt lat="42.86133896769916" lon="12.89416610757106"><ele>650.0</ele><time>2026-04-18T09:53:15Z</time></trkpt><trkpt lat="42.861236219728106" lon="12.894090637023183"><ele>653.5</ele><time>2026-04-18T09:53:16Z</time></trkpt><trkpt lat="42.86112785589065" lon="12.894047587775448"><ele>657.0</ele><time>2026-04-18T09:53:17Z</time></trkpt><trkpt lat="42.861024657906064" lon="12.893971655935454"><ele>655.8</ele><time>2026-04-18T09:53:18Z</time></trkpt><trkpt lat="42.860934931234745" lon="12.893881619100197"><ele>654.6</ele><time>2026-04-18T09:53:19Z</time></trkpt><trkpt lat="42.860878389457476" lon="12.893817794164804"><ele>653.4</ele><time>2026-04-18T09:53:20Z</time></trkpt><trkpt lat="42.86075443455345" lon="12.893780998697524"><ele>652.1999999999999</ele><time>2026-04-18T09:53:22Z</time></trkpt><trkpt lat="42.86067149913251" lon="12.893734153646264"><ele>651.0</ele><time>2026-04-18T09:53:24Z</time></trkpt><trkpt lat="42.86060742989795" lon="12.89374716012808"><ele>651.0</ele><time>2026-04-18T09:53:27Z</time></trkpt><trkpt lat="42.860546314990366" lon="12.893810237638814"><ele>651.0</ele><time>2026-04-18T09:53:29Z</time></trkpt><trkpt lat="42.860454491898764" lon="12.893757910885322"><ele>651.0</ele><time>2026-04-18T09:53:31Z</time></trkpt><trkpt lat="42.86036635735818" lon="12.893713294170684"><ele>651.0</ele><time>2026-04-18T09:53:32Z</time></trkpt><trkpt lat="42.86029968638784" lon="12.893667787790935"><ele>651.0</ele><time>2026-04-18T09:53:33Z</time></trkpt><trkpt lat="42.860220803352824" lon="12.893611929754309"><ele>651.0</ele><time>2026-04-18T09:53:34Z</time></trkpt><trkpt lat="42.86014374764923" lon="12.893566851943868"><ele>652.8</ele><time>2026-04-18T09:53:35Z</time></trkpt><trkpt lat="42.86007952389817" lon="12.893497945828297"><ele>654.5999999999999</ele><time>2026-04-18T09:53:36Z</time></trkpt><trkpt lat="42.86002230831419" lon="12.893388686458161"><ele>656.4</ele><time>2026-04-18T09:53:37Z</time></trkpt><trkpt lat="42.85996322921632" lon="12.893277785586601"><ele>658.2</ele><time>2026-04-18T09:53:38Z</time></trkpt><trkpt lat="42.85989283136724" lon="12.893178384386111"><ele>660.0</ele><time>2026-04-18T09:53:39Z</time></trkpt><trkpt lat="42.85981551347417" lon="12.893076228052557"><ele>660.0</ele><time>2026-04-18T09:53:40Z</time></trkpt><trkpt lat="42.85973451309051" lon="12.892988184174325"><ele>660.0</ele><time>2026-04-18T09:53:41Z</time></trkpt><trkpt lat="42.85965098765614" lon="12.892884490217385"><ele>660.0</ele><time>2026-04-18T09:53:42Z</time></trkpt><trkpt lat="42.859587521616895" lon="12.892755915304608"><ele>660.0</ele><time>2026-04-18T09:53:42.999Z</time></trkpt><trkpt lat="42.859543652413755" lon="12.892618310836905"><ele>660.0</ele><time>2026-04-18T09:53:43.999Z</time></trkpt><trkpt lat="42.859518541970544" lon="12.892460622175955"><ele>663.25</ele><time>2026-04-18T09:53:44.999Z</time></trkpt><trkpt lat="42.85949957770408" lon="12.892296961844593"><ele>666.5</ele><time>2026-04-18T09:53:45.999Z</time></trkpt><trkpt lat="42.85946584230255" lon="12.892164603202733"><ele>669.75</ele><time>2026-04-18T09:53:46.999Z</time></trkpt><trkpt lat="42.859391789967276" lon="12.892054704828325"><ele>673.0</ele><time>2026-04-18T09:53:47.999Z</time></trkpt><trkpt lat="42.85929418146321" lon="12.891956585502882"><ele>673.2</ele><time>2026-04-18T09:53:48.999Z</time></trkpt><trkpt lat="42.85920755642951" lon="12.891829697872257"><ele>673.4</ele><time>2026-04-18T09:53:49.999Z</time></trkpt><trkpt lat="42.85914564145597" lon="12.891707307625497"><ele>673.6</ele><time>2026-04-18T09:53:50.999Z</time></trkpt><trkpt lat="42.85911021769557" lon="12.891601509357859"><ele>673.8000000000001</ele><time>2026-04-18T09:53:51.999Z</time></trkpt><trkpt lat="42.859085670840756" lon="12.891489517070307"><ele>674.0</ele><time>2026-04-18T09:53:52.999Z</time></trkpt><trkpt lat="42.85906860969765" lon="12.891380533208425"><ele>674.0</ele><time>2026-04-18T09:53:53.999Z</time></trkpt><trkpt lat="42.85904455479496" lon="12.891288763720796"><ele>674.0</ele><time>2026-04-18T09:53:54.999Z</time></trkpt><trkpt lat="42.858980593445715" lon="12.89113928953828"><ele>674.0</ele><time>2026-04-18T09:53:56.999Z</time></trkpt><trkpt lat="42.85897192084643" lon="12.891049614092271"><ele>674.0</ele><time>2026-04-18T09:53:57.999Z</time></trkpt><trkpt lat="42.858904880838104" lon="12.890943039045112"><ele>674.0</ele><time>2026-04-18T09:53:59.999Z</time></trkpt><trkpt lat="42.85883790539913" lon="12.890904894066898"><ele>674.0</ele><time>2026-04-18T09:54:00.999Z</time></trkpt><trkpt lat="42.858751714664" lon="12.890801870430753"><ele>674.6666666666666</ele><time>2026-04-18T09:54:02.999Z</time></trkpt><trkpt lat="42.85873311212339" lon="12.890713615824813"><ele>675.3333333333333</ele><time>2026-04-18T09:54:04.999Z</time></trkpt><trkpt lat="42.8586766879223" lon="12.890658659553765"><ele>676.0</ele><time>2026-04-18T09:54:09.999Z</time></trkpt><trkpt lat="42.858644645154186" lon="12.890572367010567"><ele>676.6666666666666</ele><time>2026-04-18T09:54:21Z</time></trkpt><trkpt lat="42.85863489588802" lon="12.890433202050069"><ele>677.3333333333334</ele><time>2026-04-18T09:54:24Z</time></trkpt><trkpt lat="42.85860405216377" lon="12.890305359050059"><ele>678.0</ele><time>2026-04-18T09:54:26Z</time></trkpt><trkpt lat="42.85858043125044" lon="12.890220456756095"><ele>678.0</ele><time>2026-04-18T09:54:28Z</time></trkpt><trkpt lat="42.858588161979554" lon="12.890123636575746"><ele>678.0</ele><time>2026-04-18T09:54:33Z</time></trkpt><trkpt lat="42.858547225377535" lon="12.890052166305434"><ele>678.0</ele><time>2026-04-18T09:54:40Z</time></trkpt><trkpt lat="42.85850395632384" lon="12.88998553338641"><ele>678.0</ele><time>2026-04-18T09:54:42Z</time></trkpt><trkpt lat="42.858419175949535" lon="12.889918601666004"><ele>678.0</ele><time>2026-04-18T09:54:44Z</time></trkpt><trkpt lat="42.858508909253175" lon="12.88996405842161"><ele>678.0</ele><time>2026-04-18T09:55:40Z</time></trkpt><trkpt lat="42.858553553016016" lon="12.89005253243578"><ele>679.3333333333334</ele><time>2026-04-18T09:55:43Z</time></trkpt><trkpt lat="42.85862896513872" lon="12.890010124457724"><ele>680.6666666666666</ele><time>2026-04-18T09:55:46Z</time></trkpt><trkpt lat="42.858581599936265" lon="12.889918828890583"><ele>682.0</ele><time>2026-04-18T09:55:49Z</time></trkpt><trkpt lat="42.8585187782831" lon="12.889885903221991"><ele>683.3333333333333</ele><time>2026-04-18T09:55:51Z</time></trkpt><trkpt lat="42.858476194430075" lon="12.889815489858494"><ele>684.6666666666666</ele><time>2026-04-18T09:55:53Z</time></trkpt><trkpt lat="42.85837394707469" lon="12.889744215050698"><ele>686.0</ele><time>2026-04-18T09:55:55Z</time></trkpt><trkpt lat="42.85828966128041" lon="12.889696086167776"><ele>686.5</ele><time>2026-04-18T09:55:57Z</time></trkpt><trkpt lat="42.858156880964785" lon="12.889589899315608"><ele>687.0</ele><time>2026-04-18T09:55:59Z</time></trkpt><trkpt lat="42.85807508115251" lon="12.8895142311967"><ele>687.5</ele><time>2026-04-18T09:56:00Z</time></trkpt><trkpt lat="42.85796916287826" lon="12.889439303391244"><ele>688.0</ele><time>2026-04-18T09:56:01Z</time></trkpt><trkpt lat="42.85786183100561" lon="12.88935805262277"><ele>688.0</ele><time>2026-04-18T09:56:02Z</time></trkpt><trkpt lat="42.85778099579584" lon="12.889314381111866"><ele>688.0</ele><time>2026-04-18T09:56:03Z</time></trkpt><trkpt lat="42.85770785558347" lon="12.889285776217042"><ele>688.0</ele><time>2026-04-18T09:56:04Z</time></trkpt><trkpt lat="42.857612527847564" lon="12.889239645538957"><ele>688.0</ele><time>2026-04-18T09:56:06Z</time></trkpt><trkpt lat="42.857524004580185" lon="12.889157194482893"><ele>688.0</ele><time>2026-04-18T09:56:08Z</time></trkpt><trkpt lat="42.857462001212426" lon="12.889117954058598"><ele>688.0</ele><time>2026-04-18T09:56:08.999Z</time></trkpt><trkpt lat="42.85736566651597" lon="12.889059306722151"><ele>690.1666666666667</ele><time>2026-04-18T09:56:10.999Z</time></trkpt><trkpt lat="42.85730818172727" lon="12.888953519201918"><ele>692.3333333333334</ele><time>2026-04-18T09:56:13.999Z</time></trkpt><trkpt lat="42.85725093043072" lon="12.888909293067957"><ele>694.5</ele><time>2026-04-18T09:56:15.999Z</time></trkpt><trkpt lat="42.857198744569054" lon="12.88885440005672"><ele>696.6666666666666</ele><time>2026-04-18T09:56:16.999Z</time></trkpt><trkpt lat="42.85714863950393" lon="12.888779128498863"><ele>698.8333333333333</ele><time>2026-04-18T09:56:18Z</time></trkpt><trkpt lat="42.85714971290224" lon="12.888688450830339"><ele>701.0</ele><time>2026-04-18T09:56:21Z</time></trkpt><trkpt lat="42.8570581212978" lon="12.888642516567339"><ele>701.0</ele><time>2026-04-18T09:56:25Z</time></trkpt><trkpt lat="42.85699553398682" lon="12.88861831170807"><ele>701.0</ele><time>2026-04-18T09:56:28Z</time></trkpt><trkpt lat="42.85692418541586" lon="12.888613541735731"><ele>701.0</ele><time>2026-04-18T09:56:57Z</time></trkpt><trkpt lat="42.85685753804645" lon="12.88858246661178"><ele>701.0</ele><time>2026-04-18T09:57:05Z</time></trkpt><trkpt lat="42.85678615049752" lon="12.888607122474614"><ele>701.0</ele><time>2026-04-18T09:57:07Z</time></trkpt><trkpt lat="42.856632583805116" lon="12.888431529737925"><ele>702.8333333333333</ele><time>2026-04-18T09:57:11Z</time></trkpt><trkpt lat="42.856577342606926" lon="12.888356388925299"><ele>704.6666666666666</ele><time>2026-04-18T09:57:12Z</time></trkpt><trkpt lat="42.856505135681275" lon="12.888291051219694"><ele>706.5</ele><time>2026-04-18T09:57:13Z</time></trkpt><trkpt lat="42.856425267471394" lon="12.888249798912824"><ele>708.3333333333334</ele><time>2026-04-18T09:57:14Z</time></trkpt><trkpt lat="42.856361886704164" lon="12.88820946096688"><ele>710.1666666666667</ele><time>2026-04-18T09:57:15Z</time></trkpt><trkpt lat="42.8562810476628" lon="12.888154228135779"><ele>712.0</ele><time>2026-04-18T09:57:16Z</time></trkpt><trkpt lat="42.856203050116676" lon="12.88811047355708"><ele>712.0</ele><time>2026-04-18T09:57:17Z</time></trkpt><trkpt lat="42.85614014851816" lon="12.88808137902899"><ele>712.0</ele><time>2026-04-18T09:57:18Z</time></trkpt><trkpt lat="42.8560305874526" lon="12.888166373344895"><ele>712.0</ele><time>2026-04-18T09:57:20Z</time></trkpt><trkpt lat="42.85598836653056" lon="12.88823050748942"><ele>712.0</ele><time>2026-04-18T09:57:21Z</time></trkpt><trkpt lat="42.85591301557344" lon="12.888306091547411"><ele>712.0</ele><time>2026-04-18T09:57:22Z</time></trkpt><trkpt lat="42.855831868152194" lon="12.88833237455748"><ele>712.0</ele><time>2026-04-18T09:57:23Z</time></trkpt><trkpt lat="42.85576541733463" lon="12.888353658551566"><ele>714.3333333333334</ele><time>2026-04-18T09:57:24Z</time></trkpt><trkpt lat="42.85568617575518" lon="12.888403961421021"><ele>716.6666666666667</ele><time>2026-04-18T09:57:27Z</time></trkpt><trkpt lat="42.85560507809717" lon="12.888369467927086"><ele>719.0</ele><time>2026-04-18T09:57:30Z</time></trkpt><trkpt lat="42.855518548162344" lon="12.888339163881827"><ele>721.3333333333334</ele><time>2026-04-18T09:57:36Z</time></trkpt><trkpt lat="42.85542841373731" lon="12.888308731284868"><ele>723.6666666666666</ele><time>2026-04-18T09:57:38Z</time></trkpt><trkpt lat="42.855347720997244" lon="12.88828504273834"><ele>726.0</ele><time>2026-04-18T09:57:40Z</time></trkpt><trkpt lat="42.85525555326715" lon="12.888239477760584"><ele>726.0</ele><time>2026-04-18T09:57:42Z</time></trkpt><trkpt lat="42.85517403652041" lon="12.88821154044885"><ele>726.0</ele><time>2026-04-18T09:57:43Z</time></trkpt><trkpt lat="42.855087811627044" lon="12.88816421372894"><ele>726.0</ele><time>2026-04-18T09:57:44Z</time></trkpt><trkpt lat="42.855010521415814" lon="12.88812028153288"><ele>726.0</ele><time>2026-04-18T09:57:45Z</time></trkpt><trkpt lat="42.85492058066919" lon="12.888068425765045"><ele>726.0</ele><time>2026-04-18T09:57:46Z</time></trkpt><trkpt lat="42.85484720393425" lon="12.888061806281897"><ele>726.0</ele><time>2026-04-18T09:57:47Z</time></trkpt><trkpt lat="42.85476459984136" lon="12.888082510643878"><ele>728.4</ele><time>2026-04-18T09:57:48Z</time></trkpt><trkpt lat="42.85464877559809" lon="12.888105586986267"><ele>730.8</ele><time>2026-04-18T09:57:49Z</time></trkpt><trkpt lat="42.85455666413665" lon="12.888130345374503"><ele>733.1999999999999</ele><time>2026-04-18T09:57:50Z</time></trkpt><trkpt lat="42.854466852152235" lon="12.88809074655362"><ele>735.5999999999999</ele><time>2026-04-18T09:57:51Z</time></trkpt><trkpt lat="42.85437085609653" lon="12.88801802819404"><ele>738.0</ele><time>2026-04-18T09:57:52Z</time></trkpt><trkpt lat="42.854280158715966" lon="12.887962285936391"><ele>741.8</ele><time>2026-04-18T09:57:53Z</time></trkpt><trkpt lat="42.85417511597049" lon="12.887911391380205"><ele>745.5999999999999</ele><time>2026-04-18T09:57:54Z</time></trkpt><trkpt lat="42.8540839346319" lon="12.887861584325305"><ele>749.4000000000001</ele><time>2026-04-18T09:57:55Z</time></trkpt><trkpt lat="42.85396712875706" lon="12.887823052771338"><ele>753.2</ele><time>2026-04-18T09:57:56Z</time></trkpt><trkpt lat="42.853861350676745" lon="12.887783334676215"><ele>757.0</ele><time>2026-04-18T09:57:57Z</time></trkpt><trkpt lat="42.85378159110757" lon="12.887736003258414"><ele>757.0</ele><time>2026-04-18T09:57:58Z</time></trkpt><trkpt lat="42.85371347951757" lon="12.887663388101815"><ele>757.0</ele><time>2026-04-18T09:57:59Z</time></trkpt><trkpt lat="42.8536386622499" lon="12.887594939546933"><ele>757.0</ele><time>2026-04-18T09:58:00Z</time></trkpt><trkpt lat="42.8535204509848" lon="12.887464842925102"><ele>757.0</ele><time>2026-04-18T09:58:01Z</time></trkpt><trkpt lat="42.85340494916838" lon="12.887411710959839"><ele>758.8</ele><time>2026-04-18T09:58:02Z</time></trkpt><trkpt lat="42.85330612204764" lon="12.887349289495415"><ele>760.6</ele><time>2026-04-18T09:58:03Z</time></trkpt><trkpt lat="42.85323967449029" lon="12.88726941186698"><ele>762.4</ele><time>2026-04-18T09:58:04Z</time></trkpt><trkpt lat="42.853196524524826" lon="12.88712808206536"><ele>764.1999999999999</ele><time>2026-04-18T09:58:05Z</time></trkpt><trkpt lat="42.853154153816604" lon="12.887005810785451"><ele>766.0</ele><time>2026-04-18T09:58:06Z</time></trkpt><trkpt lat="42.85309196895339" lon="12.886917052564373"><ele>766.0</ele><time>2026-04-18T09:58:07Z</time></trkpt><trkpt lat="42.85301241975995" lon="12.886885553948261"><ele>766.0</ele><time>2026-04-18T09:58:08Z</time></trkpt><trkpt lat="42.85292816925409" lon="12.886867777965925"><ele>766.0</ele><time>2026-04-18T09:58:09Z</time></trkpt><trkpt lat="42.85282003129785" lon="12.88684442954341"><ele>766.0</ele><time>2026-04-18T09:58:10Z</time></trkpt><trkpt lat="42.85270816555827" lon="12.886781653992479"><ele>766.0</ele><time>2026-04-18T09:58:11Z</time></trkpt><trkpt lat="42.8526077031873" lon="12.88673574814358"><ele>768.3333333333334</ele><time>2026-04-18T09:58:12Z</time></trkpt><trkpt lat="42.85253837657511" lon="12.88668066678574"><ele>770.6666666666667</ele><time>2026-04-18T09:58:13Z</time></trkpt><trkpt lat="42.85249879635237" lon="12.886601448047552"><ele>773.0</ele><time>2026-04-18T09:58:14Z</time></trkpt><trkpt lat="42.85248016231425" lon="12.886496774440003"><ele>775.3333333333334</ele><time>2026-04-18T09:58:15Z</time></trkpt><trkpt lat="42.85248993301405" lon="12.886370294314329"><ele>777.6666666666666</ele><time>2026-04-18T09:58:16Z</time></trkpt><trkpt lat="42.85250790641354" lon="12.886246303939402"><ele>780.0</ele><time>2026-04-18T09:58:17Z</time></trkpt><trkpt lat="42.852470443116715" lon="12.886142837708809"><ele>780.0</ele><time>2026-04-18T09:58:19Z</time></trkpt><trkpt lat="42.85236976133986" lon="12.886163607675561"><ele>780.0</ele><time>2026-04-18T09:58:21Z</time></trkpt><trkpt lat="42.85227875821454" lon="12.886115309663651"><ele>780.0</ele><time>2026-04-18T09:58:24.001Z</time></trkpt><trkpt lat="42.852179921680744" lon="12.886063783944806"><ele>780.0</ele><time>2026-04-18T09:58:26.001Z</time></trkpt><trkpt lat="42.8520913084548" lon="12.886018172435934"><ele>780.0</ele><time>2026-04-18T09:58:28.001Z</time></trkpt><trkpt lat="42.851991394192204" lon="12.886069834497862"><ele>780.0</ele><time>2026-04-18T09:58:30.001Z</time></trkpt><trkpt lat="42.85190606002327" lon="12.886046492319794"><ele>780.0</ele><time>2026-04-18T09:58:32.001Z</time></trkpt><trkpt lat="42.85182543097961" lon="12.88606145049349"><ele>780.0</ele><time>2026-04-18T09:58:34.001Z</time></trkpt><trkpt lat="42.85172892892809" lon="12.885973089352966"><ele>780.0</ele><time>2026-04-18T09:58:36.001Z</time></trkpt><trkpt lat="42.85159101936561" lon="12.885929790104484"><ele>780.0</ele><time>2026-04-18T09:58:38.001Z</time></trkpt><trkpt lat="42.85153058751879" lon="12.88587858605785"><ele>783.2</ele><time>2026-04-18T09:58:39.001Z</time></trkpt><trkpt lat="42.851406298134265" lon="12.885921187657464"><ele>786.4</ele><time>2026-04-18T09:58:41.001Z</time></trkpt><trkpt lat="42.85134332350747" lon="12.88596084177863"><ele>789.5999999999999</ele><time>2026-04-18T09:58:42.001Z</time></trkpt><trkpt lat="42.85120999935879" lon="12.885943703508133"><ele>792.8</ele><time>2026-04-18T09:58:44.001Z</time></trkpt><trkpt lat="42.85113189163201" lon="12.885929303231094"><ele>796.0</ele><time>2026-04-18T09:58:45.001Z</time></trkpt><trkpt lat="42.851055551702665" lon="12.885904776498217"><ele>795.9999999999999</ele><time>2026-04-18T09:58:47.001Z</time></trkpt><trkpt lat="42.85104078867302" lon="12.885780969487948"><ele>796.0</ele><time>2026-04-18T09:58:49Z</time></trkpt><trkpt lat="42.85100155560257" lon="12.885683648794432"><ele>796.0</ele><time>2026-04-18T09:58:50Z</time></trkpt><trkpt lat="42.85094798684911" lon="12.885622056466469"><ele>796.0</ele><time>2026-04-18T09:58:51Z</time></trkpt><trkpt lat="42.8508937129815" lon="12.885562444590047"><ele>795.9999999999999</ele><time>2026-04-18T09:58:52Z</time></trkpt><trkpt lat="42.850823240768136" lon="12.885488725334923"><ele>796.0</ele><time>2026-04-18T09:58:53Z</time></trkpt><trkpt lat="42.85077004232106" lon="12.885442722725479"><ele>799.1999999999999</ele><time>2026-04-18T09:58:54Z</time></trkpt><trkpt lat="42.850684538098484" lon="12.885442159322828"><ele>802.4</ele><time>2026-04-18T09:58:55Z</time></trkpt><trkpt lat="42.850604437811654" lon="12.885435757903231"><ele>805.6</ele><time>2026-04-18T09:58:56Z</time></trkpt><trkpt lat="42.85050174792711" lon="12.88541745849821"><ele>808.8</ele><time>2026-04-18T09:58:57Z</time></trkpt><trkpt lat="42.850413574849036" lon="12.885372061202496"><ele>812.0</ele><time>2026-04-18T09:58:58Z</time></trkpt><trkpt lat="42.850304380362815" lon="12.885292865058528"><ele>812.0</ele><time>2026-04-18T09:58:59Z</time></trkpt><trkpt lat="42.850212709075656" lon="12.885211365594044"><ele>812.0</ele><time>2026-04-18T09:59:00Z</time></trkpt><trkpt lat="42.85010590815569" lon="12.885102364257595"><ele>812.0</ele><time>2026-04-18T09:59:01Z</time></trkpt><trkpt lat="42.85001267361848" lon="12.884940791962313"><ele>812.0</ele><time>2026-04-18T09:59:02Z</time></trkpt><trkpt lat="42.849894114097395" lon="12.884786560307514"><ele>814.6</ele><time>2026-04-18T09:59:03Z</time></trkpt><trkpt lat="42.849838251655946" lon="12.884693582001535"><ele>817.2</ele><time>2026-04-18T09:59:04Z</time></trkpt><trkpt lat="42.84978478678903" lon="12.884587042271898"><ele>819.8</ele><time>2026-04-18T09:59:05Z</time></trkpt><trkpt lat="42.84971689344565" lon="12.884479234360247"><ele>822.4</ele><time>2026-04-18T09:59:06Z</time></trkpt><trkpt lat="42.84963741951955" lon="12.884339046211888"><ele>825.0</ele><time>2026-04-18T09:59:07Z</time></trkpt><trkpt lat="42.84958955965853" lon="12.884204701394907"><ele>826.2</ele><time>2026-04-18T09:59:08Z</time></trkpt><trkpt lat="42.84954944329273" lon="12.884135955202977"><ele>827.4</ele><time>2026-04-18T09:59:09Z</time></trkpt><trkpt lat="42.84953845416401" lon="12.884047100681514"><ele>828.5999999999999</ele><time>2026-04-18T09:59:10Z</time></trkpt><trkpt lat="42.84948857322757" lon="12.883885253403452"><ele>829.8</ele><time>2026-04-18T09:59:12Z</time></trkpt><trkpt lat="42.84941178307629" lon="12.88378183295531"><ele>831.0</ele><time>2026-04-18T09:59:13Z</time></trkpt><trkpt lat="42.84935594351243" lon="12.883632210010791"><ele>831.0</ele><time>2026-04-18T09:59:14Z</time></trkpt><trkpt lat="42.84929895944979" lon="12.883494842359294"><ele>831.0</ele><time>2026-04-18T09:59:15Z</time></trkpt><trkpt lat="42.84926083827631" lon="12.883394525809479"><ele>831.0</ele><time>2026-04-18T09:59:16Z</time></trkpt><trkpt lat="42.84921675615703" lon="12.883305872148366"><ele>831.0</ele><time>2026-04-18T09:59:17Z</time></trkpt><trkpt lat="42.84916563131471" lon="12.883194293131984"><ele>831.0</ele><time>2026-04-18T09:59:18Z</time></trkpt><trkpt lat="42.849165681491996" lon="12.883099378455622"><ele>831.0</ele><time>2026-04-18T09:59:19Z</time></trkpt><trkpt lat="42.84914146662317" lon="12.882962233679235"><ele>835.0</ele><time>2026-04-18T09:59:21Z</time></trkpt><trkpt lat="42.849147757253775" lon="12.882844923645191"><ele>839.0</ele><time>2026-04-18T09:59:23Z</time></trkpt><trkpt lat="42.84914696192155" lon="12.88274265847592"><ele>843.0</ele><time>2026-04-18T09:59:25Z</time></trkpt><trkpt lat="42.84911642688902" lon="12.882649631420772"><ele>847.0</ele><time>2026-04-18T09:59:26Z</time></trkpt><trkpt lat="42.84905028773343" lon="12.882586070577506"><ele>851.0</ele><time>2026-04-18T09:59:27Z</time></trkpt><trkpt lat="42.84894951359683" lon="12.882574867832323"><ele>855.0</ele><time>2026-04-18T09:59:29Z</time></trkpt><trkpt lat="42.848949528397746" lon="12.88245502281523"><ele>855.0</ele><time>2026-04-18T09:59:32Z</time></trkpt><trkpt lat="42.84894274182943" lon="12.88235261226704"><ele>855.0</ele><time>2026-04-18T09:59:33Z</time></trkpt><trkpt lat="42.84895278054537" lon="12.882261018749839"><ele>855.0</ele><time>2026-04-18T09:59:34Z</time></trkpt><trkpt lat="42.848916613241435" lon="12.882012167394388"><ele>855.0</ele><time>2026-04-18T09:59:36Z</time></trkpt><trkpt lat="42.84893587734526" lon="12.881905128755847"><ele>855.0</ele><time>2026-04-18T09:59:37Z</time></trkpt><trkpt lat="42.84892927531861" lon="12.881766658380183"><ele>857.6</ele><time>2026-04-18T09:59:38Z</time></trkpt><trkpt lat="42.848921584422364" lon="12.88167212129425"><ele>860.2</ele><time>2026-04-18T09:59:39Z</time></trkpt><trkpt lat="42.84891683948196" lon="12.881501651181917"><ele>862.8</ele><time>2026-04-18T09:59:41Z</time></trkpt><trkpt lat="42.84893726422517" lon="12.881348163377108"><ele>865.4</ele><time>2026-04-18T09:59:43Z</time></trkpt><trkpt lat="42.84895770752441" lon="12.881240625753122"><ele>868.0</ele><time>2026-04-18T09:59:44Z</time></trkpt><trkpt lat="42.8489710264983" lon="12.881122639021783"><ele>868.0</ele><time>2026-04-18T09:59:45Z</time></trkpt><trkpt lat="42.848994326136044" lon="12.880997660318304"><ele>868.0</ele><time>2026-04-18T09:59:46Z</time></trkpt><trkpt lat="42.84900646034529" lon="12.880885378456988"><ele>868.0</ele><time>2026-04-18T09:59:47Z</time></trkpt><trkpt lat="42.84896560613553" lon="12.880776020212318"><ele>868.0</ele><time>2026-04-18T09:59:49Z</time></trkpt><trkpt lat="42.84888647510348" lon="12.880657434140673"><ele>868.0</ele><time>2026-04-18T09:59:51Z</time></trkpt><trkpt lat="42.84880079217351" lon="12.880563963751012"><ele>871.0</ele><time>2026-04-18T09:59:53Z</time></trkpt><trkpt lat="42.848704191183025" lon="12.880524251748826"><ele>874.0</ele><time>2026-04-18T09:59:55Z</time></trkpt><trkpt lat="42.84868351366371" lon="12.880400703737374"><ele>877.0</ele><time>2026-04-18T09:59:57Z</time></trkpt><trkpt lat="42.84861767958938" lon="12.880298287887967"><ele>880.0</ele><time>2026-04-18T09:59:59Z</time></trkpt><trkpt lat="42.8485231894787" lon="12.880234128063817"><ele>883.0</ele><time>2026-04-18T10:00:01Z</time></trkpt><trkpt lat="42.84842666913352" lon="12.880128509208761"><ele>887.9999999999999</ele><time>2026-04-18T10:00:03Z</time></trkpt><trkpt lat="42.84837586752524" lon="12.880071284674916"><ele>893.0</ele><time>2026-04-18T10:00:04Z</time></trkpt><trkpt lat="42.84834521464408" lon="12.879988161455431"><ele>898.0</ele><time>2026-04-18T10:00:05Z</time></trkpt><trkpt lat="42.84826397647418" lon="12.879872141673358"><ele>903.0</ele><time>2026-04-18T10:00:07Z</time></trkpt><trkpt lat="42.84820982509581" lon="12.879820199288257"><ele>907.9999999999999</ele><time>2026-04-18T10:00:08Z</time></trkpt><trkpt lat="42.84814566411678" lon="12.879795926145562"><ele>913.0</ele><time>2026-04-18T10:00:09Z</time></trkpt><trkpt lat="42.84804547381588" lon="12.87975864275422"><ele>913.0</ele><time>2026-04-18T10:00:11Z</time></trkpt><trkpt lat="42.84797308723826" lon="12.879656187257421"><ele>913.0</ele><time>2026-04-18T10:00:13Z</time></trkpt><trkpt lat="42.84788100932254" lon="12.879586699868586"><ele>913.0</ele><time>2026-04-18T10:00:15Z</time></trkpt><trkpt lat="42.84779848480771" lon="12.879473851447205"><ele>913.0</ele><time>2026-04-18T10:00:17Z</time></trkpt><trkpt lat="42.84774754489706" lon="12.879350627445326"><ele>913.0</ele><time>2026-04-18T10:00:19Z</time></trkpt><trkpt lat="42.847722907275774" lon="12.879267926519294"><ele>915.1666666666666</ele><time>2026-04-18T10:00:20Z</time></trkpt><trkpt lat="42.847703988134626" lon="12.879178585345759"><ele>917.3333333333333</ele><time>2026-04-18T10:00:21Z</time></trkpt><trkpt lat="42.84765674219269" lon="12.879105721152555"><ele>919.5</ele><time>2026-04-18T10:00:22Z</time></trkpt><trkpt lat="42.847595119958065" lon="12.8790365606804"><ele>921.6666666666667</ele><time>2026-04-18T10:00:23Z</time></trkpt><trkpt lat="42.847509117221996" lon="12.878999830722103"><ele>923.8333333333334</ele><time>2026-04-18T10:00:24Z</time></trkpt><trkpt lat="42.84742199797183" lon="12.879006685048164"><ele>926.0</ele><time>2026-04-18T10:00:25Z</time></trkpt><trkpt lat="42.847357811858316" lon="12.879012091094241"><ele>928.1999999999999</ele><time>2026-04-18T10:00:26Z</time></trkpt><trkpt lat="42.8472769936518" lon="12.87887026896416"><ele>930.3999999999999</ele><time>2026-04-18T10:00:28.001Z</time></trkpt><trkpt lat="42.84722134497493" lon="12.878815251454647"><ele>932.6</ele><time>2026-04-18T10:00:29.001Z</time></trkpt><trkpt lat="42.84719481215904" lon="12.878715692395517"><ele>934.8</ele><time>2026-04-18T10:00:30.001Z</time></trkpt><trkpt lat="42.847145670317026" lon="12.878605773059768"><ele>937.0</ele><time>2026-04-18T10:00:31.001Z</time></trkpt><trkpt lat="42.847080708939714" lon="12.878524912329397"><ele>936.9999999999999</ele><time>2026-04-18T10:00:32.001Z</time></trkpt><trkpt lat="42.847001597336" lon="12.878486825176914"><ele>937.0</ele><time>2026-04-18T10:00:33.001Z</time></trkpt><trkpt lat="42.84690550340358" lon="12.878455064405923"><ele>937.0</ele><time>2026-04-18T10:00:34.001Z</time></trkpt><trkpt lat="42.84683521864921" lon="12.87838938330508"><ele>937.0</ele><time>2026-04-18T10:00:35.001Z</time></trkpt><trkpt lat="42.84676353372173" lon="12.878362542832118"><ele>936.9999999999999</ele><time>2026-04-18T10:00:37.001Z</time></trkpt><trkpt lat="42.84675432483014" lon="12.878464029138566"><ele>937.0</ele><time>2026-04-18T10:01:17Z</time></trkpt><trkpt lat="42.84680948052523" lon="12.878615111976831"><ele>937.0</ele><time>2026-04-18T10:01:20Z</time></trkpt><trkpt lat="42.846880649940715" lon="12.878800071885035"><ele>937.0</ele><time>2026-04-18T10:01:22Z</time></trkpt><trkpt lat="42.84692798961081" lon="12.87893067520369"><ele>937.0</ele><time>2026-04-18T10:01:23Z</time></trkpt><trkpt lat="42.84695908262873" lon="12.879052185067472"><ele>937.0</ele><time>2026-04-18T10:01:24Z</time></trkpt><trkpt lat="42.84697312353583" lon="12.879181070474852"><ele>940.0</ele><time>2026-04-18T10:01:25Z</time></trkpt><trkpt lat="42.846987915469064" lon="12.879301499543065"><ele>943.0</ele><time>2026-04-18T10:01:26Z</time></trkpt><trkpt lat="42.8470131734455" lon="12.879405407303617"><ele>946.0</ele><time>2026-04-18T10:01:27Z</time></trkpt><trkpt lat="42.84705097412413" lon="12.879515164174903"><ele>949.0</ele><time>2026-04-18T10:01:28Z</time></trkpt><trkpt lat="42.8470887918647" lon="12.879642595688336"><ele>952.0</ele><time>2026-04-18T10:01:29Z</time></trkpt><trkpt lat="42.84711528278986" lon="12.879776157812294"><ele>952.0</ele><time>2026-04-18T10:01:30Z</time></trkpt><trkpt lat="42.84715322350708" lon="12.879893999155625"><ele>952.0</ele><time>2026-04-18T10:01:31Z</time></trkpt><trkpt lat="42.847189298369564" lon="12.880008353432055"><ele>952.0</ele><time>2026-04-18T10:01:32Z</time></trkpt><trkpt lat="42.847234215373106" lon="12.880127433971168"><ele>952.0</ele><time>2026-04-18T10:01:33Z</time></trkpt><trkpt lat="42.847292421150975" lon="12.880215058315905"><ele>952.0</ele><time>2026-04-18T10:01:34Z</time></trkpt><trkpt lat="42.84736433798637" lon="12.880335169562946"><ele>953.9999999999999</ele><time>2026-04-18T10:01:35Z</time></trkpt><trkpt lat="42.84738239463503" lon="12.880440109459007"><ele>956.0</ele><time>2026-04-18T10:01:36Z</time></trkpt><trkpt lat="42.84739430050214" lon="12.880527051833118"><ele>958.0</ele><time>2026-04-18T10:01:37Z</time></trkpt><trkpt lat="42.84746727342811" lon="12.8806353700944"><ele>960.0</ele><time>2026-04-18T10:01:39Z</time></trkpt><trkpt lat="42.84746512272165" lon="12.880737193080884"><ele>961.9999999999999</ele><time>2026-04-18T10:01:42Z</time></trkpt><trkpt lat="42.84739825082036" lon="12.880844165211002"><ele>964.0</ele><time>2026-04-18T10:01:44Z</time></trkpt><trkpt lat="42.84729880505252" lon="12.880913643005282"><ele>963.0</ele><time>2026-04-18T10:01:46Z</time></trkpt><trkpt lat="42.84722845692316" lon="12.880953305300258"><ele>962.0000000000001</ele><time>2026-04-18T10:01:47Z</time></trkpt><trkpt lat="42.847135863534" lon="12.881009851639678"><ele>961.0000000000001</ele><time>2026-04-18T10:01:49Z</time></trkpt><trkpt lat="42.84706855651988" lon="12.881112076369684"><ele>960.0</ele><time>2026-04-18T10:01:50Z</time></trkpt><trkpt lat="42.84701078377681" lon="12.88123695476805"><ele>959.0</ele><time>2026-04-18T10:01:51Z</time></trkpt><trkpt lat="42.846958730029996" lon="12.881345511974585"><ele>959.0000000000001</ele><time>2026-04-18T10:01:52Z</time></trkpt><trkpt lat="42.846885665981425" lon="12.881419963666604"><ele>959.0</ele><time>2026-04-18T10:01:53Z</time></trkpt><trkpt lat="42.84681148303462" lon="12.88147162965587"><ele>959.0</ele><time>2026-04-18T10:01:54Z</time></trkpt><trkpt lat="42.84673610606238" lon="12.8815070359163"><ele>959.0</ele><time>2026-04-18T10:01:55Z</time></trkpt><trkpt lat="42.846686551315685" lon="12.881644324796332"><ele>959.0000000000001</ele><time>2026-04-18T10:01:57Z</time></trkpt><trkpt lat="42.846688413581795" lon="12.881753266044193"><ele>959.0</ele><time>2026-04-18T10:01:58Z</time></trkpt><trkpt lat="42.84664660980952" lon="12.881845403113838"><ele>965.0000000000001</ele><time>2026-04-18T10:01:59Z</time></trkpt><trkpt lat="42.84661729063431" lon="12.881933820166148"><ele>971.0</ele><time>2026-04-18T10:02:00Z</time></trkpt><trkpt lat="42.84663725752901" lon="12.882033987660588"><ele>977.0</ele><time>2026-04-18T10:02:01Z</time></trkpt><trkpt lat="42.846663979155764" lon="12.882131085703657"><ele>983.0</ele><time>2026-04-18T10:02:02Z</time></trkpt><trkpt lat="42.84665735681431" lon="12.882267027776246"><ele>989.0000000000001</ele><time>2026-04-18T10:02:04Z</time></trkpt><trkpt lat="42.84661695532388" lon="12.882393113966003"><ele>995.0</ele><time>2026-04-18T10:02:06Z</time></trkpt><trkpt lat="42.8465065603021" lon="12.88251698133887"><ele>992.25</ele><time>2026-04-18T10:02:08Z</time></trkpt><trkpt lat="42.846400338982356" lon="12.882665912013989"><ele>989.5</ele><time>2026-04-18T10:02:09Z</time></trkpt><trkpt lat="42.84627223670386" lon="12.882717871805653"><ele>986.75</ele><time>2026-04-18T10:02:10Z</time></trkpt><trkpt lat="42.846160746362756" lon="12.882759845239123"><ele>984.0</ele><time>2026-04-18T10:02:11Z</time></trkpt><trkpt lat="42.84604971441553" lon="12.882765255061013"><ele>987.6</ele><time>2026-04-18T10:02:12Z</time></trkpt><trkpt lat="42.845929042229585" lon="12.882726009011483"><ele>991.2</ele><time>2026-04-18T10:02:13Z</time></trkpt><trkpt lat="42.84580391315711" lon="12.882691589998078"><ele>994.8000000000001</ele><time>2026-04-18T10:02:14Z</time></trkpt><trkpt lat="42.84570601062278" lon="12.882693773465991"><ele>998.4000000000001</ele><time>2026-04-18T10:02:15Z</time></trkpt><trkpt lat="42.845627616803554" lon="12.882641714961235"><ele>1002.0</ele><time>2026-04-18T10:02:17Z</time></trkpt><trkpt lat="42.84561383603421" lon="12.882476790513744"><ele>1004.2</ele><time>2026-04-18T10:02:19Z</time></trkpt><trkpt lat="42.84553533873385" lon="12.88238865317074"><ele>1006.4000000000001</ele><time>2026-04-18T10:02:21Z</time></trkpt><trkpt lat="42.84546284736146" lon="12.882374539610606"><ele>1008.5999999999999</ele><time>2026-04-18T10:02:22Z</time></trkpt><trkpt lat="42.84545158087123" lon="12.882235911367262"><ele>1010.8</ele><time>2026-04-18T10:02:25Z</time></trkpt><trkpt lat="42.845495072529324" lon="12.88212920601144"><ele>1013.0</ele><time>2026-04-18T10:02:26Z</time></trkpt><trkpt lat="42.84553771354209" lon="12.881985231301732"><ele>1013.0</ele><time>2026-04-18T10:02:27Z</time></trkpt><trkpt lat="42.84558523954877" lon="12.88182566815518"><ele>1013.0</ele><time>2026-04-18T10:02:28Z</time></trkpt><trkpt lat="42.84562817234091" lon="12.881636660481938"><ele>1013.0</ele><time>2026-04-18T10:02:29Z</time></trkpt><trkpt lat="42.84564720919442" lon="12.881422685446612"><ele>1013.0</ele><time>2026-04-18T10:02:30Z</time></trkpt><trkpt lat="42.84571891279686" lon="12.881248629875637"><ele>1014.2</ele><time>2026-04-18T10:02:31Z</time></trkpt><trkpt lat="42.84578788851114" lon="12.881085290871244"><ele>1015.4</ele><time>2026-04-18T10:02:32Z</time></trkpt><trkpt lat="42.845855070754986" lon="12.88095472396849"><ele>1016.6000000000001</ele><time>2026-04-18T10:02:33Z</time></trkpt><trkpt lat="42.84591559715127" lon="12.880853606746184"><ele>1017.8000000000001</ele><time>2026-04-18T10:02:34.001Z</time></trkpt><trkpt lat="42.845991677725564" lon="12.880776174782666"><ele>1019.0</ele><time>2026-04-18T10:02:35.001Z</time></trkpt><trkpt lat="42.84607513924848" lon="12.88071683212464"><ele>1016.4000000000001</ele><time>2026-04-18T10:02:36.001Z</time></trkpt><trkpt lat="42.84614196617607" lon="12.88066940357998"><ele>1013.8000000000001</ele><time>2026-04-18T10:02:37.001Z</time></trkpt><trkpt lat="42.84620474190542" lon="12.880572669329759"><ele>1011.1999999999999</ele><time>2026-04-18T10:02:38.001Z</time></trkpt><trkpt lat="42.84625398697425" lon="12.880428615470631"><ele>1008.5999999999999</ele><time>2026-04-18T10:02:39.001Z</time></trkpt><trkpt lat="42.8463066496861" lon="12.880260099843145"><ele>1006.0</ele><time>2026-04-18T10:02:40.001Z</time></trkpt><trkpt lat="42.846351694449986" lon="12.880121212810787"><ele>1004.5</ele><time>2026-04-18T10:02:41.001Z</time></trkpt><trkpt lat="42.84637356350644" lon="12.880002016174114"><ele>1003.0</ele><time>2026-04-18T10:02:42.001Z</time></trkpt><trkpt lat="42.846358098587785" lon="12.879898357638965"><ele>1001.5</ele><time>2026-04-18T10:02:43.001Z</time></trkpt><trkpt lat="42.846320770796304" lon="12.879739098401425"><ele>1000.0</ele><time>2026-04-18T10:02:44.001Z</time></trkpt><trkpt lat="42.84625713115137" lon="12.879536474518298"><ele>1000.0</ele><time>2026-04-18T10:02:45.001Z</time></trkpt><trkpt lat="42.84615852011301" lon="12.879381552523206"><ele>1000.0</ele><time>2026-04-18T10:02:46.001Z</time></trkpt><trkpt lat="42.846073347273105" lon="12.879245558891101"><ele>1000.0</ele><time>2026-04-18T10:02:47.001Z</time></trkpt><trkpt lat="42.84596152805303" lon="12.879051240284427"><ele>1011.0</ele><time>2026-04-18T10:02:48.001Z</time></trkpt><trkpt lat="42.845842790302584" lon="12.878872766420379"><ele>1022.0</ele><time>2026-04-18T10:02:49.001Z</time></trkpt><trkpt lat="42.845761849661095" lon="12.878699304515642"><ele>1033.0</ele><time>2026-04-18T10:02:50.001Z</time></trkpt><trkpt lat="42.84568759145412" lon="12.87852601368093"><ele>1024.3333333333333</ele><time>2026-04-18T10:02:51.001Z</time></trkpt><trkpt lat="42.84556196737383" lon="12.87838278308435"><ele>1015.6666666666667</ele><time>2026-04-18T10:02:52.001Z</time></trkpt><trkpt lat="42.845449844467865" lon="12.878238892923163"><ele>1007.0</ele><time>2026-04-18T10:02:53.001Z</time></trkpt><trkpt lat="42.845341232657084" lon="12.878078198636958"><ele>1007.0</ele><time>2026-04-18T10:02:54.001Z</time></trkpt><trkpt lat="42.84523902469451" lon="12.877898289442067"><ele>1007.0</ele><time>2026-04-18T10:02:55.001Z</time></trkpt><trkpt lat="42.84514340196462" lon="12.87775467460567"><ele>1007.0</ele><time>2026-04-18T10:02:56.001Z</time></trkpt><trkpt lat="42.845048285356526" lon="12.877583863938169"><ele>1014.3333333333334</ele><time>2026-04-18T10:02:57.001Z</time></trkpt><trkpt lat="42.84495720089928" lon="12.877421010198251"><ele>1021.6666666666667</ele><time>2026-04-18T10:02:58.001Z</time></trkpt><trkpt lat="42.844860042268515" lon="12.877246355331799"><ele>1029.0</ele><time>2026-04-18T10:02:59.001Z</time></trkpt><trkpt lat="42.84476146604472" lon="12.877087463917485"><ele>1029.0</ele><time>2026-04-18T10:03:00.001Z</time></trkpt><trkpt lat="42.84465819708987" lon="12.876937635300083"><ele>1029.0</ele><time>2026-04-18T10:03:01.001Z</time></trkpt><trkpt lat="42.84454348547023" lon="12.876791941807365"><ele>1029.0</ele><time>2026-04-18T10:03:02.001Z</time></trkpt><trkpt lat="42.844436505209465" lon="12.876657510038523"><ele>1024.0</ele><time>2026-04-18T10:03:03.001Z</time></trkpt><trkpt lat="42.84434663254661" lon="12.876512250760413"><ele>1019.0</ele><time>2026-04-18T10:03:04.001Z</time></trkpt><trkpt lat="42.844262393364225" lon="12.876345875725498"><ele>1014.0</ele><time>2026-04-18T10:03:05.001Z</time></trkpt><trkpt lat="42.844180255709645" lon="12.876194552918616"><ele>1009.0</ele><time>2026-04-18T10:03:06.001Z</time></trkpt><trkpt lat="42.84410486922499" lon="12.876043582733384"><ele>1015.0</ele><time>2026-04-18T10:03:07.001Z</time></trkpt><trkpt lat="42.84401656951058" lon="12.875891444262882"><ele>1021.0</ele><time>2026-04-18T10:03:08Z</time></trkpt><trkpt lat="42.84394197124321" lon="12.875723621325172"><ele>1027.0</ele><time>2026-04-18T10:03:09Z</time></trkpt><trkpt lat="42.84390172736733" lon="12.875559965400209"><ele>1033.0</ele><time>2026-04-18T10:03:10Z</time></trkpt><trkpt lat="42.84383623128962" lon="12.875368587797588"><ele>1033.0</ele><time>2026-04-18T10:03:11Z</time></trkpt><trkpt lat="42.84375762381774" lon="12.875207556304094"><ele>1033.0</ele><time>2026-04-18T10:03:12Z</time></trkpt><trkpt lat="42.84368965718849" lon="12.875064452277018"><ele>1033.0</ele><time>2026-04-18T10:03:13Z</time></trkpt><trkpt lat="42.84363881386414" lon="12.874928470505134"><ele>1033.0</ele><time>2026-04-18T10:03:14Z</time></trkpt><trkpt lat="42.84358532192674" lon="12.874789020155301"><ele>1032.0</ele><time>2026-04-18T10:03:14.999Z</time></trkpt><trkpt lat="42.84354053222555" lon="12.874642209002966"><ele>1031.0</ele><time>2026-04-18T10:03:15.999Z</time></trkpt><trkpt lat="42.84348515283539" lon="12.87449567499064"><ele>1030.0</ele><time>2026-04-18T10:03:16.999Z</time></trkpt><trkpt lat="42.84342600778742" lon="12.874347716077244"><ele>1029.0</ele><time>2026-04-18T10:03:17.999Z</time></trkpt><trkpt lat="42.8433503600469" lon="12.874202679989239"><ele>1036.5</ele><time>2026-04-18T10:03:18.999Z</time></trkpt><trkpt lat="42.84327903949148" lon="12.874069553759371"><ele>1044.0</ele><time>2026-04-18T10:03:19.999Z</time></trkpt><trkpt lat="42.84319795120078" lon="12.873937829989089"><ele>1051.5</ele><time>2026-04-18T10:03:20.999Z</time></trkpt><trkpt lat="42.84312070268954" lon="12.873841558771396"><ele>1059.0</ele><time>2026-04-18T10:03:21.999Z</time></trkpt><trkpt lat="42.843031479316295" lon="12.873748221499394"><ele>1059.0</ele><time>2026-04-18T10:03:22.999Z</time></trkpt><trkpt lat="42.84296911027969" lon="12.87364521185426"><ele>1059.0</ele><time>2026-04-18T10:03:23.999Z</time></trkpt><trkpt lat="42.84294854679193" lon="12.873519896199294"><ele>1059.0</ele><time>2026-04-18T10:03:24.999Z</time></trkpt><trkpt lat="42.842923709964246" lon="12.873299097962361"><ele>1059.0</ele><time>2026-04-18T10:03:25.999Z</time></trkpt><trkpt lat="42.842871718821115" lon="12.87311477867978"><ele>1057.0</ele><time>2026-04-18T10:03:26.999Z</time></trkpt><trkpt lat="42.84280910027109" lon="12.87295394654374"><ele>1055.0</ele><time>2026-04-18T10:03:27.999Z</time></trkpt><trkpt lat="42.84272106194735" lon="12.872798352411015"><ele>1053.0</ele><time>2026-04-18T10:03:28.999Z</time></trkpt><trkpt lat="42.8426415064524" lon="12.872669465440405"><ele>1051.0</ele><time>2026-04-18T10:03:29.999Z</time></trkpt><trkpt lat="42.842580814142686" lon="12.87254739538867"><ele>1059.3999999999999</ele><time>2026-04-18T10:03:30.999Z</time></trkpt><trkpt lat="42.842544054278655" lon="12.87244113169998"><ele>1067.8</ele><time>2026-04-18T10:03:31.999Z</time></trkpt><trkpt lat="42.84253790908827" lon="12.87232454506406"><ele>1076.1999999999998</ele><time>2026-04-18T10:03:32.999Z</time></trkpt><trkpt lat="42.84253357273087" lon="12.872147488690848"><ele>1084.6</ele><time>2026-04-18T10:03:33.999Z</time></trkpt><trkpt lat="42.842529391431135" lon="12.871954578802749"><ele>1093.0</ele><time>2026-04-18T10:03:34.999Z</time></trkpt><trkpt lat="42.8425525045891" lon="12.871749170172397"><ele>1093.0</ele><time>2026-04-18T10:03:35.999Z</time></trkpt><trkpt lat="42.8425720182367" lon="12.871553946023214"><ele>1093.0</ele><time>2026-04-18T10:03:36.999Z</time></trkpt><trkpt lat="42.84261285801947" lon="12.871364168837093"><ele>1093.0</ele><time>2026-04-18T10:03:37.999Z</time></trkpt><trkpt lat="42.84264797748468" lon="12.871198999056334"><ele>1093.0</ele><time>2026-04-18T10:03:38.999Z</time></trkpt><trkpt lat="42.84266821248817" lon="12.871020750876287"><ele>1089.0</ele><time>2026-04-18T10:03:39.999Z</time></trkpt><trkpt lat="42.8426954857823" lon="12.870872809380003"><ele>1085.0</ele><time>2026-04-18T10:03:40.999Z</time></trkpt><trkpt lat="42.842735733971544" lon="12.870734382967948"><ele>1081.0</ele><time>2026-04-18T10:03:41.999Z</time></trkpt><trkpt lat="42.84278463301375" lon="12.870589844388952"><ele>1077.0</ele><time>2026-04-18T10:03:42.999Z</time></trkpt><trkpt lat="42.84284253745468" lon="12.870440826068537"><ele>1077.0</ele><time>2026-04-18T10:03:43.999Z</time></trkpt><trkpt lat="42.84288197838858" lon="12.870301911582077"><ele>1077.0</ele><time>2026-04-18T10:03:44.999Z</time></trkpt><trkpt lat="42.84295068914931" lon="12.870166417772698"><ele>1077.0</ele><time>2026-04-18T10:03:45.999Z</time></trkpt><trkpt lat="42.84304178162346" lon="12.870063048389184"><ele>1077.0</ele><time>2026-04-18T10:03:46.999Z</time></trkpt><trkpt lat="42.843121745181676" lon="12.869947403766204"><ele>1078.2</ele><time>2026-04-18T10:03:47.999Z</time></trkpt><trkpt lat="42.84319835081707" lon="12.869873045080526"><ele>1079.4</ele><time>2026-04-18T10:03:48.999Z</time></trkpt><trkpt lat="42.84327542500651" lon="12.869795808705977"><ele>1080.6</ele><time>2026-04-18T10:03:49.999Z</time></trkpt><trkpt lat="42.843334990525726" lon="12.869708234450302"><ele>1081.8</ele><time>2026-04-18T10:03:50.999Z</time></trkpt><trkpt lat="42.84339985196127" lon="12.869570744976532"><ele>1083.0</ele><time>2026-04-18T10:03:51.999Z</time></trkpt><trkpt lat="42.84344964454708" lon="12.869445189450026"><ele>1083.0</ele><time>2026-04-18T10:03:52.999Z</time></trkpt><trkpt lat="42.843437893419235" lon="12.869302478100009"><ele>1083.0</ele><time>2026-04-18T10:03:53.999Z</time></trkpt><trkpt lat="42.84348269682509" lon="12.869209470236946"><ele>1083.0</ele><time>2026-04-18T10:03:54.999Z</time></trkpt><trkpt lat="42.843515394809124" lon="12.869101198124376"><ele>1083.0</ele><time>2026-04-18T10:03:55.999Z</time></trkpt><trkpt lat="42.843583894553284" lon="12.869041804729731"><ele>1083.0</ele><time>2026-04-18T10:03:56.999Z</time></trkpt><trkpt lat="42.84361216609186" lon="12.868905789660348"><ele>1086.25</ele><time>2026-04-18T10:03:57.999Z</time></trkpt><trkpt lat="42.84364996578611" lon="12.8687657436068"><ele>1089.5</ele><time>2026-04-18T10:03:58.999Z</time></trkpt><trkpt lat="42.84372523948793" lon="12.868646296013317"><ele>1092.75</ele><time>2026-04-18T10:03:59.999Z</time></trkpt><trkpt lat="42.843850972408426" lon="12.868535555210608"><ele>1096.0</ele><time>2026-04-18T10:04:00.999Z</time></trkpt><trkpt lat="42.84397051081159" lon="12.868448862824678"><ele>1096.0</ele><time>2026-04-18T10:04:01.999Z</time></trkpt><trkpt lat="42.84405105352113" lon="12.868406364063222"><ele>1096.0</ele><time>2026-04-18T10:04:02.999Z</time></trkpt><trkpt lat="42.84411408619813" lon="12.868342192280616"><ele>1096.0</ele><time>2026-04-18T10:04:03.999Z</time></trkpt><trkpt lat="42.84418291298216" lon="12.868227297040448"><ele>1096.0</ele><time>2026-04-18T10:04:04.999Z</time></trkpt><trkpt lat="42.84426143666409" lon="12.8680996778684"><ele>1096.0</ele><time>2026-04-18T10:04:05.999Z</time></trkpt><trkpt lat="42.84435805186319" lon="12.867990436369057"><ele>1097.3999999999999</ele><time>2026-04-18T10:04:06.999Z</time></trkpt><trkpt lat="42.844462595315164" lon="12.867903620690006"><ele>1098.8</ele><time>2026-04-18T10:04:07.999Z</time></trkpt><trkpt lat="42.8445627737755" lon="12.867838107383095"><ele>1100.1999999999998</ele><time>2026-04-18T10:04:08.999Z</time></trkpt><trkpt lat="42.84465916007704" lon="12.867782577512154"><ele>1101.6</ele><time>2026-04-18T10:04:09.999Z</time></trkpt><trkpt lat="42.84474432508741" lon="12.867702525165974"><ele>1103.0</ele><time>2026-04-18T10:04:10.999Z</time></trkpt><trkpt lat="42.84478570891887" lon="12.86762630627232"><ele>1102.5</ele><time>2026-04-18T10:04:11.999Z</time></trkpt><trkpt lat="42.84481116168663" lon="12.867542191558442"><ele>1102.0</ele><time>2026-04-18T10:04:12.999Z</time></trkpt><trkpt lat="42.84481358996496" lon="12.867443686504467"><ele>1101.5</ele><time>2026-04-18T10:04:13.999Z</time></trkpt><trkpt lat="42.84477965741635" lon="12.867332086474006"><ele>1101.0</ele><time>2026-04-18T10:04:14.999Z</time></trkpt><trkpt lat="42.84472643311548" lon="12.867209745378121"><ele>1100.5</ele><time>2026-04-18T10:04:15.999Z</time></trkpt><trkpt lat="42.84467653288567" lon="12.867083277118486"><ele>1100.0</ele><time>2026-04-18T10:04:16.999Z</time></trkpt><trkpt lat="42.84463536156543" lon="12.866975747910443"><ele>1100.0</ele><time>2026-04-18T10:04:17.999Z</time></trkpt><trkpt lat="42.84459054778173" lon="12.866868657475328"><ele>1100.0</ele><time>2026-04-18T10:04:19.999Z</time></trkpt><trkpt lat="42.84460402210433" lon="12.866769809264552"><ele>1100.0</ele><time>2026-04-18T10:04:22.999Z</time></trkpt><trkpt lat="42.844574323191125" lon="12.866657718585365"><ele>1100.0</ele><time>2026-04-18T10:04:25.999Z</time></trkpt><trkpt lat="42.844530694835576" lon="12.866556023146424"><ele>1100.0</ele><time>2026-04-18T10:04:27.999Z</time></trkpt><trkpt lat="42.844485919665544" lon="12.866457069221848"><ele>1100.0</ele><time>2026-04-18T10:04:29.999Z</time></trkpt><trkpt lat="42.844451478141025" lon="12.866357230216126"><ele>1101.2</ele><time>2026-04-18T10:04:31.999Z</time></trkpt><trkpt lat="42.84440987362877" lon="12.866262003444882"><ele>1102.4</ele><time>2026-04-18T10:04:32.999Z</time></trkpt><trkpt lat="42.84434745773641" lon="12.866148997787576"><ele>1103.6</ele><time>2026-04-18T10:04:33.999Z</time></trkpt><trkpt lat="42.84427642014452" lon="12.866031101041928"><ele>1104.8</ele><time>2026-04-18T10:04:34.999Z</time></trkpt><trkpt lat="42.84418410159388" lon="12.865900467988812"><ele>1106.0</ele><time>2026-04-18T10:04:35.999Z</time></trkpt><trkpt lat="42.84410026758091" lon="12.86575479218821"><ele>1108.25</ele><time>2026-04-18T10:04:36.999Z</time></trkpt><trkpt lat="42.844029999673154" lon="12.86559207966012"><ele>1110.5</ele><time>2026-04-18T10:04:37.999Z</time></trkpt><trkpt lat="42.84397476746595" lon="12.865430070017462"><ele>1112.75</ele><time>2026-04-18T10:04:38.999Z</time></trkpt><trkpt lat="42.84393291356933" lon="12.865256001756695"><ele>1115.0</ele><time>2026-04-18T10:04:40Z</time></trkpt><trkpt lat="42.84387933153387" lon="12.86508215755226"><ele>1115.6</ele><time>2026-04-18T10:04:41Z</time></trkpt><trkpt lat="42.84381843101073" lon="12.864912251379764"><ele>1116.2</ele><time>2026-04-18T10:04:42Z</time></trkpt><trkpt lat="42.843756420525175" lon="12.864775144770078"><ele>1116.8</ele><time>2026-04-18T10:04:43Z</time></trkpt><trkpt lat="42.84369839178019" lon="12.864686757674095"><ele>1117.4</ele><time>2026-04-18T10:04:44Z</time></trkpt><trkpt lat="42.84362184339022" lon="12.864618781618926"><ele>1118.0</ele><time>2026-04-18T10:04:45Z</time></trkpt><trkpt lat="42.84352006342046" lon="12.864535534172726"><ele>1119.8</ele><time>2026-04-18T10:04:46Z</time></trkpt><trkpt lat="42.84342778616333" lon="12.864492071200944"><ele>1121.6</ele><time>2026-04-18T10:04:47Z</time></trkpt><trkpt lat="42.84333864734916" lon="12.864485532599376"><ele>1123.4</ele><time>2026-04-18T10:04:48Z</time></trkpt><trkpt lat="42.84325249979552" lon="12.864498587522192"><ele>1125.2</ele><time>2026-04-18T10:04:49Z</time></trkpt><trkpt lat="42.84315031274891" lon="12.864505381616747"><ele>1127.0</ele><time>2026-04-18T10:04:50Z</time></trkpt><trkpt lat="42.84306829226283" lon="12.864491651891504"><ele>1127.0</ele><time>2026-04-18T10:04:51Z</time></trkpt><trkpt lat="42.84297568504256" lon="12.8645070069137"><ele>1127.0</ele><time>2026-04-18T10:04:52Z</time></trkpt><trkpt lat="42.84285444888367" lon="12.864546673007263"><ele>1127.0</ele><time>2026-04-18T10:04:53Z</time></trkpt><trkpt lat="42.84273083393873" lon="12.864548762021206"><ele>1127.0</ele><time>2026-04-18T10:04:54Z</time></trkpt><trkpt lat="42.84264819932222" lon="12.864537483210553"><ele>1127.0</ele><time>2026-04-18T10:04:55Z</time></trkpt><trkpt lat="42.842582507827146" lon="12.864457060173745"><ele>1129.0</ele><time>2026-04-18T10:04:56Z</time></trkpt><trkpt lat="42.842532202054876" lon="12.864326080641392"><ele>1131.0</ele><time>2026-04-18T10:04:57Z</time></trkpt><trkpt lat="42.842504103800366" lon="12.86416907309148"><ele>1133.0</ele><time>2026-04-18T10:04:58Z</time></trkpt><trkpt lat="42.84244249722969" lon="12.863984104660629"><ele>1135.0</ele><time>2026-04-18T10:04:59Z</time></trkpt><trkpt lat="42.842377836091934" lon="12.863842037861705"><ele>1135.0</ele><time>2026-04-18T10:05:00Z</time></trkpt><trkpt lat="42.84232131435783" lon="12.863742728309594"><ele>1135.0</ele><time>2026-04-18T10:05:01Z</time></trkpt><trkpt lat="42.84225394108407" lon="12.863646130692581"><ele>1135.0</ele><time>2026-04-18T10:05:02Z</time></trkpt><trkpt lat="42.84219742176834" lon="12.863564861936041"><ele>1135.0</ele><time>2026-04-18T10:05:03Z</time></trkpt><trkpt lat="42.8421564046844" lon="12.863293819872007"><ele>1135.6</ele><time>2026-04-18T10:05:04Z</time></trkpt><trkpt lat="42.842123705956325" lon="12.863194136543804"><ele>1136.2</ele><time>2026-04-18T10:05:05Z</time></trkpt><trkpt lat="42.84201358317466" lon="12.863208234284908"><ele>1136.8</ele><time>2026-04-18T10:05:07Z</time></trkpt><trkpt lat="42.84192432677716" lon="12.863288124073465"><ele>1137.4</ele><time>2026-04-18T10:05:08Z</time></trkpt><trkpt lat="42.84183170265297" lon="12.863393925523672"><ele>1138.0</ele><time>2026-04-18T10:05:09Z</time></trkpt><trkpt lat="42.84173260287636" lon="12.863494103770982"><ele>1139.0</ele><time>2026-04-18T10:05:10Z</time></trkpt><trkpt lat="42.84161412574485" lon="12.863501296012279"><ele>1140.0</ele><time>2026-04-18T10:05:11Z</time></trkpt><trkpt lat="42.84152406110702" lon="12.863461172569696"><ele>1141.0</ele><time>2026-04-18T10:05:12Z</time></trkpt><trkpt lat="42.84151817219929" lon="12.863334132310374"><ele>1142.0</ele><time>2026-04-18T10:05:14Z</time></trkpt><trkpt lat="42.84159244786436" lon="12.86321648068972"><ele>1143.0</ele><time>2026-04-18T10:05:16Z</time></trkpt><trkpt lat="42.84162737641383" lon="12.863136851261874"><ele>1143.5</ele><time>2026-04-18T10:05:18Z</time></trkpt><trkpt lat="42.841668966687195" lon="12.863051829045268"><ele>1144.0</ele><time>2026-04-18T10:05:20Z</time></trkpt><trkpt lat="42.84172513174852" lon="12.862922079798945"><ele>1144.5</ele><time>2026-04-18T10:05:22Z</time></trkpt><trkpt lat="42.84175263423134" lon="12.862839658137057"><ele>1145.0</ele><time>2026-04-18T10:05:22.999Z</time></trkpt><trkpt lat="42.84180612051141" lon="12.862728556851966"><ele>1145.5</ele><time>2026-04-18T10:05:24.999Z</time></trkpt><trkpt lat="42.841854774448656" lon="12.862637367834573"><ele>1146.0</ele><time>2026-04-18T10:05:26.999Z</time></trkpt><trkpt lat="42.84189839016309" lon="12.86253918886448"><ele>1146.0</ele><time>2026-04-18T10:05:28.999Z</time></trkpt><trkpt lat="42.8419434927037" lon="12.862415378581314"><ele>1146.0</ele><time>2026-04-18T10:05:30.999Z</time></trkpt><trkpt lat="42.84200148327244" lon="12.862299887906792"><ele>1146.0</ele><time>2026-04-18T10:05:32.999Z</time></trkpt><trkpt lat="42.84204353896741" lon="12.86221416941263"><ele>1146.0</ele><time>2026-04-18T10:05:33.999Z</time></trkpt><trkpt lat="42.84207647146194" lon="12.862112357424815"><ele>1146.0</ele><time>2026-04-18T10:05:34.999Z</time></trkpt><trkpt lat="42.84208846614716" lon="12.86200443002176"><ele>1146.0</ele><time>2026-04-18T10:05:35.999Z</time></trkpt><trkpt lat="42.84207065389112" lon="12.86191026310875"><ele>1146.0</ele><time>2026-04-18T10:05:36.999Z</time></trkpt><trkpt lat="42.841973710210894" lon="12.861807832622494"><ele>1146.0</ele><time>2026-04-18T10:05:38.999Z</time></trkpt><trkpt lat="42.84190740607932" lon="12.86179821863509"><ele>1146.0</ele><time>2026-04-18T10:05:39.999Z</time></trkpt><trkpt lat="42.841851478223184" lon="12.861842690592596"><ele>1146.0</ele><time>2026-04-18T10:05:40.999Z</time></trkpt><trkpt lat="42.8418170983762" lon="12.861981663645949"><ele>1146.0</ele><time>2026-04-18T10:05:41.999Z</time></trkpt><trkpt lat="42.84180781066313" lon="12.862095971162677"><ele>1146.0</ele><time>2026-04-18T10:05:42.999Z</time></trkpt><trkpt lat="42.84177058989855" lon="12.862001470486609"><ele>1150.5</ele><time>2026-04-18T10:05:45.999Z</time></trkpt><trkpt lat="42.84179576868883" lon="12.861908334870277"><ele>1155.0</ele><time>2026-04-18T10:05:46.999Z</time></trkpt><trkpt lat="42.84180282158258" lon="12.861759561858529"><ele>1159.5</ele><time>2026-04-18T10:05:47.999Z</time></trkpt><trkpt lat="42.841826431542096" lon="12.861581994067427"><ele>1164.0</ele><time>2026-04-18T10:05:48.999Z</time></trkpt><trkpt lat="42.841881596480775" lon="12.861374438238121"><ele>1164.0</ele><time>2026-04-18T10:05:49.999Z</time></trkpt><trkpt lat="42.84197110998929" lon="12.861182684493459"><ele>1164.0</ele><time>2026-04-18T10:05:50.999Z</time></trkpt><trkpt lat="42.842057627165744" lon="12.861016966719083"><ele>1164.0</ele><time>2026-04-18T10:05:51.999Z</time></trkpt><trkpt lat="42.842192537063724" lon="12.861003085412401"><ele>1166.0</ele><time>2026-04-18T10:05:52.999Z</time></trkpt><trkpt lat="42.842248310093865" lon="12.860927494683366"><ele>1168.0</ele><time>2026-04-18T10:05:53.999Z</time></trkpt><trkpt lat="42.84232943163964" lon="12.860818973678736"><ele>1170.0</ele><time>2026-04-18T10:05:54.999Z</time></trkpt><trkpt lat="42.84241278812685" lon="12.860738749957157"><ele>1172.0</ele><time>2026-04-18T10:05:55.999Z</time></trkpt><trkpt lat="42.8424874001744" lon="12.860633116248312"><ele>1174.0</ele><time>2026-04-18T10:05:56.999Z</time></trkpt><trkpt lat="42.84257973014274" lon="12.860528189394905"><ele>1172.6000000000001</ele><time>2026-04-18T10:05:57.999Z</time></trkpt><trkpt lat="42.842689272009295" lon="12.860492194353798"><ele>1171.2</ele><time>2026-04-18T10:05:58.999Z</time></trkpt><trkpt lat="42.84280074500311" lon="12.8604477872355"><ele>1169.8000000000002</ele><time>2026-04-18T10:05:59.999Z</time></trkpt><trkpt lat="42.84289795193012" lon="12.860380145786868"><ele>1168.4</ele><time>2026-04-18T10:06:00.999Z</time></trkpt><trkpt lat="42.84299179048611" lon="12.860300494251819"><ele>1167.0</ele><time>2026-04-18T10:06:01.999Z</time></trkpt><trkpt lat="42.84306078391008" lon="12.860202462782125"><ele>1170.0</ele><time>2026-04-18T10:06:02.999Z</time></trkpt><trkpt lat="42.84313475108677" lon="12.86006959451401"><ele>1173.0</ele><time>2026-04-18T10:06:03.999Z</time></trkpt><trkpt lat="42.84321879415132" lon="12.85995788081998"><ele>1176.0</ele><time>2026-04-18T10:06:04.999Z</time></trkpt><trkpt lat="42.843325473369404" lon="12.859896876408966"><ele>1179.0</ele><time>2026-04-18T10:06:05.999Z</time></trkpt><trkpt lat="42.84342628378403" lon="12.859855258509306"><ele>1176.8</ele><time>2026-04-18T10:06:06.999Z</time></trkpt><trkpt lat="42.84352721390918" lon="12.85986610173709"><ele>1174.6000000000001</ele><time>2026-04-18T10:06:07.999Z</time></trkpt><trkpt lat="42.843623156935095" lon="12.859885284214757"><ele>1172.4</ele><time>2026-04-18T10:06:08.999Z</time></trkpt><trkpt lat="42.843730064842944" lon="12.859836517258515"><ele>1170.2</ele><time>2026-04-18T10:06:09.999Z</time></trkpt><trkpt lat="42.84385076964899" lon="12.85974985759655"><ele>1168.0</ele><time>2026-04-18T10:06:10.999Z</time></trkpt><trkpt lat="42.84398745065945" lon="12.85965617985589"><ele>1168.0</ele><time>2026-04-18T10:06:11.999Z</time></trkpt><trkpt lat="42.844109558737486" lon="12.859576041011577"><ele>1168.0</ele><time>2026-04-18T10:06:12.999Z</time></trkpt><trkpt lat="42.84423998993217" lon="12.859541797006836"><ele>1168.0</ele><time>2026-04-18T10:06:13.999Z</time></trkpt><trkpt lat="42.84435292332337" lon="12.859491328277453"><ele>1168.0</ele><time>2026-04-18T10:06:14.999Z</time></trkpt><trkpt lat="42.844444078205925" lon="12.859426999776552"><ele>1166.4</ele><time>2026-04-18T10:06:15.999Z</time></trkpt><trkpt lat="42.84450674614639" lon="12.859372632018001"><ele>1164.8</ele><time>2026-04-18T10:06:16.999Z</time></trkpt><trkpt lat="42.84454816546637" lon="12.859285185551549"><ele>1163.2</ele><time>2026-04-18T10:06:17.999Z</time></trkpt><trkpt lat="42.844590117471014" lon="12.859158268669246"><ele>1161.6</ele><time>2026-04-18T10:06:18.999Z</time></trkpt><trkpt lat="42.844642157930785" lon="12.859001137376715"><ele>1160.0</ele><time>2026-04-18T10:06:19.999Z</time></trkpt><trkpt lat="42.84473323339534" lon="12.858893006135958"><ele>1160.0</ele><time>2026-04-18T10:06:20.999Z</time></trkpt><trkpt lat="42.84487117573101" lon="12.858802242257418"><ele>1160.0</ele><time>2026-04-18T10:06:21.999Z</time></trkpt><trkpt lat="42.84496327439208" lon="12.85870622059465"><ele>1160.0</ele><time>2026-04-18T10:06:22.999Z</time></trkpt><trkpt lat="42.84501032762234" lon="12.858628385399886"><ele>1160.0</ele><time>2026-04-18T10:06:23.999Z</time></trkpt><trkpt lat="42.845023047964375" lon="12.858508442037225"><ele>1160.0</ele><time>2026-04-18T10:06:25.999Z</time></trkpt><trkpt lat="42.84504623624564" lon="12.858398050272148"><ele>1159.4</ele><time>2026-04-18T10:06:26.999Z</time></trkpt><trkpt lat="42.84509122330064" lon="12.85827878383129"><ele>1158.8</ele><time>2026-04-18T10:06:27.999Z</time></trkpt><trkpt lat="42.845151153118415" lon="12.858205427931926"><ele>1158.2</ele><time>2026-04-18T10:06:28.999Z</time></trkpt><trkpt lat="42.845247465091035" lon="12.85820175416092"><ele>1157.6</ele><time>2026-04-18T10:06:29.999Z</time></trkpt><trkpt lat="42.845375414019074" lon="12.858246171498408"><ele>1157.0</ele><time>2026-04-18T10:06:30.999Z</time></trkpt><trkpt lat="42.84548078791381" lon="12.858263907780449"><ele>1157.0</ele><time>2026-04-18T10:06:31.999Z</time></trkpt><trkpt lat="42.84558552722361" lon="12.858220223333948"><ele>1157.0</ele><time>2026-04-18T10:06:32.999Z</time></trkpt><trkpt lat="42.84568821190311" lon="12.858145852992084"><ele>1157.0</ele><time>2026-04-18T10:06:33.999Z</time></trkpt><trkpt lat="42.84578890806493" lon="12.858042139872294"><ele>1157.0</ele><time>2026-04-18T10:06:34.999Z</time></trkpt><trkpt lat="42.84583117586881" lon="12.857944248536901"><ele>1157.0</ele><time>2026-04-18T10:06:35.999Z</time></trkpt><trkpt lat="42.8458686100165" lon="12.857833665104621"><ele>1157.0</ele><time>2026-04-18T10:06:36.999Z</time></trkpt><trkpt lat="42.84594733323474" lon="12.85771738442314"><ele>1157.0</ele><time>2026-04-18T10:06:37.999Z</time></trkpt><trkpt lat="42.846054941321945" lon="12.857651593431735"><ele>1157.0</ele><time>2026-04-18T10:06:38.999Z</time></trkpt><trkpt lat="42.84612522596116" lon="12.857562032980288"><ele>1157.0</ele><time>2026-04-18T10:06:39.999Z</time></trkpt><trkpt lat="42.84616340356969" lon="12.85741413221865"><ele>1157.0</ele><time>2026-04-18T10:06:40.999Z</time></trkpt><trkpt lat="42.846192855003835" lon="12.857262795453634"><ele>1157.5</ele><time>2026-04-18T10:06:41.999Z</time></trkpt><trkpt lat="42.84627861427924" lon="12.857135626805059"><ele>1158.0</ele><time>2026-04-18T10:06:42.999Z</time></trkpt><trkpt lat="42.846383916722445" lon="12.85704597918515"><ele>1158.5</ele><time>2026-04-18T10:06:43.999Z</time></trkpt><trkpt lat="42.84647851367755" lon="12.856975346509133"><ele>1159.0</ele><time>2026-04-18T10:06:44.999Z</time></trkpt><trkpt lat="42.846580457695865" lon="12.856930802192785"><ele>1159.0</ele><time>2026-04-18T10:06:46Z</time></trkpt><trkpt lat="42.84669770865107" lon="12.8568790979987"><ele>1159.0</ele><time>2026-04-18T10:06:47Z</time></trkpt><trkpt lat="42.846818848794044" lon="12.856838060411153"><ele>1159.0</ele><time>2026-04-18T10:06:48Z</time></trkpt><trkpt lat="42.846949044983546" lon="12.856800400659184"><ele>1159.0</ele><time>2026-04-18T10:06:49Z</time></trkpt><trkpt lat="42.84703606302757" lon="12.856797481142987"><ele>1160.3333333333333</ele><time>2026-04-18T10:06:50Z</time></trkpt><trkpt lat="42.84709928330784" lon="12.856840709577666"><ele>1161.6666666666665</ele><time>2026-04-18T10:06:51Z</time></trkpt><trkpt lat="42.847149081093804" lon="12.856912592001875"><ele>1163.0</ele><time>2026-04-18T10:06:52Z</time></trkpt><trkpt lat="42.84720610265858" lon="12.857008462685805"><ele>1164.3333333333333</ele><time>2026-04-18T10:06:53Z</time></trkpt><trkpt lat="42.847276425923795" lon="12.85709411839178"><ele>1165.6666666666667</ele><time>2026-04-18T10:06:54Z</time></trkpt><trkpt lat="42.84735943510271" lon="12.857197512854844"><ele>1167.0</ele><time>2026-04-18T10:06:55Z</time></trkpt><trkpt lat="42.84741554727418" lon="12.857264816244987"><ele>1167.0</ele><time>2026-04-18T10:06:56Z</time></trkpt><trkpt lat="42.84748815230701" lon="12.857312880599869"><ele>1167.0</ele><time>2026-04-18T10:06:57Z</time></trkpt><trkpt lat="42.84757592006107" lon="12.857333556630843"><ele>1167.0</ele><time>2026-04-18T10:06:58Z</time></trkpt><trkpt lat="42.847662638724195" lon="12.857397770017915"><ele>1167.0</ele><time>2026-04-18T10:06:59Z</time></trkpt><trkpt lat="42.84772967396782" lon="12.857500585292511"><ele>1167.0</ele><time>2026-04-18T10:07:00Z</time></trkpt><trkpt lat="42.84782021083843" lon="12.857636198656602"><ele>1167.25</ele><time>2026-04-18T10:07:01Z</time></trkpt><trkpt lat="42.84791500733814" lon="12.857767057090909"><ele>1167.5</ele><time>2026-04-18T10:07:02Z</time></trkpt><trkpt lat="42.848007865526114" lon="12.85790977780563"><ele>1167.75</ele><time>2026-04-18T10:07:03Z</time></trkpt><trkpt lat="42.84810281296083" lon="12.858070791091317"><ele>1168.0</ele><time>2026-04-18T10:07:04Z</time></trkpt><trkpt lat="42.84818566364919" lon="12.858230053182215"><ele>1168.0</ele><time>2026-04-18T10:07:05Z</time></trkpt><trkpt lat="42.84825944183916" lon="12.858373051486273"><ele>1168.0</ele><time>2026-04-18T10:07:06Z</time></trkpt><trkpt lat="42.84833187464343" lon="12.858509985518092"><ele>1168.0</ele><time>2026-04-18T10:07:07Z</time></trkpt><trkpt lat="42.84838998356359" lon="12.85866487189162"><ele>1168.0</ele><time>2026-04-18T10:07:08Z</time></trkpt><trkpt lat="42.84844041219141" lon="12.858818304541147"><ele>1167.75</ele><time>2026-04-18T10:07:09Z</time></trkpt><trkpt lat="42.84849900464621" lon="12.858974720162808"><ele>1167.5</ele><time>2026-04-18T10:07:10Z</time></trkpt><trkpt lat="42.848571471090494" lon="12.859119801973367"><ele>1167.25</ele><time>2026-04-18T10:07:11Z</time></trkpt><trkpt lat="42.848650662678686" lon="12.859245268341377"><ele>1167.0</ele><time>2026-04-18T10:07:12Z</time></trkpt><trkpt lat="42.8487204673869" lon="12.85936289110169"><ele>1167.0</ele><time>2026-04-18T10:07:13Z</time></trkpt><trkpt lat="42.84879061638995" lon="12.859443579221695"><ele>1167.0</ele><time>2026-04-18T10:07:14Z</time></trkpt><trkpt lat="42.84885102568669" lon="12.859497081169703"><ele>1167.0</ele><time>2026-04-18T10:07:15Z</time></trkpt><trkpt lat="42.848906289915355" lon="12.859578146807532"><ele>1167.0</ele><time>2026-04-18T10:07:17Z</time></trkpt><trkpt lat="42.84897405231113" lon="12.85961099186529"><ele>1167.0</ele><time>2026-04-18T10:07:20Z</time></trkpt><trkpt lat="42.8489747488681" lon="12.85971979303624"><ele>1167.0</ele><time>2026-04-18T10:07:28Z</time></trkpt><trkpt lat="42.8489539393422" lon="12.8598103084509"><ele>1167.0</ele><time>2026-04-18T10:07:30Z</time></trkpt><trkpt lat="42.84898649746734" lon="12.859920465093376"><ele>1167.0</ele><time>2026-04-18T10:07:33Z</time></trkpt><trkpt lat="42.84904376375965" lon="12.8599689173377"><ele>1167.0</ele><time>2026-04-18T10:07:34Z</time></trkpt><trkpt lat="42.84910768271914" lon="12.860009807487016"><ele>1167.0</ele><time>2026-04-18T10:07:35Z</time></trkpt><trkpt lat="42.849180825272555" lon="12.8600645466533"><ele>1167.0</ele><time>2026-04-18T10:07:35.999Z</time></trkpt><trkpt lat="42.84926711194567" lon="12.8600843311963"><ele>1167.0</ele><time>2026-04-18T10:07:36.999Z</time></trkpt><trkpt lat="42.849369648648" lon="12.86010816041899"><ele>1165.6</ele><time>2026-04-18T10:07:37.999Z</time></trkpt><trkpt lat="42.84947915135914" lon="12.860170738467982"><ele>1164.2</ele><time>2026-04-18T10:07:38.999Z</time></trkpt><trkpt lat="42.84957845078575" lon="12.86025355881957"><ele>1162.8</ele><time>2026-04-18T10:07:39.999Z</time></trkpt><trkpt lat="42.84966433780831" lon="12.860335349557195"><ele>1161.4</ele><time>2026-04-18T10:07:40.999Z</time></trkpt><trkpt lat="42.84973898975965" lon="12.860407839413346"><ele>1160.0</ele><time>2026-04-18T10:07:41.999Z</time></trkpt><trkpt lat="42.849797832517964" lon="12.86050374691335"><ele>1160.0</ele><time>2026-04-18T10:07:42.999Z</time></trkpt><trkpt lat="42.84986291316246" lon="12.860605463156345"><ele>1160.0</ele><time>2026-04-18T10:07:43.999Z</time></trkpt><trkpt lat="42.849909293789516" lon="12.860679604933045"><ele>1160.0</ele><time>2026-04-18T10:07:44.999Z</time></trkpt><trkpt lat="42.84995591597556" lon="12.860749694412135"><ele>1160.0</ele><time>2026-04-18T10:07:45.999Z</time></trkpt><trkpt lat="42.85000625848789" lon="12.860823490674768"><ele>1160.0</ele><time>2026-04-18T10:07:46.999Z</time></trkpt><trkpt lat="42.85007273972016" lon="12.860904105726227"><ele>1160.0</ele><time>2026-04-18T10:07:47.999Z</time></trkpt><trkpt lat="42.85014573398467" lon="12.860979683162352"><ele>1159.0</ele><time>2026-04-18T10:07:48.999Z</time></trkpt><trkpt lat="42.85022006388348" lon="12.861041549845822"><ele>1158.0</ele><time>2026-04-18T10:07:49.999Z</time></trkpt><trkpt lat="42.8502924185209" lon="12.861123224350882"><ele>1157.0</ele><time>2026-04-18T10:07:50.999Z</time></trkpt><trkpt lat="42.850316144991936" lon="12.86121296142749"><ele>1156.0</ele><time>2026-04-18T10:07:51.999Z</time></trkpt><trkpt lat="42.85034993906641" lon="12.861291847722374"><ele>1155.0</ele><time>2026-04-18T10:07:52.999Z</time></trkpt><trkpt lat="42.85038985740964" lon="12.86137961736617"><ele>1154.0</ele><time>2026-04-18T10:07:54.999Z</time></trkpt><trkpt lat="42.850429844701836" lon="12.861492181431917"><ele>1154.0</ele><time>2026-04-18T10:07:57.999Z</time></trkpt><trkpt lat="42.85048080602072" lon="12.86158317425775"><ele>1154.0</ele><time>2026-04-18T10:20:24Z</time></trkpt><trkpt lat="42.850580092807654" lon="12.861619446843337"><ele>1154.0</ele><time>2026-04-18T10:20:26Z</time></trkpt><trkpt lat="42.85070688832505" lon="12.861684807705393"><ele>1154.0</ele><time>2026-04-18T10:20:28Z</time></trkpt><trkpt lat="42.85077940210491" lon="12.861723541795948"><ele>1154.0</ele><time>2026-04-18T10:20:29Z</time></trkpt><trkpt lat="42.85086085400964" lon="12.861765276965418"><ele>1154.2</ele><time>2026-04-18T10:20:30Z</time></trkpt><trkpt lat="42.850953797500395" lon="12.86179726718649"><ele>1154.4</ele><time>2026-04-18T10:20:31Z</time></trkpt><trkpt lat="42.85104146943048" lon="12.86183557036531"><ele>1154.6</ele><time>2026-04-18T10:20:32Z</time></trkpt><trkpt lat="42.8511299762863" lon="12.861877332660367"><ele>1154.8</ele><time>2026-04-18T10:20:33Z</time></trkpt><trkpt lat="42.85123842738911" lon="12.861927597165867"><ele>1155.0</ele><time>2026-04-18T10:20:34Z</time></trkpt><trkpt lat="42.85133188758724" lon="12.861976747191077"><ele>1155.0</ele><time>2026-04-18T10:20:35Z</time></trkpt><trkpt lat="42.85143263183483" lon="12.862026461593313"><ele>1155.0</ele><time>2026-04-18T10:20:36Z</time></trkpt><trkpt lat="42.851528452124" lon="12.862073395982225"><ele>1155.0</ele><time>2026-04-18T10:20:37Z</time></trkpt><trkpt lat="42.85163065602943" lon="12.862118454782722"><ele>1155.0</ele><time>2026-04-18T10:20:38Z</time></trkpt><trkpt lat="42.85173399701328" lon="12.86216344314852"><ele>1155.0</ele><time>2026-04-18T10:20:39Z</time></trkpt><trkpt lat="42.851837893151256" lon="12.862217813421172"><ele>1153.5</ele><time>2026-04-18T10:20:40Z</time></trkpt><trkpt lat="42.851941964536515" lon="12.862275603300201"><ele>1152.0</ele><time>2026-04-18T10:20:41Z</time></trkpt><trkpt lat="42.852046869572945" lon="12.862339214579128"><ele>1150.5</ele><time>2026-04-18T10:20:42Z</time></trkpt><trkpt lat="42.85215516407971" lon="12.862396359501686"><ele>1149.0</ele><time>2026-04-18T10:20:43Z</time></trkpt><trkpt lat="42.85225639521101" lon="12.862457057907863"><ele>1149.0</ele><time>2026-04-18T10:20:43.999Z</time></trkpt><trkpt lat="42.852362436641414" lon="12.862517449018611"><ele>1149.0</ele><time>2026-04-18T10:20:44.999Z</time></trkpt><trkpt lat="42.85246513386718" lon="12.862583923699619"><ele>1149.0</ele><time>2026-04-18T10:20:45.999Z</time></trkpt><trkpt lat="42.852583478747796" lon="12.862650792249312"><ele>1149.0</ele><time>2026-04-18T10:20:46.999Z</time></trkpt><trkpt lat="42.852703374874" lon="12.862696671917721"><ele>1146.25</ele><time>2026-04-18T10:20:47.999Z</time></trkpt><trkpt lat="42.85283829445915" lon="12.862729088553"><ele>1143.5</ele><time>2026-04-18T10:20:48.999Z</time></trkpt><trkpt lat="42.852974537455076" lon="12.862744044981197"><ele>1140.75</ele><time>2026-04-18T10:20:49.999Z</time></trkpt><trkpt lat="42.85311534950091" lon="12.862758484918"><ele>1138.0</ele><time>2026-04-18T10:20:50.999Z</time></trkpt><trkpt lat="42.85324133034922" lon="12.862778948820198"><ele>1138.0</ele><time>2026-04-18T10:20:51.999Z</time></trkpt><trkpt lat="42.85336568955732" lon="12.862803689420165"><ele>1138.0</ele><time>2026-04-18T10:20:52.999Z</time></trkpt><trkpt lat="42.85349861071373" lon="12.862819455343274"><ele>1138.0</ele><time>2026-04-18T10:20:53.999Z</time></trkpt><trkpt lat="42.85363674236803" lon="12.862833664612793"><ele>1138.0</ele><time>2026-04-18T10:20:54.999Z</time></trkpt><trkpt lat="42.853775034178675" lon="12.862843305858457"><ele>1135.0</ele><time>2026-04-18T10:20:55.999Z</time></trkpt><trkpt lat="42.85391918342439" lon="12.862838435515412"><ele>1132.0</ele><time>2026-04-18T10:20:56.999Z</time></trkpt><trkpt lat="42.85405357854441" lon="12.862836088609786"><ele>1129.0</ele><time>2026-04-18T10:20:57.999Z</time></trkpt><trkpt lat="42.85417490183995" lon="12.862830154852432"><ele>1126.0</ele><time>2026-04-18T10:20:58.999Z</time></trkpt><trkpt lat="42.8542819331557" lon="12.862797890809885"><ele>1125.2</ele><time>2026-04-18T10:20:59.999Z</time></trkpt><trkpt lat="42.854351901257566" lon="12.862742681955602"><ele>1124.3999999999999</ele><time>2026-04-18T10:21:00.999Z</time></trkpt><trkpt lat="42.85443221038978" lon="12.862675014835537"><ele>1123.6</ele><time>2026-04-18T10:21:01.999Z</time></trkpt><trkpt lat="42.85451935382529" lon="12.862602840273508"><ele>1122.8</ele><time>2026-04-18T10:21:02.999Z</time></trkpt><trkpt lat="42.85461171679916" lon="12.86254508878488"><ele>1122.0</ele><time>2026-04-18T10:21:03.999Z</time></trkpt><trkpt lat="42.854700773441735" lon="12.862493417120907"><ele>1121.8</ele><time>2026-04-18T10:21:04.999Z</time></trkpt><trkpt lat="42.85479208582052" lon="12.862447609391134"><ele>1121.6</ele><time>2026-04-18T10:21:05.999Z</time></trkpt><trkpt lat="42.85487737380545" lon="12.862409608815284"><ele>1121.3999999999999</ele><time>2026-04-18T10:21:06.999Z</time></trkpt><trkpt lat="42.85496277833168" lon="12.862373582525471"><ele>1121.2</ele><time>2026-04-18T10:21:07.999Z</time></trkpt><trkpt lat="42.85505593898599" lon="12.862321736837695"><ele>1121.0</ele><time>2026-04-18T10:21:08.999Z</time></trkpt><trkpt lat="42.855151351233204" lon="12.862263724739591"><ele>1117.6</ele><time>2026-04-18T10:21:09.999Z</time></trkpt><trkpt lat="42.85525375070528" lon="12.862201826477966"><ele>1114.1999999999998</ele><time>2026-04-18T10:21:10.999Z</time></trkpt><trkpt lat="42.855356160308126" lon="12.862145141839367"><ele>1110.8000000000002</ele><time>2026-04-18T10:21:11.999Z</time></trkpt><trkpt lat="42.85545759613875" lon="12.862090701944828"><ele>1107.4</ele><time>2026-04-18T10:21:12.999Z</time></trkpt><trkpt lat="42.85555512005946" lon="12.86202623197026"><ele>1104.0</ele><time>2026-04-18T10:21:13.999Z</time></trkpt><trkpt lat="42.855646174825694" lon="12.861968278977425"><ele>1104.0</ele><time>2026-04-18T10:21:14.999Z</time></trkpt><trkpt lat="42.85573929356093" lon="12.86191783435163"><ele>1104.0</ele><time>2026-04-18T10:21:15.999Z</time></trkpt><trkpt lat="42.85584245239594" lon="12.861858852507673"><ele>1104.0</ele><time>2026-04-18T10:21:16.999Z</time></trkpt><trkpt lat="42.8559486727352" lon="12.861786093799763"><ele>1104.0</ele><time>2026-04-18T10:21:17.999Z</time></trkpt><trkpt lat="42.85603176781265" lon="12.861700220037681"><ele>1104.0</ele><time>2026-04-18T10:21:18.999Z</time></trkpt><trkpt lat="42.85611967202828" lon="12.861617430817077"><ele>1099.3333333333333</ele><time>2026-04-18T10:21:19.999Z</time></trkpt><trkpt lat="42.85620777488155" lon="12.861538500961586"><ele>1094.6666666666667</ele><time>2026-04-18T10:21:20.999Z</time></trkpt><trkpt lat="42.85628896972893" lon="12.861477854593504"><ele>1090.0</ele><time>2026-04-18T10:21:21.999Z</time></trkpt><trkpt lat="42.85635138488396" lon="12.861408757470507"><ele>1085.3333333333335</ele><time>2026-04-18T10:21:22.999Z</time></trkpt><trkpt lat="42.85642065649548" lon="12.861350787872176"><ele>1080.6666666666667</ele><time>2026-04-18T10:21:23.999Z</time></trkpt><trkpt lat="42.8564768513987" lon="12.86129739640804"><ele>1076.0</ele><time>2026-04-18T10:21:24.999Z</time></trkpt><trkpt lat="42.856552133806424" lon="12.861256202126976"><ele>1076.0</ele><time>2026-04-18T10:21:25.999Z</time></trkpt><trkpt lat="42.8566521358639" lon="12.861213532105658"><ele>1076.0</ele><time>2026-04-18T10:21:26.999Z</time></trkpt><trkpt lat="42.85675300584939" lon="12.861174611045701"><ele>1076.0</ele><time>2026-04-18T10:21:28Z</time></trkpt><trkpt lat="42.85684969050804" lon="12.8611338601519"><ele>1076.0</ele><time>2026-04-18T10:21:29Z</time></trkpt><trkpt lat="42.85692747077252" lon="12.861089253076896"><ele>1076.0</ele><time>2026-04-18T10:21:30Z</time></trkpt><trkpt lat="42.85698533829892" lon="12.861045779045174"><ele>1072.8333333333335</ele><time>2026-04-18T10:21:31Z</time></trkpt><trkpt lat="42.857060038657345" lon="12.860914209412174"><ele>1069.6666666666667</ele><time>2026-04-18T10:21:33Z</time></trkpt><trkpt lat="42.85707941828888" lon="12.86081221652006"><ele>1066.5</ele><time>2026-04-18T10:21:34Z</time></trkpt><trkpt lat="42.85710219781029" lon="12.860695710862762"><ele>1063.3333333333333</ele><time>2026-04-18T10:21:35Z</time></trkpt><trkpt lat="42.85712983100774" lon="12.86060044051091"><ele>1060.1666666666665</ele><time>2026-04-18T10:21:36Z</time></trkpt><trkpt lat="42.857168889529646" lon="12.860506215560084"><ele>1057.0</ele><time>2026-04-18T10:21:37Z</time></trkpt><trkpt lat="42.85720884408471" lon="12.860406703850616"><ele>1057.0</ele><time>2026-04-18T10:21:38Z</time></trkpt><trkpt lat="42.85726180482091" lon="12.860275673175469"><ele>1057.0</ele><time>2026-04-18T10:21:40Z</time></trkpt><trkpt lat="42.85730665149924" lon="12.860116769002566"><ele>1057.0</ele><time>2026-04-18T10:21:42Z</time></trkpt><trkpt lat="42.8574056242536" lon="12.860045529782075"><ele>1057.0</ele><time>2026-04-18T10:21:44Z</time></trkpt><trkpt lat="42.85747308847197" lon="12.860008440881362"><ele>1057.0</ele><time>2026-04-18T10:21:45Z</time></trkpt><trkpt lat="42.85752605689535" lon="12.859893084677887"><ele>1056.0</ele><time>2026-04-18T10:21:47Z</time></trkpt><trkpt lat="42.85751366633717" lon="12.859716168120197"><ele>1055.0</ele><time>2026-04-18T10:21:49Z</time></trkpt><trkpt lat="42.857504640528866" lon="12.859624711330703"><ele>1054.0</ele><time>2026-04-18T10:21:50Z</time></trkpt><trkpt lat="42.85749262626434" lon="12.859533952241613"><ele>1053.0</ele><time>2026-04-18T10:21:51Z</time></trkpt><trkpt lat="42.85746591968193" lon="12.859445958688212"><ele>1052.0</ele><time>2026-04-18T10:21:52Z</time></trkpt><trkpt lat="42.85743229590799" lon="12.859368244979615"><ele>1051.0</ele><time>2026-04-18T10:21:53Z</time></trkpt><trkpt lat="42.857432493863925" lon="12.859247402541518"><ele>1050.0</ele><time>2026-04-18T10:21:55Z</time></trkpt><trkpt lat="42.8575409174252" lon="12.859218428255671"><ele>1049.0</ele><time>2026-04-18T10:21:57Z</time></trkpt><trkpt lat="42.85762074878312" lon="12.85916319750483"><ele>1048.0</ele><time>2026-04-18T10:21:59Z</time></trkpt><trkpt lat="42.857629936854046" lon="12.858973105738585"><ele>1047.0</ele><time>2026-04-18T10:22:01Z</time></trkpt><trkpt lat="42.85762325271734" lon="12.858816386225925"><ele>1047.0</ele><time>2026-04-18T10:22:02Z</time></trkpt><trkpt lat="42.85764694946091" lon="12.858662110286659"><ele>1047.0</ele><time>2026-04-18T10:22:03Z</time></trkpt><trkpt lat="42.85765939731773" lon="12.858519109125972"><ele>1047.0</ele><time>2026-04-18T10:22:04Z</time></trkpt><trkpt lat="42.857666350345426" lon="12.858388385001584"><ele>1047.0</ele><time>2026-04-18T10:22:05Z</time></trkpt><trkpt lat="42.85763571195574" lon="12.858265279753557"><ele>1047.0</ele><time>2026-04-18T10:22:06Z</time></trkpt><trkpt lat="42.85759299329695" lon="12.858156015866715"><ele>1047.0</ele><time>2026-04-18T10:22:07Z</time></trkpt><trkpt lat="42.85754950524106" lon="12.858021673929011"><ele>1047.0</ele><time>2026-04-18T10:22:08Z</time></trkpt><trkpt lat="42.85751746353806" lon="12.85787268775091"><ele>1047.0</ele><time>2026-04-18T10:22:09Z</time></trkpt><trkpt lat="42.85749368314855" lon="12.857741241588034"><ele>1047.0</ele><time>2026-04-18T10:22:10Z</time></trkpt><trkpt lat="42.8574646870444" lon="12.857596951832235"><ele>1047.0</ele><time>2026-04-18T10:22:11Z</time></trkpt><trkpt lat="42.857439180636504" lon="12.8574088636009"><ele>1046.75</ele><time>2026-04-18T10:22:12Z</time></trkpt><trkpt lat="42.857416930874344" lon="12.857222034123224"><ele>1046.5</ele><time>2026-04-18T10:22:13Z</time></trkpt><trkpt lat="42.85739939577325" lon="12.857040542440606"><ele>1046.25</ele><time>2026-04-18T10:22:14Z</time></trkpt><trkpt lat="42.85738920514841" lon="12.856864415965838"><ele>1046.0</ele><time>2026-04-18T10:22:15Z</time></trkpt><trkpt lat="42.857377141876846" lon="12.856704775421074"><ele>1046.0</ele><time>2026-04-18T10:22:16Z</time></trkpt><trkpt lat="42.857366045239736" lon="12.856542228223821"><ele>1046.0</ele><time>2026-04-18T10:22:17Z</time></trkpt><trkpt lat="42.85735189375517" lon="12.85636042992259"><ele>1046.0</ele><time>2026-04-18T10:22:18Z</time></trkpt><trkpt lat="42.857344863587535" lon="12.856148901258491"><ele>1046.0</ele><time>2026-04-18T10:22:19Z</time></trkpt><trkpt lat="42.85735078190727" lon="12.855962986567897"><ele>1046.2</ele><time>2026-04-18T10:22:20Z</time></trkpt><trkpt lat="42.85735158272016" lon="12.855804630259547"><ele>1046.3999999999999</ele><time>2026-04-18T10:22:21Z</time></trkpt><trkpt lat="42.85733779743457" lon="12.855664705887053"><ele>1046.6</ele><time>2026-04-18T10:22:22Z</time></trkpt><trkpt lat="42.85728997417204" lon="12.855537200566902"><ele>1046.8</ele><time>2026-04-18T10:22:23Z</time></trkpt><trkpt lat="42.857218196234584" lon="12.855429873207925"><ele>1047.0</ele><time>2026-04-18T10:22:24Z</time></trkpt><trkpt lat="42.85716186807783" lon="12.85530198552946"><ele>1047.0</ele><time>2026-04-18T10:22:25Z</time></trkpt><trkpt lat="42.85712853205884" lon="12.85513006527267"><ele>1047.0</ele><time>2026-04-18T10:22:26Z</time></trkpt><trkpt lat="42.85711049516642" lon="12.855003894209034"><ele>1047.0</ele><time>2026-04-18T10:22:27Z</time></trkpt><trkpt lat="42.857086529522135" lon="12.854877775210534"><ele>1047.0</ele><time>2026-04-18T10:22:28Z</time></trkpt><trkpt lat="42.85704736115692" lon="12.854747672213808"><ele>1047.0</ele><time>2026-04-18T10:22:29Z</time></trkpt><trkpt lat="42.857026704523726" lon="12.854595082529524"><ele>1048.4</ele><time>2026-04-18T10:22:30Z</time></trkpt><trkpt lat="42.8570161548229" lon="12.854449835247788"><ele>1049.8000000000002</ele><time>2026-04-18T10:22:31Z</time></trkpt><trkpt lat="42.85701148713018" lon="12.854324049508802"><ele>1051.2</ele><time>2026-04-18T10:22:32Z</time></trkpt><trkpt lat="42.856988297512316" lon="12.854167310743277"><ele>1052.6000000000001</ele><time>2026-04-18T10:22:33Z</time></trkpt><trkpt lat="42.856981800424684" lon="12.854003134025392"><ele>1054.0</ele><time>2026-04-18T10:22:34Z</time></trkpt><trkpt lat="42.85698135742399" lon="12.853839760232207"><ele>1055.75</ele><time>2026-04-18T10:22:35Z</time></trkpt><trkpt lat="42.85697989099793" lon="12.853686517491475"><ele>1057.5</ele><time>2026-04-18T10:22:36Z</time></trkpt><trkpt lat="42.856973718997736" lon="12.853535291777927"><ele>1059.25</ele><time>2026-04-18T10:22:37Z</time></trkpt><trkpt lat="42.85695706122537" lon="12.853370351143138"><ele>1061.0</ele><time>2026-04-18T10:22:38Z</time></trkpt><trkpt lat="42.85693672814887" lon="12.853217683153868"><ele>1061.75</ele><time>2026-04-18T10:22:39Z</time></trkpt><trkpt lat="42.856929112898094" lon="12.853063906123364"><ele>1062.5</ele><time>2026-04-18T10:22:40Z</time></trkpt><trkpt lat="42.85692015628774" lon="12.852897979944512"><ele>1063.25</ele><time>2026-04-18T10:22:41Z</time></trkpt><trkpt lat="42.85691881536645" lon="12.852720369406407"><ele>1064.0</ele><time>2026-04-18T10:22:42Z</time></trkpt><trkpt lat="42.856932325276716" lon="12.852544399759685"><ele>1062.25</ele><time>2026-04-18T10:22:43Z</time></trkpt><trkpt lat="42.85696020453758" lon="12.852377746238227"><ele>1060.5</ele><time>2026-04-18T10:22:44Z</time></trkpt><trkpt lat="42.85698736427545" lon="12.852204998393251"><ele>1058.75</ele><time>2026-04-18T10:22:45Z</time></trkpt><trkpt lat="42.857013715824195" lon="12.852046055842111"><ele>1057.0</ele><time>2026-04-18T10:22:46Z</time></trkpt><trkpt lat="42.85704477361232" lon="12.851921610974626"><ele>1057.0</ele><time>2026-04-18T10:22:47Z</time></trkpt><trkpt lat="42.85707299101298" lon="12.851816196478298"><ele>1057.0</ele><time>2026-04-18T10:22:48Z</time></trkpt><trkpt lat="42.85713124433829" lon="12.851710370589949"><ele>1057.0</ele><time>2026-04-18T10:22:50Z</time></trkpt><trkpt lat="42.8572398757643" lon="12.851749484431455"><ele>1057.0</ele><time>2026-04-18T10:22:51.999Z</time></trkpt><trkpt lat="42.85729653400546" lon="12.85184504455088"><ele>1057.0</ele><time>2026-04-18T10:22:52.999Z</time></trkpt><trkpt lat="42.85735580708898" lon="12.851940581833139"><ele>1057.0</ele><time>2026-04-18T10:22:53.999Z</time></trkpt><trkpt lat="42.857412705033084" lon="12.852029527776928"><ele>1057.0</ele><time>2026-04-18T10:22:54.999Z</time></trkpt><trkpt lat="42.85750251126849" lon="12.852137890219419"><ele>1057.0</ele><time>2026-04-18T10:22:55.999Z</time></trkpt><trkpt lat="42.85759437684907" lon="12.852216684207715"><ele>1057.0</ele><time>2026-04-18T10:22:56.999Z</time></trkpt><trkpt lat="42.85768063629878" lon="12.85226725552185"><ele>1057.0</ele><time>2026-04-18T10:22:57.999Z</time></trkpt><trkpt lat="42.857770668226" lon="12.852301626734572"><ele>1055.75</ele><time>2026-04-18T10:22:58.999Z</time></trkpt><trkpt lat="42.857875352479255" lon="12.852302780239018"><ele>1054.5</ele><time>2026-04-18T10:22:59.999Z</time></trkpt><trkpt lat="42.857993821300006" lon="12.85226166038705"><ele>1053.25</ele><time>2026-04-18T10:23:00.999Z</time></trkpt><trkpt lat="42.858121156859085" lon="12.852204678167023"><ele>1052.0</ele><time>2026-04-18T10:23:01.999Z</time></trkpt><trkpt lat="42.858251604175415" lon="12.852164025436048"><ele>1052.0</ele><time>2026-04-18T10:23:02.999Z</time></trkpt><trkpt lat="42.85837261643926" lon="12.852147105251644"><ele>1052.0</ele><time>2026-04-18T10:23:03.999Z</time></trkpt><trkpt lat="42.85849909668143" lon="12.8521583239476"><ele>1052.0</ele><time>2026-04-18T10:23:04.999Z</time></trkpt><trkpt lat="42.85862657837826" lon="12.852179172938408"><ele>1052.0</ele><time>2026-04-18T10:23:05.999Z</time></trkpt><trkpt lat="42.85874998926785" lon="12.852203712305117"><ele>1053.4</ele><time>2026-04-18T10:23:06.999Z</time></trkpt><trkpt lat="42.85886035460496" lon="12.852241907531493"><ele>1054.8000000000002</ele><time>2026-04-18T10:23:07.999Z</time></trkpt><trkpt lat="42.85894723167631" lon="12.852313603538406"><ele>1056.2</ele><time>2026-04-18T10:23:08.999Z</time></trkpt><trkpt lat="42.85902524239578" lon="12.852411340324323"><ele>1057.6000000000001</ele><time>2026-04-18T10:23:09.999Z</time></trkpt><trkpt lat="42.85910015835928" lon="12.85252897648219"><ele>1059.0</ele><time>2026-04-18T10:23:10.999Z</time></trkpt><trkpt lat="42.85918968512172" lon="12.852635195977339"><ele>1058.5</ele><time>2026-04-18T10:23:11.999Z</time></trkpt><trkpt lat="42.859289687468454" lon="12.85273207306393"><ele>1058.0</ele><time>2026-04-18T10:23:12.999Z</time></trkpt><trkpt lat="42.859400505908475" lon="12.852804528025079"><ele>1057.5</ele><time>2026-04-18T10:23:13.999Z</time></trkpt><trkpt lat="42.85951837360312" lon="12.852850100106247"><ele>1057.0</ele><time>2026-04-18T10:23:14.999Z</time></trkpt><trkpt lat="42.85963332997252" lon="12.852861796807831"><ele>1057.0</ele><time>2026-04-18T10:23:15.999Z</time></trkpt><trkpt lat="42.85975168211546" lon="12.852841820358934"><ele>1057.0</ele><time>2026-04-18T10:23:16.999Z</time></trkpt><trkpt lat="42.85987698477154" lon="12.852805251232036"><ele>1057.0</ele><time>2026-04-18T10:23:17.999Z</time></trkpt><trkpt lat="42.86000775902916" lon="12.852770529066074"><ele>1057.0</ele><time>2026-04-18T10:23:18.999Z</time></trkpt><trkpt lat="42.86012257851576" lon="12.852720069279476"><ele>1057.5</ele><time>2026-04-18T10:23:19.999Z</time></trkpt><trkpt lat="42.860216944861925" lon="12.852681926439292"><ele>1058.0</ele><time>2026-04-18T10:23:20.999Z</time></trkpt><trkpt lat="42.86032953680849" lon="12.852684156612435"><ele>1058.5</ele><time>2026-04-18T10:23:21.999Z</time></trkpt><trkpt lat="42.860456800303304" lon="12.852714263376006"><ele>1059.0</ele><time>2026-04-18T10:23:22.999Z</time></trkpt><trkpt lat="42.86057923160819" lon="12.852720724279163"><ele>1059.0</ele><time>2026-04-18T10:23:23.999Z</time></trkpt><trkpt lat="42.860704012757786" lon="12.852705634631265"><ele>1059.0</ele><time>2026-04-18T10:23:24.999Z</time></trkpt><trkpt lat="42.86082884451887" lon="12.852691298330246"><ele>1059.0</ele><time>2026-04-18T10:23:25.999Z</time></trkpt><trkpt lat="42.8609491379855" lon="12.852678681109701"><ele>1059.0</ele><time>2026-04-18T10:23:26.999Z</time></trkpt><trkpt lat="42.861065887797096" lon="12.852664568921957"><ele>1057.8</ele><time>2026-04-18T10:23:27.999Z</time></trkpt><trkpt lat="42.861187813209284" lon="12.852675365890915"><ele>1056.6000000000001</ele><time>2026-04-18T10:23:28.999Z</time></trkpt><trkpt lat="42.861296519384695" lon="12.852673740787704"><ele>1055.4</ele><time>2026-04-18T10:23:29.999Z</time></trkpt><trkpt lat="42.861401567297996" lon="12.852674652945678"><ele>1054.2</ele><time>2026-04-18T10:23:30.999Z</time></trkpt><trkpt lat="42.86150304721475" lon="12.852718971273465"><ele>1053.0</ele><time>2026-04-18T10:23:31.999Z</time></trkpt><trkpt lat="42.86160405195213" lon="12.852809261383143"><ele>1053.0</ele><time>2026-04-18T10:23:32.999Z</time></trkpt><trkpt lat="42.861694514165386" lon="12.85291898033558"><ele>1053.0</ele><time>2026-04-18T10:23:34Z</time></trkpt><trkpt lat="42.86176309333423" lon="12.853031109722405"><ele>1053.0</ele><time>2026-04-18T10:23:35Z</time></trkpt><trkpt lat="42.86182501242221" lon="12.853127881617725"><ele>1053.0</ele><time>2026-04-18T10:23:36Z</time></trkpt><trkpt lat="42.861870544489534" lon="12.853191968502129"><ele>1053.0</ele><time>2026-04-18T10:23:37Z</time></trkpt><trkpt lat="42.86192432848495" lon="12.853308822257455"><ele>1047.0</ele><time>2026-04-18T10:23:39Z</time></trkpt><trkpt lat="42.86199883975839" lon="12.853220627868538"><ele>1041.0</ele><time>2026-04-18T10:23:41Z</time></trkpt><trkpt lat="42.86200897779252" lon="12.853093029117913"><ele>1035.0</ele><time>2026-04-18T10:23:42Z</time></trkpt><trkpt lat="42.86200794322547" lon="12.852946883548348"><ele>1029.0</ele><time>2026-04-18T10:23:43Z</time></trkpt><trkpt lat="42.8619869067017" lon="12.852793095428568"><ele>1023.0</ele><time>2026-04-18T10:23:44Z</time></trkpt><trkpt lat="42.862051154355456" lon="12.852624090421534"><ele>1022.4</ele><time>2026-04-18T10:23:45Z</time></trkpt><trkpt lat="42.86203256007725" lon="12.852521061902316"><ele>1021.8</ele><time>2026-04-18T10:23:46Z</time></trkpt><trkpt lat="42.8620037608849" lon="12.852326642473763"><ele>1021.2</ele><time>2026-04-18T10:23:48Z</time></trkpt><trkpt lat="42.86197718941606" lon="12.85219848736935"><ele>1020.6</ele><time>2026-04-18T10:23:49Z</time></trkpt><trkpt lat="42.86195025516877" lon="12.852048724566917"><ele>1020.0</ele><time>2026-04-18T10:23:50Z</time></trkpt><trkpt lat="42.86192807737205" lon="12.851885513149783"><ele>1018.8</ele><time>2026-04-18T10:23:51Z</time></trkpt><trkpt lat="42.861884681222215" lon="12.851733098251293"><ele>1017.6</ele><time>2026-04-18T10:23:52Z</time></trkpt><trkpt lat="42.86183483728327" lon="12.851607375220043"><ele>1016.4000000000001</ele><time>2026-04-18T10:23:53Z</time></trkpt><trkpt lat="42.86176977293238" lon="12.851504307414945"><ele>1015.2</ele><time>2026-04-18T10:23:54Z</time></trkpt><trkpt lat="42.86172360363611" lon="12.85141007494043"><ele>1014.0</ele><time>2026-04-18T10:23:55Z</time></trkpt><trkpt lat="42.86167671003464" lon="12.851330420051557"><ele>1016.6666666666666</ele><time>2026-04-18T10:23:56Z</time></trkpt><trkpt lat="42.861608335793335" lon="12.851281976966362"><ele>1019.3333333333333</ele><time>2026-04-18T10:23:57Z</time></trkpt><trkpt lat="42.86154815607227" lon="12.851237994441924"><ele>1022.0</ele><time>2026-04-18T10:23:58Z</time></trkpt><trkpt lat="42.86146967276303" lon="12.85118703866628"><ele>1024.6666666666665</ele><time>2026-04-18T10:23:59Z</time></trkpt><trkpt lat="42.861400325032044" lon="12.851147932315904"><ele>1027.3333333333333</ele><time>2026-04-18T10:24:00Z</time></trkpt><trkpt lat="42.86133629208543" lon="12.851130561414019"><ele>1030.0</ele><time>2026-04-18T10:24:01Z</time></trkpt><trkpt lat="42.86119495836949" lon="12.851087043721511"><ele>1030.0</ele><time>2026-04-18T10:24:03Z</time></trkpt><trkpt lat="42.86112564115157" lon="12.851078240917037"><ele>1030.0</ele><time>2026-04-18T10:24:04Z</time></trkpt><trkpt lat="42.86105083056415" lon="12.851064805649832"><ele>1030.0</ele><time>2026-04-18T10:24:06Z</time></trkpt><trkpt lat="42.86104376833082" lon="12.850471447568692"><ele>1027.4</ele><time>2026-04-18T10:24:08Z</time></trkpt><trkpt lat="42.86101213534784" lon="12.850358180246323"><ele>1024.8</ele><time>2026-04-18T10:24:10Z</time></trkpt><trkpt lat="42.86101836954572" lon="12.850206697826074"><ele>1022.2</ele><time>2026-04-18T10:24:12Z</time></trkpt><trkpt lat="42.86101651525362" lon="12.850080103957723"><ele>1019.6</ele><time>2026-04-18T10:24:13Z</time></trkpt><trkpt lat="42.8610348809177" lon="12.849929183231765"><ele>1017.0</ele><time>2026-04-18T10:24:14Z</time></trkpt><trkpt lat="42.86105288393424" lon="12.849782398714979"><ele>1013.6</ele><time>2026-04-18T10:24:15Z</time></trkpt><trkpt lat="42.86105624359461" lon="12.84964267163633"><ele>1010.2</ele><time>2026-04-18T10:24:16Z</time></trkpt><trkpt lat="42.86104985109226" lon="12.849497222132179"><ele>1006.8</ele><time>2026-04-18T10:24:17Z</time></trkpt><trkpt lat="42.861032595197756" lon="12.849354678217995"><ele>1003.4</ele><time>2026-04-18T10:24:18Z</time></trkpt><trkpt lat="42.86100209789781" lon="12.849213049503124"><ele>1000.0</ele><time>2026-04-18T10:24:19Z</time></trkpt><trkpt lat="42.86095863177516" lon="12.849072021641934"><ele>997.0</ele><time>2026-04-18T10:24:20Z</time></trkpt><trkpt lat="42.860907360166216" lon="12.848940532204272"><ele>994.0</ele><time>2026-04-18T10:24:21Z</time></trkpt><trkpt lat="42.86086635745198" lon="12.84882297775322"><ele>991.0</ele><time>2026-04-18T10:24:22Z</time></trkpt><trkpt lat="42.86083946289404" lon="12.84872277003096"><ele>988.0</ele><time>2026-04-18T10:24:23Z</time></trkpt><trkpt lat="42.86081052896973" lon="12.8486149838775"><ele>985.0</ele><time>2026-04-18T10:24:24Z</time></trkpt><trkpt lat="42.86077406181264" lon="12.848487684610262"><ele>983.0</ele><time>2026-04-18T10:24:25Z</time></trkpt><trkpt lat="42.8607423983779" lon="12.848347690754535"><ele>981.0</ele><time>2026-04-18T10:24:26Z</time></trkpt><trkpt lat="42.860723054364776" lon="12.848217575900332"><ele>979.0</ele><time>2026-04-18T10:24:27Z</time></trkpt><trkpt lat="42.860700654387315" lon="12.848092109098792"><ele>977.0</ele><time>2026-04-18T10:24:28Z</time></trkpt><trkpt lat="42.86068338566716" lon="12.84798582077341"><ele>975.0</ele><time>2026-04-18T10:24:29Z</time></trkpt><trkpt lat="42.86060938958666" lon="12.84783066625303"><ele>975.0</ele><time>2026-04-18T10:24:31Z</time></trkpt><trkpt lat="42.860551847656986" lon="12.84775641217592"><ele>975.0</ele><time>2026-04-18T10:24:32Z</time></trkpt><trkpt lat="42.860470674334174" lon="12.847678458054697"><ele>975.0</ele><time>2026-04-18T10:24:33Z</time></trkpt><trkpt lat="42.8603845323602" lon="12.847611959771832"><ele>975.0</ele><time>2026-04-18T10:24:34Z</time></trkpt><trkpt lat="42.86028740982135" lon="12.847550856848246"><ele>975.0</ele><time>2026-04-18T10:24:35Z</time></trkpt><trkpt lat="42.86020694938774" lon="12.847485538214602"><ele>972.1666666666666</ele><time>2026-04-18T10:24:36Z</time></trkpt><trkpt lat="42.860157222404446" lon="12.84740072187628"><ele>969.3333333333333</ele><time>2026-04-18T10:24:37Z</time></trkpt><trkpt lat="42.86015619202781" lon="12.847311385141156"><ele>966.5</ele><time>2026-04-18T10:24:38Z</time></trkpt><trkpt lat="42.86016455390468" lon="12.847223886512511"><ele>963.6666666666666</ele><time>2026-04-18T10:24:39Z</time></trkpt><trkpt lat="42.86018076431559" lon="12.847065209868852"><ele>960.8333333333333</ele><time>2026-04-18T10:24:41Z</time></trkpt><trkpt lat="42.860205790899485" lon="12.846970913501417"><ele>958.0</ele><time>2026-04-18T10:24:42Z</time></trkpt><trkpt lat="42.860217691287595" lon="12.846877618224612"><ele>958.0</ele><time>2026-04-18T10:24:44Z</time></trkpt><trkpt lat="42.860304180226635" lon="12.846831079411702"><ele>958.0</ele><time>2026-04-18T10:24:46Z</time></trkpt><trkpt lat="42.860444609621574" lon="12.846724774411392"><ele>958.0</ele><time>2026-04-18T10:24:48Z</time></trkpt><trkpt lat="42.860512119781625" lon="12.846656212855665"><ele>958.0</ele><time>2026-04-18T10:24:49Z</time></trkpt><trkpt lat="42.86057157036266" lon="12.846596217130843"><ele>958.0</ele><time>2026-04-18T10:24:50Z</time></trkpt><trkpt lat="42.86063076049953" lon="12.846531358184748"><ele>955.0</ele><time>2026-04-18T10:24:51Z</time></trkpt><trkpt lat="42.860697330592075" lon="12.846409087432912"><ele>952.0</ele><time>2026-04-18T10:24:53Z</time></trkpt><trkpt lat="42.86065924178754" lon="12.846325283850954"><ele>949.0</ele><time>2026-04-18T10:24:56Z</time></trkpt><trkpt lat="42.8605147109907" lon="12.846281864087956"><ele>946.0</ele><time>2026-04-18T10:24:58Z</time></trkpt><trkpt lat="42.860422261520306" lon="12.846285292527638"><ele>943.0</ele><time>2026-04-18T10:24:59Z</time></trkpt><trkpt lat="42.860355239790366" lon="12.846280673564653"><ele>943.0</ele><time>2026-04-18T10:25:00Z</time></trkpt><trkpt lat="42.86027637251594" lon="12.846245192948778"><ele>943.0</ele><time>2026-04-18T10:25:02Z</time></trkpt><trkpt lat="42.86018651856951" lon="12.846182500832816"><ele>943.0</ele><time>2026-04-18T10:25:03.999Z</time></trkpt><trkpt lat="42.86010137258097" lon="12.846159329227829"><ele>943.0</ele><time>2026-04-18T10:25:05.999Z</time></trkpt><trkpt lat="42.86002758621692" lon="12.846126796889132"><ele>943.0</ele><time>2026-04-18T10:25:07.999Z</time></trkpt><trkpt lat="42.85991806390362" lon="12.846083750200677"><ele>943.1666666666666</ele><time>2026-04-18T10:25:09.999Z</time></trkpt><trkpt lat="42.8598149333948" lon="12.846035225545952"><ele>943.3333333333333</ele><time>2026-04-18T10:25:11.999Z</time></trkpt><trkpt lat="42.85973914486972" lon="12.845995520841674"><ele>943.5</ele><time>2026-04-18T10:25:13.999Z</time></trkpt><trkpt lat="42.85967123941244" lon="12.845967804154471"><ele>943.6666666666667</ele><time>2026-04-18T10:25:15.999Z</time></trkpt><trkpt lat="42.85960121181883" lon="12.845926907852782"><ele>943.8333333333334</ele><time>2026-04-18T10:25:18.999Z</time></trkpt><trkpt lat="42.85952799512573" lon="12.84589101026515"><ele>944.0</ele><time>2026-04-18T10:25:20.999Z</time></trkpt><trkpt lat="42.85946221334589" lon="12.845851737521901"><ele>942.8333333333334</ele><time>2026-04-18T10:25:22.999Z</time></trkpt><trkpt lat="42.859392676633036" lon="12.845816676418131"><ele>941.6666666666667</ele><time>2026-04-18T10:25:25.999Z</time></trkpt><trkpt lat="42.85931957836806" lon="12.84578801307448"><ele>940.5</ele><time>2026-04-18T10:25:28.999Z</time></trkpt><trkpt lat="42.85925479539527" lon="12.845749031407001"><ele>939.3333333333333</ele><time>2026-04-18T10:25:30.999Z</time></trkpt><trkpt lat="42.85916222317451" lon="12.845710941079792"><ele>938.1666666666666</ele><time>2026-04-18T10:25:33.999Z</time></trkpt><trkpt lat="42.85908259493374" lon="12.845703663203595"><ele>937.0</ele><time>2026-04-18T10:25:36.999Z</time></trkpt><trkpt lat="42.85901421203358" lon="12.845672028462719"><ele>936.1428571428571</ele><time>2026-04-18T10:25:41Z</time></trkpt><trkpt lat="42.85893727383508" lon="12.845653842059203"><ele>935.2857142857143</ele><time>2026-04-18T10:25:47Z</time></trkpt><trkpt lat="42.85888227235813" lon="12.845610644342901"><ele>934.4285714285714</ele><time>2026-04-18T10:25:52Z</time></trkpt><trkpt lat="42.858828983482695" lon="12.845561754923997"><ele>933.5714285714286</ele><time>2026-04-18T10:26:39Z</time></trkpt><trkpt lat="42.85876451793716" lon="12.84548925086754"><ele>932.7142857142858</ele><time>2026-04-18T10:26:50Z</time></trkpt><trkpt lat="42.85871142653528" lon="12.845419222756911"><ele>931.8571428571429</ele><time>2026-04-18T10:26:53Z</time></trkpt><trkpt lat="42.85864922053016" lon="12.845363867121328"><ele>931.0</ele><time>2026-04-18T10:26:55Z</time></trkpt><trkpt lat="42.85858557796835" lon="12.845270188432547"><ele>931.0</ele><time>2026-04-18T10:26:57Z</time></trkpt><trkpt lat="42.85851915768096" lon="12.845248999949249"><ele>931.0</ele><time>2026-04-18T10:26:59Z</time></trkpt><trkpt lat="42.858435521969696" lon="12.845237642051208"><ele>931.0</ele><time>2026-04-18T10:27:02Z</time></trkpt><trkpt lat="42.858370157286146" lon="12.845192058911769"><ele>931.0</ele><time>2026-04-18T10:27:04Z</time></trkpt><trkpt lat="42.858300583590776" lon="12.845155504647837"><ele>931.0</ele><time>2026-04-18T10:27:06Z</time></trkpt><trkpt lat="42.85824024916758" lon="12.845114177633068"><ele>931.0</ele><time>2026-04-18T10:27:08Z</time></trkpt><trkpt lat="42.8581798326435" lon="12.845079921835397"><ele>931.0</ele><time>2026-04-18T10:27:10Z</time></trkpt><trkpt lat="42.85810895006041" lon="12.845037586689607"><ele>929.1428571428571</ele><time>2026-04-18T10:27:12.999Z</time></trkpt><trkpt lat="42.858049089076175" lon="12.845010583292185"><ele>927.2857142857142</ele><time>2026-04-18T10:27:17.999Z</time></trkpt><trkpt lat="42.85798922970574" lon="12.844982455479562"><ele>925.4285714285714</ele><time>2026-04-18T10:27:25.999Z</time></trkpt><trkpt lat="42.85791815729771" lon="12.84494497671685"><ele>923.5714285714286</ele><time>2026-04-18T10:27:29.999Z</time></trkpt><trkpt lat="42.857864796143346" lon="12.844887583898696"><ele>921.7142857142857</ele><time>2026-04-18T10:27:32.999Z</time></trkpt><trkpt lat="42.85780513644758" lon="12.844849957786034"><ele>919.8571428571429</ele><time>2026-04-18T10:27:34.999Z</time></trkpt><trkpt lat="42.85774561673748" lon="12.844804942877342"><ele>918.0</ele><time>2026-04-18T10:27:37.999Z</time></trkpt><trkpt lat="42.857691766411556" lon="12.844758034467509"><ele>918.0</ele><time>2026-04-18T10:27:39.999Z</time></trkpt><trkpt lat="42.85762699633887" lon="12.844745635776324"><ele>918.0</ele><time>2026-04-18T10:27:41.999Z</time></trkpt><trkpt lat="42.85756566465599" lon="12.844705292884585"><ele>918.0</ele><time>2026-04-18T10:27:43.999Z</time></trkpt><trkpt lat="42.85750639423593" lon="12.844671551762463"><ele>918.0</ele><time>2026-04-18T10:27:46Z</time></trkpt><trkpt lat="42.85744493806933" lon="12.844635918776198"><ele>918.0</ele><time>2026-04-18T10:27:48Z</time></trkpt><trkpt lat="42.85735913075396" lon="12.844552824693704"><ele>918.0</ele><time>2026-04-18T10:27:50Z</time></trkpt><trkpt lat="42.85731299190155" lon="12.844476632500657"><ele>918.0</ele><time>2026-04-18T10:27:52Z</time></trkpt><trkpt lat="42.85725549379732" lon="12.844417677603222"><ele>918.5</ele><time>2026-04-18T10:27:54Z</time></trkpt><trkpt lat="42.857194435892175" lon="12.844344184878713"><ele>919.0</ele><time>2026-04-18T10:27:56Z</time></trkpt><trkpt lat="42.85712442797603" lon="12.844272528189467"><ele>919.5</ele><time>2026-04-18T10:27:58Z</time></trkpt><trkpt lat="42.857067211672366" lon="12.844202840182769"><ele>920.0</ele><time>2026-04-18T10:28:00Z</time></trkpt><trkpt lat="42.85687874271658" lon="12.844015156029899"><ele>915.6</ele><time>2026-04-18T10:28:01Z</time></trkpt><trkpt lat="42.85677792338321" lon="12.843968930685605"><ele>911.2</ele><time>2026-04-18T10:28:02Z</time></trkpt><trkpt lat="42.856673585474965" lon="12.843931367197566"><ele>906.8</ele><time>2026-04-18T10:28:03Z</time></trkpt><trkpt lat="42.85657990117418" lon="12.843908822943952"><ele>902.4</ele><time>2026-04-18T10:28:04Z</time></trkpt><trkpt lat="42.85648910994664" lon="12.843888581096904"><ele>898.0</ele><time>2026-04-18T10:28:05Z</time></trkpt><trkpt lat="42.85639608071696" lon="12.843866905549165"><ele>898.0</ele><time>2026-04-18T10:28:06Z</time></trkpt><trkpt lat="42.856304394676286" lon="12.843833296103666"><ele>898.0</ele><time>2026-04-18T10:28:07Z</time></trkpt><trkpt lat="42.8562108104912" lon="12.843789501512296"><ele>898.0</ele><time>2026-04-18T10:28:08Z</time></trkpt><trkpt lat="42.85612102151274" lon="12.84374948975595"><ele>898.0</ele><time>2026-04-18T10:28:09Z</time></trkpt><trkpt lat="42.85603088500692" lon="12.84372050788334"><ele>898.0</ele><time>2026-04-18T10:28:10Z</time></trkpt><trkpt lat="42.855946077393305" lon="12.843698158038459"><ele>897.9999999999999</ele><time>2026-04-18T10:28:11Z</time></trkpt><trkpt lat="42.85586845154411" lon="12.843681485522369"><ele>898.0</ele><time>2026-04-18T10:28:12Z</time></trkpt><trkpt lat="42.85579062700419" lon="12.843666592155737"><ele>898.0</ele><time>2026-04-18T10:28:13Z</time></trkpt><trkpt lat="42.85570790006837" lon="12.843639670268042"><ele>898.0</ele><time>2026-04-18T10:28:14Z</time></trkpt><trkpt lat="42.85562768922311" lon="12.843599896564585"><ele>897.9999999999999</ele><time>2026-04-18T10:28:15Z</time></trkpt><trkpt lat="42.855545136684434" lon="12.843567135417583"><ele>898.0</ele><time>2026-04-18T10:28:16Z</time></trkpt><trkpt lat="42.85546737538175" lon="12.843532671904384"><ele>897.9999999999999</ele><time>2026-04-18T10:28:17Z</time></trkpt><trkpt lat="42.855394821375036" lon="12.84349262717952"><ele>898.0</ele><time>2026-04-18T10:28:18Z</time></trkpt><trkpt lat="42.85531693412997" lon="12.843458392380189"><ele>898.0</ele><time>2026-04-18T10:28:19Z</time></trkpt><trkpt lat="42.85523746761715" lon="12.843429920869008"><ele>898.0</ele><time>2026-04-18T10:28:20Z</time></trkpt><trkpt lat="42.85515686527266" lon="12.843411148339602"><ele>897.9999999999999</ele><time>2026-04-18T10:28:21Z</time></trkpt><trkpt lat="42.85509214098576" lon="12.843383319604552"><ele>898.0</ele><time>2026-04-18T10:28:22Z</time></trkpt><trkpt lat="42.855023274714675" lon="12.843318487858927"><ele>893.5999999999999</ele><time>2026-04-18T10:28:24Z</time></trkpt><trkpt lat="42.855123371256155" lon="12.8432414120286"><ele>889.1999999999999</ele><time>2026-04-18T10:28:25Z</time></trkpt><trkpt lat="42.85504120960361" lon="12.843167743911755"><ele>884.8</ele><time>2026-04-18T10:28:27Z</time></trkpt><trkpt lat="42.855109032625144" lon="12.8431169599445"><ele>880.4</ele><time>2026-04-18T10:28:29Z</time></trkpt><trkpt lat="42.85508063665329" lon="12.843014363263489"><ele>876.0</ele><time>2026-04-18T10:28:32Z</time></trkpt><trkpt lat="42.85506464077781" lon="12.842899634524995"><ele>875.25</ele><time>2026-04-18T10:28:36Z</time></trkpt><trkpt lat="42.85488413110928" lon="12.842928891804684"><ele>874.5</ele><time>2026-04-18T10:28:37Z</time></trkpt><trkpt lat="42.85479369381738" lon="12.842922965415527"><ele>873.75</ele><time>2026-04-18T10:28:39Z</time></trkpt><trkpt lat="42.8547119600925" lon="12.842907299608795"><ele>873.0</ele><time>2026-04-18T10:28:41Z</time></trkpt><trkpt lat="42.85466510213699" lon="12.84266045138113"><ele>873.0</ele><time>2026-04-18T10:28:42Z</time></trkpt><trkpt lat="42.854561483711386" lon="12.84266298811362"><ele>873.0</ele><time>2026-04-18T10:28:44Z</time></trkpt><trkpt lat="42.85452097831506" lon="12.842881399403383"><ele>873.0</ele><time>2026-04-18T10:28:45Z</time></trkpt><trkpt lat="42.854429249799914" lon="12.84285321664347"><ele>873.0</ele><time>2026-04-18T10:28:47Z</time></trkpt><trkpt lat="42.85433770595285" lon="12.842659071079384"><ele>873.0</ele><time>2026-04-18T10:28:49Z</time></trkpt><trkpt lat="42.854274222583264" lon="12.842655723276664"><ele>873.0</ele><time>2026-04-18T10:28:50Z</time></trkpt><trkpt lat="42.854189267396436" lon="12.842651243147191"><ele>873.0</ele><time>2026-04-18T10:28:53Z</time></trkpt><trkpt lat="42.8540976439051" lon="12.842591690457082"><ele>873.0</ele><time>2026-04-18T10:28:56Z</time></trkpt><trkpt lat="42.854033416665466" lon="12.842528575865302"><ele>873.0</ele><time>2026-04-18T10:28:58Z</time></trkpt><trkpt lat="42.85392956435197" lon="12.842482135173503"><ele>873.0</ele><time>2026-04-18T10:29:00Z</time></trkpt><trkpt lat="42.85387436028139" lon="12.842426715188127"><ele>873.0</ele><time>2026-04-18T10:29:02Z</time></trkpt><trkpt lat="42.85382140611868" lon="12.84237342310744"><ele>873.0</ele><time>2026-04-18T10:29:04Z</time></trkpt><trkpt lat="42.853730716382195" lon="12.842293869448897"><ele>873.0</ele><time>2026-04-18T10:29:06Z</time></trkpt><trkpt lat="42.85366457822013" lon="12.84227435696975"><ele>873.0</ele><time>2026-04-18T10:29:07Z</time></trkpt><trkpt lat="42.853603271183246" lon="12.8422458894297"><ele>873.0</ele><time>2026-04-18T10:29:08Z</time></trkpt><trkpt lat="42.85354509190824" lon="12.84215799536636"><ele>873.0</ele><time>2026-04-18T10:29:10Z</time></trkpt><trkpt lat="42.85353795239086" lon="12.842002847021162"><ele>873.0</ele><time>2026-04-18T10:29:12Z</time></trkpt><trkpt lat="42.853512840928914" lon="12.841920531272654"><ele>873.0</ele><time>2026-04-18T10:29:13Z</time></trkpt><trkpt lat="42.85347981982107" lon="12.841847274329439"><ele>873.0</ele><time>2026-04-18T10:29:14Z</time></trkpt><trkpt lat="42.8534434834333" lon="12.841773919270633"><ele>873.0</ele><time>2026-04-18T10:29:14.999Z</time></trkpt><trkpt lat="42.85336112261606" lon="12.841679157556134"><ele>873.0</ele><time>2026-04-18T10:29:16.999Z</time></trkpt><trkpt lat="42.853331480458905" lon="12.841570663138743"><ele>873.0</ele><time>2026-04-18T10:29:19.999Z</time></trkpt><trkpt lat="42.85337213675719" lon="12.84149100438401"><ele>873.7142857142857</ele><time>2026-04-18T10:29:21.999Z</time></trkpt><trkpt lat="42.853399274142085" lon="12.841397081309918"><ele>874.4285714285714</ele><time>2026-04-18T10:29:23.999Z</time></trkpt><trkpt lat="42.853398860913806" lon="12.841295559224736"><ele>875.1428571428571</ele><time>2026-04-18T10:29:26.999Z</time></trkpt><trkpt lat="42.853411983281525" lon="12.841206118563415"><ele>875.8571428571429</ele><time>2026-04-18T10:29:28.999Z</time></trkpt><trkpt lat="42.85341317579589" lon="12.841095524964198"><ele>876.5714285714286</ele><time>2026-04-18T10:29:31.999Z</time></trkpt><trkpt lat="42.853408165095345" lon="12.841002752747482"><ele>877.2857142857142</ele><time>2026-04-18T10:29:33.999Z</time></trkpt><trkpt lat="42.853432103188204" lon="12.840923084970607"><ele>878.0</ele><time>2026-04-18T10:29:35.999Z</time></trkpt><trkpt lat="42.853481784402376" lon="12.840822254399562"><ele>884.6666666666667</ele><time>2026-04-18T10:29:37.999Z</time></trkpt><trkpt lat="42.8535375270223" lon="12.840743122558438"><ele>891.3333333333334</ele><time>2026-04-18T10:29:40.999Z</time></trkpt><trkpt lat="42.85359137808048" lon="12.840651913579066"><ele>898.0</ele><time>2026-04-18T10:29:42.999Z</time></trkpt><trkpt lat="42.85363443000645" lon="12.840563695389946"><ele>904.6666666666667</ele><time>2026-04-18T10:29:44.999Z</time></trkpt><trkpt lat="42.85358861933181" lon="12.840487214712885"><ele>911.3333333333334</ele><time>2026-04-18T10:29:47.999Z</time></trkpt><trkpt lat="42.85355870521074" lon="12.840408089132943"><ele>918.0</ele><time>2026-04-18T10:29:49.999Z</time></trkpt><trkpt lat="42.85361765896053" lon="12.840341428980427"><ele>918.0</ele><time>2026-04-18T10:29:52Z</time></trkpt><trkpt lat="42.85365197778736" lon="12.840241577879379"><ele>918.0</ele><time>2026-04-18T10:29:55Z</time></trkpt><trkpt lat="42.853597802013134" lon="12.840193034896275"><ele>918.0</ele><time>2026-04-18T10:29:57Z</time></trkpt><trkpt lat="42.853558548632115" lon="12.840116928093293"><ele>918.0</ele><time>2026-04-18T10:29:59Z</time></trkpt><trkpt lat="42.853517109925534" lon="12.840047533340572"><ele>918.0</ele><time>2026-04-18T10:30:01Z</time></trkpt><trkpt lat="42.853449264996215" lon="12.839992609809086"><ele>918.0</ele><time>2026-04-18T10:30:04Z</time></trkpt><trkpt lat="42.85339110761696" lon="12.839957285810017"><ele>918.0</ele><time>2026-04-18T10:30:06Z</time></trkpt><trkpt lat="42.85332796037815" lon="12.839894536020225"><ele>915.5</ele><time>2026-04-18T10:30:09Z</time></trkpt><trkpt lat="42.85326567887203" lon="12.839823848489257"><ele>913.0</ele><time>2026-04-18T10:30:12Z</time></trkpt><trkpt lat="42.853206522877365" lon="12.839775184884985"><ele>910.5</ele><time>2026-04-18T10:30:14Z</time></trkpt><trkpt lat="42.85316380414155" lon="12.839709767142335"><ele>908.0</ele><time>2026-04-18T10:30:17Z</time></trkpt><trkpt lat="42.85313501756641" lon="12.839586911529002"><ele>905.5</ele><time>2026-04-18T10:30:36Z</time></trkpt><trkpt lat="42.853125447824695" lon="12.839432083500801"><ele>903.0</ele><time>2026-04-18T10:30:38Z</time></trkpt><trkpt lat="42.85311273542364" lon="12.839343950596193"><ele>903.0</ele><time>2026-04-18T10:30:45Z</time></trkpt><trkpt lat="42.85304007096294" lon="12.839317114854001"><ele>903.0</ele><time>2026-04-18T10:30:47Z</time></trkpt><trkpt lat="42.85302223706638" lon="12.839219957154878"><ele>903.0</ele><time>2026-04-18T10:30:49Z</time></trkpt><trkpt lat="42.85298112970793" lon="12.839148721274366"><ele>903.0</ele><time>2026-04-18T10:30:51Z</time></trkpt><trkpt lat="42.85290393258027" lon="12.839109846199014"><ele>903.0</ele><time>2026-04-18T10:30:54Z</time></trkpt><trkpt lat="42.852820492789704" lon="12.839045987070476"><ele>903.0</ele><time>2026-04-18T10:30:56Z</time></trkpt><trkpt lat="42.852769843127454" lon="12.838966330517822"><ele>905.3333333333334</ele><time>2026-04-18T10:30:58Z</time></trkpt><trkpt lat="42.85270034786356" lon="12.838896242071808"><ele>907.6666666666667</ele><time>2026-04-18T10:31:07Z</time></trkpt><trkpt lat="42.85264517871575" lon="12.83882006386191"><ele>910.0</ele><time>2026-04-18T10:31:10Z</time></trkpt><trkpt lat="42.85255896899234" lon="12.83881077985249"><ele>912.3333333333334</ele><time>2026-04-18T10:31:13Z</time></trkpt><trkpt lat="42.85248743763164" lon="12.838809219685956"><ele>914.6666666666667</ele><time>2026-04-18T10:31:15Z</time></trkpt><trkpt lat="42.85239253881488" lon="12.838789403384176"><ele>917.0</ele><time>2026-04-18T10:31:17Z</time></trkpt><trkpt lat="42.85231974833684" lon="12.838758292192606"><ele>917.0000000000001</ele><time>2026-04-18T10:31:18Z</time></trkpt><trkpt lat="42.85224109361985" lon="12.838735262654463"><ele>917.0</ele><time>2026-04-18T10:31:19Z</time></trkpt><trkpt lat="42.852142326109224" lon="12.838721149023549"><ele>917.0</ele><time>2026-04-18T10:31:20Z</time></trkpt><trkpt lat="42.85205438824213" lon="12.838683887788676"><ele>917.0</ele><time>2026-04-18T10:31:21Z</time></trkpt><trkpt lat="42.85197785959635" lon="12.838645731475145"><ele>917.0000000000001</ele><time>2026-04-18T10:31:22Z</time></trkpt><trkpt lat="42.85190953165215" lon="12.83860494590885"><ele>917.0</ele><time>2026-04-18T10:31:23Z</time></trkpt><trkpt lat="42.85184568307688" lon="12.83849519577605"><ele>921.8333333333334</ele><time>2026-04-18T10:31:25Z</time></trkpt><trkpt lat="42.851774640813694" lon="12.83838422772423"><ele>926.6666666666667</ele><time>2026-04-18T10:31:27Z</time></trkpt><trkpt lat="42.85171085801947" lon="12.838291821849056"><ele>931.5</ele><time>2026-04-18T10:31:30Z</time></trkpt><trkpt lat="42.851656510534966" lon="12.838239900927826"><ele>936.3333333333333</ele><time>2026-04-18T10:31:31Z</time></trkpt><trkpt lat="42.85161108954809" lon="12.838169296798487"><ele>941.1666666666666</ele><time>2026-04-18T10:31:31.999Z</time></trkpt><trkpt lat="42.85154320858805" lon="12.838083708184273"><ele>946.0</ele><time>2026-04-18T10:31:33.999Z</time></trkpt><trkpt lat="42.85148991462787" lon="12.837963306933753"><ele>945.9999999999999</ele><time>2026-04-18T10:31:35.999Z</time></trkpt><trkpt lat="42.85139613616179" lon="12.83791178446618"><ele>946.0</ele><time>2026-04-18T10:31:37.999Z</time></trkpt><trkpt lat="42.85133206344658" lon="12.837859253781714"><ele>946.0</ele><time>2026-04-18T10:31:39.999Z</time></trkpt><trkpt lat="42.851241745596965" lon="12.837789042624536"><ele>946.0</ele><time>2026-04-18T10:31:41.999Z</time></trkpt><trkpt lat="42.85117738589376" lon="12.83773540047085"><ele>945.9999999999999</ele><time>2026-04-18T10:31:42.999Z</time></trkpt><trkpt lat="42.8511175695455" lon="12.837678837624916"><ele>946.0</ele><time>2026-04-18T10:31:43.999Z</time></trkpt><trkpt lat="42.85102616517849" lon="12.837604412086902"><ele>949.5999999999999</ele><time>2026-04-18T10:31:45.999Z</time></trkpt><trkpt lat="42.85095929984084" lon="12.837597521316589"><ele>953.1999999999999</ele><time>2026-04-18T10:31:46.999Z</time></trkpt><trkpt lat="42.85089205827693" lon="12.83758073167412"><ele>956.8000000000001</ele><time>2026-04-18T10:31:47.999Z</time></trkpt><trkpt lat="42.850772161805935" lon="12.837543204528158"><ele>960.4000000000001</ele><time>2026-04-18T10:31:49.999Z</time></trkpt><trkpt lat="42.85070565891085" lon="12.837515598508812"><ele>964.0</ele><time>2026-04-18T10:31:50.999Z</time></trkpt><trkpt lat="42.85059563380656" lon="12.837433112421222"><ele>963.9999999999999</ele><time>2026-04-18T10:31:52.999Z</time></trkpt><trkpt lat="42.85054102828778" lon="12.837371654661801"><ele>964.0</ele><time>2026-04-18T10:31:53.999Z</time></trkpt><trkpt lat="42.8504880042653" lon="12.837317094995793"><ele>964.0</ele><time>2026-04-18T10:31:54.999Z</time></trkpt><trkpt lat="42.85042275498526" lon="12.837240242028866"><ele>964.0</ele><time>2026-04-18T10:31:56.999Z</time></trkpt><trkpt lat="42.85034949208405" lon="12.837164274819962"><ele>963.9999999999999</ele><time>2026-04-18T10:31:59Z</time></trkpt><trkpt lat="42.85030518393851" lon="12.83709919752358"><ele>964.0</ele><time>2026-04-18T10:32:00Z</time></trkpt><trkpt lat="42.850215598570436" lon="12.836995301701002"><ele>967.6666666666666</ele><time>2026-04-18T10:32:02Z</time></trkpt><trkpt lat="42.850121890718945" lon="12.836917239339119"><ele>971.3333333333333</ele><time>2026-04-18T10:32:04Z</time></trkpt><trkpt lat="42.850077995848174" lon="12.836785250341542"><ele>975.0</ele><time>2026-04-18T10:32:06Z</time></trkpt><trkpt lat="42.85007204382594" lon="12.836694406312736"><ele>978.6666666666667</ele><time>2026-04-18T10:32:08Z</time></trkpt><trkpt lat="42.85005469110711" lon="12.836597010668164"><ele>982.3333333333334</ele><time>2026-04-18T10:32:11Z</time></trkpt><trkpt lat="42.84999552973299" lon="12.836539853520236"><ele>986.0</ele><time>2026-04-18T10:32:17Z</time></trkpt><trkpt lat="42.8499192766295" lon="12.836516083838168"><ele>986.0000000000001</ele><time>2026-04-18T10:32:19Z</time></trkpt><trkpt lat="42.84984667409222" lon="12.836453309133095"><ele>986.0</ele><time>2026-04-18T10:32:21Z</time></trkpt><trkpt lat="42.849785637893646" lon="12.836414631594208"><ele>986.0</ele><time>2026-04-18T10:32:30Z</time></trkpt><trkpt lat="42.849717307648255" lon="12.8363681059057"><ele>986.0</ele><time>2026-04-18T10:32:33Z</time></trkpt><trkpt lat="42.84965380658438" lon="12.836291950278914"><ele>986.0000000000001</ele><time>2026-04-18T10:32:35Z</time></trkpt><trkpt lat="42.84957130198139" lon="12.83623328115371"><ele>986.0</ele><time>2026-04-18T10:32:38Z</time></trkpt><trkpt lat="42.84952335889377" lon="12.836172006489093"><ele>986.0</ele><time>2026-04-18T10:32:41Z</time></trkpt><trkpt lat="42.849515210182126" lon="12.836071838682411"><ele>986.0</ele><time>2026-04-18T10:32:43Z</time></trkpt><trkpt lat="42.84944898706654" lon="12.836054713903176"><ele>986.0</ele><time>2026-04-18T10:32:46Z</time></trkpt><trkpt lat="42.84938554964014" lon="12.836002532194767"><ele>986.0</ele><time>2026-04-18T10:32:49Z</time></trkpt><trkpt lat="42.84933054550179" lon="12.835907754399358"><ele>986.0</ele><time>2026-04-18T10:32:51Z</time></trkpt><trkpt lat="42.8493060101163" lon="12.835812349394319"><ele>986.0</ele><time>2026-04-18T10:32:53Z</time></trkpt><trkpt lat="42.849266199031305" lon="12.835739407045171"><ele>986.0</ele><time>2026-04-18T10:32:54Z</time></trkpt><trkpt lat="42.849228691476554" lon="12.835625917551987"><ele>987.0000000000001</ele><time>2026-04-18T10:32:56Z</time></trkpt><trkpt lat="42.84919646379308" lon="12.835545696206447"><ele>988.0</ele><time>2026-04-18T10:32:58Z</time></trkpt><trkpt lat="42.84915973217926" lon="12.835454770519641"><ele>989.0</ele><time>2026-04-18T10:33:01Z</time></trkpt><trkpt lat="42.84911911525066" lon="12.835357021661261"><ele>990.0</ele><time>2026-04-18T10:33:06Z</time></trkpt><trkpt lat="42.84911055395041" lon="12.835240411588817"><ele>991.0000000000001</ele><time>2026-04-18T10:33:09Z</time></trkpt><trkpt lat="42.84911768415648" lon="12.835148878047804"><ele>992.0</ele><time>2026-04-18T10:33:11Z</time></trkpt><trkpt lat="42.84909345095072" lon="12.835039985399531"><ele>996.3333333333334</ele><time>2026-04-18T10:33:14Z</time></trkpt><trkpt lat="42.84906437513926" lon="12.834943795257939"><ele>1000.6666666666667</ele><time>2026-04-18T10:33:16Z</time></trkpt><trkpt lat="42.849069078966174" lon="12.834812365681461"><ele>1005.0</ele><time>2026-04-18T10:33:19Z</time></trkpt><trkpt lat="42.849110055112845" lon="12.834687575145132"><ele>1009.3333333333333</ele><time>2026-04-18T10:33:21Z</time></trkpt><trkpt lat="42.84913930756478" lon="12.834576298014008"><ele>1013.6666666666666</ele><time>2026-04-18T10:33:23Z</time></trkpt><trkpt lat="42.84917919923507" lon="12.834484787140175"><ele>1018.0</ele><time>2026-04-18T10:33:25Z</time></trkpt><trkpt lat="42.84919728995018" lon="12.834341114095219"><ele>1018.4</ele><time>2026-04-18T10:33:27Z</time></trkpt><trkpt lat="42.84916284911028" lon="12.834186574290548"><ele>1018.8</ele><time>2026-04-18T10:33:29Z</time></trkpt><trkpt lat="42.849125045183065" lon="12.834008567991047"><ele>1019.2</ele><time>2026-04-18T10:33:31Z</time></trkpt><trkpt lat="42.8491094316007" lon="12.833899081681416"><ele>1019.6</ele><time>2026-04-18T10:33:32Z</time></trkpt><trkpt lat="42.849087633297636" lon="12.833803602010589"><ele>1020.0</ele><time>2026-04-18T10:33:33Z</time></trkpt><trkpt lat="42.84905164349551" lon="12.833708861405285"><ele>1020.0</ele><time>2026-04-18T10:33:34Z</time></trkpt><trkpt lat="42.84902458819048" lon="12.833618699146266"><ele>1020.0</ele><time>2026-04-18T10:33:35Z</time></trkpt><trkpt lat="42.848986634552084" lon="12.833483365230341"><ele>1020.0</ele><time>2026-04-18T10:33:36.999Z</time></trkpt><trkpt lat="42.84895192297991" lon="12.833328704176399"><ele>1020.0</ele><time>2026-04-18T10:33:38.999Z</time></trkpt><trkpt lat="42.848917319838954" lon="12.833201757390084"><ele>1020.0</ele><time>2026-04-18T10:33:40.999Z</time></trkpt><trkpt lat="42.848858492712345" lon="12.833163726775322"><ele>1023.2</ele><time>2026-04-18T10:33:41.999Z</time></trkpt><trkpt lat="42.84877906453109" lon="12.833100831721685"><ele>1026.4</ele><time>2026-04-18T10:33:43.999Z</time></trkpt><trkpt lat="42.8486931048459" lon="12.833020268015465"><ele>1029.6</ele><time>2026-04-18T10:33:45.999Z</time></trkpt><trkpt lat="42.84863415714591" lon="12.832963357949948"><ele>1032.8</ele><time>2026-04-18T10:33:46.999Z</time></trkpt><trkpt lat="42.84858068312493" lon="12.832912059049516"><ele>1036.0</ele><time>2026-04-18T10:33:47.999Z</time></trkpt><trkpt lat="42.848482984785655" lon="12.832821469046813"><ele>1032.6</ele><time>2026-04-18T10:33:49.998Z</time></trkpt><trkpt lat="42.848407125344536" lon="12.83272145819904"><ele>1029.1999999999998</ele><time>2026-04-18T10:33:51.998Z</time></trkpt><trkpt lat="42.848350312468696" lon="12.832680001852363"><ele>1025.8000000000002</ele><time>2026-04-18T10:33:52.998Z</time></trkpt><trkpt lat="42.848269900783635" lon="12.832556514440034"><ele>1022.4000000000001</ele><time>2026-04-18T10:33:54.998Z</time></trkpt><trkpt lat="42.84820336957261" lon="12.832461849058879"><ele>1019.0</ele><time>2026-04-18T10:33:56.998Z</time></trkpt><trkpt lat="42.8481443223031" lon="12.832374460255133"><ele>1019.0000000000001</ele><time>2026-04-18T10:33:57.998Z</time></trkpt><trkpt lat="42.84809382968696" lon="12.832318974181408"><ele>1019.0</ele><time>2026-04-18T10:33:58.998Z</time></trkpt><trkpt lat="42.8480239170817" lon="12.832184692983947"><ele>1019.0</ele><time>2026-04-18T10:34:00.998Z</time></trkpt><trkpt lat="42.847988800838145" lon="12.832112628750917"><ele>1019.0</ele><time>2026-04-18T10:34:01.998Z</time></trkpt><trkpt lat="42.84795297003962" lon="12.832036037507843"><ele>1019.0000000000001</ele><time>2026-04-18T10:34:02.998Z</time></trkpt><trkpt lat="42.8478845199619" lon="12.831899734054694"><ele>1019.0</ele><time>2026-04-18T10:34:04.999Z</time></trkpt><trkpt lat="42.847826560453775" lon="12.831767600066728"><ele>1024.4</ele><time>2026-04-18T10:34:06.999Z</time></trkpt><trkpt lat="42.84778291454666" lon="12.831625147448378"><ele>1029.8000000000002</ele><time>2026-04-18T10:34:08.999Z</time></trkpt><trkpt lat="42.847739304558715" lon="12.83148752351015"><ele>1035.1999999999998</ele><time>2026-04-18T10:34:10.999Z</time></trkpt><trkpt lat="42.84770145805929" lon="12.83137453226553"><ele>1040.6</ele><time>2026-04-18T10:34:12.999Z</time></trkpt><trkpt lat="42.847674083544725" lon="12.831278279849249"><ele>1046.0</ele><time>2026-04-18T10:34:13.999Z</time></trkpt><trkpt lat="42.84765002738437" lon="12.83119108633892"><ele>1046.0</ele><time>2026-04-18T10:34:14.999Z</time></trkpt><trkpt lat="42.84763188096782" lon="12.831098370261461"><ele>1046.0</ele><time>2026-04-18T10:34:15.999Z</time></trkpt><trkpt lat="42.84757684987019" lon="12.830954072205458"><ele>1046.0</ele><time>2026-04-18T10:34:17.999Z</time></trkpt><trkpt lat="42.84753428156517" lon="12.83083584064639"><ele>1046.0</ele><time>2026-04-18T10:34:39.999Z</time></trkpt><trkpt lat="42.847622067350365" lon="12.830932272355227"><ele>1046.0</ele><time>2026-04-18T10:34:52.999Z</time></trkpt><trkpt lat="42.8476908419582" lon="12.831015967029993"><ele>1046.0</ele><time>2026-04-18T10:34:53.999Z</time></trkpt><trkpt lat="42.847757613604855" lon="12.831078771366833"><ele>1046.0</ele><time>2026-04-18T10:34:54.999Z</time></trkpt><trkpt lat="42.84780977584744" lon="12.831155090068387"><ele>1046.0</ele><time>2026-04-18T10:34:55.999Z</time></trkpt><trkpt lat="42.84786172301809" lon="12.83124083260995"><ele>1046.0</ele><time>2026-04-18T10:34:56.999Z</time></trkpt><trkpt lat="42.84792421410441" lon="12.831327806324438"><ele>1046.0</ele><time>2026-04-18T10:34:57.999Z</time></trkpt><trkpt lat="42.84798092657802" lon="12.831382916367202"><ele>1046.0</ele><time>2026-04-18T10:34:58.999Z</time></trkpt><trkpt lat="42.84805966685858" lon="12.831445980446706"><ele>1046.0</ele><time>2026-04-18T10:34:59.999Z</time></trkpt><trkpt lat="42.848128957097984" lon="12.831513109243456"><ele>1046.0</ele><time>2026-04-18T10:35:00.999Z</time></trkpt><trkpt lat="42.84820050912502" lon="12.831579152795873"><ele>1046.0</ele><time>2026-04-18T10:35:01.999Z</time></trkpt><trkpt lat="42.848274714712225" lon="12.831637027215452"><ele>1046.0</ele><time>2026-04-18T10:35:02.999Z</time></trkpt><trkpt lat="42.84834645888793" lon="12.831696858622111"><ele>1046.0</ele><time>2026-04-18T10:35:03.999Z</time></trkpt><trkpt lat="42.848429934329005" lon="12.831763482058333"><ele>1046.0</ele><time>2026-04-18T10:35:04.999Z</time></trkpt><trkpt lat="42.848503134981236" lon="12.831816761416235"><ele>1048.0</ele><time>2026-04-18T10:35:05.999Z</time></trkpt><trkpt lat="42.84857739209436" lon="12.831873181162315"><ele>1050.0</ele><time>2026-04-18T10:35:06.999Z</time></trkpt><trkpt lat="42.848650971887395" lon="12.831928251818738"><ele>1052.0</ele><time>2026-04-18T10:35:07.999Z</time></trkpt><trkpt lat="42.84873127192411" lon="12.83197638676186"><ele>1054.0</ele><time>2026-04-18T10:35:08.999Z</time></trkpt><trkpt lat="42.84881760615049" lon="12.832027429206688"><ele>1056.0</ele><time>2026-04-18T10:35:09.999Z</time></trkpt><trkpt lat="42.848897308995625" lon="12.832057930969212"><ele>1058.0</ele><time>2026-04-18T10:35:10.999Z</time></trkpt><trkpt lat="42.84897107775514" lon="12.832060284716835"><ele>1058.0</ele><time>2026-04-18T10:35:11.999Z</time></trkpt><trkpt lat="42.84904696234982" lon="12.832088475658605"><ele>1058.0</ele><time>2026-04-18T10:35:12.999Z</time></trkpt><trkpt lat="42.84914849913975" lon="12.832113673115957"><ele>1058.0</ele><time>2026-04-18T10:35:13.999Z</time></trkpt><trkpt lat="42.849248971482545" lon="12.832136378028629"><ele>1058.0</ele><time>2026-04-18T10:35:14.999Z</time></trkpt><trkpt lat="42.84934655435613" lon="12.832155066579375"><ele>1058.0</ele><time>2026-04-18T10:35:15.999Z</time></trkpt><trkpt lat="42.84942269788522" lon="12.832187539711414"><ele>1062.1666666666667</ele><time>2026-04-18T10:35:16.999Z</time></trkpt><trkpt lat="42.84949070913278" lon="12.832188291333068"><ele>1066.3333333333335</ele><time>2026-04-18T10:35:17.999Z</time></trkpt><trkpt lat="42.849562305158855" lon="12.832192923025298"><ele>1070.5</ele><time>2026-04-18T10:35:18.999Z</time></trkpt><trkpt lat="42.84970686359608" lon="12.832154984610277"><ele>1074.6666666666667</ele><time>2026-04-18T10:35:20.999Z</time></trkpt><trkpt lat="42.849782557352675" lon="12.832139631204512"><ele>1078.8333333333333</ele><time>2026-04-18T10:35:21.999Z</time></trkpt><trkpt lat="42.84984544283375" lon="12.832123832903418"><ele>1083.0</ele><time>2026-04-18T10:35:22.999Z</time></trkpt><trkpt lat="42.849913173698845" lon="12.832091910888293"><ele>1083.0</ele><time>2026-04-18T10:35:23.999Z</time></trkpt><trkpt lat="42.849997054200394" lon="12.832025485458136"><ele>1083.0</ele><time>2026-04-18T10:35:25.999Z</time></trkpt><trkpt lat="42.850109850129314" lon="12.831982557800023"><ele>1083.0</ele><time>2026-04-18T10:35:27.999Z</time></trkpt><trkpt lat="42.85017765439607" lon="12.831935148574464"><ele>1083.0</ele><time>2026-04-18T10:35:28.999Z</time></trkpt><trkpt lat="42.850231904706106" lon="12.831872866188544"><ele>1083.0</ele><time>2026-04-18T10:35:29.999Z</time></trkpt><trkpt lat="42.8502787957387" lon="12.831797710822968"><ele>1083.0</ele><time>2026-04-18T10:35:30.999Z</time></trkpt><trkpt lat="42.85032973101272" lon="12.831719536921891"><ele>1086.1666666666667</ele><time>2026-04-18T10:35:31.999Z</time></trkpt><trkpt lat="42.85037491268903" lon="12.831651071310212"><ele>1089.3333333333333</ele><time>2026-04-18T10:35:32.999Z</time></trkpt><trkpt lat="42.85041782097425" lon="12.831579194937273"><ele>1092.5</ele><time>2026-04-18T10:35:33.999Z</time></trkpt><trkpt lat="42.85049378441661" lon="12.831452194999592"><ele>1095.6666666666665</ele><time>2026-04-18T10:35:35.999Z</time></trkpt><trkpt lat="42.850546533034255" lon="12.831370016643808"><ele>1098.8333333333333</ele><time>2026-04-18T10:35:36.999Z</time></trkpt><trkpt lat="42.8505942296039" lon="12.831295296208475"><ele>1102.0</ele><time>2026-04-18T10:35:37.999Z</time></trkpt><trkpt lat="42.85063663400857" lon="12.831225706364263"><ele>1102.0</ele><time>2026-04-18T10:35:38.999Z</time></trkpt><trkpt lat="42.85067738243759" lon="12.831154871962829"><ele>1102.0</ele><time>2026-04-18T10:35:39.999Z</time></trkpt><trkpt lat="42.850754028829456" lon="12.830989208212799"><ele>1102.0</ele><time>2026-04-18T10:35:41.999Z</time></trkpt><trkpt lat="42.85085114979651" lon="12.830939639860768"><ele>1102.0</ele><time>2026-04-18T10:35:43.999Z</time></trkpt><trkpt lat="42.85092859343965" lon="12.831025372626582"><ele>1102.0</ele><time>2026-04-18T10:35:45.999Z</time></trkpt><trkpt lat="42.85102599909167" lon="12.831215496877157"><ele>1101.4</ele><time>2026-04-18T10:35:47.999Z</time></trkpt><trkpt lat="42.851082739846376" lon="12.831326135165366"><ele>1100.8000000000002</ele><time>2026-04-18T10:35:48.999Z</time></trkpt><trkpt lat="42.851134968660986" lon="12.831440475015023"><ele>1100.2</ele><time>2026-04-18T10:35:50.999Z</time></trkpt><trkpt lat="42.851150113744964" lon="12.831566239936423"><ele>1099.6000000000001</ele><time>2026-04-18T10:35:52.998Z</time></trkpt><trkpt lat="42.85114061898809" lon="12.831689474509057"><ele>1099.0</ele><time>2026-04-18T10:35:54.998Z</time></trkpt><trkpt lat="42.851142340204404" lon="12.831819394845859"><ele>1099.0</ele><time>2026-04-18T10:35:56.998Z</time></trkpt><trkpt lat="42.85114457145767" lon="12.83194157781464"><ele>1099.0</ele><time>2026-04-18T10:35:58.998Z</time></trkpt><trkpt lat="42.8511576300041" lon="12.832033591872293"><ele>1099.0</ele><time>2026-04-18T10:35:59.998Z</time></trkpt><trkpt lat="42.851172366233186" lon="12.832155115794565"><ele>1099.0</ele><time>2026-04-18T10:36:00.998Z</time></trkpt><trkpt lat="42.851184369568806" lon="12.832287526401505"><ele>1099.0</ele><time>2026-04-18T10:36:01.998Z</time></trkpt><trkpt lat="42.85120335159708" lon="12.832438581811449"><ele>1099.0</ele><time>2026-04-18T10:36:02.998Z</time></trkpt><trkpt lat="42.851227423089426" lon="12.832606736302385"><ele>1099.0</ele><time>2026-04-18T10:36:03.998Z</time></trkpt><trkpt lat="42.85125639879997" lon="12.832775421358194"><ele>1099.0</ele><time>2026-04-18T10:36:04.998Z</time></trkpt><trkpt lat="42.8512868502589" lon="12.832937776984151"><ele>1099.0</ele><time>2026-04-18T10:36:05.998Z</time></trkpt><trkpt lat="42.85131842766457" lon="12.833097950591208"><ele>1101.5</ele><time>2026-04-18T10:36:06.998Z</time></trkpt><trkpt lat="42.85135198722165" lon="12.8332675935385"><ele>1104.0</ele><time>2026-04-18T10:36:07.998Z</time></trkpt><trkpt lat="42.85138977376585" lon="12.833428367123512"><ele>1106.5</ele><time>2026-04-18T10:36:08.999Z</time></trkpt><trkpt lat="42.85143734931449" lon="12.833566666314605"><ele>1109.0</ele><time>2026-04-18T10:36:09.999Z</time></trkpt><trkpt lat="42.851501028270725" lon="12.833730425297293"><ele>1109.25</ele><time>2026-04-18T10:36:10.999Z</time></trkpt><trkpt lat="42.85155454541732" lon="12.83389031778372"><ele>1109.5</ele><time>2026-04-18T10:36:11.999Z</time></trkpt><trkpt lat="42.85158632046382" lon="12.834056162382492"><ele>1109.75</ele><time>2026-04-18T10:36:12.999Z</time></trkpt><trkpt lat="42.851630396013114" lon="12.834218220254034"><ele>1110.0</ele><time>2026-04-18T10:36:13.999Z</time></trkpt><trkpt lat="42.851681882436296" lon="12.834361285343038"><ele>1110.0</ele><time>2026-04-18T10:36:14.999Z</time></trkpt><trkpt lat="42.851725452138794" lon="12.83446202701715"><ele>1110.0</ele><time>2026-04-18T10:36:15.999Z</time></trkpt><trkpt lat="42.85176067800238" lon="12.834542600121281"><ele>1110.0</ele><time>2026-04-18T10:36:16.999Z</time></trkpt><trkpt lat="42.851828172414315" lon="12.834618776680859"><ele>1110.0</ele><time>2026-04-18T10:36:18.999Z</time></trkpt><trkpt lat="42.8519383737699" lon="12.834602178247495"><ele>1110.0</ele><time>2026-04-18T10:36:20.999Z</time></trkpt><trkpt lat="42.85198486728019" lon="12.83454218089227"><ele>1110.0</ele><time>2026-04-18T10:36:21.999Z</time></trkpt><trkpt lat="42.852016752610595" lon="12.834463002400296"><ele>1109.8333333333333</ele><time>2026-04-18T10:36:22.999Z</time></trkpt><trkpt lat="42.852043073121756" lon="12.834375384831644"><ele>1109.6666666666667</ele><time>2026-04-18T10:36:23.999Z</time></trkpt><trkpt lat="42.8520661830019" lon="12.834280853486213"><ele>1109.5</ele><time>2026-04-18T10:36:24.999Z</time></trkpt><trkpt lat="42.85208941606084" lon="12.834182106372777"><ele>1109.3333333333335</ele><time>2026-04-18T10:36:25.999Z</time></trkpt><trkpt lat="42.852126417597596" lon="12.834071488669336"><ele>1109.1666666666667</ele><time>2026-04-18T10:36:26.999Z</time></trkpt><trkpt lat="42.852162138235215" lon="12.833954304546973"><ele>1109.0</ele><time>2026-04-18T10:36:27.999Z</time></trkpt><trkpt lat="42.852205340225744" lon="12.833828113557438"><ele>1109.0</ele><time>2026-04-18T10:36:28.999Z</time></trkpt><trkpt lat="42.85224276910661" lon="12.833695268121362"><ele>1109.0</ele><time>2026-04-18T10:36:29.999Z</time></trkpt><trkpt lat="42.85227881550089" lon="12.833562173172945"><ele>1109.0</ele><time>2026-04-18T10:36:30.999Z</time></trkpt><trkpt lat="42.852320229425594" lon="12.83344694935295"><ele>1109.0</ele><time>2026-04-18T10:36:31.999Z</time></trkpt><trkpt lat="42.85236868165961" lon="12.833317831213801"><ele>1109.0</ele><time>2026-04-18T10:36:32.999Z</time></trkpt><trkpt lat="42.852417207571904" lon="12.833185452531115"><ele>1105.2</ele><time>2026-04-18T10:36:33.999Z</time></trkpt><trkpt lat="42.85245375428679" lon="12.83306229089607"><ele>1101.4</ele><time>2026-04-18T10:36:34.999Z</time></trkpt><trkpt lat="42.85247273524715" lon="12.832937039323891"><ele>1097.6</ele><time>2026-04-18T10:36:35.999Z</time></trkpt><trkpt lat="42.85247943015073" lon="12.832797078335513"><ele>1093.8</ele><time>2026-04-18T10:36:36.999Z</time></trkpt><trkpt lat="42.852485398091844" lon="12.83264302899144"><ele>1090.0</ele><time>2026-04-18T10:36:37.999Z</time></trkpt><trkpt lat="42.852508994086534" lon="12.832507343700323"><ele>1087.8333333333333</ele><time>2026-04-18T10:36:38.999Z</time></trkpt><trkpt lat="42.852516756332626" lon="12.832417426112565"><ele>1085.6666666666665</ele><time>2026-04-18T10:36:39.999Z</time></trkpt><trkpt lat="42.85251661926447" lon="12.832321024362118"><ele>1083.5</ele><time>2026-04-18T10:36:40.999Z</time></trkpt><trkpt lat="42.85248532813335" lon="12.832221120155992"><ele>1081.3333333333333</ele><time>2026-04-18T10:36:41.999Z</time></trkpt><trkpt lat="42.852447460620745" lon="12.832105550843036"><ele>1079.1666666666667</ele><time>2026-04-18T10:36:42.999Z</time></trkpt><trkpt lat="42.852394764578484" lon="12.831958875354378"><ele>1077.0</ele><time>2026-04-18T10:36:43.999Z</time></trkpt><trkpt lat="42.85234186048297" lon="12.831833191054344"><ele>1076.4</ele><time>2026-04-18T10:36:44.999Z</time></trkpt><trkpt lat="42.85228559675327" lon="12.831714425159191"><ele>1075.8000000000002</ele><time>2026-04-18T10:36:45.999Z</time></trkpt><trkpt lat="42.852287785096955" lon="12.831575304240456"><ele>1075.2</ele><time>2026-04-18T10:36:46.999Z</time></trkpt><trkpt lat="42.85229720029142" lon="12.831417043687619"><ele>1074.6000000000001</ele><time>2026-04-18T10:36:47.999Z</time></trkpt><trkpt lat="42.85233096633299" lon="12.831267981209038"><ele>1074.0</ele><time>2026-04-18T10:36:48.999Z</time></trkpt><trkpt lat="42.852384436890745" lon="12.831117541107997"><ele>1073.25</ele><time>2026-04-18T10:36:49.999Z</time></trkpt><trkpt lat="42.85242772384465" lon="12.830969738515556"><ele>1072.5</ele><time>2026-04-18T10:36:50.999Z</time></trkpt><trkpt lat="42.852489831536346" lon="12.830827583707936"><ele>1071.75</ele><time>2026-04-18T10:36:51.999Z</time></trkpt><trkpt lat="42.85257270655289" lon="12.830701200221498"><ele>1071.0</ele><time>2026-04-18T10:36:52.999Z</time></trkpt><trkpt lat="42.85262393342804" lon="12.830590001865675"><ele>1071.0</ele><time>2026-04-18T10:36:53.999Z</time></trkpt><trkpt lat="42.85265194556798" lon="12.83049513976944"><ele>1071.0</ele><time>2026-04-18T10:36:54.999Z</time></trkpt><trkpt lat="42.85265339581612" lon="12.830395587437481"><ele>1071.0</ele><time>2026-04-18T10:36:55.999Z</time></trkpt><trkpt lat="42.8526220660051" lon="12.830259802227873"><ele>1071.0</ele><time>2026-04-18T10:36:56.999Z</time></trkpt><trkpt lat="42.852575449766206" lon="12.830127851397684"><ele>1071.0</ele><time>2026-04-18T10:36:57.999Z</time></trkpt><trkpt lat="42.85251998357176" lon="12.82998095136722"><ele>1071.6</ele><time>2026-04-18T10:36:58.999Z</time></trkpt><trkpt lat="42.852455304101525" lon="12.82985201312926"><ele>1072.1999999999998</ele><time>2026-04-18T10:36:59.999Z</time></trkpt><trkpt lat="42.85238936907786" lon="12.829731851974799"><ele>1072.8000000000002</ele><time>2026-04-18T10:37:00.999Z</time></trkpt><trkpt lat="42.85234357202253" lon="12.829614161801834"><ele>1073.4</ele><time>2026-04-18T10:37:01.999Z</time></trkpt><trkpt lat="42.85233000993954" lon="12.829491165863502"><ele>1074.0</ele><time>2026-04-18T10:37:02.999Z</time></trkpt><trkpt lat="42.85240475662159" lon="12.829377699983715"><ele>1073.25</ele><time>2026-04-18T10:37:03.999Z</time></trkpt><trkpt lat="42.852505491197725" lon="12.82925176455111"><ele>1072.5</ele><time>2026-04-18T10:37:04.999Z</time></trkpt><trkpt lat="42.852598007270664" lon="12.829107397811546"><ele>1071.75</ele><time>2026-04-18T10:37:05.999Z</time></trkpt><trkpt lat="42.85269517012246" lon="12.828987677643608"><ele>1071.0</ele><time>2026-04-18T10:37:06.999Z</time></trkpt><trkpt lat="42.85281582770597" lon="12.828922889308478"><ele>1071.0</ele><time>2026-04-18T10:37:07.999Z</time></trkpt><trkpt lat="42.852947233590946" lon="12.828868468735736"><ele>1071.0</ele><time>2026-04-18T10:37:08.999Z</time></trkpt><trkpt lat="42.853065941395876" lon="12.828786310743027"><ele>1071.0</ele><time>2026-04-18T10:37:09.999Z</time></trkpt><trkpt lat="42.853171480161656" lon="12.828690512891638"><ele>1071.0</ele><time>2026-04-18T10:37:10.999Z</time></trkpt><trkpt lat="42.853293131164484" lon="12.828635407504244"><ele>1071.0</ele><time>2026-04-18T10:37:11.999Z</time></trkpt><trkpt lat="42.85343568186881" lon="12.828624192311999"><ele>1071.0</ele><time>2026-04-18T10:37:12.999Z</time></trkpt><trkpt lat="42.85359081377786" lon="12.828652043264398"><ele>1071.0</ele><time>2026-04-18T10:37:13.999Z</time></trkpt><trkpt lat="42.853785492396334" lon="12.828657605862565"><ele>1070.5</ele><time>2026-04-18T10:37:14.999Z</time></trkpt><trkpt lat="42.853954617006345" lon="12.828634529196405"><ele>1070.0</ele><time>2026-04-18T10:37:15.999Z</time></trkpt><trkpt lat="42.85410051680552" lon="12.828632576534577"><ele>1069.5</ele><time>2026-04-18T10:37:16.999Z</time></trkpt><trkpt lat="42.854216621926156" lon="12.828631595199939"><ele>1069.0</ele><time>2026-04-18T10:37:17.999Z</time></trkpt><trkpt lat="42.85431341779343" lon="12.828602651983664"><ele>1068.75</ele><time>2026-04-18T10:37:18.999Z</time></trkpt><trkpt lat="42.85442206844072" lon="12.828527831802864"><ele>1068.5</ele><time>2026-04-18T10:37:19.999Z</time></trkpt><trkpt lat="42.85451650945714" lon="12.828424816987505"><ele>1068.25</ele><time>2026-04-18T10:37:20.999Z</time></trkpt><trkpt lat="42.85462255280167" lon="12.828298726294332"><ele>1068.0</ele><time>2026-04-18T10:37:21.999Z</time></trkpt><trkpt lat="42.854751577014845" lon="12.82818705306855"><ele>1071.25</ele><time>2026-04-18T10:37:22.999Z</time></trkpt><trkpt lat="42.85488338514886" lon="12.828064958108415"><ele>1074.5</ele><time>2026-04-18T10:37:23.999Z</time></trkpt><trkpt lat="42.85499695489457" lon="12.827952248554023"><ele>1077.75</ele><time>2026-04-18T10:37:24.999Z</time></trkpt><trkpt lat="42.855097830085924" lon="12.827910457523316"><ele>1081.0</ele><time>2026-04-18T10:37:25.999Z</time></trkpt><trkpt lat="42.855226122757145" lon="12.827916946621274"><ele>1082.3333333333333</ele><time>2026-04-18T10:37:26.999Z</time></trkpt><trkpt lat="42.85537897637028" lon="12.827931253405612"><ele>1083.6666666666667</ele><time>2026-04-18T10:37:27.999Z</time></trkpt><trkpt lat="42.85554661703683" lon="12.827918339857884"><ele>1085.0</ele><time>2026-04-18T10:37:28.999Z</time></trkpt><trkpt lat="42.85570274870267" lon="12.82786313702145"><ele>1085.0</ele><time>2026-04-18T10:37:29.999Z</time></trkpt><trkpt lat="42.855848425948075" lon="12.827774021223174"><ele>1085.0</ele><time>2026-04-18T10:37:30.999Z</time></trkpt><trkpt lat="42.85600636947983" lon="12.827728830775767"><ele>1085.0</ele><time>2026-04-18T10:37:31.999Z</time></trkpt><trkpt lat="42.856145719324175" lon="12.827729887374598"><ele>1089.0</ele><time>2026-04-18T10:37:32.999Z</time></trkpt><trkpt lat="42.856279217679926" lon="12.827772544153296"><ele>1093.0</ele><time>2026-04-18T10:37:33.999Z</time></trkpt><trkpt lat="42.85639778906686" lon="12.827807372259645"><ele>1097.0</ele><time>2026-04-18T10:37:34.999Z</time></trkpt><trkpt lat="42.85651063588192" lon="12.827798279075479"><ele>1101.0</ele><time>2026-04-18T10:37:35.999Z</time></trkpt><trkpt lat="42.85662507230049" lon="12.82779635821468"><ele>1101.0</ele><time>2026-04-18T10:37:36.999Z</time></trkpt><trkpt lat="42.85672996181204" lon="12.827819698726069"><ele>1101.0</ele><time>2026-04-18T10:37:37.999Z</time></trkpt><trkpt lat="42.85682745387616" lon="12.827870399067235"><ele>1101.0</ele><time>2026-04-18T10:37:38.999Z</time></trkpt><trkpt lat="42.856898663395576" lon="12.827970477505694"><ele>1101.0</ele><time>2026-04-18T10:37:39.999Z</time></trkpt><trkpt lat="42.85695045232559" lon="12.828113205570153"><ele>1101.0</ele><time>2026-04-18T10:37:40.999Z</time></trkpt><trkpt lat="42.85698084534101" lon="12.828295254597974"><ele>1112.6666666666667</ele><time>2026-04-18T10:37:41.999Z</time></trkpt><trkpt lat="42.85697832817444" lon="12.82851126900047"><ele>1124.3333333333335</ele><time>2026-04-18T10:37:42.999Z</time></trkpt><trkpt lat="42.85698000991413" lon="12.82873058474176"><ele>1136.0</ele><time>2026-04-18T10:37:43.999Z</time></trkpt><trkpt lat="42.85699546720387" lon="12.828911512358383"><ele>1136.0</ele><time>2026-04-18T10:37:44.999Z</time></trkpt><trkpt lat="42.85701165348338" lon="12.82904399961165"><ele>1136.0</ele><time>2026-04-18T10:37:45.999Z</time></trkpt><trkpt lat="42.856965119524666" lon="12.829164332270599"><ele>1136.0</ele><time>2026-04-18T10:37:46.999Z</time></trkpt><trkpt lat="42.856903286013804" lon="12.82921104384101"><ele>1136.0</ele><time>2026-04-18T10:37:47.999Z</time></trkpt><trkpt lat="42.85695177884162" lon="12.829277609287072"><ele>1136.0</ele><time>2026-04-18T10:37:50.999Z</time></trkpt><trkpt lat="42.85706291153597" lon="12.829212227807064"><ele>1136.0</ele><time>2026-04-18T10:37:52.999Z</time></trkpt><trkpt lat="42.85712552959929" lon="12.82912645690777"><ele>1136.0</ele><time>2026-04-18T10:37:53.999Z</time></trkpt><trkpt lat="42.85723441585223" lon="12.82905104469955"><ele>1136.0</ele><time>2026-04-18T10:37:54.999Z</time></trkpt><trkpt lat="42.857316276946406" lon="12.82895714782339"><ele>1136.0</ele><time>2026-04-18T10:37:55.999Z</time></trkpt><trkpt lat="42.85729580253477" lon="12.828741170366841"><ele>1136.0</ele><time>2026-04-18T10:37:57.999Z</time></trkpt><trkpt lat="42.85730069941572" lon="12.828586322830825"><ele>1136.0</ele><time>2026-04-18T10:37:58.999Z</time></trkpt><trkpt lat="42.85734219184955" lon="12.82846921360847"><ele>1136.0</ele><time>2026-04-18T10:37:59.999Z</time></trkpt><trkpt lat="42.857410614128135" lon="12.828338855563782"><ele>1136.0</ele><time>2026-04-18T10:38:00.999Z</time></trkpt><trkpt lat="42.85748961850197" lon="12.828207578439033"><ele>1134.0</ele><time>2026-04-18T10:38:01.999Z</time></trkpt><trkpt lat="42.85757488409709" lon="12.828081545174502"><ele>1132.0</ele><time>2026-04-18T10:38:02.999Z</time></trkpt><trkpt lat="42.85766435723914" lon="12.827951522547462"><ele>1130.0</ele><time>2026-04-18T10:38:03.999Z</time></trkpt><trkpt lat="42.857750178262386" lon="12.827817613101812"><ele>1128.0</ele><time>2026-04-18T10:38:04.999Z</time></trkpt><trkpt lat="42.8578428288297" lon="12.827699494918722"><ele>1132.3333333333333</ele><time>2026-04-18T10:38:05.999Z</time></trkpt><trkpt lat="42.8579315582426" lon="12.827584006343736"><ele>1136.6666666666667</ele><time>2026-04-18T10:38:06.998Z</time></trkpt><trkpt lat="42.857978619389826" lon="12.827475304713605"><ele>1141.0</ele><time>2026-04-18T10:38:07.998Z</time></trkpt><trkpt lat="42.85799722445438" lon="12.827379076319476"><ele>1145.3333333333335</ele><time>2026-04-18T10:38:08.998Z</time></trkpt><trkpt lat="42.857980370530456" lon="12.827295223149289"><ele>1149.6666666666667</ele><time>2026-04-18T10:38:09.998Z</time></trkpt><trkpt lat="42.85791766530267" lon="12.827225202003927"><ele>1154.0</ele><time>2026-04-18T10:38:11.998Z</time></trkpt><trkpt lat="42.85788390735624" lon="12.827142662601142"><ele>1154.0</ele><time>2026-04-18T10:38:25.999Z</time></trkpt><trkpt lat="42.857883303059474" lon="12.826960889460956"><ele>1154.0</ele><time>2026-04-18T10:39:12.999Z</time></trkpt><trkpt lat="42.85788358338716" lon="12.826852358711047"><ele>1154.0</ele><time>2026-04-18T10:39:13.999Z</time></trkpt><trkpt lat="42.85787304196776" lon="12.82672963029624"><ele>1154.0</ele><time>2026-04-18T10:39:14.999Z</time></trkpt><trkpt lat="42.857846060697874" lon="12.826602767424687"><ele>1154.0</ele><time>2026-04-18T10:39:15.999Z</time></trkpt><trkpt lat="42.85781032997072" lon="12.826462773273297"><ele>1153.1666666666667</ele><time>2026-04-18T10:39:16.999Z</time></trkpt><trkpt lat="42.85777252160558" lon="12.826332682515103"><ele>1152.3333333333335</ele><time>2026-04-18T10:39:17.999Z</time></trkpt><trkpt lat="42.85774744992584" lon="12.826232273971204"><ele>1151.5</ele><time>2026-04-18T10:39:18.999Z</time></trkpt><trkpt lat="42.857737364620895" lon="12.826094030942592"><ele>1150.6666666666667</ele><time>2026-04-18T10:39:20.999Z</time></trkpt><trkpt lat="42.85774598042229" lon="12.826002374470189"><ele>1149.8333333333333</ele><time>2026-04-18T10:39:22.999Z</time></trkpt><trkpt lat="42.8577535734546" lon="12.825908544702507"><ele>1149.0</ele><time>2026-04-18T10:39:36.999Z</time></trkpt><trkpt lat="42.85776952124858" lon="12.825802256115459"><ele>1148.0</ele><time>2026-04-18T10:40:18.999Z</time></trkpt><trkpt lat="42.85780420605488" lon="12.825627430361173"><ele>1147.0</ele><time>2026-04-18T10:40:21Z</time></trkpt><trkpt lat="42.85781687436853" lon="12.825518114609903"><ele>1146.0</ele><time>2026-04-18T10:40:22Z</time></trkpt><trkpt lat="42.85783065772965" lon="12.825384202682459"><ele>1145.0</ele><time>2026-04-18T10:40:23Z</time></trkpt><trkpt lat="42.85784685232444" lon="12.82525161838694"><ele>1144.0</ele><time>2026-04-18T10:40:24Z</time></trkpt><trkpt lat="42.85787066492129" lon="12.825100085489437"><ele>1141.8</ele><time>2026-04-18T10:40:25Z</time></trkpt><trkpt lat="42.85789486905052" lon="12.824959788655047"><ele>1139.6000000000001</ele><time>2026-04-18T10:40:26Z</time></trkpt><trkpt lat="42.85791849330124" lon="12.82482200944212"><ele>1137.4</ele><time>2026-04-18T10:40:27Z</time></trkpt><trkpt lat="42.857939306594155" lon="12.824684982991672"><ele>1135.2</ele><time>2026-04-18T10:40:28Z</time></trkpt><trkpt lat="42.857914936612445" lon="12.824560802187783"><ele>1133.0</ele><time>2026-04-18T10:40:29Z</time></trkpt><trkpt lat="42.85788163674343" lon="12.824469646924129"><ele>1133.0</ele><time>2026-04-18T10:40:30Z</time></trkpt><trkpt lat="42.857821958312165" lon="12.824375268983745"><ele>1133.0</ele><time>2026-04-18T10:40:31Z</time></trkpt><trkpt lat="42.857739736045" lon="12.824308927795856"><ele>1133.0</ele><time>2026-04-18T10:40:32Z</time></trkpt><trkpt lat="42.85762551311243" lon="12.824275423841359"><ele>1133.0</ele><time>2026-04-18T10:40:33Z</time></trkpt><trkpt lat="42.85750241650356" lon="12.824239460672308"><ele>1133.0</ele><time>2026-04-18T10:40:34Z</time></trkpt><trkpt lat="42.857382606404876" lon="12.824177183167732"><ele>1133.5</ele><time>2026-04-18T10:40:35Z</time></trkpt><trkpt lat="42.85728429504267" lon="12.824104226029853"><ele>1134.0</ele><time>2026-04-18T10:40:36Z</time></trkpt><trkpt lat="42.85722259686773" lon="12.824004979510288"><ele>1134.5</ele><time>2026-04-18T10:40:37Z</time></trkpt><trkpt lat="42.857179907048945" lon="12.823852099758163"><ele>1135.0</ele><time>2026-04-18T10:40:38Z</time></trkpt><trkpt lat="42.85712059039244" lon="12.823681253870033"><ele>1135.0</ele><time>2026-04-18T10:40:39Z</time></trkpt><trkpt lat="42.857053480900234" lon="12.823580771622774"><ele>1135.0</ele><time>2026-04-18T10:40:40Z</time></trkpt><trkpt lat="42.856957475699" lon="12.823479613661798"><ele>1135.0</ele><time>2026-04-18T10:40:41Z</time></trkpt><trkpt lat="42.85684454383298" lon="12.823370854598107"><ele>1135.0</ele><time>2026-04-18T10:40:42Z</time></trkpt><trkpt lat="42.8567434891787" lon="12.82324749187373"><ele>1135.75</ele><time>2026-04-18T10:40:43Z</time></trkpt><trkpt lat="42.856643035190416" lon="12.82312968131651"><ele>1136.5</ele><time>2026-04-18T10:40:44Z</time></trkpt><trkpt lat="42.85653438615502" lon="12.822993646587872"><ele>1137.25</ele><time>2026-04-18T10:40:44.999Z</time></trkpt><trkpt lat="42.85643677371527" lon="12.822841585777145"><ele>1138.0</ele><time>2026-04-18T10:40:45.999Z</time></trkpt><trkpt lat="42.85634390830201" lon="12.822668613612757"><ele>1132.25</ele><time>2026-04-18T10:40:46.999Z</time></trkpt><trkpt lat="42.856250579862284" lon="12.822515537682985"><ele>1126.5</ele><time>2026-04-18T10:40:47.999Z</time></trkpt><trkpt lat="42.856156687839466" lon="12.822381526395874"><ele>1120.75</ele><time>2026-04-18T10:40:48.999Z</time></trkpt><trkpt lat="42.8560576359835" lon="12.822256871487186"><ele>1115.0</ele><time>2026-04-18T10:40:49.999Z</time></trkpt><trkpt lat="42.85596586667582" lon="12.82213192971257"><ele>1118.25</ele><time>2026-04-18T10:40:50.999Z</time></trkpt><trkpt lat="42.8558931847219" lon="12.821992035727307"><ele>1121.5</ele><time>2026-04-18T10:40:51.999Z</time></trkpt><trkpt lat="42.855841911336" lon="12.82184488404414"><ele>1124.75</ele><time>2026-04-18T10:40:52.999Z</time></trkpt><trkpt lat="42.85578901235561" lon="12.821697653494159"><ele>1128.0</ele><time>2026-04-18T10:40:53.999Z</time></trkpt><trkpt lat="42.8557134739055" lon="12.821577181054042"><ele>1128.0</ele><time>2026-04-18T10:40:54.999Z</time></trkpt><trkpt lat="42.855624537804665" lon="12.821480989114074"><ele>1128.0</ele><time>2026-04-18T10:40:55.999Z</time></trkpt><trkpt lat="42.855527176388144" lon="12.821373434817653"><ele>1128.0</ele><time>2026-04-18T10:40:56.999Z</time></trkpt><trkpt lat="42.85546869233708" lon="12.821251690989236"><ele>1128.0</ele><time>2026-04-18T10:40:57.999Z</time></trkpt><trkpt lat="42.855443457284885" lon="12.821096857990664"><ele>1124.8</ele><time>2026-04-18T10:40:58.999Z</time></trkpt><trkpt lat="42.85543101637914" lon="12.82093847455478"><ele>1121.6</ele><time>2026-04-18T10:40:59.999Z</time></trkpt><trkpt lat="42.855399835421416" lon="12.820815629042873"><ele>1118.4</ele><time>2026-04-18T10:41:00.999Z</time></trkpt><trkpt lat="42.85535776929162" lon="12.820692231030623"><ele>1115.2</ele><time>2026-04-18T10:41:01.999Z</time></trkpt><trkpt lat="42.85530082334345" lon="12.820553648237034"><ele>1112.0</ele><time>2026-04-18T10:41:02.999Z</time></trkpt><trkpt lat="42.85526608947177" lon="12.820435850309748"><ele>1112.0</ele><time>2026-04-18T10:41:03.999Z</time></trkpt><trkpt lat="42.85525398998679" lon="12.82032445985228"><ele>1112.0</ele><time>2026-04-18T10:41:04.999Z</time></trkpt><trkpt lat="42.85524592371388" lon="12.820223443096374"><ele>1112.0</ele><time>2026-04-18T10:41:05.999Z</time></trkpt><trkpt lat="42.85528934744017" lon="12.820134603836312"><ele>1112.0</ele><time>2026-04-18T10:41:06.999Z</time></trkpt><trkpt lat="42.85534284281802" lon="12.82005155646991"><ele>1112.0</ele><time>2026-04-18T10:41:07.999Z</time></trkpt><trkpt lat="42.8553927385019" lon="12.819953192963117"><ele>1112.0</ele><time>2026-04-18T10:41:08.999Z</time></trkpt><trkpt lat="42.8554711729459" lon="12.819884474616805"><ele>1112.0</ele><time>2026-04-18T10:41:09.999Z</time></trkpt><trkpt lat="42.85556808007667" lon="12.81991400857004"><ele>1112.0</ele><time>2026-04-18T10:41:11.999Z</time></trkpt><trkpt lat="42.85560124793536" lon="12.820034830601815"><ele>1112.0</ele><time>2026-04-18T10:41:12.999Z</time></trkpt><trkpt lat="42.85559185694419" lon="12.820189407733327"><ele>1112.0</ele><time>2026-04-18T10:41:13.999Z</time></trkpt><trkpt lat="42.85556527580202" lon="12.820314875963462"><ele>1112.0</ele><time>2026-04-18T10:41:14.999Z</time></trkpt><trkpt lat="42.85553911900051" lon="12.820422943368907"><ele>1112.0</ele><time>2026-04-18T10:41:15.999Z</time></trkpt><trkpt lat="42.85554861578287" lon="12.820536845728725"><ele>1112.0</ele><time>2026-04-18T10:41:16.999Z</time></trkpt><trkpt lat="42.85560764008516" lon="12.820650539020345"><ele>1112.0</ele><time>2026-04-18T10:41:17.999Z</time></trkpt><trkpt lat="42.85568882202503" lon="12.820760439594364"><ele>1112.0</ele><time>2026-04-18T10:41:18.999Z</time></trkpt><trkpt lat="42.85576687868653" lon="12.820871708582741"><ele>1112.0</ele><time>2026-04-18T10:41:19.999Z</time></trkpt><trkpt lat="42.85584532905222" lon="12.820966501479337"><ele>1115.2</ele><time>2026-04-18T10:41:20.999Z</time></trkpt><trkpt lat="42.855919671798176" lon="12.82107830141162"><ele>1118.4</ele><time>2026-04-18T10:41:21.999Z</time></trkpt><trkpt lat="42.856018864714905" lon="12.821175207094031"><ele>1121.6</ele><time>2026-04-18T10:41:22.999Z</time></trkpt><trkpt lat="42.85609484900509" lon="12.82127220848279"><ele>1124.8</ele><time>2026-04-18T10:41:23.999Z</time></trkpt><trkpt lat="42.85617944409123" lon="12.821373814264085"><ele>1128.0</ele><time>2026-04-18T10:41:24.999Z</time></trkpt><trkpt lat="42.85625966137959" lon="12.821461547286928"><ele>1119.0</ele><time>2026-04-18T10:41:25.999Z</time></trkpt><trkpt lat="42.85634514238797" lon="12.821556750929249"><ele>1110.0</ele><time>2026-04-18T10:41:26.999Z</time></trkpt><trkpt lat="42.85644226004617" lon="12.821650781415938"><ele>1101.0</ele><time>2026-04-18T10:41:27.999Z</time></trkpt><trkpt lat="42.85654060235565" lon="12.821721355050396"><ele>1092.0</ele><time>2026-04-18T10:41:28.999Z</time></trkpt><trkpt lat="42.8566522623998" lon="12.821779282958005"><ele>1092.0</ele><time>2026-04-18T10:41:29.999Z</time></trkpt><trkpt lat="42.856766144198915" lon="12.821817659951265"><ele>1092.0</ele><time>2026-04-18T10:41:30.999Z</time></trkpt><trkpt lat="42.856881879581216" lon="12.82185392040373"><ele>1092.0</ele><time>2026-04-18T10:41:31.999Z</time></trkpt><trkpt lat="42.85698418764931" lon="12.82188353273645"><ele>1092.0</ele><time>2026-04-18T10:41:32.999Z</time></trkpt><trkpt lat="42.85707515388065" lon="12.821922296078183"><ele>1092.0</ele><time>2026-04-18T10:41:33.999Z</time></trkpt><trkpt lat="42.8571677786617" lon="12.821949425086078"><ele>1092.0</ele><time>2026-04-18T10:41:34.999Z</time></trkpt><trkpt lat="42.857261822846525" lon="12.821925457687689"><ele>1092.0</ele><time>2026-04-18T10:41:35.999Z</time></trkpt><trkpt lat="42.85735837131093" lon="12.821894881569708"><ele>1092.0</ele><time>2026-04-18T10:41:36.999Z</time></trkpt><trkpt lat="42.85745566996346" lon="12.821880781181115"><ele>1092.0</ele><time>2026-04-18T10:41:37.999Z</time></trkpt><trkpt lat="42.85754545362967" lon="12.821880542707285"><ele>1092.0</ele><time>2026-04-18T10:41:38.999Z</time></trkpt><trkpt lat="42.857621076189496" lon="12.821887600928182"><ele>1089.3333333333333</ele><time>2026-04-18T10:41:39.999Z</time></trkpt><trkpt lat="42.8576969148474" lon="12.821898208761748"><ele>1086.6666666666667</ele><time>2026-04-18T10:41:40.999Z</time></trkpt><trkpt lat="42.85777793025215" lon="12.821878552494837"><ele>1084.0</ele><time>2026-04-18T10:41:42.999Z</time></trkpt><trkpt lat="42.85784298136028" lon="12.821795014932233"><ele>1081.3333333333335</ele><time>2026-04-18T10:41:44.999Z</time></trkpt><trkpt lat="42.85792600090183" lon="12.821733416903344"><ele>1078.6666666666667</ele><time>2026-04-18T10:41:45.999Z</time></trkpt><trkpt lat="42.85802909476741" lon="12.821739125294366"><ele>1076.0</ele><time>2026-04-18T10:41:46.999Z</time></trkpt><trkpt lat="42.85811347494524" lon="12.821781874039049"><ele>1076.0</ele><time>2026-04-18T10:41:47.999Z</time></trkpt><trkpt lat="42.85821712136395" lon="12.82187991735681"><ele>1076.0</ele><time>2026-04-18T10:41:49.999Z</time></trkpt><trkpt lat="42.8582813466139" lon="12.821945355892462"><ele>1076.0</ele><time>2026-04-18T10:41:50.999Z</time></trkpt><trkpt lat="42.85836750707524" lon="12.822014598798587"><ele>1076.0</ele><time>2026-04-18T10:41:51.999Z</time></trkpt><trkpt lat="42.85846371586238" lon="12.822114048158738"><ele>1076.0</ele><time>2026-04-18T10:41:52.999Z</time></trkpt><trkpt lat="42.858555155896155" lon="12.822230549495249"><ele>1075.5</ele><time>2026-04-18T10:41:53.999Z</time></trkpt><trkpt lat="42.85864556848182" lon="12.822344917134197"><ele>1075.0</ele><time>2026-04-18T10:41:54.999Z</time></trkpt><trkpt lat="42.85872470797289" lon="12.822463926035324"><ele>1074.5</ele><time>2026-04-18T10:41:55.999Z</time></trkpt><trkpt lat="42.85879986967767" lon="12.822587023857643"><ele>1074.0</ele><time>2026-04-18T10:41:56.999Z</time></trkpt><trkpt lat="42.85888152712868" lon="12.82268570784979"><ele>1074.0</ele><time>2026-04-18T10:41:57.999Z</time></trkpt><trkpt lat="42.8589764731961" lon="12.822736779268489"><ele>1074.0</ele><time>2026-04-18T10:41:58.999Z</time></trkpt><trkpt lat="42.859075777209306" lon="12.822724543159357"><ele>1074.0</ele><time>2026-04-18T10:41:59.999Z</time></trkpt><trkpt lat="42.85917376844933" lon="12.822655955913532"><ele>1074.0</ele><time>2026-04-18T10:42:00.999Z</time></trkpt><trkpt lat="42.85925949048754" lon="12.82254488557165"><ele>1074.0</ele><time>2026-04-18T10:42:01.999Z</time></trkpt><trkpt lat="42.859337603078856" lon="12.822421632761495"><ele>1071.6000000000001</ele><time>2026-04-18T10:42:02.999Z</time></trkpt><trkpt lat="42.85941803726882" lon="12.822312458127723"><ele>1069.2</ele><time>2026-04-18T10:42:03.999Z</time></trkpt><trkpt lat="42.859504984790945" lon="12.82223454412073"><ele>1066.8000000000002</ele><time>2026-04-18T10:42:04.999Z</time></trkpt><trkpt lat="42.85960151374065" lon="12.82214446920035"><ele>1064.4</ele><time>2026-04-18T10:42:05.999Z</time></trkpt><trkpt lat="42.859704918627024" lon="12.822076630267516"><ele>1062.0</ele><time>2026-04-18T10:42:06.999Z</time></trkpt><trkpt lat="42.859822518286244" lon="12.82204771502163"><ele>1062.0</ele><time>2026-04-18T10:42:07.999Z</time></trkpt><trkpt lat="42.859962833777786" lon="12.822006664247029"><ele>1062.0</ele><time>2026-04-18T10:42:08.999Z</time></trkpt><trkpt lat="42.8600890974096" lon="12.82194157342049"><ele>1062.0</ele><time>2026-04-18T10:42:09.999Z</time></trkpt><trkpt lat="42.86020977805906" lon="12.821837372880548"><ele>1062.0</ele><time>2026-04-18T10:42:10.999Z</time></trkpt><trkpt lat="42.860332064307755" lon="12.821753311401466"><ele>1062.25</ele><time>2026-04-18T10:42:11.999Z</time></trkpt><trkpt lat="42.86047800220946" lon="12.821709971688014"><ele>1062.5</ele><time>2026-04-18T10:42:12.999Z</time></trkpt><trkpt lat="42.86062107779019" lon="12.821681290674062"><ele>1062.75</ele><time>2026-04-18T10:42:13.999Z</time></trkpt><trkpt lat="42.86075499765579" lon="12.821647581220363"><ele>1063.0</ele><time>2026-04-18T10:42:14.999Z</time></trkpt><trkpt lat="42.86087599215993" lon="12.821595058614509"><ele>1063.25</ele><time>2026-04-18T10:42:15.999Z</time></trkpt><trkpt lat="42.86099375143344" lon="12.821528236766653"><ele>1063.5</ele><time>2026-04-18T10:42:16.999Z</time></trkpt><trkpt lat="42.8611079853028" lon="12.82145343381135"><ele>1063.75</ele><time>2026-04-18T10:42:17.999Z</time></trkpt><trkpt lat="42.86123216203321" lon="12.821376549849612"><ele>1064.0</ele><time>2026-04-18T10:42:18.999Z</time></trkpt><trkpt lat="42.86136066060896" lon="12.821309262291207"><ele>1064.0</ele><time>2026-04-18T10:42:19.999Z</time></trkpt><trkpt lat="42.86149072710202" lon="12.821269024810887"><ele>1064.0</ele><time>2026-04-18T10:42:20.999Z</time></trkpt><trkpt lat="42.86162812518322" lon="12.821240704535505"><ele>1064.0</ele><time>2026-04-18T10:42:21.999Z</time></trkpt><trkpt lat="42.861758483660246" lon="12.821195227925054"><ele>1064.0</ele><time>2026-04-18T10:42:22.999Z</time></trkpt><trkpt lat="42.86188666812751" lon="12.821140661441808"><ele>1064.0</ele><time>2026-04-18T10:42:23.999Z</time></trkpt><trkpt lat="42.86200497564578" lon="12.821067988575678"><ele>1064.0</ele><time>2026-04-18T10:42:24.999Z</time></trkpt><trkpt lat="42.862117079290826" lon="12.820962266644198"><ele>1064.0</ele><time>2026-04-18T10:42:26Z</time></trkpt><trkpt lat="42.862232260615706" lon="12.82085360286816"><ele>1064.0</ele><time>2026-04-18T10:42:27Z</time></trkpt><trkpt lat="42.862354319175374" lon="12.820773210203606"><ele>1064.0</ele><time>2026-04-18T10:42:28Z</time></trkpt><trkpt lat="42.86247847219735" lon="12.82069528444132"><ele>1064.0</ele><time>2026-04-18T10:42:29Z</time></trkpt><trkpt lat="42.86257856822966" lon="12.820603395432212"><ele>1064.0</ele><time>2026-04-18T10:42:30Z</time></trkpt><trkpt lat="42.8626441279135" lon="12.820493858934354"><ele>1064.0</ele><time>2026-04-18T10:42:31Z</time></trkpt><trkpt lat="42.862672063879195" lon="12.820381489600408"><ele>1064.0</ele><time>2026-04-18T10:42:32Z</time></trkpt><trkpt lat="42.86266329278361" lon="12.820248327238936"><ele>1064.4</ele><time>2026-04-18T10:42:33Z</time></trkpt><trkpt lat="42.862644510101575" lon="12.820111856025836"><ele>1064.8000000000002</ele><time>2026-04-18T10:42:34Z</time></trkpt><trkpt lat="42.862642887252676" lon="12.819970201515451"><ele>1065.1999999999998</ele><time>2026-04-18T10:42:35Z</time></trkpt><trkpt lat="42.862643834542006" lon="12.819817440199673"><ele>1065.6</ele><time>2026-04-18T10:42:36Z</time></trkpt><trkpt lat="42.8626545428489" lon="12.81967006743197"><ele>1066.0</ele><time>2026-04-18T10:42:37Z</time></trkpt><trkpt lat="42.862671284187236" lon="12.819509289243737"><ele>1066.0</ele><time>2026-04-18T10:42:38Z</time></trkpt><trkpt lat="42.862688506245455" lon="12.819344681920292"><ele>1066.0</ele><time>2026-04-18T10:42:39Z</time></trkpt><trkpt lat="42.862714322550694" lon="12.81917939824911"><ele>1066.0</ele><time>2026-04-18T10:42:40Z</time></trkpt><trkpt lat="42.86276124525878" lon="12.819025298309654"><ele>1066.0</ele><time>2026-04-18T10:42:41Z</time></trkpt><trkpt lat="42.86283120506665" lon="12.818879804661115"><ele>1066.25</ele><time>2026-04-18T10:42:42Z</time></trkpt><trkpt lat="42.86291615710705" lon="12.81875847570928"><ele>1066.5</ele><time>2026-04-18T10:42:43Z</time></trkpt><trkpt lat="42.863007853249385" lon="12.818637743113477"><ele>1066.75</ele><time>2026-04-18T10:42:44Z</time></trkpt><trkpt lat="42.86310131075178" lon="12.818521230887242"><ele>1067.0</ele><time>2026-04-18T10:42:45Z</time></trkpt><trkpt lat="42.86318306206575" lon="12.818404623189966"><ele>1067.0</ele><time>2026-04-18T10:42:46Z</time></trkpt><trkpt lat="42.86324439474659" lon="12.818278428728206"><ele>1067.0</ele><time>2026-04-18T10:42:47Z</time></trkpt><trkpt lat="42.86329736557853" lon="12.818144526267186"><ele>1067.0</ele><time>2026-04-18T10:42:48Z</time></trkpt><trkpt lat="42.86334447731765" lon="12.818000896082431"><ele>1067.0</ele><time>2026-04-18T10:42:49Z</time></trkpt><trkpt lat="42.863372892358335" lon="12.81784909665545"><ele>1067.0</ele><time>2026-04-18T10:42:50Z</time></trkpt><trkpt lat="42.86339082741265" lon="12.817686042313339"><ele>1067.0</ele><time>2026-04-18T10:42:51Z</time></trkpt><trkpt lat="42.86341057968014" lon="12.817523345559199"><ele>1067.0</ele><time>2026-04-18T10:42:52Z</time></trkpt><trkpt lat="42.86343359354733" lon="12.817348913419119"><ele>1067.0</ele><time>2026-04-18T10:42:53Z</time></trkpt><trkpt lat="42.86345936772344" lon="12.817178052447888"><ele>1067.5</ele><time>2026-04-18T10:42:54Z</time></trkpt><trkpt lat="42.86348449840638" lon="12.817004661965672"><ele>1068.0</ele><time>2026-04-18T10:42:55Z</time></trkpt><trkpt lat="42.863509778653665" lon="12.816827364445928"><ele>1068.5</ele><time>2026-04-18T10:42:56Z</time></trkpt><trkpt lat="42.86354449365141" lon="12.816646618030687"><ele>1069.0</ele><time>2026-04-18T10:42:57Z</time></trkpt><trkpt lat="42.86359770329485" lon="12.816473393862424"><ele>1070.0</ele><time>2026-04-18T10:42:58Z</time></trkpt><trkpt lat="42.86365691761654" lon="12.816299909066021"><ele>1071.0</ele><time>2026-04-18T10:42:59Z</time></trkpt><trkpt lat="42.863707986454905" lon="12.81612237915327"><ele>1072.0</ele><time>2026-04-18T10:43:00Z</time></trkpt><trkpt lat="42.86373503886635" lon="12.815934161924867"><ele>1073.0</ele><time>2026-04-18T10:43:01Z</time></trkpt><trkpt lat="42.86372391509172" lon="12.815736803668086"><ele>1076.25</ele><time>2026-04-18T10:43:02Z</time></trkpt><trkpt lat="42.86366824100815" lon="12.81555392078304"><ele>1079.5</ele><time>2026-04-18T10:43:03Z</time></trkpt><trkpt lat="42.86357527008732" lon="12.815391482693844"><ele>1082.75</ele><time>2026-04-18T10:43:04Z</time></trkpt><trkpt lat="42.86350497569407" lon="12.815246129428393"><ele>1086.0</ele><time>2026-04-18T10:43:05Z</time></trkpt><trkpt lat="42.86346874673405" lon="12.815071583390452"><ele>1086.25</ele><time>2026-04-18T10:43:06Z</time></trkpt><trkpt lat="42.863461524818995" lon="12.814878446853166"><ele>1086.5</ele><time>2026-04-18T10:43:07Z</time></trkpt><trkpt lat="42.863430382568204" lon="12.81469058780456"><ele>1086.75</ele><time>2026-04-18T10:43:08Z</time></trkpt><trkpt lat="42.86337219829465" lon="12.814519285385263"><ele>1087.0</ele><time>2026-04-18T10:43:08.999Z</time></trkpt><trkpt lat="42.863295907295466" lon="12.814362973685038"><ele>1090.75</ele><time>2026-04-18T10:43:09.999Z</time></trkpt><trkpt lat="42.863228250041615" lon="12.81420540358472"><ele>1094.5</ele><time>2026-04-18T10:43:10.999Z</time></trkpt><trkpt lat="42.86317878575626" lon="12.814045596292786"><ele>1098.25</ele><time>2026-04-18T10:43:11.999Z</time></trkpt><trkpt lat="42.86314430278884" lon="12.81386730276276"><ele>1102.0</ele><time>2026-04-18T10:43:12.999Z</time></trkpt><trkpt lat="42.8631022423815" lon="12.81369974054419"><ele>1102.0</ele><time>2026-04-18T10:43:13.999Z</time></trkpt><trkpt lat="42.86302305157334" lon="12.813558304307206"><ele>1102.0</ele><time>2026-04-18T10:43:14.999Z</time></trkpt><trkpt lat="42.86291375078012" lon="12.813464237810937"><ele>1102.0</ele><time>2026-04-18T10:43:15.999Z</time></trkpt><trkpt lat="42.86278284550141" lon="12.813397105595003"><ele>1102.0</ele><time>2026-04-18T10:43:16.999Z</time></trkpt><trkpt lat="42.86265379301711" lon="12.813340448547354"><ele>1102.2</ele><time>2026-04-18T10:43:17.999Z</time></trkpt><trkpt lat="42.862550939801615" lon="12.813279633608264"><ele>1102.4</ele><time>2026-04-18T10:43:18.999Z</time></trkpt><trkpt lat="42.862476990185954" lon="12.813190249192953"><ele>1102.6</ele><time>2026-04-18T10:43:19.999Z</time></trkpt><trkpt lat="42.862442531671384" lon="12.813062027495588"><ele>1102.8</ele><time>2026-04-18T10:43:20.999Z</time></trkpt><trkpt lat="42.862423319039785" lon="12.81290823903843"><ele>1103.0</ele><time>2026-04-18T10:43:21.999Z</time></trkpt><trkpt lat="42.86240418442151" lon="12.812746970244662"><ele>1105.25</ele><time>2026-04-18T10:43:22.999Z</time></trkpt><trkpt lat="42.862389524614386" lon="12.812589527571896"><ele>1107.5</ele><time>2026-04-18T10:43:23.999Z</time></trkpt><trkpt lat="42.86239781630985" lon="12.812428096043323"><ele>1109.75</ele><time>2026-04-18T10:43:24.999Z</time></trkpt><trkpt lat="42.86243358234685" lon="12.81227623294843"><ele>1112.0</ele><time>2026-04-18T10:43:25.999Z</time></trkpt><trkpt lat="42.862487408719026" lon="12.812145792582104"><ele>1112.0</ele><time>2026-04-18T10:43:26.999Z</time></trkpt><trkpt lat="42.86256244291882" lon="12.812041593705283"><ele>1112.0</ele><time>2026-04-18T10:43:27.999Z</time></trkpt><trkpt lat="42.86265110594887" lon="12.811952242135366"><ele>1112.0</ele><time>2026-04-18T10:43:28.999Z</time></trkpt><trkpt lat="42.86273248091734" lon="12.811844430478725"><ele>1112.0</ele><time>2026-04-18T10:43:29.999Z</time></trkpt><trkpt lat="42.86281035705599" lon="12.811731836288676"><ele>1112.0</ele><time>2026-04-18T10:43:30.999Z</time></trkpt><trkpt lat="42.862883486493395" lon="12.811624885867952"><ele>1115.3333333333335</ele><time>2026-04-18T10:43:31.999Z</time></trkpt><trkpt lat="42.86294687122701" lon="12.811550276252607"><ele>1118.6666666666667</ele><time>2026-04-18T10:43:32.999Z</time></trkpt><trkpt lat="42.8629977142886" lon="12.811478103042827"><ele>1122.0</ele><time>2026-04-18T10:43:33.999Z</time></trkpt><trkpt lat="42.86303369185935" lon="12.81139542890516"><ele>1125.3333333333333</ele><time>2026-04-18T10:43:34.999Z</time></trkpt><trkpt lat="42.86304351156286" lon="12.81129446194453"><ele>1128.6666666666665</ele><time>2026-04-18T10:43:35.999Z</time></trkpt><trkpt lat="42.86301188362614" lon="12.811201247891054"><ele>1132.0</ele><time>2026-04-18T10:43:36.999Z</time></trkpt><trkpt lat="42.86294046699964" lon="12.811136816934118"><ele>1132.0</ele><time>2026-04-18T10:43:37.999Z</time></trkpt><trkpt lat="42.86284579258996" lon="12.811114974704115"><ele>1132.0</ele><time>2026-04-18T10:43:38.999Z</time></trkpt><trkpt lat="42.86274063445016" lon="12.811139688396432"><ele>1132.0</ele><time>2026-04-18T10:43:39.999Z</time></trkpt><trkpt lat="42.86262118575189" lon="12.81116714666901"><ele>1132.0</ele><time>2026-04-18T10:43:40.999Z</time></trkpt><trkpt lat="42.8624949231006" lon="12.811137613013992"><ele>1131.0</ele><time>2026-04-18T10:43:41.999Z</time></trkpt><trkpt lat="42.862380963320646" lon="12.811103386231215"><ele>1130.0</ele><time>2026-04-18T10:43:42.999Z</time></trkpt><trkpt lat="42.86225930657822" lon="12.811060892706251"><ele>1129.0</ele><time>2026-04-18T10:43:43.999Z</time></trkpt><trkpt lat="42.86213610508513" lon="12.811013893336591"><ele>1128.0</ele><time>2026-04-18T10:43:44.999Z</time></trkpt><trkpt lat="42.86200391163647" lon="12.810974648322883"><ele>1128.0</ele><time>2026-04-18T10:43:45.999Z</time></trkpt><trkpt lat="42.861870045836355" lon="12.810959337815392"><ele>1128.0</ele><time>2026-04-18T10:43:46.999Z</time></trkpt><trkpt lat="42.86172979990585" lon="12.81094143758264"><ele>1128.0</ele><time>2026-04-18T10:43:47.999Z</time></trkpt><trkpt lat="42.86159625248083" lon="12.81089104324241"><ele>1128.0</ele><time>2026-04-18T10:43:48.999Z</time></trkpt><trkpt lat="42.861477641274604" lon="12.810792780878785"><ele>1127.75</ele><time>2026-04-18T10:43:49.999Z</time></trkpt><trkpt lat="42.86136664323456" lon="12.810680599011848"><ele>1127.5</ele><time>2026-04-18T10:43:50.999Z</time></trkpt><trkpt lat="42.86125960270669" lon="12.810577918106095"><ele>1127.25</ele><time>2026-04-18T10:43:51.999Z</time></trkpt><trkpt lat="42.8611413691044" lon="12.810518640540023"><ele>1127.0</ele><time>2026-04-18T10:43:52.999Z</time></trkpt><trkpt lat="42.86101360469782" lon="12.81049999559866"><ele>1125.25</ele><time>2026-04-18T10:43:53.999Z</time></trkpt><trkpt lat="42.86088311615185" lon="12.81052255423485"><ele>1123.5</ele><time>2026-04-18T10:43:54.999Z</time></trkpt><trkpt lat="42.8607518460324" lon="12.810555504162553"><ele>1121.75</ele><time>2026-04-18T10:43:55.999Z</time></trkpt><trkpt lat="42.86063013555658" lon="12.810564039148657"><ele>1120.0</ele><time>2026-04-18T10:43:56.999Z</time></trkpt><trkpt lat="42.86051686989131" lon="12.81054106097305"><ele>1120.0</ele><time>2026-04-18T10:43:57.999Z</time></trkpt><trkpt lat="42.86042055612393" lon="12.81049749615222"><ele>1120.0</ele><time>2026-04-18T10:43:58.999Z</time></trkpt><trkpt lat="42.860346256192564" lon="12.81043242488035"><ele>1120.0</ele><time>2026-04-18T10:43:59.999Z</time></trkpt><trkpt lat="42.860294822744166" lon="12.810348563864078"><ele>1120.0</ele><time>2026-04-18T10:44:00.999Z</time></trkpt><trkpt lat="42.860264095489434" lon="12.81024092168264"><ele>1120.0</ele><time>2026-04-18T10:44:01.999Z</time></trkpt><trkpt lat="42.86022140008897" lon="12.810121704556055"><ele>1122.8</ele><time>2026-04-18T10:44:02.999Z</time></trkpt><trkpt lat="42.86015841858549" lon="12.810016734208274"><ele>1125.6</ele><time>2026-04-18T10:44:03.999Z</time></trkpt><trkpt lat="42.86008802840446" lon="12.809921653570953"><ele>1128.4</ele><time>2026-04-18T10:44:04.999Z</time></trkpt><trkpt lat="42.86002955471413" lon="12.809812869485034"><ele>1131.2</ele><time>2026-04-18T10:44:05.999Z</time></trkpt><trkpt lat="42.85998887812157" lon="12.809699823971222"><ele>1134.0</ele><time>2026-04-18T10:44:06.999Z</time></trkpt><trkpt lat="42.85995632845903" lon="12.80959325108132"><ele>1134.0</ele><time>2026-04-18T10:44:07.999Z</time></trkpt><trkpt lat="42.859934606665675" lon="12.809472162969055"><ele>1134.0</ele><time>2026-04-18T10:44:08.999Z</time></trkpt><trkpt lat="42.85992673774943" lon="12.809360418700317"><ele>1134.0</ele><time>2026-04-18T10:44:09.999Z</time></trkpt><trkpt lat="42.85991823357209" lon="12.80926189953102"><ele>1134.0</ele><time>2026-04-18T10:44:10.999Z</time></trkpt><trkpt lat="42.85989176599486" lon="12.809134271754527"><ele>1134.0</ele><time>2026-04-18T10:44:12.999Z</time></trkpt><trkpt lat="42.85987290112117" lon="12.809034709474629"><ele>1134.0</ele><time>2026-04-18T10:44:14.999Z</time></trkpt><trkpt lat="42.85993572755338" lon="12.808958893894307"><ele>1134.0</ele><time>2026-04-18T10:44:17.999Z</time></trkpt><trkpt lat="42.859989353475584" lon="12.80901921456219"><ele>1134.0</ele><time>2026-04-18T10:44:19.999Z</time></trkpt><trkpt lat="42.860001766514124" lon="12.809161791305286"><ele>1134.0</ele><time>2026-04-18T10:44:21.999Z</time></trkpt><trkpt lat="42.86003228506541" lon="12.80931924214854"><ele>1134.0</ele><time>2026-04-18T10:44:23.999Z</time></trkpt><trkpt lat="42.86007423361977" lon="12.809397041537482"><ele>1134.0</ele><time>2026-04-18T10:44:24.999Z</time></trkpt><trkpt lat="42.86013261739802" lon="12.80947899868898"><ele>1134.0</ele><time>2026-04-18T10:44:25.999Z</time></trkpt><trkpt lat="42.86019462983696" lon="12.809550853651604"><ele>1137.4</ele><time>2026-04-18T10:44:26.999Z</time></trkpt><trkpt lat="42.86026828381389" lon="12.809620996464076"><ele>1140.8000000000002</ele><time>2026-04-18T10:44:27.999Z</time></trkpt><trkpt lat="42.86034217755217" lon="12.809682944350556"><ele>1144.1999999999998</ele><time>2026-04-18T10:44:28.999Z</time></trkpt><trkpt lat="42.86041699159649" lon="12.809738655384988"><ele>1147.6</ele><time>2026-04-18T10:44:29.999Z</time></trkpt><trkpt lat="42.860502552091006" lon="12.809784095978653"><ele>1151.0</ele><time>2026-04-18T10:44:30.999Z</time></trkpt><trkpt lat="42.86060103898737" lon="12.809822124311331"><ele>1151.0</ele><time>2026-04-18T10:44:32Z</time></trkpt><trkpt lat="42.860695151082126" lon="12.809845583567611"><ele>1151.0</ele><time>2026-04-18T10:44:33Z</time></trkpt><trkpt lat="42.860784804115546" lon="12.809858860096329"><ele>1151.0</ele><time>2026-04-18T10:44:34Z</time></trkpt><trkpt lat="42.86089028863646" lon="12.809859326390997"><ele>1151.0</ele><time>2026-04-18T10:44:35Z</time></trkpt><trkpt lat="42.8609965487766" lon="12.809846183916934"><ele>1151.0</ele><time>2026-04-18T10:44:36Z</time></trkpt><trkpt lat="42.86111103202343" lon="12.809816482327289"><ele>1152.5</ele><time>2026-04-18T10:44:37Z</time></trkpt><trkpt lat="42.8612224165449" lon="12.809778776402478"><ele>1154.0</ele><time>2026-04-18T10:44:38Z</time></trkpt><trkpt lat="42.861338272248794" lon="12.80974821068879"><ele>1155.5</ele><time>2026-04-18T10:44:39Z</time></trkpt><trkpt lat="42.86146946121369" lon="12.809746869324044"><ele>1157.0</ele><time>2026-04-18T10:44:40Z</time></trkpt><trkpt lat="42.8615976001" lon="12.80975913970337"><ele>1157.0</ele><time>2026-04-18T10:44:41Z</time></trkpt><trkpt lat="42.861715836992495" lon="12.809764733866356"><ele>1157.0</ele><time>2026-04-18T10:44:42Z</time></trkpt><trkpt lat="42.86184594991762" lon="12.809753275692772"><ele>1157.0</ele><time>2026-04-18T10:44:43Z</time></trkpt><trkpt lat="42.86197210409417" lon="12.809733812372945"><ele>1157.0</ele><time>2026-04-18T10:44:44Z</time></trkpt><trkpt lat="42.86209883755905" lon="12.809704736731636"><ele>1156.75</ele><time>2026-04-18T10:44:45Z</time></trkpt><trkpt lat="42.8622166290248" lon="12.809673927799974"><ele>1156.5</ele><time>2026-04-18T10:44:46Z</time></trkpt><trkpt lat="42.86232113080749" lon="12.809641581873027"><ele>1156.25</ele><time>2026-04-18T10:44:47Z</time></trkpt><trkpt lat="42.86242301583119" lon="12.80958186587295"><ele>1156.0</ele><time>2026-04-18T10:44:48Z</time></trkpt><trkpt lat="42.86251437182104" lon="12.809485341703184"><ele>1156.0</ele><time>2026-04-18T10:44:49Z</time></trkpt><trkpt lat="42.86259080877013" lon="12.809368625697523"><ele>1156.0</ele><time>2026-04-18T10:44:50Z</time></trkpt><trkpt lat="42.862673906189265" lon="12.8092451368881"><ele>1156.0</ele><time>2026-04-18T10:44:51Z</time></trkpt><trkpt lat="42.86276251086786" lon="12.809139844164523"><ele>1156.0</ele><time>2026-04-18T10:44:52Z</time></trkpt><trkpt lat="42.862864964330576" lon="12.809076346133075"><ele>1162.75</ele><time>2026-04-18T10:44:53Z</time></trkpt><trkpt lat="42.86298634637927" lon="12.8090599249454"><ele>1169.5</ele><time>2026-04-18T10:44:54Z</time></trkpt><trkpt lat="42.86309755841646" lon="12.809044568558734"><ele>1176.25</ele><time>2026-04-18T10:44:55Z</time></trkpt><trkpt lat="42.86320074741702" lon="12.808970721260048"><ele>1183.0</ele><time>2026-04-18T10:44:56Z</time></trkpt><trkpt lat="42.8633005725196" lon="12.808894430275028"><ele>1183.0</ele><time>2026-04-18T10:44:57Z</time></trkpt><trkpt lat="42.86341188463058" lon="12.80883532745457"><ele>1183.0</ele><time>2026-04-18T10:44:58Z</time></trkpt><trkpt lat="42.86349787134433" lon="12.808813149187191"><ele>1183.0</ele><time>2026-04-18T10:44:59Z</time></trkpt><trkpt lat="42.86356283477388" lon="12.808847936396269"><ele>1183.0</ele><time>2026-04-18T10:45:00Z</time></trkpt><trkpt lat="42.86361971449128" lon="12.808942689735295"><ele>1183.0</ele><time>2026-04-18T10:45:01Z</time></trkpt><trkpt lat="42.86369318731889" lon="12.809040221598044"><ele>1180.5</ele><time>2026-04-18T10:45:02Z</time></trkpt><trkpt lat="42.863768688735966" lon="12.8091291784062"><ele>1178.0</ele><time>2026-04-18T10:45:03Z</time></trkpt><trkpt lat="42.863891617485834" lon="12.809212947788506"><ele>1175.5</ele><time>2026-04-18T10:45:04Z</time></trkpt><trkpt lat="42.864000810129674" lon="12.809271108346776"><ele>1173.0</ele><time>2026-04-18T10:45:05Z</time></trkpt><trkpt lat="42.864109713136216" lon="12.809332368490336"><ele>1173.0</ele><time>2026-04-18T10:45:06Z</time></trkpt><trkpt lat="42.86423443402213" lon="12.809369824452247"><ele>1173.0</ele><time>2026-04-18T10:45:07Z</time></trkpt><trkpt lat="42.86437293400143" lon="12.809404683676267"><ele>1173.0</ele><time>2026-04-18T10:45:08Z</time></trkpt><trkpt lat="42.864509955904296" lon="12.809436986815516"><ele>1173.0</ele><time>2026-04-18T10:45:09Z</time></trkpt><trkpt lat="42.864634621203166" lon="12.809453858149674"><ele>1176.75</ele><time>2026-04-18T10:45:10Z</time></trkpt><trkpt lat="42.8647753965117" lon="12.809455121242744"><ele>1180.5</ele><time>2026-04-18T10:45:11Z</time></trkpt><trkpt lat="42.864910961400966" lon="12.809432488763496"><ele>1184.25</ele><time>2026-04-18T10:45:12Z</time></trkpt><trkpt lat="42.86505255040143" lon="12.809391842711232"><ele>1188.0</ele><time>2026-04-18T10:45:13Z</time></trkpt><trkpt lat="42.86518969601771" lon="12.809363814991617"><ele>1192.5</ele><time>2026-04-18T10:45:14Z</time></trkpt><trkpt lat="42.86531773263565" lon="12.809341177751161"><ele>1197.0</ele><time>2026-04-18T10:45:15Z</time></trkpt><trkpt lat="42.86543773841658" lon="12.809333295991477"><ele>1201.5</ele><time>2026-04-18T10:45:16Z</time></trkpt><trkpt lat="42.86557857337148" lon="12.809312302642768"><ele>1206.0</ele><time>2026-04-18T10:45:17Z</time></trkpt><trkpt lat="42.8656921110095" lon="12.809263411342007"><ele>1209.0</ele><time>2026-04-18T10:45:18Z</time></trkpt><trkpt lat="42.865798479044486" lon="12.809209972069173"><ele>1212.0</ele><time>2026-04-18T10:45:19Z</time></trkpt><trkpt lat="42.86590038197559" lon="12.80916069936894"><ele>1215.0</ele><time>2026-04-18T10:45:20Z</time></trkpt><trkpt lat="42.865980751904345" lon="12.80908454044734"><ele>1218.0</ele><time>2026-04-18T10:45:21Z</time></trkpt><trkpt lat="42.866048645338886" lon="12.808976365938063"><ele>1221.0</ele><time>2026-04-18T10:45:22Z</time></trkpt><trkpt lat="42.86611021540057" lon="12.80886458447825"><ele>1221.5</ele><time>2026-04-18T10:45:23Z</time></trkpt><trkpt lat="42.86620182564875" lon="12.808792923569992"><ele>1222.0</ele><time>2026-04-18T10:45:24Z</time></trkpt><trkpt lat="42.86631084396108" lon="12.808742017514662"><ele>1222.5</ele><time>2026-04-18T10:45:25Z</time></trkpt><trkpt lat="42.86642909195433" lon="12.808672910547225"><ele>1223.0</ele><time>2026-04-18T10:45:26Z</time></trkpt><trkpt lat="42.86652293420242" lon="12.808598064202215"><ele>1223.0</ele><time>2026-04-18T10:45:27Z</time></trkpt><trkpt lat="42.866605560429036" lon="12.808507298354575"><ele>1223.0</ele><time>2026-04-18T10:45:28Z</time></trkpt><trkpt lat="42.86668907087336" lon="12.808415018827318"><ele>1223.0</ele><time>2026-04-18T10:45:29Z</time></trkpt><trkpt lat="42.866764011165216" lon="12.80830977598595"><ele>1223.0</ele><time>2026-04-18T10:45:30Z</time></trkpt><trkpt lat="42.86683565984966" lon="12.808199860610479"><ele>1223.0</ele><time>2026-04-18T10:45:31Z</time></trkpt><trkpt lat="42.86689504114743" lon="12.808090811338307"><ele>1225.2</ele><time>2026-04-18T10:45:32Z</time></trkpt><trkpt lat="42.86693603727277" lon="12.807968781990118"><ele>1227.4</ele><time>2026-04-18T10:45:33Z</time></trkpt><trkpt lat="42.86695723272951" lon="12.80781850768532"><ele>1229.6000000000001</ele><time>2026-04-18T10:45:33.999Z</time></trkpt><trkpt lat="42.86697856999497" lon="12.807706571895071"><ele>1231.8</ele><time>2026-04-18T10:45:34.999Z</time></trkpt><trkpt lat="42.867028110522554" lon="12.807612217759425"><ele>1234.0</ele><time>2026-04-18T10:45:35.999Z</time></trkpt><trkpt lat="42.86710683936154" lon="12.807566707588848"><ele>1238.25</ele><time>2026-04-18T10:45:36.999Z</time></trkpt><trkpt lat="42.867222740439075" lon="12.807593673913626"><ele>1242.5</ele><time>2026-04-18T10:45:37.999Z</time></trkpt><trkpt lat="42.867326280744436" lon="12.807621801854749"><ele>1246.75</ele><time>2026-04-18T10:45:38.999Z</time></trkpt><trkpt lat="42.86745649985423" lon="12.807604796516207"><ele>1251.0</ele><time>2026-04-18T10:45:39.999Z</time></trkpt><trkpt lat="42.86757631769553" lon="12.807549805004601"><ele>1249.0</ele><time>2026-04-18T10:45:40.999Z</time></trkpt><trkpt lat="42.86768823201113" lon="12.80750158070529"><ele>1247.0</ele><time>2026-04-18T10:45:41.999Z</time></trkpt><trkpt lat="42.86780904676495" lon="12.80745876504759"><ele>1245.0</ele><time>2026-04-18T10:45:42.999Z</time></trkpt><trkpt lat="42.86791516264526" lon="12.807381170818507"><ele>1243.0</ele><time>2026-04-18T10:45:43.999Z</time></trkpt><trkpt lat="42.86800066210508" lon="12.807264522623727"><ele>1243.0</ele><time>2026-04-18T10:45:44.999Z</time></trkpt><trkpt lat="42.86806187276328" lon="12.807121360931525"><ele>1243.0</ele><time>2026-04-18T10:45:45.999Z</time></trkpt><trkpt lat="42.86813348733554" lon="12.806988570727166"><ele>1243.0</ele><time>2026-04-18T10:45:46.999Z</time></trkpt><trkpt lat="42.868219745580554" lon="12.806841432494078"><ele>1243.0</ele><time>2026-04-18T10:45:47.999Z</time></trkpt><trkpt lat="42.868284345098516" lon="12.806698469382606"><ele>1246.5</ele><time>2026-04-18T10:45:48.999Z</time></trkpt><trkpt lat="42.868388586140426" lon="12.806571098220067"><ele>1250.0</ele><time>2026-04-18T10:45:49.999Z</time></trkpt><trkpt lat="42.868479996315905" lon="12.806432362965639"><ele>1253.5</ele><time>2026-04-18T10:45:50.999Z</time></trkpt><trkpt lat="42.868563207157976" lon="12.80632434048925"><ele>1257.0</ele><time>2026-04-18T10:45:51.999Z</time></trkpt><trkpt lat="42.86862749420153" lon="12.806210382969969"><ele>1257.0</ele><time>2026-04-18T10:45:52.999Z</time></trkpt><trkpt lat="42.86867405806608" lon="12.806142009163906"><ele>1257.0</ele><time>2026-04-18T10:45:53.999Z</time></trkpt><trkpt lat="42.86877230597022" lon="12.80613402557647"><ele>1257.0</ele><time>2026-04-18T10:45:54.999Z</time></trkpt><trkpt lat="42.86886115717393" lon="12.806171717078504"><ele>1257.0</ele><time>2026-04-18T10:45:55.999Z</time></trkpt><trkpt lat="42.868945389395144" lon="12.806266572980048"><ele>1257.0</ele><time>2026-04-18T10:45:56.999Z</time></trkpt><trkpt lat="42.86902462507523" lon="12.806350160140244"><ele>1257.0</ele><time>2026-04-18T10:45:57.999Z</time></trkpt><trkpt lat="42.86912216155394" lon="12.80634742891539"><ele>1257.0</ele><time>2026-04-18T10:45:58.999Z</time></trkpt><trkpt lat="42.869233141882496" lon="12.806318594934261"><ele>1257.0</ele><time>2026-04-18T10:45:59.999Z</time></trkpt><trkpt lat="42.86935118203613" lon="12.80623438881855"><ele>1257.0</ele><time>2026-04-18T10:46:00.999Z</time></trkpt><trkpt lat="42.869429013205014" lon="12.80613907438016"><ele>1257.0</ele><time>2026-04-18T10:46:01.999Z</time></trkpt><trkpt lat="42.86950442922005" lon="12.805988227559656"><ele>1259.6</ele><time>2026-04-18T10:46:02.999Z</time></trkpt><trkpt lat="42.8695839903736" lon="12.80584792718112"><ele>1262.2</ele><time>2026-04-18T10:46:04.999Z</time></trkpt><trkpt lat="42.869675977474415" lon="12.805942821192913"><ele>1264.8</ele><time>2026-04-18T10:46:06.999Z</time></trkpt><trkpt lat="42.86978816265484" lon="12.805915753679361"><ele>1267.4</ele><time>2026-04-18T10:46:07.999Z</time></trkpt><trkpt lat="42.8698597080675" lon="12.805841803720426"><ele>1270.0</ele><time>2026-04-18T10:46:08.999Z</time></trkpt><trkpt lat="42.869942177629355" lon="12.805755296241372"><ele>1270.0</ele><time>2026-04-18T10:46:09.999Z</time></trkpt><trkpt lat="42.86999973298994" lon="12.805609513260494"><ele>1270.0</ele><time>2026-04-18T10:46:10.999Z</time></trkpt><trkpt lat="42.87003619173223" lon="12.80546723999534"><ele>1270.0</ele><time>2026-04-18T10:46:11.999Z</time></trkpt><trkpt lat="42.87010773129736" lon="12.805311205752714"><ele>1270.0</ele><time>2026-04-18T10:46:12.999Z</time></trkpt><trkpt lat="42.87019709440262" lon="12.80516530115443"><ele>1268.75</ele><time>2026-04-18T10:46:13.999Z</time></trkpt><trkpt lat="42.87029672652635" lon="12.805069076854487"><ele>1267.5</ele><time>2026-04-18T10:46:14.999Z</time></trkpt><trkpt lat="42.87039831054703" lon="12.804970708211284"><ele>1266.25</ele><time>2026-04-18T10:46:15.999Z</time></trkpt><trkpt lat="42.87049788228219" lon="12.804800765717312"><ele>1265.0</ele><time>2026-04-18T10:46:16.999Z</time></trkpt><trkpt lat="42.87056274257918" lon="12.804725625109343"><ele>1265.0</ele><time>2026-04-18T10:46:18.999Z</time></trkpt><trkpt lat="42.87060942515837" lon="12.8046522291406"><ele>1265.0</ele><time>2026-04-18T10:46:22.999Z</time></trkpt><trkpt lat="42.87065191917038" lon="12.804576901768865"><ele>1265.0</ele><time>2026-04-18T10:46:24.999Z</time></trkpt><trkpt lat="42.870702587155066" lon="12.804454641242273"><ele>1265.0</ele><time>2026-04-18T10:46:26.999Z</time></trkpt><trkpt lat="42.870763365222984" lon="12.804355699134293"><ele>1265.0</ele><time>2026-04-18T10:46:27.999Z</time></trkpt><trkpt lat="42.870820103281176" lon="12.804282504900854"><ele>1265.0</ele><time>2026-04-18T10:46:28.999Z</time></trkpt><trkpt lat="42.870895622729215" lon="12.804174314811524"><ele>1263.2</ele><time>2026-04-18T10:46:30.999Z</time></trkpt><trkpt lat="42.8709509688844" lon="12.804078145639405"><ele>1261.4</ele><time>2026-04-18T10:46:32.999Z</time></trkpt><trkpt lat="42.87102124725521" lon="12.803971500845456"><ele>1259.6</ele><time>2026-04-18T10:46:34.999Z</time></trkpt><trkpt lat="42.871092255692986" lon="12.803869926530433"><ele>1257.8</ele><time>2026-04-18T10:46:36.999Z</time></trkpt><trkpt lat="42.87116380093593" lon="12.803754776481778"><ele>1256.0</ele><time>2026-04-18T10:46:39Z</time></trkpt><trkpt lat="42.87122328420126" lon="12.8036780285428"><ele>1256.0</ele><time>2026-04-18T10:46:42Z</time></trkpt><trkpt lat="42.87126902262752" lon="12.803616099747956"><ele>1256.0</ele><time>2026-04-18T10:46:44Z</time></trkpt><trkpt lat="42.87132354732243" lon="12.803500591551934"><ele>1256.0</ele><time>2026-04-18T10:46:47Z</time></trkpt><trkpt lat="42.87135179519928" lon="12.803421090600587"><ele>1256.0</ele><time>2026-04-18T10:46:49Z</time></trkpt><trkpt lat="42.87137385204179" lon="12.803338172074005"><ele>1256.0</ele><time>2026-04-18T10:46:51Z</time></trkpt><trkpt lat="42.87139561652797" lon="12.803217241743969"><ele>1256.0</ele><time>2026-04-18T10:46:54Z</time></trkpt><trkpt lat="42.87139990152754" lon="12.803113072352525"><ele>1257.8</ele><time>2026-04-18T10:46:56Z</time></trkpt><trkpt lat="42.871465548954305" lon="12.80289333164985"><ele>1259.6</ele><time>2026-04-18T10:46:57Z</time></trkpt><trkpt lat="42.87145407185698" lon="12.80278540569384"><ele>1261.4</ele><time>2026-04-18T10:46:58Z</time></trkpt><trkpt lat="42.8714389854582" lon="12.802694206403217"><ele>1263.2</ele><time>2026-04-18T10:46:59Z</time></trkpt><trkpt lat="42.87139689537975" lon="12.802539829444925"><ele>1265.0</ele><time>2026-04-18T10:47:01Z</time></trkpt><trkpt lat="42.87133921778651" lon="12.802403633561351"><ele>1265.0</ele><time>2026-04-18T10:47:03Z</time></trkpt><trkpt lat="42.87130051455013" lon="12.802301772158664"><ele>1265.0</ele><time>2026-04-18T10:47:05Z</time></trkpt><trkpt lat="42.87127431299003" lon="12.80222188611293"><ele>1265.0</ele><time>2026-04-18T10:47:07Z</time></trkpt><trkpt lat="42.87121347972702" lon="12.802106650700608"><ele>1265.0</ele><time>2026-04-18T10:47:09Z</time></trkpt><trkpt lat="42.8711751028981" lon="12.802037409289511"><ele>1265.0</ele><time>2026-04-18T10:47:11Z</time></trkpt><trkpt lat="42.87114313779764" lon="12.801947917056482"><ele>1265.0</ele><time>2026-04-18T10:47:15Z</time></trkpt><trkpt lat="42.87107501218815" lon="12.801898710321183"><ele>1266.0</ele><time>2026-04-18T10:47:18Z</time></trkpt><trkpt lat="42.87102064121422" lon="12.801831738925399"><ele>1267.0</ele><time>2026-04-18T10:47:23Z</time></trkpt><trkpt lat="42.87096244463091" lon="12.80176419117967"><ele>1268.0</ele><time>2026-04-18T10:47:26Z</time></trkpt><trkpt lat="42.87092132825346" lon="12.801691835750098"><ele>1269.0</ele><time>2026-04-18T10:47:29Z</time></trkpt><trkpt lat="42.8708590923877" lon="12.801662161032624"><ele>1270.0</ele><time>2026-04-18T10:47:33Z</time></trkpt><trkpt lat="42.87079270860064" lon="12.801548234525379"><ele>1271.0</ele><time>2026-04-18T10:47:34Z</time></trkpt><trkpt lat="42.870759048903246" lon="12.801467361411408"><ele>1271.0</ele><time>2026-04-18T10:47:36Z</time></trkpt><trkpt lat="42.870755792666365" lon="12.801372233085665"><ele>1271.0</ele><time>2026-04-18T10:47:38Z</time></trkpt><trkpt lat="42.87074008423733" lon="12.801271811955033"><ele>1271.0</ele><time>2026-04-18T10:47:41Z</time></trkpt><trkpt lat="42.870734366636334" lon="12.801175419482796"><ele>1271.0</ele><time>2026-04-18T10:47:43Z</time></trkpt><trkpt lat="42.87077431629458" lon="12.801049898665527"><ele>1271.0</ele><time>2026-04-18T10:47:47Z</time></trkpt><trkpt lat="42.87080725984517" lon="12.800936806853956"><ele>1271.0</ele><time>2026-04-18T10:47:49Z</time></trkpt><trkpt lat="42.87086382823" lon="12.800838075983936"><ele>1271.0</ele><time>2026-04-18T10:47:51Z</time></trkpt><trkpt lat="42.870909391857246" lon="12.80077858832841"><ele>1271.0</ele><time>2026-04-18T10:47:52Z</time></trkpt><trkpt lat="42.870953919993205" lon="12.80071430810624"><ele>1271.0</ele><time>2026-04-18T10:47:53Z</time></trkpt><trkpt lat="42.87102643366176" lon="12.800664102253805"><ele>1271.0</ele><time>2026-04-18T10:47:54.999Z</time></trkpt><trkpt lat="42.87111346963119" lon="12.800554262397325"><ele>1271.0</ele><time>2026-04-18T10:47:56.999Z</time></trkpt><trkpt lat="42.87119942323036" lon="12.800468394380307"><ele>1271.0</ele><time>2026-04-18T10:47:58.999Z</time></trkpt><trkpt lat="42.87124067147724" lon="12.800397215097036"><ele>1272.6</ele><time>2026-04-18T10:47:59.999Z</time></trkpt><trkpt lat="42.87131996602533" lon="12.800263640672792"><ele>1274.1999999999998</ele><time>2026-04-18T10:48:00.999Z</time></trkpt><trkpt lat="42.87135876123552" lon="12.800195766459264"><ele>1275.8000000000002</ele><time>2026-04-18T10:48:01.999Z</time></trkpt><trkpt lat="42.871445908247544" lon="12.800069132114125"><ele>1277.4</ele><time>2026-04-18T10:48:03.999Z</time></trkpt><trkpt lat="42.87153752735647" lon="12.800007185247866"><ele>1279.0</ele><time>2026-04-18T10:48:05.999Z</time></trkpt><trkpt lat="42.871599676636755" lon="12.799933349198339"><ele>1279.0</ele><time>2026-04-18T10:48:07.999Z</time></trkpt><trkpt lat="42.871639853639344" lon="12.799863731577355"><ele>1279.0</ele><time>2026-04-18T10:48:09.999Z</time></trkpt><trkpt lat="42.87163385117248" lon="12.799751560036457"><ele>1279.0</ele><time>2026-04-18T10:48:12.999Z</time></trkpt><trkpt lat="42.87163465935638" lon="12.79966288779457"><ele>1279.0</ele><time>2026-04-18T10:48:15.999Z</time></trkpt><trkpt lat="42.87170027851912" lon="12.799554174245559"><ele>1279.0</ele><time>2026-04-18T10:48:18.999Z</time></trkpt><trkpt lat="42.87175842792589" lon="12.799451623225332"><ele>1279.0</ele><time>2026-04-18T10:48:20.999Z</time></trkpt><trkpt lat="42.871824997914686" lon="12.799387889723493"><ele>1277.0</ele><time>2026-04-18T10:48:22.999Z</time></trkpt><trkpt lat="42.87191245695502" lon="12.799301674522914"><ele>1275.0</ele><time>2026-04-18T10:48:24.999Z</time></trkpt><trkpt lat="42.872008410540005" lon="12.799214567805853"><ele>1273.0</ele><time>2026-04-18T10:48:26.999Z</time></trkpt><trkpt lat="42.87207116340779" lon="12.799113878173296"><ele>1271.0</ele><time>2026-04-18T10:48:28.999Z</time></trkpt><trkpt lat="42.87215447646165" lon="12.799001195862449"><ele>1269.0</ele><time>2026-04-18T10:48:30.999Z</time></trkpt><trkpt lat="42.8722091815751" lon="12.798951260572158"><ele>1269.0</ele><time>2026-04-18T10:48:31.999Z</time></trkpt><trkpt lat="42.872268395520386" lon="12.798915316673773"><ele>1269.0</ele><time>2026-04-18T10:48:32.999Z</time></trkpt><trkpt lat="42.87232856378803" lon="12.798861338147685"><ele>1269.0</ele><time>2026-04-18T10:48:33.999Z</time></trkpt><trkpt lat="42.87238597886806" lon="12.798811264841122"><ele>1269.0</ele><time>2026-04-18T10:48:34.999Z</time></trkpt><trkpt lat="42.87245169858072" lon="12.798781131779926"><ele>1269.0</ele><time>2026-04-18T10:48:36.999Z</time></trkpt><trkpt lat="42.87250901786234" lon="12.798736770488045"><ele>1269.0</ele><time>2026-04-18T10:48:38.999Z</time></trkpt><trkpt lat="42.872588669071476" lon="12.79867537751584"><ele>1269.0</ele><time>2026-04-18T10:48:41.999Z</time></trkpt><trkpt lat="42.87266221744138" lon="12.798615196942386"><ele>1269.8333333333333</ele><time>2026-04-18T10:48:44Z</time></trkpt><trkpt lat="42.872714700402476" lon="12.798562971193162"><ele>1270.6666666666667</ele><time>2026-04-18T10:48:46Z</time></trkpt><trkpt lat="42.87277331527081" lon="12.798521494045014"><ele>1271.5</ele><time>2026-04-18T10:48:49Z</time></trkpt><trkpt lat="42.87284969288599" lon="12.79846514156113"><ele>1272.3333333333335</ele><time>2026-04-18T10:48:52Z</time></trkpt><trkpt lat="42.872945911248344" lon="12.798458153218744"><ele>1273.1666666666667</ele><time>2026-04-18T10:48:55Z</time></trkpt><trkpt lat="42.87300528726201" lon="12.798421919903655"><ele>1274.0</ele><time>2026-04-18T10:48:57Z</time></trkpt><trkpt lat="42.87308918799963" lon="12.798310543590318"><ele>1274.0</ele><time>2026-04-18T10:48:59Z</time></trkpt><trkpt lat="42.87317969100924" lon="12.798207970794959"><ele>1274.0</ele><time>2026-04-18T10:49:01Z</time></trkpt><trkpt lat="42.87325279361467" lon="12.798141186411533"><ele>1274.0</ele><time>2026-04-18T10:49:03Z</time></trkpt><trkpt lat="42.87331361307891" lon="12.798103705016684"><ele>1274.0</ele><time>2026-04-18T10:49:06Z</time></trkpt><trkpt lat="42.87337987607152" lon="12.798045932423907"><ele>1274.0</ele><time>2026-04-18T10:49:11Z</time></trkpt><trkpt lat="42.87343443247181" lon="12.797979270645934"><ele>1274.0</ele><time>2026-04-18T10:49:14Z</time></trkpt><trkpt lat="42.873464264944076" lon="12.797857048257004"><ele>1273.5714285714287</ele><time>2026-04-18T10:49:17Z</time></trkpt><trkpt lat="42.873492061837304" lon="12.797764617687502"><ele>1273.142857142857</ele><time>2026-04-18T10:49:19Z</time></trkpt><trkpt lat="42.87349448359278" lon="12.797673336474208"><ele>1272.7142857142858</ele><time>2026-04-18T10:49:25Z</time></trkpt><trkpt lat="42.87349208896316" lon="12.797580173500043"><ele>1272.2857142857142</ele><time>2026-04-18T10:49:35Z</time></trkpt><trkpt lat="42.8734456047336" lon="12.797518686614504"><ele>1271.857142857143</ele><time>2026-04-18T10:49:51Z</time></trkpt><trkpt lat="42.873405398546524" lon="12.79741839017923"><ele>1271.4285714285716</ele><time>2026-04-18T10:49:54Z</time></trkpt><trkpt lat="42.87341240376759" lon="12.797292932309668"><ele>1271.0</ele><time>2026-04-18T10:49:57Z</time></trkpt><trkpt lat="42.87340212165637" lon="12.797185522264341"><ele>1274.8333333333335</ele><time>2026-04-18T10:50:00Z</time></trkpt><trkpt lat="42.87334781086466" lon="12.797053892901797"><ele>1278.6666666666667</ele><time>2026-04-18T10:50:03Z</time></trkpt><trkpt lat="42.873304039401674" lon="12.796942186093194"><ele>1282.5</ele><time>2026-04-18T10:50:05Z</time></trkpt><trkpt lat="42.87330572742939" lon="12.79684816126925"><ele>1286.3333333333333</ele><time>2026-04-18T10:50:06Z</time></trkpt><trkpt lat="42.87330828598123" lon="12.796742028532522"><ele>1290.1666666666665</ele><time>2026-04-18T10:50:07Z</time></trkpt><trkpt lat="42.873315184866364" lon="12.796641855304857"><ele>1294.0</ele><time>2026-04-18T10:50:08Z</time></trkpt><trkpt lat="42.87332495514056" lon="12.796533096392935"><ele>1296.2857142857142</ele><time>2026-04-18T10:50:08.999Z</time></trkpt><trkpt lat="42.87332669114486" lon="12.796415570926479"><ele>1298.5714285714287</ele><time>2026-04-18T10:50:09.999Z</time></trkpt><trkpt lat="42.873330684099734" lon="12.796313529474848"><ele>1300.857142857143</ele><time>2026-04-18T10:50:10.999Z</time></trkpt><trkpt lat="42.873338687351676" lon="12.796220012690227"><ele>1303.142857142857</ele><time>2026-04-18T10:50:11.999Z</time></trkpt><trkpt lat="42.87332858771477" lon="12.796122876747795"><ele>1305.4285714285713</ele><time>2026-04-18T10:50:12.999Z</time></trkpt><trkpt lat="42.873316464913806" lon="12.796029660608607"><ele>1307.7142857142858</ele><time>2026-04-18T10:50:13.999Z</time></trkpt><trkpt lat="42.87329929190892" lon="12.7959440512524"><ele>1310.0</ele><time>2026-04-18T10:50:14.999Z</time></trkpt><trkpt lat="42.87327858447375" lon="12.79578021495864"><ele>1312.8</ele><time>2026-04-18T10:50:16.999Z</time></trkpt><trkpt lat="42.873243235040924" lon="12.795649106800365"><ele>1315.6</ele><time>2026-04-18T10:50:18.999Z</time></trkpt><trkpt lat="42.87321557166799" lon="12.795534013985252"><ele>1318.4</ele><time>2026-04-18T10:50:20.999Z</time></trkpt><trkpt lat="42.87319968476731" lon="12.795425795713083"><ele>1321.2</ele><time>2026-04-18T10:50:22.999Z</time></trkpt><trkpt lat="42.873184471119366" lon="12.795298277187392"><ele>1324.0</ele><time>2026-04-18T10:50:24.999Z</time></trkpt><trkpt lat="42.87316711527916" lon="12.795157317160793"><ele>1326.3333333333333</ele><time>2026-04-18T10:50:26.999Z</time></trkpt><trkpt lat="42.87320705656975" lon="12.795008876562614"><ele>1328.6666666666665</ele><time>2026-04-18T10:50:28.999Z</time></trkpt><trkpt lat="42.87324262083685" lon="12.794933665017476"><ele>1331.0</ele><time>2026-04-18T10:50:29.999Z</time></trkpt><trkpt lat="42.87328345340072" lon="12.794853448757102"><ele>1333.3333333333333</ele><time>2026-04-18T10:50:30.999Z</time></trkpt><trkpt lat="42.873337323238246" lon="12.794772375331222"><ele>1335.6666666666667</ele><time>2026-04-18T10:50:31.999Z</time></trkpt><trkpt lat="42.873384149290814" lon="12.794704810449135"><ele>1338.0</ele><time>2026-04-18T10:50:32.999Z</time></trkpt><trkpt lat="42.87344638491815" lon="12.794651200524534"><ele>1338.0</ele><time>2026-04-18T10:50:33.999Z</time></trkpt><trkpt lat="42.87351023756772" lon="12.794610897555934"><ele>1338.0</ele><time>2026-04-18T10:50:34.999Z</time></trkpt><trkpt lat="42.87359341069961" lon="12.794612639513028"><ele>1338.0</ele><time>2026-04-18T10:50:35.999Z</time></trkpt><trkpt lat="42.87367217472631" lon="12.79461931987422"><ele>1338.0</ele><time>2026-04-18T10:50:36.999Z</time></trkpt><trkpt lat="42.87374296045449" lon="12.79463952692759"><ele>1338.0</ele><time>2026-04-18T10:50:37.999Z</time></trkpt><trkpt lat="42.87380674903704" lon="12.794663381422497"><ele>1338.0</ele><time>2026-04-18T10:50:38.999Z</time></trkpt><trkpt lat="42.87388986995489" lon="12.794686290225167"><ele>1338.0</ele><time>2026-04-18T10:50:40.999Z</time></trkpt><trkpt lat="42.87397275575735" lon="12.794653288126085"><ele>1338.0</ele><time>2026-04-18T10:51:05Z</time></trkpt><trkpt lat="42.87406710873971" lon="12.794562079967143"><ele>1338.0</ele><time>2026-04-18T10:51:07Z</time></trkpt><trkpt lat="42.87411870987161" lon="12.794474246106896"><ele>1338.0</ele><time>2026-04-18T10:51:08Z</time></trkpt><trkpt lat="42.8741859908237" lon="12.794408196358008"><ele>1338.0</ele><time>2026-04-18T10:51:09Z</time></trkpt><trkpt lat="42.87427217717906" lon="12.794362413585715"><ele>1337.2</ele><time>2026-04-18T10:51:10Z</time></trkpt><trkpt lat="42.87438116281875" lon="12.794358407281978"><ele>1336.4</ele><time>2026-04-18T10:51:11Z</time></trkpt><trkpt lat="42.87447765184193" lon="12.794386960460324"><ele>1335.6000000000001</ele><time>2026-04-18T10:51:12Z</time></trkpt><trkpt lat="42.874565915739375" lon="12.794407974629191"><ele>1334.8000000000002</ele><time>2026-04-18T10:51:13Z</time></trkpt><trkpt lat="42.87464922427466" lon="12.79442097710265"><ele>1334.0</ele><time>2026-04-18T10:51:14Z</time></trkpt><trkpt lat="42.874753347159164" lon="12.794407076549987"><ele>1334.0</ele><time>2026-04-18T10:51:16Z</time></trkpt><trkpt lat="42.87484315600072" lon="12.794415236746245"><ele>1334.0</ele><time>2026-04-18T10:51:18Z</time></trkpt><trkpt lat="42.87491970037465" lon="12.794429940115267"><ele>1334.0</ele><time>2026-04-18T10:51:20Z</time></trkpt><trkpt lat="42.875018844430585" lon="12.794428333662777"><ele>1334.0</ele><time>2026-04-18T10:51:22Z</time></trkpt><trkpt lat="42.87512567756153" lon="12.794414292241461"><ele>1334.0</ele><time>2026-04-18T10:51:24Z</time></trkpt><trkpt lat="42.87523022679372" lon="12.79438032560209"><ele>1333.4</ele><time>2026-04-18T10:51:26Z</time></trkpt><trkpt lat="42.87532754715094" lon="12.794305166564763"><ele>1332.8000000000002</ele><time>2026-04-18T10:51:28Z</time></trkpt><trkpt lat="42.87537174886088" lon="12.794223703405674"><ele>1332.1999999999998</ele><time>2026-04-18T10:51:29Z</time></trkpt><trkpt lat="42.87541589271939" lon="12.7941296394039"><ele>1331.6</ele><time>2026-04-18T10:51:30Z</time></trkpt><trkpt lat="42.875488430216215" lon="12.794041830057935"><ele>1331.0</ele><time>2026-04-18T10:51:31Z</time></trkpt><trkpt lat="42.87556925611469" lon="12.793960446326883"><ele>1331.0</ele><time>2026-04-18T10:51:32Z</time></trkpt><trkpt lat="42.87565503274909" lon="12.793916356343802"><ele>1331.0</ele><time>2026-04-18T10:51:33Z</time></trkpt><trkpt lat="42.87573428715847" lon="12.793890066788364"><ele>1331.0</ele><time>2026-04-18T10:51:34Z</time></trkpt><trkpt lat="42.87583757323371" lon="12.793846103350848"><ele>1331.0</ele><time>2026-04-18T10:51:36Z</time></trkpt><trkpt lat="42.875906543555416" lon="12.793789467864073"><ele>1331.0</ele><time>2026-04-18T10:51:38Z</time></trkpt><trkpt lat="42.875973937548466" lon="12.793793793664076"><ele>1331.0</ele><time>2026-04-18T10:51:59Z</time></trkpt><trkpt lat="42.876064343206984" lon="12.793831943564786"><ele>1332.3333333333335</ele><time>2026-04-18T10:53:16Z</time></trkpt><trkpt lat="42.87611765678435" lon="12.793886115458747"><ele>1333.6666666666667</ele><time>2026-04-18T10:53:17Z</time></trkpt><trkpt lat="42.87618289912454" lon="12.793956011319544"><ele>1335.0</ele><time>2026-04-18T10:53:18Z</time></trkpt><trkpt lat="42.87625822146694" lon="12.794026046995175"><ele>1336.3333333333333</ele><time>2026-04-18T10:53:19Z</time></trkpt><trkpt lat="42.87634895911974" lon="12.794102295064448"><ele>1337.6666666666665</ele><time>2026-04-18T10:53:20Z</time></trkpt><trkpt lat="42.8764352908743" lon="12.794176949672687"><ele>1339.0</ele><time>2026-04-18T10:53:21Z</time></trkpt><trkpt lat="42.876531734457544" lon="12.794263820513438"><ele>1341.0</ele><time>2026-04-18T10:53:22Z</time></trkpt><trkpt lat="42.87662485831023" lon="12.79435571406711"><ele>1343.0</ele><time>2026-04-18T10:53:23Z</time></trkpt><trkpt lat="42.87672896881136" lon="12.794461738989824"><ele>1345.0</ele><time>2026-04-18T10:53:24Z</time></trkpt><trkpt lat="42.876818525446616" lon="12.794558306006829"><ele>1347.0</ele><time>2026-04-18T10:53:25Z</time></trkpt><trkpt lat="42.876908106472676" lon="12.794654063718719"><ele>1349.1666666666667</ele><time>2026-04-18T10:53:26Z</time></trkpt><trkpt lat="42.877002706887104" lon="12.794729717461207"><ele>1351.3333333333333</ele><time>2026-04-18T10:53:27Z</time></trkpt><trkpt lat="42.87706723692688" lon="12.794783705079645"><ele>1353.5</ele><time>2026-04-18T10:53:28Z</time></trkpt><trkpt lat="42.877155633246595" lon="12.794834866369785"><ele>1355.6666666666665</ele><time>2026-04-18T10:53:29Z</time></trkpt><trkpt lat="42.87722284030843" lon="12.794871200517"><ele>1357.8333333333333</ele><time>2026-04-18T10:53:30Z</time></trkpt><trkpt lat="42.87728506106219" lon="12.794905507740475"><ele>1360.0</ele><time>2026-04-18T10:53:31Z</time></trkpt><trkpt lat="42.87736394466057" lon="12.794961686692897"><ele>1360.0</ele><time>2026-04-18T10:53:33Z</time></trkpt><trkpt lat="42.87738893711335" lon="12.795075376287226"><ele>1360.0</ele><time>2026-04-18T10:53:35Z</time></trkpt><trkpt lat="42.8773872290447" lon="12.795217697677515"><ele>1360.0</ele><time>2026-04-18T10:53:37Z</time></trkpt><trkpt lat="42.8774224181136" lon="12.795357557800864"><ele>1360.0</ele><time>2026-04-18T10:53:39Z</time></trkpt><trkpt lat="42.87747064651615" lon="12.795428306645391"><ele>1360.0</ele><time>2026-04-18T10:53:41Z</time></trkpt><trkpt lat="42.877498107104536" lon="12.795520934066708"><ele>1360.0</ele><time>2026-04-18T10:57:55Z</time></trkpt><trkpt lat="42.87757409753114" lon="12.795651929712617"><ele>1359.8</ele><time>2026-04-18T10:57:57Z</time></trkpt><trkpt lat="42.877614228913465" lon="12.795723797922935"><ele>1359.6</ele><time>2026-04-18T10:57:58Z</time></trkpt><trkpt lat="42.87767365534322" lon="12.795798252861003"><ele>1359.4</ele><time>2026-04-18T10:57:59Z</time></trkpt><trkpt lat="42.87775290875125" lon="12.79590510460524"><ele>1359.2</ele><time>2026-04-18T10:58:00Z</time></trkpt><trkpt lat="42.87781633591231" lon="12.795991910735177"><ele>1359.0</ele><time>2026-04-18T10:58:01Z</time></trkpt><trkpt lat="42.877890680456034" lon="12.796087452882333"><ele>1359.0</ele><time>2026-04-18T10:58:02Z</time></trkpt><trkpt lat="42.87797145318919" lon="12.796181373531615"><ele>1359.0</ele><time>2026-04-18T10:58:03Z</time></trkpt><trkpt lat="42.878058148985225" lon="12.796280196070612"><ele>1359.0</ele><time>2026-04-18T10:58:04Z</time></trkpt><trkpt lat="42.87815476404132" lon="12.796356513080061"><ele>1359.0</ele><time>2026-04-18T10:58:05Z</time></trkpt><trkpt lat="42.87825578274061" lon="12.796412052346948"><ele>1359.0</ele><time>2026-04-18T10:58:06Z</time></trkpt><trkpt lat="42.87836006874942" lon="12.796455055855803"><ele>1357.4</ele><time>2026-04-18T10:58:07Z</time></trkpt><trkpt lat="42.878463224653835" lon="12.796487252401537"><ele>1355.8000000000002</ele><time>2026-04-18T10:58:08Z</time></trkpt><trkpt lat="42.87855710856247" lon="12.79651907061393"><ele>1354.1999999999998</ele><time>2026-04-18T10:58:09Z</time></trkpt><trkpt lat="42.87863623753891" lon="12.796552802867861"><ele>1352.6</ele><time>2026-04-18T10:58:10Z</time></trkpt><trkpt lat="42.87869693197545" lon="12.796580270389653"><ele>1351.0</ele><time>2026-04-18T10:58:11Z</time></trkpt><trkpt lat="42.878761260909215" lon="12.796692594942474"><ele>1351.0</ele><time>2026-04-18T10:58:13Z</time></trkpt><trkpt lat="42.878841766487746" lon="12.796820932919445"><ele>1351.0</ele><time>2026-04-18T10:58:15Z</time></trkpt><trkpt lat="42.87887781839742" lon="12.796926980155346"><ele>1351.0</ele><time>2026-04-18T10:58:16Z</time></trkpt><trkpt lat="42.87891638400952" lon="12.797034613700225"><ele>1351.0</ele><time>2026-04-18T10:58:17Z</time></trkpt><trkpt lat="42.8789638506677" lon="12.797141144912985"><ele>1351.0</ele><time>2026-04-18T10:58:18Z</time></trkpt><trkpt lat="42.87901515803139" lon="12.79724393488327"><ele>1353.4</ele><time>2026-04-18T10:58:19Z</time></trkpt><trkpt lat="42.87906195516424" lon="12.797375825345835"><ele>1355.8</ele><time>2026-04-18T10:58:20Z</time></trkpt><trkpt lat="42.8791023023959" lon="12.797501287686355"><ele>1358.2</ele><time>2026-04-18T10:58:21Z</time></trkpt><trkpt lat="42.87914532440025" lon="12.797655629110407"><ele>1360.6000000000001</ele><time>2026-04-18T10:58:22Z</time></trkpt><trkpt lat="42.87918779974304" lon="12.797789683829386"><ele>1363.0</ele><time>2026-04-18T10:58:23Z</time></trkpt><trkpt lat="42.879226994804775" lon="12.797923817076608"><ele>1363.8000000000002</ele><time>2026-04-18T10:58:24Z</time></trkpt><trkpt lat="42.879265688160444" lon="12.798068001192995"><ele>1364.6</ele><time>2026-04-18T10:58:25Z</time></trkpt><trkpt lat="42.879303875234655" lon="12.798185414108172"><ele>1365.4</ele><time>2026-04-18T10:58:26Z</time></trkpt><trkpt lat="42.87932290095754" lon="12.798329708727938"><ele>1366.1999999999998</ele><time>2026-04-18T10:58:27Z</time></trkpt><trkpt lat="42.87932406706796" lon="12.798472573406237"><ele>1367.0</ele><time>2026-04-18T10:58:28Z</time></trkpt><trkpt lat="42.87932563706514" lon="12.798610253596802"><ele>1369.8</ele><time>2026-04-18T10:58:29Z</time></trkpt><trkpt lat="42.879334472118124" lon="12.798727135309589"><ele>1372.6</ele><time>2026-04-18T10:58:30Z</time></trkpt><trkpt lat="42.8793502324477" lon="12.79886755841375"><ele>1375.3999999999999</ele><time>2026-04-18T10:58:31Z</time></trkpt><trkpt lat="42.8793701005112" lon="12.798997651773627"><ele>1378.1999999999998</ele><time>2026-04-18T10:58:32Z</time></trkpt><trkpt lat="42.87939539593005" lon="12.79912588161201"><ele>1381.0</ele><time>2026-04-18T10:58:33Z</time></trkpt><trkpt lat="42.879437153932365" lon="12.799272978756452"><ele>1383.0</ele><time>2026-04-18T10:58:34Z</time></trkpt><trkpt lat="42.879487504323784" lon="12.799399237374143"><ele>1385.0</ele><time>2026-04-18T10:58:35Z</time></trkpt><trkpt lat="42.87954899872959" lon="12.799523539195018"><ele>1387.0</ele><time>2026-04-18T10:58:36Z</time></trkpt><trkpt lat="42.879613991262545" lon="12.799640758927161"><ele>1389.0</ele><time>2026-04-18T10:58:37Z</time></trkpt><trkpt lat="42.87968248435319" lon="12.799740202134368"><ele>1391.0</ele><time>2026-04-18T10:58:38Z</time></trkpt><trkpt lat="42.87972378368265" lon="12.799820724822245"><ele>1391.0</ele><time>2026-04-18T10:58:39Z</time></trkpt><trkpt lat="42.87977644106888" lon="12.799913149872182"><ele>1391.0</ele><time>2026-04-18T10:58:40Z</time></trkpt><trkpt lat="42.87982347856985" lon="12.800008355881522"><ele>1391.0</ele><time>2026-04-18T10:58:41Z</time></trkpt><trkpt lat="42.87986977196927" lon="12.800085874162576"><ele>1391.0</ele><time>2026-04-18T10:58:42Z</time></trkpt><trkpt lat="42.879935102866575" lon="12.80015213281762"><ele>1391.0</ele><time>2026-04-18T10:58:43.999Z</time></trkpt><trkpt lat="42.87999683956112" lon="12.800187001620284"><ele>1391.0</ele><time>2026-04-18T10:58:44.999Z</time></trkpt><trkpt lat="42.88006204656422" lon="12.800219678994544"><ele>1390.8</ele><time>2026-04-18T10:58:45.999Z</time></trkpt><trkpt lat="42.88014232591746" lon="12.800267572555887"><ele>1390.6</ele><time>2026-04-18T10:58:46.999Z</time></trkpt><trkpt lat="42.88020602260347" lon="12.800320110361175"><ele>1390.4</ele><time>2026-04-18T10:58:47.999Z</time></trkpt><trkpt lat="42.88028969686655" lon="12.800401619073202"><ele>1390.2</ele><time>2026-04-18T10:58:48.999Z</time></trkpt><trkpt lat="42.880383870286494" lon="12.800521972806001"><ele>1390.0</ele><time>2026-04-18T10:58:49.999Z</time></trkpt><trkpt lat="42.8804768393352" lon="12.80064689587854"><ele>1390.0</ele><time>2026-04-18T10:58:50.999Z</time></trkpt><trkpt lat="42.88057153610699" lon="12.80076294542651"><ele>1390.0</ele><time>2026-04-18T10:58:51.999Z</time></trkpt><trkpt lat="42.88066802827964" lon="12.800877148755488"><ele>1390.0</ele><time>2026-04-18T10:58:52.999Z</time></trkpt><trkpt lat="42.88076660106065" lon="12.800978475862307"><ele>1390.0</ele><time>2026-04-18T10:58:53.999Z</time></trkpt><trkpt lat="42.88085638876581" lon="12.801066060034161"><ele>1390.0</ele><time>2026-04-18T10:58:54.999Z</time></trkpt><trkpt lat="42.88092606477934" lon="12.801120685273773"><ele>1390.0</ele><time>2026-04-18T10:58:55.999Z</time></trkpt><trkpt lat="42.88099689359147" lon="12.80121048711275"><ele>1390.0</ele><time>2026-04-18T10:58:56.999Z</time></trkpt><trkpt lat="42.88104736507299" lon="12.801303220111846"><ele>1390.0</ele><time>2026-04-18T10:58:57.999Z</time></trkpt><trkpt lat="42.881103906471296" lon="12.801412658666415"><ele>1390.0</ele><time>2026-04-18T10:58:58.999Z</time></trkpt><trkpt lat="42.88116217604752" lon="12.801506699712748"><ele>1391.8</ele><time>2026-04-18T10:58:59.999Z</time></trkpt><trkpt lat="42.88123899971851" lon="12.80160911860504"><ele>1393.6</ele><time>2026-04-18T10:59:00.999Z</time></trkpt><trkpt lat="42.8813192436214" lon="12.801686761808947"><ele>1395.4</ele><time>2026-04-18T10:59:01.999Z</time></trkpt><trkpt lat="42.881420064681336" lon="12.80177276579293"><ele>1397.2</ele><time>2026-04-18T10:59:02.999Z</time></trkpt><trkpt lat="42.881523809788725" lon="12.801826189709276"><ele>1399.0</ele><time>2026-04-18T10:59:03.999Z</time></trkpt><trkpt lat="42.881635764069806" lon="12.80185979150581"><ele>1399.4</ele><time>2026-04-18T10:59:04.999Z</time></trkpt><trkpt lat="42.88174627217044" lon="12.801891573921472"><ele>1399.8000000000002</ele><time>2026-04-18T10:59:05.999Z</time></trkpt><trkpt lat="42.88184859735637" lon="12.80188221937126"><ele>1400.1999999999998</ele><time>2026-04-18T10:59:06.999Z</time></trkpt><trkpt lat="42.88194907332675" lon="12.801862003403897"><ele>1400.6</ele><time>2026-04-18T10:59:07.999Z</time></trkpt><trkpt lat="42.88204677185362" lon="12.801833551633344"><ele>1401.0</ele><time>2026-04-18T10:59:08.999Z</time></trkpt><trkpt lat="42.88212875276383" lon="12.801825395114522"><ele>1401.0</ele><time>2026-04-18T10:59:09.999Z</time></trkpt><trkpt lat="42.88219917734138" lon="12.801841285760348"><ele>1401.0</ele><time>2026-04-18T10:59:10.999Z</time></trkpt><trkpt lat="42.882254968670004" lon="12.80188270976437"><ele>1401.0</ele><time>2026-04-18T10:59:12Z</time></trkpt><trkpt lat="42.88231366863655" lon="12.802008326110327"><ele>1401.0</ele><time>2026-04-18T10:59:14Z</time></trkpt><trkpt lat="42.88230718421179" lon="12.802177768144226"><ele>1401.0</ele><time>2026-04-18T10:59:16Z</time></trkpt><trkpt lat="42.88228495892202" lon="12.802279170451646"><ele>1401.0</ele><time>2026-04-18T10:59:17Z</time></trkpt><trkpt lat="42.882267804940845" lon="12.802378292255923"><ele>1401.0</ele><time>2026-04-18T10:59:18Z</time></trkpt><trkpt lat="42.882269166492875" lon="12.802474977929979"><ele>1401.0</ele><time>2026-04-18T10:59:19Z</time></trkpt><trkpt lat="42.88229280994984" lon="12.802572593964893"><ele>1401.0</ele><time>2026-04-18T10:59:20Z</time></trkpt><trkpt lat="42.8823413132424" lon="12.802653490549336"><ele>1401.0</ele><time>2026-04-18T10:59:21Z</time></trkpt><trkpt lat="42.882391702970835" lon="12.802723625445733"><ele>1401.0</ele><time>2026-04-18T10:59:22Z</time></trkpt><trkpt lat="42.882462270587695" lon="12.802830470447294"><ele>1401.0</ele><time>2026-04-18T10:59:23Z</time></trkpt><trkpt lat="42.88254484259641" lon="12.802911249563842"><ele>1402.5</ele><time>2026-04-18T10:59:24Z</time></trkpt><trkpt lat="42.882660480178075" lon="12.803013964227656"><ele>1404.0</ele><time>2026-04-18T10:59:25Z</time></trkpt><trkpt lat="42.882773792228676" lon="12.803100897529223"><ele>1405.5</ele><time>2026-04-18T10:59:26Z</time></trkpt><trkpt lat="42.88290022553052" lon="12.803197098908196"><ele>1407.0</ele><time>2026-04-18T10:59:27Z</time></trkpt><trkpt lat="42.883021521784315" lon="12.803274045586416"><ele>1407.0</ele><time>2026-04-18T10:59:28Z</time></trkpt><trkpt lat="42.883143964751476" lon="12.803341331342603"><ele>1407.0</ele><time>2026-04-18T10:59:29Z</time></trkpt><trkpt lat="42.88326846362002" lon="12.803390561777013"><ele>1407.0</ele><time>2026-04-18T10:59:30Z</time></trkpt><trkpt lat="42.88340211937891" lon="12.80342992976752"><ele>1407.0</ele><time>2026-04-18T10:59:31Z</time></trkpt><trkpt lat="42.883531025569866" lon="12.80345370684002"><ele>1407.6</ele><time>2026-04-18T10:59:32Z</time></trkpt><trkpt lat="42.88364434881568" lon="12.80348846395133"><ele>1408.1999999999998</ele><time>2026-04-18T10:59:33Z</time></trkpt><trkpt lat="42.88374846381769" lon="12.803545783441697"><ele>1408.8</ele><time>2026-04-18T10:59:34Z</time></trkpt><trkpt lat="42.88383384022372" lon="12.803615610702717"><ele>1409.4</ele><time>2026-04-18T10:59:35Z</time></trkpt><trkpt lat="42.883928419659824" lon="12.803697411669914"><ele>1410.0</ele><time>2026-04-18T10:59:36Z</time></trkpt><trkpt lat="42.88403817248863" lon="12.80376603792101"><ele>1410.0</ele><time>2026-04-18T10:59:37Z</time></trkpt><trkpt lat="42.884154270006114" lon="12.803822682490166"><ele>1410.0</ele><time>2026-04-18T10:59:38Z</time></trkpt><trkpt lat="42.88426933167768" lon="12.803874319258657"><ele>1410.0</ele><time>2026-04-18T10:59:39Z</time></trkpt><trkpt lat="42.88437700888832" lon="12.803936896936774"><ele>1410.0</ele><time>2026-04-18T10:59:40Z</time></trkpt><trkpt lat="42.884484664665976" lon="12.804006415161446"><ele>1410.75</ele><time>2026-04-18T10:59:41Z</time></trkpt><trkpt lat="42.88459602998675" lon="12.804080818603929"><ele>1411.5</ele><time>2026-04-18T10:59:42Z</time></trkpt><trkpt lat="42.88469906414912" lon="12.804161369449288"><ele>1412.25</ele><time>2026-04-18T10:59:43Z</time></trkpt><trkpt lat="42.884796719549" lon="12.804243255016502"><ele>1413.0</ele><time>2026-04-18T10:59:44Z</time></trkpt><trkpt lat="42.88487232894383" lon="12.80431699586369"><ele>1413.2</ele><time>2026-04-18T10:59:45Z</time></trkpt><trkpt lat="42.88495862868052" lon="12.804392680898092"><ele>1413.4</ele><time>2026-04-18T10:59:46Z</time></trkpt><trkpt lat="42.88504245451224" lon="12.804445470768215"><ele>1413.6000000000001</ele><time>2026-04-18T10:59:47Z</time></trkpt><trkpt lat="42.885134578589856" lon="12.804493583525764"><ele>1413.8000000000002</ele><time>2026-04-18T10:59:48Z</time></trkpt><trkpt lat="42.88523489808203" lon="12.804537143488755"><ele>1414.0</ele><time>2026-04-18T10:59:49Z</time></trkpt><trkpt lat="42.88532081376669" lon="12.804562252304883"><ele>1414.0</ele><time>2026-04-18T10:59:50Z</time></trkpt><trkpt lat="42.88541684941036" lon="12.804580134381343"><ele>1414.0</ele><time>2026-04-18T10:59:51Z</time></trkpt><trkpt lat="42.885528636384116" lon="12.804600129733933"><ele>1414.0</ele><time>2026-04-18T10:59:52Z</time></trkpt><trkpt lat="42.88564115497599" lon="12.804623310332548"><ele>1414.0</ele><time>2026-04-18T10:59:53Z</time></trkpt><trkpt lat="42.88576535584477" lon="12.804637628040837"><ele>1414.0</ele><time>2026-04-18T10:59:54Z</time></trkpt><trkpt lat="42.88588647637242" lon="12.804643854083608"><ele>1414.0</ele><time>2026-04-18T10:59:55Z</time></trkpt><trkpt lat="42.88601270943925" lon="12.804644806275597"><ele>1414.0</ele><time>2026-04-18T10:59:56Z</time></trkpt><trkpt lat="42.88611864982901" lon="12.804642564780249"><ele>1414.0</ele><time>2026-04-18T10:59:57Z</time></trkpt><trkpt lat="42.88621152156429" lon="12.804626226970752"><ele>1414.0</ele><time>2026-04-18T10:59:58Z</time></trkpt><trkpt lat="42.88628295617764" lon="12.804592775687466"><ele>1414.0</ele><time>2026-04-18T10:59:59Z</time></trkpt><trkpt lat="42.88636022592111" lon="12.80457803792255"><ele>1414.0</ele><time>2026-04-18T11:00:00Z</time></trkpt><trkpt lat="42.88643297187328" lon="12.804573916880202"><ele>1414.0</ele><time>2026-04-18T11:00:01Z</time></trkpt><trkpt lat="42.8865158391118" lon="12.804554535818873"><ele>1414.0</ele><time>2026-04-18T11:00:02Z</time></trkpt><trkpt lat="42.886590617450466" lon="12.804541214444335"><ele>1414.0</ele><time>2026-04-18T11:00:03Z</time></trkpt><trkpt lat="42.886661196323566" lon="12.804536951537106"><ele>1414.0</ele><time>2026-04-18T11:00:04Z</time></trkpt><trkpt lat="42.88674460346168" lon="12.804594110162597"><ele>1414.0</ele><time>2026-04-18T11:00:06Z</time></trkpt><trkpt lat="42.886829680897" lon="12.804628687094986"><ele>1410.2</ele><time>2026-04-18T11:00:08Z</time></trkpt><trkpt lat="42.88691988266409" lon="12.804646176624198"><ele>1406.4</ele><time>2026-04-18T11:00:10Z</time></trkpt><trkpt lat="42.88701090188877" lon="12.804648405910974"><ele>1402.6</ele><time>2026-04-18T11:00:12Z</time></trkpt><trkpt lat="42.887137179028336" lon="12.804642285231226"><ele>1398.8</ele><time>2026-04-18T11:00:14Z</time></trkpt><trkpt lat="42.8872139149044" lon="12.80463410225454"><ele>1395.0</ele><time>2026-04-18T11:00:15Z</time></trkpt><trkpt lat="42.887299044974824" lon="12.804625600828997"><ele>1395.0</ele><time>2026-04-18T11:00:16Z</time></trkpt><trkpt lat="42.88739907163911" lon="12.804601106536778"><ele>1395.0</ele><time>2026-04-18T11:00:17Z</time></trkpt><trkpt lat="42.88750294665996" lon="12.80459845079781"><ele>1395.0</ele><time>2026-04-18T11:00:18Z</time></trkpt><trkpt lat="42.887611750558726" lon="12.804601167717482"><ele>1395.0</ele><time>2026-04-18T11:00:19Z</time></trkpt><trkpt lat="42.8877250995567" lon="12.804593954702394"><ele>1395.0</ele><time>2026-04-18T11:00:20Z</time></trkpt><trkpt lat="42.88783427703646" lon="12.804580733630551"><ele>1387.75</ele><time>2026-04-18T11:00:21Z</time></trkpt><trkpt lat="42.887943610328996" lon="12.804595807390745"><ele>1380.5</ele><time>2026-04-18T11:00:22Z</time></trkpt><trkpt lat="42.888051784499496" lon="12.80461787131493"><ele>1373.25</ele><time>2026-04-18T11:00:23Z</time></trkpt><trkpt lat="42.88816947095848" lon="12.804632008435856"><ele>1366.0</ele><time>2026-04-18T11:00:24Z</time></trkpt><trkpt lat="42.888285235561824" lon="12.804647973227963"><ele>1366.0</ele><time>2026-04-18T11:00:25Z</time></trkpt><trkpt lat="42.888377256607185" lon="12.804673609567718"><ele>1366.0</ele><time>2026-04-18T11:00:26Z</time></trkpt><trkpt lat="42.888459410703874" lon="12.804677206175123"><ele>1366.0</ele><time>2026-04-18T11:00:27Z</time></trkpt><trkpt lat="42.888551555184435" lon="12.804663262089834"><ele>1366.0</ele><time>2026-04-18T11:00:28Z</time></trkpt><trkpt lat="42.88863569794109" lon="12.804643741232585"><ele>1366.0</ele><time>2026-04-18T11:00:29Z</time></trkpt><trkpt lat="42.88871694868212" lon="12.804630485532117"><ele>1366.0</ele><time>2026-04-18T11:00:30Z</time></trkpt><trkpt lat="42.88880115005201" lon="12.804603100396122"><ele>1361.1999999999998</ele><time>2026-04-18T11:00:31Z</time></trkpt><trkpt lat="42.888896949297994" lon="12.80457012627453"><ele>1356.3999999999999</ele><time>2026-04-18T11:00:32Z</time></trkpt><trkpt lat="42.88899660507714" lon="12.80454348479712"><ele>1351.6</ele><time>2026-04-18T11:00:33Z</time></trkpt><trkpt lat="42.88908774989534" lon="12.80452128551607"><ele>1346.8</ele><time>2026-04-18T11:00:34Z</time></trkpt><trkpt lat="42.889182080890535" lon="12.804501731658055"><ele>1342.0</ele><time>2026-04-18T11:00:35Z</time></trkpt><trkpt lat="42.88927019006306" lon="12.804492163955477"><ele>1336.8333333333333</ele><time>2026-04-18T11:00:36Z</time></trkpt><trkpt lat="42.889363467596" lon="12.804478773600593"><ele>1331.6666666666665</ele><time>2026-04-18T11:00:37Z</time></trkpt><trkpt lat="42.889444993184334" lon="12.804481615891131"><ele>1326.5</ele><time>2026-04-18T11:00:38Z</time></trkpt><trkpt lat="42.889525936673124" lon="12.804487905342338"><ele>1321.3333333333333</ele><time>2026-04-18T11:00:39Z</time></trkpt><trkpt lat="42.88959808267297" lon="12.80449887770691"><ele>1316.1666666666667</ele><time>2026-04-18T11:00:40Z</time></trkpt><trkpt lat="42.889690659606245" lon="12.804522244785662"><ele>1311.0</ele><time>2026-04-18T11:00:41Z</time></trkpt><trkpt lat="42.88976622824193" lon="12.80454247450732"><ele>1311.0</ele><time>2026-04-18T11:00:42Z</time></trkpt><trkpt lat="42.88983392485841" lon="12.804548327850604"><ele>1311.0</ele><time>2026-04-18T11:00:43Z</time></trkpt><trkpt lat="42.88990378492064" lon="12.804542157042867"><ele>1311.0</ele><time>2026-04-18T11:00:44Z</time></trkpt><trkpt lat="42.889984562290664" lon="12.804537867870783"><ele>1311.0</ele><time>2026-04-18T11:00:45Z</time></trkpt><trkpt lat="42.89005243729958" lon="12.804518714264047"><ele>1311.0</ele><time>2026-04-18T11:00:46Z</time></trkpt><trkpt lat="42.89013956756025" lon="12.804496248465377"><ele>1311.0</ele><time>2026-04-18T11:00:47Z</time></trkpt><trkpt lat="42.890221547751224" lon="12.804481025000365"><ele>1306.5</ele><time>2026-04-18T11:00:48Z</time></trkpt><trkpt lat="42.890296502595255" lon="12.80444315584094"><ele>1302.0</ele><time>2026-04-18T11:00:49Z</time></trkpt><trkpt lat="42.890357788961104" lon="12.804402119786896"><ele>1297.5</ele><time>2026-04-18T11:00:50Z</time></trkpt><trkpt lat="42.89041115952997" lon="12.804351199461829"><ele>1293.0</ele><time>2026-04-18T11:00:51Z</time></trkpt><trkpt lat="42.890457317339845" lon="12.804282994908567"><ele>1288.5</ele><time>2026-04-18T11:00:52Z</time></trkpt><trkpt lat="42.890503536032604" lon="12.804198459650234"><ele>1284.0</ele><time>2026-04-18T11:00:53Z</time></trkpt><trkpt lat="42.89056182057978" lon="12.80409868422121"><ele>1283.2</ele><time>2026-04-18T11:00:54Z</time></trkpt><trkpt lat="42.89062343287394" lon="12.804003853144334"><ele>1282.4</ele><time>2026-04-18T11:00:55Z</time></trkpt><trkpt lat="42.89070238104649" lon="12.803931221424772"><ele>1281.6</ele><time>2026-04-18T11:00:56Z</time></trkpt><trkpt lat="42.89078400283038" lon="12.803840437648933"><ele>1280.8</ele><time>2026-04-18T11:00:57Z</time></trkpt><trkpt lat="42.8908674001135" lon="12.803731383844944"><ele>1280.0</ele><time>2026-04-18T11:00:58Z</time></trkpt><trkpt lat="42.89094451579492" lon="12.803622570979808"><ele>1275.5</ele><time>2026-04-18T11:00:59Z</time></trkpt><trkpt lat="42.89102290018182" lon="12.803501287446425"><ele>1271.0</ele><time>2026-04-18T11:01:00Z</time></trkpt><trkpt lat="42.89109383265234" lon="12.80338615871127"><ele>1266.5</ele><time>2026-04-18T11:01:01Z</time></trkpt><trkpt lat="42.89116679789484" lon="12.803268239272324"><ele>1262.0</ele><time>2026-04-18T11:01:02Z</time></trkpt><trkpt lat="42.89126284976976" lon="12.803128933918494"><ele>1260.25</ele><time>2026-04-18T11:01:03Z</time></trkpt><trkpt lat="42.891361629173375" lon="12.802987479959794"><ele>1258.5</ele><time>2026-04-18T11:01:04Z</time></trkpt><trkpt lat="42.891455829819016" lon="12.802858644627747"><ele>1256.75</ele><time>2026-04-18T11:01:05Z</time></trkpt><trkpt lat="42.89155404486491" lon="12.802735589129735"><ele>1255.0</ele><time>2026-04-18T11:01:06Z</time></trkpt><trkpt lat="42.891642711874354" lon="12.802611381183706"><ele>1252.75</ele><time>2026-04-18T11:01:07Z</time></trkpt><trkpt lat="42.891743590016304" lon="12.80247975774013"><ele>1250.5</ele><time>2026-04-18T11:01:08Z</time></trkpt><trkpt lat="42.89184024511649" lon="12.80236049202486"><ele>1248.25</ele><time>2026-04-18T11:01:09Z</time></trkpt><trkpt lat="42.891941213973844" lon="12.802240714705812"><ele>1246.0</ele><time>2026-04-18T11:01:10Z</time></trkpt><trkpt lat="42.89204823803895" lon="12.802115402433984"><ele>1242.25</ele><time>2026-04-18T11:01:11Z</time></trkpt><trkpt lat="42.89217323298005" lon="12.801974936269369"><ele>1238.5</ele><time>2026-04-18T11:01:12Z</time></trkpt><trkpt lat="42.89226973841664" lon="12.801866958554012"><ele>1234.75</ele><time>2026-04-18T11:01:13Z</time></trkpt><trkpt lat="42.89235619383434" lon="12.801772204080178"><ele>1231.0</ele><time>2026-04-18T11:01:14Z</time></trkpt><trkpt lat="42.8924255590976" lon="12.801688878645763"><ele>1229.2</ele><time>2026-04-18T11:01:15Z</time></trkpt><trkpt lat="42.89248567576558" lon="12.801619456921609"><ele>1227.3999999999999</ele><time>2026-04-18T11:01:16Z</time></trkpt><trkpt lat="42.89257677374043" lon="12.80154415637394"><ele>1225.6</ele><time>2026-04-18T11:01:17.001Z</time></trkpt><trkpt lat="42.89265714775787" lon="12.80146419761165"><ele>1223.8</ele><time>2026-04-18T11:01:18.001Z</time></trkpt><trkpt lat="42.892752725059346" lon="12.801359107010882"><ele>1222.0</ele><time>2026-04-18T11:01:19.001Z</time></trkpt><trkpt lat="42.892844654956754" lon="12.801253677276176"><ele>1219.0</ele><time>2026-04-18T11:01:20.001Z</time></trkpt><trkpt lat="42.89293631608844" lon="12.80113874469742"><ele>1216.0</ele><time>2026-04-18T11:01:21.001Z</time></trkpt><trkpt lat="42.89303006804891" lon="12.801007845333867"><ele>1213.0</ele><time>2026-04-18T11:01:22.001Z</time></trkpt><trkpt lat="42.8930811214093" lon="12.800934272196262"><ele>1210.0</ele><time>2026-04-18T11:01:23.001Z</time></trkpt><trkpt lat="42.89313356909125" lon="12.800846884536476"><ele>1207.0</ele><time>2026-04-18T11:01:25.001Z</time></trkpt><trkpt lat="42.893198386694245" lon="12.80082855953441"><ele>1205.1666666666665</ele><time>2026-04-18T11:01:51Z</time></trkpt><trkpt lat="42.8932740052655" lon="12.800882929802077"><ele>1203.3333333333333</ele><time>2026-04-18T11:02:30Z</time></trkpt><trkpt lat="42.89335557236289" lon="12.800896972480668"><ele>1201.5</ele><time>2026-04-18T11:02:32Z</time></trkpt><trkpt lat="42.893403222928654" lon="12.800967543649245"><ele>1199.6666666666667</ele><time>2026-04-18T11:02:34Z</time></trkpt><trkpt lat="42.89347763367879" lon="12.801061185018046"><ele>1197.8333333333335</ele><time>2026-04-18T11:02:36Z</time></trkpt><trkpt lat="42.89353677753733" lon="12.801124309343233"><ele>1196.0</ele><time>2026-04-18T11:02:37Z</time></trkpt><trkpt lat="42.893597118362884" lon="12.801193038959449"><ele>1193.3999999999999</ele><time>2026-04-18T11:02:38Z</time></trkpt><trkpt lat="42.893666740558594" lon="12.801279094194335"><ele>1190.8</ele><time>2026-04-18T11:02:39Z</time></trkpt><trkpt lat="42.89374989334445" lon="12.801342818265297"><ele>1188.1999999999998</ele><time>2026-04-18T11:02:40Z</time></trkpt><trkpt lat="42.89385835997366" lon="12.801401535310253"><ele>1185.6</ele><time>2026-04-18T11:02:41Z</time></trkpt><trkpt lat="42.89394839453888" lon="12.801478517159293"><ele>1183.0</ele><time>2026-04-18T11:02:42Z</time></trkpt><trkpt lat="42.894035288176106" lon="12.801560194930618"><ele>1183.0</ele><time>2026-04-18T11:02:43Z</time></trkpt><trkpt lat="42.894099124854066" lon="12.80164984747207"><ele>1183.0</ele><time>2026-04-18T11:02:44Z</time></trkpt><trkpt lat="42.89415212141709" lon="12.80175183639544"><ele>1183.0</ele><time>2026-04-18T11:02:45Z</time></trkpt><trkpt lat="42.894225665294776" lon="12.80189303418021"><ele>1183.0</ele><time>2026-04-18T11:02:46Z</time></trkpt><trkpt lat="42.89429821635039" lon="12.80204107217225"><ele>1183.0</ele><time>2026-04-18T11:02:47Z</time></trkpt><trkpt lat="42.89436303547562" lon="12.802180651755398"><ele>1181.6</ele><time>2026-04-18T11:02:48Z</time></trkpt><trkpt lat="42.894417992515734" lon="12.802305468276748"><ele>1180.1999999999998</ele><time>2026-04-18T11:02:49Z</time></trkpt><trkpt lat="42.894460963301796" lon="12.802407174338489"><ele>1178.8</ele><time>2026-04-18T11:02:50Z</time></trkpt><trkpt lat="42.894520501981795" lon="12.80249825577094"><ele>1177.3999999999999</ele><time>2026-04-18T11:02:52Z</time></trkpt><trkpt lat="42.89455975776164" lon="12.802368084387718"><ele>1176.0</ele><time>2026-04-18T11:02:54Z</time></trkpt><trkpt lat="42.89456367241504" lon="12.802258111322837"><ele>1176.0</ele><time>2026-04-18T11:02:55Z</time></trkpt><trkpt lat="42.894540252136196" lon="12.80210263140214"><ele>1176.0</ele><time>2026-04-18T11:02:56Z</time></trkpt><trkpt lat="42.89453964176289" lon="12.801969994878045"><ele>1176.0</ele><time>2026-04-18T11:02:57Z</time></trkpt><trkpt lat="42.89451243859152" lon="12.801837645643703"><ele>1176.0</ele><time>2026-04-18T11:02:58Z</time></trkpt><trkpt lat="42.89459249094004" lon="12.801890694321724"><ele>1176.0</ele><time>2026-04-18T11:03:03Z</time></trkpt><trkpt lat="42.89466425473337" lon="12.80199645642193"><ele>1176.0</ele><time>2026-04-18T11:03:04Z</time></trkpt><trkpt lat="42.89474792479061" lon="12.802118147049255"><ele>1176.0</ele><time>2026-04-18T11:03:06Z</time></trkpt><trkpt lat="42.89481204212885" lon="12.802156666259155"><ele>1176.0</ele><time>2026-04-18T11:03:07Z</time></trkpt><trkpt lat="42.894877936934066" lon="12.802147038227577"><ele>1176.0</ele><time>2026-04-18T11:03:08Z</time></trkpt><trkpt lat="42.894933281623445" lon="12.802102114328829"><ele>1176.0</ele><time>2026-04-18T11:03:09Z</time></trkpt><trkpt lat="42.89499124321118" lon="12.802063549462142"><ele>1176.0</ele><time>2026-04-18T11:03:10Z</time></trkpt><trkpt lat="42.89508970899282" lon="12.802047431268463"><ele>1178.0</ele><time>2026-04-18T11:03:12Z</time></trkpt><trkpt lat="42.89513928137661" lon="12.80217801479639"><ele>1180.0</ele><time>2026-04-18T11:03:13Z</time></trkpt><trkpt lat="42.89514931086092" lon="12.80231039222095"><ele>1182.0</ele><time>2026-04-18T11:03:15Z</time></trkpt><trkpt lat="42.895160385899125" lon="12.802433350714857"><ele>1184.0</ele><time>2026-04-18T11:03:16Z</time></trkpt><trkpt lat="42.89519365890383" lon="12.80258081733234"><ele>1186.0</ele><time>2026-04-18T11:03:17Z</time></trkpt><trkpt lat="42.89522775765094" lon="12.802736756330827"><ele>1186.0</ele><time>2026-04-18T11:03:18Z</time></trkpt><trkpt lat="42.8952616904244" lon="12.802902708763323"><ele>1186.0</ele><time>2026-04-18T11:03:19Z</time></trkpt><trkpt lat="42.895294049441816" lon="12.803026078680663"><ele>1186.0</ele><time>2026-04-18T11:03:20Z</time></trkpt><trkpt lat="42.8953129218937" lon="12.803120042490663"><ele>1186.0</ele><time>2026-04-18T11:03:21Z</time></trkpt><trkpt lat="42.89533557262854" lon="12.803259586687307"><ele>1186.0</ele><time>2026-04-18T11:03:23.001Z</time></trkpt><trkpt lat="42.89551122900584" lon="12.803248432065685"><ele>1186.0</ele><time>2026-04-18T11:03:26.001Z</time></trkpt><trkpt lat="42.89556714225447" lon="12.803153015072962"><ele>1186.0</ele><time>2026-04-18T11:03:27.001Z</time></trkpt><trkpt lat="42.895637549240256" lon="12.803038985488481"><ele>1186.0</ele><time>2026-04-18T11:03:28.001Z</time></trkpt><trkpt lat="42.89572708219293" lon="12.803021329179131"><ele>1186.0</ele><time>2026-04-18T11:03:29.001Z</time></trkpt><trkpt lat="42.89581754505779" lon="12.802988939726946"><ele>1186.0</ele><time>2026-04-18T11:03:30.001Z</time></trkpt><trkpt lat="42.89587968798637" lon="12.803046432389882"><ele>1187.6</ele><time>2026-04-18T11:03:31.001Z</time></trkpt><trkpt lat="42.89598057652852" lon="12.803090006426814"><ele>1189.1999999999998</ele><time>2026-04-18T11:03:32.001Z</time></trkpt><trkpt lat="42.8960872352302" lon="12.803146957646533"><ele>1190.8000000000002</ele><time>2026-04-18T11:03:33.001Z</time></trkpt><trkpt lat="42.89617745918028" lon="12.803203406995696"><ele>1192.4</ele><time>2026-04-18T11:03:34.001Z</time></trkpt><trkpt lat="42.896285010611514" lon="12.803266906974319"><ele>1194.0</ele><time>2026-04-18T11:03:35.001Z</time></trkpt><trkpt lat="42.89640032663215" lon="12.80331383692649"><ele>1194.0</ele><time>2026-04-18T11:03:36.001Z</time></trkpt><trkpt lat="42.89650713392581" lon="12.803367238338591"><ele>1194.0</ele><time>2026-04-18T11:03:37.001Z</time></trkpt><trkpt lat="42.896600493135104" lon="12.803433427064387"><ele>1194.0</ele><time>2026-04-18T11:03:38Z</time></trkpt><trkpt lat="42.896673558691326" lon="12.80352299202382"><ele>1194.0</ele><time>2026-04-18T11:03:39Z</time></trkpt><trkpt lat="42.896735676797114" lon="12.803634699890845"><ele>1194.0</ele><time>2026-04-18T11:03:40Z</time></trkpt><trkpt lat="42.8967833703232" lon="12.803735204093778"><ele>1194.8</ele><time>2026-04-18T11:03:41Z</time></trkpt><trkpt lat="42.89685066970895" lon="12.803851324214824"><ele>1195.6000000000001</ele><time>2026-04-18T11:03:42Z</time></trkpt><trkpt lat="42.89691646373772" lon="12.803959504878078"><ele>1196.4</ele><time>2026-04-18T11:03:43Z</time></trkpt><trkpt lat="42.89699015573311" lon="12.804074119576612"><ele>1197.2</ele><time>2026-04-18T11:03:44Z</time></trkpt><trkpt lat="42.89707429389276" lon="12.804197453041485"><ele>1198.0</ele><time>2026-04-18T11:03:45Z</time></trkpt><trkpt lat="42.8971648426289" lon="12.804297731454096"><ele>1196.0</ele><time>2026-04-18T11:03:46Z</time></trkpt><trkpt lat="42.8972619382748" lon="12.804446756612878"><ele>1194.0</ele><time>2026-04-18T11:03:47Z</time></trkpt><trkpt lat="42.89739025972234" lon="12.804593262072967"><ele>1192.0</ele><time>2026-04-18T11:03:48Z</time></trkpt><trkpt lat="42.897530008249895" lon="12.80472628290618"><ele>1195.0</ele><time>2026-04-18T11:03:49Z</time></trkpt><trkpt lat="42.89764260359945" lon="12.804819960509793"><ele>1198.0</ele><time>2026-04-18T11:03:50Z</time></trkpt><trkpt lat="42.897746104435065" lon="12.804906070175875"><ele>1201.0</ele><time>2026-04-18T11:03:51Z</time></trkpt><trkpt lat="42.897857910927605" lon="12.804999089889252"><ele>1204.0</ele><time>2026-04-18T11:03:52Z</time></trkpt><trkpt lat="42.89797910157867" lon="12.805093741870705"><ele>1204.25</ele><time>2026-04-18T11:03:53Z</time></trkpt><trkpt lat="42.89809674138509" lon="12.805178554214686"><ele>1204.5</ele><time>2026-04-18T11:03:54Z</time></trkpt><trkpt lat="42.89824492178233" lon="12.805274792754345"><ele>1204.75</ele><time>2026-04-18T11:03:55Z</time></trkpt><trkpt lat="42.89835287021074" lon="12.805337874044577"><ele>1205.0</ele><time>2026-04-18T11:03:56Z</time></trkpt><trkpt lat="42.898463905409386" lon="12.805402759117973"><ele>1205.0</ele><time>2026-04-18T11:03:57Z</time></trkpt><trkpt lat="42.89859365137051" lon="12.805427957362784"><ele>1205.0</ele><time>2026-04-18T11:03:57.999Z</time></trkpt><trkpt lat="42.89871437109008" lon="12.805444931357602"><ele>1205.0</ele><time>2026-04-18T11:03:58.999Z</time></trkpt><trkpt lat="42.89882078066684" lon="12.805453456639086"><ele>1205.0</ele><time>2026-04-18T11:03:59.999Z</time></trkpt><trkpt lat="42.899595450997076" lon="12.80492179575295"><ele>1207.6</ele><time>2026-04-18T11:04:04.999Z</time></trkpt><trkpt lat="42.8997005340682" lon="12.804967185547063"><ele>1210.2</ele><time>2026-04-18T11:04:05.999Z</time></trkpt><trkpt lat="42.89980210056924" lon="12.8050039429045"><ele>1212.8</ele><time>2026-04-18T11:04:06.999Z</time></trkpt><trkpt lat="42.899896537436554" lon="12.805028331570057"><ele>1215.4</ele><time>2026-04-18T11:04:07.999Z</time></trkpt><trkpt lat="42.89998255088349" lon="12.805044946281884"><ele>1218.0</ele><time>2026-04-18T11:04:08.999Z</time></trkpt><trkpt lat="42.90005342135145" lon="12.805048878343491"><ele>1216.5714285714287</ele><time>2026-04-18T11:04:09.999Z</time></trkpt><trkpt lat="42.900116703533925" lon="12.805041070712154"><ele>1215.142857142857</ele><time>2026-04-18T11:04:10.999Z</time></trkpt><trkpt lat="42.900186923397506" lon="12.805017798313358"><ele>1213.7142857142858</ele><time>2026-04-18T11:04:11.999Z</time></trkpt><trkpt lat="42.900246386915825" lon="12.804985609884953"><ele>1212.2857142857142</ele><time>2026-04-18T11:04:12.999Z</time></trkpt><trkpt lat="42.90031076234397" lon="12.804936042749786"><ele>1210.857142857143</ele><time>2026-04-18T11:04:13.999Z</time></trkpt><trkpt lat="42.9003715719991" lon="12.804892842396674"><ele>1209.4285714285716</ele><time>2026-04-18T11:04:14.999Z</time></trkpt><trkpt lat="42.90044759049204" lon="12.804844755621057"><ele>1208.0</ele><time>2026-04-18T11:04:15.999Z</time></trkpt><trkpt lat="42.90050172820632" lon="12.804800636594747"><ele>1208.0</ele><time>2026-04-18T11:04:16.999Z</time></trkpt><trkpt lat="42.900557596002244" lon="12.804740308012354"><ele>1208.0</ele><time>2026-04-18T11:04:17.999Z</time></trkpt><trkpt lat="42.90061159933774" lon="12.804657222421962"><ele>1208.0</ele><time>2026-04-18T11:04:18.999Z</time></trkpt><trkpt lat="42.90067959137791" lon="12.804586665980338"><ele>1208.0</ele><time>2026-04-18T11:04:19.999Z</time></trkpt><trkpt lat="42.90076407794478" lon="12.804526493230085"><ele>1208.0</ele><time>2026-04-18T11:04:20.999Z</time></trkpt><trkpt lat="42.90085298539941" lon="12.80444228322297"><ele>1208.0</ele><time>2026-04-18T11:04:21.999Z</time></trkpt><trkpt lat="42.90091583477126" lon="12.804369322076635"><ele>1204.6</ele><time>2026-04-18T11:04:22.999Z</time></trkpt><trkpt lat="42.901002761998605" lon="12.804276343614262"><ele>1201.1999999999998</ele><time>2026-04-18T11:04:23.999Z</time></trkpt><trkpt lat="42.90108701612238" lon="12.804180440247872"><ele>1197.8</ele><time>2026-04-18T11:04:24.999Z</time></trkpt><trkpt lat="42.90117107954824" lon="12.804092880963353"><ele>1194.3999999999999</ele><time>2026-04-18T11:04:25.999Z</time></trkpt><trkpt lat="42.90125512305419" lon="12.804020247833902"><ele>1191.0</ele><time>2026-04-18T11:04:26.999Z</time></trkpt><trkpt lat="42.90134556961615" lon="12.803949781699734"><ele>1191.0</ele><time>2026-04-18T11:04:27.999Z</time></trkpt><trkpt lat="42.90144548818158" lon="12.803889497422793"><ele>1191.0</ele><time>2026-04-18T11:04:28.999Z</time></trkpt><trkpt lat="42.9015398340393" lon="12.80382453934198"><ele>1191.0</ele><time>2026-04-18T11:04:29.999Z</time></trkpt><trkpt lat="42.90164369132587" lon="12.803758230727057"><ele>1191.0</ele><time>2026-04-18T11:04:30.999Z</time></trkpt><trkpt lat="42.90174261026783" lon="12.803685149280529"><ele>1191.0</ele><time>2026-04-18T11:04:31.999Z</time></trkpt><trkpt lat="42.90184349733009" lon="12.803613085183486"><ele>1187.0</ele><time>2026-04-18T11:04:32.999Z</time></trkpt><trkpt lat="42.90195470761715" lon="12.80354741611843"><ele>1183.0</ele><time>2026-04-18T11:04:33.999Z</time></trkpt><trkpt lat="42.90205774217221" lon="12.803476857778646"><ele>1179.0</ele><time>2026-04-18T11:04:34.999Z</time></trkpt><trkpt lat="42.902164605296456" lon="12.803413043138875"><ele>1175.0</ele><time>2026-04-18T11:04:35.999Z</time></trkpt><trkpt lat="42.90227063444557" lon="12.803365726285751"><ele>1175.0</ele><time>2026-04-18T11:04:36.999Z</time></trkpt><trkpt lat="42.9023709621572" lon="12.803336227496649"><ele>1175.0</ele><time>2026-04-18T11:04:37.999Z</time></trkpt><trkpt lat="42.902472984502126" lon="12.803337473553404"><ele>1175.0</ele><time>2026-04-18T11:04:38.999Z</time></trkpt><trkpt lat="42.90255575493412" lon="12.803336384517735"><ele>1175.0</ele><time>2026-04-18T11:04:39.999Z</time></trkpt><trkpt lat="42.90263889487188" lon="12.803463379353301"><ele>1175.0</ele><time>2026-04-18T11:04:40.999Z</time></trkpt><trkpt lat="42.90275600696657" lon="12.803484744301668"><ele>1176.0</ele><time>2026-04-18T11:04:41.999Z</time></trkpt><trkpt lat="42.902852749332645" lon="12.803502393161233"><ele>1177.0</ele><time>2026-04-18T11:04:42.999Z</time></trkpt><trkpt lat="42.902964488919096" lon="12.803479893959864"><ele>1178.0</ele><time>2026-04-18T11:04:43.999Z</time></trkpt><trkpt lat="42.90306063729288" lon="12.803523239601645"><ele>1179.0</ele><time>2026-04-18T11:04:44.999Z</time></trkpt><trkpt lat="42.90315526608075" lon="12.80356377143227"><ele>1180.0</ele><time>2026-04-18T11:04:45.999Z</time></trkpt><trkpt lat="42.90324862981793" lon="12.803619926108155"><ele>1180.0</ele><time>2026-04-18T11:04:46.999Z</time></trkpt><trkpt lat="42.90333666319834" lon="12.803677545884112"><ele>1180.0</ele><time>2026-04-18T11:04:47.999Z</time></trkpt><trkpt lat="42.903428258954015" lon="12.803745454899557"><ele>1180.0</ele><time>2026-04-18T11:04:48.999Z</time></trkpt><trkpt lat="42.90349575624865" lon="12.803773583413172"><ele>1180.0</ele><time>2026-04-18T11:04:49.999Z</time></trkpt><trkpt lat="42.903549982522584" lon="12.80388133196558"><ele>1180.0</ele><time>2026-04-18T11:04:51.999Z</time></trkpt><trkpt lat="42.90350947382006" lon="12.804043663608919"><ele>1182.4</ele><time>2026-04-18T11:04:53.999Z</time></trkpt><trkpt lat="42.903476432933665" lon="12.804134265928681"><ele>1184.8</ele><time>2026-04-18T11:04:54.999Z</time></trkpt><trkpt lat="42.903467742421746" lon="12.804254853141138"><ele>1187.2</ele><time>2026-04-18T11:04:55.999Z</time></trkpt><trkpt lat="42.90347704288055" lon="12.804382073572528"><ele>1189.6</ele><time>2026-04-18T11:04:56.999Z</time></trkpt><trkpt lat="42.903495902795264" lon="12.804510550550527"><ele>1192.0</ele><time>2026-04-18T11:04:57.999Z</time></trkpt><trkpt lat="42.90352457857768" lon="12.804646786775516"><ele>1192.0</ele><time>2026-04-18T11:04:58.999Z</time></trkpt><trkpt lat="42.90355747305546" lon="12.804783870604105"><ele>1192.0</ele><time>2026-04-18T11:04:59.999Z</time></trkpt><trkpt lat="42.90359606322191" lon="12.804934560727599"><ele>1192.0</ele><time>2026-04-18T11:05:00.999Z</time></trkpt><trkpt lat="42.90362376073734" lon="12.805090979159687"><ele>1192.0</ele><time>2026-04-18T11:05:01.999Z</time></trkpt><trkpt lat="42.90364716092011" lon="12.805242311425209"><ele>1191.6</ele><time>2026-04-18T11:05:02.999Z</time></trkpt><trkpt lat="42.90366089194318" lon="12.805402192881523"><ele>1191.2</ele><time>2026-04-18T11:05:03.999Z</time></trkpt><trkpt lat="42.903680973847685" lon="12.805543165777658"><ele>1190.8</ele><time>2026-04-18T11:05:04.999Z</time></trkpt><trkpt lat="42.9037173344544" lon="12.805655930383779"><ele>1190.4</ele><time>2026-04-18T11:05:05.999Z</time></trkpt><trkpt lat="42.90375525729252" lon="12.805763724589047"><ele>1190.0</ele><time>2026-04-18T11:05:06.999Z</time></trkpt><trkpt lat="42.90374058801698" lon="12.805869284865254"><ele>1190.0</ele><time>2026-04-18T11:05:07.999Z</time></trkpt><trkpt lat="42.90372875673299" lon="12.805980439760697"><ele>1190.0</ele><time>2026-04-18T11:05:08.999Z</time></trkpt><trkpt lat="42.903772328714204" lon="12.806111471158875"><ele>1190.0</ele><time>2026-04-18T11:05:09.999Z</time></trkpt><trkpt lat="42.90383627296631" lon="12.806260285576133"><ele>1190.0</ele><time>2026-04-18T11:05:10.999Z</time></trkpt><trkpt lat="42.90391120602051" lon="12.806397451576892"><ele>1190.0</ele><time>2026-04-18T11:05:11.999Z</time></trkpt><trkpt lat="42.903964320468205" lon="12.806520786828147"><ele>1189.8</ele><time>2026-04-18T11:05:12.999Z</time></trkpt><trkpt lat="42.90400554046356" lon="12.806655392904856"><ele>1189.6</ele><time>2026-04-18T11:05:13.999Z</time></trkpt><trkpt lat="42.90404609322437" lon="12.806784672471986"><ele>1189.4</ele><time>2026-04-18T11:05:14.999Z</time></trkpt><trkpt lat="42.90408459908619" lon="12.80691867672544"><ele>1189.2</ele><time>2026-04-18T11:05:15.999Z</time></trkpt><trkpt lat="42.90410486599816" lon="12.807051337837112"><ele>1189.0</ele><time>2026-04-18T11:05:16.999Z</time></trkpt><trkpt lat="42.90412904277395" lon="12.807169656257937"><ele>1188.6666666666665</ele><time>2026-04-18T11:05:17.999Z</time></trkpt><trkpt lat="42.904166424920156" lon="12.807254678845716"><ele>1188.3333333333333</ele><time>2026-04-18T11:05:18.999Z</time></trkpt><trkpt lat="42.9042282876429" lon="12.807322477530919"><ele>1188.0</ele><time>2026-04-18T11:05:19.999Z</time></trkpt><trkpt lat="42.9043041631087" lon="12.807368703626015"><ele>1187.6666666666667</ele><time>2026-04-18T11:05:20.999Z</time></trkpt><trkpt lat="42.9043940683082" lon="12.807424575148838"><ele>1187.3333333333335</ele><time>2026-04-18T11:05:21.999Z</time></trkpt><trkpt lat="42.90447477119825" lon="12.80745466962858"><ele>1187.0</ele><time>2026-04-18T11:05:22.999Z</time></trkpt><trkpt lat="42.90460354823922" lon="12.807575283631381"><ele>1189.6</ele><time>2026-04-18T11:05:24.999Z</time></trkpt><trkpt lat="42.9046680549614" lon="12.807668731994895"><ele>1192.2</ele><time>2026-04-18T11:05:25.999Z</time></trkpt><trkpt lat="42.904723622353664" lon="12.807765153506416"><ele>1194.8</ele><time>2026-04-18T11:05:26.999Z</time></trkpt><trkpt lat="42.90478152781766" lon="12.807862860210927"><ele>1197.4</ele><time>2026-04-18T11:05:27.999Z</time></trkpt><trkpt lat="42.90484641282728" lon="12.807958391436994"><ele>1200.0</ele><time>2026-04-18T11:05:29Z</time></trkpt><trkpt lat="42.90488128980748" lon="12.808067577044545"><ele>1200.0</ele><time>2026-04-18T11:05:30Z</time></trkpt><trkpt lat="42.90490953903027" lon="12.808167926060696"><ele>1200.0</ele><time>2026-04-18T11:05:31Z</time></trkpt><trkpt lat="42.9049389760953" lon="12.808252118168152"><ele>1200.0</ele><time>2026-04-18T11:05:32Z</time></trkpt><trkpt lat="42.90500281925672" lon="12.808323002427342"><ele>1200.0</ele><time>2026-04-18T11:05:33Z</time></trkpt><trkpt lat="42.90509084593089" lon="12.808384875470205"><ele>1200.0</ele><time>2026-04-18T11:05:34Z</time></trkpt><trkpt lat="42.90516782611615" lon="12.808441943751486"><ele>1200.0</ele><time>2026-04-18T11:05:35Z</time></trkpt><trkpt lat="42.905227118510716" lon="12.808529004442773"><ele>1201.4</ele><time>2026-04-18T11:05:36Z</time></trkpt><trkpt lat="42.905254986365804" lon="12.808620349094527"><ele>1202.8</ele><time>2026-04-18T11:05:37Z</time></trkpt><trkpt lat="42.90528146010949" lon="12.808725506566633"><ele>1204.2</ele><time>2026-04-18T11:05:38Z</time></trkpt><trkpt lat="42.90536110211711" lon="12.808896112151082"><ele>1205.6</ele><time>2026-04-18T11:05:40Z</time></trkpt><trkpt lat="42.905444140318295" lon="12.808968580257838"><ele>1207.0</ele><time>2026-04-18T11:05:41Z</time></trkpt><trkpt lat="42.905500684922295" lon="12.809058012110157"><ele>1207.0</ele><time>2026-04-18T11:05:42Z</time></trkpt><trkpt lat="42.90554314655109" lon="12.809174577458762"><ele>1207.0</ele><time>2026-04-18T11:05:43Z</time></trkpt><trkpt lat="42.90560328558982" lon="12.809271494165404"><ele>1207.0</ele><time>2026-04-18T11:05:44Z</time></trkpt><trkpt lat="42.90567610131133" lon="12.809345044424871"><ele>1207.0</ele><time>2026-04-18T11:05:45Z</time></trkpt><trkpt lat="42.90577353446846" lon="12.809414671853034"><ele>1207.0</ele><time>2026-04-18T11:05:46Z</time></trkpt><trkpt lat="42.90583496859843" lon="12.809473776419944"><ele>1206.8</ele><time>2026-04-18T11:05:47Z</time></trkpt><trkpt lat="42.905900408589595" lon="12.809551102223816"><ele>1206.6</ele><time>2026-04-18T11:05:48Z</time></trkpt><trkpt lat="42.90596820693279" lon="12.809623952589662"><ele>1206.3999999999999</ele><time>2026-04-18T11:05:49Z</time></trkpt><trkpt lat="42.90603109772113" lon="12.809654684586835"><ele>1206.2</ele><time>2026-04-18T11:05:50Z</time></trkpt><trkpt lat="42.90611284283031" lon="12.80967654274598"><ele>1206.0</ele><time>2026-04-18T11:05:51Z</time></trkpt><trkpt lat="42.906244892454154" lon="12.809675726312866"><ele>1206.0</ele><time>2026-04-18T11:05:53Z</time></trkpt><trkpt lat="42.90636484708383" lon="12.809634827089742"><ele>1206.0</ele><time>2026-04-18T11:05:55Z</time></trkpt><trkpt lat="42.90645466662797" lon="12.809604362623539"><ele>1206.0</ele><time>2026-04-18T11:05:56Z</time></trkpt><trkpt lat="42.906550147900425" lon="12.809606693169892"><ele>1206.0</ele><time>2026-04-18T11:05:57Z</time></trkpt><trkpt lat="42.90665427739847" lon="12.809632307201305"><ele>1206.0</ele><time>2026-04-18T11:05:58Z</time></trkpt><trkpt lat="42.90677202162961" lon="12.809696524088535"><ele>1209.8</ele><time>2026-04-18T11:05:59Z</time></trkpt><trkpt lat="42.90688775109235" lon="12.80980663231697"><ele>1213.6</ele><time>2026-04-18T11:06:00Z</time></trkpt><trkpt lat="42.906975175745174" lon="12.809912183461845"><ele>1217.4</ele><time>2026-04-18T11:06:01Z</time></trkpt><trkpt lat="42.907043036944174" lon="12.810017002302876"><ele>1221.2</ele><time>2026-04-18T11:06:02Z</time></trkpt><trkpt lat="42.90708696311257" lon="12.81008115088438"><ele>1225.0</ele><time>2026-04-18T11:06:03Z</time></trkpt><trkpt lat="42.907152333557526" lon="12.810138386745141"><ele>1223.2</ele><time>2026-04-18T11:06:05Z</time></trkpt><trkpt lat="42.90724802372144" lon="12.810169507601133"><ele>1221.4</ele><time>2026-04-18T11:06:07.999Z</time></trkpt><trkpt lat="42.907344555031735" lon="12.81025514717943"><ele>1219.6</ele><time>2026-04-18T11:06:09.999Z</time></trkpt><trkpt lat="42.907384052533054" lon="12.810407357423045"><ele>1217.8</ele><time>2026-04-18T11:06:11.999Z</time></trkpt><trkpt lat="42.90738108240465" lon="12.81051006437541"><ele>1216.0</ele><time>2026-04-18T11:06:12.999Z</time></trkpt><trkpt lat="42.90737848687475" lon="12.8106216076185"><ele>1216.0</ele><time>2026-04-18T11:06:13.999Z</time></trkpt><trkpt lat="42.907380515151644" lon="12.810731331534239"><ele>1216.0</ele><time>2026-04-18T11:06:14.999Z</time></trkpt><trkpt lat="42.90736135064817" lon="12.810819881698588"><ele>1216.0</ele><time>2026-04-18T11:06:15.999Z</time></trkpt><trkpt lat="42.907341297098775" lon="12.8109682814291"><ele>1216.0</ele><time>2026-04-18T11:06:17.999Z</time></trkpt><trkpt lat="42.90729379309616" lon="12.811132811927015"><ele>1216.0</ele><time>2026-04-18T11:06:19.999Z</time></trkpt><trkpt lat="42.90727293797174" lon="12.81124866361411"><ele>1215.3999999999999</ele><time>2026-04-18T11:06:20.999Z</time></trkpt><trkpt lat="42.907279013185" lon="12.811382904261473"><ele>1214.8</ele><time>2026-04-18T11:06:21.999Z</time></trkpt><trkpt lat="42.907309115103004" lon="12.811531563415453"><ele>1214.1999999999998</ele><time>2026-04-18T11:06:22.999Z</time></trkpt><trkpt lat="42.907343317331424" lon="12.811682232004008"><ele>1213.6</ele><time>2026-04-18T11:06:23.999Z</time></trkpt><trkpt lat="42.90736961381381" lon="12.811827072974713"><ele>1213.0</ele><time>2026-04-18T11:06:24.999Z</time></trkpt><trkpt lat="42.907402603705485" lon="12.811957448378067"><ele>1212.6</ele><time>2026-04-18T11:06:25.999Z</time></trkpt><trkpt lat="42.90744346480152" lon="12.812085275396358"><ele>1212.1999999999998</ele><time>2026-04-18T11:06:26.999Z</time></trkpt><trkpt lat="42.90748656703004" lon="12.812216003498103"><ele>1211.8</ele><time>2026-04-18T11:06:27.999Z</time></trkpt><trkpt lat="42.9075265264705" lon="12.81234859753439"><ele>1211.3999999999999</ele><time>2026-04-18T11:06:28.999Z</time></trkpt><trkpt lat="42.90756185513507" lon="12.8124780271819"><ele>1211.0</ele><time>2026-04-18T11:06:29.999Z</time></trkpt><trkpt lat="42.90759426208631" lon="12.812605885338968"><ele>1211.0</ele><time>2026-04-18T11:06:30.999Z</time></trkpt><trkpt lat="42.907626063527985" lon="12.81274283713319"><ele>1211.0</ele><time>2026-04-18T11:06:31.999Z</time></trkpt><trkpt lat="42.90766398410534" lon="12.812850424053574"><ele>1211.0</ele><time>2026-04-18T11:06:32.999Z</time></trkpt><trkpt lat="42.9077162914968" lon="12.812962720384323"><ele>1211.0</ele><time>2026-04-18T11:06:33.999Z</time></trkpt><trkpt lat="42.90778033279525" lon="12.813066731422309"><ele>1211.0</ele><time>2026-04-18T11:06:34.999Z</time></trkpt><trkpt lat="42.90784312387764" lon="12.813158086435061"><ele>1211.0</ele><time>2026-04-18T11:06:35.999Z</time></trkpt><trkpt lat="42.90791546019178" lon="12.813271675898322"><ele>1211.0</ele><time>2026-04-18T11:06:36.999Z</time></trkpt><trkpt lat="42.90799829411604" lon="12.813401166760325"><ele>1211.0</ele><time>2026-04-18T11:06:37.999Z</time></trkpt><trkpt lat="42.908090518086205" lon="12.81352346535877"><ele>1211.0</ele><time>2026-04-18T11:06:38.999Z</time></trkpt><trkpt lat="42.908162640783694" lon="12.813652508520457"><ele>1210.6</ele><time>2026-04-18T11:06:39.999Z</time></trkpt><trkpt lat="42.90821414014001" lon="12.81378911219004"><ele>1210.1999999999998</ele><time>2026-04-18T11:06:40.999Z</time></trkpt><trkpt lat="42.90825018186515" lon="12.813935620987975"><ele>1209.8000000000002</ele><time>2026-04-18T11:06:41.999Z</time></trkpt><trkpt lat="42.90828075184796" lon="12.81408351011941"><ele>1209.4</ele><time>2026-04-18T11:06:42.999Z</time></trkpt><trkpt lat="42.90832058993209" lon="12.814207321348109"><ele>1209.0</ele><time>2026-04-18T11:06:43.999Z</time></trkpt><trkpt lat="42.90837102253014" lon="12.814308055818781"><ele>1208.4</ele><time>2026-04-18T11:06:44.999Z</time></trkpt><trkpt lat="42.90845329042108" lon="12.814388851458299"><ele>1207.8000000000002</ele><time>2026-04-18T11:06:45.999Z</time></trkpt><trkpt lat="42.90853786104533" lon="12.814423888321368"><ele>1207.1999999999998</ele><time>2026-04-18T11:06:46.999Z</time></trkpt><trkpt lat="42.90862802591929" lon="12.814427405969386"><ele>1206.6</ele><time>2026-04-18T11:06:47.999Z</time></trkpt><trkpt lat="42.90872475827574" lon="12.814386052722313"><ele>1206.0</ele><time>2026-04-18T11:06:48.999Z</time></trkpt><trkpt lat="42.90881314112531" lon="12.814294124542975"><ele>1206.0</ele><time>2026-04-18T11:06:49.999Z</time></trkpt><trkpt lat="42.90887990201882" lon="12.81416895248701"><ele>1206.0</ele><time>2026-04-18T11:06:50.999Z</time></trkpt><trkpt lat="42.908945573283255" lon="12.814042945149167"><ele>1206.0</ele><time>2026-04-18T11:06:51.999Z</time></trkpt><trkpt lat="42.90903605003847" lon="12.813927516545046"><ele>1206.0</ele><time>2026-04-18T11:06:52.999Z</time></trkpt><trkpt lat="42.90912405552352" lon="12.813816436135646"><ele>1206.0</ele><time>2026-04-18T11:06:53.999Z</time></trkpt><trkpt lat="42.90919932279516" lon="12.8136867984493"><ele>1206.0</ele><time>2026-04-18T11:06:54.999Z</time></trkpt><trkpt lat="42.909267272861925" lon="12.813556705693935"><ele>1206.0</ele><time>2026-04-18T11:06:55.999Z</time></trkpt><trkpt lat="42.90934018234442" lon="12.81342441962967"><ele>1206.0</ele><time>2026-04-18T11:06:56.999Z</time></trkpt><trkpt lat="42.90941113180933" lon="12.813305621142664"><ele>1206.1666666666667</ele><time>2026-04-18T11:06:57.999Z</time></trkpt><trkpt lat="42.90948707454671" lon="12.81320536999125"><ele>1206.3333333333333</ele><time>2026-04-18T11:06:58.999Z</time></trkpt><trkpt lat="42.90955309993843" lon="12.813112533264906"><ele>1206.5</ele><time>2026-04-18T11:06:59.999Z</time></trkpt><trkpt lat="42.90960451017192" lon="12.813029100864089"><ele>1206.6666666666665</ele><time>2026-04-18T11:07:00.999Z</time></trkpt><trkpt lat="42.909650200977936" lon="12.812962425716794"><ele>1206.8333333333333</ele><time>2026-04-18T11:07:01.999Z</time></trkpt><trkpt lat="42.90971905994615" lon="12.812892893478798"><ele>1207.0</ele><time>2026-04-18T11:07:03.999Z</time></trkpt><trkpt lat="42.909829487392166" lon="12.812877517060455"><ele>1207.0</ele><time>2026-04-18T11:07:05.999Z</time></trkpt><trkpt lat="42.90992907165875" lon="12.812922184546784"><ele>1207.0</ele><time>2026-04-18T11:07:07.999Z</time></trkpt><trkpt lat="42.910046125537676" lon="12.81290903915213"><ele>1207.0</ele><time>2026-04-18T11:07:09.999Z</time></trkpt><trkpt lat="42.910134654298886" lon="12.812897388087304"><ele>1207.0</ele><time>2026-04-18T11:07:10.999Z</time></trkpt><trkpt lat="42.910206944102065" lon="12.812883833469936"><ele>1207.0</ele><time>2026-04-18T11:07:11.999Z</time></trkpt><trkpt lat="42.91026919028508" lon="12.812858628043003"><ele>1207.0</ele><time>2026-04-18T11:07:12.999Z</time></trkpt><trkpt lat="42.9103757008968" lon="12.81279907942425"><ele>1209.25</ele><time>2026-04-18T11:07:14.999Z</time></trkpt><trkpt lat="42.91049483573617" lon="12.812727177919621"><ele>1211.5</ele><time>2026-04-18T11:07:16.999Z</time></trkpt><trkpt lat="42.910609783923995" lon="12.812647607310005"><ele>1213.75</ele><time>2026-04-18T11:07:18.999Z</time></trkpt><trkpt lat="42.910700209691086" lon="12.812577155717552"><ele>1216.0</ele><time>2026-04-18T11:07:19.999Z</time></trkpt><trkpt lat="42.910774301932165" lon="12.812494694889628"><ele>1216.0</ele><time>2026-04-18T11:07:20.999Z</time></trkpt><trkpt lat="42.91086445622287" lon="12.81243008588564"><ele>1216.0</ele><time>2026-04-18T11:07:21.999Z</time></trkpt><trkpt lat="42.91093150518243" lon="12.812368576120834"><ele>1216.0</ele><time>2026-04-18T11:07:22.999Z</time></trkpt><trkpt lat="42.91100219521857" lon="12.812336072687883"><ele>1216.0</ele><time>2026-04-18T11:07:23.999Z</time></trkpt><trkpt lat="42.911119480322334" lon="12.812344439715895"><ele>1216.0</ele><time>2026-04-18T11:07:25.999Z</time></trkpt><trkpt lat="42.911300944410975" lon="12.812325624131843"><ele>1214.3333333333333</ele><time>2026-04-18T11:07:26.999Z</time></trkpt><trkpt lat="42.91140206274462" lon="12.81249327608366"><ele>1212.6666666666667</ele><time>2026-04-18T11:07:27.999Z</time></trkpt><trkpt lat="42.911548275748494" lon="12.812663055264068"><ele>1211.0</ele><time>2026-04-18T11:07:28.999Z</time></trkpt><trkpt lat="42.91163795200499" lon="12.81275973599223"><ele>1209.6</ele><time>2026-04-18T11:07:29.999Z</time></trkpt><trkpt lat="42.91171086993851" lon="12.812834890410148"><ele>1208.1999999999998</ele><time>2026-04-18T11:07:30.999Z</time></trkpt><trkpt lat="42.9117859685052" lon="12.812915548265057"><ele>1206.8000000000002</ele><time>2026-04-18T11:07:31.999Z</time></trkpt><trkpt lat="42.91188246392229" lon="12.812992225925537"><ele>1205.4</ele><time>2026-04-18T11:07:32.999Z</time></trkpt><trkpt lat="42.911992251053384" lon="12.81307192510844"><ele>1204.0</ele><time>2026-04-18T11:07:33.999Z</time></trkpt><trkpt lat="42.91209559486806" lon="12.813135702680755"><ele>1203.25</ele><time>2026-04-18T11:07:35Z</time></trkpt><trkpt lat="42.91220536782708" lon="12.813153456022437"><ele>1202.5</ele><time>2026-04-18T11:07:36Z</time></trkpt><trkpt lat="42.91231775048198" lon="12.813172706699795"><ele>1201.75</ele><time>2026-04-18T11:07:37Z</time></trkpt><trkpt lat="42.912449517623635" lon="12.813182276327774"><ele>1201.0</ele><time>2026-04-18T11:07:38Z</time></trkpt><trkpt lat="42.912581545674655" lon="12.813173084748922"><ele>1199.75</ele><time>2026-04-18T11:07:39Z</time></trkpt><trkpt lat="42.91271391772036" lon="12.813152564033272"><ele>1198.5</ele><time>2026-04-18T11:07:40Z</time></trkpt><trkpt lat="42.91286003858573" lon="12.813134538724409"><ele>1197.25</ele><time>2026-04-18T11:07:41Z</time></trkpt><trkpt lat="42.91301167215864" lon="12.813121517834551"><ele>1196.0</ele><time>2026-04-18T11:07:42Z</time></trkpt><trkpt lat="42.91313733974393" lon="12.813109911590791"><ele>1196.0</ele><time>2026-04-18T11:07:43Z</time></trkpt><trkpt lat="42.91326706243349" lon="12.813093158050343"><ele>1196.0</ele><time>2026-04-18T11:07:44Z</time></trkpt><trkpt lat="42.91337460044913" lon="12.813072326038075"><ele>1196.0</ele><time>2026-04-18T11:07:45Z</time></trkpt><trkpt lat="42.913457550687305" lon="12.81303314161812"><ele>1196.0</ele><time>2026-04-18T11:07:46Z</time></trkpt><trkpt lat="42.913535475447034" lon="12.812985579619022"><ele>1196.0</ele><time>2026-04-18T11:07:47Z</time></trkpt><trkpt lat="42.91361248915579" lon="12.812965579123611"><ele>1195.2</ele><time>2026-04-18T11:07:48Z</time></trkpt><trkpt lat="42.91370829434226" lon="12.812909208406733"><ele>1194.3999999999999</ele><time>2026-04-18T11:07:49Z</time></trkpt><trkpt lat="42.913805639243826" lon="12.81286161062676"><ele>1193.6</ele><time>2026-04-18T11:07:50Z</time></trkpt><trkpt lat="42.91390715699606" lon="12.812868209658328"><ele>1192.8</ele><time>2026-04-18T11:07:51Z</time></trkpt><trkpt lat="42.91401175769499" lon="12.812949203169175"><ele>1192.0</ele><time>2026-04-18T11:07:52Z</time></trkpt><trkpt lat="42.91411962513729" lon="12.813072895408819"><ele>1192.0</ele><time>2026-04-18T11:07:53Z</time></trkpt><trkpt lat="42.91420849751051" lon="12.81318539965782"><ele>1192.0</ele><time>2026-04-18T11:07:54Z</time></trkpt><trkpt lat="42.91429465120151" lon="12.813271358975799"><ele>1192.0</ele><time>2026-04-18T11:07:55Z</time></trkpt><trkpt lat="42.9143875696861" lon="12.81332837554284"><ele>1192.0</ele><time>2026-04-18T11:07:56Z</time></trkpt><trkpt lat="42.914490393346505" lon="12.813373575915548"><ele>1192.0</ele><time>2026-04-18T11:07:57Z</time></trkpt><trkpt lat="42.91460173715777" lon="12.813425341101127"><ele>1191.0</ele><time>2026-04-18T11:07:58Z</time></trkpt><trkpt lat="42.9147099783641" lon="12.813490837932417"><ele>1190.0</ele><time>2026-04-18T11:07:59Z</time></trkpt><trkpt lat="42.914815131093135" lon="12.813563234940302"><ele>1189.0</ele><time>2026-04-18T11:08:00Z</time></trkpt><trkpt lat="42.91492083448999" lon="12.813639553066306"><ele>1188.0</ele><time>2026-04-18T11:08:01Z</time></trkpt><trkpt lat="42.915026543238724" lon="12.813723078411263"><ele>1188.75</ele><time>2026-04-18T11:08:02Z</time></trkpt><trkpt lat="42.915135696472184" lon="12.813813019867254"><ele>1189.5</ele><time>2026-04-18T11:08:03Z</time></trkpt><trkpt lat="42.915234532324185" lon="12.813897310432633"><ele>1190.25</ele><time>2026-04-18T11:08:04Z</time></trkpt><trkpt lat="42.91533120939591" lon="12.81398367545361"><ele>1191.0</ele><time>2026-04-18T11:08:05Z</time></trkpt><trkpt lat="42.91543234001052" lon="12.814062713095387"><ele>1191.0</ele><time>2026-04-18T11:08:06Z</time></trkpt><trkpt lat="42.915502858166846" lon="12.814162450171406"><ele>1191.0</ele><time>2026-04-18T11:08:07Z</time></trkpt><trkpt lat="42.91556758429523" lon="12.814277036911808"><ele>1191.0</ele><time>2026-04-18T11:08:08Z</time></trkpt><trkpt lat="42.91562710783205" lon="12.814363549157317"><ele>1191.0</ele><time>2026-04-18T11:08:09Z</time></trkpt><trkpt lat="42.91569859318738" lon="12.814434980289311"><ele>1191.0</ele><time>2026-04-18T11:08:10Z</time></trkpt><trkpt lat="42.91578535961911" lon="12.814474708401505"><ele>1189.3999999999999</ele><time>2026-04-18T11:08:11Z</time></trkpt><trkpt lat="42.91589046725636" lon="12.814500329932855"><ele>1187.8</ele><time>2026-04-18T11:08:12Z</time></trkpt><trkpt lat="42.91600307930569" lon="12.81451727761558"><ele>1186.1999999999998</ele><time>2026-04-18T11:08:13Z</time></trkpt><trkpt lat="42.916116043554084" lon="12.814545050545327"><ele>1184.6</ele><time>2026-04-18T11:08:13.999Z</time></trkpt><trkpt lat="42.916225118970395" lon="12.81457574884673"><ele>1183.0</ele><time>2026-04-18T11:08:14.999Z</time></trkpt><trkpt lat="42.91633423753874" lon="12.814622449038053"><ele>1183.0</ele><time>2026-04-18T11:08:15.999Z</time></trkpt><trkpt lat="42.916425968940246" lon="12.814683886238415"><ele>1183.0</ele><time>2026-04-18T11:08:16.999Z</time></trkpt><trkpt lat="42.91652038650379" lon="12.814739718685313"><ele>1183.0</ele><time>2026-04-18T11:08:17.999Z</time></trkpt><trkpt lat="42.916583424777755" lon="12.814802155561306"><ele>1183.0</ele><time>2026-04-18T11:08:18.999Z</time></trkpt><trkpt lat="42.91664063042099" lon="12.814875108484665"><ele>1183.0</ele><time>2026-04-18T11:08:19.999Z</time></trkpt><trkpt lat="42.9167345210113" lon="12.81495465603618"><ele>1184.8333333333333</ele><time>2026-04-18T11:08:21.999Z</time></trkpt><trkpt lat="42.9167850561449" lon="12.815015695409432"><ele>1186.6666666666665</ele><time>2026-04-18T11:08:22.999Z</time></trkpt><trkpt lat="42.916849440607656" lon="12.815066549190131"><ele>1188.5</ele><time>2026-04-18T11:08:23.999Z</time></trkpt><trkpt lat="42.91691683558994" lon="12.815095114685565"><ele>1190.3333333333333</ele><time>2026-04-18T11:08:24.999Z</time></trkpt><trkpt lat="42.91704462906392" lon="12.815126490196421"><ele>1192.1666666666667</ele><time>2026-04-18T11:08:26.999Z</time></trkpt><trkpt lat="42.91711465365032" lon="12.815134474622868"><ele>1194.0</ele><time>2026-04-18T11:08:27.999Z</time></trkpt><trkpt lat="42.917178617959124" lon="12.815154022429885"><ele>1193.1666666666667</ele><time>2026-04-18T11:08:28.999Z</time></trkpt><trkpt lat="42.91725531369391" lon="12.81516553757887"><ele>1192.3333333333333</ele><time>2026-04-18T11:08:29.999Z</time></trkpt><trkpt lat="42.91731934552222" lon="12.81516110470347"><ele>1191.5</ele><time>2026-04-18T11:08:30.999Z</time></trkpt><trkpt lat="42.91744508925684" lon="12.815164555384438"><ele>1190.6666666666665</ele><time>2026-04-18T11:08:32.999Z</time></trkpt><trkpt lat="42.91752360175352" lon="12.815154562837872"><ele>1189.8333333333333</ele><time>2026-04-18T11:08:33.999Z</time></trkpt><trkpt lat="42.91761440625454" lon="12.815150411118198"><ele>1189.0</ele><time>2026-04-18T11:08:34.999Z</time></trkpt><trkpt lat="42.91771305005186" lon="12.815168266558219"><ele>1185.0</ele><time>2026-04-18T11:08:35.999Z</time></trkpt><trkpt lat="42.91779290927108" lon="12.815180281499545"><ele>1181.0</ele><time>2026-04-18T11:08:36.999Z</time></trkpt><trkpt lat="42.91787791998743" lon="12.815208441232878"><ele>1177.0</ele><time>2026-04-18T11:08:37.999Z</time></trkpt><trkpt lat="42.917956783065335" lon="12.815234099568595"><ele>1173.0</ele><time>2026-04-18T11:08:38.999Z</time></trkpt><trkpt lat="42.918023342492944" lon="12.815244423835745"><ele>1169.0</ele><time>2026-04-18T11:08:39.999Z</time></trkpt><trkpt lat="42.91809190046252" lon="12.815251629354039"><ele>1165.0</ele><time>2026-04-18T11:08:40.999Z</time></trkpt><trkpt lat="42.91815612319391" lon="12.815265206110233"><ele>1165.0</ele><time>2026-04-18T11:08:41.999Z</time></trkpt><trkpt lat="42.91822698435564" lon="12.815278760550656"><ele>1165.0</ele><time>2026-04-18T11:08:42.999Z</time></trkpt><trkpt lat="42.918344817433706" lon="12.815274895683563"><ele>1165.0</ele><time>2026-04-18T11:08:44.999Z</time></trkpt><trkpt lat="42.91841357042392" lon="12.81524049579411"><ele>1165.0</ele><time>2026-04-18T11:08:45.999Z</time></trkpt><trkpt lat="42.91848437694517" lon="12.815171893522455"><ele>1165.0</ele><time>2026-04-18T11:08:46.999Z</time></trkpt><trkpt lat="42.918554291443506" lon="12.815116391307884"><ele>1165.0</ele><time>2026-04-18T11:08:47.999Z</time></trkpt><trkpt lat="42.918639526383096" lon="12.815049274297683"><ele>1164.6</ele><time>2026-04-18T11:08:49.999Z</time></trkpt><trkpt lat="42.91872415880183" lon="12.814999457764996"><ele>1164.2</ele><time>2026-04-18T11:08:51.999Z</time></trkpt><trkpt lat="42.91880969705732" lon="12.814916928738487"><ele>1163.8</ele><time>2026-04-18T11:08:53.999Z</time></trkpt><trkpt lat="42.91889522088483" lon="12.814850190860241"><ele>1163.4</ele><time>2026-04-18T11:08:55.999Z</time></trkpt><trkpt lat="42.91899926013973" lon="12.8148688661415"><ele>1163.0</ele><time>2026-04-18T11:08:57.999Z</time></trkpt><trkpt lat="42.91910458902542" lon="12.814852165297802"><ele>1163.0</ele><time>2026-04-18T11:08:59.999Z</time></trkpt><trkpt lat="42.91916520437188" lon="12.81481829774982"><ele>1163.0</ele><time>2026-04-18T11:09:00.999Z</time></trkpt><trkpt lat="42.91923163841889" lon="12.81476703265391"><ele>1163.0</ele><time>2026-04-18T11:09:01.999Z</time></trkpt><trkpt lat="42.91929841295266" lon="12.81471197422753"><ele>1163.0</ele><time>2026-04-18T11:09:02.999Z</time></trkpt><trkpt lat="42.91939254840756" lon="12.81459008530784"><ele>1163.0</ele><time>2026-04-18T11:09:03.999Z</time></trkpt><trkpt lat="42.91948602704" lon="12.814642804848006"><ele>1161.4</ele><time>2026-04-18T11:09:05.999Z</time></trkpt><trkpt lat="42.91957694060221" lon="12.814759000758983"><ele>1159.8</ele><time>2026-04-18T11:09:07.999Z</time></trkpt><trkpt lat="42.91966791458347" lon="12.814792522941305"><ele>1158.2</ele><time>2026-04-18T11:09:08.999Z</time></trkpt><trkpt lat="42.91977011125257" lon="12.814818432725033"><ele>1156.6</ele><time>2026-04-18T11:09:09.999Z</time></trkpt><trkpt lat="42.91987336001576" lon="12.814843555309793"><ele>1155.0</ele><time>2026-04-18T11:09:10.999Z</time></trkpt><trkpt lat="42.91996873894825" lon="12.81489239263426"><ele>1155.0</ele><time>2026-04-18T11:09:11.999Z</time></trkpt><trkpt lat="42.920052869041584" lon="12.814982934535871"><ele>1155.0</ele><time>2026-04-18T11:09:12.999Z</time></trkpt><trkpt lat="42.92012211716475" lon="12.81508758978685"><ele>1155.0</ele><time>2026-04-18T11:09:13.999Z</time></trkpt><trkpt lat="42.920179984479965" lon="12.815177035061504"><ele>1155.0</ele><time>2026-04-18T11:09:14.999Z</time></trkpt><trkpt lat="42.92024035392334" lon="12.815275153486825"><ele>1155.0</ele><time>2026-04-18T11:09:15.999Z</time></trkpt><trkpt lat="42.92030465928212" lon="12.815406361350105"><ele>1155.6</ele><time>2026-04-18T11:09:16.999Z</time></trkpt><trkpt lat="42.92036005499378" lon="12.815541596397477"><ele>1156.2</ele><time>2026-04-18T11:09:17.999Z</time></trkpt><trkpt lat="42.920400413690146" lon="12.81568509472693"><ele>1156.8</ele><time>2026-04-18T11:09:18.999Z</time></trkpt><trkpt lat="42.920441167052196" lon="12.81580533741901"><ele>1157.4</ele><time>2026-04-18T11:09:19.999Z</time></trkpt><trkpt lat="42.920495837935505" lon="12.815946132590437"><ele>1158.0</ele><time>2026-04-18T11:09:20.999Z</time></trkpt><trkpt lat="42.92052817034118" lon="12.816118035931012"><ele>1158.0</ele><time>2026-04-18T11:09:21.999Z</time></trkpt><trkpt lat="42.92055061012626" lon="12.816286778647436"><ele>1158.0</ele><time>2026-04-18T11:09:22.999Z</time></trkpt><trkpt lat="42.920583035702215" lon="12.816450003521474"><ele>1158.0</ele><time>2026-04-18T11:09:23.999Z</time></trkpt><trkpt lat="42.92061212869774" lon="12.816604501905044"><ele>1158.0</ele><time>2026-04-18T11:09:24.999Z</time></trkpt><trkpt lat="42.92062493243915" lon="12.816767868155878"><ele>1155.75</ele><time>2026-04-18T11:09:25.999Z</time></trkpt><trkpt lat="42.92063384732192" lon="12.816950460140005"><ele>1153.5</ele><time>2026-04-18T11:09:26.999Z</time></trkpt><trkpt lat="42.92063971557478" lon="12.8171362876181"><ele>1151.25</ele><time>2026-04-18T11:09:27.999Z</time></trkpt><trkpt lat="42.920637594780956" lon="12.817322511779263"><ele>1149.0</ele><time>2026-04-18T11:09:28.999Z</time></trkpt><trkpt lat="42.920620928158044" lon="12.817507409202115"><ele>1148.25</ele><time>2026-04-18T11:09:29.999Z</time></trkpt><trkpt lat="42.92059874535975" lon="12.817688188011864"><ele>1147.5</ele><time>2026-04-18T11:09:30.999Z</time></trkpt><trkpt lat="42.92057385771894" lon="12.817861955731553"><ele>1146.75</ele><time>2026-04-18T11:09:31.999Z</time></trkpt><trkpt lat="42.92055381222446" lon="12.818036697690056"><ele>1146.0</ele><time>2026-04-18T11:09:32.999Z</time></trkpt><trkpt lat="42.92053269546481" lon="12.81818805425492"><ele>1146.0</ele><time>2026-04-18T11:09:33.999Z</time></trkpt><trkpt lat="42.92050997975416" lon="12.81834252456162"><ele>1146.0</ele><time>2026-04-18T11:09:34.999Z</time></trkpt><trkpt lat="42.9205034285305" lon="12.818474494076453"><ele>1146.0</ele><time>2026-04-18T11:09:35.999Z</time></trkpt><trkpt lat="42.920501376385346" lon="12.818596422474618"><ele>1146.0</ele><time>2026-04-18T11:09:36.999Z</time></trkpt><trkpt lat="42.92050814460041" lon="12.818709603683478"><ele>1146.0</ele><time>2026-04-18T11:09:37.999Z</time></trkpt><trkpt lat="42.92052484682875" lon="12.818801295394724"><ele>1145.0</ele><time>2026-04-18T11:09:38.999Z</time></trkpt><trkpt lat="42.92056230000489" lon="12.818908004144598"><ele>1144.0</ele><time>2026-04-18T11:09:39.999Z</time></trkpt><trkpt lat="42.92061615801114" lon="12.819031262450732"><ele>1143.0</ele><time>2026-04-18T11:09:41Z</time></trkpt><trkpt lat="42.920656269942505" lon="12.819133357827816"><ele>1142.0</ele><time>2026-04-18T11:09:42Z</time></trkpt><trkpt lat="42.92067917701445" lon="12.81921616518107"><ele>1141.0</ele><time>2026-04-18T11:09:43Z</time></trkpt><trkpt lat="42.920716981217744" lon="12.819312468810251"><ele>1140.0</ele><time>2026-04-18T11:09:44Z</time></trkpt><trkpt lat="42.92076582618156" lon="12.81937078989143"><ele>1138.5</ele><time>2026-04-18T11:09:45Z</time></trkpt><trkpt lat="42.92082958766001" lon="12.819406823168505"><ele>1137.0</ele><time>2026-04-18T11:09:46Z</time></trkpt><trkpt lat="42.92089957700874" lon="12.819428301366878"><ele>1135.5</ele><time>2026-04-18T11:09:47Z</time></trkpt><trkpt lat="42.92098506565117" lon="12.819453895317636"><ele>1134.0</ele><time>2026-04-18T11:09:48Z</time></trkpt><trkpt lat="42.92107447773726" lon="12.81948991525216"><ele>1132.5</ele><time>2026-04-18T11:09:49Z</time></trkpt><trkpt lat="42.921170747863854" lon="12.819530221657999"><ele>1131.0</ele><time>2026-04-18T11:09:50Z</time></trkpt><trkpt lat="42.92125375209212" lon="12.819601840348232"><ele>1131.25</ele><time>2026-04-18T11:09:51Z</time></trkpt><trkpt lat="42.921320309232065" lon="12.81971229178006"><ele>1131.5</ele><time>2026-04-18T11:09:52Z</time></trkpt><trkpt lat="42.92138580791485" lon="12.81986871407189"><ele>1131.75</ele><time>2026-04-18T11:09:53Z</time></trkpt><trkpt lat="42.921442076722016" lon="12.820022323436831"><ele>1132.0</ele><time>2026-04-18T11:09:54Z</time></trkpt><trkpt lat="42.92149375397909" lon="12.82016897268745"><ele>1132.0</ele><time>2026-04-18T11:09:55Z</time></trkpt><trkpt lat="42.921566344951266" lon="12.820276828869307"><ele>1132.0</ele><time>2026-04-18T11:09:56Z</time></trkpt><trkpt lat="42.92164663715773" lon="12.820400830688346"><ele>1132.0</ele><time>2026-04-18T11:09:57Z</time></trkpt><trkpt lat="42.92168505520143" lon="12.820552510601535"><ele>1132.0</ele><time>2026-04-18T11:09:58Z</time></trkpt><trkpt lat="42.921708606687744" lon="12.820724692734759"><ele>1132.0</ele><time>2026-04-18T11:09:59Z</time></trkpt><trkpt lat="42.921709430423206" lon="12.820917469439632"><ele>1132.0</ele><time>2026-04-18T11:10:00Z</time></trkpt><trkpt lat="42.92170964879005" lon="12.8210781064526"><ele>1132.0</ele><time>2026-04-18T11:10:01Z</time></trkpt><trkpt lat="42.92170098137222" lon="12.821256624437911"><ele>1132.0</ele><time>2026-04-18T11:10:02Z</time></trkpt><trkpt lat="42.921694491625395" lon="12.821400819140742"><ele>1132.8333333333333</ele><time>2026-04-18T11:10:03Z</time></trkpt><trkpt lat="42.921722847174316" lon="12.821505186914322"><ele>1133.6666666666665</ele><time>2026-04-18T11:10:04Z</time></trkpt><trkpt lat="42.92175165627739" lon="12.821615472191688"><ele>1134.5</ele><time>2026-04-18T11:10:05Z</time></trkpt><trkpt lat="42.921771360316555" lon="12.82173389664476"><ele>1135.3333333333333</ele><time>2026-04-18T11:10:06Z</time></trkpt><trkpt lat="42.921788694046214" lon="12.821858914850818"><ele>1136.1666666666667</ele><time>2026-04-18T11:10:07Z</time></trkpt><trkpt lat="42.92180019404947" lon="12.821978901612795"><ele>1137.0</ele><time>2026-04-18T11:10:08Z</time></trkpt><trkpt lat="42.92182077433849" lon="12.82210362567595"><ele>1138.1666666666667</ele><time>2026-04-18T11:10:09Z</time></trkpt><trkpt lat="42.92184792564713" lon="12.822213081190366"><ele>1139.3333333333333</ele><time>2026-04-18T11:10:10Z</time></trkpt><trkpt lat="42.92188079733093" lon="12.822310048451008"><ele>1140.5</ele><time>2026-04-18T11:10:11Z</time></trkpt><trkpt lat="42.92191389144036" lon="12.8224120686959"><ele>1141.6666666666665</ele><time>2026-04-18T11:10:12Z</time></trkpt><trkpt lat="42.92192633035446" lon="12.822512278377957"><ele>1142.8333333333333</ele><time>2026-04-18T11:10:13Z</time></trkpt><trkpt lat="42.921957480130146" lon="12.822634947448515"><ele>1144.0</ele><time>2026-04-18T11:10:14Z</time></trkpt><trkpt lat="42.92196557585051" lon="12.822744104144101"><ele>1144.0</ele><time>2026-04-18T11:10:15Z</time></trkpt><trkpt lat="42.92194863876933" lon="12.822841851974012"><ele>1144.0</ele><time>2026-04-18T11:10:16Z</time></trkpt><trkpt lat="42.92191070620792" lon="12.822939283869506"><ele>1144.0</ele><time>2026-04-18T11:10:17Z</time></trkpt><trkpt lat="42.9218647246225" lon="12.823043536603778"><ele>1144.0</ele><time>2026-04-18T11:10:18Z</time></trkpt><trkpt lat="42.921821180104445" lon="12.823166648051291"><ele>1144.0</ele><time>2026-04-18T11:10:19Z</time></trkpt><trkpt lat="42.92179086357173" lon="12.823281616721543"><ele>1144.0</ele><time>2026-04-18T11:10:20Z</time></trkpt><trkpt lat="42.92175110753266" lon="12.823424653442597"><ele>1145.2</ele><time>2026-04-18T11:10:21Z</time></trkpt><trkpt lat="42.92172983699208" lon="12.823556528276459"><ele>1146.4</ele><time>2026-04-18T11:10:21.999Z</time></trkpt><trkpt lat="42.92169573192681" lon="12.823718549352867"><ele>1147.6</ele><time>2026-04-18T11:10:22.999Z</time></trkpt><trkpt lat="42.92167080839355" lon="12.823853709489573"><ele>1148.8</ele><time>2026-04-18T11:10:23.999Z</time></trkpt><trkpt lat="42.921662345551816" lon="12.823995376288345"><ele>1150.0</ele><time>2026-04-18T11:10:24.999Z</time></trkpt><trkpt lat="42.92166501097433" lon="12.82412254099569"><ele>1150.0</ele><time>2026-04-18T11:10:25.999Z</time></trkpt><trkpt lat="42.921669616499116" lon="12.82427355207391"><ele>1150.0</ele><time>2026-04-18T11:10:26.999Z</time></trkpt><trkpt lat="42.92167632693408" lon="12.824397529874881"><ele>1150.0</ele><time>2026-04-18T11:10:27.999Z</time></trkpt><trkpt lat="42.92168116487875" lon="12.824518374927983"><ele>1150.0</ele><time>2026-04-18T11:10:28.999Z</time></trkpt><trkpt lat="42.921670146212854" lon="12.824629152547148"><ele>1150.0</ele><time>2026-04-18T11:10:29.999Z</time></trkpt><trkpt lat="42.921638280034095" lon="12.824736572856537"><ele>1151.75</ele><time>2026-04-18T11:10:30.999Z</time></trkpt><trkpt lat="42.921592404766685" lon="12.824854070353723"><ele>1153.5</ele><time>2026-04-18T11:10:31.999Z</time></trkpt><trkpt lat="42.92154267274963" lon="12.824993543582988"><ele>1155.25</ele><time>2026-04-18T11:10:32.999Z</time></trkpt><trkpt lat="42.92148995738374" lon="12.825143605771032"><ele>1157.0</ele><time>2026-04-18T11:10:33.999Z</time></trkpt><trkpt lat="42.921434208037425" lon="12.825301279835118"><ele>1158.6</ele><time>2026-04-18T11:10:34.999Z</time></trkpt><trkpt lat="42.92138122783888" lon="12.825455429097458"><ele>1160.2</ele><time>2026-04-18T11:10:35.999Z</time></trkpt><trkpt lat="42.92134224427534" lon="12.825627915174056"><ele>1161.8</ele><time>2026-04-18T11:10:36.999Z</time></trkpt><trkpt lat="42.92131040380247" lon="12.825756971454656"><ele>1163.4</ele><time>2026-04-18T11:10:37.999Z</time></trkpt><trkpt lat="42.92130223178204" lon="12.825873541701903"><ele>1165.0</ele><time>2026-04-18T11:10:38.999Z</time></trkpt><trkpt lat="42.92128382372779" lon="12.825990770573663"><ele>1165.3333333333333</ele><time>2026-04-18T11:10:39.999Z</time></trkpt><trkpt lat="42.92127256970453" lon="12.826081779013027"><ele>1165.6666666666665</ele><time>2026-04-18T11:10:40.999Z</time></trkpt><trkpt lat="42.92126553272466" lon="12.826172807446135"><ele>1166.0</ele><time>2026-04-18T11:10:41.999Z</time></trkpt><trkpt lat="42.92127082946635" lon="12.826265988084298"><ele>1166.3333333333333</ele><time>2026-04-18T11:10:42.999Z</time></trkpt><trkpt lat="42.92134492548575" lon="12.826415043496015"><ele>1166.6666666666667</ele><time>2026-04-18T11:10:44.999Z</time></trkpt><trkpt lat="42.9214153622239" lon="12.826467129998187"><ele>1167.0</ele><time>2026-04-18T11:10:45.999Z</time></trkpt><trkpt lat="42.921507307875146" lon="12.826490799567507"><ele>1167.0</ele><time>2026-04-18T11:10:46.999Z</time></trkpt><trkpt lat="42.92161562108346" lon="12.826513503167504"><ele>1167.0</ele><time>2026-04-18T11:10:47.999Z</time></trkpt><trkpt lat="42.92174648225076" lon="12.826519483050825"><ele>1167.0</ele><time>2026-04-18T11:10:48.999Z</time></trkpt><trkpt lat="42.92185874419305" lon="12.826470868012864"><ele>1167.0</ele><time>2026-04-18T11:10:49.999Z</time></trkpt><trkpt lat="42.92196976676916" lon="12.826392018133838"><ele>1164.4</ele><time>2026-04-18T11:10:50.999Z</time></trkpt><trkpt lat="42.92206566376126" lon="12.826316559388623"><ele>1161.8000000000002</ele><time>2026-04-18T11:10:51.999Z</time></trkpt><trkpt lat="42.92214447511876" lon="12.826243666311592"><ele>1159.2</ele><time>2026-04-18T11:10:52.999Z</time></trkpt><trkpt lat="42.92221148062548" lon="12.826214007266104"><ele>1156.6000000000001</ele><time>2026-04-18T11:10:53.999Z</time></trkpt><trkpt lat="42.92232373811473" lon="12.826233514270774"><ele>1154.0</ele><time>2026-04-18T11:10:55.999Z</time></trkpt><trkpt lat="42.92238629351453" lon="12.826380731231904"><ele>1154.0</ele><time>2026-04-18T11:10:57.999Z</time></trkpt><trkpt lat="42.9224058563439" lon="12.82650269685071"><ele>1154.0</ele><time>2026-04-18T11:10:58.999Z</time></trkpt><trkpt lat="42.92239433914742" lon="12.826619337462168"><ele>1154.0</ele><time>2026-04-18T11:10:59.999Z</time></trkpt><trkpt lat="42.922401104457165" lon="12.826732946849253"><ele>1154.0</ele><time>2026-04-18T11:11:00.999Z</time></trkpt><trkpt lat="42.92246440876245" lon="12.826795469344251"><ele>1154.0</ele><time>2026-04-18T11:11:02.999Z</time></trkpt><trkpt lat="42.92252494360228" lon="12.826695977638222"><ele>1154.0</ele><time>2026-04-18T11:11:04.999Z</time></trkpt><trkpt lat="42.92257858547859" lon="12.826559751471262"><ele>1154.0</ele><time>2026-04-18T11:11:06.999Z</time></trkpt><trkpt lat="42.92262655788916" lon="12.826386838372368"><ele>1154.0</ele><time>2026-04-18T11:11:08.999Z</time></trkpt><trkpt lat="42.92266435211763" lon="12.82631428627842"><ele>1154.0</ele><time>2026-04-18T11:11:09.999Z</time></trkpt><trkpt lat="42.922684559918956" lon="12.826226071417732"><ele>1154.0</ele><time>2026-04-18T11:11:10.999Z</time></trkpt><trkpt lat="42.92269893354708" lon="12.826105637070683"><ele>1154.0</ele><time>2026-04-18T11:11:11.999Z</time></trkpt><trkpt lat="42.92271899523712" lon="12.825973089741376"><ele>1154.0</ele><time>2026-04-18T11:11:12.999Z</time></trkpt><trkpt lat="42.92276105972343" lon="12.825844560381409"><ele>1154.0</ele><time>2026-04-18T11:11:13.999Z</time></trkpt><trkpt lat="42.92280246505908" lon="12.825743880388044"><ele>1154.0</ele><time>2026-04-18T11:11:14.999Z</time></trkpt><trkpt lat="42.92283802917507" lon="12.825642125775538"><ele>1154.0</ele><time>2026-04-18T11:11:15.999Z</time></trkpt><trkpt lat="42.92287449277377" lon="12.825539163883525"><ele>1154.0</ele><time>2026-04-18T11:11:16.999Z</time></trkpt><trkpt lat="42.92290952871094" lon="12.825454954512997"><ele>1154.0</ele><time>2026-04-18T11:11:17.999Z</time></trkpt><trkpt lat="42.92293688486287" lon="12.825337798020772"><ele>1154.0</ele><time>2026-04-18T11:11:19.999Z</time></trkpt><trkpt lat="42.92296673181078" lon="12.825178414355554"><ele>1154.0</ele><time>2026-04-18T11:11:21.999Z</time></trkpt><trkpt lat="42.923028479963115" lon="12.825098372051217"><ele>1154.0</ele><time>2026-04-18T11:11:22.999Z</time></trkpt><trkpt lat="42.923073402691294" lon="12.825003451815261"><ele>1154.0</ele><time>2026-04-18T11:11:23.999Z</time></trkpt><trkpt lat="42.92309446051666" lon="12.824878160527469"><ele>1154.0</ele><time>2026-04-18T11:11:24.999Z</time></trkpt><trkpt lat="42.923123229749706" lon="12.824735392442667"><ele>1152.0</ele><time>2026-04-18T11:11:25.999Z</time></trkpt><trkpt lat="42.92317091026234" lon="12.824632845500295"><ele>1150.0</ele><time>2026-04-18T11:11:26.999Z</time></trkpt><trkpt lat="42.92322054645912" lon="12.824520211700792"><ele>1148.0</ele><time>2026-04-18T11:11:27.999Z</time></trkpt><trkpt lat="42.92325042229644" lon="12.824416701940716"><ele>1146.0</ele><time>2026-04-18T11:11:28.999Z</time></trkpt><trkpt lat="42.92327399957351" lon="12.824297596113757"><ele>1144.0</ele><time>2026-04-18T11:11:29.999Z</time></trkpt><trkpt lat="42.92329994948754" lon="12.824176522824219"><ele>1142.0</ele><time>2026-04-18T11:11:30.999Z</time></trkpt><trkpt lat="42.9233188454366" lon="12.824056290956147"><ele>1140.7142857142858</ele><time>2026-04-18T11:11:31.999Z</time></trkpt><trkpt lat="42.92334137634656" lon="12.823958041983886"><ele>1139.4285714285713</ele><time>2026-04-18T11:11:33.999Z</time></trkpt><trkpt lat="42.92334292916787" lon="12.823847003783435"><ele>1138.142857142857</ele><time>2026-04-18T11:11:36.999Z</time></trkpt><trkpt lat="42.92334441241419" lon="12.823759646701888"><ele>1136.857142857143</ele><time>2026-04-18T11:11:38.999Z</time></trkpt><trkpt lat="42.92334580326249" lon="12.82367108272539"><ele>1135.5714285714287</ele><time>2026-04-18T11:11:40.999Z</time></trkpt><trkpt lat="42.92336996691811" lon="12.823589410849896"><ele>1134.2857142857142</ele><time>2026-04-18T11:11:43.999Z</time></trkpt><trkpt lat="42.92337412161783" lon="12.823499106401647"><ele>1133.0</ele><time>2026-04-18T11:11:48Z</time></trkpt><trkpt lat="42.92335565581291" lon="12.823408463306686"><ele>1132.857142857143</ele><time>2026-04-18T11:11:52Z</time></trkpt><trkpt lat="42.923332201495384" lon="12.823323415288295"><ele>1132.7142857142858</ele><time>2026-04-18T11:11:57Z</time></trkpt><trkpt lat="42.92337592996873" lon="12.823243283764656"><ele>1132.5714285714287</ele><time>2026-04-18T11:12:01Z</time></trkpt><trkpt lat="42.92343095162177" lon="12.823158282914735"><ele>1132.4285714285716</ele><time>2026-04-18T11:12:05Z</time></trkpt><trkpt lat="42.923441794211314" lon="12.823069798447417"><ele>1132.2857142857144</ele><time>2026-04-18T11:12:09Z</time></trkpt><trkpt lat="42.923447969714125" lon="12.822978004669983"><ele>1132.142857142857</ele><time>2026-04-18T11:12:18Z</time></trkpt><trkpt lat="42.923468332093215" lon="12.822873271103523"><ele>1132.0</ele><time>2026-04-18T11:12:22Z</time></trkpt><trkpt lat="42.92348270599626" lon="12.822767968901053"><ele>1132.0</ele><time>2026-04-18T11:12:25Z</time></trkpt><trkpt lat="42.92347705241731" lon="12.822664966876294"><ele>1132.0</ele><time>2026-04-18T11:12:28Z</time></trkpt><trkpt lat="42.92345018421316" lon="12.822563631645423"><ele>1132.0</ele><time>2026-04-18T11:12:31Z</time></trkpt><trkpt lat="42.923415450125404" lon="12.822486075869579"><ele>1132.0</ele><time>2026-04-18T11:12:32.999Z</time></trkpt><trkpt lat="42.92339258818621" lon="12.822395947637974"><ele>1132.0</ele><time>2026-04-18T11:12:34.999Z</time></trkpt><trkpt lat="42.923356735588165" lon="12.822287476341637"><ele>1132.0</ele><time>2026-04-18T11:12:37.999Z</time></trkpt><trkpt lat="42.92336207157653" lon="12.822175967551159"><ele>1131.3333333333333</ele><time>2026-04-18T11:12:39.999Z</time></trkpt><trkpt lat="42.92335177313147" lon="12.82208643040579"><ele>1130.6666666666665</ele><time>2026-04-18T11:12:41.999Z</time></trkpt><trkpt lat="42.92333025985061" lon="12.821985841505171"><ele>1130.0</ele><time>2026-04-18T11:12:45.999Z</time></trkpt><trkpt lat="42.92330207461189" lon="12.821857949377575"><ele>1129.3333333333333</ele><time>2026-04-18T11:12:48.999Z</time></trkpt><trkpt lat="42.92328965845142" lon="12.821761886924213"><ele>1128.6666666666667</ele><time>2026-04-18T11:12:50.999Z</time></trkpt><trkpt lat="42.92330155051387" lon="12.821667820724972"><ele>1128.0</ele><time>2026-04-18T11:12:52.999Z</time></trkpt><trkpt lat="42.92331289413091" lon="12.82134671857573"><ele>1126.4</ele><time>2026-04-18T11:12:54.999Z</time></trkpt><trkpt lat="42.9233184993542" lon="12.821204102739904"><ele>1124.8</ele><time>2026-04-18T11:12:56.999Z</time></trkpt><trkpt lat="42.923330328843136" lon="12.821106857082256"><ele>1123.2</ele><time>2026-04-18T11:12:57.999Z</time></trkpt><trkpt lat="42.92329925320508" lon="12.820982515408522"><ele>1121.6</ele><time>2026-04-18T11:12:59.999Z</time></trkpt><trkpt lat="42.92324712080103" lon="12.820835741778787"><ele>1120.0</ele><time>2026-04-18T11:13:01.999Z</time></trkpt><trkpt lat="42.92320322018757" lon="12.820744919074945"><ele>1118.6</ele><time>2026-04-18T11:13:03.999Z</time></trkpt><trkpt lat="42.92316205166807" lon="12.820628267418046"><ele>1117.2</ele><time>2026-04-18T11:13:05.999Z</time></trkpt><trkpt lat="42.92312120137435" lon="12.820498351391949"><ele>1115.8</ele><time>2026-04-18T11:13:07.999Z</time></trkpt><trkpt lat="42.92307592643264" lon="12.820367899057153"><ele>1114.4</ele><time>2026-04-18T11:13:09.999Z</time></trkpt><trkpt lat="42.92302553205508" lon="12.820239972807121"><ele>1113.0</ele><time>2026-04-18T11:13:11.999Z</time></trkpt><trkpt lat="42.92300035454452" lon="12.820128690670005"><ele>1112.0</ele><time>2026-04-18T11:13:14.999Z</time></trkpt><trkpt lat="42.922947055902895" lon="12.820039626319941"><ele>1111.0</ele><time>2026-04-18T11:13:17.999Z</time></trkpt><trkpt lat="42.92291122009844" lon="12.81995739754398"><ele>1110.0</ele><time>2026-04-18T11:13:21.999Z</time></trkpt><trkpt lat="42.92289574561595" lon="12.819842870175886"><ele>1109.0</ele><time>2026-04-18T11:13:23.999Z</time></trkpt><trkpt lat="42.92285895881798" lon="12.819755592733435"><ele>1108.0</ele><time>2026-04-18T11:13:25.999Z</time></trkpt><trkpt lat="42.9229357594186" lon="12.819731207594097"><ele>1107.0</ele><time>2026-04-18T11:13:29.999Z</time></trkpt><trkpt lat="42.92290731452093" lon="12.81962917575723"><ele>1107.0</ele><time>2026-04-18T11:13:31.999Z</time></trkpt><trkpt lat="42.922868638685834" lon="12.819539510518416"><ele>1107.0</ele><time>2026-04-18T11:13:33.999Z</time></trkpt><trkpt lat="42.922917676456855" lon="12.819473771074964"><ele>1107.0</ele><time>2026-04-18T11:13:35.999Z</time></trkpt><trkpt lat="42.92285395550693" lon="12.819238538136798"><ele>1107.0</ele><time>2026-04-18T11:13:37.999Z</time></trkpt><trkpt lat="42.92285496852819" lon="12.81912099710383"><ele>1107.0</ele><time>2026-04-18T11:13:39.999Z</time></trkpt><trkpt lat="42.92290942459475" lon="12.819032086357694"><ele>1106.0</ele><time>2026-04-18T11:13:41.999Z</time></trkpt><trkpt lat="42.922924405409674" lon="12.818924304851144"><ele>1105.0</ele><time>2026-04-18T11:13:43.999Z</time></trkpt><trkpt lat="42.922909854805006" lon="12.81879928107594"><ele>1104.0</ele><time>2026-04-18T11:13:45.999Z</time></trkpt><trkpt lat="42.922925910080615" lon="12.818710759326535"><ele>1103.0</ele><time>2026-04-18T11:13:47.999Z</time></trkpt><trkpt lat="42.922951062066986" lon="12.818581781334121"><ele>1102.0</ele><time>2026-04-18T11:13:50.999Z</time></trkpt><trkpt lat="42.92298800747532" lon="12.81847242235285"><ele>1101.0</ele><time>2026-04-18T11:13:53Z</time></trkpt><trkpt lat="42.922995763125456" lon="12.818374441726215"><ele>1099.3333333333333</ele><time>2026-04-18T11:13:56Z</time></trkpt><trkpt lat="42.92301387922841" lon="12.818265325449303"><ele>1097.6666666666667</ele><time>2026-04-18T11:14:21Z</time></trkpt><trkpt lat="42.92304983951026" lon="12.818171854199434"><ele>1096.0</ele><time>2026-04-18T11:14:27Z</time></trkpt><trkpt lat="42.92304321251096" lon="12.818066041038277"><ele>1094.3333333333335</ele><time>2026-04-18T11:14:29Z</time></trkpt><trkpt lat="42.92305633924779" lon="12.817953699364933"><ele>1092.6666666666667</ele><time>2026-04-18T11:14:32Z</time></trkpt><trkpt lat="42.92306341789079" lon="12.817856131139955"><ele>1091.0</ele><time>2026-04-18T11:14:35Z</time></trkpt><trkpt lat="42.92311381171619" lon="12.81772403884101"><ele>1089.8333333333335</ele><time>2026-04-18T11:14:38Z</time></trkpt><trkpt lat="42.92314976481666" lon="12.817600163760297"><ele>1088.6666666666667</ele><time>2026-04-18T11:14:39.999Z</time></trkpt><trkpt lat="42.92315252243029" lon="12.817509574987351"><ele>1087.5</ele><time>2026-04-18T11:14:41.999Z</time></trkpt><trkpt lat="42.92315702570371" lon="12.817404233942126"><ele>1086.3333333333333</ele><time>2026-04-18T11:14:43.999Z</time></trkpt><trkpt lat="42.92318565073228" lon="12.817319710957056"><ele>1085.1666666666665</ele><time>2026-04-18T11:14:45.999Z</time></trkpt><trkpt lat="42.923200169188085" lon="12.81720493198921"><ele>1084.0</ele><time>2026-04-18T11:14:47.999Z</time></trkpt><trkpt lat="42.9231967937695" lon="12.817106745266312"><ele>1084.0</ele><time>2026-04-18T11:14:49.999Z</time></trkpt><trkpt lat="42.923192770701064" lon="12.817008038229384"><ele>1084.0</ele><time>2026-04-18T11:14:51.999Z</time></trkpt><trkpt lat="42.92321071773893" lon="12.816917414032783"><ele>1084.0</ele><time>2026-04-18T11:14:53.999Z</time></trkpt><trkpt lat="42.9232731841238" lon="12.816839820848923"><ele>1084.0</ele><time>2026-04-18T11:14:55.999Z</time></trkpt><trkpt lat="42.92331498080728" lon="12.816717956055248"><ele>1084.0</ele><time>2026-04-18T11:14:58.999Z</time></trkpt><trkpt lat="42.9233208967067" lon="12.816626060699624"><ele>1084.0</ele><time>2026-04-18T11:15:00.999Z</time></trkpt><trkpt lat="42.92334126474662" lon="12.816539544806993"><ele>1084.8333333333333</ele><time>2026-04-18T11:15:03.999Z</time></trkpt><trkpt lat="42.92336263600159" lon="12.816452530784996"><ele>1085.6666666666665</ele><time>2026-04-18T11:15:05.999Z</time></trkpt><trkpt lat="42.92334711474888" lon="12.81636233070659"><ele>1086.5</ele><time>2026-04-18T11:15:10.999Z</time></trkpt><trkpt lat="42.923360553743585" lon="12.816261140613939"><ele>1087.3333333333333</ele><time>2026-04-18T11:15:12.999Z</time></trkpt><trkpt lat="42.923367505325295" lon="12.816124735679507"><ele>1088.1666666666667</ele><time>2026-04-18T11:15:14.999Z</time></trkpt><trkpt lat="42.92339800575761" lon="12.815993785580952"><ele>1089.0</ele><time>2026-04-18T11:15:16.999Z</time></trkpt><trkpt lat="42.923442872014334" lon="12.815858494610247"><ele>1089.0</ele><time>2026-04-18T11:15:18.999Z</time></trkpt><trkpt lat="42.92345812113902" lon="12.815730974852835"><ele>1089.0</ele><time>2026-04-18T11:15:20.999Z</time></trkpt><trkpt lat="42.92344375301568" lon="12.815578590099314"><ele>1089.0</ele><time>2026-04-18T11:15:22.999Z</time></trkpt><trkpt lat="42.923480033631286" lon="12.815480461942768"><ele>1089.0</ele><time>2026-04-18T11:15:24.999Z</time></trkpt><trkpt lat="42.923483650143844" lon="12.815391755288227"><ele>1089.0</ele><time>2026-04-18T11:15:25.999Z</time></trkpt><trkpt lat="42.92347266883067" lon="12.815295250575193"><ele>1089.0</ele><time>2026-04-18T11:15:27.999Z</time></trkpt><trkpt lat="42.923457741669544" lon="12.815169963163392"><ele>1086.5</ele><time>2026-04-18T11:15:30.999Z</time></trkpt><trkpt lat="42.92344799497554" lon="12.81508027744959"><ele>1084.0</ele><time>2026-04-18T11:15:32.999Z</time></trkpt><trkpt lat="42.923467895303695" lon="12.814991022850165"><ele>1081.5</ele><time>2026-04-18T11:15:35.999Z</time></trkpt><trkpt lat="42.92350034708316" lon="12.814851056748031"><ele>1079.0</ele><time>2026-04-18T11:15:37.999Z</time></trkpt><trkpt lat="42.9234530294391" lon="12.814763255057695"><ele>1076.5</ele><time>2026-04-18T11:15:39.999Z</time></trkpt><trkpt lat="42.92339337903331" lon="12.814640532583745"><ele>1074.0</ele><time>2026-04-18T11:15:41.999Z</time></trkpt><trkpt lat="42.923368811795434" lon="12.814551004010358"><ele>1074.0</ele><time>2026-04-18T11:15:43.999Z</time></trkpt><trkpt lat="42.92337033893545" lon="12.814451878972267"><ele>1074.0</ele><time>2026-04-18T11:15:45.999Z</time></trkpt><trkpt lat="42.923411684632306" lon="12.814335060785238"><ele>1074.0</ele><time>2026-04-18T11:15:48.999Z</time></trkpt><trkpt lat="42.92340210779735" lon="12.814245656460233"><ele>1074.0</ele><time>2026-04-18T11:15:51.999Z</time></trkpt><trkpt lat="42.92334220179966" lon="12.814144274861562"><ele>1074.0</ele><time>2026-04-18T11:15:54.999Z</time></trkpt><trkpt lat="42.923321064954735" lon="12.814009376302291"><ele>1074.0</ele><time>2026-04-18T11:15:56.999Z</time></trkpt><trkpt lat="42.92332822513771" lon="12.813907985185825"><ele>1070.2</ele><time>2026-04-18T11:15:59Z</time></trkpt><trkpt lat="42.92330960046015" lon="12.81381305927255"><ele>1066.4</ele><time>2026-04-18T11:16:01Z</time></trkpt><trkpt lat="42.92329853731501" lon="12.813653467236284"><ele>1062.6</ele><time>2026-04-18T11:16:03Z</time></trkpt><trkpt lat="42.92333093080232" lon="12.813506680272639"><ele>1058.8</ele><time>2026-04-18T11:16:05Z</time></trkpt><trkpt lat="42.923339070029066" lon="12.813409670769545"><ele>1055.0</ele><time>2026-04-18T11:16:07Z</time></trkpt><trkpt lat="42.923389994355674" lon="12.813291568161635"><ele>1054.5</ele><time>2026-04-18T11:16:10Z</time></trkpt><trkpt lat="42.92342370578171" lon="12.81316242342789"><ele>1054.0</ele><time>2026-04-18T11:16:13Z</time></trkpt><trkpt lat="42.923474431993064" lon="12.81290988893787"><ele>1053.5</ele><time>2026-04-18T11:16:15Z</time></trkpt><trkpt lat="42.92351177262441" lon="12.812767198506869"><ele>1053.0</ele><time>2026-04-18T11:16:17Z</time></trkpt><trkpt lat="42.923548917109215" lon="12.812680473809436"><ele>1050.6666666666667</ele><time>2026-04-18T11:16:19Z</time></trkpt><trkpt lat="42.92358516839813" lon="12.812606830548907"><ele>1048.3333333333333</ele><time>2026-04-18T11:16:22Z</time></trkpt><trkpt lat="42.92366757795401" lon="12.81256461018649"><ele>1046.0</ele><time>2026-04-18T11:16:25Z</time></trkpt><trkpt lat="42.92367436144954" lon="12.81246773026819"><ele>1043.6666666666665</ele><time>2026-04-18T11:16:28Z</time></trkpt><trkpt lat="42.92368792701779" lon="12.812352950016555"><ele>1041.3333333333333</ele><time>2026-04-18T11:16:31Z</time></trkpt><trkpt lat="42.92376850736343" lon="12.81225543577986"><ele>1039.0</ele><time>2026-04-18T11:16:35Z</time></trkpt><trkpt lat="42.9238100713614" lon="12.812133265361986"><ele>1039.0</ele><time>2026-04-18T11:16:37Z</time></trkpt><trkpt lat="42.92387355671385" lon="12.811991092569714"><ele>1039.0</ele><time>2026-04-18T11:16:39Z</time></trkpt><trkpt lat="42.92397466369588" lon="12.811918606774876"><ele>1039.0</ele><time>2026-04-18T11:16:41Z</time></trkpt><trkpt lat="42.92408624559975" lon="12.811887594539133"><ele>1039.0</ele><time>2026-04-18T11:16:43Z</time></trkpt><trkpt lat="42.92415549535144" lon="12.811817496092957"><ele>1039.0</ele><time>2026-04-18T11:16:45Z</time></trkpt><trkpt lat="42.92423226428568" lon="12.811774111116824"><ele>1037.5</ele><time>2026-04-18T11:16:47Z</time></trkpt><trkpt lat="42.92433638019169" lon="12.811781459703097"><ele>1036.0</ele><time>2026-04-18T11:16:48.999Z</time></trkpt><trkpt lat="42.924429180877304" lon="12.81175699812924"><ele>1034.5</ele><time>2026-04-18T11:16:50.999Z</time></trkpt><trkpt lat="42.924491225351" lon="12.811723133738328"><ele>1033.0</ele><time>2026-04-18T11:16:51.999Z</time></trkpt><trkpt lat="42.9245584370255" lon="12.811666129302818"><ele>1031.5</ele><time>2026-04-18T11:16:52.999Z</time></trkpt><trkpt lat="42.92465092221989" lon="12.811628557019066"><ele>1030.0</ele><time>2026-04-18T11:16:53.999Z</time></trkpt><trkpt lat="42.924747083673005" lon="12.811650902003034"><ele>1030.0</ele><time>2026-04-18T11:16:55.999Z</time></trkpt><trkpt lat="42.92482199982148" lon="12.81166756636978"><ele>1030.0</ele><time>2026-04-18T11:16:57.999Z</time></trkpt><trkpt lat="42.92489408188573" lon="12.811656321850835"><ele>1030.0</ele><time>2026-04-18T11:16:59.999Z</time></trkpt><trkpt lat="42.92497361633869" lon="12.8116213499496"><ele>1030.0</ele><time>2026-04-18T11:17:01.999Z</time></trkpt><trkpt lat="42.925036415852496" lon="12.811581187495916"><ele>1030.0</ele><time>2026-04-18T11:17:03.999Z</time></trkpt><trkpt lat="42.92509502921014" lon="12.811637070969429"><ele>1030.0</ele><time>2026-04-18T11:17:06.999Z</time></trkpt><trkpt lat="42.92517719145126" lon="12.81160399610306"><ele>1029.3333333333333</ele><time>2026-04-18T11:17:11.999Z</time></trkpt><trkpt lat="42.925238890334825" lon="12.811664425275138"><ele>1028.6666666666665</ele><time>2026-04-18T11:17:16.999Z</time></trkpt><trkpt lat="42.92530713243223" lon="12.811633346967271"><ele>1028.0</ele><time>2026-04-18T11:17:18.999Z</time></trkpt><trkpt lat="42.925380184931974" lon="12.811609537725689"><ele>1027.3333333333333</ele><time>2026-04-18T11:17:19.999Z</time></trkpt><trkpt lat="42.92546274620102" lon="12.811648811023444"><ele>1026.6666666666667</ele><time>2026-04-18T11:17:21.999Z</time></trkpt><trkpt lat="42.92555824150589" lon="12.811698427761858"><ele>1026.0</ele><time>2026-04-18T11:17:23.999Z</time></trkpt><trkpt lat="42.925663361750914" lon="12.811731172854767"><ele>1026.0</ele><time>2026-04-18T11:17:25.999Z</time></trkpt><trkpt lat="42.92577455522272" lon="12.811713957611158"><ele>1026.0</ele><time>2026-04-18T11:17:27.999Z</time></trkpt><trkpt lat="42.92586265918689" lon="12.811724297861856"><ele>1026.0</ele><time>2026-04-18T11:17:29.999Z</time></trkpt><trkpt lat="42.925924818018004" lon="12.811795563310133"><ele>1026.0</ele><time>2026-04-18T11:17:31.999Z</time></trkpt><trkpt lat="42.926001723261415" lon="12.811821633934585"><ele>1026.0</ele><time>2026-04-18T11:17:33.999Z</time></trkpt><trkpt lat="42.92609612560797" lon="12.811850406945148"><ele>1024.8333333333333</ele><time>2026-04-18T11:17:36.999Z</time></trkpt><trkpt lat="42.926177370178074" lon="12.811880996487604"><ele>1023.6666666666667</ele><time>2026-04-18T11:17:38.999Z</time></trkpt><trkpt lat="42.92626076949943" lon="12.811904920684164"><ele>1022.5</ele><time>2026-04-18T11:17:41.999Z</time></trkpt><trkpt lat="42.92633039228437" lon="12.811948924966462"><ele>1021.3333333333334</ele><time>2026-04-18T11:17:43.999Z</time></trkpt><trkpt lat="42.926400146242976" lon="12.811962724179159"><ele>1020.1666666666667</ele><time>2026-04-18T11:17:45.999Z</time></trkpt><trkpt lat="42.9264353535292" lon="12.81203797677898"><ele>1019.0</ele><time>2026-04-18T11:17:51.999Z</time></trkpt><trkpt lat="42.92651297874394" lon="12.812086338679142"><ele>1019.0000000000001</ele><time>2026-04-18T11:17:56.999Z</time></trkpt><trkpt lat="42.92657982487687" lon="12.812089304951986"><ele>1019.0</ele><time>2026-04-18T11:18:00.999Z</time></trkpt><trkpt lat="42.92664390985764" lon="12.812127622586711"><ele>1019.0</ele><time>2026-04-18T11:18:02.999Z</time></trkpt><trkpt lat="42.92670393091145" lon="12.81216788814413"><ele>1019.0</ele><time>2026-04-18T11:18:06Z</time></trkpt><trkpt lat="42.92676439949901" lon="12.81220972803893"><ele>1019.0000000000001</ele><time>2026-04-18T11:18:08Z</time></trkpt><trkpt lat="42.92683689826186" lon="12.812277232767896"><ele>1019.0</ele><time>2026-04-18T11:18:11Z</time></trkpt><trkpt lat="42.92689854198815" lon="12.81236750542241"><ele>1019.1666666666667</ele><time>2026-04-18T11:18:14Z</time></trkpt><trkpt lat="42.92696055241876" lon="12.812466359717494"><ele>1019.3333333333334</ele><time>2026-04-18T11:18:16Z</time></trkpt><trkpt lat="42.92700231865823" lon="12.812561155000049"><ele>1019.5</ele><time>2026-04-18T11:18:18Z</time></trkpt><trkpt lat="42.92706406507893" lon="12.812608172011226"><ele>1019.6666666666667</ele><time>2026-04-18T11:18:20Z</time></trkpt><trkpt lat="42.92716300556351" lon="12.812679085038704"><ele>1019.8333333333334</ele><time>2026-04-18T11:18:24Z</time></trkpt><trkpt lat="42.927217110487454" lon="12.812749982389127"><ele>1020.0</ele><time>2026-04-18T11:18:26Z</time></trkpt><trkpt lat="42.92723142713611" lon="12.812842806507735"><ele>1016.1666666666666</ele><time>2026-04-18T11:18:28Z</time></trkpt><trkpt lat="42.9272942137014" lon="12.812901942701611"><ele>1012.3333333333333</ele><time>2026-04-18T11:18:30Z</time></trkpt><trkpt lat="42.927336269752175" lon="12.812998700855083"><ele>1008.5</ele><time>2026-04-18T11:18:32Z</time></trkpt><trkpt lat="42.927408257812935" lon="12.81306787235712"><ele>1004.6666666666666</ele><time>2026-04-18T11:18:35Z</time></trkpt><trkpt lat="42.92746936459585" lon="12.81310683319624"><ele>1000.8333333333333</ele><time>2026-04-18T11:18:37Z</time></trkpt><trkpt lat="42.92753727429569" lon="12.813160611329286"><ele>997.0</ele><time>2026-04-18T11:18:39Z</time></trkpt><trkpt lat="42.92755234606305" lon="12.813248006948399"><ele>995.6666666666666</ele><time>2026-04-18T11:18:41Z</time></trkpt><trkpt lat="42.92761401078576" lon="12.813313905373658"><ele>994.3333333333333</ele><time>2026-04-18T11:18:43Z</time></trkpt><trkpt lat="42.9276878011985" lon="12.813359666996625"><ele>993.0</ele><time>2026-04-18T11:18:45Z</time></trkpt><trkpt lat="42.927750988164654" lon="12.813453145575922"><ele>991.6666666666667</ele><time>2026-04-18T11:18:47Z</time></trkpt><trkpt lat="42.92783715720671" lon="12.813519298735294"><ele>990.3333333333334</ele><time>2026-04-18T11:18:49Z</time></trkpt><trkpt lat="42.92790813271283" lon="12.813606481600985"><ele>989.0</ele><time>2026-04-18T11:18:51Z</time></trkpt><trkpt lat="42.92790095553093" lon="12.813708249786988"><ele>989.0000000000001</ele><time>2026-04-18T11:18:53Z</time></trkpt><trkpt lat="42.92787610221587" lon="12.813805060988042"><ele>989.0</ele><time>2026-04-18T11:18:55Z</time></trkpt><trkpt lat="42.92796176903113" lon="12.813882338360221"><ele>989.0</ele><time>2026-04-18T11:18:57Z</time></trkpt><trkpt lat="42.92801034883456" lon="12.813939062844339"><ele>989.0</ele><time>2026-04-18T11:18:58Z</time></trkpt><trkpt lat="42.92807975155957" lon="12.814046514958358"><ele>989.0000000000001</ele><time>2026-04-18T11:19:01Z</time></trkpt><trkpt lat="42.928143105244665" lon="12.814095175546935"><ele>989.0</ele><time>2026-04-18T11:19:02.999Z</time></trkpt><trkpt lat="42.928219246615946" lon="12.814122190098084"><ele>989.0</ele><time>2026-04-18T11:19:04.999Z</time></trkpt><trkpt lat="42.92826776817226" lon="12.814196126173012"><ele>989.0000000000001</ele><time>2026-04-18T11:19:06.999Z</time></trkpt><trkpt lat="42.92835546950305" lon="12.814261271101632"><ele>989.0000000000001</ele><time>2026-04-18T11:19:07.999Z</time></trkpt><trkpt lat="42.928387989996985" lon="12.814391256977277"><ele>989.0</ele><time>2026-04-18T11:19:10.999Z</time></trkpt><trkpt lat="42.92846700494565" lon="12.814460648485532"><ele>989.0</ele><time>2026-04-18T11:19:12.999Z</time></trkpt><trkpt lat="42.928554122028395" lon="12.81451963889676"><ele>987.4000000000001</ele><time>2026-04-18T11:19:14.999Z</time></trkpt><trkpt lat="42.928621083261504" lon="12.81455372983249"><ele>985.8000000000001</ele><time>2026-04-18T11:19:15.999Z</time></trkpt><trkpt lat="42.92872094795522" lon="12.814646224147966"><ele>984.1999999999999</ele><time>2026-04-18T11:19:17.999Z</time></trkpt><trkpt lat="42.92877932761483" lon="12.814787042823776"><ele>982.5999999999999</ele><time>2026-04-18T11:19:19.999Z</time></trkpt><trkpt lat="42.92882307304488" lon="12.814880919419245"><ele>981.0</ele><time>2026-04-18T11:19:21.999Z</time></trkpt><trkpt lat="42.92891686596268" lon="12.814927196140173"><ele>981.0</ele><time>2026-04-18T11:19:23.999Z</time></trkpt><trkpt lat="42.92901477918519" lon="12.814998962483976"><ele>980.9999999999999</ele><time>2026-04-18T11:19:25.999Z</time></trkpt><trkpt lat="42.92907251114866" lon="12.815070986034518"><ele>980.9999999999999</ele><time>2026-04-18T11:19:26.999Z</time></trkpt><trkpt lat="42.929162160262514" lon="12.81515231364267"><ele>981.0</ele><time>2026-04-18T11:19:27.999Z</time></trkpt><trkpt lat="42.92922788247364" lon="12.815245529486353"><ele>981.0</ele><time>2026-04-18T11:19:28.999Z</time></trkpt><trkpt lat="42.92931964840396" lon="12.81534089958536"><ele>978.5</ele><time>2026-04-18T11:19:30.999Z</time></trkpt><trkpt lat="42.929390635324616" lon="12.815392367518443"><ele>976.0</ele><time>2026-04-18T11:19:31.999Z</time></trkpt><trkpt lat="42.929457674655715" lon="12.815448536033967"><ele>973.5</ele><time>2026-04-18T11:19:32.999Z</time></trkpt><trkpt lat="42.929509888885946" lon="12.815503939373688"><ele>971.0</ele><time>2026-04-18T11:19:33.999Z</time></trkpt><trkpt lat="42.92958022701148" lon="12.8155665619152"><ele>968.5</ele><time>2026-04-18T11:19:34.999Z</time></trkpt><trkpt lat="42.92962234463927" lon="12.815649148263715"><ele>966.0</ele><time>2026-04-18T11:19:36.999Z</time></trkpt><trkpt lat="42.92964819735538" lon="12.815740927078703"><ele>966.0</ele><time>2026-04-18T11:19:38.999Z</time></trkpt><trkpt lat="42.92972555746274" lon="12.815853574534563"><ele>966.0</ele><time>2026-04-18T11:19:40.999Z</time></trkpt><trkpt lat="42.92978493849407" lon="12.815896426191603"><ele>966.0</ele><time>2026-04-18T11:19:41.999Z</time></trkpt><trkpt lat="42.92984962386814" lon="12.815919622915152"><ele>966.0</ele><time>2026-04-18T11:19:42.999Z</time></trkpt><trkpt lat="42.929901230117416" lon="12.815984969269179"><ele>966.0</ele><time>2026-04-18T11:19:43.999Z</time></trkpt><trkpt lat="42.929933667152945" lon="12.816102727474297"><ele>966.0</ele><time>2026-04-18T11:19:44.999Z</time></trkpt><trkpt lat="42.92997050054532" lon="12.816230331223405"><ele>965.7142857142858</ele><time>2026-04-18T11:19:45.999Z</time></trkpt><trkpt lat="42.929994031428194" lon="12.816323545420945"><ele>965.4285714285714</ele><time>2026-04-18T11:19:46.999Z</time></trkpt><trkpt lat="42.93000033532345" lon="12.816440513603409"><ele>965.1428571428571</ele><time>2026-04-18T11:19:47.999Z</time></trkpt><trkpt lat="42.93000534107958" lon="12.816547599548601"><ele>964.8571428571429</ele><time>2026-04-18T11:19:48.999Z</time></trkpt><trkpt lat="42.93004722131911" lon="12.816628785449527"><ele>964.5714285714287</ele><time>2026-04-18T11:19:50.999Z</time></trkpt><trkpt lat="42.93011871831247" lon="12.816658083543805"><ele>964.2857142857143</ele><time>2026-04-18T11:19:53.999Z</time></trkpt><trkpt lat="42.93015951076984" lon="12.81672615221467"><ele>964.0</ele><time>2026-04-18T11:19:54.999Z</time></trkpt><trkpt lat="42.93020980791855" lon="12.816810826574631"><ele>962.8333333333333</ele><time>2026-04-18T11:19:55.999Z</time></trkpt><trkpt lat="42.93026783191345" lon="12.816899703858944"><ele>961.6666666666666</ele><time>2026-04-18T11:19:56.999Z</time></trkpt><trkpt lat="42.930322634167496" lon="12.817014461736143"><ele>960.5</ele><time>2026-04-18T11:19:57.999Z</time></trkpt><trkpt lat="42.930353361243164" lon="12.81709911023601"><ele>959.3333333333333</ele><time>2026-04-18T11:19:58.999Z</time></trkpt><trkpt lat="42.9303286800301" lon="12.817200808217027"><ele>958.1666666666666</ele><time>2026-04-18T11:20:00.999Z</time></trkpt><trkpt lat="42.93026344146908" lon="12.817258771484676"><ele>957.0</ele><time>2026-04-18T11:20:01.999Z</time></trkpt><trkpt lat="42.93024334154998" lon="12.817419356332389"><ele>957.0</ele><time>2026-04-18T11:20:03.999Z</time></trkpt><trkpt lat="42.93024464632699" lon="12.817539142945058"><ele>957.0</ele><time>2026-04-18T11:20:04.999Z</time></trkpt><trkpt lat="42.930224861342666" lon="12.81766014210564"><ele>957.0</ele><time>2026-04-18T11:20:05.999Z</time></trkpt><trkpt lat="42.93024066956403" lon="12.817750145104256"><ele>957.0</ele><time>2026-04-18T11:20:06.999Z</time></trkpt><trkpt lat="42.93030523871221" lon="12.817826788619541"><ele>957.0</ele><time>2026-04-18T11:20:07.999Z</time></trkpt><trkpt lat="42.930399778602414" lon="12.81788053640644"><ele>957.0</ele><time>2026-04-18T11:20:08.999Z</time></trkpt><trkpt lat="42.93049541461004" lon="12.81792366790615"><ele>958.8</ele><time>2026-04-18T11:20:10Z</time></trkpt><trkpt lat="42.93058121489544" lon="12.817985035658209"><ele>960.6</ele><time>2026-04-18T11:20:11Z</time></trkpt><trkpt lat="42.93065648522663" lon="12.818094564425138"><ele>962.3999999999999</ele><time>2026-04-18T11:20:12Z</time></trkpt><trkpt lat="42.930731900734834" lon="12.818215757191432"><ele>964.1999999999999</ele><time>2026-04-18T11:20:13Z</time></trkpt><trkpt lat="42.93078964373686" lon="12.818291318091529"><ele>966.0</ele><time>2026-04-18T11:20:14Z</time></trkpt><trkpt lat="42.93087969301494" lon="12.818227985777755"><ele>964.75</ele><time>2026-04-18T11:20:16Z</time></trkpt><trkpt lat="42.930968883118844" lon="12.818205446970005"><ele>963.5</ele><time>2026-04-18T11:20:17Z</time></trkpt><trkpt lat="42.93107727781054" lon="12.81820239320889"><ele>962.25</ele><time>2026-04-18T11:20:18Z</time></trkpt><trkpt lat="42.93122874414133" lon="12.818183435555984"><ele>961.0</ele><time>2026-04-18T11:20:19Z</time></trkpt><trkpt lat="42.93137200605994" lon="12.818133643525416"><ele>960.9999999999999</ele><time>2026-04-18T11:20:20Z</time></trkpt><trkpt lat="42.93147567083632" lon="12.818111316308233"><ele>961.0</ele><time>2026-04-18T11:20:21Z</time></trkpt><trkpt lat="42.931563439260266" lon="12.818143729978154"><ele>961.0</ele><time>2026-04-18T11:20:22Z</time></trkpt><trkpt lat="42.9316241651323" lon="12.818185313014903"><ele>961.0</ele><time>2026-04-18T11:20:23Z</time></trkpt><trkpt lat="42.93166596383746" lon="12.818266438714012"><ele>960.9999999999999</ele><time>2026-04-18T11:20:24Z</time></trkpt><trkpt lat="42.93173854325416" lon="12.818372215452051"><ele>961.0</ele><time>2026-04-18T11:20:26Z</time></trkpt><trkpt lat="42.93182214115418" lon="12.818382701910362"><ele>959.0</ele><time>2026-04-18T11:20:27Z</time></trkpt><trkpt lat="42.931915966848536" lon="12.818396269191418"><ele>956.9999999999999</ele><time>2026-04-18T11:20:28Z</time></trkpt><trkpt lat="42.93201282992123" lon="12.8183901410641"><ele>954.9999999999999</ele><time>2026-04-18T11:20:29Z</time></trkpt><trkpt lat="42.93211589018262" lon="12.81837340950709"><ele>953.0</ele><time>2026-04-18T11:20:30Z</time></trkpt><trkpt lat="42.93222601610675" lon="12.81834337747475"><ele>951.0</ele><time>2026-04-18T11:20:31Z</time></trkpt><trkpt lat="42.9323246538836" lon="12.81832309306"><ele>951.0</ele><time>2026-04-18T11:20:32Z</time></trkpt><trkpt lat="42.93240250784026" lon="12.818303606048522"><ele>950.9999999999999</ele><time>2026-04-18T11:20:33Z</time></trkpt><trkpt lat="42.932449905883225" lon="12.81824649525068"><ele>950.9999999999999</ele><time>2026-04-18T11:20:34Z</time></trkpt><trkpt lat="42.932509687496434" lon="12.81814745607596"><ele>951.0</ele><time>2026-04-18T11:20:35Z</time></trkpt><trkpt lat="42.93257299073037" lon="12.818047602832673"><ele>951.0</ele><time>2026-04-18T11:20:36Z</time></trkpt><trkpt lat="42.93265603824164" lon="12.817934677586651"><ele>950.1999999999999</ele><time>2026-04-18T11:20:37Z</time></trkpt><trkpt lat="42.93272709926536" lon="12.817846162943999"><ele>949.3999999999999</ele><time>2026-04-18T11:20:38Z</time></trkpt><trkpt lat="42.932812384626" lon="12.8177706504469"><ele>948.6</ele><time>2026-04-18T11:20:39Z</time></trkpt><trkpt lat="42.932900423374825" lon="12.817735987098274"><ele>947.8</ele><time>2026-04-18T11:20:40Z</time></trkpt><trkpt lat="42.93300006385039" lon="12.81770573515812"><ele>947.0</ele><time>2026-04-18T11:20:41Z</time></trkpt><trkpt lat="42.93310566768038" lon="12.817692672214983"><ele>947.0</ele><time>2026-04-18T11:20:42Z</time></trkpt><trkpt lat="42.93321143974899" lon="12.817675057593874"><ele>947.0</ele><time>2026-04-18T11:20:43Z</time></trkpt><trkpt lat="42.933329824065595" lon="12.817626419362869"><ele>947.0</ele><time>2026-04-18T11:20:44Z</time></trkpt><trkpt lat="42.93345236048967" lon="12.81757848722778"><ele>947.0</ele><time>2026-04-18T11:20:45Z</time></trkpt><trkpt lat="42.93354653003177" lon="12.817522678497657"><ele>944.6</ele><time>2026-04-18T11:20:46Z</time></trkpt><trkpt lat="42.933653293996315" lon="12.817466629046722"><ele>942.2</ele><time>2026-04-18T11:20:47Z</time></trkpt><trkpt lat="42.93375619108424" lon="12.81743452258207"><ele>939.8</ele><time>2026-04-18T11:20:48Z</time></trkpt><trkpt lat="42.93384270137897" lon="12.817408625312009"><ele>937.4</ele><time>2026-04-18T11:20:49Z</time></trkpt><trkpt lat="42.93393450060379" lon="12.81738258476448"><ele>935.0</ele><time>2026-04-18T11:20:50Z</time></trkpt><trkpt lat="42.93404623321406" lon="12.817350225700125"><ele>935.0</ele><time>2026-04-18T11:20:51Z</time></trkpt><trkpt lat="42.93413955091245" lon="12.817334520050508"><ele>935.0</ele><time>2026-04-18T11:20:52Z</time></trkpt><trkpt lat="42.93421287298116" lon="12.817320978458085"><ele>935.0</ele><time>2026-04-18T11:20:53Z</time></trkpt><trkpt lat="42.934302670836686" lon="12.817286998120277"><ele>935.0</ele><time>2026-04-18T11:20:55Z</time></trkpt><trkpt lat="42.93438292374075" lon="12.81736686392278"><ele>935.0</ele><time>2026-04-18T11:20:57Z</time></trkpt><trkpt lat="42.934438417630155" lon="12.81747771518336"><ele>934.8333333333334</ele><time>2026-04-18T11:20:58Z</time></trkpt><trkpt lat="42.934524745449195" lon="12.817564856455244"><ele>934.6666666666667</ele><time>2026-04-18T11:20:59Z</time></trkpt><trkpt lat="42.93461596683734" lon="12.81759843711323"><ele>934.5</ele><time>2026-04-18T11:21:00Z</time></trkpt><trkpt lat="42.934691424332264" lon="12.817607038632735"><ele>934.3333333333333</ele><time>2026-04-18T11:21:01Z</time></trkpt><trkpt lat="42.934757014084745" lon="12.817616143882697"><ele>934.1666666666666</ele><time>2026-04-18T11:21:02Z</time></trkpt><trkpt lat="42.93484117144041" lon="12.81768858981165"><ele>934.0</ele><time>2026-04-18T11:21:04Z</time></trkpt><trkpt lat="42.934881856127994" lon="12.817776818108587"><ele>937.6666666666666</ele><time>2026-04-18T11:21:05Z</time></trkpt><trkpt lat="42.93495440925998" lon="12.817823774252512"><ele>941.3333333333333</ele><time>2026-04-18T11:21:06Z</time></trkpt><trkpt lat="42.93504717339967" lon="12.817858722534568"><ele>945.0</ele><time>2026-04-18T11:21:07Z</time></trkpt><trkpt lat="42.9351328123998" lon="12.817881838121307"><ele>948.6666666666667</ele><time>2026-04-18T11:21:08Z</time></trkpt><trkpt lat="42.93520302730327" lon="12.817900013145135"><ele>952.3333333333334</ele><time>2026-04-18T11:21:09Z</time></trkpt><trkpt lat="42.935288677204575" lon="12.817908511346484"><ele>956.0</ele><time>2026-04-18T11:21:10Z</time></trkpt><trkpt lat="42.935365483900526" lon="12.817940456582642"><ele>956.6666666666667</ele><time>2026-04-18T11:21:11Z</time></trkpt><trkpt lat="42.935434749341894" lon="12.818006714296496"><ele>957.3333333333334</ele><time>2026-04-18T11:21:12Z</time></trkpt><trkpt lat="42.93551337217767" lon="12.818041863732395"><ele>958.0</ele><time>2026-04-18T11:21:13Z</time></trkpt><trkpt lat="42.935604213098664" lon="12.818076010503763"><ele>958.6666666666667</ele><time>2026-04-18T11:21:13.999Z</time></trkpt><trkpt lat="42.9356862507315" lon="12.818110027613779"><ele>959.3333333333334</ele><time>2026-04-18T11:21:14.999Z</time></trkpt><trkpt lat="42.935750763770926" lon="12.818154236721284"><ele>960.0</ele><time>2026-04-18T11:21:15.999Z</time></trkpt><trkpt lat="42.93581266472591" lon="12.818224902654466"><ele>960.0</ele><time>2026-04-18T11:21:16.999Z</time></trkpt><trkpt lat="42.93586778053317" lon="12.81831937727938"><ele>960.0</ele><time>2026-04-18T11:21:17.999Z</time></trkpt><trkpt lat="42.93592924511112" lon="12.818417930216977"><ele>960.0</ele><time>2026-04-18T11:21:18.999Z</time></trkpt><trkpt lat="42.93601575528639" lon="12.818510204570456"><ele>960.0</ele><time>2026-04-18T11:21:19.999Z</time></trkpt><trkpt lat="42.936110794079305" lon="12.818612573107242"><ele>960.0</ele><time>2026-04-18T11:21:20.999Z</time></trkpt><trkpt lat="42.936189077365704" lon="12.818694465190537"><ele>963.6666666666666</ele><time>2026-04-18T11:21:21.999Z</time></trkpt><trkpt lat="42.936264490427206" lon="12.8187754752467"><ele>967.3333333333333</ele><time>2026-04-18T11:21:22.999Z</time></trkpt><trkpt lat="42.93632001418085" lon="12.818843882580222"><ele>971.0</ele><time>2026-04-18T11:21:23.999Z</time></trkpt><trkpt lat="42.93637562396672" lon="12.818938722276096"><ele>974.6666666666666</ele><time>2026-04-18T11:21:24.999Z</time></trkpt><trkpt lat="42.936423085666476" lon="12.819026657094755"><ele>978.3333333333333</ele><time>2026-04-18T11:21:25.999Z</time></trkpt><trkpt lat="42.936454714203705" lon="12.819119702968175"><ele>982.0</ele><time>2026-04-18T11:21:26.999Z</time></trkpt><trkpt lat="42.936482942006016" lon="12.819249427178889"><ele>985.0</ele><time>2026-04-18T11:21:27.999Z</time></trkpt><trkpt lat="42.93649514013393" lon="12.819352279335991"><ele>988.0</ele><time>2026-04-18T11:21:28.999Z</time></trkpt><trkpt lat="42.93652867112278" lon="12.819458958058414"><ele>991.0</ele><time>2026-04-18T11:21:29.999Z</time></trkpt><trkpt lat="42.93659404748421" lon="12.819559995281162"><ele>994.0</ele><time>2026-04-18T11:21:30.999Z</time></trkpt><trkpt lat="42.936662822721885" lon="12.819672756825623"><ele>997.0</ele><time>2026-04-18T11:21:31.999Z</time></trkpt><trkpt lat="42.936713149230364" lon="12.819785378216972"><ele>1000.4000000000001</ele><time>2026-04-18T11:21:32.999Z</time></trkpt><trkpt lat="42.9367540061515" lon="12.819900130073655"><ele>1003.8000000000001</ele><time>2026-04-18T11:21:33.999Z</time></trkpt><trkpt lat="42.93682156782138" lon="12.820051077631495"><ele>1007.2</ele><time>2026-04-18T11:21:35.999Z</time></trkpt><trkpt lat="42.936854699794296" lon="12.820125867972667"><ele>1010.6</ele><time>2026-04-18T11:21:36.999Z</time></trkpt><trkpt lat="42.93689171679598" lon="12.82023901351021"><ele>1014.0</ele><time>2026-04-18T11:21:37.999Z</time></trkpt><trkpt lat="42.936919128109224" lon="12.820364344382265"><ele>1014.0</ele><time>2026-04-18T11:21:38.999Z</time></trkpt><trkpt lat="42.93693856352305" lon="12.820503543887272"><ele>1014.0000000000001</ele><time>2026-04-18T11:21:39.999Z</time></trkpt><trkpt lat="42.93694669748001" lon="12.820648174141287"><ele>1014.0000000000001</ele><time>2026-04-18T11:21:40.999Z</time></trkpt><trkpt lat="42.93695213588794" lon="12.820771797442998"><ele>1014.0</ele><time>2026-04-18T11:21:41.999Z</time></trkpt><trkpt lat="42.93695711864665" lon="12.820889329942908"><ele>1014.0</ele><time>2026-04-18T11:21:42.999Z</time></trkpt><trkpt lat="42.93696433756935" lon="12.821003583439241"><ele>1013.6666666666666</ele><time>2026-04-18T11:21:43.999Z</time></trkpt><trkpt lat="42.93696752872443" lon="12.821103379032548"><ele>1013.3333333333333</ele><time>2026-04-18T11:21:44.999Z</time></trkpt><trkpt lat="42.93698423869329" lon="12.82119005028466"><ele>1013.0</ele><time>2026-04-18T11:21:45.999Z</time></trkpt><trkpt lat="42.937044966567946" lon="12.821299601292903"><ele>1012.6666666666666</ele><time>2026-04-18T11:21:47.999Z</time></trkpt><trkpt lat="42.93712378975373" lon="12.821375662391803"><ele>1012.3333333333333</ele><time>2026-04-18T11:21:49.999Z</time></trkpt><trkpt lat="42.93719067488428" lon="12.821360748761354"><ele>1012.0</ele><time>2026-04-18T11:21:51.999Z</time></trkpt><trkpt lat="42.937271152398395" lon="12.821291115062744"><ele>1011.9999999999999</ele><time>2026-04-18T11:21:53.999Z</time></trkpt><trkpt lat="42.93728532829768" lon="12.821177240468128"><ele>1012.0</ele><time>2026-04-18T11:21:56.999Z</time></trkpt><trkpt lat="42.93730018105907" lon="12.821081715088924"><ele>1012.0</ele><time>2026-04-18T11:21:58.999Z</time></trkpt><trkpt lat="42.937366419129226" lon="12.821036366317564"><ele>1012.0</ele><time>2026-04-18T11:22:00.999Z</time></trkpt><trkpt lat="42.93744396054147" lon="12.820981623669306"><ele>1011.9999999999999</ele><time>2026-04-18T11:22:02.999Z</time></trkpt><trkpt lat="42.93748839472567" lon="12.820911273870811"><ele>1012.0</ele><time>2026-04-18T11:22:04.999Z</time></trkpt><trkpt lat="42.937568595084336" lon="12.820853183507745"><ele>1017.9999999999999</ele><time>2026-04-18T11:22:06.999Z</time></trkpt><trkpt lat="42.9375946253142" lon="12.820772040050985"><ele>1024.0</ele><time>2026-04-18T11:22:08.999Z</time></trkpt><trkpt lat="42.93763783342551" lon="12.820684705326606"><ele>1030.0</ele><time>2026-04-18T11:22:10.999Z</time></trkpt><trkpt lat="42.937707469037065" lon="12.820586196885042"><ele>1036.0</ele><time>2026-04-18T11:22:12.999Z</time></trkpt><trkpt lat="42.937777437714026" lon="12.82056163700412"><ele>1042.0</ele><time>2026-04-18T11:22:14.999Z</time></trkpt><trkpt lat="42.93783264186921" lon="12.820479535796135"><ele>1048.0</ele><time>2026-04-18T11:22:17Z</time></trkpt><trkpt lat="42.93791021613571" lon="12.820412143143121"><ele>1048.0</ele><time>2026-04-18T11:22:19Z</time></trkpt><trkpt lat="42.937970303137305" lon="12.820359759418938"><ele>1048.0</ele><time>2026-04-18T11:22:21Z</time></trkpt><trkpt lat="42.938047923064346" lon="12.82032756501146"><ele>1048.0</ele><time>2026-04-18T11:22:23Z</time></trkpt><trkpt lat="42.938120423715155" lon="12.820253032068434"><ele>1048.0</ele><time>2026-04-18T11:22:25Z</time></trkpt><trkpt lat="42.93817450395374" lon="12.82014531721327"><ele>1048.0</ele><time>2026-04-18T11:22:27Z</time></trkpt><trkpt lat="42.93825894853058" lon="12.820134650301483"><ele>1048.0</ele><time>2026-04-18T11:22:29Z</time></trkpt><trkpt lat="42.93833314536074" lon="12.820175405310804"><ele>1054.8</ele><time>2026-04-18T11:22:31Z</time></trkpt><trkpt lat="42.93839634727156" lon="12.82019227448686"><ele>1061.6</ele><time>2026-04-18T11:22:32Z</time></trkpt><trkpt lat="42.93851353558199" lon="12.820192936439213"><ele>1068.4</ele><time>2026-04-18T11:22:34Z</time></trkpt><trkpt lat="42.93860810388092" lon="12.82020391850065"><ele>1075.2</ele><time>2026-04-18T11:22:36Z</time></trkpt><trkpt lat="42.93870504585901" lon="12.82018973518909"><ele>1082.0</ele><time>2026-04-18T11:22:38Z</time></trkpt><trkpt lat="42.938817360836765" lon="12.82023697140697"><ele>1082.0</ele><time>2026-04-18T11:22:40Z</time></trkpt><trkpt lat="42.93893692596268" lon="12.820199823109823"><ele>1082.0</ele><time>2026-04-18T11:22:42Z</time></trkpt><trkpt lat="42.938997684290655" lon="12.820152521438573"><ele>1082.0</ele><time>2026-04-18T11:22:45Z</time></trkpt><trkpt lat="42.93905941444003" lon="12.82010609452831"><ele>1082.0</ele><time>2026-04-18T11:22:47Z</time></trkpt><trkpt lat="42.939133321178154" lon="12.82002467861785"><ele>1082.0</ele><time>2026-04-18T11:22:49Z</time></trkpt><trkpt lat="42.939204300002714" lon="12.81999910129947"><ele>1082.0</ele><time>2026-04-18T11:22:51Z</time></trkpt><trkpt lat="42.939283236351685" lon="12.819998792294687"><ele>1083.8</ele><time>2026-04-18T11:22:54Z</time></trkpt><trkpt lat="42.9393418674053" lon="12.819939432448125"><ele>1085.6</ele><time>2026-04-18T11:22:57Z</time></trkpt><trkpt lat="42.93942509393274" lon="12.819954740889633"><ele>1087.3999999999999</ele><time>2026-04-18T11:22:59Z</time></trkpt><trkpt lat="42.93950019462185" lon="12.820037874229504"><ele>1089.2</ele><time>2026-04-18T11:23:01Z</time></trkpt><trkpt lat="42.93956360403582" lon="12.820155615085767"><ele>1091.0</ele><time>2026-04-18T11:23:03Z</time></trkpt><trkpt lat="42.93966982180964" lon="12.820154348821477"><ele>1091.0</ele><time>2026-04-18T11:23:05Z</time></trkpt><trkpt lat="42.93976504921757" lon="12.820114756014751"><ele>1091.0</ele><time>2026-04-18T11:23:07Z</time></trkpt><trkpt lat="42.93984684074061" lon="12.820027306541514"><ele>1091.0</ele><time>2026-04-18T11:23:09Z</time></trkpt><trkpt lat="42.939923449204215" lon="12.819996480486596"><ele>1091.0</ele><time>2026-04-18T11:23:11Z</time></trkpt><trkpt lat="42.939988680842" lon="12.82001657159613"><ele>1091.0</ele><time>2026-04-18T11:23:12Z</time></trkpt><trkpt lat="42.940059982584714" lon="12.820026992669877"><ele>1091.0</ele><time>2026-04-18T11:23:13Z</time></trkpt><trkpt lat="42.94017305917337" lon="12.820055349720008"><ele>1092.5</ele><time>2026-04-18T11:23:15Z</time></trkpt><trkpt lat="42.94024808350712" lon="12.820088409024262"><ele>1094.0</ele><time>2026-04-18T11:23:17Z</time></trkpt><trkpt lat="42.940296577982075" lon="12.820187477372201"><ele>1095.5</ele><time>2026-04-18T11:23:19Z</time></trkpt><trkpt lat="42.94036023018953" lon="12.820331685457342"><ele>1097.0</ele><time>2026-04-18T11:23:20.999Z</time></trkpt><trkpt lat="42.94041587855049" lon="12.820402313487048"><ele>1098.5</ele><time>2026-04-18T11:23:21.999Z</time></trkpt><trkpt lat="42.94048010824253" lon="12.82046004829331"><ele>1100.0</ele><time>2026-04-18T11:23:22.999Z</time></trkpt><trkpt lat="42.94056036960512" lon="12.820557840816658"><ele>1102.1666666666667</ele><time>2026-04-18T11:23:23.999Z</time></trkpt><trkpt lat="42.94062837955801" lon="12.820632752236229"><ele>1104.3333333333335</ele><time>2026-04-18T11:23:24.999Z</time></trkpt><trkpt lat="42.9407041317704" lon="12.820704774823792"><ele>1106.5</ele><time>2026-04-18T11:23:25.999Z</time></trkpt><trkpt lat="42.94079013481469" lon="12.82078536332841"><ele>1108.6666666666667</ele><time>2026-04-18T11:23:26.999Z</time></trkpt><trkpt lat="42.94086387800565" lon="12.820846030752296"><ele>1110.8333333333333</ele><time>2026-04-18T11:23:27.999Z</time></trkpt><trkpt lat="42.94093463154609" lon="12.82085575296338"><ele>1113.0</ele><time>2026-04-18T11:23:28.999Z</time></trkpt><trkpt lat="42.94104817890166" lon="12.820842343891876"><ele>1115.8</ele><time>2026-04-18T11:23:29.999Z</time></trkpt><trkpt lat="42.94114145397162" lon="12.82085690065078"><ele>1118.6</ele><time>2026-04-18T11:23:30.999Z</time></trkpt><trkpt lat="42.94122226900851" lon="12.820919392113138"><ele>1121.4</ele><time>2026-04-18T11:23:31.999Z</time></trkpt><trkpt lat="42.94129155370396" lon="12.821015138063064"><ele>1124.2</ele><time>2026-04-18T11:23:32.999Z</time></trkpt><trkpt lat="42.94136659170552" lon="12.821074489653007"><ele>1127.0</ele><time>2026-04-18T11:23:33.999Z</time></trkpt><trkpt lat="42.94145150647762" lon="12.821078583712083"><ele>1129.2</ele><time>2026-04-18T11:23:34.999Z</time></trkpt><trkpt lat="42.94156138557386" lon="12.821059161446914"><ele>1131.4</ele><time>2026-04-18T11:23:35.999Z</time></trkpt><trkpt lat="42.94167912134595" lon="12.821056593392877"><ele>1133.6</ele><time>2026-04-18T11:23:36.999Z</time></trkpt><trkpt lat="42.94177719609799" lon="12.821061868188899"><ele>1135.8</ele><time>2026-04-18T11:23:37.999Z</time></trkpt><trkpt lat="42.94185880820229" lon="12.821071521382567"><ele>1138.0</ele><time>2026-04-18T11:23:38.999Z</time></trkpt><trkpt lat="42.94191507030082" lon="12.821116489190201"><ele>1140.0</ele><time>2026-04-18T11:23:39.999Z</time></trkpt><trkpt lat="42.94197298272131" lon="12.821201843186083"><ele>1142.0</ele><time>2026-04-18T11:23:40.999Z</time></trkpt><trkpt lat="42.942014955592" lon="12.821316789561479"><ele>1144.0</ele><time>2026-04-18T11:23:41.999Z</time></trkpt><trkpt lat="42.94200999402748" lon="12.821421938863717"><ele>1146.0</ele><time>2026-04-18T11:23:42.999Z</time></trkpt><trkpt lat="42.941964620570516" lon="12.821484445864431"><ele>1148.0</ele><time>2026-04-18T11:23:43.999Z</time></trkpt><trkpt lat="42.9419276763107" lon="12.821565542620734"><ele>1150.0</ele><time>2026-04-18T11:23:44.999Z</time></trkpt><trkpt lat="42.94190028294964" lon="12.821653383232373"><ele>1150.0</ele><time>2026-04-18T11:23:45.999Z</time></trkpt><trkpt lat="42.941878693370874" lon="12.821734986897928"><ele>1150.0</ele><time>2026-04-18T11:23:46.999Z</time></trkpt><trkpt lat="42.941856009313575" lon="12.821829890680029"><ele>1150.0</ele><time>2026-04-18T11:23:47.999Z</time></trkpt><trkpt lat="42.941828485564734" lon="12.821938259572779"><ele>1150.0</ele><time>2026-04-18T11:23:48.999Z</time></trkpt><trkpt lat="42.94179504787868" lon="12.822077949692453"><ele>1150.0</ele><time>2026-04-18T11:23:49.999Z</time></trkpt><trkpt lat="42.94175357542984" lon="12.822230156944835"><ele>1150.0</ele><time>2026-04-18T11:23:50.999Z</time></trkpt><trkpt lat="42.941718908273906" lon="12.822362270463545"><ele>1148.5</ele><time>2026-04-18T11:23:51.999Z</time></trkpt><trkpt lat="42.94168813464315" lon="12.822488219027923"><ele>1147.0</ele><time>2026-04-18T11:23:52.999Z</time></trkpt><trkpt lat="42.94166436512338" lon="12.822592683352758"><ele>1145.5</ele><time>2026-04-18T11:23:53.999Z</time></trkpt><trkpt lat="42.94164860475376" lon="12.822676434035797"><ele>1144.0</ele><time>2026-04-18T11:23:54.999Z</time></trkpt><trkpt lat="42.94162617452722" lon="12.822760009175626"><ele>1142.5</ele><time>2026-04-18T11:23:55.999Z</time></trkpt><trkpt lat="42.941584924830096" lon="12.82283575960572"><ele>1141.0</ele><time>2026-04-18T11:23:56.999Z</time></trkpt><trkpt lat="42.9415264903507" lon="12.82292074839965"><ele>1141.0</ele><time>2026-04-18T11:23:57.999Z</time></trkpt><trkpt lat="42.941476726114566" lon="12.823005646792343"><ele>1141.0</ele><time>2026-04-18T11:23:58.999Z</time></trkpt><trkpt lat="42.94143195479033" lon="12.823085790633424"><ele>1141.0</ele><time>2026-04-18T11:23:59.999Z</time></trkpt><trkpt lat="42.94135439817934" lon="12.823266106816156"><ele>1141.0</ele><time>2026-04-18T11:24:01.999Z</time></trkpt><trkpt lat="42.94130968834325" lon="12.823359308207817"><ele>1141.0</ele><time>2026-04-18T11:24:02.999Z</time></trkpt><trkpt lat="42.941292049708885" lon="12.823446663668548"><ele>1140.6666666666665</ele><time>2026-04-18T11:24:03.999Z</time></trkpt><trkpt lat="42.94129727665338" lon="12.823574234069593"><ele>1140.3333333333333</ele><time>2026-04-18T11:24:04.999Z</time></trkpt><trkpt lat="42.941331198814424" lon="12.823693194833558"><ele>1140.0</ele><time>2026-04-18T11:24:05.999Z</time></trkpt><trkpt lat="42.94136087102289" lon="12.823795702719623"><ele>1139.6666666666667</ele><time>2026-04-18T11:24:06.999Z</time></trkpt><trkpt lat="42.941376672946944" lon="12.823888049583749"><ele>1139.3333333333335</ele><time>2026-04-18T11:24:07.999Z</time></trkpt><trkpt lat="42.94136210013803" lon="12.823981404065703"><ele>1139.0</ele><time>2026-04-18T11:24:19.999Z</time></trkpt><trkpt lat="42.94139704296557" lon="12.82390823860415"><ele>1139.0</ele><time>2026-04-18T11:24:24Z</time></trkpt><trkpt lat="42.94136901781153" lon="12.823795045518343"><ele>1139.0</ele><time>2026-04-18T11:24:25Z</time></trkpt><trkpt lat="42.94134515434468" lon="12.823705081950571"><ele>1139.0</ele><time>2026-04-18T11:24:26Z</time></trkpt><trkpt lat="42.94132018252359" lon="12.82359914056021"><ele>1139.0</ele><time>2026-04-18T11:24:27Z</time></trkpt><trkpt lat="42.94129962799393" lon="12.823474114235802"><ele>1139.0</ele><time>2026-04-18T11:24:28Z</time></trkpt><trkpt lat="42.94130719725126" lon="12.823354540256087"><ele>1139.0</ele><time>2026-04-18T11:24:29Z</time></trkpt><trkpt lat="42.94134856331212" lon="12.82325874738412"><ele>1139.4</ele><time>2026-04-18T11:24:30Z</time></trkpt><trkpt lat="42.94141404489222" lon="12.823146656999665"><ele>1139.8000000000002</ele><time>2026-04-18T11:24:31Z</time></trkpt><trkpt lat="42.94147411105303" lon="12.823028994310944"><ele>1140.1999999999998</ele><time>2026-04-18T11:24:32Z</time></trkpt><trkpt lat="42.9415154972353" lon="12.822903970464948"><ele>1140.6</ele><time>2026-04-18T11:24:33Z</time></trkpt><trkpt lat="42.9415551342977" lon="12.822800604047307"><ele>1141.0</ele><time>2026-04-18T11:24:34Z</time></trkpt><trkpt lat="42.94161645907048" lon="12.822712258672738"><ele>1140.5714285714287</ele><time>2026-04-18T11:24:35Z</time></trkpt><trkpt lat="42.941658684612676" lon="12.82261943187456"><ele>1140.142857142857</ele><time>2026-04-18T11:24:36Z</time></trkpt><trkpt lat="42.94168826641505" lon="12.822528038856339"><ele>1139.7142857142858</ele><time>2026-04-18T11:24:37Z</time></trkpt><trkpt lat="42.94171029341586" lon="12.822441834757257"><ele>1139.2857142857142</ele><time>2026-04-18T11:24:38Z</time></trkpt><trkpt lat="42.94174541813276" lon="12.822353315934345"><ele>1138.857142857143</ele><time>2026-04-18T11:24:39Z</time></trkpt><trkpt lat="42.94177955499418" lon="12.822269653792155"><ele>1138.4285714285716</ele><time>2026-04-18T11:24:40Z</time></trkpt><trkpt lat="42.9418127994489" lon="12.822190224922682"><ele>1138.0</ele><time>2026-04-18T11:24:41Z</time></trkpt><trkpt lat="42.941891794143594" lon="12.82205920307769"><ele>1140.0</ele><time>2026-04-18T11:24:43Z</time></trkpt><trkpt lat="42.94198210845586" lon="12.821964770387865"><ele>1142.0</ele><time>2026-04-18T11:24:45Z</time></trkpt><trkpt lat="42.94205305247408" lon="12.821910735635344"><ele>1144.0</ele><time>2026-04-18T11:24:46Z</time></trkpt><trkpt lat="42.942125321869106" lon="12.821888214279953"><ele>1146.0</ele><time>2026-04-18T11:24:47Z</time></trkpt><trkpt lat="42.94219118698577" lon="12.82185012760018"><ele>1148.0</ele><time>2026-04-18T11:24:48Z</time></trkpt><trkpt lat="42.94224361235488" lon="12.821784646287286"><ele>1150.0</ele><time>2026-04-18T11:24:49Z</time></trkpt><trkpt lat="42.94234597773215" lon="12.8217293508414"><ele>1150.0</ele><time>2026-04-18T11:24:51Z</time></trkpt><trkpt lat="42.94243470581724" lon="12.821655653586072"><ele>1150.0</ele><time>2026-04-18T11:24:53Z</time></trkpt><trkpt lat="42.94249860119675" lon="12.821586135481972"><ele>1150.0</ele><time>2026-04-18T11:24:55Z</time></trkpt><trkpt lat="42.94259673369999" lon="12.821593644778094"><ele>1150.0</ele><time>2026-04-18T11:24:57Z</time></trkpt><trkpt lat="42.942660703224334" lon="12.821641088224148"><ele>1150.0</ele><time>2026-04-18T11:24:58Z</time></trkpt><trkpt lat="42.94271539534493" lon="12.821710885583505"><ele>1150.0</ele><time>2026-04-18T11:24:59Z</time></trkpt><trkpt lat="42.94275929537727" lon="12.821778962377016"><ele>1154.4</ele><time>2026-04-18T11:25:00Z</time></trkpt><trkpt lat="42.942829657580496" lon="12.821862041027163"><ele>1158.8</ele><time>2026-04-18T11:25:01Z</time></trkpt><trkpt lat="42.94291396985954" lon="12.821977362396416"><ele>1163.2</ele><time>2026-04-18T11:25:02Z</time></trkpt><trkpt lat="42.94299568424724" lon="12.822090849606539"><ele>1167.6</ele><time>2026-04-18T11:25:03Z</time></trkpt><trkpt lat="42.94307498027958" lon="12.82220289242676"><ele>1172.0</ele><time>2026-04-18T11:25:04Z</time></trkpt><trkpt lat="42.943235295027904" lon="12.822390287355356"><ele>1172.0</ele><time>2026-04-18T11:25:05Z</time></trkpt><trkpt lat="42.94331074506694" lon="12.822479957024827"><ele>1172.0</ele><time>2026-04-18T11:25:06Z</time></trkpt><trkpt lat="42.94336797209999" lon="12.822533950827978"><ele>1172.0</ele><time>2026-04-18T11:25:07Z</time></trkpt><trkpt lat="42.94342948040146" lon="12.822604510863501"><ele>1172.0</ele><time>2026-04-18T11:25:08Z</time></trkpt><trkpt lat="42.94351201423722" lon="12.822683387843833"><ele>1172.0</ele><time>2026-04-18T11:25:09Z</time></trkpt><trkpt lat="42.943595862421134" lon="12.8227724008852"><ele>1175.8</ele><time>2026-04-18T11:25:10Z</time></trkpt><trkpt lat="42.94368521184272" lon="12.822860335916461"><ele>1179.6</ele><time>2026-04-18T11:25:11Z</time></trkpt><trkpt lat="42.943767002111294" lon="12.822949557666565"><ele>1183.3999999999999</ele><time>2026-04-18T11:25:12Z</time></trkpt><trkpt lat="42.94384214951649" lon="12.823031435774142"><ele>1187.2</ele><time>2026-04-18T11:25:13Z</time></trkpt><trkpt lat="42.943912386824444" lon="12.823107154910511"><ele>1191.0</ele><time>2026-04-18T11:25:14Z</time></trkpt><trkpt lat="42.943976699889966" lon="12.82317418039676"><ele>1191.0</ele><time>2026-04-18T11:25:15Z</time></trkpt><trkpt lat="42.94404025157902" lon="12.823249239924259"><ele>1191.0</ele><time>2026-04-18T11:25:16Z</time></trkpt><trkpt lat="42.94409060462457" lon="12.823321126158602"><ele>1191.0</ele><time>2026-04-18T11:25:17Z</time></trkpt><trkpt lat="42.944132625791944" lon="12.823398159103073"><ele>1191.0</ele><time>2026-04-18T11:25:18Z</time></trkpt><trkpt lat="42.94418781585789" lon="12.8235104536414"><ele>1191.0</ele><time>2026-04-18T11:25:19Z</time></trkpt><trkpt lat="42.94424771348191" lon="12.823651372678414"><ele>1191.0</ele><time>2026-04-18T11:25:20Z</time></trkpt><trkpt lat="42.94431234647944" lon="12.823790037586551"><ele>1191.1666666666667</ele><time>2026-04-18T11:25:21Z</time></trkpt><trkpt lat="42.94437666081376" lon="12.823915812496757"><ele>1191.3333333333333</ele><time>2026-04-18T11:25:22Z</time></trkpt><trkpt lat="42.94442314529065" lon="12.823985833981151"><ele>1191.5</ele><time>2026-04-18T11:25:23Z</time></trkpt><trkpt lat="42.944445516205924" lon="12.824081816004096"><ele>1191.6666666666665</ele><time>2026-04-18T11:25:25Z</time></trkpt><trkpt lat="42.94439270228291" lon="12.824154311478335"><ele>1191.8333333333333</ele><time>2026-04-18T11:25:26.999Z</time></trkpt><trkpt lat="42.94433658868571" lon="12.824263039879641"><ele>1192.0</ele><time>2026-04-18T11:25:28.999Z</time></trkpt><trkpt lat="42.94433003344904" lon="12.824358039911802"><ele>1192.0</ele><time>2026-04-18T11:25:29.999Z</time></trkpt><trkpt lat="42.944317410071925" lon="12.824451081530647"><ele>1192.0</ele><time>2026-04-18T11:25:30.999Z</time></trkpt><trkpt lat="42.94431562836152" lon="12.8246069006899"><ele>1192.0</ele><time>2026-04-18T11:25:32.999Z</time></trkpt><trkpt lat="42.94432357232377" lon="12.824696021823627"><ele>1192.0</ele><time>2026-04-18T11:25:33.999Z</time></trkpt><trkpt lat="42.944343530245405" lon="12.824796561430178"><ele>1192.0</ele><time>2026-04-18T11:25:34.999Z</time></trkpt><trkpt lat="42.94436210114805" lon="12.824887520935516"><ele>1192.0</ele><time>2026-04-18T11:25:35.999Z</time></trkpt><trkpt lat="42.9443935264302" lon="12.825055234181688"><ele>1192.0</ele><time>2026-04-18T11:25:37.999Z</time></trkpt><trkpt lat="42.94441934325402" lon="12.82514160556082"><ele>1192.0</ele><time>2026-04-18T11:25:38.999Z</time></trkpt><trkpt lat="42.94446214888413" lon="12.82528339668572"><ele>1192.0</ele><time>2026-04-18T11:25:40.999Z</time></trkpt><trkpt lat="42.94449827091958" lon="12.825368522796762"><ele>1192.0</ele><time>2026-04-18T11:25:41.999Z</time></trkpt><trkpt lat="42.94454414738001" lon="12.825477159597133"><ele>1192.0</ele><time>2026-04-18T11:25:42.999Z</time></trkpt><trkpt lat="42.944605530644495" lon="12.825566264415682"><ele>1192.0</ele><time>2026-04-18T11:25:43.999Z</time></trkpt><trkpt lat="42.94468067215667" lon="12.825655940822948"><ele>1192.8</ele><time>2026-04-18T11:25:44.999Z</time></trkpt><trkpt lat="42.944735933997876" lon="12.825752331088976"><ele>1193.6</ele><time>2026-04-18T11:25:45.999Z</time></trkpt><trkpt lat="42.94477730144411" lon="12.825855553470891"><ele>1194.3999999999999</ele><time>2026-04-18T11:25:46.999Z</time></trkpt><trkpt lat="42.94482535148716" lon="12.825984609710233"><ele>1195.2</ele><time>2026-04-18T11:25:47.999Z</time></trkpt><trkpt lat="42.944876915507805" lon="12.826120267352563"><ele>1196.0</ele><time>2026-04-18T11:25:48.999Z</time></trkpt><trkpt lat="42.944935881936495" lon="12.82625922203866"><ele>1196.0</ele><time>2026-04-18T11:25:49.999Z</time></trkpt><trkpt lat="42.94499565849727" lon="12.826404806251283"><ele>1196.0</ele><time>2026-04-18T11:25:50.999Z</time></trkpt><trkpt lat="42.94505816857582" lon="12.826553725876689"><ele>1196.0</ele><time>2026-04-18T11:25:51.999Z</time></trkpt><trkpt lat="42.94512853135799" lon="12.826699337786007"><ele>1196.0</ele><time>2026-04-18T11:25:52.999Z</time></trkpt><trkpt lat="42.94519495106339" lon="12.826838375591977"><ele>1199.0</ele><time>2026-04-18T11:25:53.999Z</time></trkpt><trkpt lat="42.94526521880675" lon="12.826968466259565"><ele>1202.0</ele><time>2026-04-18T11:25:54.999Z</time></trkpt><trkpt lat="42.9453158359744" lon="12.827103766173153"><ele>1205.0</ele><time>2026-04-18T11:25:55.999Z</time></trkpt><trkpt lat="42.945355268698144" lon="12.82722428458913"><ele>1208.0</ele><time>2026-04-18T11:25:56.999Z</time></trkpt><trkpt lat="42.94539879445393" lon="12.82734072847362"><ele>1211.0</ele><time>2026-04-18T11:25:57.999Z</time></trkpt><trkpt lat="42.945445477752365" lon="12.827450519344561"><ele>1211.0</ele><time>2026-04-18T11:25:58.999Z</time></trkpt><trkpt lat="42.94548680050409" lon="12.827570525593236"><ele>1211.0</ele><time>2026-04-18T11:25:59.999Z</time></trkpt><trkpt lat="42.94551517887887" lon="12.827676041234032"><ele>1211.0</ele><time>2026-04-18T11:26:00.999Z</time></trkpt><trkpt lat="42.945544117108064" lon="12.827788254624434"><ele>1211.0</ele><time>2026-04-18T11:26:01.999Z</time></trkpt><trkpt lat="42.945584988190745" lon="12.827911847487558"><ele>1211.0</ele><time>2026-04-18T11:26:02.999Z</time></trkpt><trkpt lat="42.94561043840158" lon="12.828017743371213"><ele>1211.0</ele><time>2026-04-18T11:26:03.999Z</time></trkpt><trkpt lat="42.94565427095339" lon="12.828161661584282"><ele>1208.8</ele><time>2026-04-18T11:26:04.999Z</time></trkpt><trkpt lat="42.9456939974094" lon="12.82829614226077"><ele>1206.6</ele><time>2026-04-18T11:26:05.999Z</time></trkpt><trkpt lat="42.945731043716634" lon="12.828420273476716"><ele>1204.4</ele><time>2026-04-18T11:26:06.999Z</time></trkpt><trkpt lat="42.94576692922435" lon="12.828559231080803"><ele>1202.2</ele><time>2026-04-18T11:26:07.999Z</time></trkpt><trkpt lat="42.945805765693095" lon="12.828713856903875"><ele>1200.0</ele><time>2026-04-18T11:26:08.999Z</time></trkpt><trkpt lat="42.94583592304593" lon="12.828876264232601"><ele>1197.5</ele><time>2026-04-18T11:26:09.999Z</time></trkpt><trkpt lat="42.945882269995096" lon="12.82905262648779"><ele>1195.0</ele><time>2026-04-18T11:26:10.999Z</time></trkpt><trkpt lat="42.945934421972176" lon="12.829231899057682"><ele>1192.5</ele><time>2026-04-18T11:26:11.999Z</time></trkpt><trkpt lat="42.94599888724831" lon="12.829408684598107"><ele>1190.0</ele><time>2026-04-18T11:26:12.999Z</time></trkpt><trkpt lat="42.946078678603214" lon="12.829599477322798"><ele>1190.0</ele><time>2026-04-18T11:26:13.999Z</time></trkpt><trkpt lat="42.946158958123405" lon="12.829747638045916"><ele>1190.0</ele><time>2026-04-18T11:26:14.999Z</time></trkpt><trkpt lat="42.94623598903902" lon="12.829892504672216"><ele>1190.0</ele><time>2026-04-18T11:26:15.999Z</time></trkpt><trkpt lat="42.946306572786206" lon="12.830023225090157"><ele>1190.0</ele><time>2026-04-18T11:26:16.999Z</time></trkpt><trkpt lat="42.94638117390248" lon="12.83015193312775"><ele>1192.0</ele><time>2026-04-18T11:26:17.999Z</time></trkpt><trkpt lat="42.946452428312526" lon="12.83026739051617"><ele>1194.0</ele><time>2026-04-18T11:26:18.999Z</time></trkpt><trkpt lat="42.946536972420866" lon="12.830411455691998"><ele>1196.0</ele><time>2026-04-18T11:26:19.999Z</time></trkpt><trkpt lat="42.94661158454131" lon="12.830541162358807"><ele>1198.0</ele><time>2026-04-18T11:26:20.999Z</time></trkpt><trkpt lat="42.94666832326013" lon="12.830676171046605"><ele>1196.5</ele><time>2026-04-18T11:26:21.999Z</time></trkpt><trkpt lat="42.946723554673184" lon="12.830836236755731"><ele>1195.0</ele><time>2026-04-18T11:26:22.999Z</time></trkpt><trkpt lat="42.94677361788607" lon="12.831013885710702"><ele>1193.5</ele><time>2026-04-18T11:26:23.999Z</time></trkpt><trkpt lat="42.94682613140239" lon="12.831198889343488"><ele>1192.0</ele><time>2026-04-18T11:26:24.999Z</time></trkpt><trkpt lat="42.94687782383845" lon="12.831382915294736"><ele>1192.0</ele><time>2026-04-18T11:26:25.999Z</time></trkpt><trkpt lat="42.94692903256221" lon="12.83152271209696"><ele>1192.0</ele><time>2026-04-18T11:26:26.999Z</time></trkpt><trkpt lat="42.946981447563694" lon="12.831679289682858"><ele>1192.0</ele><time>2026-04-18T11:26:28Z</time></trkpt><trkpt lat="42.94703380361282" lon="12.83183109023224"><ele>1192.0</ele><time>2026-04-18T11:26:29Z</time></trkpt><trkpt lat="42.94708752777311" lon="12.831977147366038"><ele>1192.6</ele><time>2026-04-18T11:26:30Z</time></trkpt><trkpt lat="42.94714041392979" lon="12.832123383837065"><ele>1193.2</ele><time>2026-04-18T11:26:31Z</time></trkpt><trkpt lat="42.9471890204394" lon="12.83227507199115"><ele>1193.8</ele><time>2026-04-18T11:26:32Z</time></trkpt><trkpt lat="42.94722382629555" lon="12.832408777355472"><ele>1194.4</ele><time>2026-04-18T11:26:33Z</time></trkpt><trkpt lat="42.947254677864485" lon="12.832522241872212"><ele>1195.0</ele><time>2026-04-18T11:26:34Z</time></trkpt><trkpt lat="42.94728820339408" lon="12.832647829922573"><ele>1195.0</ele><time>2026-04-18T11:26:35Z</time></trkpt><trkpt lat="42.947318364864515" lon="12.83275568593803"><ele>1195.0</ele><time>2026-04-18T11:26:36Z</time></trkpt><trkpt lat="42.947358774599884" lon="12.83286575285626"><ele>1195.0</ele><time>2026-04-18T11:26:37Z</time></trkpt><trkpt lat="42.947409546316884" lon="12.83298437080288"><ele>1195.0</ele><time>2026-04-18T11:26:38Z</time></trkpt><trkpt lat="42.94745325871107" lon="12.833084704667286"><ele>1195.0</ele><time>2026-04-18T11:26:39Z</time></trkpt><trkpt lat="42.94749745657637" lon="12.833163628290116"><ele>1195.0</ele><time>2026-04-18T11:26:40Z</time></trkpt><trkpt lat="42.94754304053367" lon="12.83323935326361"><ele>1191.8333333333333</ele><time>2026-04-18T11:26:41Z</time></trkpt><trkpt lat="42.9475883520357" lon="12.833304452723993"><ele>1188.6666666666665</ele><time>2026-04-18T11:26:42Z</time></trkpt><trkpt lat="42.947649368169934" lon="12.833372295088477"><ele>1185.5</ele><time>2026-04-18T11:26:43Z</time></trkpt><trkpt lat="42.947707443840116" lon="12.833437226599097"><ele>1182.3333333333333</ele><time>2026-04-18T11:26:44Z</time></trkpt><trkpt lat="42.947797285561485" lon="12.833520931172798"><ele>1179.1666666666667</ele><time>2026-04-18T11:26:46Z</time></trkpt><trkpt lat="42.94788198787814" lon="12.833576043305788"><ele>1176.0</ele><time>2026-04-18T11:26:48Z</time></trkpt><trkpt lat="42.94795706117746" lon="12.833641779749124"><ele>1174.0</ele><time>2026-04-18T11:26:51Z</time></trkpt><trkpt lat="42.948021042123514" lon="12.833676289537165"><ele>1172.0</ele><time>2026-04-18T11:26:54Z</time></trkpt><trkpt lat="42.94811999227201" lon="12.833685621269124"><ele>1170.0</ele><time>2026-04-18T11:27:25Z</time></trkpt><trkpt lat="42.94821660535962" lon="12.833693236936684"><ele>1168.0</ele><time>2026-04-18T11:27:27Z</time></trkpt><trkpt lat="42.94832459071929" lon="12.8337120223334"><ele>1166.0</ele><time>2026-04-18T11:27:29Z</time></trkpt><trkpt lat="42.94844223830432" lon="12.833737874855007"><ele>1161.2</ele><time>2026-04-18T11:27:30.999Z</time></trkpt><trkpt lat="42.94856299558258" lon="12.833764938401094"><ele>1156.3999999999999</ele><time>2026-04-18T11:27:32.999Z</time></trkpt><trkpt lat="42.948683107029346" lon="12.833776373117281"><ele>1151.6</ele><time>2026-04-18T11:27:34.999Z</time></trkpt><trkpt lat="42.9487531216834" lon="12.833772633874283"><ele>1146.8</ele><time>2026-04-18T11:27:35.999Z</time></trkpt><trkpt lat="42.94881747292499" lon="12.83376188812311"><ele>1142.0</ele><time>2026-04-18T11:27:36.999Z</time></trkpt><trkpt lat="42.94890290621707" lon="12.83375361412148"><ele>1142.0</ele><time>2026-04-18T11:27:37.999Z</time></trkpt><trkpt lat="42.94897233253064" lon="12.83375636915216"><ele>1142.0</ele><time>2026-04-18T11:27:38.999Z</time></trkpt><trkpt lat="42.949071492554275" lon="12.833746623948825"><ele>1142.0</ele><time>2026-04-18T11:27:40.999Z</time></trkpt><trkpt lat="42.94918674521591" lon="12.833720389802753"><ele>1142.0</ele><time>2026-04-18T11:27:42.999Z</time></trkpt><trkpt lat="42.949249142844906" lon="12.83370579884147"><ele>1142.0</ele><time>2026-04-18T11:27:43.999Z</time></trkpt><trkpt lat="42.94936762086407" lon="12.83367634116919"><ele>1134.5</ele><time>2026-04-18T11:27:45.999Z</time></trkpt><trkpt lat="42.94947339601423" lon="12.833658254017832"><ele>1127.0</ele><time>2026-04-18T11:27:47.999Z</time></trkpt><trkpt lat="42.94957491837734" lon="12.833680186670813"><ele>1119.5</ele><time>2026-04-18T11:27:49.999Z</time></trkpt><trkpt lat="42.94969825916262" lon="12.833722274673626"><ele>1112.0</ele><time>2026-04-18T11:27:51.999Z</time></trkpt><trkpt lat="42.94982729798804" lon="12.833723715117406"><ele>1112.0</ele><time>2026-04-18T11:27:53.999Z</time></trkpt><trkpt lat="42.94990333730232" lon="12.833712099387228"><ele>1112.0</ele><time>2026-04-18T11:27:54.999Z</time></trkpt><trkpt lat="42.94999412272719" lon="12.833693377745735"><ele>1112.0</ele><time>2026-04-18T11:27:55.999Z</time></trkpt><trkpt lat="42.950087628289815" lon="12.833675459468349"><ele>1112.0</ele><time>2026-04-18T11:27:56.999Z</time></trkpt><trkpt lat="42.95019498693543" lon="12.833660400169272"><ele>1112.0</ele><time>2026-04-18T11:27:57.999Z</time></trkpt><trkpt lat="42.95027916194632" lon="12.833644761726568"><ele>1106.8</ele><time>2026-04-18T11:27:58.999Z</time></trkpt><trkpt lat="42.9503685130189" lon="12.833624788332257"><ele>1101.6</ele><time>2026-04-18T11:27:59.999Z</time></trkpt><trkpt lat="42.95044781539058" lon="12.833651658080809"><ele>1096.3999999999999</ele><time>2026-04-18T11:28:00.999Z</time></trkpt><trkpt lat="42.95053480495688" lon="12.83369682438576"><ele>1091.2</ele><time>2026-04-18T11:28:01.999Z</time></trkpt><trkpt lat="42.950636534640715" lon="12.833735237244104"><ele>1086.0</ele><time>2026-04-18T11:28:02.999Z</time></trkpt><trkpt lat="42.95073745451359" lon="12.833748932342255"><ele>1086.0</ele><time>2026-04-18T11:28:03.999Z</time></trkpt><trkpt lat="42.95083723743205" lon="12.833767617322989"><ele>1086.0</ele><time>2026-04-18T11:28:04.999Z</time></trkpt><trkpt lat="42.95092324611976" lon="12.83377461301285"><ele>1086.0</ele><time>2026-04-18T11:28:05.999Z</time></trkpt><trkpt lat="42.951028826938284" lon="12.833794576116503"><ele>1086.0</ele><time>2026-04-18T11:28:07.999Z</time></trkpt><trkpt lat="42.95111438988452" lon="12.83379364860918"><ele>1086.0</ele><time>2026-04-18T11:28:10.999Z</time></trkpt><trkpt lat="42.95122953453946" lon="12.833717583968678"><ele>1082.8333333333333</ele><time>2026-04-18T11:28:12.999Z</time></trkpt><trkpt lat="42.951300816771045" lon="12.833681319361991"><ele>1079.6666666666667</ele><time>2026-04-18T11:28:13.999Z</time></trkpt><trkpt lat="42.951379769710655" lon="12.833631080022645"><ele>1076.5</ele><time>2026-04-18T11:28:14.999Z</time></trkpt><trkpt lat="42.951432867707375" lon="12.833581801597921"><ele>1073.3333333333335</ele><time>2026-04-18T11:28:15.999Z</time></trkpt><trkpt lat="42.951505668771645" lon="12.833601685559305"><ele>1070.1666666666667</ele><time>2026-04-18T11:28:17.999Z</time></trkpt><trkpt lat="42.951601527875134" lon="12.833572137076285"><ele>1067.0</ele><time>2026-04-18T11:28:19.999Z</time></trkpt><trkpt lat="42.95168942448938" lon="12.833660584230257"><ele>1062.8</ele><time>2026-04-18T11:28:21.999Z</time></trkpt><trkpt lat="42.951734780554844" lon="12.833720856851468"><ele>1058.6</ele><time>2026-04-18T11:28:22.999Z</time></trkpt><trkpt lat="42.95179948560524" lon="12.833723495628972"><ele>1054.3999999999999</ele><time>2026-04-18T11:28:24.999Z</time></trkpt><trkpt lat="42.951903449843655" lon="12.83361955761354"><ele>1050.2</ele><time>2026-04-18T11:28:26.999Z</time></trkpt><trkpt lat="42.95200453346068" lon="12.833608484564277"><ele>1046.0</ele><time>2026-04-18T11:28:28.999Z</time></trkpt><trkpt lat="42.952102643816794" lon="12.833668985298115"><ele>1046.0</ele><time>2026-04-18T11:28:30.999Z</time></trkpt><trkpt lat="42.95215652584338" lon="12.833715316872118"><ele>1046.0</ele><time>2026-04-18T11:28:31.999Z</time></trkpt><trkpt lat="42.952209786679155" lon="12.833763010087411"><ele>1046.0</ele><time>2026-04-18T11:28:32.999Z</time></trkpt><trkpt lat="42.95228526689216" lon="12.83383846028783"><ele>1046.0</ele><time>2026-04-18T11:28:35Z</time></trkpt><trkpt lat="42.95235363629467" lon="12.833942952115946"><ele>1046.0</ele><time>2026-04-18T11:28:37Z</time></trkpt><trkpt lat="42.95243198276503" lon="12.83403971125137"><ele>1046.0</ele><time>2026-04-18T11:28:39Z</time></trkpt><trkpt lat="42.95250632349927" lon="12.834083867275911"><ele>1041.3333333333335</ele><time>2026-04-18T11:28:41Z</time></trkpt><trkpt lat="42.952567980875635" lon="12.834149813053022"><ele>1036.6666666666667</ele><time>2026-04-18T11:28:42Z</time></trkpt><trkpt lat="42.95264950792324" lon="12.834194568056748"><ele>1032.0</ele><time>2026-04-18T11:28:44Z</time></trkpt><trkpt lat="42.952715404510826" lon="12.834236829746022"><ele>1027.3333333333333</ele><time>2026-04-18T11:28:46Z</time></trkpt><trkpt lat="42.952802754753215" lon="12.834245229200464"><ele>1022.6666666666666</ele><time>2026-04-18T11:28:48Z</time></trkpt><trkpt lat="42.952867326556074" lon="12.834250126058318"><ele>1018.0</ele><time>2026-04-18T11:28:49Z</time></trkpt><trkpt lat="42.95293729148771" lon="12.834277673656947"><ele>1016.1666666666666</ele><time>2026-04-18T11:28:51Z</time></trkpt><trkpt lat="42.95297958104046" lon="12.834364549814019"><ele>1014.3333333333333</ele><time>2026-04-18T11:28:53Z</time></trkpt><trkpt lat="42.95297845170306" lon="12.834454755447972"><ele>1012.5</ele><time>2026-04-18T11:28:55Z</time></trkpt><trkpt lat="42.95305522551846" lon="12.834568834721802"><ele>1010.6666666666667</ele><time>2026-04-18T11:28:57Z</time></trkpt><trkpt lat="42.953086155675884" lon="12.834679644259639"><ele>1008.8333333333334</ele><time>2026-04-18T11:28:59Z</time></trkpt><trkpt lat="42.953123527516766" lon="12.834789531682679"><ele>1007.0</ele><time>2026-04-18T11:29:01Z</time></trkpt><trkpt lat="42.95320579183322" lon="12.834859549913707"><ele>1007.0</ele><time>2026-04-18T11:29:03Z</time></trkpt><trkpt lat="42.953294787436576" lon="12.834879974337332"><ele>1007.0</ele><time>2026-04-18T11:29:05Z</time></trkpt><trkpt lat="42.95335593216969" lon="12.834900452592882"><ele>1007.0</ele><time>2026-04-18T11:29:06Z</time></trkpt><trkpt lat="42.95346630225628" lon="12.834905596932886"><ele>1007.0</ele><time>2026-04-18T11:29:08Z</time></trkpt><trkpt lat="42.953560043105696" lon="12.835009543082016"><ele>1007.0</ele><time>2026-04-18T11:29:10Z</time></trkpt><trkpt lat="42.95361658317044" lon="12.83507292129781"><ele>1003.3333333333334</ele><time>2026-04-18T11:29:11Z</time></trkpt><trkpt lat="42.95368589783556" lon="12.835140655552763"><ele>999.6666666666667</ele><time>2026-04-18T11:29:12Z</time></trkpt><trkpt lat="42.95376209786441" lon="12.8351958198282"><ele>996.0</ele><time>2026-04-18T11:29:13Z</time></trkpt><trkpt lat="42.953840012604324" lon="12.835250996390267"><ele>992.3333333333333</ele><time>2026-04-18T11:29:14Z</time></trkpt><trkpt lat="42.95392224323215" lon="12.835306255006984"><ele>988.6666666666666</ele><time>2026-04-18T11:29:15Z</time></trkpt><trkpt lat="42.954006587265546" lon="12.83535370783384"><ele>985.0</ele><time>2026-04-18T11:29:16Z</time></trkpt><trkpt lat="42.95408095356955" lon="12.835390480641967"><ele>984.9999999999999</ele><time>2026-04-18T11:29:17Z</time></trkpt><trkpt lat="42.95416117121105" lon="12.835423135990855"><ele>985.0</ele><time>2026-04-18T11:29:18Z</time></trkpt><trkpt lat="42.95423770518689" lon="12.83546415132168"><ele>985.0</ele><time>2026-04-18T11:29:19Z</time></trkpt><trkpt lat="42.954319150269406" lon="12.835493753437285"><ele>985.0</ele><time>2026-04-18T11:29:20Z</time></trkpt><trkpt lat="42.954396075115945" lon="12.83553353980534"><ele>984.9999999999999</ele><time>2026-04-18T11:29:21Z</time></trkpt><trkpt lat="42.95448200765098" lon="12.83557580633401"><ele>985.0</ele><time>2026-04-18T11:29:22Z</time></trkpt><trkpt lat="42.95456434205956" lon="12.835594371056043"><ele>982.8333333333333</ele><time>2026-04-18T11:29:22.999Z</time></trkpt><trkpt lat="42.95467443079363" lon="12.835580627020427"><ele>980.6666666666666</ele><time>2026-04-18T11:29:24.999Z</time></trkpt><trkpt lat="42.95473201088847" lon="12.83553627688418"><ele>978.5</ele><time>2026-04-18T11:29:25.999Z</time></trkpt><trkpt lat="42.95478747765581" lon="12.835468536825196"><ele>976.3333333333333</ele><time>2026-04-18T11:29:26.999Z</time></trkpt><trkpt lat="42.95486335258992" lon="12.835381648717071"><ele>974.1666666666666</ele><time>2026-04-18T11:29:27.999Z</time></trkpt><trkpt lat="42.95493086883047" lon="12.835324034606987"><ele>972.0</ele><time>2026-04-18T11:29:28.999Z</time></trkpt><trkpt lat="42.954985468737085" lon="12.835259527845002"><ele>972.2</ele><time>2026-04-18T11:29:29.999Z</time></trkpt><trkpt lat="42.95504352625283" lon="12.835198834179222"><ele>972.4000000000001</ele><time>2026-04-18T11:29:31.999Z</time></trkpt><trkpt lat="42.95492481417782" lon="12.835137179047486"><ele>972.5999999999999</ele><time>2026-04-18T11:29:35.999Z</time></trkpt><trkpt lat="42.95486607553941" lon="12.835024531609008"><ele>972.8</ele><time>2026-04-18T11:29:36.999Z</time></trkpt><trkpt lat="42.954813692123224" lon="12.834882503852844"><ele>973.0</ele><time>2026-04-18T11:29:37.999Z</time></trkpt><trkpt lat="42.95480049558373" lon="12.834728083225174"><ele>973.0</ele><time>2026-04-18T11:29:38.999Z</time></trkpt><trkpt lat="42.954829235324915" lon="12.834579915883301"><ele>973.0</ele><time>2026-04-18T11:29:39.999Z</time></trkpt><trkpt lat="42.95484633512271" lon="12.834441102813729"><ele>973.0</ele><time>2026-04-18T11:29:40.999Z</time></trkpt><trkpt lat="42.954840811540315" lon="12.834285092243796"><ele>973.0</ele><time>2026-04-18T11:29:41.999Z</time></trkpt><trkpt lat="42.954858828784666" lon="12.834127299600476"><ele>973.0</ele><time>2026-04-18T11:29:42.999Z</time></trkpt><trkpt lat="42.954856597846046" lon="12.833988671370323"><ele>972.0</ele><time>2026-04-18T11:29:43.999Z</time></trkpt><trkpt lat="42.95483085169514" lon="12.833848485803237"><ele>971.0</ele><time>2026-04-18T11:29:44.999Z</time></trkpt><trkpt lat="42.954796210002804" lon="12.833724430053259"><ele>970.0</ele><time>2026-04-18T11:29:45.999Z</time></trkpt><trkpt lat="42.95475657871562" lon="12.833614251104722"><ele>969.0</ele><time>2026-04-18T11:29:46.999Z</time></trkpt><trkpt lat="42.95470063558867" lon="12.833538814234123"><ele>968.0</ele><time>2026-04-18T11:29:47.999Z</time></trkpt><trkpt lat="42.95461724739339" lon="12.83347347054778"><ele>966.0</ele><time>2026-04-18T11:29:48.999Z</time></trkpt><trkpt lat="42.95451171782972" lon="12.833415151778356"><ele>964.0</ele><time>2026-04-18T11:29:49.999Z</time></trkpt><trkpt lat="42.954434010825096" lon="12.83332599578087"><ele>962.0</ele><time>2026-04-18T11:29:50.999Z</time></trkpt><trkpt lat="42.95437221899383" lon="12.833193916710721"><ele>960.0</ele><time>2026-04-18T11:29:51.999Z</time></trkpt><trkpt lat="42.954294311182096" lon="12.83307899643705"><ele>958.0</ele><time>2026-04-18T11:29:52.999Z</time></trkpt><trkpt lat="42.954203218659785" lon="12.832984713888973"><ele>959.5</ele><time>2026-04-18T11:29:53.999Z</time></trkpt><trkpt lat="42.95407881739391" lon="12.832875358720944"><ele>961.0</ele><time>2026-04-18T11:29:54.999Z</time></trkpt><trkpt lat="42.95395382800176" lon="12.832769376987848"><ele>962.5</ele><time>2026-04-18T11:29:55.999Z</time></trkpt><trkpt lat="42.95386807742075" lon="12.832653646638656"><ele>964.0</ele><time>2026-04-18T11:29:56.999Z</time></trkpt><trkpt lat="42.95381176614178" lon="12.83251953672909"><ele>964.0</ele><time>2026-04-18T11:29:57.999Z</time></trkpt><trkpt lat="42.95377113276687" lon="12.832371851365611"><ele>964.0</ele><time>2026-04-18T11:29:58.999Z</time></trkpt><trkpt lat="42.95378568152899" lon="12.832186526643666"><ele>964.0</ele><time>2026-04-18T11:29:59.999Z</time></trkpt><trkpt lat="42.95378288388834" lon="12.831990878629394"><ele>964.0</ele><time>2026-04-18T11:30:00.999Z</time></trkpt><trkpt lat="42.95376513390573" lon="12.831845310176245"><ele>964.0</ele><time>2026-04-18T11:30:01.999Z</time></trkpt><trkpt lat="42.953764216825675" lon="12.831714104996001"><ele>964.0000000000001</ele><time>2026-04-18T11:30:02.999Z</time></trkpt><trkpt lat="42.953794267959736" lon="12.831623315573959"><ele>964.0000000000001</ele><time>2026-04-18T11:30:03.999Z</time></trkpt><trkpt lat="42.95388506319306" lon="12.831542887317463"><ele>964.0</ele><time>2026-04-18T11:30:04.999Z</time></trkpt><trkpt lat="42.95400248129529" lon="12.831523046377967"><ele>964.0</ele><time>2026-04-18T11:30:05.999Z</time></trkpt><trkpt lat="42.954120046515015" lon="12.831506525168068"><ele>964.0</ele><time>2026-04-18T11:30:06.999Z</time></trkpt><trkpt lat="42.9541949697327" lon="12.831441965736314"><ele>964.0</ele><time>2026-04-18T11:30:07.999Z</time></trkpt><trkpt lat="42.95427713647614" lon="12.831313213068713"><ele>964.0</ele><time>2026-04-18T11:30:08.999Z</time></trkpt><trkpt lat="42.95437371705099" lon="12.831186037811772"><ele>964.0</ele><time>2026-04-18T11:30:09.999Z</time></trkpt><trkpt lat="42.95443592087851" lon="12.831044957604394"><ele>962.0</ele><time>2026-04-18T11:30:10.999Z</time></trkpt><trkpt lat="42.95447835405071" lon="12.83090748573356"><ele>960.0000000000001</ele><time>2026-04-18T11:30:11.999Z</time></trkpt><trkpt lat="42.954492331843426" lon="12.8307895499188"><ele>958.0000000000001</ele><time>2026-04-18T11:30:12.999Z</time></trkpt><trkpt lat="42.95448344411097" lon="12.830703456967838"><ele>956.0</ele><time>2026-04-18T11:30:13.999Z</time></trkpt><trkpt lat="42.95443889128695" lon="12.83059756087119"><ele>954.0</ele><time>2026-04-18T11:30:14.999Z</time></trkpt><trkpt lat="42.95438783347452" lon="12.830469631072182"><ele>954.0</ele><time>2026-04-18T11:30:15.999Z</time></trkpt><trkpt lat="42.95435287536403" lon="12.830334885121422"><ele>954.0000000000001</ele><time>2026-04-18T11:30:16.999Z</time></trkpt><trkpt lat="42.95434967113041" lon="12.830235725664307"><ele>954.0000000000001</ele><time>2026-04-18T11:30:17.999Z</time></trkpt><trkpt lat="42.954466704687434" lon="12.830134927496793"><ele>954.0</ele><time>2026-04-18T11:30:19.999Z</time></trkpt><trkpt lat="42.9545560380797" lon="12.830102863744987"><ele>954.0</ele><time>2026-04-18T11:30:20.999Z</time></trkpt><trkpt lat="42.954648045392354" lon="12.83003425078908"><ele>955.25</ele><time>2026-04-18T11:30:21.999Z</time></trkpt><trkpt lat="42.95473147390775" lon="12.829902529187105"><ele>956.5</ele><time>2026-04-18T11:30:22.999Z</time></trkpt><trkpt lat="42.95481343486542" lon="12.829766453421719"><ele>957.75</ele><time>2026-04-18T11:30:23.999Z</time></trkpt><trkpt lat="42.95493104617483" lon="12.829669295329504"><ele>959.0</ele><time>2026-04-18T11:30:24.999Z</time></trkpt><trkpt lat="42.95502970682314" lon="12.829612473437802"><ele>958.0</ele><time>2026-04-18T11:30:25.999Z</time></trkpt><trkpt lat="42.95512851167618" lon="12.829560871705429"><ele>957.0000000000001</ele><time>2026-04-18T11:30:26.999Z</time></trkpt><trkpt lat="42.955219845671365" lon="12.829502121478225"><ele>956.0000000000001</ele><time>2026-04-18T11:30:27.999Z</time></trkpt><trkpt lat="42.95529432867723" lon="12.829442170187141"><ele>955.0</ele><time>2026-04-18T11:30:28.999Z</time></trkpt><trkpt lat="42.955338786225276" lon="12.829337131466925"><ele>954.0</ele><time>2026-04-18T11:30:29.999Z</time></trkpt><trkpt lat="42.955404750027284" lon="12.829228587627501"><ele>954.0</ele><time>2026-04-18T11:30:30.999Z</time></trkpt><trkpt lat="42.95544949642561" lon="12.829109459904526"><ele>954.0</ele><time>2026-04-18T11:30:31.999Z</time></trkpt><trkpt lat="42.9555178886595" lon="12.82900218520838"><ele>954.0</ele><time>2026-04-18T11:30:32.999Z</time></trkpt><trkpt lat="42.95562081001198" lon="12.828838079788675"><ele>954.0</ele><time>2026-04-18T11:30:33.999Z</time></trkpt><trkpt lat="42.95571478928084" lon="12.828719152008944"><ele>954.0</ele><time>2026-04-18T11:30:34.999Z</time></trkpt><trkpt lat="42.955804057162624" lon="12.82863060131154"><ele>954.0000000000001</ele><time>2026-04-18T11:30:35.999Z</time></trkpt><trkpt lat="42.955887672948016" lon="12.828582803704473"><ele>954.0000000000001</ele><time>2026-04-18T11:30:36.999Z</time></trkpt><trkpt lat="42.9559753778404" lon="12.828489268542295"><ele>954.0</ele><time>2026-04-18T11:30:38.999Z</time></trkpt><trkpt lat="42.95598742115267" lon="12.82839210234543"><ele>954.0</ele><time>2026-04-18T11:30:40Z</time></trkpt><trkpt lat="42.95603968179674" lon="12.82831285289373"><ele>953.2</ele><time>2026-04-18T11:30:42Z</time></trkpt><trkpt lat="42.956138499880666" lon="12.828306848030506"><ele>952.4000000000001</ele><time>2026-04-18T11:30:44Z</time></trkpt><trkpt lat="42.95621169883951" lon="12.828294570434613"><ele>951.6</ele><time>2026-04-18T11:30:45Z</time></trkpt><trkpt lat="42.95629474725631" lon="12.828281031054157"><ele>950.8</ele><time>2026-04-18T11:30:46Z</time></trkpt><trkpt lat="42.95638789000132" lon="12.82824956162853"><ele>950.0</ele><time>2026-04-18T11:30:47Z</time></trkpt><trkpt lat="42.956477887457524" lon="12.828194311567698"><ele>950.0</ele><time>2026-04-18T11:30:48Z</time></trkpt><trkpt lat="42.956585970869604" lon="12.8281168337585"><ele>950.0</ele><time>2026-04-18T11:30:49Z</time></trkpt><trkpt lat="42.95670862852221" lon="12.828028180086568"><ele>950.0</ele><time>2026-04-18T11:30:50Z</time></trkpt><trkpt lat="42.95682159776948" lon="12.827927465926765"><ele>950.0</ele><time>2026-04-18T11:30:51Z</time></trkpt><trkpt lat="42.95693621915888" lon="12.827834319220585"><ele>948.0</ele><time>2026-04-18T11:30:52Z</time></trkpt><trkpt lat="42.95704279837023" lon="12.827724413575826"><ele>946.0</ele><time>2026-04-18T11:30:53Z</time></trkpt><trkpt lat="42.957160264706005" lon="12.827599984682656"><ele>944.0</ele><time>2026-04-18T11:30:54Z</time></trkpt><trkpt lat="42.957273297845354" lon="12.827476156711661"><ele>942.0</ele><time>2026-04-18T11:30:55Z</time></trkpt><trkpt lat="42.95737640938452" lon="12.827349441862076"><ele>939.75</ele><time>2026-04-18T11:30:56Z</time></trkpt><trkpt lat="42.95748872943897" lon="12.827236070146407"><ele>937.5</ele><time>2026-04-18T11:30:57Z</time></trkpt><trkpt lat="42.9576056243391" lon="12.827147822146912"><ele>935.25</ele><time>2026-04-18T11:30:58Z</time></trkpt><trkpt lat="42.957723425185726" lon="12.8271030099201"><ele>933.0</ele><time>2026-04-18T11:30:59Z</time></trkpt><trkpt lat="42.95784050122358" lon="12.82706021410939"><ele>931.75</ele><time>2026-04-18T11:31:00Z</time></trkpt><trkpt lat="42.95794552141378" lon="12.826975095217485"><ele>930.5</ele><time>2026-04-18T11:31:01Z</time></trkpt><trkpt lat="42.958047607659935" lon="12.826874341182801"><ele>929.25</ele><time>2026-04-18T11:31:02Z</time></trkpt><trkpt lat="42.958148659887286" lon="12.826800008443977"><ele>928.0</ele><time>2026-04-18T11:31:03Z</time></trkpt><trkpt lat="42.958240988852516" lon="12.826768059672306"><ele>927.9999999999999</ele><time>2026-04-18T11:31:04Z</time></trkpt><trkpt lat="42.95831753859531" lon="12.826736315415785"><ele>928.0</ele><time>2026-04-18T11:31:21Z</time></trkpt><trkpt lat="42.95838004804873" lon="12.826759855594608"><ele>928.0</ele><time>2026-04-18T11:31:23Z</time></trkpt><trkpt lat="42.958450393479716" lon="12.826779040363238"><ele>928.0</ele><time>2026-04-18T11:31:25Z</time></trkpt><trkpt lat="42.95855673688409" lon="12.826800035640629"><ele>927.9999999999999</ele><time>2026-04-18T11:31:27Z</time></trkpt><trkpt lat="42.95862362465813" lon="12.826831416148439"><ele>928.0</ele><time>2026-04-18T11:31:28Z</time></trkpt><trkpt lat="42.95869903820561" lon="12.826885130334968"><ele>925.0</ele><time>2026-04-18T11:31:29Z</time></trkpt><trkpt lat="42.958792440762274" lon="12.826943381092851"><ele>922.0</ele><time>2026-04-18T11:31:30Z</time></trkpt><trkpt lat="42.958901305892454" lon="12.826979579770594"><ele>919.0</ele><time>2026-04-18T11:31:31Z</time></trkpt><trkpt lat="42.95902740760579" lon="12.827009016248045"><ele>916.0</ele><time>2026-04-18T11:31:32Z</time></trkpt><trkpt lat="42.95915537346808" lon="12.827040344356156"><ele>917.25</ele><time>2026-04-18T11:31:33Z</time></trkpt><trkpt lat="42.95930537009079" lon="12.827079724788643"><ele>918.5</ele><time>2026-04-18T11:31:34Z</time></trkpt><trkpt lat="42.95944047496677" lon="12.827130051766598"><ele>919.75</ele><time>2026-04-18T11:31:35Z</time></trkpt><trkpt lat="42.95955381999288" lon="12.827186676228655"><ele>921.0</ele><time>2026-04-18T11:31:36Z</time></trkpt><trkpt lat="42.95965434035518" lon="12.827239997601659"><ele>921.0</ele><time>2026-04-18T11:31:37Z</time></trkpt><trkpt lat="42.959744956539744" lon="12.827299989102107"><ele>920.9999999999999</ele><time>2026-04-18T11:31:38Z</time></trkpt><trkpt lat="42.959822965996395" lon="12.827347472261048"><ele>920.9999999999999</ele><time>2026-04-18T11:31:39Z</time></trkpt><trkpt lat="42.95989726308991" lon="12.827403071973897"><ele>921.0</ele><time>2026-04-18T11:31:40Z</time></trkpt><trkpt lat="42.95997572955671" lon="12.827473391469011"><ele>921.0</ele><time>2026-04-18T11:31:41Z</time></trkpt><trkpt lat="42.96004328851442" lon="12.827547078283018"><ele>920.0</ele><time>2026-04-18T11:31:42Z</time></trkpt><trkpt lat="42.960113645737195" lon="12.827625981546662"><ele>919.0</ele><time>2026-04-18T11:31:43Z</time></trkpt><trkpt lat="42.960184504372506" lon="12.827699208075467"><ele>918.0</ele><time>2026-04-18T11:31:44Z</time></trkpt><trkpt lat="42.96025139009652" lon="12.827761448717546"><ele>917.0</ele><time>2026-04-18T11:31:45Z</time></trkpt><trkpt lat="42.960315092194065" lon="12.827811200309748"><ele>916.0</ele><time>2026-04-18T11:31:46Z</time></trkpt><trkpt lat="42.96038458904312" lon="12.827848181707973"><ele>915.0</ele><time>2026-04-18T11:31:47Z</time></trkpt><trkpt lat="42.96045631745975" lon="12.827882993316262"><ele>915.0</ele><time>2026-04-18T11:31:48Z</time></trkpt><trkpt lat="42.96053407250232" lon="12.827913161944506"><ele>915.0</ele><time>2026-04-18T11:31:49Z</time></trkpt><trkpt lat="42.96061080733186" lon="12.827943937868811"><ele>915.0</ele><time>2026-04-18T11:31:50Z</time></trkpt><trkpt lat="42.96070171387296" lon="12.827965723536723"><ele>915.0</ele><time>2026-04-18T11:31:51Z</time></trkpt><trkpt lat="42.96079757871169" lon="12.827988229795528"><ele>915.0</ele><time>2026-04-18T11:31:52Z</time></trkpt><trkpt lat="42.960907226643904" lon="12.82801006348093"><ele>912.4</ele><time>2026-04-18T11:31:53Z</time></trkpt><trkpt lat="42.96099804703528" lon="12.828032101661405"><ele>909.8</ele><time>2026-04-18T11:31:54Z</time></trkpt><trkpt lat="42.961100180167996" lon="12.828045337487739"><ele>907.2</ele><time>2026-04-18T11:31:55Z</time></trkpt><trkpt lat="42.96120908799154" lon="12.828044510981261"><ele>904.6</ele><time>2026-04-18T11:31:56Z</time></trkpt><trkpt lat="42.96133276969528" lon="12.828048692117585"><ele>902.0</ele><time>2026-04-18T11:31:57Z</time></trkpt><trkpt lat="42.96144969474351" lon="12.828044928502328"><ele>902.0</ele><time>2026-04-18T11:31:58Z</time></trkpt><trkpt lat="42.96155873331283" lon="12.828055398880604"><ele>902.0</ele><time>2026-04-18T11:31:59Z</time></trkpt><trkpt lat="42.96168323616418" lon="12.82807147017926"><ele>902.0</ele><time>2026-04-18T11:32:00Z</time></trkpt><trkpt lat="42.96180230415818" lon="12.828076780372593"><ele>902.0</ele><time>2026-04-18T11:32:01Z</time></trkpt><trkpt lat="42.961924675290135" lon="12.828089974743248"><ele>899.0</ele><time>2026-04-18T11:32:02Z</time></trkpt><trkpt lat="42.96203590570577" lon="12.828108363082773"><ele>896.0</ele><time>2026-04-18T11:32:03Z</time></trkpt><trkpt lat="42.96214934348011" lon="12.828124517991585"><ele>893.0</ele><time>2026-04-18T11:32:04Z</time></trkpt><trkpt lat="42.962258833868894" lon="12.82815870875326"><ele>890.0</ele><time>2026-04-18T11:32:05Z</time></trkpt><trkpt lat="42.96234540224837" lon="12.828188206851728"><ele>887.0</ele><time>2026-04-18T11:32:06Z</time></trkpt><trkpt lat="42.96240780459937" lon="12.828227656463573"><ele>887.0</ele><time>2026-04-18T11:32:07Z</time></trkpt><trkpt lat="42.962464120880774" lon="12.828293467170353"><ele>887.0</ele><time>2026-04-18T11:32:08Z</time></trkpt><trkpt lat="42.96255584057645" lon="12.828432220670168"><ele>887.0</ele><time>2026-04-18T11:32:10Z</time></trkpt><trkpt lat="42.96262383974377" lon="12.828503656117867"><ele>887.0</ele><time>2026-04-18T11:32:11Z</time></trkpt><trkpt lat="42.96269323152772" lon="12.828560158853879"><ele>887.0</ele><time>2026-04-18T11:32:12Z</time></trkpt><trkpt lat="42.96275486100164" lon="12.828611568738397"><ele>887.2</ele><time>2026-04-18T11:32:13Z</time></trkpt><trkpt lat="42.96281050959631" lon="12.828661493408674"><ele>887.4000000000001</ele><time>2026-04-18T11:32:14Z</time></trkpt><trkpt lat="42.96293276149408" lon="12.82870692277016"><ele>887.5999999999999</ele><time>2026-04-18T11:32:16Z</time></trkpt><trkpt lat="42.96306340379259" lon="12.828721349053161"><ele>887.8</ele><time>2026-04-18T11:32:18Z</time></trkpt><trkpt lat="42.96313057369183" lon="12.828726301639534"><ele>888.0</ele><time>2026-04-18T11:32:18.999Z</time></trkpt><trkpt lat="42.96320258192025" lon="12.828746650743911"><ele>888.0</ele><time>2026-04-18T11:32:19.999Z</time></trkpt><trkpt lat="42.96327016977527" lon="12.828775194878817"><ele>888.0</ele><time>2026-04-18T11:32:20.999Z</time></trkpt><trkpt lat="42.9633631533734" lon="12.82885555767305"><ele>888.0</ele><time>2026-04-18T11:32:22.999Z</time></trkpt><trkpt lat="42.96345075814089" lon="12.82886443667639"><ele>888.0</ele><time>2026-04-18T11:32:25.999Z</time></trkpt><trkpt lat="42.96350246913551" lon="12.828929187189528"><ele>888.0</ele><time>2026-04-18T11:32:30.999Z</time></trkpt><trkpt lat="42.96341721694686" lon="12.828862059996007"><ele>888.0</ele><time>2026-04-18T11:32:36.999Z</time></trkpt><trkpt lat="42.96334689388063" lon="12.82886689921064"><ele>888.0</ele><time>2026-04-18T11:32:38.999Z</time></trkpt><trkpt lat="42.96326780643524" lon="12.828830857756923"><ele>888.0</ele><time>2026-04-18T11:32:40.999Z</time></trkpt><trkpt lat="42.963300728125425" lon="12.828753335078204"><ele>888.0</ele><time>2026-04-18T11:32:47Z</time></trkpt><trkpt lat="42.96336933233201" lon="12.828757436558558"><ele>888.0</ele><time>2026-04-18T11:32:50Z</time></trkpt><trkpt lat="42.96350254779346" lon="12.828761799800692"><ele>888.0</ele><time>2026-04-18T11:32:52Z</time></trkpt><trkpt lat="42.96356803648105" lon="12.82875888278792"><ele>888.0</ele><time>2026-04-18T11:32:53Z</time></trkpt><trkpt lat="42.963695285305896" lon="12.828758636670772"><ele>885.8333333333334</ele><time>2026-04-18T11:32:55Z</time></trkpt><trkpt lat="42.96377679538355" lon="12.828774621646522"><ele>883.6666666666667</ele><time>2026-04-18T11:32:56Z</time></trkpt><trkpt lat="42.96385246865868" lon="12.828797527267005"><ele>881.5</ele><time>2026-04-18T11:32:57Z</time></trkpt><trkpt lat="42.96392912868728" lon="12.828838308343695"><ele>879.3333333333334</ele><time>2026-04-18T11:32:58Z</time></trkpt><trkpt lat="42.964013432180245" lon="12.828874455035587"><ele>877.1666666666667</ele><time>2026-04-18T11:32:59Z</time></trkpt><trkpt lat="42.9640878549812" lon="12.828911941240783"><ele>875.0</ele><time>2026-04-18T11:33:00Z</time></trkpt><trkpt lat="42.96415244740793" lon="12.828964591692952"><ele>872.6</ele><time>2026-04-18T11:33:01Z</time></trkpt><trkpt lat="42.96423603770341" lon="12.829019028988505"><ele>870.2</ele><time>2026-04-18T11:33:02Z</time></trkpt><trkpt lat="42.96431751938908" lon="12.829080582826437"><ele>867.8</ele><time>2026-04-18T11:33:03Z</time></trkpt><trkpt lat="42.96440809119192" lon="12.829150122547178"><ele>865.4</ele><time>2026-04-18T11:33:04Z</time></trkpt><trkpt lat="42.96447141269536" lon="12.829214932189524"><ele>863.0</ele><time>2026-04-18T11:33:05Z</time></trkpt><trkpt lat="42.964558467860726" lon="12.829345918396388"><ele>863.0000000000001</ele><time>2026-04-18T11:33:07Z</time></trkpt><trkpt lat="42.964588278260784" lon="12.829425730716203"><ele>863.0</ele><time>2026-04-18T11:33:08Z</time></trkpt><trkpt lat="42.964663369455465" lon="12.82951940057411"><ele>863.0</ele><time>2026-04-18T11:33:10Z</time></trkpt><trkpt lat="42.964731987901054" lon="12.829509756537744"><ele>863.0</ele><time>2026-04-18T11:33:11Z</time></trkpt><trkpt lat="42.964834371709486" lon="12.829486926845226"><ele>863.0000000000001</ele><time>2026-04-18T11:33:12Z</time></trkpt><trkpt lat="42.96491473677047" lon="12.829494098250523"><ele>863.0</ele><time>2026-04-18T11:33:13Z</time></trkpt><trkpt lat="42.965023562373126" lon="12.829577428755254"><ele>858.0</ele><time>2026-04-18T11:33:15Z</time></trkpt><trkpt lat="42.965069717200485" lon="12.829666565701984"><ele>853.0</ele><time>2026-04-18T11:33:16Z</time></trkpt><trkpt lat="42.96511385257262" lon="12.829766049288434"><ele>848.0</ele><time>2026-04-18T11:33:17Z</time></trkpt><trkpt lat="42.96523668000122" lon="12.829896908146438"><ele>843.0</ele><time>2026-04-18T11:33:18Z</time></trkpt><trkpt lat="42.965314257853095" lon="12.829960879200893"><ele>838.0</ele><time>2026-04-18T11:33:19Z</time></trkpt><trkpt lat="42.965354614027696" lon="12.83004348132518"><ele>837.9999999999999</ele><time>2026-04-18T11:33:20Z</time></trkpt><trkpt lat="42.96539954321929" lon="12.830137240581614"><ele>838.0</ele><time>2026-04-18T11:33:21Z</time></trkpt><trkpt lat="42.96543977704223" lon="12.830214765999337"><ele>838.0</ele><time>2026-04-18T11:33:22Z</time></trkpt><trkpt lat="42.96548426962276" lon="12.830298805141185"><ele>838.0</ele><time>2026-04-18T11:33:23Z</time></trkpt><trkpt lat="42.965556655075055" lon="12.830378412468194"><ele>837.9999999999999</ele><time>2026-04-18T11:33:24Z</time></trkpt><trkpt lat="42.9656425249902" lon="12.830455324347692"><ele>838.0</ele><time>2026-04-18T11:33:25Z</time></trkpt><trkpt lat="42.96572961833657" lon="12.830530568164335"><ele>840.1666666666666</ele><time>2026-04-18T11:33:26Z</time></trkpt><trkpt lat="42.965804259029134" lon="12.83059963802416"><ele>842.3333333333333</ele><time>2026-04-18T11:33:27Z</time></trkpt><trkpt lat="42.965884511765246" lon="12.830689524365765"><ele>844.5</ele><time>2026-04-18T11:33:28Z</time></trkpt><trkpt lat="42.965961674014764" lon="12.830740529175548"><ele>846.6666666666667</ele><time>2026-04-18T11:33:29Z</time></trkpt><trkpt lat="42.966035768407544" lon="12.830780324041136"><ele>848.8333333333334</ele><time>2026-04-18T11:33:30Z</time></trkpt><trkpt lat="42.96610465898395" lon="12.830836057940566"><ele>851.0</ele><time>2026-04-18T11:33:31Z</time></trkpt><trkpt lat="42.966179417307025" lon="12.83089378490631"><ele>849.3333333333334</ele><time>2026-04-18T11:33:32Z</time></trkpt><trkpt lat="42.96624871019128" lon="12.830945427155084"><ele>847.6666666666667</ele><time>2026-04-18T11:33:33Z</time></trkpt><trkpt lat="42.96632446541534" lon="12.831003585283074"><ele>846.0</ele><time>2026-04-18T11:33:34Z</time></trkpt><trkpt lat="42.96639032474389" lon="12.831081564419438"><ele>844.3333333333333</ele><time>2026-04-18T11:33:35Z</time></trkpt><trkpt lat="42.96644724011445" lon="12.831171781525958"><ele>842.6666666666666</ele><time>2026-04-18T11:33:36Z</time></trkpt><trkpt lat="42.96650291227681" lon="12.83126831174639"><ele>841.0</ele><time>2026-04-18T11:33:37Z</time></trkpt><trkpt lat="42.96657408050481" lon="12.83133294689386"><ele>840.9999999999999</ele><time>2026-04-18T11:33:39Z</time></trkpt><trkpt lat="42.96666568822554" lon="12.831384315624538"><ele>841.0</ele><time>2026-04-18T11:33:42Z</time></trkpt><trkpt lat="42.96672734590029" lon="12.831442124291083"><ele>841.0</ele><time>2026-04-18T11:33:43Z</time></trkpt><trkpt lat="42.96678011326343" lon="12.831495067755178"><ele>841.0</ele><time>2026-04-18T11:33:45Z</time></trkpt><trkpt lat="42.96685306236113" lon="12.83155753616628"><ele>840.9999999999999</ele><time>2026-04-18T11:33:49Z</time></trkpt><trkpt lat="42.96692567326105" lon="12.831664291871078"><ele>841.0</ele><time>2026-04-18T11:33:51Z</time></trkpt><trkpt lat="42.96699327261236" lon="12.83173673575587"><ele>838.9999999999999</ele><time>2026-04-18T11:33:52Z</time></trkpt><trkpt lat="42.967072419171174" lon="12.831813133554146"><ele>837.0</ele><time>2026-04-18T11:33:53Z</time></trkpt><trkpt lat="42.967149402474625" lon="12.831870266860946"><ele>835.0</ele><time>2026-04-18T11:33:54Z</time></trkpt><trkpt lat="42.96721117179167" lon="12.831963014605893"><ele>833.0</ele><time>2026-04-18T11:33:55Z</time></trkpt><trkpt lat="42.96727496015876" lon="12.832026464978911"><ele>830.9999999999999</ele><time>2026-04-18T11:33:56Z</time></trkpt><trkpt lat="42.967353123090206" lon="12.832053870524215"><ele>829.0</ele><time>2026-04-18T11:33:57Z</time></trkpt><trkpt lat="42.96741302824388" lon="12.83210469301925"><ele>828.9999999999999</ele><time>2026-04-18T11:33:58Z</time></trkpt><trkpt lat="42.967466198247884" lon="12.832166830662688"><ele>829.0</ele><time>2026-04-18T11:33:59Z</time></trkpt><trkpt lat="42.9675174828648" lon="12.832251140147692"><ele>829.0</ele><time>2026-04-18T11:34:00Z</time></trkpt><trkpt lat="42.96758425389618" lon="12.832340724073182"><ele>829.0</ele><time>2026-04-18T11:34:01Z</time></trkpt><trkpt lat="42.96767642327966" lon="12.832409437316505"><ele>828.9999999999999</ele><time>2026-04-18T11:34:02Z</time></trkpt><trkpt lat="42.96776652381433" lon="12.832459788221763"><ele>829.0</ele><time>2026-04-18T11:34:03Z</time></trkpt><trkpt lat="42.967835884099905" lon="12.832530089235087"><ele>825.8000000000001</ele><time>2026-04-18T11:34:04Z</time></trkpt><trkpt lat="42.967963773992054" lon="12.832604886705099"><ele>822.6</ele><time>2026-04-18T11:34:06Z</time></trkpt><trkpt lat="42.96803203199061" lon="12.83267524827569"><ele>819.4</ele><time>2026-04-18T11:34:07Z</time></trkpt><trkpt lat="42.96809124982135" lon="12.83275124460812"><ele>816.2</ele><time>2026-04-18T11:34:08Z</time></trkpt><trkpt lat="42.96814508055789" lon="12.83282496891666"><ele>813.0</ele><time>2026-04-18T11:34:09Z</time></trkpt><trkpt lat="42.9681939468597" lon="12.832910328130525"><ele>813.0</ele><time>2026-04-18T11:34:10Z</time></trkpt><trkpt lat="42.96824000865063" lon="12.833011147363113"><ele>813.0</ele><time>2026-04-18T11:34:11Z</time></trkpt><trkpt lat="42.96829193954081" lon="12.833114028219073"><ele>813.0</ele><time>2026-04-18T11:34:13Z</time></trkpt><trkpt lat="42.9683037649008" lon="12.833211439382703"><ele>813.0</ele><time>2026-04-18T11:34:15Z</time></trkpt><trkpt lat="42.96833609080025" lon="12.833303669896383"><ele>813.0</ele><time>2026-04-18T11:34:17Z</time></trkpt><trkpt lat="42.96841638477548" lon="12.833395893606834"><ele>813.0</ele><time>2026-04-18T11:34:19Z</time></trkpt><trkpt lat="42.96844036715131" lon="12.83348285736534"><ele>812.0</ele><time>2026-04-18T11:34:20Z</time></trkpt><trkpt lat="42.96851560197835" lon="12.83355186354371"><ele>811.0</ele><time>2026-04-18T11:34:22Z</time></trkpt><trkpt lat="42.96860060826366" lon="12.833591111435469"><ele>810.0</ele><time>2026-04-18T11:34:23Z</time></trkpt><trkpt lat="42.968663319623765" lon="12.833627233950185"><ele>809.0</ele><time>2026-04-18T11:34:24Z</time></trkpt><trkpt lat="42.968750005885454" lon="12.833665698969373"><ele>808.0</ele><time>2026-04-18T11:34:26Z</time></trkpt><trkpt lat="42.96883254441825" lon="12.833663638909966"><ele>807.0</ele><time>2026-04-18T11:34:27Z</time></trkpt><trkpt lat="42.9689371657407" lon="12.833684246749874"><ele>807.0</ele><time>2026-04-18T11:34:29Z</time></trkpt><trkpt lat="42.96900609761138" lon="12.83370968533049"><ele>807.0</ele><time>2026-04-18T11:34:30Z</time></trkpt><trkpt lat="42.9690812833215" lon="12.833735835310371"><ele>807.0</ele><time>2026-04-18T11:34:31Z</time></trkpt><trkpt lat="42.969224705389834" lon="12.833733602254059"><ele>807.0</ele><time>2026-04-18T11:34:33Z</time></trkpt><trkpt lat="42.96929860995001" lon="12.833741894629764"><ele>807.0</ele><time>2026-04-18T11:34:34Z</time></trkpt><trkpt lat="42.969375500833095" lon="12.833763743631025"><ele>807.0</ele><time>2026-04-18T11:34:35Z</time></trkpt><trkpt lat="42.9694380989064" lon="12.83379290332739"><ele>802.0</ele><time>2026-04-18T11:34:36Z</time></trkpt><trkpt lat="42.969504033272806" lon="12.833838299441815"><ele>797.0</ele><time>2026-04-18T11:34:37Z</time></trkpt><trkpt lat="42.9695503437983" lon="12.83391727201832"><ele>792.0</ele><time>2026-04-18T11:34:38Z</time></trkpt><trkpt lat="42.969591917967925" lon="12.83399044044238"><ele>787.0</ele><time>2026-04-18T11:34:38.999Z</time></trkpt><trkpt lat="42.969665817026595" lon="12.834130901496383"><ele>782.0</ele><time>2026-04-18T11:34:40.999Z</time></trkpt><trkpt lat="42.96974923123338" lon="12.83422959016593"><ele>782.0000000000001</ele><time>2026-04-18T11:34:42.998Z</time></trkpt><trkpt lat="42.96982387281337" lon="12.834265870700609"><ele>782.0</ele><time>2026-04-18T11:34:44.998Z</time></trkpt><trkpt lat="42.96988346223221" lon="12.83430138674836"><ele>782.0</ele><time>2026-04-18T11:34:46.998Z</time></trkpt><trkpt lat="42.969969331774955" lon="12.834401659036278"><ele>782.0</ele><time>2026-04-18T11:34:48.998Z</time></trkpt><trkpt lat="42.970015562329756" lon="12.83446105755795"><ele>782.0000000000001</ele><time>2026-04-18T11:34:49.998Z</time></trkpt><trkpt lat="42.97005422860038" lon="12.834574314569803"><ele>782.0</ele><time>2026-04-18T11:34:51.999Z</time></trkpt><trkpt lat="42.97009448747299" lon="12.834646921424465"><ele>777.2</ele><time>2026-04-18T11:34:52.999Z</time></trkpt><trkpt lat="42.97017458822811" lon="12.834737264428428"><ele>772.4000000000001</ele><time>2026-04-18T11:34:54.999Z</time></trkpt><trkpt lat="42.97022465006987" lon="12.83487060303966"><ele>767.5999999999999</ele><time>2026-04-18T11:34:56.999Z</time></trkpt><trkpt lat="42.97025544816319" lon="12.834978725181243"><ele>762.8</ele><time>2026-04-18T11:34:58.999Z</time></trkpt><trkpt lat="42.97033246684866" lon="12.83505764547185"><ele>758.0</ele><time>2026-04-18T11:35:00.999Z</time></trkpt><trkpt lat="42.97042340858604" lon="12.835101462158752"><ele>758.0</ele><time>2026-04-18T11:35:02.999Z</time></trkpt><trkpt lat="42.970455600737374" lon="12.83517898791027"><ele>758.0</ele><time>2026-04-18T11:35:03.999Z</time></trkpt><trkpt lat="42.97048402739369" lon="12.835257508071097"><ele>758.0</ele><time>2026-04-18T11:35:04.999Z</time></trkpt><trkpt lat="42.97062474333214" lon="12.835368613293706"><ele>758.0</ele><time>2026-04-18T11:35:06.999Z</time></trkpt><trkpt lat="42.970635701030034" lon="12.835482677687235"><ele>758.0</ele><time>2026-04-18T11:35:08.999Z</time></trkpt><trkpt lat="42.97063398545517" lon="12.835625853759158"><ele>758.0</ele><time>2026-04-18T11:35:11.999Z</time></trkpt><trkpt lat="42.97078132030668" lon="12.83555525700682"><ele>758.0</ele><time>2026-04-18T11:35:18.999Z</time></trkpt><trkpt lat="42.9708483595021" lon="12.835476943232228"><ele>758.0</ele><time>2026-04-18T11:35:20.999Z</time></trkpt><trkpt lat="42.970919098049684" lon="12.835379284021961"><ele>758.0</ele><time>2026-04-18T11:35:22.999Z</time></trkpt><trkpt lat="42.97098515073775" lon="12.835297206802238"><ele>758.0</ele><time>2026-04-18T11:35:24.999Z</time></trkpt><trkpt lat="42.97106512728343" lon="12.835346532066843"><ele>752.5</ele><time>2026-04-18T11:35:27.999Z</time></trkpt><trkpt lat="42.97113608151932" lon="12.835448424967135"><ele>747.0</ele><time>2026-04-18T11:35:29.999Z</time></trkpt><trkpt lat="42.97110638748716" lon="12.835580479753967"><ele>741.5</ele><time>2026-04-18T11:35:32.999Z</time></trkpt><trkpt lat="42.97110421929322" lon="12.835667877591662"><ele>736.0</ele><time>2026-04-18T11:35:33.999Z</time></trkpt><trkpt lat="42.971106976932994" lon="12.835789946414124"><ele>730.5</ele><time>2026-04-18T11:35:35.999Z</time></trkpt><trkpt lat="42.97113714655775" lon="12.835868593742685"><ele>725.0</ele><time>2026-04-18T11:35:38.999Z</time></trkpt><trkpt lat="42.97113636341478" lon="12.835973500214061"><ele>725.0</ele><time>2026-04-18T11:35:47.999Z</time></trkpt><trkpt lat="42.97121149845978" lon="12.835983043186896"><ele>725.0</ele><time>2026-04-18T11:35:50.999Z</time></trkpt><trkpt lat="42.97126006502523" lon="12.835917064781368"><ele>725.0</ele><time>2026-04-18T11:35:52.999Z</time></trkpt><trkpt lat="42.97135694381436" lon="12.835878369473022"><ele>725.0</ele><time>2026-04-18T11:35:54.999Z</time></trkpt><trkpt lat="42.97145136627712" lon="12.835860186323687"><ele>725.0</ele><time>2026-04-18T11:35:57.999Z</time></trkpt><trkpt lat="42.971526234782665" lon="12.8358373752593"><ele>725.0</ele><time>2026-04-18T11:35:59.999Z</time></trkpt><trkpt lat="42.97159811018941" lon="12.83589600739674"><ele>724.6666666666666</ele><time>2026-04-18T11:36:02.999Z</time></trkpt><trkpt lat="42.97160449533858" lon="12.835999704873052"><ele>724.3333333333333</ele><time>2026-04-18T11:36:04.999Z</time></trkpt><trkpt lat="42.97163206034256" lon="12.83609037060932"><ele>724.0</ele><time>2026-04-18T11:36:06.999Z</time></trkpt><trkpt lat="42.971685006902725" lon="12.836215719692106"><ele>723.6666666666666</ele><time>2026-04-18T11:36:08.999Z</time></trkpt><trkpt lat="42.97172531822954" lon="12.836287140781291"><ele>723.3333333333334</ele><time>2026-04-18T11:36:09.999Z</time></trkpt><trkpt lat="42.97176781322769" lon="12.836369657179219"><ele>723.0</ele><time>2026-04-18T11:36:10.999Z</time></trkpt><trkpt lat="42.97184696211712" lon="12.836501448382112"><ele>716.5</ele><time>2026-04-18T11:36:12.999Z</time></trkpt><trkpt lat="42.97190867444353" lon="12.83667171022493"><ele>710.0</ele><time>2026-04-18T11:36:14.999Z</time></trkpt><trkpt lat="42.971946416103265" lon="12.836756551188271"><ele>703.5</ele><time>2026-04-18T11:36:15.999Z</time></trkpt><trkpt lat="42.97198442588738" lon="12.836842973929114"><ele>697.0</ele><time>2026-04-18T11:36:16.999Z</time></trkpt><trkpt lat="42.97201269520108" lon="12.836923874691388"><ele>690.5</ele><time>2026-04-18T11:36:17.999Z</time></trkpt><trkpt lat="42.97203493957247" lon="12.837034263321168"><ele>684.0</ele><time>2026-04-18T11:36:19.999Z</time></trkpt><trkpt lat="42.97201361208214" lon="12.837142376085602"><ele>684.0</ele><time>2026-04-18T11:36:22.999Z</time></trkpt><trkpt lat="42.97203458124888" lon="12.837238542649322"><ele>684.0</ele><time>2026-04-18T11:36:24.999Z</time></trkpt><trkpt lat="42.97203663486445" lon="12.837387103273025"><ele>684.0</ele><time>2026-04-18T11:36:26.999Z</time></trkpt><trkpt lat="42.97208542472974" lon="12.837516730957422"><ele>684.0</ele><time>2026-04-18T11:36:28.999Z</time></trkpt><trkpt lat="42.97209266337478" lon="12.83766815299439"><ele>684.0</ele><time>2026-04-18T11:36:30.999Z</time></trkpt><trkpt lat="42.97206715358294" lon="12.837797079700476"><ele>681.8000000000001</ele><time>2026-04-18T11:36:32.999Z</time></trkpt><trkpt lat="42.97206625559601" lon="12.83795295986351"><ele>679.6</ele><time>2026-04-18T11:36:34.999Z</time></trkpt><trkpt lat="42.97211106512535" lon="12.838043758065925"><ele>677.4</ele><time>2026-04-18T11:36:36.999Z</time></trkpt><trkpt lat="42.972146336952285" lon="12.838159185495778"><ele>675.2</ele><time>2026-04-18T11:36:38.999Z</time></trkpt><trkpt lat="42.97221107442367" lon="12.838220549162143"><ele>673.0</ele><time>2026-04-18T11:36:40.999Z</time></trkpt><trkpt lat="42.972312271523535" lon="12.838212334925993"><ele>673.0</ele><time>2026-04-18T11:36:43.999Z</time></trkpt><trkpt lat="42.972395994536775" lon="12.838164997843181"><ele>673.0</ele><time>2026-04-18T11:36:45.999Z</time></trkpt><trkpt lat="42.97246497977992" lon="12.838117054468972"><ele>673.0</ele><time>2026-04-18T11:36:47.998Z</time></trkpt><trkpt lat="42.97254253107289" lon="12.838077443324213"><ele>673.0</ele><time>2026-04-18T11:36:49.998Z</time></trkpt><trkpt lat="42.97263405365752" lon="12.837983447992697"><ele>673.0</ele><time>2026-04-18T11:36:51.998Z</time></trkpt><trkpt lat="42.972712024028986" lon="12.837880763167538"><ele>668.0</ele><time>2026-04-18T11:36:53.998Z</time></trkpt><trkpt lat="42.97279849151113" lon="12.837736343159062"><ele>663.0</ele><time>2026-04-18T11:36:55.998Z</time></trkpt><trkpt lat="42.9728986646051" lon="12.837626179532162"><ele>658.0</ele><time>2026-04-18T11:36:58Z</time></trkpt><trkpt lat="42.97295580889526" lon="12.837567220690238"><ele>653.0</ele><time>2026-04-18T11:37:00Z</time></trkpt><trkpt lat="42.973015539477615" lon="12.837529189353882"><ele>648.0</ele><time>2026-04-18T11:37:12Z</time></trkpt><trkpt lat="42.97305811225024" lon="12.837462906723728"><ele>648.0</ele><time>2026-04-18T11:37:14Z</time></trkpt><trkpt lat="42.97307320504168" lon="12.837333529928129"><ele>648.0</ele><time>2026-04-18T11:37:17Z</time></trkpt><trkpt lat="42.97314026151728" lon="12.837306203286536"><ele>648.0</ele><time>2026-04-18T11:37:19Z</time></trkpt><trkpt lat="42.97319794564315" lon="12.837361587615886"><ele>648.0</ele><time>2026-04-18T11:37:21Z</time></trkpt><trkpt lat="42.97327151857921" lon="12.83727853302563"><ele>648.0</ele><time>2026-04-18T11:37:23Z</time></trkpt><trkpt lat="42.973329937736125" lon="12.837160885596266"><ele>648.0</ele><time>2026-04-18T11:37:25Z</time></trkpt><trkpt lat="42.97339545261553" lon="12.837206269937719"><ele>643.8333333333334</ele><time>2026-04-18T11:37:26.999Z</time></trkpt><trkpt lat="42.97346657032216" lon="12.837265260209758"><ele>639.6666666666666</ele><time>2026-04-18T11:37:28.999Z</time></trkpt><trkpt lat="42.9735572895838" lon="12.83716815685685"><ele>635.5</ele><time>2026-04-18T11:37:30.999Z</time></trkpt><trkpt lat="42.973639845712285" lon="12.83721524465957"><ele>631.3333333333333</ele><time>2026-04-18T11:37:33.999Z</time></trkpt><trkpt lat="42.973725931534545" lon="12.837232285036881"><ele>627.1666666666666</ele><time>2026-04-18T11:37:35.999Z</time></trkpt><trkpt lat="42.97378953286967" lon="12.83725155503208"><ele>623.0</ele><time>2026-04-18T11:37:36.999Z</time></trkpt><trkpt lat="42.973851024815275" lon="12.83728132199697"><ele>623.0</ele><time>2026-04-18T11:37:37.999Z</time></trkpt><trkpt lat="42.97389583669016" lon="12.837362734040648"><ele>623.0</ele><time>2026-04-18T11:37:38.999Z</time></trkpt><trkpt lat="42.97394515520503" lon="12.837448199814375"><ele>623.0</ele><time>2026-04-18T11:37:39.999Z</time></trkpt><trkpt lat="42.97403989499822" lon="12.837475011406315"><ele>623.0</ele><time>2026-04-18T11:37:41.999Z</time></trkpt><trkpt lat="42.9741114012667" lon="12.837405384323052"><ele>623.0</ele><time>2026-04-18T11:37:43.999Z</time></trkpt><trkpt lat="42.974183828453725" lon="12.837351940215358"><ele>623.0</ele><time>2026-04-18T11:37:44.999Z</time></trkpt><trkpt lat="42.97426888982805" lon="12.837250767701523"><ele>619.5</ele><time>2026-04-18T11:37:46.999Z</time></trkpt><trkpt lat="42.97428121224395" lon="12.83714719089766"><ele>616.0</ele><time>2026-04-18T11:37:49.999Z</time></trkpt><trkpt lat="42.97432953548056" lon="12.837071873567632"><ele>612.5</ele><time>2026-04-18T11:37:51.999Z</time></trkpt><trkpt lat="42.97442580376876" lon="12.837085565537834"><ele>609.0</ele><time>2026-04-18T11:37:53.999Z</time></trkpt><trkpt lat="42.97450680399219" lon="12.837112318737125"><ele>605.5</ele><time>2026-04-18T11:37:55.999Z</time></trkpt><trkpt lat="42.974596735997885" lon="12.837162865384423"><ele>602.0</ele><time>2026-04-18T11:37:57.999Z</time></trkpt><trkpt lat="42.97468077919329" lon="12.837220299868966"><ele>602.0</ele><time>2026-04-18T11:37:59.999Z</time></trkpt><trkpt lat="42.97476357174046" lon="12.83730597728857"><ele>602.0</ele><time>2026-04-18T11:38:01.999Z</time></trkpt><trkpt lat="42.974854542426854" lon="12.837375789567512"><ele>602.0</ele><time>2026-04-18T11:38:03.999Z</time></trkpt><trkpt lat="42.974908504463336" lon="12.837432834740682"><ele>602.0</ele><time>2026-04-18T11:38:04.999Z</time></trkpt><trkpt lat="42.97495494707543" lon="12.837493313439142"><ele>602.0</ele><time>2026-04-18T11:38:05.999Z</time></trkpt><trkpt lat="42.975046891582075" lon="12.837544323029979"><ele>602.0</ele><time>2026-04-18T11:38:07.999Z</time></trkpt><trkpt lat="42.97504560063533" lon="12.837653748821026"><ele>599.5</ele><time>2026-04-18T11:38:09.999Z</time></trkpt><trkpt lat="42.97498076333895" lon="12.837751837985053"><ele>597.0</ele><time>2026-04-18T11:38:12.999Z</time></trkpt><trkpt lat="42.97499152571831" lon="12.837837755191297"><ele>594.5</ele><time>2026-04-18T11:38:14.999Z</time></trkpt><trkpt lat="42.9750823986741" lon="12.83783547555326"><ele>592.0</ele><time>2026-04-18T11:38:17.999Z</time></trkpt><trkpt lat="42.97516563609195" lon="12.83780392655971"><ele>589.5</ele><time>2026-04-18T11:38:18.999Z</time></trkpt><trkpt lat="42.975253111162935" lon="12.837774835034464"><ele>587.0</ele><time>2026-04-18T11:38:19.999Z</time></trkpt><trkpt lat="42.97534556726263" lon="12.837741394344272"><ele>585.8000000000001</ele><time>2026-04-18T11:38:20.999Z</time></trkpt><trkpt lat="42.975406090297135" lon="12.837639941317157"><ele>584.6</ele><time>2026-04-18T11:38:21.999Z</time></trkpt><trkpt lat="42.975480441288674" lon="12.83758299213356"><ele>583.4000000000001</ele><time>2026-04-18T11:38:22.999Z</time></trkpt><trkpt lat="42.97554440712797" lon="12.837513327737499"><ele>582.2</ele><time>2026-04-18T11:38:24.999Z</time></trkpt><trkpt lat="42.975548010827374" lon="12.837712327519634"><ele>581.0</ele><time>2026-04-18T11:38:26.999Z</time></trkpt><trkpt lat="42.9754949705455" lon="12.837848427293554"><ele>579.8</ele><time>2026-04-18T11:38:27.999Z</time></trkpt><trkpt lat="42.97542661874928" lon="12.83798197695035"><ele>578.6</ele><time>2026-04-18T11:38:28.999Z</time></trkpt><trkpt lat="42.97536745949905" lon="12.83809974179381"><ele>577.4</ele><time>2026-04-18T11:38:29.999Z</time></trkpt><trkpt lat="42.9753174938549" lon="12.838199948141467"><ele>576.2</ele><time>2026-04-18T11:38:30.999Z</time></trkpt><trkpt lat="42.97527393560862" lon="12.838308515563973"><ele>575.0</ele><time>2026-04-18T11:38:31.999Z</time></trkpt><trkpt lat="42.97524455208086" lon="12.838398284809257"><ele>575.0</ele><time>2026-04-18T11:38:32.999Z</time></trkpt><trkpt lat="42.97528565036265" lon="12.838512356323855"><ele>575.0</ele><time>2026-04-18T11:38:34.999Z</time></trkpt><trkpt lat="42.97542019907434" lon="12.8384703121053"><ele>575.0</ele><time>2026-04-18T11:38:36.999Z</time></trkpt><trkpt lat="42.975531791054145" lon="12.83840188485515"><ele>575.0</ele><time>2026-04-18T11:38:37.999Z</time></trkpt><trkpt lat="42.975648664110714" lon="12.838306599852197"><ele>575.0</ele><time>2026-04-18T11:38:38.999Z</time></trkpt><trkpt lat="42.97575876135287" lon="12.838217924657533"><ele>575.0</ele><time>2026-04-18T11:38:39.999Z</time></trkpt><trkpt lat="42.97585485864959" lon="12.838145365920683"><ele>575.0</ele><time>2026-04-18T11:38:40.999Z</time></trkpt><trkpt lat="42.975973654264735" lon="12.83805757638818"><ele>575.0</ele><time>2026-04-18T11:38:41.999Z</time></trkpt><trkpt lat="42.97608447896621" lon="12.837975677237011"><ele>572.0</ele><time>2026-04-18T11:38:42.999Z</time></trkpt><trkpt lat="42.9761671152953" lon="12.837910686887788"><ele>569.0</ele><time>2026-04-18T11:38:43.999Z</time></trkpt><trkpt lat="42.97626041640108" lon="12.83782970900649"><ele>566.0</ele><time>2026-04-18T11:38:44.999Z</time></trkpt><trkpt lat="42.976363217438866" lon="12.83771312013239"><ele>563.0</ele><time>2026-04-18T11:38:45.999Z</time></trkpt><trkpt lat="42.97648345157481" lon="12.83764696511309"><ele>563.0</ele><time>2026-04-18T11:38:46.999Z</time></trkpt><trkpt lat="42.97659181748879" lon="12.83756543363708"><ele>563.0</ele><time>2026-04-18T11:38:47.999Z</time></trkpt><trkpt lat="42.97668995256456" lon="12.837477456979743"><ele>563.0</ele><time>2026-04-18T11:38:48.999Z</time></trkpt><trkpt lat="42.97678332740728" lon="12.837379252667999"><ele>563.0</ele><time>2026-04-18T11:38:49.999Z</time></trkpt><trkpt lat="42.97687613373782" lon="12.837270653265836"><ele>562.6</ele><time>2026-04-18T11:38:50.999Z</time></trkpt><trkpt lat="42.97696696730229" lon="12.837172685977263"><ele>562.1999999999999</ele><time>2026-04-18T11:38:51.999Z</time></trkpt><trkpt lat="42.97705034933455" lon="12.837087881369733"><ele>561.8</ele><time>2026-04-18T11:38:52.999Z</time></trkpt><trkpt lat="42.97714399991193" lon="12.837105320214047"><ele>561.4</ele><time>2026-04-18T11:38:53.999Z</time></trkpt><trkpt lat="42.97721071484028" lon="12.83711963409611"><ele>561.0</ele><time>2026-04-18T11:38:54.999Z</time></trkpt><trkpt lat="42.97720811469265" lon="12.837269513897763"><ele>561.0</ele><time>2026-04-18T11:38:56.999Z</time></trkpt><trkpt lat="42.977204764029224" lon="12.837443176400894"><ele>561.0</ele><time>2026-04-18T11:38:58.999Z</time></trkpt><trkpt lat="42.97722121952671" lon="12.837589323255427"><ele>561.0</ele><time>2026-04-18T11:38:59.999Z</time></trkpt><trkpt lat="42.97725937847183" lon="12.837761901839267"><ele>561.0</ele><time>2026-04-18T11:39:00.999Z</time></trkpt><trkpt lat="42.9772961066831" lon="12.837931751788862"><ele>561.0</ele><time>2026-04-18T11:39:01.999Z</time></trkpt><trkpt lat="42.9773563657509" lon="12.83808683190695"><ele>561.0</ele><time>2026-04-18T11:39:02.999Z</time></trkpt><trkpt lat="42.97743538919061" lon="12.838209999302773"><ele>561.0</ele><time>2026-04-18T11:39:04Z</time></trkpt><trkpt lat="42.977525027934526" lon="12.83829408690329"><ele>561.0</ele><time>2026-04-18T11:39:05Z</time></trkpt><trkpt lat="42.97764351603351" lon="12.838351356032605"><ele>563.0</ele><time>2026-04-18T11:39:06Z</time></trkpt><trkpt lat="42.97776581806606" lon="12.838414774646537"><ele>565.0</ele><time>2026-04-18T11:39:07Z</time></trkpt><trkpt lat="42.97790078999803" lon="12.838462401689982"><ele>567.0</ele><time>2026-04-18T11:39:08Z</time></trkpt><trkpt lat="42.978008933416284" lon="12.838499387028778"><ele>569.0</ele><time>2026-04-18T11:39:09Z</time></trkpt><trkpt lat="42.978099167536236" lon="12.838509735983305"><ele>570.0</ele><time>2026-04-18T11:39:10Z</time></trkpt><trkpt lat="42.97817488410862" lon="12.838548139358224"><ele>571.0</ele><time>2026-04-18T11:39:11Z</time></trkpt><trkpt lat="42.97825489816038" lon="12.83860986848149"><ele>572.0</ele><time>2026-04-18T11:39:13Z</time></trkpt><trkpt lat="42.97818611140352" lon="12.838742542391444"><ele>573.0</ele><time>2026-04-18T11:39:16Z</time></trkpt><trkpt lat="42.978115390191334" lon="12.838814084008172"><ele>574.0</ele><time>2026-04-18T11:39:17Z</time></trkpt><trkpt lat="42.9780526063881" lon="12.838876416676998"><ele>574.0</ele><time>2026-04-18T11:39:18Z</time></trkpt><trkpt lat="42.97798851862664" lon="12.838951172382746"><ele>574.0</ele><time>2026-04-18T11:39:19Z</time></trkpt><trkpt lat="42.97791994063395" lon="12.839029348283042"><ele>574.0</ele><time>2026-04-18T11:39:20Z</time></trkpt><trkpt lat="42.977850833410145" lon="12.83910169230591"><ele>574.0</ele><time>2026-04-18T11:39:21Z</time></trkpt><trkpt lat="42.977782086112" lon="12.83917943233608"><ele>574.0</ele><time>2026-04-18T11:39:22Z</time></trkpt><trkpt lat="42.977723682888524" lon="12.83925308073502"><ele>574.0</ele><time>2026-04-18T11:39:23Z</time></trkpt><trkpt lat="42.97765530568733" lon="12.839324572640837"><ele>574.6666666666667</ele><time>2026-04-18T11:39:24Z</time></trkpt><trkpt lat="42.977597425985806" lon="12.839387348067469"><ele>575.3333333333334</ele><time>2026-04-18T11:39:25Z</time></trkpt><trkpt lat="42.977539559188756" lon="12.839458618442494"><ele>576.0</ele><time>2026-04-18T11:39:26Z</time></trkpt><trkpt lat="42.9774732119282" lon="12.839529372131151"><ele>576.6666666666666</ele><time>2026-04-18T11:39:27Z</time></trkpt><trkpt lat="42.97741757851982" lon="12.83958953507205"><ele>577.3333333333333</ele><time>2026-04-18T11:39:28Z</time></trkpt><trkpt lat="42.977303264557364" lon="12.839616938225625"><ele>578.0</ele><time>2026-04-18T11:39:30Z</time></trkpt><trkpt lat="42.97721407872402" lon="12.8396378858999"><ele>576.5714285714286</ele><time>2026-04-18T11:39:32Z</time></trkpt><trkpt lat="42.97716750154338" lon="12.83970474740498"><ele>575.1428571428571</ele><time>2026-04-18T11:39:34Z</time></trkpt><trkpt lat="42.97714344919393" lon="12.839790789238103"><ele>573.7142857142857</ele><time>2026-04-18T11:39:39Z</time></trkpt><trkpt lat="42.97707012270859" lon="12.839813200101224"><ele>572.2857142857142</ele><time>2026-04-18T11:40:58.999Z</time></trkpt><trkpt lat="42.97712608062868" lon="12.839770366716126"><ele>570.8571428571428</ele><time>2026-04-18T11:41:15Z</time></trkpt><trkpt lat="42.977156653694706" lon="12.839689573963913"><ele>569.4285714285714</ele><time>2026-04-18T11:42:32.999Z</time></trkpt><trkpt lat="42.97709130275175" lon="12.839640978628612"><ele>568.0</ele><time>2026-04-18T11:42:39.999Z</time></trkpt><trkpt lat="42.97702280609605" lon="12.83965086303184"><ele>568.0</ele><time>2026-04-18T11:42:43.999Z</time></trkpt><trkpt lat="42.976954239855125" lon="12.839669783672813"><ele>568.0</ele><time>2026-04-18T11:42:44.999Z</time></trkpt><trkpt lat="42.976937462354236" lon="12.839562524395381"><ele>568.0</ele><time>2026-04-18T11:42:45.999Z</time></trkpt><trkpt lat="42.976891746312354" lon="12.838997002003037"><ele>567.1999999999999</ele><time>2026-04-18T11:42:55.999Z</time></trkpt><trkpt lat="42.976801650768614" lon="12.83888950610824"><ele>566.4</ele><time>2026-04-18T11:42:57.999Z</time></trkpt><trkpt lat="42.976783144697386" lon="12.838802510306913"><ele>565.5999999999999</ele><time>2026-04-18T11:42:58.999Z</time></trkpt><trkpt lat="42.97674854059531" lon="12.838658255998071"><ele>564.8</ele><time>2026-04-18T11:43:00.999Z</time></trkpt><trkpt lat="42.9766889498074" lon="12.838554038267578"><ele>564.0</ele><time>2026-04-18T11:43:02.999Z</time></trkpt><trkpt lat="42.976622661265445" lon="12.838427288836327"><ele>563.8</ele><time>2026-04-18T11:43:04.999Z</time></trkpt><trkpt lat="42.97656391124525" lon="12.838289525653193"><ele>563.5999999999999</ele><time>2026-04-18T11:43:06.999Z</time></trkpt><trkpt lat="42.97651924065183" lon="12.838160619205482"><ele>563.4</ele><time>2026-04-18T11:43:08.999Z</time></trkpt><trkpt lat="42.97645873467795" lon="12.838050682377942"><ele>563.1999999999999</ele><time>2026-04-18T11:43:10.999Z</time></trkpt><trkpt lat="42.976394586064394" lon="12.837922056402181"><ele>563.0</ele><time>2026-04-18T11:43:13.058Z</time></trkpt><trkpt lat="42.97633365340528" lon="12.837797796978965"><ele>568.0</ele><time>2026-04-18T11:43:15.056Z</time></trkpt><trkpt lat="42.97722183260501" lon="12.83979189279992"><ele>568.0</ele><time>2026-04-18T11:43:25.074Z</time></trkpt><trkpt lat="42.977211608309204" lon="12.839606171813617"><ele>568.0</ele><time>2026-04-18T11:44:05.998Z</time></trkpt><trkpt lat="42.977160234352525" lon="12.839680425318626"><ele>568.0</ele><time>2026-04-18T11:45:11.999Z</time></trkpt><trkpt lat="42.97711110658539" lon="12.839760497571987"><ele>568.0</ele><time>2026-04-18T11:49:55.999Z</time></trkpt><trkpt lat="42.97715761135844" lon="12.83966714287579"><ele>568.0</ele><time>2026-04-18T12:39:49Z</time></trkpt><trkpt lat="42.97713868075725" lon="12.839755975967282"><ele>568.0</ele><time>2026-04-18T12:40:09Z</time></trkpt><trkpt lat="42.97712441904845" lon="12.839883039986086"><ele>568.0</ele><time>2026-04-18T12:40:10.999Z</time></trkpt><trkpt lat="42.977182674150384" lon="12.83994505004939"><ele>568.0</ele><time>2026-04-18T12:40:18.999Z</time></trkpt><trkpt lat="42.977289489771316" lon="12.839967264553575"><ele>568.0</ele><time>2026-04-18T12:42:02Z</time></trkpt><trkpt lat="42.97723546129482" lon="12.839907229499868"><ele>568.0</ele><time>2026-04-18T12:42:46.033Z</time></trkpt><trkpt lat="42.97714394247811" lon="12.83993630600014"><ele>568.0</ele><time>2026-04-18T12:46:51.995Z</time></trkpt><trkpt lat="42.977119236853824" lon="12.839843572467556"><ele>568.0</ele><time>2026-04-18T12:46:56Z</time></trkpt><trkpt lat="42.977143014410636" lon="12.839758859248011"><ele>568.0</ele><time>2026-04-18T12:47:51.999Z</time></trkpt><trkpt lat="42.97721132298696" lon="12.839720852743604"><ele>568.0</ele><time>2026-04-18T12:58:34.999Z</time></trkpt><trkpt lat="42.97716366796916" lon="12.839801125554827"><ele>568.0</ele><time>2026-04-18T12:58:40.999Z</time></trkpt><trkpt lat="42.977105905712115" lon="12.839839546859723"><ele>568.0</ele><time>2026-04-18T12:58:43.999Z</time></trkpt><trkpt lat="42.977058867328154" lon="12.83992905593971"><ele>568.0</ele><time>2026-04-18T12:58:47.999Z</time></trkpt><trkpt lat="42.97702548177959" lon="12.840030089611329"><ele>568.0</ele><time>2026-04-18T12:58:50.999Z</time></trkpt><trkpt lat="42.976986380965315" lon="12.84013623829761"><ele>569.3333333333334</ele><time>2026-04-18T12:58:52.999Z</time></trkpt><trkpt lat="42.97689303706721" lon="12.840237679229775"><ele>570.6666666666667</ele><time>2026-04-18T12:58:54.999Z</time></trkpt><trkpt lat="42.97683891145815" lon="12.840299928749422"><ele>572.0</ele><time>2026-04-18T12:58:55.999Z</time></trkpt><trkpt lat="42.97677664793628" lon="12.840367051153429"><ele>573.3333333333334</ele><time>2026-04-18T12:58:56.999Z</time></trkpt><trkpt lat="42.97672176218968" lon="12.840428130164078"><ele>574.6666666666666</ele><time>2026-04-18T12:58:57.999Z</time></trkpt><trkpt lat="42.97667131219637" lon="12.840485999956554"><ele>576.0</ele><time>2026-04-18T12:58:58.999Z</time></trkpt><trkpt lat="42.97660784541579" lon="12.840552519327437"><ele>576.0</ele><time>2026-04-18T12:58:59.999Z</time></trkpt><trkpt lat="42.97654616251838" lon="12.840631168109931"><ele>576.0</ele><time>2026-04-18T12:59:00.999Z</time></trkpt><trkpt lat="42.976481535735516" lon="12.840706488162756"><ele>576.0</ele><time>2026-04-18T12:59:01.999Z</time></trkpt><trkpt lat="42.9764199671759" lon="12.840778982814841"><ele>576.0</ele><time>2026-04-18T12:59:02.999Z</time></trkpt><trkpt lat="42.97636480445784" lon="12.84085230930169"><ele>576.0</ele><time>2026-04-18T12:59:03.999Z</time></trkpt><trkpt lat="42.97630353990581" lon="12.840927953712011"><ele>576.0</ele><time>2026-04-18T12:59:04.999Z</time></trkpt><trkpt lat="42.97624163685651" lon="12.840992282476474"><ele>581.4</ele><time>2026-04-18T12:59:05.999Z</time></trkpt><trkpt lat="42.97617050760557" lon="12.841055373712443"><ele>586.8</ele><time>2026-04-18T12:59:06.999Z</time></trkpt><trkpt lat="42.97611387890329" lon="12.84111402808813"><ele>592.1999999999999</ele><time>2026-04-18T12:59:07.999Z</time></trkpt><trkpt lat="42.97606811121422" lon="12.841174682078737"><ele>597.6</ele><time>2026-04-18T12:59:08.999Z</time></trkpt><trkpt lat="42.9759972325566" lon="12.841305691298265"><ele>603.0</ele><time>2026-04-18T12:59:10.999Z</time></trkpt><trkpt lat="42.975942752113674" lon="12.841454214528857"><ele>603.0</ele><time>2026-04-18T12:59:12.999Z</time></trkpt><trkpt lat="42.97591525701067" lon="12.841546948421321"><ele>603.0</ele><time>2026-04-18T12:59:13.999Z</time></trkpt><trkpt lat="42.97588941949067" lon="12.841631833801253"><ele>603.0</ele><time>2026-04-18T12:59:14.999Z</time></trkpt><trkpt lat="42.975865001988616" lon="12.841712985577733"><ele>603.0</ele><time>2026-04-18T12:59:15.999Z</time></trkpt><trkpt lat="42.975836970136285" lon="12.841797444021061"><ele>603.0</ele><time>2026-04-18T12:59:16.999Z</time></trkpt><trkpt lat="42.975817068003686" lon="12.841894890881475"><ele>603.0</ele><time>2026-04-18T12:59:17.999Z</time></trkpt><trkpt lat="42.975806681659826" lon="12.841986571967906"><ele>603.0</ele><time>2026-04-18T12:59:18.999Z</time></trkpt><trkpt lat="42.975804003606804" lon="12.842079218018117"><ele>600.0</ele><time>2026-04-18T12:59:19.999Z</time></trkpt><trkpt lat="42.975804524832334" lon="12.842170952817597"><ele>597.0</ele><time>2026-04-18T12:59:20.999Z</time></trkpt><trkpt lat="42.97581195120549" lon="12.842266426938217"><ele>594.0</ele><time>2026-04-18T12:59:21.999Z</time></trkpt><trkpt lat="42.97580997935186" lon="12.8423642605956"><ele>591.0</ele><time>2026-04-18T12:59:22.999Z</time></trkpt><trkpt lat="42.97580662386348" lon="12.842464783753579"><ele>588.0</ele><time>2026-04-18T12:59:23.999Z</time></trkpt><trkpt lat="42.97581006203574" lon="12.842566820160952"><ele>585.0</ele><time>2026-04-18T12:59:24.999Z</time></trkpt><trkpt lat="42.97580004985899" lon="12.842677925599535"><ele>582.0</ele><time>2026-04-18T12:59:25.999Z</time></trkpt><trkpt lat="42.97580114724039" lon="12.842773261727125"><ele>581.3333333333334</ele><time>2026-04-18T12:59:26.999Z</time></trkpt><trkpt lat="42.97580553353847" lon="12.842878640200041"><ele>580.6666666666666</ele><time>2026-04-18T12:59:27.999Z</time></trkpt><trkpt lat="42.97580735156335" lon="12.84298063096484"><ele>580.0</ele><time>2026-04-18T12:59:28.999Z</time></trkpt><trkpt lat="42.975825970104985" lon="12.84308700709999"><ele>579.3333333333333</ele><time>2026-04-18T12:59:30Z</time></trkpt><trkpt lat="42.975855947781554" lon="12.843187175688731"><ele>578.6666666666666</ele><time>2026-04-18T12:59:31Z</time></trkpt><trkpt lat="42.97590131972023" lon="12.843278916997491"><ele>578.0</ele><time>2026-04-18T12:59:32Z</time></trkpt><trkpt lat="42.97594867658531" lon="12.843356335791112"><ele>578.4285714285714</ele><time>2026-04-18T12:59:33Z</time></trkpt><trkpt lat="42.97600670815812" lon="12.843430003759103"><ele>578.8571428571429</ele><time>2026-04-18T12:59:34Z</time></trkpt><trkpt lat="42.9760618222579" lon="12.843496839355288"><ele>579.2857142857142</ele><time>2026-04-18T12:59:35Z</time></trkpt><trkpt lat="42.97611427888376" lon="12.843556661111549"><ele>579.7142857142858</ele><time>2026-04-18T12:59:36Z</time></trkpt><trkpt lat="42.97616491242431" lon="12.843618387293391"><ele>580.1428571428571</ele><time>2026-04-18T12:59:37Z</time></trkpt><trkpt lat="42.976210635421445" lon="12.843688851104577"><ele>580.5714285714286</ele><time>2026-04-18T12:59:38Z</time></trkpt><trkpt lat="42.97623281002153" lon="12.843772739897483"><ele>581.0</ele><time>2026-04-18T12:59:39Z</time></trkpt><trkpt lat="42.97619007889895" lon="12.843924963076645"><ele>581.0</ele><time>2026-04-18T12:59:41Z</time></trkpt><trkpt lat="42.97613458638749" lon="12.843983711717941"><ele>581.0</ele><time>2026-04-18T12:59:42Z</time></trkpt><trkpt lat="42.976067328176455" lon="12.844029886599916"><ele>581.0</ele><time>2026-04-18T12:59:43Z</time></trkpt><trkpt lat="42.975991091985065" lon="12.844054385394637"><ele>581.0</ele><time>2026-04-18T12:59:44Z</time></trkpt><trkpt lat="42.975913053042355" lon="12.844069138622642"><ele>581.0</ele><time>2026-04-18T12:59:45Z</time></trkpt><trkpt lat="42.97582767416735" lon="12.84408555064895"><ele>581.0</ele><time>2026-04-18T12:59:46Z</time></trkpt><trkpt lat="42.97573680206241" lon="12.844111992512532"><ele>580.0</ele><time>2026-04-18T12:59:47Z</time></trkpt><trkpt lat="42.975638176955286" lon="12.84414306452692"><ele>579.0</ele><time>2026-04-18T12:59:48Z</time></trkpt><trkpt lat="42.97554098991756" lon="12.844183609216694"><ele>578.0</ele><time>2026-04-18T12:59:49Z</time></trkpt><trkpt lat="42.97545015150156" lon="12.844228338336475"><ele>577.0</ele><time>2026-04-18T12:59:50Z</time></trkpt><trkpt lat="42.97536728136327" lon="12.844272632771826"><ele>576.0</ele><time>2026-04-18T12:59:51Z</time></trkpt><trkpt lat="42.975289245629845" lon="12.844324606592004"><ele>576.0</ele><time>2026-04-18T12:59:52Z</time></trkpt><trkpt lat="42.975205653684064" lon="12.844382466406104"><ele>576.0</ele><time>2026-04-18T12:59:53Z</time></trkpt><trkpt lat="42.975117147580434" lon="12.844453856698044"><ele>576.0</ele><time>2026-04-18T12:59:54Z</time></trkpt><trkpt lat="42.97502851991708" lon="12.844538909907342"><ele>576.0</ele><time>2026-04-18T12:59:55Z</time></trkpt><trkpt lat="42.97494111112394" lon="12.844635412877018"><ele>576.0</ele><time>2026-04-18T12:59:56Z</time></trkpt><trkpt lat="42.97485370515521" lon="12.84473843772764"><ele>579.25</ele><time>2026-04-18T12:59:57Z</time></trkpt><trkpt lat="42.97476431324488" lon="12.844848145992156"><ele>582.5</ele><time>2026-04-18T12:59:58Z</time></trkpt><trkpt lat="42.9746800966264" lon="12.844958321498698"><ele>585.75</ele><time>2026-04-18T12:59:59Z</time></trkpt><trkpt lat="42.97459686627452" lon="12.845065329872531"><ele>589.0</ele><time>2026-04-18T13:00:00Z</time></trkpt><trkpt lat="42.97448254393899" lon="12.845131473073968"><ele>595.75</ele><time>2026-04-18T13:00:01Z</time></trkpt><trkpt lat="42.974397118965435" lon="12.845218355795884"><ele>602.5</ele><time>2026-04-18T13:00:02Z</time></trkpt><trkpt lat="42.97430568344414" lon="12.84531779908018"><ele>609.25</ele><time>2026-04-18T13:00:03.058Z</time></trkpt><trkpt lat="42.97422553261757" lon="12.845413793284965"><ele>616.0</ele><time>2026-04-18T13:00:04.05Z</time></trkpt><trkpt lat="42.974145333225025" lon="12.845535323655533"><ele>621.5</ele><time>2026-04-18T13:00:05.052Z</time></trkpt><trkpt lat="42.974078608546094" lon="12.845650262421675"><ele>627.0</ele><time>2026-04-18T13:00:06.046Z</time></trkpt><trkpt lat="42.973056609043546" lon="12.846904595423196"><ele>630.0</ele><time>2026-04-18T13:00:09.865Z</time></trkpt><trkpt lat="42.972755816499415" lon="12.847173827973553"><ele>633.0</ele><time>2026-04-18T13:00:10.865Z</time></trkpt><trkpt lat="42.97244428480932" lon="12.84741706675848"><ele>616.5</ele><time>2026-04-18T13:00:11.863Z</time></trkpt><trkpt lat="42.97212131120844" lon="12.847636314176503"><ele>600.0</ele><time>2026-04-18T13:00:12.865Z</time></trkpt><trkpt lat="42.97176004655836" lon="12.847809112599181"><ele>597.0</ele><time>2026-04-18T13:00:23Z</time></trkpt><trkpt lat="42.971560237502345" lon="12.847900310790292"><ele>594.0</ele><time>2026-04-18T13:00:23.999Z</time></trkpt><trkpt lat="42.97142772720907" lon="12.847932554535308"><ele>591.0</ele><time>2026-04-18T13:00:24.999Z</time></trkpt><trkpt lat="42.971289608641165" lon="12.84801493900828"><ele>591.0</ele><time>2026-04-18T13:00:25.999Z</time></trkpt><trkpt lat="42.971143688040655" lon="12.84808604286134"><ele>591.0</ele><time>2026-04-18T13:00:26.999Z</time></trkpt><trkpt lat="42.97101675739973" lon="12.848130046369262"><ele>591.0</ele><time>2026-04-18T13:00:27.999Z</time></trkpt><trkpt lat="42.97089488764604" lon="12.848167852653859"><ele>591.0</ele><time>2026-04-18T13:00:28.999Z</time></trkpt><trkpt lat="42.97077459304533" lon="12.84821914994609"><ele>589.75</ele><time>2026-04-18T13:00:29.999Z</time></trkpt><trkpt lat="42.97065119022339" lon="12.848266440848167"><ele>588.5</ele><time>2026-04-18T13:00:30.999Z</time></trkpt><trkpt lat="42.9705275279367" lon="12.848308936381923"><ele>587.25</ele><time>2026-04-18T13:00:31.999Z</time></trkpt><trkpt lat="42.97040499431495" lon="12.848347710978013"><ele>586.0</ele><time>2026-04-18T13:00:32.999Z</time></trkpt><trkpt lat="42.970282256818024" lon="12.848388152062899"><ele>586.0</ele><time>2026-04-18T13:00:33.999Z</time></trkpt><trkpt lat="42.97017667635509" lon="12.8484182304664"><ele>586.0</ele><time>2026-04-18T13:00:34.999Z</time></trkpt><trkpt lat="42.97007673488621" lon="12.848449059667967"><ele>586.0</ele><time>2026-04-18T13:00:35.999Z</time></trkpt><trkpt lat="42.96999240739473" lon="12.848477178019952"><ele>586.0</ele><time>2026-04-18T13:00:36.999Z</time></trkpt><trkpt lat="42.96992428385503" lon="12.848495835163446"><ele>586.0</ele><time>2026-04-18T13:00:37.999Z</time></trkpt><trkpt lat="42.96983220630404" lon="12.848496665066897"><ele>587.1666666666667</ele><time>2026-04-18T13:00:39.999Z</time></trkpt><trkpt lat="42.96975757131403" lon="12.848487255456265"><ele>588.3333333333334</ele><time>2026-04-18T13:00:42.999Z</time></trkpt><trkpt lat="42.96969197008089" lon="12.84853690728221"><ele>589.5</ele><time>2026-04-18T13:01:01.999Z</time></trkpt><trkpt lat="42.96958623477518" lon="12.848583519918654"><ele>590.6666666666666</ele><time>2026-04-18T13:01:03.999Z</time></trkpt><trkpt lat="42.96951985140671" lon="12.848609149189608"><ele>591.8333333333333</ele><time>2026-04-18T13:01:04.999Z</time></trkpt><trkpt lat="42.969456388352064" lon="12.848639374078523"><ele>593.0</ele><time>2026-04-18T13:01:05.999Z</time></trkpt><trkpt lat="42.96938752971761" lon="12.848673034640369"><ele>593.0</ele><time>2026-04-18T13:01:06.999Z</time></trkpt><trkpt lat="42.969308967170456" lon="12.848710154370917"><ele>593.0</ele><time>2026-04-18T13:01:07.999Z</time></trkpt><trkpt lat="42.96922533188597" lon="12.84874412397651"><ele>593.0</ele><time>2026-04-18T13:01:08.999Z</time></trkpt><trkpt lat="42.96913718898422" lon="12.848766951270553"><ele>593.0</ele><time>2026-04-18T13:01:09.999Z</time></trkpt><trkpt lat="42.969050666355784" lon="12.848789929400308"><ele>593.0</ele><time>2026-04-18T13:01:10.999Z</time></trkpt><trkpt lat="42.968964612759386" lon="12.848817219401008"><ele>593.0</ele><time>2026-04-18T13:01:11.999Z</time></trkpt><trkpt lat="42.96888784514291" lon="12.848842753659623"><ele>592.8333333333333</ele><time>2026-04-18T13:01:12.999Z</time></trkpt><trkpt lat="42.968823944783026" lon="12.848865043566061"><ele>592.6666666666666</ele><time>2026-04-18T13:01:13.999Z</time></trkpt><trkpt lat="42.96872039612523" lon="12.848907619238243"><ele>592.5</ele><time>2026-04-18T13:01:15.999Z</time></trkpt><trkpt lat="42.96864628436224" lon="12.848943117058537"><ele>592.3333333333334</ele><time>2026-04-18T13:01:17.999Z</time></trkpt><trkpt lat="42.96857300375871" lon="12.848969364973561"><ele>592.1666666666667</ele><time>2026-04-18T13:01:19.999Z</time></trkpt><trkpt lat="42.968501143241205" lon="12.848970445397555"><ele>592.0</ele><time>2026-04-18T13:01:27.999Z</time></trkpt><trkpt lat="42.96857595528765" lon="12.849144062421002"><ele>592.0</ele><time>2026-04-18T13:01:32.999Z</time></trkpt><trkpt lat="42.96865668007807" lon="12.849131080645666"><ele>592.0</ele><time>2026-04-18T13:01:34.999Z</time></trkpt><trkpt lat="42.968722829612524" lon="12.849096961171417"><ele>592.0</ele><time>2026-04-18T13:01:36Z</time></trkpt><trkpt lat="42.96880048210008" lon="12.849077318717189"><ele>592.0</ele><time>2026-04-18T13:01:37Z</time></trkpt><trkpt lat="42.968876436726575" lon="12.849060272666298"><ele>592.0</ele><time>2026-04-18T13:01:38Z</time></trkpt><trkpt lat="42.96893946557235" lon="12.848933571643142"><ele>592.0</ele><time>2026-04-18T13:01:39Z</time></trkpt><trkpt lat="42.969027709652494" lon="12.848905259236972"><ele>592.0</ele><time>2026-04-18T13:01:40Z</time></trkpt><trkpt lat="42.96912076167777" lon="12.848875404263532"><ele>592.0</ele><time>2026-04-18T13:01:41Z</time></trkpt><trkpt lat="42.96921183980032" lon="12.848846182593789"><ele>592.0</ele><time>2026-04-18T13:01:42Z</time></trkpt><trkpt lat="42.969293870341694" lon="12.848819848502384"><ele>592.0</ele><time>2026-04-18T13:01:43Z</time></trkpt><trkpt lat="42.96939284532913" lon="12.848787869361715"><ele>592.0</ele><time>2026-04-18T13:01:44Z</time></trkpt><trkpt lat="42.96948143255044" lon="12.848759246563253"><ele>592.2</ele><time>2026-04-18T13:01:45Z</time></trkpt><trkpt lat="42.96958824844692" lon="12.848724734006044"><ele>592.4000000000001</ele><time>2026-04-18T13:01:46Z</time></trkpt><trkpt lat="42.96968340027987" lon="12.848693990178589"><ele>592.5999999999999</ele><time>2026-04-18T13:01:47Z</time></trkpt><trkpt lat="42.96978257338357" lon="12.8486619138448"><ele>592.8</ele><time>2026-04-18T13:01:48Z</time></trkpt><trkpt lat="42.96990266872108" lon="12.84862295856695"><ele>593.0</ele><time>2026-04-18T13:01:49Z</time></trkpt><trkpt lat="42.97002298655764" lon="12.848583931134526"><ele>591.6</ele><time>2026-04-18T13:01:50Z</time></trkpt><trkpt lat="42.97012568561254" lon="12.848550618653313"><ele>590.1999999999999</ele><time>2026-04-18T13:01:51Z</time></trkpt><trkpt lat="42.97022377280719" lon="12.848518802192435"><ele>588.8</ele><time>2026-04-18T13:01:52Z</time></trkpt><trkpt lat="42.97032148572477" lon="12.848487107086992"><ele>587.4</ele><time>2026-04-18T13:01:53Z</time></trkpt><trkpt lat="42.970425887209785" lon="12.848453242438076"><ele>586.0</ele><time>2026-04-18T13:01:54Z</time></trkpt><trkpt lat="42.970535589518754" lon="12.848417658338988"><ele>586.0</ele><time>2026-04-18T13:01:55Z</time></trkpt><trkpt lat="42.97064921738849" lon="12.848379526054911"><ele>586.0</ele><time>2026-04-18T13:01:56Z</time></trkpt><trkpt lat="42.97075392381928" lon="12.848344405662822"><ele>586.0</ele><time>2026-04-18T13:01:57Z</time></trkpt><trkpt lat="42.9708596800817" lon="12.848308147360587"><ele>586.0</ele><time>2026-04-18T13:01:58Z</time></trkpt><trkpt lat="42.97097075354791" lon="12.848269258484592"><ele>586.0</ele><time>2026-04-18T13:01:59Z</time></trkpt><trkpt lat="42.971097798697095" lon="12.848221050420145"><ele>587.0</ele><time>2026-04-18T13:02:00Z</time></trkpt><trkpt lat="42.97119075459663" lon="12.848185399190687"><ele>588.0</ele><time>2026-04-18T13:02:01Z</time></trkpt><trkpt lat="42.97129063417371" lon="12.848144648247757"><ele>589.0</ele><time>2026-04-18T13:02:02Z</time></trkpt><trkpt lat="42.971400418996595" lon="12.848099300090405"><ele>590.0</ele><time>2026-04-18T13:02:03Z</time></trkpt><trkpt lat="42.9715081933957" lon="12.848052283255164"><ele>591.0</ele><time>2026-04-18T13:02:04Z</time></trkpt><trkpt lat="42.97162373631047" lon="12.847999259664753"><ele>593.25</ele><time>2026-04-18T13:02:05Z</time></trkpt><trkpt lat="42.97175069880283" lon="12.847939697382408"><ele>595.5</ele><time>2026-04-18T13:02:06Z</time></trkpt><trkpt lat="42.971872666838244" lon="12.847875838904555"><ele>597.75</ele><time>2026-04-18T13:02:07Z</time></trkpt><trkpt lat="42.97199287654453" lon="12.847805970750827"><ele>600.0</ele><time>2026-04-18T13:02:08Z</time></trkpt><trkpt lat="42.972116433267956" lon="12.847727681861151"><ele>600.0</ele><time>2026-04-18T13:02:09Z</time></trkpt><trkpt lat="42.972227431896464" lon="12.84765458419402"><ele>600.0</ele><time>2026-04-18T13:02:10Z</time></trkpt><trkpt lat="42.972329725913454" lon="12.847587218866773"><ele>600.0</ele><time>2026-04-18T13:02:11Z</time></trkpt><trkpt lat="42.97240985374307" lon="12.847534452895685"><ele>600.0</ele><time>2026-04-18T13:02:12Z</time></trkpt><trkpt lat="42.9724983513067" lon="12.847467724886226"><ele>600.0</ele><time>2026-04-18T13:02:14Z</time></trkpt><trkpt lat="42.972677900116445" lon="12.847963637477562"><ele>603.1666666666666</ele><time>2026-04-18T13:02:16Z</time></trkpt><trkpt lat="42.97268836303644" lon="12.848064514785191"><ele>606.3333333333334</ele><time>2026-04-18T13:02:17Z</time></trkpt><trkpt lat="42.97271306432907" lon="12.84816627883867"><ele>609.5</ele><time>2026-04-18T13:02:18Z</time></trkpt><trkpt lat="42.972745646227516" lon="12.848250803051116"><ele>612.6666666666667</ele><time>2026-04-18T13:02:19Z</time></trkpt><trkpt lat="42.97286232079719" lon="12.848294782028267"><ele>615.8333333333334</ele><time>2026-04-18T13:02:21Z</time></trkpt><trkpt lat="42.97291567815492" lon="12.84824697891449"><ele>619.0</ele><time>2026-04-18T13:02:22Z</time></trkpt><trkpt lat="42.97296497512623" lon="12.848166041909085"><ele>619.0</ele><time>2026-04-18T13:02:23Z</time></trkpt><trkpt lat="42.973028037416746" lon="12.848107937819938"><ele>619.0</ele><time>2026-04-18T13:02:24Z</time></trkpt><trkpt lat="42.97310213006718" lon="12.848048610785906"><ele>619.0</ele><time>2026-04-18T13:02:25Z</time></trkpt><trkpt lat="42.97318513667737" lon="12.847989030515937"><ele>619.0</ele><time>2026-04-18T13:02:26Z</time></trkpt><trkpt lat="42.973268803788734" lon="12.847928836958843"><ele>619.0</ele><time>2026-04-18T13:02:27Z</time></trkpt><trkpt lat="42.97336434263017" lon="12.847882745274529"><ele>622.0</ele><time>2026-04-18T13:02:28Z</time></trkpt><trkpt lat="42.973450193562215" lon="12.847876327134532"><ele>625.0</ele><time>2026-04-18T13:02:29Z</time></trkpt><trkpt lat="42.97352064319397" lon="12.847885963240229"><ele>628.0</ele><time>2026-04-18T13:02:30Z</time></trkpt><trkpt lat="42.97364077291482" lon="12.847885268351371"><ele>631.0</ele><time>2026-04-18T13:02:31Z</time></trkpt><trkpt lat="42.97374949715571" lon="12.847878353856318"><ele>634.0</ele><time>2026-04-18T13:02:31.999Z</time></trkpt><trkpt lat="42.97384560256646" lon="12.847895714078522"><ele>634.0</ele><time>2026-04-18T13:02:32.999Z</time></trkpt><trkpt lat="42.973926945029646" lon="12.847899827146323"><ele>634.0</ele><time>2026-04-18T13:02:33.999Z</time></trkpt><trkpt lat="42.97401118294213" lon="12.847885250369053"><ele>634.0</ele><time>2026-04-18T13:02:34.999Z</time></trkpt><trkpt lat="42.97411529341976" lon="12.847883468023536"><ele>634.0</ele><time>2026-04-18T13:02:35.999Z</time></trkpt><trkpt lat="42.974222405835256" lon="12.8478835759456"><ele>634.0</ele><time>2026-04-18T13:02:36.999Z</time></trkpt><trkpt lat="42.97432770706203" lon="12.847889073483989"><ele>636.6</ele><time>2026-04-18T13:02:37.999Z</time></trkpt><trkpt lat="42.97442969754422" lon="12.84789035058431"><ele>639.2</ele><time>2026-04-18T13:02:38.999Z</time></trkpt><trkpt lat="42.97451926531755" lon="12.847925804858331"><ele>641.8000000000001</ele><time>2026-04-18T13:02:39.999Z</time></trkpt><trkpt lat="42.97458849040491" lon="12.847970859939066"><ele>644.4</ele><time>2026-04-18T13:02:40.999Z</time></trkpt><trkpt lat="42.97465537387922" lon="12.848009009161554"><ele>647.0</ele><time>2026-04-18T13:02:41.999Z</time></trkpt><trkpt lat="42.974787963415636" lon="12.847981377190623"><ele>647.0</ele><time>2026-04-18T13:02:43.999Z</time></trkpt><trkpt lat="42.974900401555566" lon="12.847968844782633"><ele>647.0</ele><time>2026-04-18T13:02:44.999Z</time></trkpt><trkpt lat="42.97498836678958" lon="12.847999146642758"><ele>647.0</ele><time>2026-04-18T13:02:45.999Z</time></trkpt><trkpt lat="42.97508454967395" lon="12.848054005703455"><ele>647.0</ele><time>2026-04-18T13:02:46.999Z</time></trkpt><trkpt lat="42.97516943700284" lon="12.848099932282635"><ele>647.0</ele><time>2026-04-18T13:02:47.999Z</time></trkpt><trkpt lat="42.97524677247828" lon="12.848167217503795"><ele>650.0</ele><time>2026-04-18T13:02:48.999Z</time></trkpt><trkpt lat="42.97534470444999" lon="12.848236581789367"><ele>653.0</ele><time>2026-04-18T13:02:49.999Z</time></trkpt><trkpt lat="42.9754402854593" lon="12.848302600258439"><ele>656.0</ele><time>2026-04-18T13:02:50.999Z</time></trkpt><trkpt lat="42.97553254187873" lon="12.84837327565418"><ele>659.0</ele><time>2026-04-18T13:02:51.999Z</time></trkpt><trkpt lat="42.97561494139604" lon="12.848442635993633"><ele>662.0</ele><time>2026-04-18T13:02:52.999Z</time></trkpt><trkpt lat="42.975692337134845" lon="12.848522157078452"><ele>663.6</ele><time>2026-04-18T13:02:53.999Z</time></trkpt><trkpt lat="42.975763227692575" lon="12.848625776913181"><ele>665.2</ele><time>2026-04-18T13:02:54.999Z</time></trkpt><trkpt lat="42.97580288354974" lon="12.848747695683615"><ele>666.8</ele><time>2026-04-18T13:02:55.999Z</time></trkpt><trkpt lat="42.97582377804223" lon="12.848877378806081"><ele>668.4</ele><time>2026-04-18T13:02:56.999Z</time></trkpt><trkpt lat="42.975845667298294" lon="12.849023180977877"><ele>670.0</ele><time>2026-04-18T13:02:57.999Z</time></trkpt><trkpt lat="42.97586889823484" lon="12.849126740007458"><ele>670.0</ele><time>2026-04-18T13:02:58.999Z</time></trkpt><trkpt lat="42.97586888167019" lon="12.849226468478749"><ele>670.0</ele><time>2026-04-18T13:03:00.999Z</time></trkpt><trkpt lat="42.975809485711366" lon="12.849276435666821"><ele>670.0</ele><time>2026-04-18T13:03:03.999Z</time></trkpt><trkpt lat="42.97576095952783" lon="12.849353539265458"><ele>670.0</ele><time>2026-04-18T13:03:05.999Z</time></trkpt><trkpt lat="42.97568943267754" lon="12.84942206575315"><ele>670.0</ele><time>2026-04-18T13:03:07.999Z</time></trkpt><trkpt lat="42.97570044335249" lon="12.849527979546778"><ele>670.0</ele><time>2026-04-18T13:03:09.999Z</time></trkpt><trkpt lat="42.975755083015905" lon="12.849661523835401"><ele>674.0</ele><time>2026-04-18T13:03:11.999Z</time></trkpt><trkpt lat="42.97579444013846" lon="12.84973585884139"><ele>678.0</ele><time>2026-04-18T13:03:12.999Z</time></trkpt><trkpt lat="42.97583473611919" lon="12.849808704681886"><ele>682.0</ele><time>2026-04-18T13:03:13.999Z</time></trkpt><trkpt lat="42.97593187926229" lon="12.849880584498043"><ele>686.0</ele><time>2026-04-18T13:03:15.999Z</time></trkpt><trkpt lat="42.9759830393753" lon="12.849938854018543"><ele>690.0</ele><time>2026-04-18T13:03:17.999Z</time></trkpt><trkpt lat="42.976056816265405" lon="12.849907665304297"><ele>694.0</ele><time>2026-04-18T13:03:22.999Z</time></trkpt><trkpt lat="42.976058002428154" lon="12.849782487286744"><ele>693.8333333333334</ele><time>2026-04-18T13:03:25.999Z</time></trkpt><trkpt lat="42.97607526231627" lon="12.849694089996357"><ele>693.6666666666667</ele><time>2026-04-18T13:03:26.999Z</time></trkpt><trkpt lat="42.97610631314909" lon="12.849534264546612"><ele>693.5</ele><time>2026-04-18T13:03:28.999Z</time></trkpt><trkpt lat="42.97612851159774" lon="12.849424228071154"><ele>693.3333333333334</ele><time>2026-04-18T13:03:31.999Z</time></trkpt><trkpt lat="42.97610863672376" lon="12.849330112565248"><ele>693.1666666666666</ele><time>2026-04-18T13:03:33.999Z</time></trkpt><trkpt lat="42.976105702160275" lon="12.84924237039614"><ele>693.0</ele><time>2026-04-18T13:03:34.999Z</time></trkpt><trkpt lat="42.976102538294086" lon="12.849127975400377"><ele>693.0</ele><time>2026-04-18T13:03:35.999Z</time></trkpt><trkpt lat="42.97609528848638" lon="12.849038458622012"><ele>693.0</ele><time>2026-04-18T13:03:36.999Z</time></trkpt><trkpt lat="42.97609379168043" lon="12.848921216024522"><ele>693.0</ele><time>2026-04-18T13:03:39.999Z</time></trkpt><trkpt lat="42.976075030741356" lon="12.848803671954602"><ele>693.0</ele><time>2026-04-18T13:03:44Z</time></trkpt><trkpt lat="42.97611194988894" lon="12.848910850533098"><ele>693.0</ele><time>2026-04-18T13:03:50Z</time></trkpt><trkpt lat="42.976123477236015" lon="12.849054330073008"><ele>693.0</ele><time>2026-04-18T13:03:52Z</time></trkpt><trkpt lat="42.97615622416753" lon="12.849146311191525"><ele>693.0</ele><time>2026-04-18T13:03:53Z</time></trkpt><trkpt lat="42.97618810596296" lon="12.849222222396328"><ele>693.0</ele><time>2026-04-18T13:03:54Z</time></trkpt><trkpt lat="42.976215796432115" lon="12.84930724758504"><ele>693.0</ele><time>2026-04-18T13:03:55Z</time></trkpt><trkpt lat="42.97623563435004" lon="12.84946900610275"><ele>693.0</ele><time>2026-04-18T13:03:57Z</time></trkpt><trkpt lat="42.97624345803421" lon="12.849611216381689"><ele>693.0</ele><time>2026-04-18T13:03:59Z</time></trkpt><trkpt lat="42.97626189688583" lon="12.849772499446376"><ele>695.5999999999999</ele><time>2026-04-18T13:04:01Z</time></trkpt><trkpt lat="42.976281249579756" lon="12.84986273194774"><ele>698.1999999999999</ele><time>2026-04-18T13:04:02Z</time></trkpt><trkpt lat="42.9763097329251" lon="12.8500102461512"><ele>700.8</ele><time>2026-04-18T13:04:04Z</time></trkpt><trkpt lat="42.9763211301232" lon="12.850150607086759"><ele>703.4</ele><time>2026-04-18T13:04:06Z</time></trkpt><trkpt lat="42.97633965393133" lon="12.850301076840646"><ele>706.0</ele><time>2026-04-18T13:04:08Z</time></trkpt><trkpt lat="42.9763748387539" lon="12.850453084135813"><ele>709.0</ele><time>2026-04-18T13:04:10Z</time></trkpt><trkpt lat="42.97640296941136" lon="12.850534108034267"><ele>712.0</ele><time>2026-04-18T13:04:11Z</time></trkpt><trkpt lat="42.976470915844054" lon="12.850638254384085"><ele>715.0</ele><time>2026-04-18T13:04:13Z</time></trkpt><trkpt lat="42.97647405115095" lon="12.850732840283955"><ele>718.0</ele><time>2026-04-18T13:04:15Z</time></trkpt><trkpt lat="42.97651736673615" lon="12.850894365914927"><ele>721.0</ele><time>2026-04-18T13:04:17Z</time></trkpt><trkpt lat="42.976537312747176" lon="12.851012850333351"><ele>723.6666666666667</ele><time>2026-04-18T13:04:19Z</time></trkpt><trkpt lat="42.97656571293519" lon="12.851092840574834"><ele>726.3333333333334</ele><time>2026-04-18T13:04:21Z</time></trkpt><trkpt lat="42.976589674491485" lon="12.851210795697916"><ele>729.0</ele><time>2026-04-18T13:04:23Z</time></trkpt><trkpt lat="42.97660373935264" lon="12.851295638272639"><ele>731.6666666666666</ele><time>2026-04-18T13:04:25Z</time></trkpt><trkpt lat="42.97664398895623" lon="12.851379045074543"><ele>734.3333333333333</ele><time>2026-04-18T13:04:28Z</time></trkpt><trkpt lat="42.9766745917801" lon="12.851465261272397"><ele>737.0</ele><time>2026-04-18T13:04:36Z</time></trkpt><trkpt lat="42.976723811633896" lon="12.851590856117312"><ele>739.8333333333333</ele><time>2026-04-18T13:04:40Z</time></trkpt><trkpt lat="42.97678406809842" lon="12.851699683992619"><ele>742.6666666666666</ele><time>2026-04-18T13:04:42Z</time></trkpt><trkpt lat="42.976841523885476" lon="12.85178505125437"><ele>745.5</ele><time>2026-04-18T13:04:43.999Z</time></trkpt><trkpt lat="42.97688682751622" lon="12.851900431064289"><ele>748.3333333333334</ele><time>2026-04-18T13:04:47.999Z</time></trkpt><trkpt lat="42.97693666122032" lon="12.85198398409491"><ele>751.1666666666667</ele><time>2026-04-18T13:04:49.999Z</time></trkpt><trkpt lat="42.976966910004265" lon="12.852073334137408"><ele>754.0</ele><time>2026-04-18T13:04:51.999Z</time></trkpt><trkpt lat="42.97702956736907" lon="12.852149220231642"><ele>755.1666666666667</ele><time>2026-04-18T13:04:53.999Z</time></trkpt><trkpt lat="42.97707563473447" lon="12.85222836011022"><ele>756.3333333333334</ele><time>2026-04-18T13:04:56.999Z</time></trkpt><trkpt lat="42.977113273981175" lon="12.852298483356655"><ele>757.5</ele><time>2026-04-18T13:04:59.999Z</time></trkpt><trkpt lat="42.97715385099224" lon="12.85238943708305"><ele>758.6666666666666</ele><time>2026-04-18T13:05:02.999Z</time></trkpt><trkpt lat="42.97722316876668" lon="12.852444368600116"><ele>759.8333333333333</ele><time>2026-04-18T13:05:05.999Z</time></trkpt><trkpt lat="42.977250845804164" lon="12.852534603809376"><ele>761.0</ele><time>2026-04-18T13:05:07.999Z</time></trkpt><trkpt lat="42.97725159088545" lon="12.852673003798213"><ele>762.7142857142857</ele><time>2026-04-18T13:05:09.999Z</time></trkpt><trkpt lat="42.9772517732739" lon="12.852762897353804"><ele>764.4285714285714</ele><time>2026-04-18T13:05:10.999Z</time></trkpt><trkpt lat="42.97724598186395" lon="12.85286336096611"><ele>766.1428571428571</ele><time>2026-04-18T13:05:11.999Z</time></trkpt><trkpt lat="42.97724718408087" lon="12.852953137787413"><ele>767.8571428571429</ele><time>2026-04-18T13:05:12.999Z</time></trkpt><trkpt lat="42.97724553889073" lon="12.853089024115233"><ele>769.5714285714286</ele><time>2026-04-18T13:05:14.999Z</time></trkpt><trkpt lat="42.9772616076713" lon="12.853182217701098"><ele>771.2857142857142</ele><time>2026-04-18T13:05:15.999Z</time></trkpt><trkpt lat="42.977264623628585" lon="12.853279124498558"><ele>773.0</ele><time>2026-04-18T13:05:16.999Z</time></trkpt><trkpt lat="42.97725723715987" lon="12.853405789851928"><ele>775.0</ele><time>2026-04-18T13:05:17.999Z</time></trkpt><trkpt lat="42.97725059216946" lon="12.85353824945001"><ele>777.0</ele><time>2026-04-18T13:05:18.999Z</time></trkpt><trkpt lat="42.97725217191948" lon="12.853679181328847"><ele>779.0</ele><time>2026-04-18T13:05:19.999Z</time></trkpt><trkpt lat="42.97725002607837" lon="12.853866395191217"><ele>781.0</ele><time>2026-04-18T13:05:21.999Z</time></trkpt><trkpt lat="42.97722218606114" lon="12.853974298819653"><ele>783.0</ele><time>2026-04-18T13:05:22.999Z</time></trkpt><trkpt lat="42.97720035839819" lon="12.854075302422109"><ele>783.0</ele><time>2026-04-18T13:05:23.999Z</time></trkpt><trkpt lat="42.97717244255858" lon="12.854216221873841"><ele>783.0</ele><time>2026-04-18T13:05:24.999Z</time></trkpt><trkpt lat="42.977120902630986" lon="12.854333581028767"><ele>783.0</ele><time>2026-04-18T13:05:26.999Z</time></trkpt><trkpt lat="42.97708630080749" lon="12.854475773556379"><ele>783.0</ele><time>2026-04-18T13:05:29.999Z</time></trkpt><trkpt lat="42.97707758823053" lon="12.854621245597064"><ele>783.0</ele><time>2026-04-18T13:05:31.999Z</time></trkpt><trkpt lat="42.97707796054345" lon="12.854755499652132"><ele>783.1666666666666</ele><time>2026-04-18T13:05:33.999Z</time></trkpt><trkpt lat="42.97708901678414" lon="12.854928828689728"><ele>783.3333333333333</ele><time>2026-04-18T13:05:35.999Z</time></trkpt><trkpt lat="42.97709852257277" lon="12.855024633938028"><ele>783.5</ele><time>2026-04-18T13:05:36.999Z</time></trkpt><trkpt lat="42.97711159514567" lon="12.855114588644966"><ele>783.6666666666666</ele><time>2026-04-18T13:05:37.999Z</time></trkpt><trkpt lat="42.97713195540635" lon="12.855204433934356"><ele>783.8333333333333</ele><time>2026-04-18T13:05:38.999Z</time></trkpt><trkpt lat="42.97715952941289" lon="12.855300101310432"><ele>784.0</ele><time>2026-04-18T13:05:39.999Z</time></trkpt><trkpt lat="42.97719835566142" lon="12.855377833963416"><ele>781.8000000000001</ele><time>2026-04-18T13:05:40.999Z</time></trkpt><trkpt lat="42.97724496724581" lon="12.85544856713956"><ele>779.6</ele><time>2026-04-18T13:05:41.999Z</time></trkpt><trkpt lat="42.97729398280498" lon="12.855504929163478"><ele>777.4</ele><time>2026-04-18T13:05:42.999Z</time></trkpt><trkpt lat="42.97741245212872" lon="12.85559452847526"><ele>775.2</ele><time>2026-04-18T13:05:44.999Z</time></trkpt><trkpt lat="42.97751108238689" lon="12.855640378432215"><ele>773.0</ele><time>2026-04-18T13:05:45.999Z</time></trkpt><trkpt lat="42.977610367009014" lon="12.855680835721657"><ele>773.0</ele><time>2026-04-18T13:05:46.999Z</time></trkpt><trkpt lat="42.97771065298199" lon="12.855727489090272"><ele>773.0</ele><time>2026-04-18T13:05:48Z</time></trkpt><trkpt lat="42.97780405837675" lon="12.855769386407742"><ele>773.0</ele><time>2026-04-18T13:05:49Z</time></trkpt><trkpt lat="42.97789604425738" lon="12.855823608633752"><ele>773.0</ele><time>2026-04-18T13:05:50Z</time></trkpt><trkpt lat="42.97798443479639" lon="12.855881838271083"><ele>773.0</ele><time>2026-04-18T13:05:51Z</time></trkpt><trkpt lat="42.97806759704651" lon="12.855949262682453"><ele>771.5000000000001</ele><time>2026-04-18T13:05:52Z</time></trkpt><trkpt lat="42.97813445401096" lon="12.856019936850673"><ele>770.0</ele><time>2026-04-18T13:05:53Z</time></trkpt><trkpt lat="42.97820088402363" lon="12.856118815970046"><ele>768.5</ele><time>2026-04-18T13:05:55Z</time></trkpt><trkpt lat="42.97829247329512" lon="12.856186269712953"><ele>767.0</ele><time>2026-04-18T13:05:57Z</time></trkpt><trkpt lat="42.97835560458568" lon="12.856149651400267"><ele>765.5</ele><time>2026-04-18T13:05:59Z</time></trkpt><trkpt lat="42.97843201352272" lon="12.856135868356661"><ele>764.0</ele><time>2026-04-18T13:06:01Z</time></trkpt><trkpt lat="42.978523428120425" lon="12.856122875122406"><ele>764.0</ele><time>2026-04-18T13:06:03Z</time></trkpt><trkpt lat="42.97864949854366" lon="12.856124666327483"><ele>764.0</ele><time>2026-04-18T13:06:05Z</time></trkpt><trkpt lat="42.97872141457837" lon="12.856117823936891"><ele>764.0</ele><time>2026-04-18T13:06:06Z</time></trkpt><trkpt lat="42.97879135235656" lon="12.856100487911714"><ele>764.0</ele><time>2026-04-18T13:06:07Z</time></trkpt><trkpt lat="42.97888026361836" lon="12.856073316817113"><ele>764.0</ele><time>2026-04-18T13:06:08Z</time></trkpt><trkpt lat="42.97898724716419" lon="12.856070780905446"><ele>764.0</ele><time>2026-04-18T13:06:09Z</time></trkpt><trkpt lat="42.97908651600945" lon="12.856046052878506"><ele>764.0</ele><time>2026-04-18T13:06:10Z</time></trkpt><trkpt lat="42.9791710229063" lon="12.856030972151126"><ele>764.0</ele><time>2026-04-18T13:06:11Z</time></trkpt><trkpt lat="42.97926939906306" lon="12.856010354543125"><ele>764.0</ele><time>2026-04-18T13:06:12Z</time></trkpt><trkpt lat="42.979366608305504" lon="12.855998928894598"><ele>764.0</ele><time>2026-04-18T13:06:13Z</time></trkpt><trkpt lat="42.979476642528226" lon="12.85598428000977"><ele>764.2</ele><time>2026-04-18T13:06:14Z</time></trkpt><trkpt lat="42.979583381175246" lon="12.85596646018991"><ele>764.4000000000001</ele><time>2026-04-18T13:06:15Z</time></trkpt><trkpt lat="42.97968843572186" lon="12.85594310643611"><ele>764.6</ele><time>2026-04-18T13:06:16Z</time></trkpt><trkpt lat="42.97979088764704" lon="12.855920497027558"><ele>764.8</ele><time>2026-04-18T13:06:17Z</time></trkpt><trkpt lat="42.97988167285675" lon="12.855908570582933"><ele>765.0</ele><time>2026-04-18T13:06:18Z</time></trkpt><trkpt lat="42.979966297105236" lon="12.85593063862891"><ele>765.6</ele><time>2026-04-18T13:06:19Z</time></trkpt><trkpt lat="42.980065169568" lon="12.8559992728737"><ele>766.2</ele><time>2026-04-18T13:06:20Z</time></trkpt><trkpt lat="42.980157033372535" lon="12.856085866483907"><ele>766.8</ele><time>2026-04-18T13:06:21Z</time></trkpt><trkpt lat="42.98023273913431" lon="12.856156614460172"><ele>767.4</ele><time>2026-04-18T13:06:22Z</time></trkpt><trkpt lat="42.98032137260314" lon="12.856199079644687"><ele>768.0</ele><time>2026-04-18T13:06:23Z</time></trkpt><trkpt lat="42.98042042755616" lon="12.856226720198991"><ele>768.0</ele><time>2026-04-18T13:06:24Z</time></trkpt><trkpt lat="42.98053382292299" lon="12.85622475744681"><ele>768.0</ele><time>2026-04-18T13:06:25Z</time></trkpt><trkpt lat="42.980639187850166" lon="12.85619309981728"><ele>768.0</ele><time>2026-04-18T13:06:26Z</time></trkpt><trkpt lat="42.980726795185134" lon="12.856140516793506"><ele>768.0</ele><time>2026-04-18T13:06:27Z</time></trkpt><trkpt lat="42.98080724807306" lon="12.856066289471315"><ele>768.0</ele><time>2026-04-18T13:06:28Z</time></trkpt><trkpt lat="42.98089434966594" lon="12.85598719998742"><ele>763.8</ele><time>2026-04-18T13:06:29Z</time></trkpt><trkpt lat="42.98098280776961" lon="12.855911707662308"><ele>759.5999999999999</ele><time>2026-04-18T13:06:30Z</time></trkpt><trkpt lat="42.98106943356186" lon="12.855850476825877"><ele>755.4000000000001</ele><time>2026-04-18T13:06:31Z</time></trkpt><trkpt lat="42.981164217925155" lon="12.855810343683984"><ele>751.2</ele><time>2026-04-18T13:06:32Z</time></trkpt><trkpt lat="42.981232782938655" lon="12.85580043620549"><ele>747.0</ele><time>2026-04-18T13:06:33Z</time></trkpt><trkpt lat="42.98132727854651" lon="12.855763576092682"><ele>747.0</ele><time>2026-04-18T13:06:35Z</time></trkpt><trkpt lat="42.98140962496032" lon="12.85572511452701"><ele>747.0</ele><time>2026-04-18T13:06:40Z</time></trkpt><trkpt lat="42.98152603423621" lon="12.855670971291085"><ele>747.0</ele><time>2026-04-18T13:06:42Z</time></trkpt><trkpt lat="42.98161740840778" lon="12.855651657171103"><ele>747.0</ele><time>2026-04-18T13:06:44Z</time></trkpt><trkpt lat="42.981684301186775" lon="12.855623050118396"><ele>747.0</ele><time>2026-04-18T13:06:46Z</time></trkpt><trkpt lat="42.981744577947865" lon="12.855490980910291"><ele>745.0</ele><time>2026-04-18T13:06:49Z</time></trkpt><trkpt lat="42.98176552481867" lon="12.855384388911984"><ele>743.0</ele><time>2026-04-18T13:06:50Z</time></trkpt><trkpt lat="42.98181391323983" lon="12.855288195298522"><ele>741.0</ele><time>2026-04-18T13:06:50.999Z</time></trkpt><trkpt lat="42.981898167208655" lon="12.855236647874696"><ele>739.0</ele><time>2026-04-18T13:06:51.999Z</time></trkpt><trkpt lat="42.98200111535967" lon="12.855215065170214"><ele>737.0</ele><time>2026-04-18T13:06:52.999Z</time></trkpt><trkpt lat="42.98209302868226" lon="12.855208541023266"><ele>737.0</ele><time>2026-04-18T13:06:53.999Z</time></trkpt><trkpt lat="42.9821778680363" lon="12.855161685520782"><ele>737.0</ele><time>2026-04-18T13:06:54.999Z</time></trkpt><trkpt lat="42.98226459820203" lon="12.855119210769587"><ele>737.0</ele><time>2026-04-18T13:06:55.999Z</time></trkpt><trkpt lat="42.9823429405973" lon="12.855070715661302"><ele>737.0</ele><time>2026-04-18T13:06:56.999Z</time></trkpt><trkpt lat="42.982415685680024" lon="12.854990975094445"><ele>737.0</ele><time>2026-04-18T13:06:57.999Z</time></trkpt><trkpt lat="42.98249508655243" lon="12.854886350914642"><ele>728.4000000000001</ele><time>2026-04-18T13:06:58.999Z</time></trkpt><trkpt lat="42.98256430533218" lon="12.854782901681972"><ele>719.8000000000001</ele><time>2026-04-18T13:06:59.999Z</time></trkpt><trkpt lat="42.982632349111654" lon="12.854685385444489"><ele>711.2</ele><time>2026-04-18T13:07:00.999Z</time></trkpt><trkpt lat="42.982702638837935" lon="12.85459100887351"><ele>702.6</ele><time>2026-04-18T13:07:01.999Z</time></trkpt><trkpt lat="42.98276740618889" lon="12.854462912880384"><ele>694.0</ele><time>2026-04-18T13:07:02.999Z</time></trkpt><trkpt lat="42.98281319088606" lon="12.85432558303386"><ele>695.25</ele><time>2026-04-18T13:07:03.999Z</time></trkpt><trkpt lat="42.98285806184616" lon="12.854181815416869"><ele>696.5</ele><time>2026-04-18T13:07:04.999Z</time></trkpt><trkpt lat="42.982921141591525" lon="12.85403794142188"><ele>697.75</ele><time>2026-04-18T13:07:05.999Z</time></trkpt><trkpt lat="42.98298196342958" lon="12.853876402274146"><ele>699.0</ele><time>2026-04-18T13:07:06.999Z</time></trkpt><trkpt lat="42.98306731695388" lon="12.853755513629947"><ele>699.0</ele><time>2026-04-18T13:07:07.999Z</time></trkpt><trkpt lat="42.98315433015672" lon="12.8536567625353"><ele>699.0</ele><time>2026-04-18T13:07:08.999Z</time></trkpt><trkpt lat="42.98323955584332" lon="12.85356309095541"><ele>699.0</ele><time>2026-04-18T13:07:09.999Z</time></trkpt><trkpt lat="42.98329346191451" lon="12.853458559069404"><ele>699.0</ele><time>2026-04-18T13:07:10.999Z</time></trkpt><trkpt lat="42.98330341741664" lon="12.853337667781426"><ele>699.0</ele><time>2026-04-18T13:07:11.999Z</time></trkpt><trkpt lat="42.98325553048944" lon="12.85322568234252"><ele>701.25</ele><time>2026-04-18T13:07:12.999Z</time></trkpt><trkpt lat="42.98318037843082" lon="12.853123163760033"><ele>703.5</ele><time>2026-04-18T13:07:13.999Z</time></trkpt><trkpt lat="42.98309017963067" lon="12.85302780664614"><ele>705.75</ele><time>2026-04-18T13:07:14.999Z</time></trkpt><trkpt lat="42.98298818415348" lon="12.852932610096456"><ele>708.0</ele><time>2026-04-18T13:07:15.999Z</time></trkpt><trkpt lat="42.98288253478242" lon="12.852859828017852"><ele>708.0</ele><time>2026-04-18T13:07:16.999Z</time></trkpt><trkpt lat="42.982788304970356" lon="12.852797468152005"><ele>708.0</ele><time>2026-04-18T13:07:17.999Z</time></trkpt><trkpt lat="42.98269844949976" lon="12.852727361044533"><ele>708.0</ele><time>2026-04-18T13:07:18.999Z</time></trkpt><trkpt lat="42.982613639016435" lon="12.852658968711152"><ele>708.0</ele><time>2026-04-18T13:07:19.999Z</time></trkpt><trkpt lat="42.982527655166734" lon="12.852586530839497"><ele>708.0</ele><time>2026-04-18T13:07:20.999Z</time></trkpt><trkpt lat="42.98244482403903" lon="12.852514658257249"><ele>707.0</ele><time>2026-04-18T13:07:21.999Z</time></trkpt><trkpt lat="42.982360150421336" lon="12.852444350277947"><ele>706.0</ele><time>2026-04-18T13:07:22.999Z</time></trkpt><trkpt lat="42.98226240978414" lon="12.852362611114183"><ele>705.0</ele><time>2026-04-18T13:07:23.999Z</time></trkpt><trkpt lat="42.98215406824159" lon="12.852269038635894"><ele>704.0</ele><time>2026-04-18T13:07:24.999Z</time></trkpt><trkpt lat="42.98204428557237" lon="12.852167949548264"><ele>704.0</ele><time>2026-04-18T13:07:25.999Z</time></trkpt><trkpt lat="42.98194549043306" lon="12.852061914781945"><ele>704.0</ele><time>2026-04-18T13:07:26.999Z</time></trkpt><trkpt lat="42.98185535410469" lon="12.851968946688803"><ele>704.0</ele><time>2026-04-18T13:07:27.999Z</time></trkpt><trkpt lat="42.98176569004315" lon="12.851880091071596"><ele>704.0</ele><time>2026-04-18T13:07:28.999Z</time></trkpt><trkpt lat="42.98167911530973" lon="12.851790406417022"><ele>701.75</ele><time>2026-04-18T13:07:29.999Z</time></trkpt><trkpt lat="42.9815956287116" lon="12.851698776300532"><ele>699.5</ele><time>2026-04-18T13:07:30.999Z</time></trkpt><trkpt lat="42.981502222179536" lon="12.851599134787213"><ele>697.25</ele><time>2026-04-18T13:07:31.999Z</time></trkpt><trkpt lat="42.98139617566056" lon="12.851502094857953"><ele>695.0</ele><time>2026-04-18T13:07:32.999Z</time></trkpt><trkpt lat="42.98128266778746" lon="12.851404957777362"><ele>695.0</ele><time>2026-04-18T13:07:33.999Z</time></trkpt><trkpt lat="42.98115941526901" lon="12.851316330304277"><ele>695.0</ele><time>2026-04-18T13:07:34.999Z</time></trkpt><trkpt lat="42.981018845395276" lon="12.851227937397926"><ele>695.0</ele><time>2026-04-18T13:07:35.999Z</time></trkpt><trkpt lat="42.980887753529366" lon="12.851156061296443"><ele>695.0</ele><time>2026-04-18T13:07:36.999Z</time></trkpt><trkpt lat="42.980767947302674" lon="12.851091703566077"><ele>692.25</ele><time>2026-04-18T13:07:37.999Z</time></trkpt><trkpt lat="42.980652259322" lon="12.851010308360554"><ele>689.5</ele><time>2026-04-18T13:07:38.999Z</time></trkpt><trkpt lat="42.98055826300162" lon="12.850895712400499"><ele>686.75</ele><time>2026-04-18T13:07:39.999Z</time></trkpt><trkpt lat="42.98049633207243" lon="12.850738386799476"><ele>684.0</ele><time>2026-04-18T13:07:40.999Z</time></trkpt><trkpt lat="42.980467983620535" lon="12.850564874265077"><ele>684.0</ele><time>2026-04-18T13:07:41.999Z</time></trkpt><trkpt lat="42.980425739030245" lon="12.850415975949408"><ele>684.0</ele><time>2026-04-18T13:07:42.999Z</time></trkpt><trkpt lat="42.98035346323454" lon="12.850300300383301"><ele>684.0</ele><time>2026-04-18T13:07:43.999Z</time></trkpt><trkpt lat="42.98025475932077" lon="12.850240356715258"><ele>684.0</ele><time>2026-04-18T13:07:44.999Z</time></trkpt><trkpt lat="42.98015822298934" lon="12.850224029474512"><ele>684.0</ele><time>2026-04-18T13:07:45.999Z</time></trkpt><trkpt lat="42.98007564777177" lon="12.8501940151035"><ele>684.0</ele><time>2026-04-18T13:07:46.999Z</time></trkpt><trkpt lat="42.980070864865056" lon="12.850051976444274"><ele>684.0</ele><time>2026-04-18T13:07:48.999Z</time></trkpt><trkpt lat="42.980198337955756" lon="12.850059807271139"><ele>684.0</ele><time>2026-04-18T13:07:50.999Z</time></trkpt><trkpt lat="42.98029284340315" lon="12.850123853301618"><ele>684.0</ele><time>2026-04-18T13:07:51.999Z</time></trkpt><trkpt lat="42.980386814570316" lon="12.850208860381343"><ele>684.0</ele><time>2026-04-18T13:07:52.999Z</time></trkpt><trkpt lat="42.98048395098143" lon="12.850314108423836"><ele>684.0</ele><time>2026-04-18T13:07:54Z</time></trkpt><trkpt lat="42.98056497040568" lon="12.850428845713417"><ele>684.0</ele><time>2026-04-18T13:07:55Z</time></trkpt><trkpt lat="42.98062862127619" lon="12.850561562572535"><ele>684.0</ele><time>2026-04-18T13:07:56Z</time></trkpt><trkpt lat="42.980687298751675" lon="12.850689878337953"><ele>684.0</ele><time>2026-04-18T13:07:57Z</time></trkpt><trkpt lat="42.980785531158396" lon="12.850767328907798"><ele>684.0</ele><time>2026-04-18T13:07:58Z</time></trkpt><trkpt lat="42.98090811525479" lon="12.850804895802774"><ele>684.0</ele><time>2026-04-18T13:07:59Z</time></trkpt><trkpt lat="42.981046604876816" lon="12.850809136055755"><ele>684.0</ele><time>2026-04-18T13:08:00Z</time></trkpt><trkpt lat="42.981191904442504" lon="12.850822478622344"><ele>681.5</ele><time>2026-04-18T13:08:01Z</time></trkpt><trkpt lat="42.9813383691896" lon="12.850861625705422"><ele>679.0</ele><time>2026-04-18T13:08:02Z</time></trkpt><trkpt lat="42.98145306012025" lon="12.850908130336503"><ele>676.5</ele><time>2026-04-18T13:08:03Z</time></trkpt><trkpt lat="42.98156567525404" lon="12.85098904803543"><ele>674.0</ele><time>2026-04-18T13:08:04Z</time></trkpt><trkpt lat="42.98173836209211" lon="12.851072395464973"><ele>674.0</ele><time>2026-04-18T13:08:05Z</time></trkpt><trkpt lat="42.981897880869774" lon="12.851151808537782"><ele>674.0</ele><time>2026-04-18T13:08:06Z</time></trkpt><trkpt lat="42.98206135280146" lon="12.851260157861955"><ele>674.0</ele><time>2026-04-18T13:08:07Z</time></trkpt><trkpt lat="42.98222195112347" lon="12.851352444904116"><ele>674.0</ele><time>2026-04-18T13:08:08Z</time></trkpt><trkpt lat="42.982360035281054" lon="12.851408865260687"><ele>674.0</ele><time>2026-04-18T13:08:09Z</time></trkpt><trkpt lat="42.9824906981784" lon="12.851456948874961"><ele>674.0</ele><time>2026-04-18T13:08:10Z</time></trkpt><trkpt lat="42.982634957292774" lon="12.851516298161005"><ele>674.0</ele><time>2026-04-18T13:08:11Z</time></trkpt><trkpt lat="42.98279776594456" lon="12.851570857710952"><ele>667.0</ele><time>2026-04-18T13:08:12Z</time></trkpt><trkpt lat="42.98296245326016" lon="12.851619996673737"><ele>660.0</ele><time>2026-04-18T13:08:13Z</time></trkpt><trkpt lat="42.98312635227947" lon="12.851674764174309"><ele>653.0</ele><time>2026-04-18T13:08:14Z</time></trkpt><trkpt lat="42.98327477953455" lon="12.85171767503751"><ele>654.6666666666666</ele><time>2026-04-18T13:08:15Z</time></trkpt><trkpt lat="42.983434559019386" lon="12.851761688399309"><ele>656.3333333333334</ele><time>2026-04-18T13:08:16Z</time></trkpt><trkpt lat="42.983577556674106" lon="12.85180832648212"><ele>658.0</ele><time>2026-04-18T13:08:17Z</time></trkpt><trkpt lat="42.98373635371994" lon="12.851866234486828"><ele>658.0</ele><time>2026-04-18T13:08:18Z</time></trkpt><trkpt lat="42.98388443067618" lon="12.851926796992394"><ele>658.0</ele><time>2026-04-18T13:08:19Z</time></trkpt><trkpt lat="42.98401296918106" lon="12.852008429428386"><ele>658.0</ele><time>2026-04-18T13:08:20Z</time></trkpt><trkpt lat="42.984130162288935" lon="12.852116479623762"><ele>658.0</ele><time>2026-04-18T13:08:21Z</time></trkpt><trkpt lat="42.98424035550839" lon="12.852253110096196"><ele>653.5</ele><time>2026-04-18T13:08:22Z</time></trkpt><trkpt lat="42.98433351758569" lon="12.852407925699017"><ele>649.0</ele><time>2026-04-18T13:08:23Z</time></trkpt><trkpt lat="42.984421817237866" lon="12.852558649187815"><ele>644.5</ele><time>2026-04-18T13:08:24Z</time></trkpt><trkpt lat="42.984499032878155" lon="12.852721045555754"><ele>640.0</ele><time>2026-04-18T13:08:25Z</time></trkpt><trkpt lat="42.984549385808656" lon="12.852878592508086"><ele>640.0</ele><time>2026-04-18T13:08:26Z</time></trkpt><trkpt lat="42.98458420200863" lon="12.853024224832943"><ele>640.0</ele><time>2026-04-18T13:08:27Z</time></trkpt><trkpt lat="42.98460609393549" lon="12.85319453026357"><ele>640.0</ele><time>2026-04-18T13:08:28Z</time></trkpt><trkpt lat="42.984605408328804" lon="12.85336444456216"><ele>640.0</ele><time>2026-04-18T13:08:29Z</time></trkpt><trkpt lat="42.98460036231573" lon="12.853512783597942"><ele>642.6</ele><time>2026-04-18T13:08:30Z</time></trkpt><trkpt lat="42.984615924319705" lon="12.853639035655547"><ele>645.2</ele><time>2026-04-18T13:08:31Z</time></trkpt><trkpt lat="42.984660471714335" lon="12.853723222588979"><ele>647.8</ele><time>2026-04-18T13:08:32Z</time></trkpt><trkpt lat="42.98475230892729" lon="12.853750977001651"><ele>650.4</ele><time>2026-04-18T13:08:33Z</time></trkpt><trkpt lat="42.984858457674235" lon="12.853704918009855"><ele>653.0</ele><time>2026-04-18T13:08:34Z</time></trkpt><trkpt lat="42.98496428437662" lon="12.853594263303066"><ele>655.75</ele><time>2026-04-18T13:08:35Z</time></trkpt><trkpt lat="42.985067903320804" lon="12.853470055247739"><ele>658.5</ele><time>2026-04-18T13:08:36Z</time></trkpt><trkpt lat="42.985161019597" lon="12.853311299476927"><ele>661.25</ele><time>2026-04-18T13:08:37Z</time></trkpt><trkpt lat="42.98524105155917" lon="12.853120679341773"><ele>664.0</ele><time>2026-04-18T13:08:38Z</time></trkpt><trkpt lat="42.98529467214655" lon="12.852912637318784"><ele>664.0</ele><time>2026-04-18T13:08:39Z</time></trkpt><trkpt lat="42.985333985552444" lon="12.85270580484412"><ele>664.0</ele><time>2026-04-18T13:08:40Z</time></trkpt><trkpt lat="42.98537470372446" lon="12.85250917218692"><ele>664.0</ele><time>2026-04-18T13:08:41Z</time></trkpt><trkpt lat="42.985390909426116" lon="12.852303128502216"><ele>659.75</ele><time>2026-04-18T13:08:42Z</time></trkpt><trkpt lat="42.9853769805658" lon="12.852101545931333"><ele>655.5</ele><time>2026-04-18T13:08:43Z</time></trkpt><trkpt lat="42.985344677326005" lon="12.85191515680697"><ele>651.25</ele><time>2026-04-18T13:08:44Z</time></trkpt><trkpt lat="42.98532707075478" lon="12.851749798269898"><ele>647.0</ele><time>2026-04-18T13:08:45Z</time></trkpt><trkpt lat="42.98531851364574" lon="12.851594793581471"><ele>644.0</ele><time>2026-04-18T13:08:46Z</time></trkpt><trkpt lat="42.98534611741467" lon="12.85147477958973"><ele>641.0</ele><time>2026-04-18T13:08:47Z</time></trkpt><trkpt lat="42.98540715072524" lon="12.85136547873207"><ele>638.0</ele><time>2026-04-18T13:08:48Z</time></trkpt><trkpt lat="42.9854601830832" lon="12.851240058285905"><ele>635.0</ele><time>2026-04-18T13:08:49Z</time></trkpt><trkpt lat="42.985464275278865" lon="12.851092205997235"><ele>632.0</ele><time>2026-04-18T13:08:50Z</time></trkpt><trkpt lat="42.98542005443218" lon="12.850947003438135"><ele>630.0</ele><time>2026-04-18T13:08:51Z</time></trkpt><trkpt lat="42.98537392634821" lon="12.850812593088628"><ele>628.0</ele><time>2026-04-18T13:08:52Z</time></trkpt><trkpt lat="42.98533834942846" lon="12.85068521734648"><ele>626.0</ele><time>2026-04-18T13:08:53Z</time></trkpt><trkpt lat="42.98531827700238" lon="12.850574250165357"><ele>624.0</ele><time>2026-04-18T13:08:54Z</time></trkpt><trkpt lat="42.98530169417762" lon="12.85048281290703"><ele>622.0</ele><time>2026-04-18T13:08:55Z</time></trkpt><trkpt lat="42.9853241184264" lon="12.850361678035561"><ele>622.0</ele><time>2026-04-18T13:08:57Z</time></trkpt><trkpt lat="42.9854403869955" lon="12.850354236241477"><ele>622.0</ele><time>2026-04-18T13:08:59Z</time></trkpt><trkpt lat="42.98553083450889" lon="12.850380597019143"><ele>622.0</ele><time>2026-04-18T13:09:00Z</time></trkpt><trkpt lat="42.98564491778458" lon="12.850417517678196"><ele>622.0</ele><time>2026-04-18T13:09:01Z</time></trkpt><trkpt lat="42.98577193001711" lon="12.8504460165941"><ele>624.5</ele><time>2026-04-18T13:09:02Z</time></trkpt><trkpt lat="42.98590283886333" lon="12.850473860007726"><ele>627.0</ele><time>2026-04-18T13:09:03Z</time></trkpt><trkpt lat="42.98602092110192" lon="12.850521316156708"><ele>629.5</ele><time>2026-04-18T13:09:04Z</time></trkpt><trkpt lat="42.98612194422182" lon="12.850604165062048"><ele>632.0</ele><time>2026-04-18T13:09:05Z</time></trkpt><trkpt lat="42.98621941747296" lon="12.85072147026268"><ele>632.0</ele><time>2026-04-18T13:09:05.999Z</time></trkpt><trkpt lat="42.98631054296998" lon="12.850829543785075"><ele>632.0</ele><time>2026-04-18T13:09:06.999Z</time></trkpt><trkpt lat="42.98641749117794" lon="12.850936319988529"><ele>632.0</ele><time>2026-04-18T13:09:07.999Z</time></trkpt><trkpt lat="42.98651581008991" lon="12.85102188092152"><ele>632.0</ele><time>2026-04-18T13:09:08.999Z</time></trkpt><trkpt lat="42.986601258490474" lon="12.85107317371453"><ele>633.5</ele><time>2026-04-18T13:09:09.999Z</time></trkpt><trkpt lat="42.98667142554124" lon="12.851099097231808"><ele>635.0</ele><time>2026-04-18T13:09:10.999Z</time></trkpt><trkpt lat="42.98675069721912" lon="12.851124884820894"><ele>636.5</ele><time>2026-04-18T13:09:11.999Z</time></trkpt><trkpt lat="42.9868374163729" lon="12.85115370873562"><ele>638.0</ele><time>2026-04-18T13:09:12.999Z</time></trkpt><trkpt lat="42.98692660041122" lon="12.851198583992339"><ele>639.5</ele><time>2026-04-18T13:09:13.999Z</time></trkpt><trkpt lat="42.98700584370233" lon="12.851286582811637"><ele>641.0</ele><time>2026-04-18T13:09:14.999Z</time></trkpt><trkpt lat="42.98707237408071" lon="12.851396381272812"><ele>641.4</ele><time>2026-04-18T13:09:15.999Z</time></trkpt><trkpt lat="42.98713153349493" lon="12.851482777397337"><ele>641.8</ele><time>2026-04-18T13:09:16.999Z</time></trkpt><trkpt lat="42.98717932209549" lon="12.851581869678975"><ele>642.1999999999999</ele><time>2026-04-18T13:09:17.999Z</time></trkpt><trkpt lat="42.98720158849232" lon="12.851684600937569"><ele>642.5999999999999</ele><time>2026-04-18T13:09:18.999Z</time></trkpt><trkpt lat="42.98719829116558" lon="12.851793486755467"><ele>643.0</ele><time>2026-04-18T13:09:19.999Z</time></trkpt><trkpt lat="42.98720259655809" lon="12.851967648612895"><ele>645.1666666666667</ele><time>2026-04-18T13:09:21.999Z</time></trkpt><trkpt lat="42.98720849733016" lon="12.852056121287553"><ele>647.3333333333334</ele><time>2026-04-18T13:09:22.999Z</time></trkpt><trkpt lat="42.98721460923856" lon="12.852145944590282"><ele>649.5</ele><time>2026-04-18T13:09:23.999Z</time></trkpt><trkpt lat="42.98722424567279" lon="12.852295436119014"><ele>651.6666666666666</ele><time>2026-04-18T13:09:25.999Z</time></trkpt><trkpt lat="42.98724205148035" lon="12.852378839942324"><ele>653.8333333333333</ele><time>2026-04-18T13:09:27.999Z</time></trkpt><trkpt lat="42.987225220902566" lon="12.852253690703845"><ele>656.0</ele><time>2026-04-18T13:09:56.999Z</time></trkpt><trkpt lat="42.987212428954976" lon="12.852129160209193"><ele>656.0</ele><time>2026-04-18T13:09:57.999Z</time></trkpt><trkpt lat="42.98720443849109" lon="12.851995063691907"><ele>656.0</ele><time>2026-04-18T13:09:58.999Z</time></trkpt><trkpt lat="42.98719818013396" lon="12.851873120621377"><ele>656.0</ele><time>2026-04-18T13:10:00Z</time></trkpt><trkpt lat="42.98718591621459" lon="12.851763781965907"><ele>656.0</ele><time>2026-04-18T13:10:01Z</time></trkpt><trkpt lat="42.987176189243954" lon="12.851676730793725"><ele>656.0</ele><time>2026-04-18T13:10:02Z</time></trkpt><trkpt lat="42.98717342835534" lon="12.851562329907381"><ele>656.0</ele><time>2026-04-18T13:10:04Z</time></trkpt><trkpt lat="42.98725825542501" lon="12.851538455164606"><ele>655.1666666666666</ele><time>2026-04-18T13:10:07Z</time></trkpt><trkpt lat="42.98732878354649" lon="12.851562068612512"><ele>654.3333333333333</ele><time>2026-04-18T13:10:08Z</time></trkpt><trkpt lat="42.987393884661245" lon="12.851594406921013"><ele>653.5</ele><time>2026-04-18T13:10:09Z</time></trkpt><trkpt lat="42.98750861848582" lon="12.851635691803446"><ele>652.6666666666666</ele><time>2026-04-18T13:10:11Z</time></trkpt><trkpt lat="42.98757814175255" lon="12.85166303638767"><ele>651.8333333333334</ele><time>2026-04-18T13:10:12Z</time></trkpt><trkpt lat="42.987646329313314" lon="12.851691881982942"><ele>651.0</ele><time>2026-04-18T13:10:13Z</time></trkpt><trkpt lat="42.987711732126556" lon="12.851715362056714"><ele>651.0</ele><time>2026-04-18T13:10:14Z</time></trkpt><trkpt lat="42.98777954809798" lon="12.851747179059558"><ele>651.0</ele><time>2026-04-18T13:10:15Z</time></trkpt><trkpt lat="42.98786020130706" lon="12.851783488743214"><ele>651.0</ele><time>2026-04-18T13:10:16Z</time></trkpt><trkpt lat="42.98792832822923" lon="12.851816811642822"><ele>651.0</ele><time>2026-04-18T13:10:17Z</time></trkpt><trkpt lat="42.987999796584106" lon="12.851856292306312"><ele>651.0</ele><time>2026-04-18T13:10:18Z</time></trkpt><trkpt lat="42.98808353009605" lon="12.851880336742031"><ele>651.0</ele><time>2026-04-18T13:10:19Z</time></trkpt><trkpt lat="42.98825559527864" lon="12.851874509392244"><ele>654.0</ele><time>2026-04-18T13:10:21Z</time></trkpt><trkpt lat="42.98836077264375" lon="12.851843849154514"><ele>657.0</ele><time>2026-04-18T13:10:22Z</time></trkpt><trkpt lat="42.988455514921675" lon="12.851796940239023"><ele>660.0</ele><time>2026-04-18T13:10:23Z</time></trkpt><trkpt lat="42.98854912165545" lon="12.851730382882224"><ele>663.0</ele><time>2026-04-18T13:10:24Z</time></trkpt><trkpt lat="42.988637923561924" lon="12.851632727732445"><ele>666.0</ele><time>2026-04-18T13:10:25Z</time></trkpt><trkpt lat="42.98872721751003" lon="12.851542861893746"><ele>666.0</ele><time>2026-04-18T13:10:26Z</time></trkpt><trkpt lat="42.988808865856704" lon="12.851510170548554"><ele>666.0</ele><time>2026-04-18T13:10:27Z</time></trkpt><trkpt lat="42.98891440903627" lon="12.851526377596597"><ele>666.0</ele><time>2026-04-18T13:10:28Z</time></trkpt><trkpt lat="42.9890336019352" lon="12.85156235668454"><ele>666.0</ele><time>2026-04-18T13:10:29Z</time></trkpt><trkpt lat="42.98917109271202" lon="12.85157668600234"><ele>668.8</ele><time>2026-04-18T13:10:30Z</time></trkpt><trkpt lat="42.98928814284703" lon="12.851614100118368"><ele>671.5999999999999</ele><time>2026-04-18T13:10:31Z</time></trkpt><trkpt lat="42.98937583549422" lon="12.851683985791981"><ele>674.4</ele><time>2026-04-18T13:10:32Z</time></trkpt><trkpt lat="42.98946123884817" lon="12.85180001543398"><ele>677.2</ele><time>2026-04-18T13:10:33Z</time></trkpt><trkpt lat="42.989516870282564" lon="12.851884448982448"><ele>680.0</ele><time>2026-04-18T13:10:34Z</time></trkpt><trkpt lat="42.989612757455696" lon="12.851816930789976"><ele>680.0</ele><time>2026-04-18T13:10:36Z</time></trkpt><trkpt lat="42.98966442840905" lon="12.851712607236035"><ele>680.0</ele><time>2026-04-18T13:10:37Z</time></trkpt><trkpt lat="42.98971536535248" lon="12.851590990029182"><ele>680.0</ele><time>2026-04-18T13:10:38Z</time></trkpt><trkpt lat="42.989801260852644" lon="12.851512318266167"><ele>680.0</ele><time>2026-04-18T13:10:39Z</time></trkpt><trkpt lat="42.98992239938723" lon="12.851462288120297"><ele>680.0</ele><time>2026-04-18T13:10:40Z</time></trkpt><trkpt lat="42.99005584119227" lon="12.851424998973762"><ele>687.3333333333333</ele><time>2026-04-18T13:10:41Z</time></trkpt><trkpt lat="42.99020901529228" lon="12.851411327703737"><ele>694.6666666666666</ele><time>2026-04-18T13:10:42Z</time></trkpt><trkpt lat="42.990354834990555" lon="12.851376825885543"><ele>702.0</ele><time>2026-04-18T13:10:43Z</time></trkpt><trkpt lat="42.99050353351709" lon="12.851336937758445"><ele>702.0</ele><time>2026-04-18T13:10:44Z</time></trkpt><trkpt lat="42.99065658682091" lon="12.85130337797539"><ele>702.0</ele><time>2026-04-18T13:10:45Z</time></trkpt><trkpt lat="42.99081113735824" lon="12.851285006681763"><ele>702.0</ele><time>2026-04-18T13:10:46Z</time></trkpt><trkpt lat="42.990968750380574" lon="12.85124473273533"><ele>709.0</ele><time>2026-04-18T13:10:47Z</time></trkpt><trkpt lat="42.99110820526405" lon="12.851194082828417"><ele>716.0</ele><time>2026-04-18T13:10:48Z</time></trkpt><trkpt lat="42.99125292843385" lon="12.851130127422586"><ele>723.0</ele><time>2026-04-18T13:10:49Z</time></trkpt><trkpt lat="42.99139952588342" lon="12.851074778381573"><ele>730.0</ele><time>2026-04-18T13:10:50Z</time></trkpt><trkpt lat="42.9915573800562" lon="12.851033570033772"><ele>725.25</ele><time>2026-04-18T13:10:51Z</time></trkpt><trkpt lat="42.99170000554787" lon="12.850973113208132"><ele>720.5</ele><time>2026-04-18T13:10:52Z</time></trkpt><trkpt lat="42.991828407799694" lon="12.850921641531"><ele>715.75</ele><time>2026-04-18T13:10:53Z</time></trkpt><trkpt lat="42.99194439312038" lon="12.850829488896697"><ele>711.0</ele><time>2026-04-18T13:10:54Z</time></trkpt><trkpt lat="42.99205200486154" lon="12.850736272945673"><ele>711.0</ele><time>2026-04-18T13:10:55Z</time></trkpt><trkpt lat="42.992139631778045" lon="12.850646269383272"><ele>711.0</ele><time>2026-04-18T13:10:56Z</time></trkpt><trkpt lat="42.99220914849917" lon="12.85060166267341"><ele>711.0</ele><time>2026-04-18T13:10:57Z</time></trkpt><trkpt lat="42.99229029524791" lon="12.850592909413106"><ele>711.0</ele><time>2026-04-18T13:10:58Z</time></trkpt><trkpt lat="42.992399284019235" lon="12.850643257439277"><ele>711.0</ele><time>2026-04-18T13:10:59Z</time></trkpt><trkpt lat="42.99251590649943" lon="12.850695864901574"><ele>711.75</ele><time>2026-04-18T13:11:00Z</time></trkpt><trkpt lat="42.992641334280776" lon="12.850752047599366"><ele>712.5</ele><time>2026-04-18T13:11:01Z</time></trkpt><trkpt lat="42.992769757782106" lon="12.85080541871551"><ele>713.25</ele><time>2026-04-18T13:11:02Z</time></trkpt><trkpt lat="42.99289429478282" lon="12.85084940571386"><ele>714.0</ele><time>2026-04-18T13:11:03Z</time></trkpt><trkpt lat="42.9930001288533" lon="12.850868025209689"><ele>714.0</ele><time>2026-04-18T13:11:04Z</time></trkpt><trkpt lat="42.99311717100841" lon="12.850898513455311"><ele>714.0</ele><time>2026-04-18T13:11:05Z</time></trkpt><trkpt lat="42.99321672856958" lon="12.850982315443133"><ele>714.0</ele><time>2026-04-18T13:11:06Z</time></trkpt><trkpt lat="42.99333893932958" lon="12.85109716322288"><ele>714.0</ele><time>2026-04-18T13:11:07Z</time></trkpt><trkpt lat="42.9934480201487" lon="12.85119636562644"><ele>720.75</ele><time>2026-04-18T13:11:08Z</time></trkpt><trkpt lat="42.99355464738791" lon="12.851285695844687"><ele>727.5</ele><time>2026-04-18T13:11:09Z</time></trkpt><trkpt lat="42.993662269726016" lon="12.851376170539863"><ele>734.25</ele><time>2026-04-18T13:11:10Z</time></trkpt><trkpt lat="42.9937527388165" lon="12.851447473873845"><ele>741.0</ele><time>2026-04-18T13:11:11Z</time></trkpt><trkpt lat="42.993838199968486" lon="12.851527624516628"><ele>741.0</ele><time>2026-04-18T13:11:12Z</time></trkpt><trkpt lat="42.993940811377215" lon="12.851578277299701"><ele>741.0</ele><time>2026-04-18T13:11:13Z</time></trkpt><trkpt lat="42.99404321829633" lon="12.851657400875391"><ele>741.0</ele><time>2026-04-18T13:11:14Z</time></trkpt><trkpt lat="42.99413795394198" lon="12.851733576020251"><ele>741.0</ele><time>2026-04-18T13:11:15Z</time></trkpt><trkpt lat="42.99421224234333" lon="12.85182133138856"><ele>741.0</ele><time>2026-04-18T13:11:15.999Z</time></trkpt><trkpt lat="42.9942952478286" lon="12.851918705545675"><ele>748.25</ele><time>2026-04-18T13:11:16.999Z</time></trkpt><trkpt lat="42.99440146472734" lon="12.852026972412842"><ele>755.5</ele><time>2026-04-18T13:11:17.999Z</time></trkpt><trkpt lat="42.99447663928094" lon="12.852144967493865"><ele>762.75</ele><time>2026-04-18T13:11:18.999Z</time></trkpt><trkpt lat="42.994519195325886" lon="12.852286215791676"><ele>770.0</ele><time>2026-04-18T13:11:19.999Z</time></trkpt><trkpt lat="42.994556138160554" lon="12.85243145228512"><ele>770.0</ele><time>2026-04-18T13:11:20.999Z</time></trkpt><trkpt lat="42.99458039881943" lon="12.852583170095851"><ele>770.0</ele><time>2026-04-18T13:11:21.999Z</time></trkpt><trkpt lat="42.99460329740475" lon="12.852694250118002"><ele>770.0</ele><time>2026-04-18T13:11:22.999Z</time></trkpt><trkpt lat="42.994723973988464" lon="12.852642091641327"><ele>770.0</ele><time>2026-04-18T13:11:25.999Z</time></trkpt><trkpt lat="42.994770355307345" lon="12.852508544274473"><ele>770.0</ele><time>2026-04-18T13:11:26.999Z</time></trkpt><trkpt lat="42.99479316889598" lon="12.852352882352532"><ele>770.0</ele><time>2026-04-18T13:11:27.999Z</time></trkpt><trkpt lat="42.99483082263587" lon="12.852180551743082"><ele>770.0</ele><time>2026-04-18T13:11:28.999Z</time></trkpt><trkpt lat="42.99487855599221" lon="12.85204648303339"><ele>770.0</ele><time>2026-04-18T13:11:29.999Z</time></trkpt><trkpt lat="42.99493877455806" lon="12.851956108019134"><ele>770.0</ele><time>2026-04-18T13:11:30.999Z</time></trkpt><trkpt lat="42.99495567326735" lon="12.851864940928111"><ele>770.0</ele><time>2026-04-18T13:11:31.999Z</time></trkpt><trkpt lat="42.994921507409906" lon="12.851757995714264"><ele>767.75</ele><time>2026-04-18T13:11:32.999Z</time></trkpt><trkpt lat="42.994870008186744" lon="12.85164422833788"><ele>765.5</ele><time>2026-04-18T13:11:33.999Z</time></trkpt><trkpt lat="42.994815685375485" lon="12.85149430177981"><ele>763.25</ele><time>2026-04-18T13:11:34.999Z</time></trkpt><trkpt lat="42.99477264585134" lon="12.85129643008706"><ele>761.0</ele><time>2026-04-18T13:11:35.999Z</time></trkpt><trkpt lat="42.9947145473219" lon="12.85106039782757"><ele>766.0</ele><time>2026-04-18T13:11:36.999Z</time></trkpt><trkpt lat="42.99466854894648" lon="12.85082619709402"><ele>771.0</ele><time>2026-04-18T13:11:37.999Z</time></trkpt><trkpt lat="42.994604576381334" lon="12.85060231970348"><ele>776.0</ele><time>2026-04-18T13:11:38.999Z</time></trkpt><trkpt lat="42.99455017867612" lon="12.850398708834854"><ele>776.0</ele><time>2026-04-18T13:11:39.999Z</time></trkpt><trkpt lat="42.99448426684526" lon="12.850199924075541"><ele>776.0</ele><time>2026-04-18T13:11:40.999Z</time></trkpt><trkpt lat="42.994413338930364" lon="12.850006237339842"><ele>776.0</ele><time>2026-04-18T13:11:41.999Z</time></trkpt><trkpt lat="42.99434073111512" lon="12.849801572002306"><ele>774.0</ele><time>2026-04-18T13:11:42.999Z</time></trkpt><trkpt lat="42.99425615172173" lon="12.849593688650142"><ele>772.0</ele><time>2026-04-18T13:11:43.999Z</time></trkpt><trkpt lat="42.99417985025971" lon="12.849418759649073"><ele>770.0</ele><time>2026-04-18T13:11:44.999Z</time></trkpt><trkpt lat="42.99412839872997" lon="12.849294145028118"><ele>768.0</ele><time>2026-04-18T13:11:45.999Z</time></trkpt><trkpt lat="42.99409828989214" lon="12.849171308874485"><ele>768.0</ele><time>2026-04-18T13:11:46.999Z</time></trkpt><trkpt lat="42.99408522323823" lon="12.849025392861538"><ele>768.0</ele><time>2026-04-18T13:11:47.999Z</time></trkpt><trkpt lat="42.99406333718473" lon="12.84885636630987"><ele>768.0</ele><time>2026-04-18T13:11:48.999Z</time></trkpt><trkpt lat="42.99400259218442" lon="12.848692632011987"><ele>768.0</ele><time>2026-04-18T13:11:49.999Z</time></trkpt><trkpt lat="42.99394892616043" lon="12.84854522719217"><ele>769.0</ele><time>2026-04-18T13:11:50.999Z</time></trkpt><trkpt lat="42.99393174341068" lon="12.848404691160708"><ele>770.0</ele><time>2026-04-18T13:11:51.999Z</time></trkpt><trkpt lat="42.993953529602024" lon="12.848293003889582"><ele>771.0</ele><time>2026-04-18T13:11:52.999Z</time></trkpt><trkpt lat="42.99407385057486" lon="12.848217954821163"><ele>772.0</ele><time>2026-04-18T13:11:54.999Z</time></trkpt><trkpt lat="42.994184295064194" lon="12.848207418128737"><ele>773.0</ele><time>2026-04-18T13:11:55.999Z</time></trkpt><trkpt lat="42.99430014200286" lon="12.84824288290163"><ele>775.25</ele><time>2026-04-18T13:11:56.999Z</time></trkpt><trkpt lat="42.99442446374061" lon="12.848270035895288"><ele>777.5</ele><time>2026-04-18T13:11:57.999Z</time></trkpt><trkpt lat="42.99457627641504" lon="12.848265218425782"><ele>779.75</ele><time>2026-04-18T13:11:58.999Z</time></trkpt><trkpt lat="42.99472687383057" lon="12.848247068582568"><ele>782.0</ele><time>2026-04-18T13:11:59.999Z</time></trkpt><trkpt lat="42.994827767081574" lon="12.848242846063926"><ele>782.0</ele><time>2026-04-18T13:12:00.999Z</time></trkpt><trkpt lat="42.9948787429922" lon="12.848304167659776"><ele>782.0</ele><time>2026-04-18T13:12:01.999Z</time></trkpt><trkpt lat="42.994951069712144" lon="12.848351697474989"><ele>782.0</ele><time>2026-04-18T13:12:02.999Z</time></trkpt><trkpt lat="42.99502461970881" lon="12.848408285806995"><ele>782.0</ele><time>2026-04-18T13:12:03.999Z</time></trkpt><trkpt lat="42.99509511468634" lon="12.848539351835514"><ele>782.0</ele><time>2026-04-18T13:12:04.999Z</time></trkpt><trkpt lat="42.99515022671426" lon="12.848661149419565"><ele>785.6</ele><time>2026-04-18T13:12:06Z</time></trkpt><trkpt lat="42.99521434694984" lon="12.84872335599856"><ele>789.2</ele><time>2026-04-18T13:12:07Z</time></trkpt><trkpt lat="42.995306690447755" lon="12.84876752843672"><ele>792.8</ele><time>2026-04-18T13:12:08Z</time></trkpt><trkpt lat="42.995402339016316" lon="12.848836968915862"><ele>796.4</ele><time>2026-04-18T13:12:09Z</time></trkpt><trkpt lat="42.995474152734225" lon="12.848933109258917"><ele>800.0</ele><time>2026-04-18T13:12:10Z</time></trkpt><trkpt lat="42.99555124760595" lon="12.849089183143406"><ele>800.0</ele><time>2026-04-18T13:12:11Z</time></trkpt><trkpt lat="42.995624726695596" lon="12.849210343745991"><ele>800.0</ele><time>2026-04-18T13:12:12Z</time></trkpt><trkpt lat="42.99570766212809" lon="12.849296906650507"><ele>800.0</ele><time>2026-04-18T13:12:13Z</time></trkpt><trkpt lat="42.99582562216808" lon="12.849344666543931"><ele>800.0</ele><time>2026-04-18T13:12:14Z</time></trkpt><trkpt lat="42.99593302834125" lon="12.84938036176397"><ele>802.0</ele><time>2026-04-18T13:12:15Z</time></trkpt><trkpt lat="42.99606773466614" lon="12.849456644767749"><ele>804.0</ele><time>2026-04-18T13:12:16Z</time></trkpt><trkpt lat="42.9962022893878" lon="12.849523586428539"><ele>806.0</ele><time>2026-04-18T13:12:17Z</time></trkpt><trkpt lat="42.99634525559101" lon="12.849607359430042"><ele>808.0</ele><time>2026-04-18T13:12:18Z</time></trkpt><trkpt lat="42.99646154210871" lon="12.849695757658784"><ele>808.0</ele><time>2026-04-18T13:12:19Z</time></trkpt><trkpt lat="42.99657284334492" lon="12.849799152001543"><ele>808.0</ele><time>2026-04-18T13:12:20Z</time></trkpt><trkpt lat="42.99669434239043" lon="12.849908734473102"><ele>808.0</ele><time>2026-04-18T13:12:21Z</time></trkpt><trkpt lat="42.99679944489863" lon="12.850020577888783"><ele>808.0</ele><time>2026-04-18T13:12:22Z</time></trkpt><trkpt lat="42.99690939833471" lon="12.850158967949717"><ele>808.25</ele><time>2026-04-18T13:12:23Z</time></trkpt><trkpt lat="42.99701006053095" lon="12.850298344060006"><ele>808.5</ele><time>2026-04-18T13:12:24Z</time></trkpt><trkpt lat="42.997109423634754" lon="12.850449421383143"><ele>808.75</ele><time>2026-04-18T13:12:25Z</time></trkpt><trkpt lat="42.99720577680316" lon="12.850599402763049"><ele>809.0</ele><time>2026-04-18T13:12:26Z</time></trkpt><trkpt lat="42.99728880771639" lon="12.850728986716616"><ele>809.0</ele><time>2026-04-18T13:12:27Z</time></trkpt><trkpt lat="42.997351586156384" lon="12.850861244189424"><ele>809.0</ele><time>2026-04-18T13:12:28Z</time></trkpt><trkpt lat="42.997399601197586" lon="12.851022792620642"><ele>809.0</ele><time>2026-04-18T13:12:29Z</time></trkpt><trkpt lat="42.99743551458145" lon="12.85120998847132"><ele>809.0</ele><time>2026-04-18T13:12:30Z</time></trkpt><trkpt lat="42.99747341484481" lon="12.851415715942567"><ele>809.5</ele><time>2026-04-18T13:12:31Z</time></trkpt><trkpt lat="42.99752135029007" lon="12.851594162455765"><ele>810.0</ele><time>2026-04-18T13:12:32Z</time></trkpt><trkpt lat="42.997573694126515" lon="12.851740245087601"><ele>810.5</ele><time>2026-04-18T13:12:33Z</time></trkpt><trkpt lat="42.99762356365596" lon="12.851885219563307"><ele>811.0</ele><time>2026-04-18T13:12:34Z</time></trkpt><trkpt lat="42.997703201882956" lon="12.852035529526649"><ele>811.0</ele><time>2026-04-18T13:12:35Z</time></trkpt><trkpt lat="42.997789342619214" lon="12.852170054823791"><ele>811.0</ele><time>2026-04-18T13:12:36Z</time></trkpt><trkpt lat="42.99786876314998" lon="12.852285264241537"><ele>811.0</ele><time>2026-04-18T13:12:37Z</time></trkpt><trkpt lat="42.997954166479246" lon="12.852403709434048"><ele>811.0</ele><time>2026-04-18T13:12:38Z</time></trkpt><trkpt lat="42.99805878183113" lon="12.852526231131906"><ele>809.75</ele><time>2026-04-18T13:12:39Z</time></trkpt><trkpt lat="42.9981616346284" lon="12.852635974902766"><ele>808.5</ele><time>2026-04-18T13:12:40Z</time></trkpt><trkpt lat="42.998264594010486" lon="12.852742138489011"><ele>807.25</ele><time>2026-04-18T13:12:41Z</time></trkpt><trkpt lat="42.99837082357027" lon="12.85282686210194"><ele>806.0</ele><time>2026-04-18T13:12:42Z</time></trkpt><trkpt lat="42.99848068686112" lon="12.852911669319763"><ele>806.0</ele><time>2026-04-18T13:12:43Z</time></trkpt><trkpt lat="42.998587468342585" lon="12.853012610292913"><ele>806.0</ele><time>2026-04-18T13:12:44Z</time></trkpt><trkpt lat="42.998710136655355" lon="12.853122250859382"><ele>806.0</ele><time>2026-04-18T13:12:45Z</time></trkpt><trkpt lat="42.99884348022197" lon="12.853249840215119"><ele>806.0</ele><time>2026-04-18T13:12:46Z</time></trkpt><trkpt lat="42.998966739153225" lon="12.85336293643503"><ele>806.25</ele><time>2026-04-18T13:12:47Z</time></trkpt><trkpt lat="42.99907378111928" lon="12.853464939556664"><ele>806.5</ele><time>2026-04-18T13:12:48Z</time></trkpt><trkpt lat="42.999183439658054" lon="12.853578547389318"><ele>806.75</ele><time>2026-04-18T13:12:49Z</time></trkpt><trkpt lat="42.999297433561274" lon="12.853709021579713"><ele>807.0</ele><time>2026-04-18T13:12:50Z</time></trkpt><trkpt lat="42.999414079237745" lon="12.853820049428917"><ele>807.0</ele><time>2026-04-18T13:12:51Z</time></trkpt><trkpt lat="42.99952395679788" lon="12.853914498082862"><ele>807.0</ele><time>2026-04-18T13:12:52Z</time></trkpt><trkpt lat="42.99961757127878" lon="12.854008618721494"><ele>807.0</ele><time>2026-04-18T13:12:53Z</time></trkpt><trkpt lat="42.99968688892463" lon="12.854098307369947"><ele>807.0</ele><time>2026-04-18T13:12:54Z</time></trkpt><trkpt lat="42.99973355815552" lon="12.854157046074416"><ele>807.0</ele><time>2026-04-18T13:12:55Z</time></trkpt><trkpt lat="42.999834209900534" lon="12.854194925385924"><ele>807.0</ele><time>2026-04-18T13:12:57Z</time></trkpt><trkpt lat="42.99990867025051" lon="12.854235214932647"><ele>807.0</ele><time>2026-04-18T13:12:58Z</time></trkpt><trkpt lat="42.99999057318854" lon="12.854315031859642"><ele>807.0</ele><time>2026-04-18T13:12:59Z</time></trkpt><trkpt lat="43.000076448287196" lon="12.854411309881609"><ele>807.0</ele><time>2026-04-18T13:13:00Z</time></trkpt><trkpt lat="43.00017113611322" lon="12.854515662777542"><ele>807.0</ele><time>2026-04-18T13:13:01Z</time></trkpt><trkpt lat="43.00027985962002" lon="12.854632650035054"><ele>809.75</ele><time>2026-04-18T13:13:02Z</time></trkpt><trkpt lat="43.000385043837525" lon="12.854763050259354"><ele>812.5</ele><time>2026-04-18T13:13:03Z</time></trkpt><trkpt lat="43.00048113945021" lon="12.85491314546246"><ele>815.25</ele><time>2026-04-18T13:13:04Z</time></trkpt><trkpt lat="43.00058399393567" lon="12.855075054577405"><ele>818.0</ele><time>2026-04-18T13:13:05Z</time></trkpt><trkpt lat="43.000690892601476" lon="12.855244593904732"><ele>819.6666666666667</ele><time>2026-04-18T13:13:06Z</time></trkpt><trkpt lat="43.00079630411452" lon="12.855409048978355"><ele>821.3333333333333</ele><time>2026-04-18T13:13:07Z</time></trkpt><trkpt lat="43.000904826912716" lon="12.855582033802474"><ele>823.0</ele><time>2026-04-18T13:13:08Z</time></trkpt><trkpt lat="43.00100871638325" lon="12.855750359485244"><ele>822.3333333333333</ele><time>2026-04-18T13:13:09Z</time></trkpt><trkpt lat="43.00111223810829" lon="12.855915611181265"><ele>821.6666666666667</ele><time>2026-04-18T13:13:10Z</time></trkpt><trkpt lat="43.001220643288136" lon="12.856088927033019"><ele>821.0</ele><time>2026-04-18T13:13:11Z</time></trkpt><trkpt lat="43.00132691886649" lon="12.856249787375285"><ele>821.0</ele><time>2026-04-18T13:13:12Z</time></trkpt><trkpt lat="43.001437057801965" lon="12.856413490990771"><ele>821.0</ele><time>2026-04-18T13:13:13Z</time></trkpt><trkpt lat="43.001543422841344" lon="12.856581147720261"><ele>821.0</ele><time>2026-04-18T13:13:14Z</time></trkpt><trkpt lat="43.00165004196919" lon="12.856755459441082"><ele>822.0</ele><time>2026-04-18T13:13:15Z</time></trkpt><trkpt lat="43.00175790467015" lon="12.856923401442748"><ele>823.0</ele><time>2026-04-18T13:13:16Z</time></trkpt><trkpt lat="43.001865974546455" lon="12.857088764886809"><ele>824.0</ele><time>2026-04-18T13:13:17Z</time></trkpt><trkpt lat="43.001978560695136" lon="12.85726609721188"><ele>824.0</ele><time>2026-04-18T13:13:18Z</time></trkpt><trkpt lat="43.002086429112325" lon="12.857437852823425"><ele>824.0</ele><time>2026-04-18T13:13:19Z</time></trkpt><trkpt lat="43.002202067492554" lon="12.85762599116283"><ele>824.0</ele><time>2026-04-18T13:13:20Z</time></trkpt><trkpt lat="43.00231950120977" lon="12.857811701901555"><ele>823.3333333333334</ele><time>2026-04-18T13:13:21Z</time></trkpt><trkpt lat="43.002435608132004" lon="12.858001275458879"><ele>822.6666666666667</ele><time>2026-04-18T13:13:22Z</time></trkpt><trkpt lat="43.002543018293146" lon="12.858187726166262"><ele>822.0</ele><time>2026-04-18T13:13:23Z</time></trkpt><trkpt lat="43.002641790633554" lon="12.858390442383671"><ele>824.3333333333333</ele><time>2026-04-18T13:13:24Z</time></trkpt><trkpt lat="43.00273433660462" lon="12.858599700112459"><ele>826.6666666666666</ele><time>2026-04-18T13:13:25Z</time></trkpt><trkpt lat="43.002821007650965" lon="12.858808991425686"><ele>829.0</ele><time>2026-04-18T13:13:26Z</time></trkpt><trkpt lat="43.00290350777514" lon="12.859017759723562"><ele>829.0</ele><time>2026-04-18T13:13:27Z</time></trkpt><trkpt lat="43.002985359023874" lon="12.85921754853883"><ele>829.0</ele><time>2026-04-18T13:13:28Z</time></trkpt><trkpt lat="43.00305752569337" lon="12.85942504385948"><ele>829.0</ele><time>2026-04-18T13:13:29Z</time></trkpt><trkpt lat="43.0031379285357" lon="12.859628563160422"><ele>830.6666666666666</ele><time>2026-04-18T13:13:30Z</time></trkpt><trkpt lat="43.00322411159705" lon="12.859822806225733"><ele>832.3333333333333</ele><time>2026-04-18T13:13:31Z</time></trkpt><trkpt lat="43.00331005683036" lon="12.860026200503112"><ele>834.0</ele><time>2026-04-18T13:13:31.999Z</time></trkpt><trkpt lat="43.00339338201461" lon="12.86023577543061"><ele>830.6666666666667</ele><time>2026-04-18T13:13:32.999Z</time></trkpt><trkpt lat="43.003468231695926" lon="12.86042490699834"><ele>827.3333333333334</ele><time>2026-04-18T13:13:33.999Z</time></trkpt><trkpt lat="43.00353314435468" lon="12.860618814385399"><ele>824.0</ele><time>2026-04-18T13:13:34.999Z</time></trkpt><trkpt lat="43.00358584985259" lon="12.860826178648871"><ele>821.6666666666667</ele><time>2026-04-18T13:13:35.999Z</time></trkpt><trkpt lat="43.00362135173231" lon="12.861054716408736"><ele>819.3333333333333</ele><time>2026-04-18T13:13:36.999Z</time></trkpt><trkpt lat="43.003637356424356" lon="12.861285637629653"><ele>817.0</ele><time>2026-04-18T13:13:37.999Z</time></trkpt><trkpt lat="43.00362403995984" lon="12.8615290883221"><ele>817.0</ele><time>2026-04-18T13:13:38.999Z</time></trkpt><trkpt lat="43.00358749727001" lon="12.86176137905637"><ele>817.0</ele><time>2026-04-18T13:13:39.999Z</time></trkpt><trkpt lat="43.003535228122445" lon="12.86199251332497"><ele>817.0</ele><time>2026-04-18T13:13:40.999Z</time></trkpt><trkpt lat="43.00347493656053" lon="12.862205328345674"><ele>815.0</ele><time>2026-04-18T13:13:41.999Z</time></trkpt><trkpt lat="43.00342945293619" lon="12.862406562630328"><ele>813.0</ele><time>2026-04-18T13:13:42.999Z</time></trkpt><trkpt lat="43.003400743767266" lon="12.86262352219086"><ele>811.0</ele><time>2026-04-18T13:13:43.999Z</time></trkpt><trkpt lat="43.003393962478505" lon="12.862843384232857"><ele>809.3333333333333</ele><time>2026-04-18T13:13:44.999Z</time></trkpt><trkpt lat="43.003418560099476" lon="12.863071595135407"><ele>807.6666666666667</ele><time>2026-04-18T13:13:45.999Z</time></trkpt><trkpt lat="43.003481158045034" lon="12.863294101954134"><ele>806.0</ele><time>2026-04-18T13:13:46.999Z</time></trkpt><trkpt lat="43.003569526395964" lon="12.863499401527427"><ele>804.25</ele><time>2026-04-18T13:13:47.999Z</time></trkpt><trkpt lat="43.003669024239414" lon="12.86368232531789"><ele>802.5</ele><time>2026-04-18T13:13:48.999Z</time></trkpt><trkpt lat="43.00375977640117" lon="12.863836461426068"><ele>800.75</ele><time>2026-04-18T13:13:49.999Z</time></trkpt><trkpt lat="43.003841392892426" lon="12.863972634151922"><ele>799.0</ele><time>2026-04-18T13:13:50.999Z</time></trkpt><trkpt lat="43.00391429044211" lon="12.864098511516373"><ele>799.0</ele><time>2026-04-18T13:13:51.999Z</time></trkpt><trkpt lat="43.00398809463653" lon="12.864202436844366"><ele>799.0</ele><time>2026-04-18T13:13:52.999Z</time></trkpt><trkpt lat="43.00407782688019" lon="12.864274743773946"><ele>799.0</ele><time>2026-04-18T13:13:53.999Z</time></trkpt><trkpt lat="43.00418912972254" lon="12.8643429420549"><ele>799.0</ele><time>2026-04-18T13:13:54.999Z</time></trkpt><trkpt lat="43.00431101423029" lon="12.864425848832155"><ele>798.75</ele><time>2026-04-18T13:13:55.999Z</time></trkpt><trkpt lat="43.00444037559161" lon="12.864517727380658"><ele>798.5</ele><time>2026-04-18T13:13:56.999Z</time></trkpt><trkpt lat="43.00457404229756" lon="12.864603547255003"><ele>798.25</ele><time>2026-04-18T13:13:57.999Z</time></trkpt><trkpt lat="43.00471080961646" lon="12.864692418707627"><ele>798.0</ele><time>2026-04-18T13:13:58.999Z</time></trkpt><trkpt lat="43.00483868952841" lon="12.86478460698852"><ele>798.0</ele><time>2026-04-18T13:13:59.999Z</time></trkpt><trkpt lat="43.00495075562522" lon="12.864872142851441"><ele>798.0</ele><time>2026-04-18T13:14:00.999Z</time></trkpt><trkpt lat="43.005062584771565" lon="12.864957170714794"><ele>798.0</ele><time>2026-04-18T13:14:01.999Z</time></trkpt><trkpt lat="43.00517650461981" lon="12.865048868905195"><ele>798.0</ele><time>2026-04-18T13:14:02.999Z</time></trkpt><trkpt lat="43.00529713327554" lon="12.865145216831491"><ele>797.3333333333333</ele><time>2026-04-18T13:14:03.999Z</time></trkpt><trkpt lat="43.005427014788566" lon="12.865242403461627"><ele>796.6666666666666</ele><time>2026-04-18T13:14:04.999Z</time></trkpt><trkpt lat="43.00556650392991" lon="12.865337174471883"><ele>796.0</ele><time>2026-04-18T13:14:05.999Z</time></trkpt><trkpt lat="43.00570391244039" lon="12.865428675427124"><ele>796.5</ele><time>2026-04-18T13:14:06.999Z</time></trkpt><trkpt lat="43.005844689346354" lon="12.865517851075134"><ele>797.0</ele><time>2026-04-18T13:14:07.999Z</time></trkpt><trkpt lat="43.005977323089574" lon="12.865605305119248"><ele>797.5</ele><time>2026-04-18T13:14:08.999Z</time></trkpt><trkpt lat="43.006104018418135" lon="12.865685658619558"><ele>798.0</ele><time>2026-04-18T13:14:09.999Z</time></trkpt><trkpt lat="43.00623162091542" lon="12.865767557431443"><ele>798.0</ele><time>2026-04-18T13:14:10.999Z</time></trkpt><trkpt lat="43.00634670651029" lon="12.86585133687916"><ele>798.0</ele><time>2026-04-18T13:14:12Z</time></trkpt><trkpt lat="43.006451112074636" lon="12.86593469469644"><ele>798.0</ele><time>2026-04-18T13:14:13Z</time></trkpt><trkpt lat="43.00655761059954" lon="12.866024793895084"><ele>798.0</ele><time>2026-04-18T13:14:14Z</time></trkpt><trkpt lat="43.006674053686865" lon="12.86610868806024"><ele>796.0</ele><time>2026-04-18T13:14:15Z</time></trkpt><trkpt lat="43.00679892573448" lon="12.86618161840709"><ele>794.0</ele><time>2026-04-18T13:14:16Z</time></trkpt><trkpt lat="43.00691972370173" lon="12.866247399413226"><ele>792.0</ele><time>2026-04-18T13:14:17Z</time></trkpt><trkpt lat="43.00703201649468" lon="12.866312747167015"><ele>790.0</ele><time>2026-04-18T13:14:18Z</time></trkpt><trkpt lat="43.00714014990818" lon="12.866375723027094"><ele>790.0</ele><time>2026-04-18T13:14:19Z</time></trkpt><trkpt lat="43.00724191056718" lon="12.866435804809363"><ele>790.0</ele><time>2026-04-18T13:14:20Z</time></trkpt><trkpt lat="43.007336213500416" lon="12.866482323468523"><ele>790.0</ele><time>2026-04-18T13:14:21Z</time></trkpt><trkpt lat="43.007433675526826" lon="12.866516657878694"><ele>790.0</ele><time>2026-04-18T13:14:22Z</time></trkpt><trkpt lat="43.00753879163514" lon="12.866536817155028"><ele>790.0</ele><time>2026-04-18T13:14:23Z</time></trkpt><trkpt lat="43.007650110078394" lon="12.866540611327876"><ele>791.25</ele><time>2026-04-18T13:14:24Z</time></trkpt><trkpt lat="43.00776873415963" lon="12.866551215167718"><ele>792.5</ele><time>2026-04-18T13:14:25Z</time></trkpt><trkpt lat="43.00789281911733" lon="12.866573788271292"><ele>793.75</ele><time>2026-04-18T13:14:26Z</time></trkpt><trkpt lat="43.008018416932885" lon="12.866615989705844"><ele>795.0</ele><time>2026-04-18T13:14:27Z</time></trkpt><trkpt lat="43.00814442626713" lon="12.866681699048282"><ele>795.0</ele><time>2026-04-18T13:14:28Z</time></trkpt><trkpt lat="43.00827123213504" lon="12.866763370386424"><ele>795.0</ele><time>2026-04-18T13:14:29Z</time></trkpt><trkpt lat="43.008390002071984" lon="12.866867316915576"><ele>795.0</ele><time>2026-04-18T13:14:30Z</time></trkpt><trkpt lat="43.008501850946296" lon="12.866965936640993"><ele>795.0</ele><time>2026-04-18T13:14:31Z</time></trkpt><trkpt lat="43.008614970401496" lon="12.867048063319007"><ele>791.6666666666667</ele><time>2026-04-18T13:14:32Z</time></trkpt><trkpt lat="43.008740003820016" lon="12.86711981443767"><ele>788.3333333333334</ele><time>2026-04-18T13:14:33Z</time></trkpt><trkpt lat="43.00888411870407" lon="12.867190252553208"><ele>785.0</ele><time>2026-04-18T13:14:34Z</time></trkpt><trkpt lat="43.00904998137025" lon="12.867268403978711"><ele>786.6666666666667</ele><time>2026-04-18T13:14:35Z</time></trkpt><trkpt lat="43.009216044294845" lon="12.867347150588747"><ele>788.3333333333333</ele><time>2026-04-18T13:14:36Z</time></trkpt><trkpt lat="43.009358798561806" lon="12.867418657485112"><ele>790.0</ele><time>2026-04-18T13:14:37Z</time></trkpt><trkpt lat="43.00948803114284" lon="12.867490365933909"><ele>790.0</ele><time>2026-04-18T13:14:38Z</time></trkpt><trkpt lat="43.00960202213154" lon="12.867554437695308"><ele>790.0</ele><time>2026-04-18T13:14:39Z</time></trkpt><trkpt lat="43.009717535442086" lon="12.867617653858268"><ele>790.0</ele><time>2026-04-18T13:14:40Z</time></trkpt><trkpt lat="43.00985529094627" lon="12.867644360597218"><ele>790.0</ele><time>2026-04-18T13:14:41Z</time></trkpt><trkpt lat="43.01001915342733" lon="12.867637330990448"><ele>786.6666666666666</ele><time>2026-04-18T13:14:42Z</time></trkpt><trkpt lat="43.010183811091224" lon="12.867622796952231"><ele>783.3333333333333</ele><time>2026-04-18T13:14:43Z</time></trkpt><trkpt lat="43.01034574344478" lon="12.867624807792243"><ele>780.0</ele><time>2026-04-18T13:14:44Z</time></trkpt><trkpt lat="43.01049664378754" lon="12.867642302593135"><ele>780.0</ele><time>2026-04-18T13:14:45Z</time></trkpt><trkpt lat="43.010630749439116" lon="12.867651090349234"><ele>780.0</ele><time>2026-04-18T13:14:46Z</time></trkpt><trkpt lat="43.010762361377374" lon="12.867649041180819"><ele>780.0</ele><time>2026-04-18T13:14:47Z</time></trkpt><trkpt lat="43.01088598033677" lon="12.867638454038689"><ele>780.0</ele><time>2026-04-18T13:14:48Z</time></trkpt><trkpt lat="43.01099796430752" lon="12.867607933824253"><ele>780.75</ele><time>2026-04-18T13:14:49Z</time></trkpt><trkpt lat="43.011102432026796" lon="12.867555903599108"><ele>781.5</ele><time>2026-04-18T13:14:50Z</time></trkpt><trkpt lat="43.011190659170886" lon="12.86745087961643"><ele>782.25</ele><time>2026-04-18T13:14:51Z</time></trkpt><trkpt lat="43.0112533408915" lon="12.867302506343538"><ele>783.0</ele><time>2026-04-18T13:14:52Z</time></trkpt><trkpt lat="43.01130366600855" lon="12.867120208255047"><ele>783.0</ele><time>2026-04-18T13:14:53Z</time></trkpt><trkpt lat="43.011351286586695" lon="12.866927254326432"><ele>783.0</ele><time>2026-04-18T13:14:54Z</time></trkpt><trkpt lat="43.01140959275748" lon="12.866758081238798"><ele>783.0</ele><time>2026-04-18T13:14:55Z</time></trkpt><trkpt lat="43.01146699590042" lon="12.866611867499818"><ele>783.0</ele><time>2026-04-18T13:14:56Z</time></trkpt><trkpt lat="43.01154000278665" lon="12.866484610711622"><ele>783.25</ele><time>2026-04-18T13:14:57Z</time></trkpt><trkpt lat="43.01164160625903" lon="12.866388050027341"><ele>783.5</ele><time>2026-04-18T13:14:58Z</time></trkpt><trkpt lat="43.01175656714578" lon="12.866316272287817"><ele>783.75</ele><time>2026-04-18T13:14:59Z</time></trkpt><trkpt lat="43.01187684488542" lon="12.866275851567998"><ele>784.0</ele><time>2026-04-18T13:15:00Z</time></trkpt><trkpt lat="43.012000233557515" lon="12.866238252218137"><ele>784.0</ele><time>2026-04-18T13:15:01Z</time></trkpt><trkpt lat="43.0121147909826" lon="12.866198025545643"><ele>784.0</ele><time>2026-04-18T13:15:02Z</time></trkpt><trkpt lat="43.01223841593905" lon="12.866185685999893"><ele>784.0</ele><time>2026-04-18T13:15:03Z</time></trkpt><trkpt lat="43.01235443469556" lon="12.86621511080963"><ele>784.0</ele><time>2026-04-18T13:15:04Z</time></trkpt><trkpt lat="43.01247325165845" lon="12.866268311914625"><ele>782.0</ele><time>2026-04-18T13:15:05Z</time></trkpt><trkpt lat="43.01259467663202" lon="12.86633033098638"><ele>780.0</ele><time>2026-04-18T13:15:06Z</time></trkpt><trkpt lat="43.012716534609986" lon="12.866386116799573"><ele>778.0</ele><time>2026-04-18T13:15:07Z</time></trkpt><trkpt lat="43.01282816763523" lon="12.866427136396974"><ele>776.0</ele><time>2026-04-18T13:15:08Z</time></trkpt><trkpt lat="43.012931257503695" lon="12.86644187976444"><ele>776.0</ele><time>2026-04-18T13:15:09Z</time></trkpt><trkpt lat="43.013038659245204" lon="12.866416790421468"><ele>776.0</ele><time>2026-04-18T13:15:10Z</time></trkpt><trkpt lat="43.01314734413006" lon="12.866340858143278"><ele>776.0</ele><time>2026-04-18T13:15:11Z</time></trkpt><trkpt lat="43.01325026048631" lon="12.866212145170824"><ele>776.0</ele><time>2026-04-18T13:15:12Z</time></trkpt><trkpt lat="43.01334937600307" lon="12.866042037417625"><ele>774.75</ele><time>2026-04-18T13:15:13Z</time></trkpt><trkpt lat="43.013450054108105" lon="12.86589227843114"><ele>773.5</ele><time>2026-04-18T13:15:14Z</time></trkpt><trkpt lat="43.013569645777885" lon="12.86576528749135"><ele>772.25</ele><time>2026-04-18T13:15:15Z</time></trkpt><trkpt lat="43.013675251341205" lon="12.865651528410307"><ele>771.0</ele><time>2026-04-18T13:15:16Z</time></trkpt><trkpt lat="43.01378417561846" lon="12.865536541973677"><ele>771.0</ele><time>2026-04-18T13:15:17Z</time></trkpt><trkpt lat="43.01388681914486" lon="12.865419056097886"><ele>771.0</ele><time>2026-04-18T13:15:18Z</time></trkpt><trkpt lat="43.01398842463749" lon="12.865302903054555"><ele>771.0</ele><time>2026-04-18T13:15:19Z</time></trkpt><trkpt lat="43.01408562190697" lon="12.865184848226436"><ele>771.0</ele><time>2026-04-18T13:15:20Z</time></trkpt><trkpt lat="43.01418615368254" lon="12.865060026960524"><ele>770.5</ele><time>2026-04-18T13:15:21Z</time></trkpt><trkpt lat="43.01428750437331" lon="12.864916954693447"><ele>770.0</ele><time>2026-04-18T13:15:22Z</time></trkpt><trkpt lat="43.01437979052714" lon="12.86476473581903"><ele>769.5</ele><time>2026-04-18T13:15:23Z</time></trkpt><trkpt lat="43.0144672595629" lon="12.864607218685325"><ele>769.0</ele><time>2026-04-18T13:15:24Z</time></trkpt><trkpt lat="43.014553225964164" lon="12.864443969756518"><ele>769.0</ele><time>2026-04-18T13:15:25Z</time></trkpt><trkpt lat="43.01463897298624" lon="12.864294560087494"><ele>769.0</ele><time>2026-04-18T13:15:26Z</time></trkpt><trkpt lat="43.014728173357135" lon="12.864169687515396"><ele>769.0</ele><time>2026-04-18T13:15:27Z</time></trkpt><trkpt lat="43.014836787676735" lon="12.8640595376393"><ele>769.0</ele><time>2026-04-18T13:15:28Z</time></trkpt><trkpt lat="43.01496441074501" lon="12.86399338996752"><ele>769.0</ele><time>2026-04-18T13:15:29Z</time></trkpt><trkpt lat="43.01509688705207" lon="12.863973006928887"><ele>769.0</ele><time>2026-04-18T13:15:30Z</time></trkpt><trkpt lat="43.01522685515502" lon="12.863965232499883"><ele>769.0</ele><time>2026-04-18T13:15:31Z</time></trkpt><trkpt lat="43.0153594511075" lon="12.86394862648966"><ele>769.0</ele><time>2026-04-18T13:15:32Z</time></trkpt><trkpt lat="43.015492343645995" lon="12.863927426965892"><ele>769.0</ele><time>2026-04-18T13:15:33Z</time></trkpt><trkpt lat="43.01562548931811" lon="12.863912447590105"><ele>769.0</ele><time>2026-04-18T13:15:34Z</time></trkpt><trkpt lat="43.015762594935524" lon="12.863889813179828"><ele>769.0</ele><time>2026-04-18T13:15:35Z</time></trkpt><trkpt lat="43.01589960835319" lon="12.863840074939402"><ele>769.0</ele><time>2026-04-18T13:15:36Z</time></trkpt><trkpt lat="43.0160341327934" lon="12.863755911579807"><ele>769.3333333333333</ele><time>2026-04-18T13:15:37Z</time></trkpt><trkpt lat="43.016166286979356" lon="12.863648213707611"><ele>769.6666666666667</ele><time>2026-04-18T13:15:38Z</time></trkpt><trkpt lat="43.0162981113787" lon="12.863525701592703"><ele>770.0</ele><time>2026-04-18T13:15:39Z</time></trkpt><trkpt lat="43.016425719113826" lon="12.863410443179546"><ele>770.25</ele><time>2026-04-18T13:15:40Z</time></trkpt><trkpt lat="43.0165448960341" lon="12.86330543654121"><ele>770.5</ele><time>2026-04-18T13:15:41Z</time></trkpt><trkpt lat="43.01666921621037" lon="12.863206630592055"><ele>770.75</ele><time>2026-04-18T13:15:42Z</time></trkpt><trkpt lat="43.01678999461772" lon="12.863128100850798"><ele>771.0</ele><time>2026-04-18T13:15:42.999Z</time></trkpt><trkpt lat="43.01691437604405" lon="12.8630658564157"><ele>772.0</ele><time>2026-04-18T13:15:43.999Z</time></trkpt><trkpt lat="43.017045106664305" lon="12.863018910375054"><ele>773.0</ele><time>2026-04-18T13:15:44.999Z</time></trkpt><trkpt lat="43.017179692634535" lon="12.862977271953048"><ele>774.0</ele><time>2026-04-18T13:15:45.999Z</time></trkpt><trkpt lat="43.017317314519275" lon="12.862934271378773"><ele>775.0</ele><time>2026-04-18T13:15:46.999Z</time></trkpt><trkpt lat="43.01745564740802" lon="12.862890323702686"><ele>777.75</ele><time>2026-04-18T13:15:47.999Z</time></trkpt><trkpt lat="43.01760023831759" lon="12.862844621612085"><ele>780.5</ele><time>2026-04-18T13:15:48.999Z</time></trkpt><trkpt lat="43.017740593112954" lon="12.862804245739431"><ele>783.25</ele><time>2026-04-18T13:15:49.999Z</time></trkpt><trkpt lat="43.0178851623086" lon="12.86276123919948"><ele>786.0</ele><time>2026-04-18T13:15:50.999Z</time></trkpt><trkpt lat="43.01802624286236" lon="12.862711553632442"><ele>786.0</ele><time>2026-04-18T13:15:51.999Z</time></trkpt><trkpt lat="43.01816228217283" lon="12.86263894945498"><ele>786.0</ele><time>2026-04-18T13:15:52.999Z</time></trkpt><trkpt lat="43.01829573280737" lon="12.862548639103426"><ele>786.0</ele><time>2026-04-18T13:15:53.999Z</time></trkpt><trkpt lat="43.01843171340929" lon="12.86244859341685"><ele>786.0</ele><time>2026-04-18T13:15:54.999Z</time></trkpt><trkpt lat="43.01856550998329" lon="12.862352561633582"><ele>786.25</ele><time>2026-04-18T13:15:55.999Z</time></trkpt><trkpt lat="43.01869866102443" lon="12.86226026266119"><ele>786.5</ele><time>2026-04-18T13:15:56.999Z</time></trkpt><trkpt lat="43.01883167093675" lon="12.862171350382114"><ele>786.75</ele><time>2026-04-18T13:15:57.999Z</time></trkpt><trkpt lat="43.018962606250405" lon="12.862088011950407"><ele>787.0</ele><time>2026-04-18T13:15:58.999Z</time></trkpt><trkpt lat="43.01909719093994" lon="12.862005751046434"><ele>787.75</ele><time>2026-04-18T13:15:59.999Z</time></trkpt><trkpt lat="43.01922960178243" lon="12.86193321184008"><ele>788.5</ele><time>2026-04-18T13:16:00.999Z</time></trkpt><trkpt lat="43.01936686657884" lon="12.861873836562872"><ele>789.25</ele><time>2026-04-18T13:16:01.999Z</time></trkpt><trkpt lat="43.01951364758187" lon="12.861820139062392"><ele>790.0</ele><time>2026-04-18T13:16:02.999Z</time></trkpt><trkpt lat="43.019648755163985" lon="12.861762683753375"><ele>791.0</ele><time>2026-04-18T13:16:03.999Z</time></trkpt><trkpt lat="43.019794961069266" lon="12.861703550100392"><ele>792.0</ele><time>2026-04-18T13:16:04.999Z</time></trkpt><trkpt lat="43.01993145613709" lon="12.86164364280282"><ele>793.0</ele><time>2026-04-18T13:16:05.999Z</time></trkpt><trkpt lat="43.02007479626999" lon="12.861580894108872"><ele>794.0</ele><time>2026-04-18T13:16:06.999Z</time></trkpt><trkpt lat="43.020207699223775" lon="12.861507986243613"><ele>795.0</ele><time>2026-04-18T13:16:07.999Z</time></trkpt><trkpt lat="43.02034283974478" lon="12.861428564544427"><ele>796.0</ele><time>2026-04-18T13:16:08.999Z</time></trkpt><trkpt lat="43.02048366724569" lon="12.861342272233394"><ele>797.0</ele><time>2026-04-18T13:16:09.999Z</time></trkpt><trkpt lat="43.02062192182305" lon="12.861247254278345"><ele>797.0</ele><time>2026-04-18T13:16:10.999Z</time></trkpt><trkpt lat="43.020760740723" lon="12.861148400558267"><ele>797.0</ele><time>2026-04-18T13:16:11.999Z</time></trkpt><trkpt lat="43.02089694106487" lon="12.86104550707371"><ele>797.0</ele><time>2026-04-18T13:16:12.999Z</time></trkpt><trkpt lat="43.021032698152496" lon="12.860944401417342"><ele>798.6666666666667</ele><time>2026-04-18T13:16:13.999Z</time></trkpt><trkpt lat="43.021174377448574" lon="12.860849853422465"><ele>800.3333333333333</ele><time>2026-04-18T13:16:14.999Z</time></trkpt><trkpt lat="43.02131704857167" lon="12.86076442670778"><ele>802.0</ele><time>2026-04-18T13:16:15.999Z</time></trkpt><trkpt lat="43.02146317742793" lon="12.860692855990626"><ele>802.0</ele><time>2026-04-18T13:16:16.999Z</time></trkpt><trkpt lat="43.021620549179616" lon="12.860645253428894"><ele>802.0</ele><time>2026-04-18T13:16:18Z</time></trkpt><trkpt lat="43.02178721787424" lon="12.860617313122484"><ele>802.0</ele><time>2026-04-18T13:16:19Z</time></trkpt><trkpt lat="43.021951077452684" lon="12.860584394993358"><ele>803.6666666666666</ele><time>2026-04-18T13:16:20Z</time></trkpt><trkpt lat="43.022119559864336" lon="12.86054542091437"><ele>805.3333333333333</ele><time>2026-04-18T13:16:21Z</time></trkpt><trkpt lat="43.02229454789869" lon="12.86050368337016"><ele>807.0</ele><time>2026-04-18T13:16:22Z</time></trkpt><trkpt lat="43.022466302501776" lon="12.860459221944089"><ele>807.6666666666667</ele><time>2026-04-18T13:16:23Z</time></trkpt><trkpt lat="43.02264388646455" lon="12.860419863473885"><ele>808.3333333333334</ele><time>2026-04-18T13:16:24Z</time></trkpt><trkpt lat="43.022814956468636" lon="12.860381483344167"><ele>809.0</ele><time>2026-04-18T13:16:25Z</time></trkpt><trkpt lat="43.02296846630264" lon="12.860349106780259"><ele>809.0</ele><time>2026-04-18T13:16:26Z</time></trkpt><trkpt lat="43.0231077292139" lon="12.860318019284783"><ele>809.0</ele><time>2026-04-18T13:16:27Z</time></trkpt><trkpt lat="43.02325012325787" lon="12.860269518387277"><ele>809.0</ele><time>2026-04-18T13:16:28Z</time></trkpt><trkpt lat="43.0233926871189" lon="12.860187905736542"><ele>809.0</ele><time>2026-04-18T13:16:29Z</time></trkpt><trkpt lat="43.02355931145657" lon="12.860076172012919"><ele>816.0</ele><time>2026-04-18T13:16:30Z</time></trkpt><trkpt lat="43.02371155519568" lon="12.859963790757769"><ele>823.0</ele><time>2026-04-18T13:16:31Z</time></trkpt><trkpt lat="43.02385235977355" lon="12.85985461151679"><ele>830.0</ele><time>2026-04-18T13:16:32Z</time></trkpt><trkpt lat="43.02399593515189" lon="12.859744146220876"><ele>830.0</ele><time>2026-04-18T13:16:33Z</time></trkpt><trkpt lat="43.024138064708445" lon="12.859622943220957"><ele>830.0</ele><time>2026-04-18T13:16:34Z</time></trkpt><trkpt lat="43.024284609429536" lon="12.859502954152182"><ele>830.0</ele><time>2026-04-18T13:16:35Z</time></trkpt><trkpt lat="43.024430231252715" lon="12.85939631353009"><ele>828.5</ele><time>2026-04-18T13:16:36Z</time></trkpt><trkpt lat="43.02456493430444" lon="12.859298056056168"><ele>827.0</ele><time>2026-04-18T13:16:37Z</time></trkpt><trkpt lat="43.0247007294484" lon="12.859187562540097"><ele>825.5</ele><time>2026-04-18T13:16:38Z</time></trkpt><trkpt lat="43.02481141270928" lon="12.859078651937077"><ele>824.0</ele><time>2026-04-18T13:16:39Z</time></trkpt><trkpt lat="43.02491238538015" lon="12.858977923013958"><ele>828.4000000000001</ele><time>2026-04-18T13:16:40Z</time></trkpt><trkpt lat="43.02501631096492" lon="12.858920839049475"><ele>832.8</ele><time>2026-04-18T13:16:41Z</time></trkpt><trkpt lat="43.02511845286125" lon="12.858927279477289"><ele>837.2</ele><time>2026-04-18T13:16:42Z</time></trkpt><trkpt lat="43.02520184583165" lon="12.858995783668169"><ele>841.5999999999999</ele><time>2026-04-18T13:16:43Z</time></trkpt><trkpt lat="43.02525966207899" lon="12.859067285687047"><ele>846.0</ele><time>2026-04-18T13:16:44Z</time></trkpt><trkpt lat="43.025339329804154" lon="12.859109917250086"><ele>846.0</ele><time>2026-04-18T13:16:45Z</time></trkpt><trkpt lat="43.02543284998027" lon="12.859115472874183"><ele>846.0</ele><time>2026-04-18T13:16:46Z</time></trkpt><trkpt lat="43.02553900036179" lon="12.859102817422661"><ele>846.0</ele><time>2026-04-18T13:16:47Z</time></trkpt><trkpt lat="43.02564755502229" lon="12.859090525940855"><ele>846.0</ele><time>2026-04-18T13:16:48Z</time></trkpt><trkpt lat="43.025752441701115" lon="12.85910792763054"><ele>846.0</ele><time>2026-04-18T13:16:49Z</time></trkpt><trkpt lat="43.025853448627196" lon="12.859163556431016"><ele>846.8</ele><time>2026-04-18T13:16:50Z</time></trkpt><trkpt lat="43.02596651293637" lon="12.859242592877694"><ele>847.5999999999999</ele><time>2026-04-18T13:16:50.999Z</time></trkpt><trkpt lat="43.02606342829863" lon="12.859310907956813"><ele>848.4</ele><time>2026-04-18T13:16:51.999Z</time></trkpt><trkpt lat="43.02614715021323" lon="12.859368588239205"><ele>849.2</ele><time>2026-04-18T13:16:52.999Z</time></trkpt><trkpt lat="43.026208883478205" lon="12.859414300181925"><ele>850.0</ele><time>2026-04-18T13:16:53.999Z</time></trkpt><trkpt lat="43.026303695904716" lon="12.85947351126677"><ele>848.5714285714286</ele><time>2026-04-18T13:16:55.999Z</time></trkpt><trkpt lat="43.02636797866676" lon="12.859493164516756"><ele>847.1428571428571</ele><time>2026-04-18T13:16:56.999Z</time></trkpt><trkpt lat="43.02643940614879" lon="12.859510862674913"><ele>845.7142857142858</ele><time>2026-04-18T13:16:57.999Z</time></trkpt><trkpt lat="43.02650499403605" lon="12.859514315447406"><ele>844.2857142857142</ele><time>2026-04-18T13:16:58.999Z</time></trkpt><trkpt lat="43.0265777131387" lon="12.85951528195019"><ele>842.8571428571429</ele><time>2026-04-18T13:17:00.999Z</time></trkpt><trkpt lat="43.02664062092421" lon="12.859471498405656"><ele>841.4285714285714</ele><time>2026-04-18T13:17:04.999Z</time></trkpt><trkpt lat="43.02663479552163" lon="12.859372856252232"><ele>840.0</ele><time>2026-04-18T13:17:06.999Z</time></trkpt><trkpt lat="43.02658559942525" lon="12.85928414934413"><ele>842.0</ele><time>2026-04-18T13:17:07.999Z</time></trkpt><trkpt lat="43.026516068822396" lon="12.859169515107132"><ele>844.0</ele><time>2026-04-18T13:17:08.999Z</time></trkpt><trkpt lat="43.026461214061214" lon="12.859057284439551"><ele>846.0</ele><time>2026-04-18T13:17:09.999Z</time></trkpt><trkpt lat="43.02641875340716" lon="12.85891312259727"><ele>848.0</ele><time>2026-04-18T13:17:10.999Z</time></trkpt><trkpt lat="43.026395097485434" lon="12.858777089038595"><ele>850.0</ele><time>2026-04-18T13:17:11.999Z</time></trkpt><trkpt lat="43.0263702213566" lon="12.858674312611674"><ele>849.9999999999999</ele><time>2026-04-18T13:17:13.999Z</time></trkpt><trkpt lat="43.02628724899158" lon="12.858577087721704"><ele>850.0</ele><time>2026-04-18T13:17:16.999Z</time></trkpt><trkpt lat="43.026221891563594" lon="12.858524627614733"><ele>850.0</ele><time>2026-04-18T13:17:17.999Z</time></trkpt><trkpt lat="43.02616689417778" lon="12.858468029045907"><ele>850.0</ele><time>2026-04-18T13:17:18.999Z</time></trkpt><trkpt lat="43.02609612871879" lon="12.858404827095972"><ele>849.9999999999999</ele><time>2026-04-18T13:17:19.999Z</time></trkpt><trkpt lat="43.02602610968754" lon="12.858346447828675"><ele>850.0</ele><time>2026-04-18T13:17:20.999Z</time></trkpt><trkpt lat="43.02595729465844" lon="12.858284179837618"><ele>853.3333333333333</ele><time>2026-04-18T13:17:21.999Z</time></trkpt><trkpt lat="43.02588492080102" lon="12.85821847718209"><ele>856.6666666666666</ele><time>2026-04-18T13:17:22.999Z</time></trkpt><trkpt lat="43.025807187197636" lon="12.858185743705983"><ele>860.0</ele><time>2026-04-18T13:17:23.999Z</time></trkpt><trkpt lat="43.025728613712886" lon="12.8581501830507"><ele>863.3333333333333</ele><time>2026-04-18T13:17:24.999Z</time></trkpt><trkpt lat="43.02565950059296" lon="12.858073335280276"><ele>866.6666666666666</ele><time>2026-04-18T13:17:25.999Z</time></trkpt><trkpt lat="43.025572422793054" lon="12.857997660766763"><ele>870.0</ele><time>2026-04-18T13:17:26.999Z</time></trkpt><trkpt lat="43.02548912809066" lon="12.85794638514336"><ele>870.0</ele><time>2026-04-18T13:17:27.999Z</time></trkpt><trkpt lat="43.025409900992024" lon="12.857876744888559"><ele>870.0</ele><time>2026-04-18T13:17:28.999Z</time></trkpt><trkpt lat="43.02533383340918" lon="12.857788640341818"><ele>870.0</ele><time>2026-04-18T13:17:29.999Z</time></trkpt><trkpt lat="43.025270610041574" lon="12.857687493556703"><ele>870.0</ele><time>2026-04-18T13:17:30.999Z</time></trkpt><trkpt lat="43.025229938872464" lon="12.857600559167103"><ele>870.0</ele><time>2026-04-18T13:17:31.999Z</time></trkpt><trkpt lat="43.02520634802217" lon="12.857513193378688"><ele>870.0</ele><time>2026-04-18T13:17:32.999Z</time></trkpt><trkpt lat="43.02518417729244" lon="12.857411317183255"><ele>874.1666666666666</ele><time>2026-04-18T13:17:33.999Z</time></trkpt><trkpt lat="43.02518571702551" lon="12.857297312740691"><ele>878.3333333333333</ele><time>2026-04-18T13:17:34.999Z</time></trkpt><trkpt lat="43.0251912664727" lon="12.857178002597"><ele>882.5</ele><time>2026-04-18T13:17:35.999Z</time></trkpt><trkpt lat="43.0251969342564" lon="12.8570552527475"><ele>886.6666666666666</ele><time>2026-04-18T13:17:36.999Z</time></trkpt><trkpt lat="43.02518952776962" lon="12.856923964474225"><ele>890.8333333333333</ele><time>2026-04-18T13:17:37.999Z</time></trkpt><trkpt lat="43.02518882532233" lon="12.856824339345819"><ele>895.0</ele><time>2026-04-18T13:17:38.999Z</time></trkpt><trkpt lat="43.02519921356853" lon="12.856697994404513"><ele>899.25</ele><time>2026-04-18T13:17:39.999Z</time></trkpt><trkpt lat="43.02521896580115" lon="12.856531125999544"><ele>903.5</ele><time>2026-04-18T13:17:40.999Z</time></trkpt><trkpt lat="43.02523257036401" lon="12.856349658313253"><ele>907.75</ele><time>2026-04-18T13:17:41.999Z</time></trkpt><trkpt lat="43.0252255026184" lon="12.856187456943562"><ele>912.0</ele><time>2026-04-18T13:17:42.999Z</time></trkpt><trkpt lat="43.02521137424986" lon="12.856027467819393"><ele>914.5</ele><time>2026-04-18T13:17:43.999Z</time></trkpt><trkpt lat="43.02520039860912" lon="12.855864570900163"><ele>917.0</ele><time>2026-04-18T13:17:44.999Z</time></trkpt><trkpt lat="43.02517912471957" lon="12.8556988240667"><ele>919.5</ele><time>2026-04-18T13:17:45.999Z</time></trkpt><trkpt lat="43.025147966766944" lon="12.855547991740297"><ele>922.0</ele><time>2026-04-18T13:17:46.999Z</time></trkpt><trkpt lat="43.02510977504085" lon="12.855395442010519"><ele>922.0</ele><time>2026-04-18T13:17:47.999Z</time></trkpt><trkpt lat="43.025071080238895" lon="12.855257320566018"><ele>922.0</ele><time>2026-04-18T13:17:48.999Z</time></trkpt><trkpt lat="43.02502969906831" lon="12.855122336930986"><ele>922.0</ele><time>2026-04-18T13:17:49.999Z</time></trkpt><trkpt lat="43.024988106944896" lon="12.855007661790939"><ele>922.0</ele><time>2026-04-18T13:17:50.999Z</time></trkpt><trkpt lat="43.024952007508254" lon="12.854874592087151"><ele>922.0</ele><time>2026-04-18T13:17:51.999Z</time></trkpt><trkpt lat="43.02490995187006" lon="12.854727400391333"><ele>922.5</ele><time>2026-04-18T13:17:52.999Z</time></trkpt><trkpt lat="43.02484938106934" lon="12.854587351005218"><ele>923.0</ele><time>2026-04-18T13:17:53.999Z</time></trkpt><trkpt lat="43.02478568088257" lon="12.854436724021735"><ele>923.5</ele><time>2026-04-18T13:17:54.999Z</time></trkpt><trkpt lat="43.02474994922568" lon="12.85429387214764"><ele>924.0</ele><time>2026-04-18T13:17:55.999Z</time></trkpt><trkpt lat="43.02471869759433" lon="12.854170998411648"><ele>926.4000000000001</ele><time>2026-04-18T13:17:56.999Z</time></trkpt><trkpt lat="43.024696180558045" lon="12.854051574881495"><ele>928.8000000000001</ele><time>2026-04-18T13:17:57.999Z</time></trkpt><trkpt lat="43.02469151061807" lon="12.85391815382549"><ele>931.1999999999999</ele><time>2026-04-18T13:17:58.999Z</time></trkpt><trkpt lat="43.02466133983249" lon="12.853760303263956"><ele>933.5999999999999</ele><time>2026-04-18T13:17:59.999Z</time></trkpt><trkpt lat="43.02461494429526" lon="12.853630789391275"><ele>936.0</ele><time>2026-04-18T13:18:00.998Z</time></trkpt><trkpt lat="43.02457054893986" lon="12.853482862498728"><ele>937.5</ele><time>2026-04-18T13:18:01.998Z</time></trkpt><trkpt lat="43.02453954342622" lon="12.853307355641126"><ele>939.0</ele><time>2026-04-18T13:18:02.998Z</time></trkpt><trkpt lat="43.02450819635454" lon="12.85314117555116"><ele>940.5</ele><time>2026-04-18T13:18:03.998Z</time></trkpt><trkpt lat="43.024467916658" lon="12.852983972526296"><ele>942.0</ele><time>2026-04-18T13:18:04.998Z</time></trkpt><trkpt lat="43.02443325842206" lon="12.852848503273728"><ele>942.0</ele><time>2026-04-18T13:18:05.998Z</time></trkpt><trkpt lat="43.024391482241725" lon="12.852719380278463"><ele>942.0</ele><time>2026-04-18T13:18:06.998Z</time></trkpt><trkpt lat="43.02434806157275" lon="12.852568931782882"><ele>942.0</ele><time>2026-04-18T13:18:07.998Z</time></trkpt><trkpt lat="43.02431977455033" lon="12.8524440534115"><ele>942.0</ele><time>2026-04-18T13:18:08.998Z</time></trkpt><trkpt lat="43.02429745936316" lon="12.852319921574184"><ele>942.0</ele><time>2026-04-18T13:18:09.998Z</time></trkpt><trkpt lat="43.02426151902863" lon="12.8521731265654"><ele>942.8</ele><time>2026-04-18T13:18:10.998Z</time></trkpt><trkpt lat="43.02425938138531" lon="12.852043066669287"><ele>943.6</ele><time>2026-04-18T13:18:11.998Z</time></trkpt><trkpt lat="43.02426485296439" lon="12.85191833284686"><ele>944.3999999999999</ele><time>2026-04-18T13:18:12.998Z</time></trkpt><trkpt lat="43.0241953278035" lon="12.851749352474032"><ele>945.1999999999999</ele><time>2026-04-18T13:18:14.998Z</time></trkpt><trkpt lat="43.02412206426891" lon="12.851669075366798"><ele>946.0</ele><time>2026-04-18T13:18:15.998Z</time></trkpt><trkpt lat="43.02404339031207" lon="12.8515575973414"><ele>946.8</ele><time>2026-04-18T13:18:16.998Z</time></trkpt><trkpt lat="43.02394053812814" lon="12.851432503823725"><ele>947.5999999999999</ele><time>2026-04-18T13:18:17.998Z</time></trkpt><trkpt lat="43.023858822100856" lon="12.851318840767782"><ele>948.4</ele><time>2026-04-18T13:18:18.998Z</time></trkpt><trkpt lat="43.023811682568976" lon="12.851225256401042"><ele>949.2</ele><time>2026-04-18T13:18:19.998Z</time></trkpt><trkpt lat="43.023774722796674" lon="12.851101406788757"><ele>950.0</ele><time>2026-04-18T13:18:20.998Z</time></trkpt><trkpt lat="43.02374722689452" lon="12.850994945868761"><ele>953.0</ele><time>2026-04-18T13:18:21.998Z</time></trkpt><trkpt lat="43.023728547561035" lon="12.850865297583951"><ele>956.0</ele><time>2026-04-18T13:18:22.998Z</time></trkpt><trkpt lat="43.02364835048389" lon="12.85072058666493"><ele>959.0</ele><time>2026-04-18T13:18:24.999Z</time></trkpt><trkpt lat="43.02355497637737" lon="12.850687163299012"><ele>962.0</ele><time>2026-04-18T13:18:25.999Z</time></trkpt><trkpt lat="43.0234970062036" lon="12.850636783073096"><ele>965.0</ele><time>2026-04-18T13:18:26.999Z</time></trkpt><trkpt lat="43.02342941018921" lon="12.850516476269611"><ele>965.0</ele><time>2026-04-18T13:18:27.999Z</time></trkpt><trkpt lat="43.023344714719286" lon="12.85039812000845"><ele>965.0</ele><time>2026-04-18T13:18:28.999Z</time></trkpt><trkpt lat="43.02325078266404" lon="12.850294239077027"><ele>965.0</ele><time>2026-04-18T13:18:29.999Z</time></trkpt><trkpt lat="43.02313059942461" lon="12.85016858192052"><ele>965.0</ele><time>2026-04-18T13:18:30.999Z</time></trkpt><trkpt lat="43.02303850689089" lon="12.850057001112454"><ele>966.25</ele><time>2026-04-18T13:18:31.999Z</time></trkpt><trkpt lat="43.02296075660456" lon="12.849933751834078"><ele>967.5</ele><time>2026-04-18T13:18:32.999Z</time></trkpt><trkpt lat="43.02288293377742" lon="12.849788321780894"><ele>968.75</ele><time>2026-04-18T13:18:33.999Z</time></trkpt><trkpt lat="43.02278798799418" lon="12.849669101256978"><ele>970.0</ele><time>2026-04-18T13:18:34.999Z</time></trkpt><trkpt lat="43.02267547159054" lon="12.849583827212658"><ele>970.0</ele><time>2026-04-18T13:18:35.999Z</time></trkpt><trkpt lat="43.022568461707785" lon="12.849512806406164"><ele>970.0</ele><time>2026-04-18T13:18:37Z</time></trkpt><trkpt lat="43.02249105077313" lon="12.849424887377705"><ele>970.0</ele><time>2026-04-18T13:18:37.999Z</time></trkpt><trkpt lat="43.02242794330239" lon="12.849322374684013"><ele>970.0</ele><time>2026-04-18T13:18:38.999Z</time></trkpt><trkpt lat="43.022375796574025" lon="12.849227175770801"><ele>970.0</ele><time>2026-04-18T13:18:39.999Z</time></trkpt><trkpt lat="43.02235367512725" lon="12.849136250742948"><ele>970.8</ele><time>2026-04-18T13:18:40.999Z</time></trkpt><trkpt lat="43.022354611737825" lon="12.849013842948974"><ele>971.6</ele><time>2026-04-18T13:18:41.999Z</time></trkpt><trkpt lat="43.02234903446467" lon="12.848901841795689"><ele>972.4000000000001</ele><time>2026-04-18T13:18:42.999Z</time></trkpt><trkpt lat="43.02230445253212" lon="12.848816890978364"><ele>973.2</ele><time>2026-04-18T13:18:43.999Z</time></trkpt><trkpt lat="43.022225130117235" lon="12.848731151631206"><ele>974.0</ele><time>2026-04-18T13:18:44.999Z</time></trkpt><trkpt lat="43.02215822641138" lon="12.848624294524102"><ele>974.0</ele><time>2026-04-18T13:18:45.999Z</time></trkpt><trkpt lat="43.02209635175073" lon="12.848485548366462"><ele>974.0</ele><time>2026-04-18T13:18:46.999Z</time></trkpt><trkpt lat="43.022029138905374" lon="12.848360347379387"><ele>974.0</ele><time>2026-04-18T13:18:47.999Z</time></trkpt><trkpt lat="43.021961198903625" lon="12.848231114904127"><ele>974.0</ele><time>2026-04-18T13:18:48.999Z</time></trkpt><trkpt lat="43.02191040019488" lon="12.848100519087833"><ele>974.4000000000001</ele><time>2026-04-18T13:18:49.999Z</time></trkpt><trkpt lat="43.021869934716555" lon="12.847962234330192"><ele>974.8000000000001</ele><time>2026-04-18T13:18:50.999Z</time></trkpt><trkpt lat="43.021831841421275" lon="12.84783300563573"><ele>975.1999999999999</ele><time>2026-04-18T13:18:51.999Z</time></trkpt><trkpt lat="43.02179055839001" lon="12.847744929187918"><ele>975.5999999999999</ele><time>2026-04-18T13:18:52.999Z</time></trkpt><trkpt lat="43.021656391687486" lon="12.84768511896838"><ele>976.0</ele><time>2026-04-18T13:18:54.999Z</time></trkpt><trkpt lat="43.02159798925744" lon="12.847626114317222"><ele>975.9999999999999</ele><time>2026-04-18T13:18:55.999Z</time></trkpt><trkpt lat="43.0215643915339" lon="12.847537112230281"><ele>976.0</ele><time>2026-04-18T13:18:56.999Z</time></trkpt><trkpt lat="43.021513831112024" lon="12.84740010911643"><ele>976.0</ele><time>2026-04-18T13:18:58.999Z</time></trkpt><trkpt lat="43.02144258631798" lon="12.847316604431626"><ele>976.0</ele><time>2026-04-18T13:18:59.999Z</time></trkpt><trkpt lat="43.02135649564968" lon="12.847286632799545"><ele>975.9999999999999</ele><time>2026-04-18T13:19:00.999Z</time></trkpt><trkpt lat="43.021291203775974" lon="12.847281734031046"><ele>976.0</ele><time>2026-04-18T13:19:01.999Z</time></trkpt><trkpt lat="43.02124826293713" lon="12.847167210605821"><ele>975.9999999999999</ele><time>2026-04-18T13:19:04.999Z</time></trkpt><trkpt lat="43.021222620062986" lon="12.847017586592344"><ele>976.0</ele><time>2026-04-18T13:19:06.999Z</time></trkpt><trkpt lat="43.02119482229748" lon="12.846940055721872"><ele>976.0</ele><time>2026-04-18T13:19:07.999Z</time></trkpt><trkpt lat="43.02114773326894" lon="12.84683017855475"><ele>976.0</ele><time>2026-04-18T13:19:08.999Z</time></trkpt><trkpt lat="43.02109651100508" lon="12.846727541207972"><ele>975.9999999999999</ele><time>2026-04-18T13:19:09.999Z</time></trkpt><trkpt lat="43.02107139941221" lon="12.846611491399713"><ele>976.0</ele><time>2026-04-18T13:19:10.999Z</time></trkpt><trkpt lat="43.02105545508194" lon="12.846523318806353"><ele>976.1999999999999</ele><time>2026-04-18T13:19:11.999Z</time></trkpt><trkpt lat="43.02093230765846" lon="12.846401895028238"><ele>976.3999999999999</ele><time>2026-04-18T13:19:13.999Z</time></trkpt><trkpt lat="43.020865869960836" lon="12.846302277817742"><ele>976.6</ele><time>2026-04-18T13:19:14.999Z</time></trkpt><trkpt lat="43.02083296465089" lon="12.846228073412254"><ele>976.8</ele><time>2026-04-18T13:19:15.999Z</time></trkpt><trkpt lat="43.020764394335366" lon="12.84619674992554"><ele>977.0</ele><time>2026-04-18T13:19:18.999Z</time></trkpt><trkpt lat="43.020710087238" lon="12.846139520921714"><ele>975.6666666666667</ele><time>2026-04-18T13:19:20.999Z</time></trkpt><trkpt lat="43.02062537723191" lon="12.846162687088151"><ele>974.3333333333334</ele><time>2026-04-18T13:19:22.999Z</time></trkpt><trkpt lat="43.02055694053828" lon="12.84618829568776"><ele>973.0</ele><time>2026-04-18T13:19:23.999Z</time></trkpt><trkpt lat="43.02045539289301" lon="12.84626416266823"><ele>971.6666666666667</ele><time>2026-04-18T13:19:25.999Z</time></trkpt><trkpt lat="43.02038610792987" lon="12.846281414581789"><ele>970.3333333333334</ele><time>2026-04-18T13:19:26.999Z</time></trkpt><trkpt lat="43.020294917540994" lon="12.846287205907648"><ele>969.0</ele><time>2026-04-18T13:19:27.999Z</time></trkpt><trkpt lat="43.02019666952165" lon="12.846297120870688"><ele>968.9999999999999</ele><time>2026-04-18T13:19:28.999Z</time></trkpt><trkpt lat="43.020125595328416" lon="12.846309028717815"><ele>969.0</ele><time>2026-04-18T13:19:29.999Z</time></trkpt><trkpt lat="43.02006187250225" lon="12.846335021469889"><ele>968.9999999999999</ele><time>2026-04-18T13:19:30.999Z</time></trkpt><trkpt lat="43.01999775727195" lon="12.846329004220419"><ele>968.9999999999999</ele><time>2026-04-18T13:19:31.999Z</time></trkpt><trkpt lat="43.01993490855319" lon="12.846309105719628"><ele>969.0</ele><time>2026-04-18T13:19:32.999Z</time></trkpt><trkpt lat="43.01987190040793" lon="12.846324197274466"><ele>968.9999999999999</ele><time>2026-04-18T13:19:33.999Z</time></trkpt><trkpt lat="43.01979540172367" lon="12.846313184528826"><ele>968.9999999999999</ele><time>2026-04-18T13:19:35.999Z</time></trkpt><trkpt lat="43.01970260694945" lon="12.846295417244166"><ele>966.5</ele><time>2026-04-18T13:19:37.999Z</time></trkpt><trkpt lat="43.01963966580867" lon="12.846334995642508"><ele>964.0</ele><time>2026-04-18T13:19:38.999Z</time></trkpt><trkpt lat="43.01958312028965" lon="12.846410765930111"><ele>961.5</ele><time>2026-04-18T13:19:39.999Z</time></trkpt><trkpt lat="43.0195395756175" lon="12.84649268205558"><ele>959.0</ele><time>2026-04-18T13:19:40.999Z</time></trkpt><trkpt lat="43.019419255943774" lon="12.846520163833567"><ele>956.5</ele><time>2026-04-18T13:19:42.999Z</time></trkpt><trkpt lat="43.01934422097855" lon="12.846485143097137"><ele>954.0</ele><time>2026-04-18T13:19:43.999Z</time></trkpt><trkpt lat="43.01923314079726" lon="12.846531285479958"><ele>954.0</ele><time>2026-04-18T13:19:45.999Z</time></trkpt><trkpt lat="43.01916539505384" lon="12.846583501502266"><ele>954.0000000000001</ele><time>2026-04-18T13:19:46.999Z</time></trkpt><trkpt lat="43.019090158083785" lon="12.846597451045119"><ele>954.0000000000001</ele><time>2026-04-18T13:19:47.999Z</time></trkpt><trkpt lat="43.01896536175314" lon="12.84665456561538"><ele>954.0</ele><time>2026-04-18T13:19:49.999Z</time></trkpt><trkpt lat="43.01888803267305" lon="12.846596597699312"><ele>954.0</ele><time>2026-04-18T13:19:51.999Z</time></trkpt><trkpt lat="43.01883801429899" lon="12.846512776942168"><ele>950.5</ele><time>2026-04-18T13:19:52.999Z</time></trkpt><trkpt lat="43.01879558264377" lon="12.84643672191471"><ele>947.0</ele><time>2026-04-18T13:19:53.999Z</time></trkpt><trkpt lat="43.01875885161593" lon="12.846337996845952"><ele>943.5</ele><time>2026-04-18T13:19:55.999Z</time></trkpt><trkpt lat="43.018761960812775" lon="12.846232396190524"><ele>940.0</ele><time>2026-04-18T13:19:57.999Z</time></trkpt><trkpt lat="43.01869441898336" lon="12.846189392018116"><ele>936.5</ele><time>2026-04-18T13:19:59.999Z</time></trkpt><trkpt lat="43.01863627845148" lon="12.846080521062257"><ele>933.0</ele><time>2026-04-18T13:20:01.999Z</time></trkpt><trkpt lat="43.01862436574452" lon="12.845957233104157"><ele>931.4</ele><time>2026-04-18T13:20:03.999Z</time></trkpt><trkpt lat="43.01865055411655" lon="12.845815969970948"><ele>929.8</ele><time>2026-04-18T13:20:05.999Z</time></trkpt><trkpt lat="43.01862470920469" lon="12.845656332723406"><ele>928.2</ele><time>2026-04-18T13:20:07.999Z</time></trkpt><trkpt lat="43.01863858409028" lon="12.84552316459861"><ele>926.6</ele><time>2026-04-18T13:20:09.998Z</time></trkpt><trkpt lat="43.01857043418174" lon="12.845563001360627"><ele>925.0</ele><time>2026-04-18T13:20:11.998Z</time></trkpt><trkpt lat="43.01850105428983" lon="12.845612563180678"><ele>925.0</ele><time>2026-04-18T13:20:12.998Z</time></trkpt><trkpt lat="43.01841780547474" lon="12.845697557803776"><ele>925.0</ele><time>2026-04-18T13:20:13.998Z</time></trkpt><trkpt lat="43.01833251455698" lon="12.84578256951703"><ele>925.0</ele><time>2026-04-18T13:20:14.998Z</time></trkpt><trkpt lat="43.01824627140455" lon="12.845867615521348"><ele>925.0</ele><time>2026-04-18T13:20:15.998Z</time></trkpt><trkpt lat="43.01816106750053" lon="12.845925738363514"><ele>925.0</ele><time>2026-04-18T13:20:16.998Z</time></trkpt><trkpt lat="43.018066951320826" lon="12.845997938384519"><ele>921.6666666666666</ele><time>2026-04-18T13:20:17.998Z</time></trkpt><trkpt lat="43.017997563403185" lon="12.846070854132352"><ele>918.3333333333333</ele><time>2026-04-18T13:20:18.998Z</time></trkpt><trkpt lat="43.01792230105672" lon="12.84613261881971"><ele>915.0</ele><time>2026-04-18T13:20:19.998Z</time></trkpt><trkpt lat="43.01786254087615" lon="12.846175439629723"><ele>911.6666666666667</ele><time>2026-04-18T13:20:20.998Z</time></trkpt><trkpt lat="43.01780197490891" lon="12.84620762789583"><ele>908.3333333333334</ele><time>2026-04-18T13:20:21.998Z</time></trkpt><trkpt lat="43.01773517551347" lon="12.846266271804508"><ele>905.0</ele><time>2026-04-18T13:20:22.998Z</time></trkpt><trkpt lat="43.0176531531154" lon="12.846360686369598"><ele>905.0</ele><time>2026-04-18T13:20:23.998Z</time></trkpt><trkpt lat="43.01756281998523" lon="12.846475953210657"><ele>905.0</ele><time>2026-04-18T13:20:24.998Z</time></trkpt><trkpt lat="43.017485406686035" lon="12.84657698925112"><ele>905.0</ele><time>2026-04-18T13:20:25.998Z</time></trkpt><trkpt lat="43.017403562399515" lon="12.846660635871848"><ele>905.0</ele><time>2026-04-18T13:20:26.998Z</time></trkpt><trkpt lat="43.017336905665715" lon="12.846755449392806"><ele>905.0</ele><time>2026-04-18T13:20:27.998Z</time></trkpt><trkpt lat="43.01728519279379" lon="12.846822170757912"><ele>899.8333333333334</ele><time>2026-04-18T13:20:28.998Z</time></trkpt><trkpt lat="43.01719460867224" lon="12.846869041620993"><ele>894.6666666666667</ele><time>2026-04-18T13:20:31Z</time></trkpt><trkpt lat="43.0171395281462" lon="12.846742454165074"><ele>889.5</ele><time>2026-04-18T13:20:33Z</time></trkpt><trkpt lat="43.01710171751887" lon="12.846632611196846"><ele>884.3333333333333</ele><time>2026-04-18T13:20:34Z</time></trkpt><trkpt lat="43.017088486900285" lon="12.84654567542989"><ele>879.1666666666666</ele><time>2026-04-18T13:20:35Z</time></trkpt><trkpt lat="43.017046986791286" lon="12.846456800589744"><ele>874.0</ele><time>2026-04-18T13:20:36Z</time></trkpt><trkpt lat="43.016947048314286" lon="12.846379982751847"><ele>874.0</ele><time>2026-04-18T13:20:38Z</time></trkpt><trkpt lat="43.01694516004394" lon="12.846234587529036"><ele>874.0000000000001</ele><time>2026-04-18T13:20:40Z</time></trkpt><trkpt lat="43.016993079201974" lon="12.846111826085437"><ele>874.0000000000001</ele><time>2026-04-18T13:20:41Z</time></trkpt><trkpt lat="43.0170460879469" lon="12.84599899190986"><ele>874.0</ele><time>2026-04-18T13:20:42Z</time></trkpt><trkpt lat="43.017104987946276" lon="12.845901770000683"><ele>874.0</ele><time>2026-04-18T13:20:43Z</time></trkpt><trkpt lat="43.017186341680684" lon="12.845789922629676"><ele>871.0</ele><time>2026-04-18T13:20:44Z</time></trkpt><trkpt lat="43.01727011588895" lon="12.845655653609654"><ele>868.0</ele><time>2026-04-18T13:20:45Z</time></trkpt><trkpt lat="43.01728800893478" lon="12.845507922476807"><ele>865.0</ele><time>2026-04-18T13:20:46Z</time></trkpt><trkpt lat="43.017323874457766" lon="12.845360495538566"><ele>862.0</ele><time>2026-04-18T13:20:47Z</time></trkpt><trkpt lat="43.017386971117034" lon="12.845240390833888"><ele>864.75</ele><time>2026-04-18T13:20:48Z</time></trkpt><trkpt lat="43.017468284394" lon="12.845120444895414"><ele>867.5</ele><time>2026-04-18T13:20:49Z</time></trkpt><trkpt lat="43.01756109617957" lon="12.845004347150569"><ele>870.25</ele><time>2026-04-18T13:20:50Z</time></trkpt><trkpt lat="43.017626187107226" lon="12.844844859694247"><ele>873.0</ele><time>2026-04-18T13:20:51Z</time></trkpt><trkpt lat="43.017669269926586" lon="12.844662657925326"><ele>873.0</ele><time>2026-04-18T13:20:52Z</time></trkpt><trkpt lat="43.01771013064819" lon="12.844476906651126"><ele>873.0</ele><time>2026-04-18T13:20:52.999Z</time></trkpt><trkpt lat="43.01777702906277" lon="12.844288575144205"><ele>873.0</ele><time>2026-04-18T13:20:53.999Z</time></trkpt><trkpt lat="43.017840388763815" lon="12.844078798296655"><ele>867.3333333333333</ele><time>2026-04-18T13:20:54.999Z</time></trkpt><trkpt lat="43.01789093330711" lon="12.84386400318707"><ele>861.6666666666666</ele><time>2026-04-18T13:20:55.999Z</time></trkpt><trkpt lat="43.01793799347498" lon="12.843672422027248"><ele>856.0</ele><time>2026-04-18T13:20:56.999Z</time></trkpt><trkpt lat="43.017968242781855" lon="12.843477554433191"><ele>854.25</ele><time>2026-04-18T13:20:57.999Z</time></trkpt><trkpt lat="43.01797720424276" lon="12.84328795900074"><ele>852.5</ele><time>2026-04-18T13:20:58.999Z</time></trkpt><trkpt lat="43.01798553309391" lon="12.84312007656035"><ele>850.75</ele><time>2026-04-18T13:20:59.999Z</time></trkpt><trkpt lat="43.017994103400284" lon="12.842967176080089"><ele>849.0</ele><time>2026-04-18T13:21:00.999Z</time></trkpt><trkpt lat="43.01801684911247" lon="12.842849770013354"><ele>849.0</ele><time>2026-04-18T13:21:01.999Z</time></trkpt><trkpt lat="43.0180591146131" lon="12.842751657790036"><ele>849.0</ele><time>2026-04-18T13:21:02.999Z</time></trkpt><trkpt lat="43.01808980506632" lon="12.842663162092668"><ele>849.0</ele><time>2026-04-18T13:21:03.999Z</time></trkpt><trkpt lat="43.01812833056167" lon="12.842593915444695"><ele>849.0</ele><time>2026-04-18T13:21:04.999Z</time></trkpt><trkpt lat="43.01827313159767" lon="12.842513342202714"><ele>849.0</ele><time>2026-04-18T13:21:06.999Z</time></trkpt><trkpt lat="43.018397808937785" lon="12.842434484440693"><ele>852.0</ele><time>2026-04-18T13:21:07.999Z</time></trkpt><trkpt lat="43.01853821703881" lon="12.842361340037993"><ele>855.0</ele><time>2026-04-18T13:21:08.999Z</time></trkpt><trkpt lat="43.01869416227009" lon="12.842292645921589"><ele>858.0</ele><time>2026-04-18T13:21:09.999Z</time></trkpt><trkpt lat="43.01885905477124" lon="12.84226496931892"><ele>858.0</ele><time>2026-04-18T13:21:10.999Z</time></trkpt><trkpt lat="43.01903283684555" lon="12.842268352609118"><ele>858.0</ele><time>2026-04-18T13:21:11.999Z</time></trkpt><trkpt lat="43.019209430747495" lon="12.842256486906559"><ele>858.0</ele><time>2026-04-18T13:21:12.999Z</time></trkpt><trkpt lat="43.01937609749621" lon="12.842242746471696"><ele>859.5</ele><time>2026-04-18T13:21:13.999Z</time></trkpt><trkpt lat="43.019534743274995" lon="12.842237961679489"><ele>861.0</ele><time>2026-04-18T13:21:14.999Z</time></trkpt><trkpt lat="43.019666502477705" lon="12.84223014749313"><ele>862.5</ele><time>2026-04-18T13:21:15.999Z</time></trkpt><trkpt lat="43.01978792593674" lon="12.84217642448258"><ele>864.0</ele><time>2026-04-18T13:21:16.999Z</time></trkpt><trkpt lat="43.019880933313345" lon="12.8420918794714"><ele>864.0</ele><time>2026-04-18T13:21:17.999Z</time></trkpt><trkpt lat="43.019936653693726" lon="12.8419980691041"><ele>864.0000000000001</ele><time>2026-04-18T13:21:18.999Z</time></trkpt><trkpt lat="43.02001948026577" lon="12.841977794274452"><ele>864.0000000000001</ele><time>2026-04-18T13:21:19.999Z</time></trkpt><trkpt lat="43.020129080148216" lon="12.841979586792213"><ele>864.0</ele><time>2026-04-18T13:21:20.999Z</time></trkpt><trkpt lat="43.020256642665345" lon="12.842000241297042"><ele>864.0</ele><time>2026-04-18T13:21:21.999Z</time></trkpt><trkpt lat="43.02038789814443" lon="12.842018074789507"><ele>866.25</ele><time>2026-04-18T13:21:22.999Z</time></trkpt><trkpt lat="43.020504656944944" lon="12.84200972880314"><ele>868.5</ele><time>2026-04-18T13:21:23.999Z</time></trkpt><trkpt lat="43.02062915204123" lon="12.84203706944623"><ele>870.75</ele><time>2026-04-18T13:21:24.999Z</time></trkpt><trkpt lat="43.02075989712259" lon="12.842085649476473"><ele>873.0</ele><time>2026-04-18T13:21:25.999Z</time></trkpt><trkpt lat="43.02091278502813" lon="12.842114652711771"><ele>875.0</ele><time>2026-04-18T13:21:26.999Z</time></trkpt><trkpt lat="43.02107380004953" lon="12.842124139412787"><ele>877.0</ele><time>2026-04-18T13:21:27.999Z</time></trkpt><trkpt lat="43.02121749748152" lon="12.842139487747302"><ele>879.0</ele><time>2026-04-18T13:21:28.999Z</time></trkpt><trkpt lat="43.02134097443933" lon="12.842127967475264"><ele>881.0</ele><time>2026-04-18T13:21:29.999Z</time></trkpt><trkpt lat="43.02147176589036" lon="12.84209063008142"><ele>881.0</ele><time>2026-04-18T13:21:30.999Z</time></trkpt><trkpt lat="43.02157826523459" lon="12.842072594141793"><ele>880.9999999999999</ele><time>2026-04-18T13:21:31.999Z</time></trkpt><trkpt lat="43.02166716870149" lon="12.842111133440259"><ele>880.9999999999999</ele><time>2026-04-18T13:21:32.999Z</time></trkpt><trkpt lat="43.02177093954328" lon="12.842184215003666"><ele>881.0</ele><time>2026-04-18T13:21:33.999Z</time></trkpt><trkpt lat="43.021867206189825" lon="12.842220191377843"><ele>881.0</ele><time>2026-04-18T13:21:34.999Z</time></trkpt><trkpt lat="43.02198087335096" lon="12.842265695104814"><ele>880.75</ele><time>2026-04-18T13:21:35.999Z</time></trkpt><trkpt lat="43.02209029190573" lon="12.842333180237961"><ele>880.5</ele><time>2026-04-18T13:21:36.999Z</time></trkpt><trkpt lat="43.02220860653546" lon="12.842420794774041"><ele>880.25</ele><time>2026-04-18T13:21:37.999Z</time></trkpt><trkpt lat="43.02233573534637" lon="12.84250667654119"><ele>880.0</ele><time>2026-04-18T13:21:38.999Z</time></trkpt><trkpt lat="43.022480998493954" lon="12.842580853329059"><ele>883.75</ele><time>2026-04-18T13:21:39.999Z</time></trkpt><trkpt lat="43.022623815558774" lon="12.84265445197533"><ele>887.5</ele><time>2026-04-18T13:21:40.999Z</time></trkpt><trkpt lat="43.02274507070805" lon="12.842730492900763"><ele>891.25</ele><time>2026-04-18T13:21:41.999Z</time></trkpt><trkpt lat="43.02283828905992" lon="12.84281346227157"><ele>895.0</ele><time>2026-04-18T13:21:42.999Z</time></trkpt><trkpt lat="43.02291517730824" lon="12.842955391461182"><ele>895.0</ele><time>2026-04-18T13:21:43.999Z</time></trkpt><trkpt lat="43.022977997546434" lon="12.843132269498287"><ele>895.0</ele><time>2026-04-18T13:21:44.999Z</time></trkpt><trkpt lat="43.023025298305" lon="12.843314532694555"><ele>895.0</ele><time>2026-04-18T13:21:45.999Z</time></trkpt><trkpt lat="43.023070040284054" lon="12.843446080781856"><ele>895.0</ele><time>2026-04-18T13:21:46.999Z</time></trkpt><trkpt lat="43.02312815633005" lon="12.843534100710968"><ele>894.75</ele><time>2026-04-18T13:21:47.999Z</time></trkpt><trkpt lat="43.02322835819022" lon="12.843682219420213"><ele>894.5</ele><time>2026-04-18T13:21:48.999Z</time></trkpt><trkpt lat="43.02332063727134" lon="12.843818592315742"><ele>894.25</ele><time>2026-04-18T13:21:49.999Z</time></trkpt><trkpt lat="43.0233865538821" lon="12.843936343803078"><ele>894.0</ele><time>2026-04-18T13:21:50.999Z</time></trkpt><trkpt lat="43.02343893742016" lon="12.844003056401002"><ele>894.0</ele><time>2026-04-18T13:21:51.999Z</time></trkpt><trkpt lat="43.02351746752138" lon="12.844100998248322"><ele>894.0000000000001</ele><time>2026-04-18T13:21:53.999Z</time></trkpt><trkpt lat="43.02361465144729" lon="12.844174578513941"><ele>894.0000000000001</ele><time>2026-04-18T13:21:55.999Z</time></trkpt><trkpt lat="43.023689379567756" lon="12.844160224466417"><ele>894.0</ele><time>2026-04-18T13:21:56.999Z</time></trkpt><trkpt lat="43.02377312437764" lon="12.844101680993695"><ele>894.0</ele><time>2026-04-18T13:21:57.999Z</time></trkpt><trkpt lat="43.02388535462263" lon="12.844020488581496"><ele>894.0</ele><time>2026-04-18T13:21:58.999Z</time></trkpt><trkpt lat="43.02401766236718" lon="12.843932983479718"><ele>894.0</ele><time>2026-04-18T13:21:59.999Z</time></trkpt><trkpt lat="43.02414125480795" lon="12.843865210285983"><ele>894.0</ele><time>2026-04-18T13:22:00.999Z</time></trkpt><trkpt lat="43.024237666803295" lon="12.84382621629194"><ele>894.0</ele><time>2026-04-18T13:22:01.999Z</time></trkpt><trkpt lat="43.02431226610652" lon="12.84379364617225"><ele>892.4000000000001</ele><time>2026-04-18T13:22:02.999Z</time></trkpt><trkpt lat="43.02438405220225" lon="12.843753838844036"><ele>890.8000000000001</ele><time>2026-04-18T13:22:03.999Z</time></trkpt><trkpt lat="43.0244572265902" lon="12.843695636092496"><ele>889.1999999999999</ele><time>2026-04-18T13:22:04.999Z</time></trkpt><trkpt lat="43.024535573439" lon="12.843603992385722"><ele>887.5999999999999</ele><time>2026-04-18T13:22:05.999Z</time></trkpt><trkpt lat="43.02463735164145" lon="12.843488644666188"><ele>886.0</ele><time>2026-04-18T13:22:06.999Z</time></trkpt><trkpt lat="43.02473928478591" lon="12.843388551687225"><ele>886.0</ele><time>2026-04-18T13:22:07.999Z</time></trkpt><trkpt lat="43.0248450094333" lon="12.843268794089154"><ele>886.0</ele><time>2026-04-18T13:22:08.999Z</time></trkpt><trkpt lat="43.02495498413839" lon="12.843152415675089"><ele>886.0</ele><time>2026-04-18T13:22:09.999Z</time></trkpt><trkpt lat="43.02506640038611" lon="12.843041183607038"><ele>886.0</ele><time>2026-04-18T13:22:10.999Z</time></trkpt><trkpt lat="43.02517491435443" lon="12.842932178886672"><ele>883.25</ele><time>2026-04-18T13:22:11.999Z</time></trkpt><trkpt lat="43.02527764498831" lon="12.842823493513187"><ele>880.5</ele><time>2026-04-18T13:22:12.999Z</time></trkpt><trkpt lat="43.02539564825489" lon="12.842709584002861"><ele>877.75</ele><time>2026-04-18T13:22:13.999Z</time></trkpt><trkpt lat="43.02551238780575" lon="12.842578090385626"><ele>875.0</ele><time>2026-04-18T13:22:14.999Z</time></trkpt><trkpt lat="43.025630818290495" lon="12.84245534252364"><ele>871.75</ele><time>2026-04-18T13:22:15.999Z</time></trkpt><trkpt lat="43.025751121719296" lon="12.842326004349992"><ele>868.5</ele><time>2026-04-18T13:22:16.999Z</time></trkpt><trkpt lat="43.02586318405566" lon="12.842205301286665"><ele>865.25</ele><time>2026-04-18T13:22:17.999Z</time></trkpt><trkpt lat="43.02593910116216" lon="12.842121277522779"><ele>862.0</ele><time>2026-04-18T13:22:18.999Z</time></trkpt><trkpt lat="43.02599268283426" lon="12.842061622524248"><ele>860.0</ele><time>2026-04-18T13:22:19.999Z</time></trkpt><trkpt lat="43.025911291978126" lon="12.841982618202529"><ele>858.0</ele><time>2026-04-18T13:22:29.998Z</time></trkpt><trkpt lat="43.025899824775586" lon="12.84188915603479"><ele>856.0</ele><time>2026-04-18T13:22:30.998Z</time></trkpt><trkpt lat="43.025845201738534" lon="12.841731480266128"><ele>854.0</ele><time>2026-04-18T13:22:32.998Z</time></trkpt><trkpt lat="43.02579418244362" lon="12.841666911712535"><ele>852.0</ele><time>2026-04-18T13:22:33.998Z</time></trkpt><trkpt lat="43.02571176974025" lon="12.841620171307733"><ele>850.25</ele><time>2026-04-18T13:22:34.998Z</time></trkpt><trkpt lat="43.02561221974264" lon="12.84162301808803"><ele>848.5</ele><time>2026-04-18T13:22:36Z</time></trkpt><trkpt lat="43.025470296173026" lon="12.841575928948007"><ele>846.75</ele><time>2026-04-18T13:22:37Z</time></trkpt><trkpt lat="43.02535377696896" lon="12.841490366352135"><ele>845.0</ele><time>2026-04-18T13:22:38Z</time></trkpt><trkpt lat="43.02527375707863" lon="12.841400206950267"><ele>845.0</ele><time>2026-04-18T13:22:39Z</time></trkpt><trkpt lat="43.025209400557216" lon="12.841311184431003"><ele>845.0</ele><time>2026-04-18T13:22:40Z</time></trkpt><trkpt lat="43.02516079291972" lon="12.841243624121933"><ele>845.0</ele><time>2026-04-18T13:22:41Z</time></trkpt><trkpt lat="43.02508359586219" lon="12.841203464636816"><ele>845.0</ele><time>2026-04-18T13:22:42Z</time></trkpt><trkpt lat="43.02497918735851" lon="12.841181510917469"><ele>845.0</ele><time>2026-04-18T13:22:43Z</time></trkpt><trkpt lat="43.02484936883635" lon="12.841124804882405"><ele>847.75</ele><time>2026-04-18T13:22:44Z</time></trkpt><trkpt lat="43.02473702284843" lon="12.841070363973575"><ele>850.5</ele><time>2026-04-18T13:22:45Z</time></trkpt><trkpt lat="43.02460657246119" lon="12.841048074339643"><ele>853.25</ele><time>2026-04-18T13:22:46Z</time></trkpt><trkpt lat="43.024448255209826" lon="12.841048420517362"><ele>856.0</ele><time>2026-04-18T13:22:47Z</time></trkpt><trkpt lat="43.024301797177294" lon="12.84102754076108"><ele>852.8</ele><time>2026-04-18T13:22:48Z</time></trkpt><trkpt lat="43.024191684987265" lon="12.840952455119933"><ele>849.5999999999999</ele><time>2026-04-18T13:22:49Z</time></trkpt><trkpt lat="43.024109472138115" lon="12.84084968056757"><ele>846.4</ele><time>2026-04-18T13:22:50Z</time></trkpt><trkpt lat="43.0240313242558" lon="12.840746070682256"><ele>843.2</ele><time>2026-04-18T13:22:51Z</time></trkpt><trkpt lat="43.02402045600842" lon="12.84065540433248"><ele>840.0</ele><time>2026-04-18T13:22:53Z</time></trkpt><trkpt lat="43.024124373926114" lon="12.840572458897011"><ele>839.2</ele><time>2026-04-18T13:22:55Z</time></trkpt><trkpt lat="43.02424376773748" lon="12.840512205233512"><ele>838.4</ele><time>2026-04-18T13:22:56Z</time></trkpt><trkpt lat="43.02433725045644" lon="12.84046517532448"><ele>837.5999999999999</ele><time>2026-04-18T13:22:57Z</time></trkpt><trkpt lat="43.024415300095534" lon="12.840402514789075"><ele>836.8</ele><time>2026-04-18T13:22:58Z</time></trkpt><trkpt lat="43.024450320800064" lon="12.84032545899575"><ele>836.0</ele><time>2026-04-18T13:22:59Z</time></trkpt><trkpt lat="43.024421549095756" lon="12.84020031874821"><ele>836.1999999999999</ele><time>2026-04-18T13:23:00Z</time></trkpt><trkpt lat="43.024393521803184" lon="12.840066692830385"><ele>836.4</ele><time>2026-04-18T13:23:01Z</time></trkpt><trkpt lat="43.02437938473799" lon="12.839915193847146"><ele>836.6</ele><time>2026-04-18T13:23:02Z</time></trkpt><trkpt lat="43.02437807984713" lon="12.839781391462173"><ele>836.8</ele><time>2026-04-18T13:23:03Z</time></trkpt><trkpt lat="43.02436999456677" lon="12.839608151965315"><ele>837.0</ele><time>2026-04-18T13:23:03.999Z</time></trkpt><trkpt lat="43.02436263529476" lon="12.839444495967516"><ele>839.2</ele><time>2026-04-18T13:23:04.999Z</time></trkpt><trkpt lat="43.024360119225456" lon="12.839261327025676"><ele>841.4000000000001</ele><time>2026-04-18T13:23:05.999Z</time></trkpt><trkpt lat="43.024357838274526" lon="12.839117613088519"><ele>843.5999999999999</ele><time>2026-04-18T13:23:06.999Z</time></trkpt><trkpt lat="43.024357386480055" lon="12.839002634041773"><ele>845.8</ele><time>2026-04-18T13:23:07.999Z</time></trkpt><trkpt lat="43.024361972784874" lon="12.838898574873822"><ele>848.0</ele><time>2026-04-18T13:23:08.999Z</time></trkpt><trkpt lat="43.02440995352751" lon="12.838762350210498"><ele>848.0</ele><time>2026-04-18T13:23:10.999Z</time></trkpt><trkpt lat="43.02447686757014" lon="12.838755835623564"><ele>848.0</ele><time>2026-04-18T13:23:11.999Z</time></trkpt><trkpt lat="43.02456331809622" lon="12.83876940781293"><ele>848.0</ele><time>2026-04-18T13:23:12.999Z</time></trkpt><trkpt lat="43.02466118210212" lon="12.838758209428168"><ele>848.0</ele><time>2026-04-18T13:23:13.999Z</time></trkpt><trkpt lat="43.02476023415172" lon="12.838725382034237"><ele>848.0</ele><time>2026-04-18T13:23:14.999Z</time></trkpt><trkpt lat="43.02485535875027" lon="12.838661141068956"><ele>848.0</ele><time>2026-04-18T13:23:15.999Z</time></trkpt><trkpt lat="43.02494989063157" lon="12.838584761309715"><ele>848.0</ele><time>2026-04-18T13:23:16.999Z</time></trkpt><trkpt lat="43.02504018806436" lon="12.838488520509824"><ele>848.0</ele><time>2026-04-18T13:23:17.999Z</time></trkpt><trkpt lat="43.02513462281768" lon="12.838366503648821"><ele>848.0</ele><time>2026-04-18T13:23:18.999Z</time></trkpt><trkpt lat="43.025220527224825" lon="12.838282095336515"><ele>851.0</ele><time>2026-04-18T13:23:19.999Z</time></trkpt><trkpt lat="43.02533408336816" lon="12.838241573911777"><ele>854.0</ele><time>2026-04-18T13:23:20.999Z</time></trkpt><trkpt lat="43.02544679447714" lon="12.8382715451003"><ele>857.0</ele><time>2026-04-18T13:23:21.999Z</time></trkpt><trkpt lat="43.02556445011547" lon="12.838358263113305"><ele>860.0</ele><time>2026-04-18T13:23:22.999Z</time></trkpt><trkpt lat="43.025678875646015" lon="12.838428252142139"><ele>857.0</ele><time>2026-04-18T13:23:23.999Z</time></trkpt><trkpt lat="43.025801591230824" lon="12.838507980824922"><ele>854.0</ele><time>2026-04-18T13:23:24.999Z</time></trkpt><trkpt lat="43.025942847626666" lon="12.838557600119278"><ele>851.0</ele><time>2026-04-18T13:23:25.999Z</time></trkpt><trkpt lat="43.026059466831384" lon="12.838618735434245"><ele>848.0</ele><time>2026-04-18T13:23:26.999Z</time></trkpt><trkpt lat="43.0261637249901" lon="12.838672376773"><ele>847.8333333333334</ele><time>2026-04-18T13:23:27.999Z</time></trkpt><trkpt lat="43.0262366567681" lon="12.838699205608275"><ele>847.6666666666667</ele><time>2026-04-18T13:23:28.999Z</time></trkpt><trkpt lat="43.026299825313224" lon="12.83868447442308"><ele>847.5</ele><time>2026-04-18T13:23:30.999Z</time></trkpt><trkpt lat="43.02630077064406" lon="12.838595475755367"><ele>847.3333333333333</ele><time>2026-04-18T13:23:32.999Z</time></trkpt><trkpt lat="43.026273150363785" lon="12.838484223616293"><ele>847.1666666666666</ele><time>2026-04-18T13:23:33.999Z</time></trkpt><trkpt lat="43.02623314797224" lon="12.838354447995876"><ele>847.0</ele><time>2026-04-18T13:23:34.999Z</time></trkpt><trkpt lat="43.02619651642344" lon="12.838219388862695"><ele>850.25</ele><time>2026-04-18T13:23:35.999Z</time></trkpt><trkpt lat="43.026136955580824" lon="12.838097626432292"><ele>853.5</ele><time>2026-04-18T13:23:36.999Z</time></trkpt><trkpt lat="43.02603553807559" lon="12.838002866121174"><ele>856.75</ele><time>2026-04-18T13:23:37.999Z</time></trkpt><trkpt lat="43.025900838734046" lon="12.837947412071593"><ele>860.0</ele><time>2026-04-18T13:23:38.999Z</time></trkpt><trkpt lat="43.0257432315652" lon="12.837912247325976"><ele>860.0</ele><time>2026-04-18T13:23:39.999Z</time></trkpt><trkpt lat="43.025595280312544" lon="12.837862107038173"><ele>860.0</ele><time>2026-04-18T13:23:40.999Z</time></trkpt><trkpt lat="43.025457781542244" lon="12.8377831316176"><ele>860.0</ele><time>2026-04-18T13:23:41.999Z</time></trkpt><trkpt lat="43.0253243819858" lon="12.837697193462823"><ele>860.0</ele><time>2026-04-18T13:23:42.999Z</time></trkpt><trkpt lat="43.02521375570897" lon="12.837629146420939"><ele>862.4</ele><time>2026-04-18T13:23:43.999Z</time></trkpt><trkpt lat="43.025137708467625" lon="12.837593423795592"><ele>864.8</ele><time>2026-04-18T13:23:44.999Z</time></trkpt><trkpt lat="43.0252062049891" lon="12.83750961099458"><ele>867.2</ele><time>2026-04-18T13:23:48.999Z</time></trkpt><trkpt lat="43.0252942111209" lon="12.837512898495442"><ele>869.6</ele><time>2026-04-18T13:23:49.999Z</time></trkpt><trkpt lat="43.025389261674356" lon="12.837491389650236"><ele>872.0</ele><time>2026-04-18T13:23:50.999Z</time></trkpt><trkpt lat="43.02548135368274" lon="12.837428683607625"><ele>872.0</ele><time>2026-04-18T13:23:51.999Z</time></trkpt><trkpt lat="43.02556704212563" lon="12.837347033454497"><ele>872.0</ele><time>2026-04-18T13:23:52.999Z</time></trkpt><trkpt lat="43.025640826299394" lon="12.837242601620542"><ele>872.0</ele><time>2026-04-18T13:23:53.999Z</time></trkpt><trkpt lat="43.02569383754012" lon="12.837109600571251"><ele>872.0</ele><time>2026-04-18T13:23:54.999Z</time></trkpt><trkpt lat="43.02573252849208" lon="12.836945378861317"><ele>872.0</ele><time>2026-04-18T13:23:55.999Z</time></trkpt><trkpt lat="43.02576585922099" lon="12.836764626378418"><ele>873.0</ele><time>2026-04-18T13:23:56.999Z</time></trkpt><trkpt lat="43.02580681332239" lon="12.836573568422185"><ele>874.0</ele><time>2026-04-18T13:23:57.999Z</time></trkpt><trkpt lat="43.025856051120975" lon="12.836369490484532"><ele>875.0</ele><time>2026-04-18T13:23:58.999Z</time></trkpt><trkpt lat="43.025909125905194" lon="12.836170456530212"><ele>875.6666666666667</ele><time>2026-04-18T13:23:59.999Z</time></trkpt><trkpt lat="43.02597298186528" lon="12.83596355599292"><ele>876.3333333333333</ele><time>2026-04-18T13:24:00.999Z</time></trkpt><trkpt lat="43.02605169630023" lon="12.83576537104047"><ele>877.0</ele><time>2026-04-18T13:24:01.999Z</time></trkpt><trkpt lat="43.0261495533917" lon="12.835569808047307"><ele>877.0</ele><time>2026-04-18T13:24:02.999Z</time></trkpt><trkpt lat="43.02625374555799" lon="12.83536872043225"><ele>877.0</ele><time>2026-04-18T13:24:03.999Z</time></trkpt><trkpt lat="43.02636569760052" lon="12.835171143015506"><ele>877.0</ele><time>2026-04-18T13:24:04.999Z</time></trkpt><trkpt lat="43.026476302159935" lon="12.83497609327338"><ele>878.0</ele><time>2026-04-18T13:24:05.999Z</time></trkpt><trkpt lat="43.02661484514067" lon="12.834784803050823"><ele>879.0</ele><time>2026-04-18T13:24:06.999Z</time></trkpt><trkpt lat="43.02677167048583" lon="12.834630235024823"><ele>880.0</ele><time>2026-04-18T13:24:07.999Z</time></trkpt><trkpt lat="43.02694952724133" lon="12.834508039756303"><ele>877.0</ele><time>2026-04-18T13:24:08.999Z</time></trkpt><trkpt lat="43.027116137748685" lon="12.834390885620689"><ele>874.0</ele><time>2026-04-18T13:24:09.999Z</time></trkpt><trkpt lat="43.027284368593484" lon="12.834271895695245"><ele>871.0</ele><time>2026-04-18T13:24:10.999Z</time></trkpt><trkpt lat="43.02744773513348" lon="12.83415161525686"><ele>870.0</ele><time>2026-04-18T13:24:11.999Z</time></trkpt><trkpt lat="43.02760901838103" lon="12.834037185929882"><ele>869.0</ele><time>2026-04-18T13:24:12.999Z</time></trkpt><trkpt lat="43.027774895581096" lon="12.833912159231861"><ele>868.0</ele><time>2026-04-18T13:24:13.999Z</time></trkpt><trkpt lat="43.02793314799203" lon="12.833789333297217"><ele>868.0</ele><time>2026-04-18T13:24:14.999Z</time></trkpt><trkpt lat="43.028088025036034" lon="12.833654839108869"><ele>868.0</ele><time>2026-04-18T13:24:15.999Z</time></trkpt><trkpt lat="43.028224667428994" lon="12.833531612378813"><ele>868.0</ele><time>2026-04-18T13:24:16.999Z</time></trkpt><trkpt lat="43.02835029541618" lon="12.833410050356246"><ele>868.0</ele><time>2026-04-18T13:24:17.999Z</time></trkpt><trkpt lat="43.028488448767796" lon="12.833292109822205"><ele>868.0</ele><time>2026-04-18T13:24:18.999Z</time></trkpt><trkpt lat="43.02862858196543" lon="12.833182489509047"><ele>868.0</ele><time>2026-04-18T13:24:19.999Z</time></trkpt><trkpt lat="43.0287729102636" lon="12.833082669817845"><ele>868.0</ele><time>2026-04-18T13:24:20.999Z</time></trkpt><trkpt lat="43.028925243150596" lon="12.833018629438039"><ele>868.0</ele><time>2026-04-18T13:24:21.999Z</time></trkpt><trkpt lat="43.02908739900106" lon="12.833022335392164"><ele>868.0</ele><time>2026-04-18T13:24:22.999Z</time></trkpt><trkpt lat="43.02925481466311" lon="12.833066232118876"><ele>868.6666666666666</ele><time>2026-04-18T13:24:23.999Z</time></trkpt><trkpt lat="43.029423710197996" lon="12.833110843277675"><ele>869.3333333333333</ele><time>2026-04-18T13:24:24.999Z</time></trkpt><trkpt lat="43.029595464806164" lon="12.833144004921024"><ele>870.0</ele><time>2026-04-18T13:24:25.999Z</time></trkpt><trkpt lat="43.029767678339745" lon="12.833164373237762"><ele>870.0</ele><time>2026-04-18T13:24:26.999Z</time></trkpt><trkpt lat="43.029946970770354" lon="12.833173479808448"><ele>870.0</ele><time>2026-04-18T13:24:27.999Z</time></trkpt><trkpt lat="43.03013264251561" lon="12.83316879636692"><ele>870.0</ele><time>2026-04-18T13:24:28.999Z</time></trkpt><trkpt lat="43.030325563135726" lon="12.833161610963618"><ele>871.3333333333333</ele><time>2026-04-18T13:24:29.999Z</time></trkpt><trkpt lat="43.03051785926608" lon="12.833141908569464"><ele>872.6666666666666</ele><time>2026-04-18T13:24:30.999Z</time></trkpt><trkpt lat="43.03071318753749" lon="12.833117906585807"><ele>874.0</ele><time>2026-04-18T13:24:31.999Z</time></trkpt><trkpt lat="43.03090205951127" lon="12.833079527521827"><ele>875.6666666666666</ele><time>2026-04-18T13:24:32.999Z</time></trkpt><trkpt lat="43.031082268273394" lon="12.833022095083141"><ele>877.3333333333333</ele><time>2026-04-18T13:24:33.999Z</time></trkpt><trkpt lat="43.031249613020876" lon="12.832982560672896"><ele>879.0</ele><time>2026-04-18T13:24:34.999Z</time></trkpt><trkpt lat="43.031393707994745" lon="12.832982217736198"><ele>879.0</ele><time>2026-04-18T13:24:35.999Z</time></trkpt><trkpt lat="43.031532943733296" lon="12.833051059955913"><ele>879.0</ele><time>2026-04-18T13:24:36.999Z</time></trkpt><trkpt lat="43.03166912193405" lon="12.833171361773616"><ele>879.0</ele><time>2026-04-18T13:24:37.999Z</time></trkpt><trkpt lat="43.031812083942164" lon="12.833287700245691"><ele>879.3333333333333</ele><time>2026-04-18T13:24:38.999Z</time></trkpt><trkpt lat="43.0319522900472" lon="12.833382981991704"><ele>879.6666666666666</ele><time>2026-04-18T13:24:39.999Z</time></trkpt><trkpt lat="43.032095880773475" lon="12.833460798403657"><ele>880.0</ele><time>2026-04-18T13:24:40.999Z</time></trkpt><trkpt lat="43.03224363608464" lon="12.833532831055374"><ele>880.0</ele><time>2026-04-18T13:24:42Z</time></trkpt><trkpt lat="43.03239289561631" lon="12.833607382715666"><ele>880.0</ele><time>2026-04-18T13:24:43Z</time></trkpt><trkpt lat="43.032547010735016" lon="12.833679711930598"><ele>880.0</ele><time>2026-04-18T13:24:44Z</time></trkpt><trkpt lat="43.03269378723227" lon="12.833744970015285"><ele>882.3333333333333</ele><time>2026-04-18T13:24:45Z</time></trkpt><trkpt lat="43.03284075481542" lon="12.833810688543185"><ele>884.6666666666667</ele><time>2026-04-18T13:24:46Z</time></trkpt><trkpt lat="43.03299127273509" lon="12.833877017903761"><ele>887.0</ele><time>2026-04-18T13:24:47Z</time></trkpt><trkpt lat="43.03315079125017" lon="12.833947461993066"><ele>889.3333333333334</ele><time>2026-04-18T13:24:48Z</time></trkpt><trkpt lat="43.03331510829884" lon="12.834018155287282"><ele>891.6666666666667</ele><time>2026-04-18T13:24:49Z</time></trkpt><trkpt lat="43.03347668006218" lon="12.834086132194628"><ele>894.0</ele><time>2026-04-18T13:24:50Z</time></trkpt><trkpt lat="43.03363842668989" lon="12.83415543108889"><ele>894.0</ele><time>2026-04-18T13:24:51Z</time></trkpt><trkpt lat="43.03379945574221" lon="12.834222773292833"><ele>894.0</ele><time>2026-04-18T13:24:52Z</time></trkpt><trkpt lat="43.033941385706015" lon="12.834274890138772"><ele>894.0</ele><time>2026-04-18T13:24:53Z</time></trkpt><trkpt lat="43.0340928803138" lon="12.834325916308739"><ele>893.3333333333333</ele><time>2026-04-18T13:24:54Z</time></trkpt><trkpt lat="43.0342551319889" lon="12.834351933880807"><ele>892.6666666666666</ele><time>2026-04-18T13:24:55Z</time></trkpt><trkpt lat="43.03441772936633" lon="12.83431991470922"><ele>892.0</ele><time>2026-04-18T13:24:56Z</time></trkpt><trkpt lat="43.03457941429832" lon="12.834267477300681"><ele>891.0</ele><time>2026-04-18T13:24:57Z</time></trkpt><trkpt lat="43.03473225859091" lon="12.834245009279627"><ele>890.0</ele><time>2026-04-18T13:24:58Z</time></trkpt><trkpt lat="43.03488398328696" lon="12.83428679907395"><ele>889.0</ele><time>2026-04-18T13:24:59Z</time></trkpt><trkpt lat="43.03503261516007" lon="12.834406468332643"><ele>889.0</ele><time>2026-04-18T13:25:00Z</time></trkpt><trkpt lat="43.035160548021416" lon="12.834582495525858"><ele>889.0</ele><time>2026-04-18T13:25:01Z</time></trkpt><trkpt lat="43.03527680598647" lon="12.834791957970198"><ele>889.0</ele><time>2026-04-18T13:25:02Z</time></trkpt><trkpt lat="43.035377793530614" lon="12.835005426267601"><ele>887.6666666666666</ele><time>2026-04-18T13:25:03Z</time></trkpt><trkpt lat="43.035459350064514" lon="12.835217233134204"><ele>886.3333333333333</ele><time>2026-04-18T13:25:04Z</time></trkpt><trkpt lat="43.03551671664407" lon="12.835452612389608"><ele>885.0</ele><time>2026-04-18T13:25:05Z</time></trkpt><trkpt lat="43.035557305340475" lon="12.835687192982862"><ele>885.0</ele><time>2026-04-18T13:25:06Z</time></trkpt><trkpt lat="43.03559847893332" lon="12.83591640424125"><ele>885.0</ele><time>2026-04-18T13:25:07Z</time></trkpt><trkpt lat="43.0356688002983" lon="12.836131053176084"><ele>885.0</ele><time>2026-04-18T13:25:08Z</time></trkpt><trkpt lat="43.035757527689576" lon="12.836339705094701"><ele>884.0</ele><time>2026-04-18T13:25:09Z</time></trkpt><trkpt lat="43.03585442263263" lon="12.836553923893774"><ele>883.0</ele><time>2026-04-18T13:25:10Z</time></trkpt><trkpt lat="43.03595448776745" lon="12.836762592621694"><ele>882.0</ele><time>2026-04-18T13:25:11Z</time></trkpt><trkpt lat="43.03605307172056" lon="12.836971372752542"><ele>879.6666666666667</ele><time>2026-04-18T13:25:12Z</time></trkpt><trkpt lat="43.03615886727656" lon="12.83718380621696"><ele>877.3333333333334</ele><time>2026-04-18T13:25:13Z</time></trkpt><trkpt lat="43.03626317741875" lon="12.837403701984096"><ele>875.0</ele><time>2026-04-18T13:25:13.999Z</time></trkpt><trkpt lat="43.03636961049907" lon="12.83761062256642"><ele>875.6666666666667</ele><time>2026-04-18T13:25:14.999Z</time></trkpt><trkpt lat="43.03647690486353" lon="12.837818222496"><ele>876.3333333333333</ele><time>2026-04-18T13:25:15.999Z</time></trkpt><trkpt lat="43.03657820363372" lon="12.8380279386179"><ele>877.0</ele><time>2026-04-18T13:25:16.999Z</time></trkpt><trkpt lat="43.03667243702775" lon="12.83824266179221"><ele>877.0</ele><time>2026-04-18T13:25:17.999Z</time></trkpt><trkpt lat="43.03676791062148" lon="12.838443487181936"><ele>877.0</ele><time>2026-04-18T13:25:18.999Z</time></trkpt><trkpt lat="43.03687283119276" lon="12.838649545246811"><ele>877.0</ele><time>2026-04-18T13:25:19.999Z</time></trkpt><trkpt lat="43.036987635568345" lon="12.838839453190468"><ele>873.0</ele><time>2026-04-18T13:25:20.999Z</time></trkpt><trkpt lat="43.03710156949408" lon="12.839017457392323"><ele>869.0</ele><time>2026-04-18T13:25:21.999Z</time></trkpt><trkpt lat="43.037229881781975" lon="12.839195301316886"><ele>865.0</ele><time>2026-04-18T13:25:22.999Z</time></trkpt><trkpt lat="43.037358459465835" lon="12.839347897885231"><ele>863.0</ele><time>2026-04-18T13:25:23.999Z</time></trkpt><trkpt lat="43.03748912146786" lon="12.83946401546536"><ele>861.0</ele><time>2026-04-18T13:25:24.999Z</time></trkpt><trkpt lat="43.03762849547792" lon="12.839531399205306"><ele>859.0</ele><time>2026-04-18T13:25:25.999Z</time></trkpt><trkpt lat="43.03777947435234" lon="12.839562616435686"><ele>859.0</ele><time>2026-04-18T13:25:26.999Z</time></trkpt><trkpt lat="43.03794494063985" lon="12.839574008480975"><ele>859.0</ele><time>2026-04-18T13:25:27.999Z</time></trkpt><trkpt lat="43.038097315277206" lon="12.839655058518852"><ele>859.0</ele><time>2026-04-18T13:25:28.999Z</time></trkpt><trkpt lat="43.03823888040176" lon="12.839805846111076"><ele>861.3333333333333</ele><time>2026-04-18T13:25:29.999Z</time></trkpt><trkpt lat="43.03838946407641" lon="12.83993401953169"><ele>863.6666666666667</ele><time>2026-04-18T13:25:30.999Z</time></trkpt><trkpt lat="43.03854243083002" lon="12.840045907373398"><ele>866.0</ele><time>2026-04-18T13:25:31.999Z</time></trkpt><trkpt lat="43.038697074995675" lon="12.840135188120883"><ele>858.6666666666667</ele><time>2026-04-18T13:25:32.999Z</time></trkpt><trkpt lat="43.03885830647778" lon="12.840210926714862"><ele>851.3333333333333</ele><time>2026-04-18T13:25:33.999Z</time></trkpt><trkpt lat="43.03900724685579" lon="12.840287950331138"><ele>844.0</ele><time>2026-04-18T13:25:34.999Z</time></trkpt><trkpt lat="43.039122836480814" lon="12.840384491651818"><ele>846.8000000000001</ele><time>2026-04-18T13:25:35.999Z</time></trkpt><trkpt lat="43.03923077220478" lon="12.840522133630957"><ele>849.6</ele><time>2026-04-18T13:25:36.999Z</time></trkpt><trkpt lat="43.03928821610804" lon="12.840634284110902"><ele>852.4</ele><time>2026-04-18T13:25:37.999Z</time></trkpt><trkpt lat="43.03931577315157" lon="12.84071780433597"><ele>855.2</ele><time>2026-04-18T13:25:38.999Z</time></trkpt><trkpt lat="43.039345181670406" lon="12.840796773287721"><ele>858.0</ele><time>2026-04-18T13:25:39.999Z</time></trkpt><trkpt lat="43.03936654528215" lon="12.840904361932193"><ele>857.8</ele><time>2026-04-18T13:25:40.999Z</time></trkpt><trkpt lat="43.03938814445622" lon="12.841034063631833"><ele>857.5999999999999</ele><time>2026-04-18T13:25:41.999Z</time></trkpt><trkpt lat="43.03940685156917" lon="12.84117183934346"><ele>857.4000000000001</ele><time>2026-04-18T13:25:42.999Z</time></trkpt><trkpt lat="43.039422949537894" lon="12.841327752827766"><ele>857.2</ele><time>2026-04-18T13:25:43.999Z</time></trkpt><trkpt lat="43.03943761673838" lon="12.841484957670506"><ele>857.0</ele><time>2026-04-18T13:25:44.999Z</time></trkpt><trkpt lat="43.039448560875485" lon="12.841657321473456"><ele>856.5</ele><time>2026-04-18T13:25:45.999Z</time></trkpt><trkpt lat="43.039452095113404" lon="12.841833962274814"><ele>856.0</ele><time>2026-04-18T13:25:46.999Z</time></trkpt><trkpt lat="43.039459510486225" lon="12.84200873503967"><ele>855.5</ele><time>2026-04-18T13:25:47.999Z</time></trkpt><trkpt lat="43.039479131201695" lon="12.84217478192862"><ele>855.0</ele><time>2026-04-18T13:25:48.999Z</time></trkpt><trkpt lat="43.0395067396201" lon="12.842337866017917"><ele>855.0</ele><time>2026-04-18T13:25:49.999Z</time></trkpt><trkpt lat="43.03952887809891" lon="12.84249351397444"><ele>855.0</ele><time>2026-04-18T13:25:50.999Z</time></trkpt><trkpt lat="43.039544791699996" lon="12.842632675058358"><ele>855.0</ele><time>2026-04-18T13:25:51.999Z</time></trkpt><trkpt lat="43.039561609566334" lon="12.842759912753928"><ele>855.0</ele><time>2026-04-18T13:25:52.999Z</time></trkpt><trkpt lat="43.0395810464148" lon="12.842870263213483"><ele>855.0</ele><time>2026-04-18T13:25:53.999Z</time></trkpt><trkpt lat="43.039632224745944" lon="12.843019520171818"><ele>855.0</ele><time>2026-04-18T13:25:55.999Z</time></trkpt><trkpt lat="43.03971918950802" lon="12.843091460293287"><ele>855.0</ele><time>2026-04-18T13:25:57.999Z</time></trkpt><trkpt lat="43.03978270229294" lon="12.843071952416025"><ele>855.0</ele><time>2026-04-18T13:25:58.999Z</time></trkpt><trkpt lat="43.03984447385129" lon="12.843040260479158"><ele>855.0</ele><time>2026-04-18T13:25:59.999Z</time></trkpt><trkpt lat="43.039906981108125" lon="12.843028177611249"><ele>855.0</ele><time>2026-04-18T13:26:00.999Z</time></trkpt><trkpt lat="43.039982623321976" lon="12.84303979386011"><ele>855.0</ele><time>2026-04-18T13:26:01.999Z</time></trkpt><trkpt lat="43.04006343171236" lon="12.843045342284372"><ele>857.6</ele><time>2026-04-18T13:26:02.999Z</time></trkpt><trkpt lat="43.04015070122662" lon="12.843021872680698"><ele>860.2</ele><time>2026-04-18T13:26:03.999Z</time></trkpt><trkpt lat="43.04021506928012" lon="12.842951281322058"><ele>862.8</ele><time>2026-04-18T13:26:04.999Z</time></trkpt><trkpt lat="43.04029540180625" lon="12.842892216869151"><ele>865.4</ele><time>2026-04-18T13:26:05.999Z</time></trkpt><trkpt lat="43.04039346058582" lon="12.842871817572567"><ele>868.0</ele><time>2026-04-18T13:26:06.999Z</time></trkpt><trkpt lat="43.040481112481444" lon="12.842850488944523"><ele>868.0</ele><time>2026-04-18T13:26:07.999Z</time></trkpt><trkpt lat="43.040541032265814" lon="12.842811510383163"><ele>868.0</ele><time>2026-04-18T13:26:08.999Z</time></trkpt><trkpt lat="43.04061436743132" lon="12.842700252768546"><ele>868.0</ele><time>2026-04-18T13:26:10.999Z</time></trkpt><trkpt lat="43.040659548928275" lon="12.842565193075531"><ele>868.0</ele><time>2026-04-18T13:26:12.999Z</time></trkpt><trkpt lat="43.04069816394096" lon="12.842484684171557"><ele>868.0</ele><time>2026-04-18T13:26:13.999Z</time></trkpt><trkpt lat="43.04078710331138" lon="12.842361961744508"><ele>864.2</ele><time>2026-04-18T13:26:15.999Z</time></trkpt><trkpt lat="43.04084812647044" lon="12.842316989748097"><ele>860.4</ele><time>2026-04-18T13:26:16.999Z</time></trkpt><trkpt lat="43.040969069325996" lon="12.842279163584683"><ele>856.6</ele><time>2026-04-18T13:26:18.999Z</time></trkpt><trkpt lat="43.04109458718196" lon="12.842239504654472"><ele>852.8000000000001</ele><time>2026-04-18T13:26:20.999Z</time></trkpt><trkpt lat="43.041176354880484" lon="12.842175586622139"><ele>849.0</ele><time>2026-04-18T13:26:22.999Z</time></trkpt><trkpt lat="43.04118543078842" lon="12.84205659563665"><ele>849.0</ele><time>2026-04-18T13:26:24.999Z</time></trkpt><trkpt lat="43.04114828925639" lon="12.841915393300242"><ele>849.0</ele><time>2026-04-18T13:26:26.999Z</time></trkpt><trkpt lat="43.041105462068955" lon="12.84185055051167"><ele>849.0</ele><time>2026-04-18T13:26:27.999Z</time></trkpt><trkpt lat="43.04109684172463" lon="12.841731198730786"><ele>849.0</ele><time>2026-04-18T13:26:29.999Z</time></trkpt><trkpt lat="43.04121057089148" lon="12.841686782621089"><ele>849.0</ele><time>2026-04-18T13:26:31.999Z</time></trkpt><trkpt lat="43.0412797875768" lon="12.841650774115555"><ele>847.1428571428572</ele><time>2026-04-18T13:26:32.999Z</time></trkpt><trkpt lat="43.04134874069399" lon="12.841645561929562"><ele>845.2857142857143</ele><time>2026-04-18T13:26:33.999Z</time></trkpt><trkpt lat="43.04141555603191" lon="12.841658179533589"><ele>843.4285714285714</ele><time>2026-04-18T13:26:34.999Z</time></trkpt><trkpt lat="43.04150423833436" lon="12.841708363518327"><ele>841.5714285714287</ele><time>2026-04-18T13:26:36.999Z</time></trkpt><trkpt lat="43.04156958272166" lon="12.841731289281258"><ele>839.7142857142857</ele><time>2026-04-18T13:26:37.999Z</time></trkpt><trkpt lat="43.04163514925327" lon="12.841753282818518"><ele>837.8571428571429</ele><time>2026-04-18T13:26:38.999Z</time></trkpt><trkpt lat="43.041716541855344" lon="12.841751854699764"><ele>836.0</ele><time>2026-04-18T13:26:40.999Z</time></trkpt><trkpt lat="43.041790896999686" lon="12.841746527734392"><ele>836.5999999999999</ele><time>2026-04-18T13:26:41.999Z</time></trkpt><trkpt lat="43.04189350992823" lon="12.841813102177449"><ele>837.2</ele><time>2026-04-18T13:26:43.999Z</time></trkpt><trkpt lat="43.04196274518256" lon="12.841839914675859"><ele>837.8</ele><time>2026-04-18T13:26:44.999Z</time></trkpt><trkpt lat="43.04205907058021" lon="12.841893240328254"><ele>838.4000000000001</ele><time>2026-04-18T13:26:45.999Z</time></trkpt><trkpt lat="43.04211813210549" lon="12.84195561013561"><ele>839.0</ele><time>2026-04-18T13:26:46.999Z</time></trkpt><trkpt lat="43.042191415981435" lon="12.842036399644089"><ele>839.0000000000001</ele><time>2026-04-18T13:26:48Z</time></trkpt><trkpt lat="43.042269397313" lon="12.842070278055509"><ele>839.0</ele><time>2026-04-18T13:26:49Z</time></trkpt><trkpt lat="43.04237936891066" lon="12.842064158901303"><ele>839.0</ele><time>2026-04-18T13:26:51Z</time></trkpt><trkpt lat="43.04246629286665" lon="12.842006209747215"><ele>839.0</ele><time>2026-04-18T13:26:53Z</time></trkpt><trkpt lat="43.04253718593155" lon="12.841969592852601"><ele>839.0000000000001</ele><time>2026-04-18T13:26:54Z</time></trkpt><trkpt lat="43.04259072536096" lon="12.841908750764494"><ele>839.0</ele><time>2026-04-18T13:26:55Z</time></trkpt><trkpt lat="43.04265719758568" lon="12.841858627116483"><ele>833.1666666666667</ele><time>2026-04-18T13:26:56Z</time></trkpt><trkpt lat="43.0427292228375" lon="12.84176720999949"><ele>827.3333333333334</ele><time>2026-04-18T13:26:57Z</time></trkpt><trkpt lat="43.042775772719786" lon="12.841701006130036"><ele>821.5</ele><time>2026-04-18T13:26:58Z</time></trkpt><trkpt lat="43.04286943112234" lon="12.841611887815453"><ele>815.6666666666667</ele><time>2026-04-18T13:26:59Z</time></trkpt><trkpt lat="43.04293558996089" lon="12.84155539473093"><ele>809.8333333333334</ele><time>2026-04-18T13:27:00Z</time></trkpt><trkpt lat="43.04299944076713" lon="12.84152468089212"><ele>804.0</ele><time>2026-04-18T13:27:01Z</time></trkpt><trkpt lat="43.043062822705394" lon="12.841510228174213"><ele>804.0</ele><time>2026-04-18T13:27:02Z</time></trkpt><trkpt lat="43.043148637585546" lon="12.84152425130495"><ele>804.0</ele><time>2026-04-18T13:27:03Z</time></trkpt><trkpt lat="43.04322897213117" lon="12.841551327208279"><ele>804.0</ele><time>2026-04-18T13:27:04Z</time></trkpt><trkpt lat="43.04331232585126" lon="12.841598225161865"><ele>804.0</ele><time>2026-04-18T13:27:05Z</time></trkpt><trkpt lat="43.043368394958684" lon="12.84163823718517"><ele>804.0</ele><time>2026-04-18T13:27:06Z</time></trkpt><trkpt lat="43.04344451455996" lon="12.841704724199866"><ele>804.0</ele><time>2026-04-18T13:27:07Z</time></trkpt><trkpt lat="43.04349728614079" lon="12.841763145618073"><ele>803.75</ele><time>2026-04-18T13:27:08Z</time></trkpt><trkpt lat="43.04361979400257" lon="12.841755058381858"><ele>803.5</ele><time>2026-04-18T13:27:10Z</time></trkpt><trkpt lat="43.0437045120667" lon="12.841612497101478"><ele>803.25</ele><time>2026-04-18T13:27:12Z</time></trkpt><trkpt lat="43.04371594036739" lon="12.841453352894229"><ele>803.0</ele><time>2026-04-18T13:27:13Z</time></trkpt><trkpt lat="43.043753854632875" lon="12.841307303911153"><ele>803.0</ele><time>2026-04-18T13:27:14Z</time></trkpt><trkpt lat="43.0437925253358" lon="12.841151592849727"><ele>803.0</ele><time>2026-04-18T13:27:15Z</time></trkpt><trkpt lat="43.043836408302866" lon="12.84103492768234"><ele>803.0</ele><time>2026-04-18T13:27:16Z</time></trkpt><trkpt lat="43.04386746363864" lon="12.840908892121796"><ele>803.0</ele><time>2026-04-18T13:27:17Z</time></trkpt><trkpt lat="43.04389721291153" lon="12.840796534266564"><ele>803.0</ele><time>2026-04-18T13:27:18Z</time></trkpt><trkpt lat="43.04393207944859" lon="12.840688540543196"><ele>798.8</ele><time>2026-04-18T13:27:19Z</time></trkpt><trkpt lat="43.04395720250079" lon="12.840573994563528"><ele>794.5999999999999</ele><time>2026-04-18T13:27:20Z</time></trkpt><trkpt lat="43.04397352795189" lon="12.840468033004356"><ele>790.4000000000001</ele><time>2026-04-18T13:27:21Z</time></trkpt><trkpt lat="43.043990636785104" lon="12.840305450260791"><ele>786.2</ele><time>2026-04-18T13:27:23Z</time></trkpt><trkpt lat="43.04403625596312" lon="12.840159727804803"><ele>782.0</ele><time>2026-04-18T13:27:25Z</time></trkpt><trkpt lat="43.04405476606613" lon="12.840070357072458"><ele>781.9999999999999</ele><time>2026-04-18T13:27:27Z</time></trkpt><trkpt lat="43.04411505357091" lon="12.840014927170259"><ele>782.0</ele><time>2026-04-18T13:27:35.999Z</time></trkpt><trkpt lat="43.044176164632255" lon="12.83996395047539"><ele>782.0</ele><time>2026-04-18T13:27:36.999Z</time></trkpt><trkpt lat="43.044204178347194" lon="12.839882161200284"><ele>782.0</ele><time>2026-04-18T13:27:38.999Z</time></trkpt><trkpt lat="43.044215147658825" lon="12.839795255922395"><ele>782.0</ele><time>2026-04-18T13:27:39.999Z</time></trkpt><trkpt lat="43.04423020282434" lon="12.839689256515582"><ele>781.9999999999999</ele><time>2026-04-18T13:27:40.999Z</time></trkpt><trkpt lat="43.04425125048592" lon="12.839570595435577"><ele>782.0</ele><time>2026-04-18T13:27:41.999Z</time></trkpt><trkpt lat="43.0442800655982" lon="12.839432996804838"><ele>780.75</ele><time>2026-04-18T13:27:42.999Z</time></trkpt><trkpt lat="43.04430588179932" lon="12.839287106343734"><ele>779.5</ele><time>2026-04-18T13:27:43.999Z</time></trkpt><trkpt lat="43.04434022870091" lon="12.839151037235457"><ele>778.25</ele><time>2026-04-18T13:27:44.999Z</time></trkpt><trkpt lat="43.04437201242655" lon="12.839005782901184"><ele>777.0</ele><time>2026-04-18T13:27:45.999Z</time></trkpt><trkpt lat="43.044424509634005" lon="12.838837817388479"><ele>777.0</ele><time>2026-04-18T13:27:46.999Z</time></trkpt><trkpt lat="43.04449149674547" lon="12.838641018544601"><ele>777.0</ele><time>2026-04-18T13:27:47.999Z</time></trkpt><trkpt lat="43.044563823739246" lon="12.838410415324821"><ele>777.0</ele><time>2026-04-18T13:27:48.999Z</time></trkpt><trkpt lat="43.0446370946357" lon="12.838181961141036"><ele>775.3333333333333</ele><time>2026-04-18T13:27:49.999Z</time></trkpt><trkpt lat="43.04471480903854" lon="12.837963613191569"><ele>773.6666666666666</ele><time>2026-04-18T13:27:50.999Z</time></trkpt><trkpt lat="43.04478094764797" lon="12.837743147163438"><ele>772.0</ele><time>2026-04-18T13:27:51.999Z</time></trkpt><trkpt lat="43.04484615804086" lon="12.837531617796689"><ele>771.5</ele><time>2026-04-18T13:27:52.999Z</time></trkpt><trkpt lat="43.044896022429704" lon="12.837339009956853"><ele>771.0</ele><time>2026-04-18T13:27:53.999Z</time></trkpt><trkpt lat="43.04494890910246" lon="12.8371691275402"><ele>770.5</ele><time>2026-04-18T13:27:54.999Z</time></trkpt><trkpt lat="43.04500208335394" lon="12.836997551199396"><ele>770.0</ele><time>2026-04-18T13:27:55.999Z</time></trkpt><trkpt lat="43.0450764008087" lon="12.836823549377113"><ele>775.0</ele><time>2026-04-18T13:27:56.999Z</time></trkpt><trkpt lat="43.04515915833747" lon="12.83665818374121"><ele>780.0</ele><time>2026-04-18T13:27:57.999Z</time></trkpt><trkpt lat="43.045239685564084" lon="12.836491049737493"><ele>785.0</ele><time>2026-04-18T13:27:58.999Z</time></trkpt><trkpt lat="43.04533279884975" lon="12.836337788429681"><ele>790.0</ele><time>2026-04-18T13:27:59.999Z</time></trkpt><trkpt lat="43.04543078226407" lon="12.836224850659265"><ele>790.0</ele><time>2026-04-18T13:28:00.999Z</time></trkpt><trkpt lat="43.0455544786691" lon="12.836147086789158"><ele>790.0</ele><time>2026-04-18T13:28:01.999Z</time></trkpt><trkpt lat="43.04569396086255" lon="12.836080988548225"><ele>790.0</ele><time>2026-04-18T13:28:02.999Z</time></trkpt><trkpt lat="43.04582801667493" lon="12.836011328407952"><ele>790.0</ele><time>2026-04-18T13:28:03.999Z</time></trkpt><trkpt lat="43.04597147401323" lon="12.835935000845252"><ele>795.0</ele><time>2026-04-18T13:28:04.999Z</time></trkpt><trkpt lat="43.046118484025904" lon="12.835841422018792"><ele>800.0</ele><time>2026-04-18T13:28:05.999Z</time></trkpt><trkpt lat="43.04628394398439" lon="12.83575477810245"><ele>805.0</ele><time>2026-04-18T13:28:06.999Z</time></trkpt><trkpt lat="43.04645774390581" lon="12.835705102293081"><ele>805.0</ele><time>2026-04-18T13:28:07.999Z</time></trkpt><trkpt lat="43.04661567663359" lon="12.835657947763599"><ele>805.0</ele><time>2026-04-18T13:28:08.999Z</time></trkpt><trkpt lat="43.04675368173553" lon="12.835551490532657"><ele>805.0</ele><time>2026-04-18T13:28:09.999Z</time></trkpt><trkpt lat="43.04688032875436" lon="12.835437383947102"><ele>808.0</ele><time>2026-04-18T13:28:10.999Z</time></trkpt><trkpt lat="43.046982596455976" lon="12.835351823293168"><ele>811.0</ele><time>2026-04-18T13:28:11.999Z</time></trkpt><trkpt lat="43.04710795996669" lon="12.835313086279491"><ele>814.0</ele><time>2026-04-18T13:28:12.999Z</time></trkpt><trkpt lat="43.0472560221185" lon="12.835326071417159"><ele>817.0</ele><time>2026-04-18T13:28:13.999Z</time></trkpt><trkpt lat="43.04740137303748" lon="12.835361633280476"><ele>817.75</ele><time>2026-04-18T13:28:14.999Z</time></trkpt><trkpt lat="43.047538659190906" lon="12.835393601942256"><ele>818.5</ele><time>2026-04-18T13:28:15.999Z</time></trkpt><trkpt lat="43.04765490481927" lon="12.835418792478073"><ele>819.25</ele><time>2026-04-18T13:28:16.999Z</time></trkpt><trkpt lat="43.04774861790901" lon="12.835463095278575"><ele>820.0</ele><time>2026-04-18T13:28:17.999Z</time></trkpt><trkpt lat="43.047824652779134" lon="12.835544254095252"><ele>820.0</ele><time>2026-04-18T13:28:18.999Z</time></trkpt><trkpt lat="43.04788819132098" lon="12.835681328828281"><ele>820.0</ele><time>2026-04-18T13:28:19.999Z</time></trkpt><trkpt lat="43.04793056198005" lon="12.835847788991574"><ele>820.0</ele><time>2026-04-18T13:28:20.999Z</time></trkpt><trkpt lat="43.04796161949143" lon="12.836034520146452"><ele>820.0</ele><time>2026-04-18T13:28:21.999Z</time></trkpt><trkpt lat="43.047970029735936" lon="12.83622086700362"><ele>822.75</ele><time>2026-04-18T13:28:22.999Z</time></trkpt><trkpt lat="43.04797479323787" lon="12.83638437956874"><ele>825.5</ele><time>2026-04-18T13:28:23.999Z</time></trkpt><trkpt lat="43.048000661167954" lon="12.836517967755146"><ele>828.25</ele><time>2026-04-18T13:28:24.999Z</time></trkpt><trkpt lat="43.04806973989283" lon="12.83664246569858"><ele>831.0</ele><time>2026-04-18T13:28:25.999Z</time></trkpt><trkpt lat="43.04817776296161" lon="12.836752129746339"><ele>830.0</ele><time>2026-04-18T13:28:26.999Z</time></trkpt><trkpt lat="43.04828206600564" lon="12.836821408176183"><ele>829.0</ele><time>2026-04-18T13:28:27.999Z</time></trkpt><trkpt lat="43.04838993473553" lon="12.836862632204172"><ele>828.0</ele><time>2026-04-18T13:28:28.999Z</time></trkpt><trkpt lat="43.04852290258997" lon="12.836888070515522"><ele>827.0</ele><time>2026-04-18T13:28:29.999Z</time></trkpt><trkpt lat="43.048645358092216" lon="12.83697622309135"><ele>827.0</ele><time>2026-04-18T13:28:30.999Z</time></trkpt><trkpt lat="43.04875107269357" lon="12.837108006230574"><ele>827.0</ele><time>2026-04-18T13:28:31.999Z</time></trkpt><trkpt lat="43.048874648388306" lon="12.837248387934581"><ele>827.0</ele><time>2026-04-18T13:28:32.999Z</time></trkpt><trkpt lat="43.04900324746175" lon="12.837397571034929"><ele>821.3333333333334</ele><time>2026-04-18T13:28:33.999Z</time></trkpt><trkpt lat="43.04914826881263" lon="12.837539104632702"><ele>815.6666666666667</ele><time>2026-04-18T13:28:34.999Z</time></trkpt><trkpt lat="43.04927854526727" lon="12.83767451966098"><ele>810.0</ele><time>2026-04-18T13:28:35.999Z</time></trkpt><trkpt lat="43.049398033648146" lon="12.837804036955008"><ele>810.0</ele><time>2026-04-18T13:28:36.999Z</time></trkpt><trkpt lat="43.04952188178866" lon="12.83792555399775"><ele>810.0</ele><time>2026-04-18T13:28:37.999Z</time></trkpt><trkpt lat="43.04961483415936" lon="12.838037473361561"><ele>810.0</ele><time>2026-04-18T13:28:38.999Z</time></trkpt><trkpt lat="43.0496698655079" lon="12.838138727255604"><ele>810.0</ele><time>2026-04-18T13:28:39.999Z</time></trkpt><trkpt lat="43.04968479236299" lon="12.838235371544378"><ele>810.0</ele><time>2026-04-18T13:28:40.999Z</time></trkpt><trkpt lat="43.04966297398021" lon="12.838317202064337"><ele>810.0</ele><time>2026-04-18T13:28:41.999Z</time></trkpt><trkpt lat="43.04959622444427" lon="12.838392999585755"><ele>810.0</ele><time>2026-04-18T13:28:42.999Z</time></trkpt><trkpt lat="43.04951075854498" lon="12.838478554527791"><ele>810.0</ele><time>2026-04-18T13:28:43.999Z</time></trkpt><trkpt lat="43.049402947953936" lon="12.838559714993162"><ele>810.0</ele><time>2026-04-18T13:28:44.999Z</time></trkpt><trkpt lat="43.049334686191955" lon="12.838621642505174"><ele>810.0</ele><time>2026-04-18T13:28:45.999Z</time></trkpt><trkpt lat="43.04930059280494" lon="12.838716068772497"><ele>811.6</ele><time>2026-04-18T13:28:46.999Z</time></trkpt><trkpt lat="43.04932854908374" lon="12.838832233496799"><ele>813.2</ele><time>2026-04-18T13:28:47.999Z</time></trkpt><trkpt lat="43.049394305349054" lon="12.838933507658657"><ele>814.8</ele><time>2026-04-18T13:28:48.999Z</time></trkpt><trkpt lat="43.04949358339315" lon="12.839052015272227"><ele>816.4</ele><time>2026-04-18T13:28:49.999Z</time></trkpt><trkpt lat="43.04957902743943" lon="12.839149887007125"><ele>818.0</ele><time>2026-04-18T13:28:50.999Z</time></trkpt><trkpt lat="43.04963330417829" lon="12.839282060346452"><ele>818.2</ele><time>2026-04-18T13:28:51.999Z</time></trkpt><trkpt lat="43.04963453882655" lon="12.839404475357993"><ele>818.4</ele><time>2026-04-18T13:28:52.999Z</time></trkpt><trkpt lat="43.049636799725576" lon="12.839582750363643"><ele>818.6</ele><time>2026-04-18T13:28:54Z</time></trkpt><trkpt lat="43.04964033404723" lon="12.839755005887257"><ele>818.8000000000001</ele><time>2026-04-18T13:28:55Z</time></trkpt><trkpt lat="43.049637844337994" lon="12.83989246738342"><ele>819.0</ele><time>2026-04-18T13:28:56Z</time></trkpt><trkpt lat="43.04962566902525" lon="12.840022063979267"><ele>819.0</ele><time>2026-04-18T13:28:57Z</time></trkpt><trkpt lat="43.04960411478509" lon="12.840114148038488"><ele>819.0</ele><time>2026-04-18T13:28:58Z</time></trkpt><trkpt lat="43.049646244394275" lon="12.840228506908334"><ele>819.0</ele><time>2026-04-18T13:29:00Z</time></trkpt><trkpt lat="43.04973502382608" lon="12.840169452354463"><ele>819.0</ele><time>2026-04-18T13:29:02Z</time></trkpt><trkpt lat="43.04981959102213" lon="12.84007391132071"><ele>819.0</ele><time>2026-04-18T13:29:03Z</time></trkpt><trkpt lat="43.04994827008901" lon="12.839980070872027"><ele>809.6666666666667</ele><time>2026-04-18T13:29:04Z</time></trkpt><trkpt lat="43.05010383301476" lon="12.839889091616222"><ele>800.3333333333334</ele><time>2026-04-18T13:29:05Z</time></trkpt><trkpt lat="43.05026329890831" lon="12.83976494113745"><ele>791.0</ele><time>2026-04-18T13:29:06Z</time></trkpt><trkpt lat="43.05042236329131" lon="12.839607307667517"><ele>791.0</ele><time>2026-04-18T13:29:07Z</time></trkpt><trkpt lat="43.05057352929677" lon="12.839432098028468"><ele>791.0</ele><time>2026-04-18T13:29:08Z</time></trkpt><trkpt lat="43.05074928139235" lon="12.839297277703048"><ele>791.0</ele><time>2026-04-18T13:29:09Z</time></trkpt><trkpt lat="43.05090592641129" lon="12.839157746791594"><ele>785.3333333333334</ele><time>2026-04-18T13:29:10Z</time></trkpt><trkpt lat="43.051062909938274" lon="12.83902248143347"><ele>779.6666666666667</ele><time>2026-04-18T13:29:11Z</time></trkpt><trkpt lat="43.05121384940266" lon="12.83889236051333"><ele>774.0</ele><time>2026-04-18T13:29:12Z</time></trkpt><trkpt lat="43.05136246084216" lon="12.838781721875739"><ele>774.0</ele><time>2026-04-18T13:29:13Z</time></trkpt><trkpt lat="43.05149994669974" lon="12.838700013577744"><ele>774.0</ele><time>2026-04-18T13:29:14Z</time></trkpt><trkpt lat="43.051634164538555" lon="12.838643657650744"><ele>774.0</ele><time>2026-04-18T13:29:15Z</time></trkpt><trkpt lat="43.05176463411691" lon="12.83862274512589"><ele>774.0</ele><time>2026-04-18T13:29:16Z</time></trkpt><trkpt lat="43.05188844559052" lon="12.838644392074123"><ele>774.25</ele><time>2026-04-18T13:29:17Z</time></trkpt><trkpt lat="43.05200875805595" lon="12.838727281518672"><ele>774.5</ele><time>2026-04-18T13:29:18Z</time></trkpt><trkpt lat="43.05211178885304" lon="12.838839553895049"><ele>774.75</ele><time>2026-04-18T13:29:19Z</time></trkpt><trkpt lat="43.052204171599826" lon="12.838948788318941"><ele>775.0</ele><time>2026-04-18T13:29:20Z</time></trkpt><trkpt lat="43.052288224670214" lon="12.839024258086955"><ele>774.9999999999999</ele><time>2026-04-18T13:29:21Z</time></trkpt><trkpt lat="43.052361040610194" lon="12.839056278548256"><ele>775.0</ele><time>2026-04-18T13:29:22Z</time></trkpt><trkpt lat="43.05242419009127" lon="12.839038381711081"><ele>775.0</ele><time>2026-04-18T13:29:23Z</time></trkpt><trkpt lat="43.05246731767578" lon="12.838948439673079"><ele>775.0</ele><time>2026-04-18T13:29:24Z</time></trkpt><trkpt lat="43.052467482236786" lon="12.838817627985213"><ele>774.9999999999999</ele><time>2026-04-18T13:29:25Z</time></trkpt><trkpt lat="43.05243915290714" lon="12.838677607741587"><ele>775.0</ele><time>2026-04-18T13:29:26Z</time></trkpt><trkpt lat="43.05240830332363" lon="12.838540151546693"><ele>770.4</ele><time>2026-04-18T13:29:27Z</time></trkpt><trkpt lat="43.05239543580954" lon="12.838439755007194"><ele>765.8</ele><time>2026-04-18T13:29:28Z</time></trkpt><trkpt lat="43.05247136147846" lon="12.838299296555494"><ele>761.2</ele><time>2026-04-18T13:29:30Z</time></trkpt><trkpt lat="43.052550254922984" lon="12.838219764554223"><ele>756.6</ele><time>2026-04-18T13:29:31Z</time></trkpt><trkpt lat="43.052637687413075" lon="12.83813746058855"><ele>752.0</ele><time>2026-04-18T13:29:32Z</time></trkpt><trkpt lat="43.052715265032475" lon="12.838045088027007"><ele>751.6</ele><time>2026-04-18T13:29:33Z</time></trkpt><trkpt lat="43.05277864296068" lon="12.837980180644966"><ele>751.2</ele><time>2026-04-18T13:29:34Z</time></trkpt><trkpt lat="43.05288406044205" lon="12.838029486587963"><ele>750.8</ele><time>2026-04-18T13:29:36Z</time></trkpt><trkpt lat="43.052935265298885" lon="12.838110664263844"><ele>750.4</ele><time>2026-04-18T13:29:37Z</time></trkpt><trkpt lat="43.05300719805863" lon="12.838242383218159"><ele>750.0</ele><time>2026-04-18T13:29:38Z</time></trkpt><trkpt lat="43.05308047283717" lon="12.838385198555528"><ele>752.3333333333334</ele><time>2026-04-18T13:29:39Z</time></trkpt><trkpt lat="43.05316432441946" lon="12.838539262943293"><ele>754.6666666666667</ele><time>2026-04-18T13:29:40Z</time></trkpt><trkpt lat="43.05325363685002" lon="12.83870181784479"><ele>757.0</ele><time>2026-04-18T13:29:41Z</time></trkpt><trkpt lat="43.05335443833469" lon="12.838899718757402"><ele>759.0</ele><time>2026-04-18T13:29:41.999Z</time></trkpt><trkpt lat="43.05345265540665" lon="12.839093765071944"><ele>761.0</ele><time>2026-04-18T13:29:42.999Z</time></trkpt><trkpt lat="43.05356304960079" lon="12.839279815106988"><ele>763.0</ele><time>2026-04-18T13:29:43.999Z</time></trkpt><trkpt lat="43.05368188535168" lon="12.839458149066328"><ele>764.0</ele><time>2026-04-18T13:29:44.999Z</time></trkpt><trkpt lat="43.05380664797356" lon="12.839622027431885"><ele>765.0</ele><time>2026-04-18T13:29:45.999Z</time></trkpt><trkpt lat="43.05391781174028" lon="12.839794861096046"><ele>766.0</ele><time>2026-04-18T13:29:46.999Z</time></trkpt><trkpt lat="43.05401261354687" lon="12.839980758320035"><ele>769.0</ele><time>2026-04-18T13:29:47.999Z</time></trkpt><trkpt lat="43.05413068882917" lon="12.840191684633472"><ele>772.0</ele><time>2026-04-18T13:29:48.999Z</time></trkpt><trkpt lat="43.05421592945677" lon="12.84039466666547"><ele>775.0</ele><time>2026-04-18T13:29:49.999Z</time></trkpt><trkpt lat="43.05428841058659" lon="12.840568728316876"><ele>775.0</ele><time>2026-04-18T13:29:50.999Z</time></trkpt><trkpt lat="43.0543417837253" lon="12.84074873818602"><ele>775.0</ele><time>2026-04-18T13:29:51.999Z</time></trkpt><trkpt lat="43.054385382982026" lon="12.84093634244143"><ele>775.0</ele><time>2026-04-18T13:29:52.999Z</time></trkpt><trkpt lat="43.054434047595436" lon="12.8411193599624"><ele>775.0</ele><time>2026-04-18T13:29:53.999Z</time></trkpt><trkpt lat="43.05451690976" lon="12.841294707084845"><ele>777.6666666666666</ele><time>2026-04-18T13:29:54.999Z</time></trkpt><trkpt lat="43.05461810801894" lon="12.841467932175057"><ele>780.3333333333333</ele><time>2026-04-18T13:29:55.999Z</time></trkpt><trkpt lat="43.05471364088745" lon="12.841645212544144"><ele>783.0</ele><time>2026-04-18T13:29:56.999Z</time></trkpt><trkpt lat="43.054819283175895" lon="12.84181556930384"><ele>784.5</ele><time>2026-04-18T13:29:57.999Z</time></trkpt><trkpt lat="43.054918283311" lon="12.841950664013757"><ele>786.0</ele><time>2026-04-18T13:29:58.999Z</time></trkpt><trkpt lat="43.05503456817779" lon="12.842072076595619"><ele>787.5</ele><time>2026-04-18T13:29:59.999Z</time></trkpt><trkpt lat="43.05517286212259" lon="12.842170090794045"><ele>789.0</ele><time>2026-04-18T13:30:00.999Z</time></trkpt><trkpt lat="43.05531211605667" lon="12.842258852998041"><ele>789.0</ele><time>2026-04-18T13:30:01.999Z</time></trkpt><trkpt lat="43.05544609743121" lon="12.842358669813892"><ele>789.0</ele><time>2026-04-18T13:30:02.999Z</time></trkpt><trkpt lat="43.05555083448062" lon="12.842476643650468"><ele>789.0</ele><time>2026-04-18T13:30:03.999Z</time></trkpt><trkpt lat="43.05562264522724" lon="12.842601744146927"><ele>789.0</ele><time>2026-04-18T13:30:04.999Z</time></trkpt><trkpt lat="43.055704677339044" lon="12.842722180961852"><ele>792.0</ele><time>2026-04-18T13:30:05.999Z</time></trkpt><trkpt lat="43.055802323859446" lon="12.842821473654883"><ele>795.0</ele><time>2026-04-18T13:30:06.999Z</time></trkpt><trkpt lat="43.05590438551919" lon="12.842949164873206"><ele>798.0</ele><time>2026-04-18T13:30:07.999Z</time></trkpt><trkpt lat="43.05599608975613" lon="12.84311058742686"><ele>801.0</ele><time>2026-04-18T13:30:08.999Z</time></trkpt><trkpt lat="43.0560941344876" lon="12.843275097432217"><ele>801.0</ele><time>2026-04-18T13:30:09.999Z</time></trkpt><trkpt lat="43.056185330882606" lon="12.843430905969798"><ele>801.0</ele><time>2026-04-18T13:30:10.999Z</time></trkpt><trkpt lat="43.05626987624064" lon="12.84358871199441"><ele>801.0</ele><time>2026-04-18T13:30:11.999Z</time></trkpt><trkpt lat="43.05636089172135" lon="12.843751853045884"><ele>801.0</ele><time>2026-04-18T13:30:12.999Z</time></trkpt><trkpt lat="43.056466810964785" lon="12.843921582251992"><ele>801.5</ele><time>2026-04-18T13:30:13.999Z</time></trkpt><trkpt lat="43.056562090170594" lon="12.844071884546507"><ele>802.0</ele><time>2026-04-18T13:30:14.999Z</time></trkpt><trkpt lat="43.05665420805037" lon="12.844216713747645"><ele>802.5</ele><time>2026-04-18T13:30:15.999Z</time></trkpt><trkpt lat="43.056746187723746" lon="12.844329731379352"><ele>803.0</ele><time>2026-04-18T13:30:16.999Z</time></trkpt><trkpt lat="43.05685035232797" lon="12.844430366996592"><ele>808.0</ele><time>2026-04-18T13:30:17.999Z</time></trkpt><trkpt lat="43.056968102325705" lon="12.844544361907946"><ele>813.0</ele><time>2026-04-18T13:30:18.999Z</time></trkpt><trkpt lat="43.057058578437534" lon="12.844647027965165"><ele>818.0</ele><time>2026-04-18T13:30:19.999Z</time></trkpt><trkpt lat="43.05713401741289" lon="12.844726361279488"><ele>823.0</ele><time>2026-04-18T13:30:20.999Z</time></trkpt><trkpt lat="43.05720390837157" lon="12.844790506959654"><ele>828.0</ele><time>2026-04-18T13:30:21.999Z</time></trkpt><trkpt lat="43.057262074095064" lon="12.844832779842763"><ele>828.0</ele><time>2026-04-18T13:30:22.999Z</time></trkpt><trkpt lat="43.057346294436236" lon="12.84488560571255"><ele>828.0</ele><time>2026-04-18T13:30:23.999Z</time></trkpt><trkpt lat="43.057428120267396" lon="12.84491765612278"><ele>828.0</ele><time>2026-04-18T13:30:24.999Z</time></trkpt><trkpt lat="43.05743609132359" lon="12.845011571856343"><ele>828.0</ele><time>2026-04-18T13:30:26.999Z</time></trkpt><trkpt lat="43.05740490013136" lon="12.845087956106884"><ele>828.0</ele><time>2026-04-18T13:30:27.999Z</time></trkpt><trkpt lat="43.05746826438842" lon="12.845214030194098"><ele>828.0</ele><time>2026-04-18T13:30:29.999Z</time></trkpt><trkpt lat="43.05752667370782" lon="12.845310022924732"><ele>832.0</ele><time>2026-04-18T13:30:30.999Z</time></trkpt><trkpt lat="43.057571995550454" lon="12.84537829138406"><ele>836.0</ele><time>2026-04-18T13:30:31.999Z</time></trkpt><trkpt lat="43.05761854154439" lon="12.84546415016049"><ele>840.0</ele><time>2026-04-18T13:30:32.999Z</time></trkpt><trkpt lat="43.05766241528696" lon="12.845530271934596"><ele>844.0</ele><time>2026-04-18T13:30:33.999Z</time></trkpt><trkpt lat="43.05770422746217" lon="12.845627028491718"><ele>848.0</ele><time>2026-04-18T13:30:34.999Z</time></trkpt><trkpt lat="43.05775730394588" lon="12.845748468782151"><ele>852.0</ele><time>2026-04-18T13:30:36.999Z</time></trkpt><trkpt lat="43.05779665047832" lon="12.845831219962449"><ele>852.0</ele><time>2026-04-18T13:30:37.999Z</time></trkpt><trkpt lat="43.057848270872014" lon="12.845888564787188"><ele>852.0</ele><time>2026-04-18T13:30:38.999Z</time></trkpt><trkpt lat="43.057957696384655" lon="12.845936865772485"><ele>852.0</ele><time>2026-04-18T13:30:40.999Z</time></trkpt><trkpt lat="43.05801532280922" lon="12.845978090084541"><ele>852.0</ele><time>2026-04-18T13:30:42.999Z</time></trkpt><trkpt lat="43.058096444418545" lon="12.846071953659193"><ele>852.0</ele><time>2026-04-18T13:30:44.999Z</time></trkpt><trkpt lat="43.05814090871106" lon="12.846149583859276"><ele>852.0</ele><time>2026-04-18T13:30:46.999Z</time></trkpt><trkpt lat="43.0581746368048" lon="12.846300998313852"><ele>855.4000000000001</ele><time>2026-04-18T13:30:49.999Z</time></trkpt><trkpt lat="43.05827567818037" lon="12.846452990284456"><ele>858.8000000000001</ele><time>2026-04-18T13:30:51.999Z</time></trkpt><trkpt lat="43.058336003231275" lon="12.846535280425217"><ele>862.2</ele><time>2026-04-18T13:30:52.999Z</time></trkpt><trkpt lat="43.05837598409586" lon="12.846615021336175"><ele>865.6</ele><time>2026-04-18T13:30:53.999Z</time></trkpt><trkpt lat="43.05846311449952" lon="12.846723394521357"><ele>869.0</ele><time>2026-04-18T13:30:54.999Z</time></trkpt><trkpt lat="43.058557862304106" lon="12.846779684113095"><ele>877.2</ele><time>2026-04-18T13:30:55.999Z</time></trkpt><trkpt lat="43.058638145722355" lon="12.846849876595787"><ele>885.4000000000001</ele><time>2026-04-18T13:30:56.999Z</time></trkpt><trkpt lat="43.05870101699789" lon="12.846923173371914"><ele>893.6</ele><time>2026-04-18T13:30:57.999Z</time></trkpt><trkpt lat="43.0588198565996" lon="12.847042909647797"><ele>901.8</ele><time>2026-04-18T13:31:00Z</time></trkpt><trkpt lat="43.05889468308871" lon="12.847070534954959"><ele>910.0</ele><time>2026-04-18T13:31:01Z</time></trkpt><trkpt lat="43.05894405195775" lon="12.847151420587563"><ele>910.0</ele><time>2026-04-18T13:31:02Z</time></trkpt><trkpt lat="43.059001511053786" lon="12.847231091692167"><ele>910.0</ele><time>2026-04-18T13:31:03Z</time></trkpt><trkpt lat="43.05907085581812" lon="12.847293555440523"><ele>910.0</ele><time>2026-04-18T13:31:04Z</time></trkpt><trkpt lat="43.059142073624855" lon="12.847364373219252"><ele>910.0</ele><time>2026-04-18T13:31:05Z</time></trkpt><trkpt lat="43.05921494398857" lon="12.84746047900726"><ele>910.0</ele><time>2026-04-18T13:31:06Z</time></trkpt><trkpt lat="43.05929378643696" lon="12.84758938495087"><ele>916.4</ele><time>2026-04-18T13:31:07Z</time></trkpt><trkpt lat="43.05935914215226" lon="12.847686665033255"><ele>922.8</ele><time>2026-04-18T13:31:08Z</time></trkpt><trkpt lat="43.059439033835154" lon="12.84778899306773"><ele>929.2</ele><time>2026-04-18T13:31:09Z</time></trkpt><trkpt lat="43.05951000774603" lon="12.847892235547548"><ele>935.6</ele><time>2026-04-18T13:31:10Z</time></trkpt><trkpt lat="43.0595830922606" lon="12.847992693119167"><ele>942.0</ele><time>2026-04-18T13:31:11Z</time></trkpt><trkpt lat="43.05966635052735" lon="12.848107543827052"><ele>942.0</ele><time>2026-04-18T13:31:12Z</time></trkpt><trkpt lat="43.059730123226494" lon="12.848194158488578"><ele>942.0</ele><time>2026-04-18T13:31:13Z</time></trkpt><trkpt lat="43.059828813285066" lon="12.848274643129667"><ele>942.0</ele><time>2026-04-18T13:31:15Z</time></trkpt><trkpt lat="43.05986676972903" lon="12.848344692949366"><ele>942.0</ele><time>2026-04-18T13:31:16Z</time></trkpt><trkpt lat="43.05990479962543" lon="12.848446158793614"><ele>942.0</ele><time>2026-04-18T13:31:17Z</time></trkpt><trkpt lat="43.05995618255772" lon="12.848536925731802"><ele>942.0</ele><time>2026-04-18T13:31:18Z</time></trkpt><trkpt lat="43.06007656209378" lon="12.848619065855122"><ele>944.8333333333334</ele><time>2026-04-18T13:31:20Z</time></trkpt><trkpt lat="43.060139972645054" lon="12.848737661614011"><ele>947.6666666666667</ele><time>2026-04-18T13:31:22Z</time></trkpt><trkpt lat="43.06019124798076" lon="12.848821236340669"><ele>950.5</ele><time>2026-04-18T13:31:23Z</time></trkpt><trkpt lat="43.0602446453228" lon="12.848874257042793"><ele>953.3333333333334</ele><time>2026-04-18T13:31:24Z</time></trkpt><trkpt lat="43.06028320548544" lon="12.84894582282422"><ele>956.1666666666667</ele><time>2026-04-18T13:31:25Z</time></trkpt><trkpt lat="43.06037484202517" lon="12.848997744969644"><ele>959.0</ele><time>2026-04-18T13:31:27Z</time></trkpt><trkpt lat="43.06043488490823" lon="12.849054812427731"><ele>959.0000000000001</ele><time>2026-04-18T13:31:28Z</time></trkpt><trkpt lat="43.0604847188772" lon="12.849154339115348"><ele>959.0</ele><time>2026-04-18T13:31:29Z</time></trkpt><trkpt lat="43.06055550307154" lon="12.849202092934048"><ele>959.0</ele><time>2026-04-18T13:31:30Z</time></trkpt><trkpt lat="43.060619236922676" lon="12.849253059470637"><ele>959.0</ele><time>2026-04-18T13:31:31Z</time></trkpt><trkpt lat="43.06067910411552" lon="12.8492995292119"><ele>959.0000000000001</ele><time>2026-04-18T13:31:32Z</time></trkpt><trkpt lat="43.06072704260191" lon="12.849394959631846"><ele>959.0</ele><time>2026-04-18T13:31:33Z</time></trkpt><trkpt lat="43.06080616427946" lon="12.849468272800793"><ele>963.2</ele><time>2026-04-18T13:31:34Z</time></trkpt><trkpt lat="43.06087060416799" lon="12.849546331989375"><ele>967.4000000000001</ele><time>2026-04-18T13:31:35Z</time></trkpt><trkpt lat="43.060942207940286" lon="12.849664272950703"><ele>971.6</ele><time>2026-04-18T13:31:36Z</time></trkpt><trkpt lat="43.061005521583645" lon="12.849749546393872"><ele>975.8</ele><time>2026-04-18T13:31:37Z</time></trkpt><trkpt lat="43.06106390975923" lon="12.849808179122263"><ele>980.0</ele><time>2026-04-18T13:31:38Z</time></trkpt><trkpt lat="43.061155684594624" lon="12.849889384033796"><ele>980.0</ele><time>2026-04-18T13:31:39Z</time></trkpt><trkpt lat="43.061203534151616" lon="12.849988519251163"><ele>980.0</ele><time>2026-04-18T13:31:40Z</time></trkpt><trkpt lat="43.06129568423659" lon="12.850128016582769"><ele>980.0</ele><time>2026-04-18T13:31:41Z</time></trkpt><trkpt lat="43.06138836617273" lon="12.850250194814393"><ele>980.0</ele><time>2026-04-18T13:31:42Z</time></trkpt><trkpt lat="43.06145471340757" lon="12.850346356637077"><ele>982.8</ele><time>2026-04-18T13:31:43Z</time></trkpt><trkpt lat="43.06154210415267" lon="12.850427520956393"><ele>985.6</ele><time>2026-04-18T13:31:44Z</time></trkpt><trkpt lat="43.06161543115845" lon="12.850440091921277"><ele>988.4000000000001</ele><time>2026-04-18T13:31:45Z</time></trkpt><trkpt lat="43.06172935797149" lon="12.850491029057574"><ele>991.2</ele><time>2026-04-18T13:31:46Z</time></trkpt><trkpt lat="43.061832918002594" lon="12.850591948018192"><ele>994.0</ele><time>2026-04-18T13:31:47Z</time></trkpt><trkpt lat="43.06192247579793" lon="12.85072601802748"><ele>994.0</ele><time>2026-04-18T13:31:48Z</time></trkpt><trkpt lat="43.06202530706544" lon="12.850898609533509"><ele>994.0</ele><time>2026-04-18T13:31:49Z</time></trkpt><trkpt lat="43.06214096293369" lon="12.851078163946092"><ele>994.0</ele><time>2026-04-18T13:31:50Z</time></trkpt><trkpt lat="43.06227275612963" lon="12.851266475960381"><ele>996.3333333333333</ele><time>2026-04-18T13:31:51Z</time></trkpt><trkpt lat="43.06240446258471" lon="12.851458346253443"><ele>998.6666666666667</ele><time>2026-04-18T13:31:52Z</time></trkpt><trkpt lat="43.06252124772888" lon="12.851631230030485"><ele>1001.0</ele><time>2026-04-18T13:31:53Z</time></trkpt><trkpt lat="43.06262563875866" lon="12.851786292567299"><ele>1001.5</ele><time>2026-04-18T13:31:54Z</time></trkpt><trkpt lat="43.062720828945686" lon="12.851926977428786"><ele>1002.0</ele><time>2026-04-18T13:31:55Z</time></trkpt><trkpt lat="43.06279892085069" lon="12.852061903871764"><ele>1002.5</ele><time>2026-04-18T13:31:55.999Z</time></trkpt><trkpt lat="43.06286875431447" lon="12.852189401061207"><ele>1003.0</ele><time>2026-04-18T13:31:56.999Z</time></trkpt><trkpt lat="43.06293800903591" lon="12.852302558876831"><ele>1002.9999999999999</ele><time>2026-04-18T13:31:57.999Z</time></trkpt><trkpt lat="43.062981769233865" lon="12.852410384904083"><ele>1003.0</ele><time>2026-04-18T13:31:58.999Z</time></trkpt><trkpt lat="43.06299594573282" lon="12.852502966568618"><ele>1003.0</ele><time>2026-04-18T13:31:59.999Z</time></trkpt><trkpt lat="43.06299157236359" lon="12.852601270143607"><ele>1003.0</ele><time>2026-04-18T13:32:00.999Z</time></trkpt><trkpt lat="43.06298821444346" lon="12.852729534765572"><ele>1002.9999999999999</ele><time>2026-04-18T13:32:01.999Z</time></trkpt><trkpt lat="43.06300097960473" lon="12.852842263208645"><ele>1003.0</ele><time>2026-04-18T13:32:02.999Z</time></trkpt><trkpt lat="43.063028461385386" lon="12.852946393857822"><ele>1004.5999999999999</ele><time>2026-04-18T13:32:03.999Z</time></trkpt><trkpt lat="43.06305018314161" lon="12.853043861114598"><ele>1006.1999999999999</ele><time>2026-04-18T13:32:04.999Z</time></trkpt><trkpt lat="43.06306619239832" lon="12.853213806711732"><ele>1007.8</ele><time>2026-04-18T13:32:06.999Z</time></trkpt><trkpt lat="43.06305104669208" lon="12.853351190556078"><ele>1009.4</ele><time>2026-04-18T13:32:08.999Z</time></trkpt><trkpt lat="43.063063879258515" lon="12.853507559039112"><ele>1011.0</ele><time>2026-04-18T13:32:10.999Z</time></trkpt><trkpt lat="43.06315944144497" lon="12.853577535761639"><ele>1012.5</ele><time>2026-04-18T13:32:12.999Z</time></trkpt><trkpt lat="43.063224825474826" lon="12.853611955535818"><ele>1014.0</ele><time>2026-04-18T13:32:13.999Z</time></trkpt><trkpt lat="43.06324250352107" lon="12.853791956422702"><ele>1015.5</ele><time>2026-04-18T13:32:15.999Z</time></trkpt><trkpt lat="43.0633256934353" lon="12.85385067008954"><ele>1017.0</ele><time>2026-04-18T13:32:17.999Z</time></trkpt><trkpt lat="43.063404903416725" lon="12.85387247185372"><ele>1018.5</ele><time>2026-04-18T13:32:18.999Z</time></trkpt><trkpt lat="43.06346766431074" lon="12.853916179393739"><ele>1020.0</ele><time>2026-04-18T13:32:19.999Z</time></trkpt><trkpt lat="43.063528387554726" lon="12.85397694156549"><ele>1015.4</ele><time>2026-04-18T13:32:20.999Z</time></trkpt><trkpt lat="43.063596734951474" lon="12.854032865535675"><ele>1010.8</ele><time>2026-04-18T13:32:21.999Z</time></trkpt><trkpt lat="43.063652774565206" lon="12.854090869143928"><ele>1006.2</ele><time>2026-04-18T13:32:22.999Z</time></trkpt><trkpt lat="43.06375833360511" lon="12.854165728010866"><ele>1001.6</ele><time>2026-04-18T13:32:24.999Z</time></trkpt><trkpt lat="43.06386855466978" lon="12.854204716166718"><ele>997.0</ele><time>2026-04-18T13:32:26.999Z</time></trkpt><trkpt lat="43.06394725543491" lon="12.85429675967768"><ele>996.9999999999999</ele><time>2026-04-18T13:32:28.999Z</time></trkpt><trkpt lat="43.06402137315071" lon="12.85437913814719"><ele>997.0</ele><time>2026-04-18T13:32:30.999Z</time></trkpt><trkpt lat="43.064097692254265" lon="12.854422230895647"><ele>997.0</ele><time>2026-04-18T13:32:31.999Z</time></trkpt><trkpt lat="43.06418430698691" lon="12.854450290751164"><ele>997.0</ele><time>2026-04-18T13:32:32.999Z</time></trkpt><trkpt lat="43.06427038913671" lon="12.854503466592336"><ele>996.9999999999999</ele><time>2026-04-18T13:32:34.999Z</time></trkpt><trkpt lat="43.06432018453246" lon="12.854560086722145"><ele>997.0</ele><time>2026-04-18T13:32:35.999Z</time></trkpt><trkpt lat="43.064435304466514" lon="12.854679762958085"><ele>990.4000000000001</ele><time>2026-04-18T13:32:37.999Z</time></trkpt><trkpt lat="43.06452455928141" lon="12.854739608285408"><ele>983.8000000000001</ele><time>2026-04-18T13:32:38.999Z</time></trkpt><trkpt lat="43.064605453143855" lon="12.854802021127513"><ele>977.2</ele><time>2026-04-18T13:32:39.999Z</time></trkpt><trkpt lat="43.0646917574033" lon="12.854871930081764"><ele>970.6</ele><time>2026-04-18T13:32:40.999Z</time></trkpt><trkpt lat="43.064799207907065" lon="12.85493724926762"><ele>964.0</ele><time>2026-04-18T13:32:41.999Z</time></trkpt><trkpt lat="43.06489803774791" lon="12.855001047605649"><ele>959.75</ele><time>2026-04-18T13:32:42.999Z</time></trkpt><trkpt lat="43.06498266057732" lon="12.855086784848488"><ele>955.5</ele><time>2026-04-18T13:32:43.999Z</time></trkpt><trkpt lat="43.06505904918724" lon="12.855172897693475"><ele>951.25</ele><time>2026-04-18T13:32:44.999Z</time></trkpt><trkpt lat="43.06516009859912" lon="12.855278134830456"><ele>947.0</ele><time>2026-04-18T13:32:45.999Z</time></trkpt><trkpt lat="43.06527465221029" lon="12.855383248423905"><ele>947.0</ele><time>2026-04-18T13:32:46.999Z</time></trkpt><trkpt lat="43.06539478502637" lon="12.855480067657522"><ele>947.0</ele><time>2026-04-18T13:32:47.999Z</time></trkpt><trkpt lat="43.06552256957283" lon="12.855567188011193"><ele>947.0</ele><time>2026-04-18T13:32:48.999Z</time></trkpt><trkpt lat="43.06562930520931" lon="12.855650647790718"><ele>947.0</ele><time>2026-04-18T13:32:49.999Z</time></trkpt><trkpt lat="43.06571786668178" lon="12.855715906125688"><ele>942.0</ele><time>2026-04-18T13:32:50.999Z</time></trkpt><trkpt lat="43.06579299108015" lon="12.855745914655863"><ele>937.0</ele><time>2026-04-18T13:32:51.999Z</time></trkpt><trkpt lat="43.06587671064656" lon="12.855761031525555"><ele>932.0</ele><time>2026-04-18T13:32:52.999Z</time></trkpt><trkpt lat="43.06598504676011" lon="12.855751113712206"><ele>927.0</ele><time>2026-04-18T13:32:53.999Z</time></trkpt><trkpt lat="43.066126322645566" lon="12.855726717122922"><ele>922.0</ele><time>2026-04-18T13:32:54.999Z</time></trkpt><trkpt lat="43.066271977353864" lon="12.855693529096143"><ele>922.0</ele><time>2026-04-18T13:32:55.999Z</time></trkpt><trkpt lat="43.0664105506178" lon="12.855670303750541"><ele>922.0</ele><time>2026-04-18T13:32:56.999Z</time></trkpt><trkpt lat="43.06655280177037" lon="12.855651930370865"><ele>922.0</ele><time>2026-04-18T13:32:57.999Z</time></trkpt><trkpt lat="43.06669816843208" lon="12.8556279549674"><ele>922.0</ele><time>2026-04-18T13:32:58.999Z</time></trkpt><trkpt lat="43.06684173015014" lon="12.8556036381582"><ele>919.0</ele><time>2026-04-18T13:32:59.999Z</time></trkpt><trkpt lat="43.066977562002535" lon="12.85557929735564"><ele>916.0</ele><time>2026-04-18T13:33:00.999Z</time></trkpt><trkpt lat="43.06710551548975" lon="12.855555957755762"><ele>913.0</ele><time>2026-04-18T13:33:01.999Z</time></trkpt><trkpt lat="43.06723048817685" lon="12.855554489548714"><ele>910.0</ele><time>2026-04-18T13:33:02.999Z</time></trkpt><trkpt lat="43.0673527297535" lon="12.855582868382152"><ele>908.0</ele><time>2026-04-18T13:33:03.999Z</time></trkpt><trkpt lat="43.06749202307914" lon="12.855619879597596"><ele>906.0</ele><time>2026-04-18T13:33:05Z</time></trkpt><trkpt lat="43.06764941318332" lon="12.855646280931063"><ele>904.0</ele><time>2026-04-18T13:33:06Z</time></trkpt><trkpt lat="43.067810349159075" lon="12.855650067910025"><ele>904.0</ele><time>2026-04-18T13:33:07Z</time></trkpt><trkpt lat="43.067968708797075" lon="12.855619645335311"><ele>904.0</ele><time>2026-04-18T13:33:08Z</time></trkpt><trkpt lat="43.068116188881575" lon="12.855550148765358"><ele>904.0</ele><time>2026-04-18T13:33:09Z</time></trkpt><trkpt lat="43.068232941578174" lon="12.855478320950633"><ele>904.0</ele><time>2026-04-18T13:33:10Z</time></trkpt><trkpt lat="43.06835239829821" lon="12.855424201075285"><ele>902.75</ele><time>2026-04-18T13:33:11Z</time></trkpt><trkpt lat="43.068479273957394" lon="12.855388711056685"><ele>901.5</ele><time>2026-04-18T13:33:12Z</time></trkpt><trkpt lat="43.06860196529409" lon="12.85538253049765"><ele>900.25</ele><time>2026-04-18T13:33:13Z</time></trkpt><trkpt lat="43.06870464642958" lon="12.85537016367372"><ele>899.0</ele><time>2026-04-18T13:33:14Z</time></trkpt><trkpt lat="43.06881052029569" lon="12.855332551113634"><ele>899.0</ele><time>2026-04-18T13:33:15Z</time></trkpt><trkpt lat="43.06890269194829" lon="12.855279509483841"><ele>899.0</ele><time>2026-04-18T13:33:16Z</time></trkpt><trkpt lat="43.069020920191214" lon="12.855195756119484"><ele>899.0</ele><time>2026-04-18T13:33:17Z</time></trkpt><trkpt lat="43.06912787514367" lon="12.855124593400825"><ele>899.0</ele><time>2026-04-18T13:33:18Z</time></trkpt><trkpt lat="43.0692407378615" lon="12.855077186141592"><ele>896.0</ele><time>2026-04-18T13:33:19Z</time></trkpt><trkpt lat="43.0693684947814" lon="12.855051847064221"><ele>893.0</ele><time>2026-04-18T13:33:20Z</time></trkpt><trkpt lat="43.06950031809309" lon="12.8550263783366"><ele>890.0</ele><time>2026-04-18T13:33:21Z</time></trkpt><trkpt lat="43.06962318096371" lon="12.855018191790656"><ele>887.0</ele><time>2026-04-18T13:33:22Z</time></trkpt><trkpt lat="43.06972758255174" lon="12.854997886763336"><ele>887.0</ele><time>2026-04-18T13:33:23Z</time></trkpt><trkpt lat="43.06983058855531" lon="12.854952259445874"><ele>887.0</ele><time>2026-04-18T13:33:24Z</time></trkpt><trkpt lat="43.06995749388053" lon="12.854877638819502"><ele>887.0</ele><time>2026-04-18T13:33:25Z</time></trkpt><trkpt lat="43.07008685481285" lon="12.854813552020707"><ele>887.0</ele><time>2026-04-18T13:33:26Z</time></trkpt><trkpt lat="43.07019064517821" lon="12.854759677521782"><ele>886.6</ele><time>2026-04-18T13:33:27Z</time></trkpt><trkpt lat="43.070279259875186" lon="12.854733988656426"><ele>886.2</ele><time>2026-04-18T13:33:28Z</time></trkpt><trkpt lat="43.07034483510106" lon="12.854760403330921"><ele>885.8</ele><time>2026-04-18T13:33:29Z</time></trkpt><trkpt lat="43.07041690306011" lon="12.854893190888204"><ele>885.4</ele><time>2026-04-18T13:33:31Z</time></trkpt><trkpt lat="43.070437585678654" lon="12.854985857329096"><ele>885.0</ele><time>2026-04-18T13:33:32Z</time></trkpt><trkpt lat="43.070445437273584" lon="12.855154782467618"><ele>883.0</ele><time>2026-04-18T13:33:34Z</time></trkpt><trkpt lat="43.07044441432506" lon="12.855246976467273"><ele>881.0</ele><time>2026-04-18T13:33:35Z</time></trkpt><trkpt lat="43.07044772051909" lon="12.855337107444035"><ele>879.0</ele><time>2026-04-18T13:33:36Z</time></trkpt><trkpt lat="43.0704922465567" lon="12.855456548293548"><ele>877.0</ele><time>2026-04-18T13:33:38Z</time></trkpt><trkpt lat="43.070568719674675" lon="12.85555416653166"><ele>875.0</ele><time>2026-04-18T13:33:40Z</time></trkpt><trkpt lat="43.07064936748554" lon="12.85563091737814"><ele>873.0</ele><time>2026-04-18T13:33:42Z</time></trkpt><trkpt lat="43.070750604171515" lon="12.855683096552958"><ele>872.0</ele><time>2026-04-18T13:33:44Z</time></trkpt><trkpt lat="43.07082650827812" lon="12.85570985920733"><ele>871.0</ele><time>2026-04-18T13:33:46Z</time></trkpt><trkpt lat="43.07089916529934" lon="12.855730178759242"><ele>870.0</ele><time>2026-04-18T13:33:47Z</time></trkpt><trkpt lat="43.07098986622844" lon="12.855719184502748"><ele>869.0</ele><time>2026-04-18T13:33:48Z</time></trkpt><trkpt lat="43.07110780881334" lon="12.855668151413415"><ele>868.0</ele><time>2026-04-18T13:33:49Z</time></trkpt><trkpt lat="43.07124923716708" lon="12.855606959139354"><ele>868.0</ele><time>2026-04-18T13:33:50Z</time></trkpt><trkpt lat="43.07141521217194" lon="12.855555993451958"><ele>868.0</ele><time>2026-04-18T13:33:51Z</time></trkpt><trkpt lat="43.071589905279936" lon="12.855554688271374"><ele>868.0</ele><time>2026-04-18T13:33:52Z</time></trkpt><trkpt lat="43.07176889087403" lon="12.855574826950205"><ele>866.6666666666666</ele><time>2026-04-18T13:33:53Z</time></trkpt><trkpt lat="43.07195779760618" lon="12.855596231653676"><ele>865.3333333333333</ele><time>2026-04-18T13:33:54Z</time></trkpt><trkpt lat="43.07215017941372" lon="12.85566953303511"><ele>864.0</ele><time>2026-04-18T13:33:55Z</time></trkpt><trkpt lat="43.07232771808361" lon="12.85573273599994"><ele>866.0</ele><time>2026-04-18T13:33:56Z</time></trkpt><trkpt lat="43.07250997210476" lon="12.85576098355082"><ele>868.0</ele><time>2026-04-18T13:33:57Z</time></trkpt><trkpt lat="43.07269044121107" lon="12.855789284443153"><ele>870.0</ele><time>2026-04-18T13:33:58Z</time></trkpt><trkpt lat="43.0728417259237" lon="12.855884601964808"><ele>870.0</ele><time>2026-04-18T13:33:59Z</time></trkpt><trkpt lat="43.07301474813753" lon="12.855898666851626"><ele>870.0</ele><time>2026-04-18T13:34:00Z</time></trkpt><trkpt lat="43.07319784192652" lon="12.855883752472542"><ele>870.0</ele><time>2026-04-18T13:34:01Z</time></trkpt><trkpt lat="43.07336858624153" lon="12.855856313546596"><ele>868.3333333333333</ele><time>2026-04-18T13:34:02Z</time></trkpt><trkpt lat="43.07353301842459" lon="12.855842395115657"><ele>866.6666666666666</ele><time>2026-04-18T13:34:03Z</time></trkpt><trkpt lat="43.07369065366368" lon="12.855838694853503"><ele>865.0</ele><time>2026-04-18T13:34:04Z</time></trkpt><trkpt lat="43.07385107338725" lon="12.855861944115055"><ele>865.0</ele><time>2026-04-18T13:34:05Z</time></trkpt><trkpt lat="43.07396708919028" lon="12.855916073947421"><ele>865.0</ele><time>2026-04-18T13:34:06Z</time></trkpt><trkpt lat="43.07406477413993" lon="12.85592884800792"><ele>865.0</ele><time>2026-04-18T13:34:07Z</time></trkpt><trkpt lat="43.07413964747417" lon="12.855958165851584"><ele>865.0</ele><time>2026-04-18T13:34:08Z</time></trkpt><trkpt lat="43.07421572667771" lon="12.855980363225166"><ele>865.0</ele><time>2026-04-18T13:34:09Z</time></trkpt><trkpt lat="43.07431060621218" lon="12.855959415066724"><ele>865.0</ele><time>2026-04-18T13:34:10Z</time></trkpt><trkpt lat="43.07440429035714" lon="12.855897456755446"><ele>865.0</ele><time>2026-04-18T13:34:11Z</time></trkpt><trkpt lat="43.07450201060277" lon="12.855888959648734"><ele>865.0</ele><time>2026-04-18T13:34:12Z</time></trkpt><trkpt lat="43.07459659646932" lon="12.855877023700081"><ele>865.0</ele><time>2026-04-18T13:34:13Z</time></trkpt><trkpt lat="43.074702633979435" lon="12.855877598682646"><ele>865.0</ele><time>2026-04-18T13:34:14Z</time></trkpt><trkpt lat="43.0748143446314" lon="12.855894710209382"><ele>860.5</ele><time>2026-04-18T13:34:15Z</time></trkpt><trkpt lat="43.07491380785477" lon="12.856014079849007"><ele>856.0</ele><time>2026-04-18T13:34:16Z</time></trkpt><trkpt lat="43.075039611887306" lon="12.85611496578953"><ele>851.5</ele><time>2026-04-18T13:34:16.999Z</time></trkpt><trkpt lat="43.07514938750526" lon="12.856234236331046"><ele>847.0</ele><time>2026-04-18T13:34:17.999Z</time></trkpt><trkpt lat="43.07526363816111" lon="12.856346095008815"><ele>847.0</ele><time>2026-04-18T13:34:18.999Z</time></trkpt><trkpt lat="43.07537859343183" lon="12.856437181349282"><ele>847.0</ele><time>2026-04-18T13:34:19.999Z</time></trkpt><trkpt lat="43.07548798405563" lon="12.856519315062627"><ele>847.0</ele><time>2026-04-18T13:34:20.999Z</time></trkpt><trkpt lat="43.0756095353568" lon="12.856582328858371"><ele>847.0</ele><time>2026-04-18T13:34:21.999Z</time></trkpt><trkpt lat="43.07573786816335" lon="12.85660779627727"><ele>846.75</ele><time>2026-04-18T13:34:22.999Z</time></trkpt><trkpt lat="43.075871522142975" lon="12.856589596111755"><ele>846.5</ele><time>2026-04-18T13:34:23.999Z</time></trkpt><trkpt lat="43.07601511955498" lon="12.856524238475137"><ele>846.25</ele><time>2026-04-18T13:34:24.999Z</time></trkpt><trkpt lat="43.07615956334004" lon="12.85648015933853"><ele>846.0</ele><time>2026-04-18T13:34:25.999Z</time></trkpt><trkpt lat="43.07630444328282" lon="12.856438149713922"><ele>846.0</ele><time>2026-04-18T13:34:26.999Z</time></trkpt><trkpt lat="43.07643550496539" lon="12.856490134583195"><ele>846.0</ele><time>2026-04-18T13:34:27.999Z</time></trkpt><trkpt lat="43.076553849039634" lon="12.856592662367065"><ele>846.0</ele><time>2026-04-18T13:34:28.999Z</time></trkpt><trkpt lat="43.07667448943442" lon="12.85668816657607"><ele>846.0</ele><time>2026-04-18T13:34:29.999Z</time></trkpt><trkpt lat="43.076789740710026" lon="12.856784720838721"><ele>842.5</ele><time>2026-04-18T13:34:30.999Z</time></trkpt><trkpt lat="43.07690827188071" lon="12.856894404872916"><ele>839.0</ele><time>2026-04-18T13:34:31.999Z</time></trkpt><trkpt lat="43.077013662640425" lon="12.85699001702941"><ele>835.5</ele><time>2026-04-18T13:34:32.999Z</time></trkpt><trkpt lat="43.07712801612196" lon="12.857094300126612"><ele>832.0</ele><time>2026-04-18T13:34:33.999Z</time></trkpt><trkpt lat="43.0772390492383" lon="12.857196159507838"><ele>832.0</ele><time>2026-04-18T13:34:34.999Z</time></trkpt><trkpt lat="43.07734264899483" lon="12.857286896638142"><ele>832.0</ele><time>2026-04-18T13:34:35.999Z</time></trkpt><trkpt lat="43.07746492664498" lon="12.85734959529241"><ele>832.0</ele><time>2026-04-18T13:34:36.999Z</time></trkpt><trkpt lat="43.07760830528081" lon="12.857398860257641"><ele>832.0</ele><time>2026-04-18T13:34:37.999Z</time></trkpt><trkpt lat="43.077752331774164" lon="12.857429378820251"><ele>832.25</ele><time>2026-04-18T13:34:38.999Z</time></trkpt><trkpt lat="43.07789746515149" lon="12.857478731510412"><ele>832.5</ele><time>2026-04-18T13:34:39.999Z</time></trkpt><trkpt lat="43.07801632862475" lon="12.857594314045283"><ele>832.75</ele><time>2026-04-18T13:34:40.999Z</time></trkpt><trkpt lat="43.07814033574608" lon="12.857707789822534"><ele>833.0</ele><time>2026-04-18T13:34:41.999Z</time></trkpt><trkpt lat="43.07824389486727" lon="12.857847360382559"><ele>831.3333333333334</ele><time>2026-04-18T13:34:42.999Z</time></trkpt><trkpt lat="43.07835682852568" lon="12.857991183370519"><ele>829.6666666666667</ele><time>2026-04-18T13:34:43.999Z</time></trkpt><trkpt lat="43.07847785805406" lon="12.858148683012283"><ele>828.0</ele><time>2026-04-18T13:34:44.999Z</time></trkpt><trkpt lat="43.0786115250979" lon="12.858322628391413"><ele>827.3333333333333</ele><time>2026-04-18T13:34:45.999Z</time></trkpt><trkpt lat="43.07875683513587" lon="12.858484183539169"><ele>826.6666666666666</ele><time>2026-04-18T13:34:46.999Z</time></trkpt><trkpt lat="43.078878528160196" lon="12.858670088190605"><ele>826.0</ele><time>2026-04-18T13:34:47.999Z</time></trkpt><trkpt lat="43.07899326038263" lon="12.858820279147963"><ele>827.0</ele><time>2026-04-18T13:34:48.999Z</time></trkpt><trkpt lat="43.07912061503933" lon="12.858958310672508"><ele>828.0</ele><time>2026-04-18T13:34:49.999Z</time></trkpt><trkpt lat="43.07920911669926" lon="12.85910844202902"><ele>829.0</ele><time>2026-04-18T13:34:50.999Z</time></trkpt><trkpt lat="43.07929592149007" lon="12.859263993973432"><ele>830.0</ele><time>2026-04-18T13:34:51.999Z</time></trkpt><trkpt lat="43.079372172314734" lon="12.859443590842819"><ele>830.3333333333334</ele><time>2026-04-18T13:34:52.999Z</time></trkpt><trkpt lat="43.07944023184209" lon="12.859639513952331"><ele>830.6666666666667</ele><time>2026-04-18T13:34:53.999Z</time></trkpt><trkpt lat="43.079501732976084" lon="12.859841883592402"><ele>831.0</ele><time>2026-04-18T13:34:54.999Z</time></trkpt><trkpt lat="43.07955886574866" lon="12.86005731931323"><ele>832.3333333333333</ele><time>2026-04-18T13:34:55.999Z</time></trkpt><trkpt lat="43.0796122757688" lon="12.86027470497462"><ele>833.6666666666666</ele><time>2026-04-18T13:34:56.999Z</time></trkpt><trkpt lat="43.079661316392354" lon="12.860482460948036"><ele>835.0</ele><time>2026-04-18T13:34:57.999Z</time></trkpt><trkpt lat="43.0797034492932" lon="12.860658599054878"><ele>835.0</ele><time>2026-04-18T13:34:58.999Z</time></trkpt><trkpt lat="43.0797560928642" lon="12.860844526967673"><ele>835.0</ele><time>2026-04-18T13:34:59.999Z</time></trkpt><trkpt lat="43.07980370984424" lon="12.86097655011847"><ele>835.0</ele><time>2026-04-18T13:35:00.999Z</time></trkpt><trkpt lat="43.07983121037112" lon="12.861085554493249"><ele>835.0</ele><time>2026-04-18T13:35:01.999Z</time></trkpt><trkpt lat="43.079864135367494" lon="12.861170303229533"><ele>835.0</ele><time>2026-04-18T13:35:02.999Z</time></trkpt><trkpt lat="43.07989641868498" lon="12.861263864345476"><ele>838.2</ele><time>2026-04-18T13:35:03.999Z</time></trkpt><trkpt lat="43.07996521010537" lon="12.86129645785686"><ele>841.4</ele><time>2026-04-18T13:35:04.999Z</time></trkpt><trkpt lat="43.08006036144198" lon="12.86133106089663"><ele>844.5999999999999</ele><time>2026-04-18T13:35:06.999Z</time></trkpt><trkpt lat="43.08017419974184" lon="12.861379476863734"><ele>847.8</ele><time>2026-04-18T13:35:08.999Z</time></trkpt><trkpt lat="43.080269750078955" lon="12.861380267347219"><ele>851.0</ele><time>2026-04-18T13:35:11Z</time></trkpt><trkpt lat="43.08034775697378" lon="12.861410947545233"><ele>851.0000000000001</ele><time>2026-04-18T13:35:14Z</time></trkpt><trkpt lat="43.08040409398387" lon="12.861357964063208"><ele>851.0</ele><time>2026-04-18T13:36:09Z</time></trkpt><trkpt lat="43.08046652821705" lon="12.861418371174976"><ele>851.0</ele><time>2026-04-18T13:36:11Z</time></trkpt><trkpt lat="43.08053335137529" lon="12.861511663847068"><ele>851.0</ele><time>2026-04-18T13:36:13Z</time></trkpt><trkpt lat="43.08058975033833" lon="12.861604741153343"><ele>851.0000000000001</ele><time>2026-04-18T13:36:15Z</time></trkpt><trkpt lat="43.080624946386294" lon="12.861732778628154"><ele>851.0</ele><time>2026-04-18T13:36:17Z</time></trkpt><trkpt lat="43.08051589181445" lon="12.86180368445952"><ele>851.0</ele><time>2026-04-18T13:36:19Z</time></trkpt><trkpt lat="43.08037163625763" lon="12.861651929367152"><ele>851.0</ele><time>2026-04-18T13:36:21Z</time></trkpt><trkpt lat="43.08030246141229" lon="12.86186546820249"><ele>851.0</ele><time>2026-04-18T13:36:23Z</time></trkpt><trkpt lat="43.08033043589648" lon="12.861966663843512"><ele>851.0</ele><time>2026-04-18T13:36:24Z</time></trkpt><trkpt lat="43.08046881898247" lon="12.862080315297066"><ele>860.0</ele><time>2026-04-18T13:36:25Z</time></trkpt><trkpt lat="43.080333564741316" lon="12.861878307164348"><ele>869.0</ele><time>2026-04-18T13:36:26Z</time></trkpt><trkpt lat="43.08059132274605" lon="12.862163840997866"><ele>869.0</ele><time>2026-04-18T13:36:26.999Z</time></trkpt><trkpt lat="43.080685619319745" lon="12.862276535083053"><ele>869.0000000000001</ele><time>2026-04-18T13:36:28.999Z</time></trkpt><trkpt lat="43.08080646936417" lon="12.862296088334736"><ele>869.0000000000001</ele><time>2026-04-18T13:36:30.999Z</time></trkpt><trkpt lat="43.08092040840849" lon="12.862353934434735"><ele>869.0</ele><time>2026-04-18T13:36:32.999Z</time></trkpt><trkpt lat="43.08099386982801" lon="12.862389100486237"><ele>869.0</ele><time>2026-04-18T13:36:33.999Z</time></trkpt><trkpt lat="43.081056940082014" lon="12.86240799752883"><ele>870.6666666666667</ele><time>2026-04-18T13:36:34.999Z</time></trkpt><trkpt lat="43.08111592702787" lon="12.862452109095983"><ele>872.3333333333334</ele><time>2026-04-18T13:36:35.999Z</time></trkpt><trkpt lat="43.08117261165941" lon="12.862517569866066"><ele>874.0</ele><time>2026-04-18T13:36:36.999Z</time></trkpt><trkpt lat="43.0812197699778" lon="12.862583616489768"><ele>875.6666666666667</ele><time>2026-04-18T13:36:37.999Z</time></trkpt><trkpt lat="43.08127440956031" lon="12.8626485902451"><ele>877.3333333333334</ele><time>2026-04-18T13:36:38.999Z</time></trkpt><trkpt lat="43.081348722064305" lon="12.862705654246467"><ele>879.0</ele><time>2026-04-18T13:36:39.999Z</time></trkpt><trkpt lat="43.081434635632725" lon="12.86275813038015"><ele>883.2</ele><time>2026-04-18T13:36:40.999Z</time></trkpt><trkpt lat="43.08151453685028" lon="12.862813350988604"><ele>887.4000000000001</ele><time>2026-04-18T13:36:41.999Z</time></trkpt><trkpt lat="43.08159141139426" lon="12.862898755010972"><ele>891.6</ele><time>2026-04-18T13:36:42.999Z</time></trkpt><trkpt lat="43.08168023001089" lon="12.86297592602072"><ele>895.8</ele><time>2026-04-18T13:36:43.999Z</time></trkpt><trkpt lat="43.08174061920504" lon="12.863069012051387"><ele>900.0</ele><time>2026-04-18T13:36:44.999Z</time></trkpt><trkpt lat="43.08179166186082" lon="12.863168223630089"><ele>901.3333333333334</ele><time>2026-04-18T13:36:45.999Z</time></trkpt><trkpt lat="43.08187911659017" lon="12.863247065127236"><ele>902.6666666666667</ele><time>2026-04-18T13:36:47.999Z</time></trkpt><trkpt lat="43.08192913960657" lon="12.86316925700989"><ele>904.0</ele><time>2026-04-18T13:36:49.999Z</time></trkpt><trkpt lat="43.08197920788769" lon="12.863100341527812"><ele>905.3333333333334</ele><time>2026-04-18T13:36:50.999Z</time></trkpt><trkpt lat="43.0820430550197" lon="12.863053342537665"><ele>906.6666666666667</ele><time>2026-04-18T13:36:51.999Z</time></trkpt><trkpt lat="43.0821136253785" lon="12.862954124605348"><ele>908.0</ele><time>2026-04-18T13:36:53.999Z</time></trkpt><trkpt lat="43.08215323840005" lon="12.862871864108696"><ele>908.0</ele><time>2026-04-18T13:36:55.999Z</time></trkpt><trkpt lat="43.0821994076892" lon="12.862802687483404"><ele>908.0</ele><time>2026-04-18T13:36:57.999Z</time></trkpt><trkpt lat="43.082278602342335" lon="12.862706305723812"><ele>908.0</ele><time>2026-04-18T13:36:59.999Z</time></trkpt><trkpt lat="43.08236234687694" lon="12.862653031767463"><ele>908.0</ele><time>2026-04-18T13:37:01.999Z</time></trkpt><trkpt lat="43.082479299178054" lon="12.86257151381462"><ele>908.0</ele><time>2026-04-18T13:37:03.999Z</time></trkpt><trkpt lat="43.082547370075154" lon="12.862529962612143"><ele>908.0000000000001</ele><time>2026-04-18T13:37:04.999Z</time></trkpt><trkpt lat="43.0826123705638" lon="12.862494306886218"><ele>908.0</ele><time>2026-04-18T13:37:05.999Z</time></trkpt><trkpt lat="43.08268742333376" lon="12.862455996271695"><ele>908.0</ele><time>2026-04-18T13:37:06.999Z</time></trkpt><trkpt lat="43.08276285683544" lon="12.862431837784769"><ele>908.0</ele><time>2026-04-18T13:37:07.999Z</time></trkpt><trkpt lat="43.0828452385499" lon="12.862361161001784"><ele>908.0000000000001</ele><time>2026-04-18T13:37:08.999Z</time></trkpt><trkpt lat="43.08294588529322" lon="12.86231839315939"><ele>908.0</ele><time>2026-04-18T13:37:09.999Z</time></trkpt><trkpt lat="43.08304670857901" lon="12.86229108339751"><ele>908.0</ele><time>2026-04-18T13:37:10.999Z</time></trkpt><trkpt lat="43.083154387327525" lon="12.862278460839791"><ele>908.0</ele><time>2026-04-18T13:37:11.999Z</time></trkpt><trkpt lat="43.0832611402861" lon="12.86227467512811"><ele>908.0</ele><time>2026-04-18T13:37:12.999Z</time></trkpt><trkpt lat="43.08334638372206" lon="12.862287772736744"><ele>908.0</ele><time>2026-04-18T13:37:13.999Z</time></trkpt><trkpt lat="43.083425975789716" lon="12.862299046932359"><ele>908.0</ele><time>2026-04-18T13:37:14.999Z</time></trkpt><trkpt lat="43.08350012660157" lon="12.862306415314542"><ele>910.1666666666667</ele><time>2026-04-18T13:37:15.999Z</time></trkpt><trkpt lat="43.08357542376523" lon="12.862333588047072"><ele>912.3333333333334</ele><time>2026-04-18T13:37:18Z</time></trkpt><trkpt lat="43.08365645958496" lon="12.86236320332566"><ele>914.5</ele><time>2026-04-18T13:37:40Z</time></trkpt><trkpt lat="43.08374989116653" lon="12.862389097964805"><ele>916.6666666666667</ele><time>2026-04-18T13:44:03Z</time></trkpt><trkpt lat="43.08383296468011" lon="12.862417887378268"><ele>918.8333333333334</ele><time>2026-04-18T13:44:05Z</time></trkpt><trkpt lat="43.083892878198874" lon="12.862481065723573"><ele>921.0</ele><time>2026-04-18T13:44:06Z</time></trkpt><trkpt lat="43.0839491690913" lon="12.862563840273497"><ele>923.8</ele><time>2026-04-18T13:44:07Z</time></trkpt><trkpt lat="43.08399536259303" lon="12.862674343418547"><ele>926.5999999999999</ele><time>2026-04-18T13:44:08Z</time></trkpt><trkpt lat="43.08406570355243" lon="12.862782756178289"><ele>929.4</ele><time>2026-04-18T13:44:09Z</time></trkpt><trkpt lat="43.08414284392245" lon="12.862900876836063"><ele>932.2</ele><time>2026-04-18T13:44:10Z</time></trkpt><trkpt lat="43.08422349952584" lon="12.863036230290401"><ele>935.0</ele><time>2026-04-18T13:44:11Z</time></trkpt><trkpt lat="43.08429607658951" lon="12.863159958261878"><ele>935.0</ele><time>2026-04-18T13:44:12Z</time></trkpt><trkpt lat="43.0843646308803" lon="12.863277853270477"><ele>935.0</ele><time>2026-04-18T13:44:13Z</time></trkpt><trkpt lat="43.084433945596864" lon="12.86340482169394"><ele>935.0</ele><time>2026-04-18T13:44:14Z</time></trkpt><trkpt lat="43.08450881106977" lon="12.863520070709162"><ele>935.0</ele><time>2026-04-18T13:44:15Z</time></trkpt><trkpt lat="43.08457630758351" lon="12.863646655170655"><ele>941.75</ele><time>2026-04-18T13:44:16Z</time></trkpt><trkpt lat="43.08464004685619" lon="12.863776115643137"><ele>948.5</ele><time>2026-04-18T13:44:17Z</time></trkpt><trkpt lat="43.084711554065684" lon="12.863904229615306"><ele>955.25</ele><time>2026-04-18T13:44:18Z</time></trkpt><trkpt lat="43.08477748100886" lon="12.864034205685906"><ele>962.0</ele><time>2026-04-18T13:44:19Z</time></trkpt><trkpt lat="43.08484986880896" lon="12.864148021638345"><ele>959.0</ele><time>2026-04-18T13:44:20Z</time></trkpt><trkpt lat="43.0849369236715" lon="12.86425326626368"><ele>956.0</ele><time>2026-04-18T13:44:21Z</time></trkpt><trkpt lat="43.08502374519214" lon="12.864343348906454"><ele>953.0</ele><time>2026-04-18T13:44:22Z</time></trkpt><trkpt lat="43.08510767321127" lon="12.8644425221025"><ele>950.0</ele><time>2026-04-18T13:44:23Z</time></trkpt><trkpt lat="43.085192570500276" lon="12.864540069624377"><ele>947.0</ele><time>2026-04-18T13:44:24Z</time></trkpt><trkpt lat="43.085294549814634" lon="12.86460954127232"><ele>947.0</ele><time>2026-04-18T13:44:25Z</time></trkpt><trkpt lat="43.08538225481054" lon="12.864677734249621"><ele>947.0</ele><time>2026-04-18T13:44:26Z</time></trkpt><trkpt lat="43.08546663558675" lon="12.864765968661848"><ele>947.0</ele><time>2026-04-18T13:44:27Z</time></trkpt><trkpt lat="43.085546623459635" lon="12.864807793971075"><ele>947.0</ele><time>2026-04-18T13:44:28Z</time></trkpt><trkpt lat="43.08561540620008" lon="12.864825213958687"><ele>947.0</ele><time>2026-04-18T13:44:29Z</time></trkpt><trkpt lat="43.085716422755596" lon="12.8648570356485"><ele>941.3333333333334</ele><time>2026-04-18T13:44:31Z</time></trkpt><trkpt lat="43.0857998752879" lon="12.864851600837543"><ele>935.6666666666667</ele><time>2026-04-18T13:44:33Z</time></trkpt><trkpt lat="43.08586606693605" lon="12.86483111156381"><ele>930.0</ele><time>2026-04-18T13:44:35Z</time></trkpt><trkpt lat="43.08593182887734" lon="12.864760108346335"><ele>924.3333333333333</ele><time>2026-04-18T13:44:37Z</time></trkpt><trkpt lat="43.085950904740415" lon="12.864617925847433"><ele>918.6666666666666</ele><time>2026-04-18T13:44:39Z</time></trkpt><trkpt lat="43.085963213728135" lon="12.864513045829058"><ele>913.0</ele><time>2026-04-18T13:44:40Z</time></trkpt><trkpt lat="43.08598725758913" lon="12.864359047294021"><ele>906.8</ele><time>2026-04-18T13:44:42Z</time></trkpt><trkpt lat="43.086021513925566" lon="12.864277035842544"><ele>900.5999999999999</ele><time>2026-04-18T13:44:43Z</time></trkpt><trkpt lat="43.08603403729423" lon="12.864126850950397"><ele>894.4000000000001</ele><time>2026-04-18T13:44:45Z</time></trkpt><trkpt lat="43.086005279157504" lon="12.863980579093813"><ele>888.2</ele><time>2026-04-18T13:44:47Z</time></trkpt><trkpt lat="43.085945825039026" lon="12.863887556065078"><ele>882.0</ele><time>2026-04-18T13:44:49Z</time></trkpt><trkpt lat="43.08587191015468" lon="12.863769330403994"><ele>882.0</ele><time>2026-04-18T13:44:51Z</time></trkpt><trkpt lat="43.085826605409984" lon="12.863671023642718"><ele>882.0</ele><time>2026-04-18T13:44:52Z</time></trkpt><trkpt lat="43.08576698124186" lon="12.863530224833937"><ele>882.0</ele><time>2026-04-18T13:44:54Z</time></trkpt><trkpt lat="43.08570867556274" lon="12.86345362448265"><ele>882.0</ele><time>2026-04-18T13:44:55Z</time></trkpt><trkpt lat="43.085636489279906" lon="12.86336345839725"><ele>882.0</ele><time>2026-04-18T13:44:57Z</time></trkpt><trkpt lat="43.08569799316853" lon="12.863278385307547"><ele>878.0</ele><time>2026-04-18T13:45:00Z</time></trkpt><trkpt lat="43.0857821658607" lon="12.863251068802848"><ele>874.0</ele><time>2026-04-18T13:45:01Z</time></trkpt><trkpt lat="43.085887339942666" lon="12.863218293679543"><ele>870.0</ele><time>2026-04-18T13:45:02Z</time></trkpt><trkpt lat="43.085989592407465" lon="12.863160525100177"><ele>866.0</ele><time>2026-04-18T13:45:03Z</time></trkpt><trkpt lat="43.08605445255178" lon="12.863081145840555"><ele>862.0</ele><time>2026-04-18T13:45:04Z</time></trkpt><trkpt lat="43.08609501491927" lon="12.862980250646604"><ele>862.0</ele><time>2026-04-18T13:45:05Z</time></trkpt><trkpt lat="43.08613439417074" lon="12.862850448045133"><ele>862.0</ele><time>2026-04-18T13:45:06Z</time></trkpt><trkpt lat="43.08616371616711" lon="12.862669383283752"><ele>862.0</ele><time>2026-04-18T13:45:07Z</time></trkpt><trkpt lat="43.086197504226874" lon="12.862482255651312"><ele>862.0</ele><time>2026-04-18T13:45:08Z</time></trkpt><trkpt lat="43.086222462032765" lon="12.862307040056134"><ele>859.25</ele><time>2026-04-18T13:45:08.999Z</time></trkpt><trkpt lat="43.086235849077184" lon="12.86210402596181"><ele>856.5</ele><time>2026-04-18T13:45:09.999Z</time></trkpt><trkpt lat="43.0862511455772" lon="12.861908146362316"><ele>853.75</ele><time>2026-04-18T13:45:10.999Z</time></trkpt><trkpt lat="43.086247320020384" lon="12.861734149411186"><ele>851.0</ele><time>2026-04-18T13:45:11.999Z</time></trkpt><trkpt lat="43.08625200888637" lon="12.861587482553775"><ele>850.0</ele><time>2026-04-18T13:45:12.999Z</time></trkpt><trkpt lat="43.08627371835187" lon="12.86144685518877"><ele>849.0</ele><time>2026-04-18T13:45:13.999Z</time></trkpt><trkpt lat="43.08630581165533" lon="12.86131766915013"><ele>848.0</ele><time>2026-04-18T13:45:14.999Z</time></trkpt><trkpt lat="43.08635387122389" lon="12.86116489116195"><ele>847.0</ele><time>2026-04-18T13:45:15.999Z</time></trkpt><trkpt lat="43.08638707565839" lon="12.861009508530701"><ele>846.0</ele><time>2026-04-18T13:45:16.999Z</time></trkpt><trkpt lat="43.086405726689776" lon="12.860885336912952"><ele>844.6666666666666</ele><time>2026-04-18T13:45:17.999Z</time></trkpt><trkpt lat="43.086440288826616" lon="12.86077685147345"><ele>843.3333333333333</ele><time>2026-04-18T13:45:18.999Z</time></trkpt><trkpt lat="43.08649246797966" lon="12.860691066423497"><ele>842.0</ele><time>2026-04-18T13:45:19.999Z</time></trkpt><trkpt lat="43.086544675461234" lon="12.860624569178958"><ele>840.6666666666666</ele><time>2026-04-18T13:45:20.999Z</time></trkpt><trkpt lat="43.0866515806772" lon="12.860537116704839"><ele>839.3333333333333</ele><time>2026-04-18T13:45:22.999Z</time></trkpt><trkpt lat="43.08671481984437" lon="12.860533784657445"><ele>838.0</ele><time>2026-04-18T13:45:23.999Z</time></trkpt><trkpt lat="43.08678661613294" lon="12.860548178425734"><ele>846.4</ele><time>2026-04-18T13:45:24.999Z</time></trkpt><trkpt lat="43.08688627395188" lon="12.860558672973307"><ele>854.8</ele><time>2026-04-18T13:45:25.999Z</time></trkpt><trkpt lat="43.08699445500642" lon="12.860571226831219"><ele>863.2</ele><time>2026-04-18T13:45:26.999Z</time></trkpt><trkpt lat="43.08710692274405" lon="12.860573176707522"><ele>871.6</ele><time>2026-04-18T13:45:27.999Z</time></trkpt><trkpt lat="43.08722607875952" lon="12.860568378807816"><ele>880.0</ele><time>2026-04-18T13:45:28.999Z</time></trkpt><trkpt lat="43.08733101374713" lon="12.860559256376378"><ele>880.0</ele><time>2026-04-18T13:45:29.999Z</time></trkpt><trkpt lat="43.087397248835764" lon="12.860583792879272"><ele>880.0</ele><time>2026-04-18T13:45:30.999Z</time></trkpt><trkpt lat="43.08749569029232" lon="12.860644809461618"><ele>880.0</ele><time>2026-04-18T13:45:31.999Z</time></trkpt><trkpt lat="43.08758433808457" lon="12.860688287933764"><ele>880.0</ele><time>2026-04-18T13:45:32.999Z</time></trkpt><trkpt lat="43.08770874416074" lon="12.860701938156998"><ele>880.0</ele><time>2026-04-18T13:45:33.999Z</time></trkpt><trkpt lat="43.087840888126316" lon="12.860728763493709"><ele>881.75</ele><time>2026-04-18T13:45:34.999Z</time></trkpt><trkpt lat="43.08798599826452" lon="12.86073375888016"><ele>883.5</ele><time>2026-04-18T13:45:35.999Z</time></trkpt><trkpt lat="43.088127652322775" lon="12.860761151180844"><ele>885.25</ele><time>2026-04-18T13:45:36.999Z</time></trkpt><trkpt lat="43.0882598533811" lon="12.860788210140576"><ele>887.0</ele><time>2026-04-18T13:45:37.999Z</time></trkpt><trkpt lat="43.08840287450411" lon="12.860825758170389"><ele>887.0</ele><time>2026-04-18T13:45:38.999Z</time></trkpt><trkpt lat="43.088533225985564" lon="12.860857948810313"><ele>887.0</ele><time>2026-04-18T13:45:40Z</time></trkpt><trkpt lat="43.08865436141963" lon="12.860892917256374"><ele>887.0</ele><time>2026-04-18T13:45:41Z</time></trkpt><trkpt lat="43.08877123737885" lon="12.86092961965971"><ele>887.0</ele><time>2026-04-18T13:45:42Z</time></trkpt><trkpt lat="43.08889203151393" lon="12.860975617805993"><ele>890.4000000000001</ele><time>2026-04-18T13:45:43Z</time></trkpt><trkpt lat="43.08900097327102" lon="12.861029636632393"><ele>893.8000000000001</ele><time>2026-04-18T13:45:44Z</time></trkpt><trkpt lat="43.0890904774649" lon="12.861070616326595"><ele>897.2</ele><time>2026-04-18T13:45:45Z</time></trkpt><trkpt lat="43.08917850642995" lon="12.86110293260843"><ele>900.6</ele><time>2026-04-18T13:45:46Z</time></trkpt><trkpt lat="43.08926984679338" lon="12.861136123871562"><ele>904.0</ele><time>2026-04-18T13:45:47Z</time></trkpt><trkpt lat="43.08937791686879" lon="12.861178300166456"><ele>904.0</ele><time>2026-04-18T13:45:48Z</time></trkpt><trkpt lat="43.08946065151783" lon="12.861223199878163"><ele>904.0000000000001</ele><time>2026-04-18T13:45:49Z</time></trkpt><trkpt lat="43.089537423184055" lon="12.861282654003725"><ele>904.0000000000001</ele><time>2026-04-18T13:45:50Z</time></trkpt><trkpt lat="43.089623403439624" lon="12.86136815105075"><ele>904.0</ele><time>2026-04-18T13:45:51Z</time></trkpt><trkpt lat="43.089721432953894" lon="12.861449726888223"><ele>904.0</ele><time>2026-04-18T13:45:52Z</time></trkpt><trkpt lat="43.08982816052977" lon="12.861541224063002"><ele>900.8000000000001</ele><time>2026-04-18T13:45:53Z</time></trkpt><trkpt lat="43.08993558472589" lon="12.861577336052184"><ele>897.6000000000001</ele><time>2026-04-18T13:45:54Z</time></trkpt><trkpt lat="43.09001836974307" lon="12.861607004304409"><ele>894.4</ele><time>2026-04-18T13:45:55Z</time></trkpt><trkpt lat="43.09009997719819" lon="12.861650469942811"><ele>891.2</ele><time>2026-04-18T13:45:56Z</time></trkpt><trkpt lat="43.090198789896384" lon="12.861694358174159"><ele>888.0</ele><time>2026-04-18T13:45:57Z</time></trkpt><trkpt lat="43.09029420456451" lon="12.86175157873573"><ele>890.2</ele><time>2026-04-18T13:45:58Z</time></trkpt><trkpt lat="43.090383288256234" lon="12.861821225182354"><ele>892.4</ele><time>2026-04-18T13:45:59Z</time></trkpt><trkpt lat="43.09048411434879" lon="12.86189550801593"><ele>894.6000000000001</ele><time>2026-04-18T13:46:00Z</time></trkpt><trkpt lat="43.09057920320166" lon="12.861961583463987"><ele>896.8000000000001</ele><time>2026-04-18T13:46:01Z</time></trkpt><trkpt lat="43.09069679980024" lon="12.862017494740934"><ele>899.0</ele><time>2026-04-18T13:46:02Z</time></trkpt><trkpt lat="43.0908095386066" lon="12.862062543326905"><ele>899.0</ele><time>2026-04-18T13:46:03Z</time></trkpt><trkpt lat="43.090928331712085" lon="12.862117694436844"><ele>899.0</ele><time>2026-04-18T13:46:04Z</time></trkpt><trkpt lat="43.09105071190685" lon="12.862177363894103"><ele>899.0</ele><time>2026-04-18T13:46:05Z</time></trkpt><trkpt lat="43.09115294891687" lon="12.862214447930215"><ele>899.0</ele><time>2026-04-18T13:46:06Z</time></trkpt><trkpt lat="43.09126643441625" lon="12.86223990717096"><ele>899.0</ele><time>2026-04-18T13:46:07Z</time></trkpt><trkpt lat="43.09135890542164" lon="12.862278220633538"><ele>899.0</ele><time>2026-04-18T13:46:08Z</time></trkpt><trkpt lat="43.091474707337895" lon="12.862336401266546"><ele>899.0</ele><time>2026-04-18T13:46:09Z</time></trkpt><trkpt lat="43.09159779184945" lon="12.862423665525224"><ele>899.0</ele><time>2026-04-18T13:46:10Z</time></trkpt><trkpt lat="43.09170882316199" lon="12.862493067583927"><ele>899.4000000000001</ele><time>2026-04-18T13:46:11Z</time></trkpt><trkpt lat="43.091811183647884" lon="12.862573523361258"><ele>899.8000000000001</ele><time>2026-04-18T13:46:12Z</time></trkpt><trkpt lat="43.09190485997142" lon="12.862660590943246"><ele>900.1999999999999</ele><time>2026-04-18T13:46:13Z</time></trkpt><trkpt lat="43.092001300867835" lon="12.862722976338176"><ele>900.5999999999999</ele><time>2026-04-18T13:46:14Z</time></trkpt><trkpt lat="43.092092750493734" lon="12.862774499143997"><ele>901.0</ele><time>2026-04-18T13:46:15Z</time></trkpt><trkpt lat="43.09218833432019" lon="12.862828121446901"><ele>901.0</ele><time>2026-04-18T13:46:16Z</time></trkpt><trkpt lat="43.09224805423391" lon="12.862868963040635"><ele>900.9999999999999</ele><time>2026-04-18T13:46:17Z</time></trkpt><trkpt lat="43.09230971348026" lon="12.8630035850212"><ele>900.9999999999999</ele><time>2026-04-18T13:46:19Z</time></trkpt><trkpt lat="43.092317907009615" lon="12.863106967286411"><ele>901.0</ele><time>2026-04-18T13:46:20Z</time></trkpt><trkpt lat="43.09234186637984" lon="12.863261695700027"><ele>901.0</ele><time>2026-04-18T13:46:21Z</time></trkpt><trkpt lat="43.09239059027322" lon="12.863477156708402"><ele>894.0</ele><time>2026-04-18T13:46:22Z</time></trkpt><trkpt lat="43.09245229896886" lon="12.863692504415798"><ele>887.0</ele><time>2026-04-18T13:46:23Z</time></trkpt><trkpt lat="43.09249960480964" lon="12.863860943510362"><ele>880.0</ele><time>2026-04-18T13:46:24Z</time></trkpt><trkpt lat="43.092554732984894" lon="12.864032400590267"><ele>873.0</ele><time>2026-04-18T13:46:25Z</time></trkpt><trkpt lat="43.09260091463049" lon="12.864195227395927"><ele>875.0</ele><time>2026-04-18T13:46:26Z</time></trkpt><trkpt lat="43.09265011132046" lon="12.864351176199161"><ele>877.0</ele><time>2026-04-18T13:46:27Z</time></trkpt><trkpt lat="43.09270281991926" lon="12.86449418334171"><ele>879.0</ele><time>2026-04-18T13:46:28Z</time></trkpt><trkpt lat="43.0927295288816" lon="12.864616743735592"><ele>881.0</ele><time>2026-04-18T13:46:29Z</time></trkpt><trkpt lat="43.09272697005678" lon="12.864737310316274"><ele>883.0</ele><time>2026-04-18T13:46:30Z</time></trkpt><trkpt lat="43.09270551289999" lon="12.864864876562406"><ele>883.0</ele><time>2026-04-18T13:46:31Z</time></trkpt><trkpt lat="43.09270950270207" lon="12.864998821926974"><ele>883.0</ele><time>2026-04-18T13:46:32Z</time></trkpt><trkpt lat="43.092712847407874" lon="12.865099387700019"><ele>883.0</ele><time>2026-04-18T13:46:33Z</time></trkpt><trkpt lat="43.09279011494555" lon="12.86526263617965"><ele>883.0</ele><time>2026-04-18T13:46:34Z</time></trkpt><trkpt lat="43.092816860234365" lon="12.865410182092178"><ele>883.0</ele><time>2026-04-18T13:46:36Z</time></trkpt><trkpt lat="43.092898110910845" lon="12.865532867642694"><ele>883.5</ele><time>2026-04-18T13:46:37Z</time></trkpt><trkpt lat="43.09298865773018" lon="12.865685258191617"><ele>884.0</ele><time>2026-04-18T13:46:38Z</time></trkpt><trkpt lat="43.093051970067464" lon="12.865812885168715"><ele>884.5</ele><time>2026-04-18T13:46:39Z</time></trkpt><trkpt lat="43.09311692672352" lon="12.86593889974815"><ele>885.0</ele><time>2026-04-18T13:46:40Z</time></trkpt><trkpt lat="43.09320687169634" lon="12.866057935608925"><ele>887.2</ele><time>2026-04-18T13:46:41Z</time></trkpt><trkpt lat="43.093279645029156" lon="12.866074090032942"><ele>889.4</ele><time>2026-04-18T13:46:42Z</time></trkpt><trkpt lat="43.093363188124776" lon="12.866062605565467"><ele>891.5999999999999</ele><time>2026-04-18T13:46:43Z</time></trkpt><trkpt lat="43.09347394435609" lon="12.86603972413092"><ele>893.8</ele><time>2026-04-18T13:46:44Z</time></trkpt><trkpt lat="43.09360944661433" lon="12.86598877953191"><ele>896.0</ele><time>2026-04-18T13:46:45Z</time></trkpt><trkpt lat="43.09372069442422" lon="12.8659351771823"><ele>893.25</ele><time>2026-04-18T13:46:46Z</time></trkpt><trkpt lat="43.09382879578179" lon="12.865898627603743"><ele>890.5</ele><time>2026-04-18T13:46:47Z</time></trkpt><trkpt lat="43.09394681487142" lon="12.86586261624116"><ele>887.75</ele><time>2026-04-18T13:46:48Z</time></trkpt><trkpt lat="43.09407018285244" lon="12.86584815168824"><ele>885.0</ele><time>2026-04-18T13:46:49Z</time></trkpt><trkpt lat="43.09417153681957" lon="12.865852358924553"><ele>885.0</ele><time>2026-04-18T13:46:50Z</time></trkpt><trkpt lat="43.09427064630463" lon="12.865849540141186"><ele>885.0</ele><time>2026-04-18T13:46:51Z</time></trkpt><trkpt lat="43.094345100203185" lon="12.865857384867146"><ele>885.0</ele><time>2026-04-18T13:46:52Z</time></trkpt><trkpt lat="43.094435018995895" lon="12.865883546754295"><ele>885.0</ele><time>2026-04-18T13:46:53Z</time></trkpt><trkpt lat="43.09452586177926" lon="12.865880155292066"><ele>885.0</ele><time>2026-04-18T13:46:54Z</time></trkpt><trkpt lat="43.09460621850608" lon="12.865843640616548"><ele>885.0</ele><time>2026-04-18T13:46:55Z</time></trkpt><trkpt lat="43.09467521186343" lon="12.865751911206997"><ele>885.0</ele><time>2026-04-18T13:46:56Z</time></trkpt><trkpt lat="43.09472639462087" lon="12.865637752923714"><ele>885.0</ele><time>2026-04-18T13:46:57Z</time></trkpt><trkpt lat="43.09476962467183" lon="12.865530315362337"><ele>885.0</ele><time>2026-04-18T13:46:58Z</time></trkpt><trkpt lat="43.09488428097817" lon="12.865463155657505"><ele>885.0</ele><time>2026-04-18T13:47:00Z</time></trkpt><trkpt lat="43.09495830461019" lon="12.865458189368745"><ele>885.0</ele><time>2026-04-18T13:47:01Z</time></trkpt><trkpt lat="43.09503260440384" lon="12.865498079167887"><ele>889.6</ele><time>2026-04-18T13:47:04Z</time></trkpt><trkpt lat="43.09503845784184" lon="12.865594337526426"><ele>894.2</ele><time>2026-04-18T13:47:06Z</time></trkpt><trkpt lat="43.09511329690217" lon="12.865601150225823"><ele>898.8</ele><time>2026-04-18T13:47:09Z</time></trkpt><trkpt lat="43.095218604745355" lon="12.865609714877488"><ele>903.4</ele><time>2026-04-18T13:47:12Z</time></trkpt><trkpt lat="43.09528135776503" lon="12.865635345444538"><ele>908.0</ele><time>2026-04-18T13:47:13Z</time></trkpt><trkpt lat="43.09541468447938" lon="12.865608997351307"><ele>908.0000000000001</ele><time>2026-04-18T13:47:15Z</time></trkpt><trkpt lat="43.095485422534544" lon="12.865591639615507"><ele>908.0</ele><time>2026-04-18T13:47:15.999Z</time></trkpt><trkpt lat="43.09558298073902" lon="12.865615372584935"><ele>908.0</ele><time>2026-04-18T13:47:17.999Z</time></trkpt><trkpt lat="43.09565140702886" lon="12.865630612295254"><ele>908.0</ele><time>2026-04-18T13:47:18.999Z</time></trkpt><trkpt lat="43.095744466653244" lon="12.865607103459466"><ele>908.0000000000001</ele><time>2026-04-18T13:47:19.999Z</time></trkpt><trkpt lat="43.095836553137396" lon="12.865602789254659"><ele>908.0</ele><time>2026-04-18T13:47:20.999Z</time></trkpt><trkpt lat="43.09592407573837" lon="12.865574924123028"><ele>911.6666666666667</ele><time>2026-04-18T13:47:21.999Z</time></trkpt><trkpt lat="43.09599499699108" lon="12.865534598465924"><ele>915.3333333333334</ele><time>2026-04-18T13:47:22.999Z</time></trkpt><trkpt lat="43.09607477614252" lon="12.865476304190812"><ele>919.0</ele><time>2026-04-18T13:47:23.999Z</time></trkpt><trkpt lat="43.0961518837608" lon="12.86544787291568"><ele>922.6666666666667</ele><time>2026-04-18T13:47:24.999Z</time></trkpt><trkpt lat="43.09623724838612" lon="12.865411761503978"><ele>926.3333333333334</ele><time>2026-04-18T13:47:25.999Z</time></trkpt><trkpt lat="43.09632289113571" lon="12.86540030284812"><ele>930.0</ele><time>2026-04-18T13:47:26.999Z</time></trkpt><trkpt lat="43.0963987312111" lon="12.865396246058195"><ele>930.0</ele><time>2026-04-18T13:47:27.999Z</time></trkpt><trkpt lat="43.0964667937319" lon="12.86538053418714"><ele>930.0</ele><time>2026-04-18T13:47:28.999Z</time></trkpt><trkpt lat="43.09653746988378" lon="12.865331827533097"><ele>930.0</ele><time>2026-04-18T13:47:29.999Z</time></trkpt><trkpt lat="43.0966313018444" lon="12.865305936239766"><ele>930.0</ele><time>2026-04-18T13:47:30.999Z</time></trkpt><trkpt lat="43.0967268855054" lon="12.865286148815807"><ele>930.0</ele><time>2026-04-18T13:47:31.998Z</time></trkpt><trkpt lat="43.09682435384573" lon="12.865244358997272"><ele>930.0</ele><time>2026-04-18T13:47:32.998Z</time></trkpt><trkpt lat="43.09692554416174" lon="12.865193850859441"><ele>929.0</ele><time>2026-04-18T13:47:33.998Z</time></trkpt><trkpt lat="43.09703170961499" lon="12.865152439701625"><ele>928.0</ele><time>2026-04-18T13:47:34.998Z</time></trkpt><trkpt lat="43.097115527816754" lon="12.865108045821623"><ele>927.0</ele><time>2026-04-18T13:47:35.998Z</time></trkpt><trkpt lat="43.09720930757471" lon="12.865085158421815"><ele>926.0</ele><time>2026-04-18T13:47:36.998Z</time></trkpt><trkpt lat="43.097321976315534" lon="12.865075667154207"><ele>925.0</ele><time>2026-04-18T13:47:37.998Z</time></trkpt><trkpt lat="43.09744391265331" lon="12.86505301006125"><ele>925.0</ele><time>2026-04-18T13:47:38.998Z</time></trkpt><trkpt lat="43.09756394771005" lon="12.86503418045999"><ele>925.0</ele><time>2026-04-18T13:47:39.998Z</time></trkpt><trkpt lat="43.09770436752344" lon="12.865017756690987"><ele>925.0</ele><time>2026-04-18T13:47:40.998Z</time></trkpt><trkpt lat="43.097849605464056" lon="12.865015319357639"><ele>925.0</ele><time>2026-04-18T13:47:41.998Z</time></trkpt><trkpt lat="43.09799807352493" lon="12.865023267511368"><ele>925.0</ele><time>2026-04-18T13:47:42.998Z</time></trkpt><trkpt lat="43.098138088709966" lon="12.865000679177994"><ele>925.0</ele><time>2026-04-18T13:47:43.998Z</time></trkpt><trkpt lat="43.09826943246374" lon="12.86496021478653"><ele>925.0</ele><time>2026-04-18T13:47:44.998Z</time></trkpt><trkpt lat="43.09840113753565" lon="12.864905310698322"><ele>925.0</ele><time>2026-04-18T13:47:45.999Z</time></trkpt><trkpt lat="43.09854072018874" lon="12.864852705424052"><ele>926.5</ele><time>2026-04-18T13:47:46.999Z</time></trkpt><trkpt lat="43.09867427841053" lon="12.864797784699393"><ele>928.0</ele><time>2026-04-18T13:47:47.999Z</time></trkpt><trkpt lat="43.09880320625642" lon="12.864759632545399"><ele>929.5</ele><time>2026-04-18T13:47:48.999Z</time></trkpt><trkpt lat="43.09893170840446" lon="12.864720966984846"><ele>931.0</ele><time>2026-04-18T13:47:49.999Z</time></trkpt><trkpt lat="43.09905736642906" lon="12.864700401262805"><ele>932.0</ele><time>2026-04-18T13:47:50.999Z</time></trkpt><trkpt lat="43.099175079997146" lon="12.86467389518666"><ele>932.9999999999999</ele><time>2026-04-18T13:47:51.999Z</time></trkpt><trkpt lat="43.099282474844614" lon="12.864657604640975"><ele>933.9999999999999</ele><time>2026-04-18T13:47:52.999Z</time></trkpt><trkpt lat="43.09938064600121" lon="12.864666041506547"><ele>935.0</ele><time>2026-04-18T13:47:53.999Z</time></trkpt><trkpt lat="43.09945493027478" lon="12.864674535449948"><ele>936.0</ele><time>2026-04-18T13:47:54.999Z</time></trkpt><trkpt lat="43.099532384234614" lon="12.86466257039662"><ele>936.0</ele><time>2026-04-18T13:47:55.999Z</time></trkpt><trkpt lat="43.099625068037824" lon="12.864642409550568"><ele>936.0</ele><time>2026-04-18T13:47:56.999Z</time></trkpt><trkpt lat="43.09972402066727" lon="12.864649546476763"><ele>936.0</ele><time>2026-04-18T13:47:57.999Z</time></trkpt><trkpt lat="43.099801061949634" lon="12.864656315721245"><ele>936.0</ele><time>2026-04-18T13:47:58.999Z</time></trkpt><trkpt lat="43.09988061061886" lon="12.86465311590497"><ele>936.0</ele><time>2026-04-18T13:47:59.999Z</time></trkpt><trkpt lat="43.099963340325324" lon="12.86466923986449"><ele>936.0</ele><time>2026-04-18T13:48:00.999Z</time></trkpt><trkpt lat="43.10005200332853" lon="12.864709428767542"><ele>936.1999999999999</ele><time>2026-04-18T13:48:01.999Z</time></trkpt><trkpt lat="43.10013176781739" lon="12.864750315994277"><ele>936.3999999999999</ele><time>2026-04-18T13:48:02.999Z</time></trkpt><trkpt lat="43.10021496737035" lon="12.864765054651988"><ele>936.6</ele><time>2026-04-18T13:48:03.999Z</time></trkpt><trkpt lat="43.10030926410806" lon="12.86477525108062"><ele>936.8</ele><time>2026-04-18T13:48:04.999Z</time></trkpt><trkpt lat="43.10039737780647" lon="12.8648062471175"><ele>937.0</ele><time>2026-04-18T13:48:05.999Z</time></trkpt><trkpt lat="43.10048844337115" lon="12.864869338798313"><ele>937.0</ele><time>2026-04-18T13:48:06.999Z</time></trkpt><trkpt lat="43.1005506296265" lon="12.864951229227977"><ele>937.0</ele><time>2026-04-18T13:48:07.999Z</time></trkpt><trkpt lat="43.10062375231506" lon="12.865001425270865"><ele>937.0</ele><time>2026-04-18T13:48:08.999Z</time></trkpt><trkpt lat="43.10071722544289" lon="12.865032646511983"><ele>937.0</ele><time>2026-04-18T13:48:09.999Z</time></trkpt><trkpt lat="43.10083807515252" lon="12.865045838291694"><ele>937.0</ele><time>2026-04-18T13:48:10.999Z</time></trkpt><trkpt lat="43.100944056401204" lon="12.865082650124702"><ele>940.8</ele><time>2026-04-18T13:48:11.999Z</time></trkpt><trkpt lat="43.10104603131373" lon="12.865140652942479"><ele>944.6</ele><time>2026-04-18T13:48:12.999Z</time></trkpt><trkpt lat="43.101124242308664" lon="12.86517491321338"><ele>948.3999999999999</ele><time>2026-04-18T13:48:13.999Z</time></trkpt><trkpt lat="43.10120757173327" lon="12.86518546489917"><ele>952.1999999999999</ele><time>2026-04-18T13:48:14.999Z</time></trkpt><trkpt lat="43.101309592544155" lon="12.86521349780426"><ele>956.0</ele><time>2026-04-18T13:48:15.999Z</time></trkpt><trkpt lat="43.101422348772864" lon="12.865260580912025"><ele>956.0</ele><time>2026-04-18T13:48:16.999Z</time></trkpt><trkpt lat="43.10155297541054" lon="12.865291521221545"><ele>956.0</ele><time>2026-04-18T13:48:17.999Z</time></trkpt><trkpt lat="43.101678730481744" lon="12.865317404012224"><ele>956.0</ele><time>2026-04-18T13:48:18.999Z</time></trkpt><trkpt lat="43.1017854585212" lon="12.865352202480645"><ele>956.0</ele><time>2026-04-18T13:48:19.999Z</time></trkpt><trkpt lat="43.10188202947252" lon="12.865399926635446"><ele>953.5000000000001</ele><time>2026-04-18T13:48:20.999Z</time></trkpt><trkpt lat="43.10196035429493" lon="12.865460069038768"><ele>951.0</ele><time>2026-04-18T13:48:21.999Z</time></trkpt><trkpt lat="43.102034250950894" lon="12.865529891146293"><ele>948.5</ele><time>2026-04-18T13:48:22.999Z</time></trkpt><trkpt lat="43.102120025336866" lon="12.86559723078434"><ele>946.0</ele><time>2026-04-18T13:48:23.999Z</time></trkpt><trkpt lat="43.10216104116865" lon="12.865663541736293"><ele>943.5000000000001</ele><time>2026-04-18T13:48:24.999Z</time></trkpt><trkpt lat="43.10220884167513" lon="12.865760245027229"><ele>941.0</ele><time>2026-04-18T13:48:26.999Z</time></trkpt><trkpt lat="43.102362831428884" lon="12.865778327376113"><ele>938.6666666666667</ele><time>2026-04-18T13:48:28.999Z</time></trkpt><trkpt lat="43.10245000356686" lon="12.86575972323709"><ele>936.3333333333334</ele><time>2026-04-18T13:48:29.999Z</time></trkpt><trkpt lat="43.10252331502374" lon="12.865739567477872"><ele>934.0</ele><time>2026-04-18T13:48:30.999Z</time></trkpt><trkpt lat="43.10260285982478" lon="12.86572993887507"><ele>931.6666666666667</ele><time>2026-04-18T13:48:31.999Z</time></trkpt><trkpt lat="43.102695101231895" lon="12.865731187483036"><ele>929.3333333333334</ele><time>2026-04-18T13:48:32.999Z</time></trkpt><trkpt lat="43.10279935457991" lon="12.865739424600388"><ele>927.0</ele><time>2026-04-18T13:48:33.999Z</time></trkpt><trkpt lat="43.102916052869766" lon="12.86576207541979"><ele>927.0</ele><time>2026-04-18T13:48:34.999Z</time></trkpt><trkpt lat="43.10303451192651" lon="12.865778181514832"><ele>927.0</ele><time>2026-04-18T13:48:35.999Z</time></trkpt><trkpt lat="43.10315288611337" lon="12.865793478158963"><ele>927.0</ele><time>2026-04-18T13:48:36.999Z</time></trkpt><trkpt lat="43.10326065320549" lon="12.865833258147578"><ele>927.0</ele><time>2026-04-18T13:48:37.999Z</time></trkpt><trkpt lat="43.10333108157827" lon="12.865883071701143"><ele>927.0</ele><time>2026-04-18T13:48:38.999Z</time></trkpt><trkpt lat="43.103401807751716" lon="12.865919611724358"><ele>930.1666666666666</ele><time>2026-04-18T13:48:40.999Z</time></trkpt><trkpt lat="43.1034631434116" lon="12.866021110995185"><ele>933.3333333333333</ele><time>2026-04-18T13:48:43.999Z</time></trkpt><trkpt lat="43.103522635823396" lon="12.86611972796133"><ele>936.5</ele><time>2026-04-18T13:48:45.999Z</time></trkpt><trkpt lat="43.10358347374727" lon="12.866150203252655"><ele>939.6666666666666</ele><time>2026-04-18T13:48:46.999Z</time></trkpt><trkpt lat="43.10366942719032" lon="12.866183297533544"><ele>942.8333333333333</ele><time>2026-04-18T13:48:48.999Z</time></trkpt><trkpt lat="43.10374071953947" lon="12.86619931088636"><ele>946.0</ele><time>2026-04-18T13:48:50.999Z</time></trkpt><trkpt lat="43.10385782385169" lon="12.866207210477532"><ele>946.0</ele><time>2026-04-18T13:48:53.999Z</time></trkpt><trkpt lat="43.10396713507668" lon="12.86620604281787"><ele>945.9999999999999</ele><time>2026-04-18T13:48:55.999Z</time></trkpt><trkpt lat="43.104052636326465" lon="12.866240647017886"><ele>945.9999999999999</ele><time>2026-04-18T13:48:57.999Z</time></trkpt><trkpt lat="43.10413802617699" lon="12.866244130814156"><ele>946.0</ele><time>2026-04-18T13:48:59.999Z</time></trkpt><trkpt lat="43.10421727570095" lon="12.866313732724764"><ele>946.0</ele><time>2026-04-18T13:49:02.999Z</time></trkpt><trkpt lat="43.10429668787494" lon="12.866318525029016"><ele>945.4</ele><time>2026-04-18T13:49:04.999Z</time></trkpt><trkpt lat="43.10436087352682" lon="12.86641774879107"><ele>944.8</ele><time>2026-04-18T13:49:07.999Z</time></trkpt><trkpt lat="43.104444725339306" lon="12.866447976029473"><ele>944.1999999999999</ele><time>2026-04-18T13:49:09.999Z</time></trkpt><trkpt lat="43.104488088873794" lon="12.866380920822207"><ele>943.5999999999999</ele><time>2026-04-18T13:49:10.999Z</time></trkpt><trkpt lat="43.10464678788221" lon="12.866363351181606"><ele>943.0</ele><time>2026-04-18T13:49:12.999Z</time></trkpt><trkpt lat="43.10471535324846" lon="12.86632225161104"><ele>942.9999999999999</ele><time>2026-04-18T13:49:13.999Z</time></trkpt><trkpt lat="43.10483368089755" lon="12.866312845375178"><ele>943.0</ele><time>2026-04-18T13:49:15.999Z</time></trkpt><trkpt lat="43.10490595541823" lon="12.86633835802151"><ele>943.0</ele><time>2026-04-18T13:49:16.999Z</time></trkpt><trkpt lat="43.1049594769872" lon="12.866386695505533"><ele>943.0</ele><time>2026-04-18T13:49:17.999Z</time></trkpt><trkpt lat="43.105005214313735" lon="12.86644824923831"><ele>942.9999999999999</ele><time>2026-04-18T13:49:18.999Z</time></trkpt><trkpt lat="43.10509719591892" lon="12.866479472154126"><ele>943.0</ele><time>2026-04-18T13:49:19.999Z</time></trkpt><trkpt lat="43.10518750059368" lon="12.866505480357128"><ele>944.5999999999999</ele><time>2026-04-18T13:49:20.999Z</time></trkpt><trkpt lat="43.10531207230396" lon="12.866573173292261"><ele>946.1999999999999</ele><time>2026-04-18T13:49:22.999Z</time></trkpt><trkpt lat="43.105375024922374" lon="12.866622500073886"><ele>947.8</ele><time>2026-04-18T13:49:23.999Z</time></trkpt><trkpt lat="43.10545188028811" lon="12.866678432187951"><ele>949.4</ele><time>2026-04-18T13:49:24.999Z</time></trkpt><trkpt lat="43.10553621937334" lon="12.86672891506831"><ele>951.0</ele><time>2026-04-18T13:49:25.999Z</time></trkpt><trkpt lat="43.10562672091493" lon="12.866766812732058"><ele>957.0</ele><time>2026-04-18T13:49:26.999Z</time></trkpt><trkpt lat="43.10572310161851" lon="12.866818738690325"><ele>962.9999999999999</ele><time>2026-04-18T13:49:27.999Z</time></trkpt><trkpt lat="43.105801265457686" lon="12.866912482175"><ele>968.9999999999999</ele><time>2026-04-18T13:49:28.999Z</time></trkpt><trkpt lat="43.10586823631729" lon="12.866977971956423"><ele>975.0</ele><time>2026-04-18T13:49:29.999Z</time></trkpt><trkpt lat="43.105947215427804" lon="12.866994660604126"><ele>981.0</ele><time>2026-04-18T13:49:31.999Z</time></trkpt><trkpt lat="43.1060663265581" lon="12.866952190115937"><ele>984.0</ele><time>2026-04-18T13:49:33.999Z</time></trkpt><trkpt lat="43.106135559564734" lon="12.866936261990103"><ele>987.0</ele><time>2026-04-18T13:49:34.999Z</time></trkpt><trkpt lat="43.10620930788748" lon="12.866929369010121"><ele>990.0</ele><time>2026-04-18T13:49:35.999Z</time></trkpt><trkpt lat="43.10629788714133" lon="12.866957653385153"><ele>993.0</ele><time>2026-04-18T13:49:37.999Z</time></trkpt><trkpt lat="43.10635637152795" lon="12.867000066493233"><ele>996.0</ele><time>2026-04-18T13:49:39.999Z</time></trkpt><trkpt lat="43.10642331643654" lon="12.867056828895688"><ele>999.0</ele><time>2026-04-18T13:49:41.999Z</time></trkpt><trkpt lat="43.106495946711675" lon="12.867027847307261"><ele>999.0</ele><time>2026-04-18T13:49:44.999Z</time></trkpt><trkpt lat="43.10649673078364" lon="12.866908277501055"><ele>999.0000000000001</ele><time>2026-04-18T13:49:46.998Z</time></trkpt><trkpt lat="43.10652260758396" lon="12.866815844910352"><ele>999.0000000000001</ele><time>2026-04-18T13:49:47.998Z</time></trkpt><trkpt lat="43.10662442081125" lon="12.866730424875733"><ele>999.0</ele><time>2026-04-18T13:49:49.998Z</time></trkpt><trkpt lat="43.106702208964805" lon="12.86662051250159"><ele>999.0</ele><time>2026-04-18T13:49:50.998Z</time></trkpt><trkpt lat="43.106776197667" lon="12.86649376393081"><ele>997.0</ele><time>2026-04-18T13:49:52Z</time></trkpt><trkpt lat="43.10685174881338" lon="12.866345400425217"><ele>995.0</ele><time>2026-04-18T13:49:53Z</time></trkpt><trkpt lat="43.106908570950765" lon="12.866207729484723"><ele>993.0</ele><time>2026-04-18T13:49:54Z</time></trkpt><trkpt lat="43.10695825365924" lon="12.866064412007752"><ele>991.0</ele><time>2026-04-18T13:49:55Z</time></trkpt><trkpt lat="43.10699541835597" lon="12.865951335135467"><ele>990.9999999999999</ele><time>2026-04-18T13:49:56Z</time></trkpt><trkpt lat="43.10703949257635" lon="12.865886836977689"><ele>991.0</ele><time>2026-04-18T13:49:57Z</time></trkpt><trkpt lat="43.10714664840122" lon="12.86588214930141"><ele>991.0</ele><time>2026-04-18T13:49:59Z</time></trkpt><trkpt lat="43.1072489139438" lon="12.865901625541868"><ele>991.0</ele><time>2026-04-18T13:50:01Z</time></trkpt><trkpt lat="43.10730246315052" lon="12.865953306932058"><ele>990.9999999999999</ele><time>2026-04-18T13:50:02Z</time></trkpt><trkpt lat="43.10734157171972" lon="12.86603299666182"><ele>991.0</ele><time>2026-04-18T13:50:03Z</time></trkpt><trkpt lat="43.10733063058464" lon="12.866207994121602"><ele>991.0</ele><time>2026-04-18T13:50:05Z</time></trkpt><trkpt lat="43.10736907537899" lon="12.866369212458055"><ele>990.9999999999999</ele><time>2026-04-18T13:50:07Z</time></trkpt><trkpt lat="43.107395801191096" lon="12.86648261377012"><ele>990.9999999999999</ele><time>2026-04-18T13:50:08Z</time></trkpt><trkpt lat="43.10741946343075" lon="12.866597052535614"><ele>991.0</ele><time>2026-04-18T13:50:09Z</time></trkpt><trkpt lat="43.107441627397115" lon="12.8667125466762"><ele>991.0</ele><time>2026-04-18T13:50:10Z</time></trkpt><trkpt lat="43.10746948947809" lon="12.866812449800435"><ele>1000.5999999999999</ele><time>2026-04-18T13:50:11Z</time></trkpt><trkpt lat="43.10750972965033" lon="12.866903117718676"><ele>1010.1999999999999</ele><time>2026-04-18T13:50:12Z</time></trkpt><trkpt lat="43.10758523832248" lon="12.867023657002779"><ele>1019.8000000000001</ele><time>2026-04-18T13:50:13Z</time></trkpt><trkpt lat="43.10763442397518" lon="12.867139327342715"><ele>1029.4</ele><time>2026-04-18T13:50:14Z</time></trkpt><trkpt lat="43.107667371409704" lon="12.867252693216964"><ele>1039.0</ele><time>2026-04-18T13:50:14.999Z</time></trkpt><trkpt lat="43.107692712521946" lon="12.86734889395567"><ele>1039.0</ele><time>2026-04-18T13:50:15.999Z</time></trkpt><trkpt lat="43.10774452855334" lon="12.867418797447696"><ele>1039.0</ele><time>2026-04-18T13:50:17.999Z</time></trkpt><trkpt lat="43.10780736918954" lon="12.867470024610318"><ele>1039.0</ele><time>2026-04-18T13:50:19.999Z</time></trkpt><trkpt lat="43.1078888927006" lon="12.867465223763004"><ele>1039.0</ele><time>2026-04-18T13:50:21.999Z</time></trkpt><trkpt lat="43.10800353747281" lon="12.867458472457882"><ele>1039.0</ele><time>2026-04-18T13:50:23.999Z</time></trkpt><trkpt lat="43.10806778869814" lon="12.867457537885732"><ele>1039.0</ele><time>2026-04-18T13:50:24.999Z</time></trkpt><trkpt lat="43.10815349298459" lon="12.867456681459606"><ele>1039.25</ele><time>2026-04-18T13:50:25.999Z</time></trkpt><trkpt lat="43.10825361906904" lon="12.867461258159954"><ele>1039.5</ele><time>2026-04-18T13:50:26.999Z</time></trkpt><trkpt lat="43.108377419311246" lon="12.867467303166501"><ele>1039.75</ele><time>2026-04-18T13:50:27.999Z</time></trkpt><trkpt lat="43.10851450358753" lon="12.867475476924488"><ele>1040.0</ele><time>2026-04-18T13:50:28.999Z</time></trkpt><trkpt lat="43.10866723490891" lon="12.867485327756503"><ele>1040.0</ele><time>2026-04-18T13:50:29.999Z</time></trkpt><trkpt lat="43.10882261763839" lon="12.867501834234977"><ele>1040.0</ele><time>2026-04-18T13:50:30.999Z</time></trkpt><trkpt lat="43.10896589064459" lon="12.86751927491704"><ele>1040.0</ele><time>2026-04-18T13:50:31.999Z</time></trkpt><trkpt lat="43.10910581300013" lon="12.867518618099616"><ele>1040.0</ele><time>2026-04-18T13:50:32.999Z</time></trkpt><trkpt lat="43.109241870097776" lon="12.867556099689123"><ele>1044.25</ele><time>2026-04-18T13:50:33.999Z</time></trkpt><trkpt lat="43.10937387450682" lon="12.86761274802024"><ele>1048.5</ele><time>2026-04-18T13:50:34.999Z</time></trkpt><trkpt lat="43.10951573133423" lon="12.867689849849684"><ele>1052.75</ele><time>2026-04-18T13:50:35.999Z</time></trkpt><trkpt lat="43.109651208013936" lon="12.867779274120231"><ele>1057.0</ele><time>2026-04-18T13:50:36.999Z</time></trkpt><trkpt lat="43.10978704620378" lon="12.86787258137111"><ele>1057.0</ele><time>2026-04-18T13:50:37.999Z</time></trkpt><trkpt lat="43.10990140375679" lon="12.867997364055283"><ele>1057.0</ele><time>2026-04-18T13:50:38.999Z</time></trkpt><trkpt lat="43.11000934262267" lon="12.868108673915449"><ele>1057.0</ele><time>2026-04-18T13:50:39.999Z</time></trkpt><trkpt lat="43.11010472068676" lon="12.868212150678914"><ele>1057.0</ele><time>2026-04-18T13:50:40.999Z</time></trkpt><trkpt lat="43.11016981399739" lon="12.868314222783274"><ele>1056.8333333333333</ele><time>2026-04-18T13:50:41.999Z</time></trkpt><trkpt lat="43.110231413240676" lon="12.868410029286661"><ele>1056.6666666666665</ele><time>2026-04-18T13:50:42.999Z</time></trkpt><trkpt lat="43.11030410432181" lon="12.868476666939195"><ele>1056.5</ele><time>2026-04-18T13:50:43.999Z</time></trkpt><trkpt lat="43.11037345291972" lon="12.868534459926176"><ele>1056.3333333333333</ele><time>2026-04-18T13:50:44.999Z</time></trkpt><trkpt lat="43.11044920032922" lon="12.868584986230621"><ele>1056.1666666666667</ele><time>2026-04-18T13:50:45.999Z</time></trkpt><trkpt lat="43.11054153969505" lon="12.868541313805768"><ele>1056.0</ele><time>2026-04-18T13:50:46.999Z</time></trkpt><trkpt lat="43.11061731028677" lon="12.868565532100163"><ele>1056.0</ele><time>2026-04-18T13:50:47.999Z</time></trkpt><trkpt lat="43.1106803629636" lon="12.86884979940429"><ele>1056.0</ele><time>2026-04-18T13:50:48.999Z</time></trkpt><trkpt lat="43.11077542768623" lon="12.868945185193718"><ele>1056.0</ele><time>2026-04-18T13:50:49.999Z</time></trkpt><trkpt lat="43.11086349934232" lon="12.86903711180178"><ele>1056.0</ele><time>2026-04-18T13:50:50.999Z</time></trkpt><trkpt lat="43.11084932336547" lon="12.869369251674012"><ele>1050.75</ele><time>2026-04-18T13:50:51.999Z</time></trkpt><trkpt lat="43.1109164629754" lon="12.869522610150206"><ele>1045.5</ele><time>2026-04-18T13:50:52.999Z</time></trkpt><trkpt lat="43.11097535432643" lon="12.869686863189566"><ele>1040.25</ele><time>2026-04-18T13:50:53.999Z</time></trkpt><trkpt lat="43.11102888988988" lon="12.86986444008367"><ele>1035.0</ele><time>2026-04-18T13:50:54.999Z</time></trkpt><trkpt lat="43.11107701410026" lon="12.870047677615933"><ele>1038.25</ele><time>2026-04-18T13:50:55.999Z</time></trkpt><trkpt lat="43.11112716762931" lon="12.870231188663988"><ele>1041.5</ele><time>2026-04-18T13:50:56.999Z</time></trkpt><trkpt lat="43.111180261762776" lon="12.870427818053843"><ele>1044.75</ele><time>2026-04-18T13:50:57.999Z</time></trkpt><trkpt lat="43.11122900429096" lon="12.870604153122619"><ele>1048.0</ele><time>2026-04-18T13:50:58.999Z</time></trkpt><trkpt lat="43.111265741862724" lon="12.870754618396608"><ele>1048.0</ele><time>2026-04-18T13:50:59.999Z</time></trkpt><trkpt lat="43.11128642131406" lon="12.870887604870644"><ele>1048.0</ele><time>2026-04-18T13:51:00.999Z</time></trkpt><trkpt lat="43.111277641822056" lon="12.871034504577393"><ele>1048.0</ele><time>2026-04-18T13:51:01.999Z</time></trkpt><trkpt lat="43.11123677660165" lon="12.871204997983218"><ele>1048.0</ele><time>2026-04-18T13:51:02.999Z</time></trkpt><trkpt lat="43.11120198582731" lon="12.871388051546377"><ele>1048.6</ele><time>2026-04-18T13:51:03.999Z</time></trkpt><trkpt lat="43.11118211124279" lon="12.871560209659206"><ele>1049.1999999999998</ele><time>2026-04-18T13:51:04.999Z</time></trkpt><trkpt lat="43.11117773237293" lon="12.871707483340305"><ele>1049.8</ele><time>2026-04-18T13:51:05.999Z</time></trkpt><trkpt lat="43.11116702131971" lon="12.871852421567954"><ele>1050.3999999999999</ele><time>2026-04-18T13:51:06.999Z</time></trkpt><trkpt lat="43.111144960772975" lon="12.87194843687202"><ele>1051.0</ele><time>2026-04-18T13:51:07.999Z</time></trkpt><trkpt lat="43.111110777353254" lon="12.872067509378686"><ele>1049.0</ele><time>2026-04-18T13:51:08.999Z</time></trkpt><trkpt lat="43.11112013122207" lon="12.872153033963425"><ele>1047.0</ele><time>2026-04-18T13:51:09.999Z</time></trkpt><trkpt lat="43.11122184483614" lon="12.872278717907456"><ele>1045.0</ele><time>2026-04-18T13:51:11.999Z</time></trkpt><trkpt lat="43.11131162583272" lon="12.872342000086288"><ele>1043.0</ele><time>2026-04-18T13:51:12.999Z</time></trkpt><trkpt lat="43.11141413678993" lon="12.872437233195495"><ele>1041.0</ele><time>2026-04-18T13:51:13.999Z</time></trkpt><trkpt lat="43.11150459573178" lon="12.872553579409997"><ele>1039.5</ele><time>2026-04-18T13:51:14.999Z</time></trkpt><trkpt lat="43.111587240829714" lon="12.872685945200658"><ele>1038.0</ele><time>2026-04-18T13:51:15.999Z</time></trkpt><trkpt lat="43.11166360585563" lon="12.87284258719202"><ele>1036.5</ele><time>2026-04-18T13:51:16.999Z</time></trkpt><trkpt lat="43.11173311256825" lon="12.873027339970257"><ele>1035.0</ele><time>2026-04-18T13:51:17.999Z</time></trkpt><trkpt lat="43.11178866525899" lon="12.87323034827118"><ele>1040.0</ele><time>2026-04-18T13:51:18.999Z</time></trkpt><trkpt lat="43.111840306692216" lon="12.873449232481988"><ele>1045.0</ele><time>2026-04-18T13:51:19.999Z</time></trkpt><trkpt lat="43.11188830131245" lon="12.873659272600726"><ele>1050.0</ele><time>2026-04-18T13:51:20.999Z</time></trkpt><trkpt lat="43.11193902134971" lon="12.873844898093186"><ele>1050.0</ele><time>2026-04-18T13:51:21.999Z</time></trkpt><trkpt lat="43.11198978799658" lon="12.874020203182582"><ele>1050.0</ele><time>2026-04-18T13:51:22.999Z</time></trkpt><trkpt lat="43.112042610011116" lon="12.874219944601176"><ele>1050.0</ele><time>2026-04-18T13:51:23.999Z</time></trkpt><trkpt lat="43.11211326275523" lon="12.87442672095358"><ele>1059.6666666666667</ele><time>2026-04-18T13:51:24.999Z</time></trkpt><trkpt lat="43.112189133067005" lon="12.874626272520134"><ele>1069.3333333333335</ele><time>2026-04-18T13:51:25.999Z</time></trkpt><trkpt lat="43.11225148045771" lon="12.874813463966843"><ele>1079.0</ele><time>2026-04-18T13:51:26.999Z</time></trkpt><trkpt lat="43.112320763518056" lon="12.875019543581903"><ele>1078.75</ele><time>2026-04-18T13:51:27.999Z</time></trkpt><trkpt lat="43.11239115969584" lon="12.875203807926033"><ele>1078.5</ele><time>2026-04-18T13:51:28.999Z</time></trkpt><trkpt lat="43.11244923490707" lon="12.87540136314072"><ele>1078.25</ele><time>2026-04-18T13:51:29.999Z</time></trkpt><trkpt lat="43.11250905679574" lon="12.875576569890667"><ele>1078.0</ele><time>2026-04-18T13:51:30.999Z</time></trkpt><trkpt lat="43.11257829259276" lon="12.87574088539365"><ele>1078.0</ele><time>2026-04-18T13:51:31.999Z</time></trkpt><trkpt lat="43.112643014185494" lon="12.875884300301623"><ele>1078.0</ele><time>2026-04-18T13:51:32.999Z</time></trkpt><trkpt lat="43.112708191104964" lon="12.876032551568308"><ele>1078.0</ele><time>2026-04-18T13:51:33.999Z</time></trkpt><trkpt lat="43.11276723194053" lon="12.876181760979652"><ele>1078.0</ele><time>2026-04-18T13:51:34.999Z</time></trkpt><trkpt lat="43.11282148319886" lon="12.876324365839718"><ele>1081.8</ele><time>2026-04-18T13:51:35.999Z</time></trkpt><trkpt lat="43.112888508764655" lon="12.876451220053427"><ele>1085.6</ele><time>2026-04-18T13:51:36.999Z</time></trkpt><trkpt lat="43.1129228231766" lon="12.87659927168011"><ele>1089.4</ele><time>2026-04-18T13:51:37.999Z</time></trkpt><trkpt lat="43.112961799170364" lon="12.876734880004696"><ele>1093.2</ele><time>2026-04-18T13:51:38.999Z</time></trkpt><trkpt lat="43.113029392237884" lon="12.876841610828082"><ele>1097.0</ele><time>2026-04-18T13:51:39.999Z</time></trkpt><trkpt lat="43.113099158418265" lon="12.876941558259249"><ele>1096.6</ele><time>2026-04-18T13:51:40.999Z</time></trkpt><trkpt lat="43.11315631852311" lon="12.877070969783983"><ele>1096.2</ele><time>2026-04-18T13:51:41.999Z</time></trkpt><trkpt lat="43.11320037767999" lon="12.877221803469702"><ele>1095.8</ele><time>2026-04-18T13:51:42.999Z</time></trkpt><trkpt lat="43.11324705924135" lon="12.877362243588383"><ele>1095.4</ele><time>2026-04-18T13:51:43.999Z</time></trkpt><trkpt lat="43.11326035861123" lon="12.877474509436391"><ele>1095.0</ele><time>2026-04-18T13:51:44.999Z</time></trkpt><trkpt lat="43.113302249175945" lon="12.877565584574988"><ele>1098.8</ele><time>2026-04-18T13:51:45.999Z</time></trkpt><trkpt lat="43.1133763099855" lon="12.877675067045736"><ele>1102.6</ele><time>2026-04-18T13:51:46.999Z</time></trkpt><trkpt lat="43.1134456896166" lon="12.877768317076285"><ele>1106.4</ele><time>2026-04-18T13:51:47.999Z</time></trkpt><trkpt lat="43.113507576564245" lon="12.87787118627266"><ele>1110.2</ele><time>2026-04-18T13:51:48.999Z</time></trkpt><trkpt lat="43.11358016854086" lon="12.877985894551779"><ele>1114.0</ele><time>2026-04-18T13:51:49.999Z</time></trkpt><trkpt lat="43.11364419622579" lon="12.878109309177681"><ele>1114.0</ele><time>2026-04-18T13:51:50.999Z</time></trkpt><trkpt lat="43.11367787533781" lon="12.878233615557976"><ele>1114.0</ele><time>2026-04-18T13:51:51.999Z</time></trkpt><trkpt lat="43.113692707286084" lon="12.878388709573116"><ele>1114.0</ele><time>2026-04-18T13:51:52.999Z</time></trkpt><trkpt lat="43.11371131997477" lon="12.878597277688106"><ele>1114.0</ele><time>2026-04-18T13:51:53.999Z</time></trkpt><trkpt lat="43.11374440391221" lon="12.878786365798526"><ele>1118.0</ele><time>2026-04-18T13:51:54.999Z</time></trkpt><trkpt lat="43.11378048293878" lon="12.87891294715246"><ele>1122.0</ele><time>2026-04-18T13:51:55.999Z</time></trkpt><trkpt lat="43.11381183561066" lon="12.878989761012157"><ele>1126.0</ele><time>2026-04-18T13:51:56.999Z</time></trkpt><trkpt lat="43.11388406173982" lon="12.879059004507308"><ele>1130.0</ele><time>2026-04-18T13:51:59Z</time></trkpt><trkpt lat="43.11395807027866" lon="12.879014570490533"><ele>1134.0</ele><time>2026-04-18T13:52:01Z</time></trkpt><trkpt lat="43.11400327198408" lon="12.878928363184851"><ele>1138.0</ele><time>2026-04-18T13:52:02Z</time></trkpt><trkpt lat="43.11404624881642" lon="12.878822388586656"><ele>1136.1666666666665</ele><time>2026-04-18T13:52:03Z</time></trkpt><trkpt lat="43.11410110867802" lon="12.878724065181025"><ele>1134.3333333333333</ele><time>2026-04-18T13:52:04Z</time></trkpt><trkpt lat="43.11415311565276" lon="12.878626620497297"><ele>1132.5</ele><time>2026-04-18T13:52:05Z</time></trkpt><trkpt lat="43.114220169693816" lon="12.87855605154466"><ele>1130.6666666666667</ele><time>2026-04-18T13:52:07Z</time></trkpt><trkpt lat="43.11427630123734" lon="12.878621086000308"><ele>1128.8333333333335</ele><time>2026-04-18T13:52:10Z</time></trkpt><trkpt lat="43.1142526166236" lon="12.8787406626434"><ele>1127.0</ele><time>2026-04-18T13:52:12Z</time></trkpt><trkpt lat="43.11423212656833" lon="12.878852904801814"><ele>1127.0</ele><time>2026-04-18T13:52:13Z</time></trkpt><trkpt lat="43.114234687171994" lon="12.878948036191652"><ele>1127.0</ele><time>2026-04-18T13:52:14Z</time></trkpt><trkpt lat="43.114243637642446" lon="12.879074448997867"><ele>1127.0</ele><time>2026-04-18T13:52:15Z</time></trkpt><trkpt lat="43.11426009545174" lon="12.879197081105623"><ele>1127.0</ele><time>2026-04-18T13:52:16Z</time></trkpt><trkpt lat="43.114269460635" lon="12.879321053693053"><ele>1127.0</ele><time>2026-04-18T13:52:17Z</time></trkpt><trkpt lat="43.11429315661031" lon="12.87944003870827"><ele>1127.0</ele><time>2026-04-18T13:52:18Z</time></trkpt><trkpt lat="43.114314344070856" lon="12.879572738051685"><ele>1130.3333333333335</ele><time>2026-04-18T13:52:19Z</time></trkpt><trkpt lat="43.11433417718492" lon="12.879674833384406"><ele>1133.6666666666667</ele><time>2026-04-18T13:52:20Z</time></trkpt><trkpt lat="43.1143595168964" lon="12.87978332760606"><ele>1137.0</ele><time>2026-04-18T13:52:21Z</time></trkpt><trkpt lat="43.1143904914942" lon="12.879896233978574"><ele>1140.3333333333333</ele><time>2026-04-18T13:52:22Z</time></trkpt><trkpt lat="43.114420204911234" lon="12.880006111492566"><ele>1143.6666666666665</ele><time>2026-04-18T13:52:23Z</time></trkpt><trkpt lat="43.11443849760158" lon="12.88009327848236"><ele>1147.0</ele><time>2026-04-18T13:52:24Z</time></trkpt><trkpt lat="43.114441611041684" lon="12.880224893990519"><ele>1149.0</ele><time>2026-04-18T13:52:25Z</time></trkpt><trkpt lat="43.11441793572745" lon="12.880394942043658"><ele>1151.0</ele><time>2026-04-18T13:52:26Z</time></trkpt><trkpt lat="43.11439311957004" lon="12.880563841661761"><ele>1153.0</ele><time>2026-04-18T13:52:27Z</time></trkpt><trkpt lat="43.11442653628029" lon="12.880641540405229"><ele>1155.0</ele><time>2026-04-18T13:52:28Z</time></trkpt><trkpt lat="43.114460135099684" lon="12.880777766978829"><ele>1157.0</ele><time>2026-04-18T13:52:29Z</time></trkpt><trkpt lat="43.11449243157922" lon="12.880910875626476"><ele>1160.5</ele><time>2026-04-18T13:52:30Z</time></trkpt><trkpt lat="43.11452984305293" lon="12.88104728131362"><ele>1164.0</ele><time>2026-04-18T13:52:31Z</time></trkpt><trkpt lat="43.114559319101645" lon="12.88117966638836"><ele>1167.5</ele><time>2026-04-18T13:52:32Z</time></trkpt><trkpt lat="43.11458749489241" lon="12.881338666692988"><ele>1171.0</ele><time>2026-04-18T13:52:32.999Z</time></trkpt><trkpt lat="43.11462083967319" lon="12.881503160745579"><ele>1171.0</ele><time>2026-04-18T13:52:33.999Z</time></trkpt><trkpt lat="43.11465443718189" lon="12.881652688061202"><ele>1171.0</ele><time>2026-04-18T13:52:34.999Z</time></trkpt><trkpt lat="43.11470579449846" lon="12.881784180753531"><ele>1171.0</ele><time>2026-04-18T13:52:35.999Z</time></trkpt><trkpt lat="43.11477660789199" lon="12.881875276834295"><ele>1171.0</ele><time>2026-04-18T13:52:36.999Z</time></trkpt><trkpt lat="43.11485333379869" lon="12.881956892620078"><ele>1171.0</ele><time>2026-04-18T13:52:37.999Z</time></trkpt><trkpt lat="43.11495063744207" lon="12.882043964655926"><ele>1169.0</ele><time>2026-04-18T13:52:38.999Z</time></trkpt><trkpt lat="43.11503518301256" lon="12.882141118638206"><ele>1167.0</ele><time>2026-04-18T13:52:39.999Z</time></trkpt><trkpt lat="43.1151128248911" lon="12.882277602435396"><ele>1165.0</ele><time>2026-04-18T13:52:40.999Z</time></trkpt><trkpt lat="43.11520161384831" lon="12.882382810861285"><ele>1163.0</ele><time>2026-04-18T13:52:41.999Z</time></trkpt><trkpt lat="43.11528099044266" lon="12.882505010994151"><ele>1162.0</ele><time>2026-04-18T13:52:42.999Z</time></trkpt><trkpt lat="43.115344261769195" lon="12.882608209627197"><ele>1161.0</ele><time>2026-04-18T13:52:43.999Z</time></trkpt><trkpt lat="43.11538358036953" lon="12.882693598940882"><ele>1160.0</ele><time>2026-04-18T13:52:44.999Z</time></trkpt><trkpt lat="43.115448316904136" lon="12.882757602265231"><ele>1159.0</ele><time>2026-04-18T13:52:46.999Z</time></trkpt><trkpt lat="43.115526713935864" lon="12.88275041317512"><ele>1158.0</ele><time>2026-04-18T13:52:49.999Z</time></trkpt><trkpt lat="43.11560234985185" lon="12.882718589189684"><ele>1157.0</ele><time>2026-04-18T13:52:51.999Z</time></trkpt><trkpt lat="43.115704365737926" lon="12.882665088000875"><ele>1153.5</ele><time>2026-04-18T13:52:53.999Z</time></trkpt><trkpt lat="43.11576648333254" lon="12.882642481885517"><ele>1150.0</ele><time>2026-04-18T13:52:54.999Z</time></trkpt><trkpt lat="43.115844498987116" lon="12.882643216878366"><ele>1146.5</ele><time>2026-04-18T13:52:55.999Z</time></trkpt><trkpt lat="43.115919224064356" lon="12.88267176500619"><ele>1143.0</ele><time>2026-04-18T13:52:56.999Z</time></trkpt><trkpt lat="43.116002231711654" lon="12.88269806866557"><ele>1139.5</ele><time>2026-04-18T13:52:57.999Z</time></trkpt><trkpt lat="43.11607679015874" lon="12.882742734561015"><ele>1136.0</ele><time>2026-04-18T13:52:58.999Z</time></trkpt><trkpt lat="43.116155024853015" lon="12.88279693118619"><ele>1136.0</ele><time>2026-04-18T13:52:59.999Z</time></trkpt><trkpt lat="43.11623436396331" lon="12.882844022868078"><ele>1136.0</ele><time>2026-04-18T13:53:00.999Z</time></trkpt><trkpt lat="43.11631909370757" lon="12.882892748356985"><ele>1136.0</ele><time>2026-04-18T13:53:01.999Z</time></trkpt><trkpt lat="43.11640256245373" lon="12.882916321895411"><ele>1136.0</ele><time>2026-04-18T13:53:02.999Z</time></trkpt><trkpt lat="43.116483773914545" lon="12.882963521694299"><ele>1136.0</ele><time>2026-04-18T13:53:03.999Z</time></trkpt><trkpt lat="43.116569565532934" lon="12.883002635766916"><ele>1136.0</ele><time>2026-04-18T13:53:04.999Z</time></trkpt><trkpt lat="43.11666608970553" lon="12.883043948981337"><ele>1135.6666666666667</ele><time>2026-04-18T13:53:05.999Z</time></trkpt><trkpt lat="43.11675653435672" lon="12.88308221273199"><ele>1135.3333333333335</ele><time>2026-04-18T13:53:06.999Z</time></trkpt><trkpt lat="43.11685302370292" lon="12.883121562972548"><ele>1135.0</ele><time>2026-04-18T13:53:07.999Z</time></trkpt><trkpt lat="43.11693405692705" lon="12.883142009967772"><ele>1134.6666666666667</ele><time>2026-04-18T13:53:08.999Z</time></trkpt><trkpt lat="43.11700072689114" lon="12.88314703262705"><ele>1134.3333333333333</ele><time>2026-04-18T13:53:09.999Z</time></trkpt><trkpt lat="43.11707489446451" lon="12.88316606166271"><ele>1134.0</ele><time>2026-04-18T13:53:10.999Z</time></trkpt><trkpt lat="43.117136024696094" lon="12.88321870379671"><ele>1134.0</ele><time>2026-04-18T13:53:11.999Z</time></trkpt><trkpt lat="43.117185371399614" lon="12.88330604867526"><ele>1134.0</ele><time>2026-04-18T13:53:12.999Z</time></trkpt><trkpt lat="43.11722472305532" lon="12.88338053272804"><ele>1134.0</ele><time>2026-04-18T13:53:13.999Z</time></trkpt><trkpt lat="43.11726758231043" lon="12.883459913539031"><ele>1134.0</ele><time>2026-04-18T13:53:14.999Z</time></trkpt><trkpt lat="43.11731404165409" lon="12.883530328903566"><ele>1134.0</ele><time>2026-04-18T13:53:15.999Z</time></trkpt><trkpt lat="43.117376449614945" lon="12.883612412365876"><ele>1134.0</ele><time>2026-04-18T13:53:16.999Z</time></trkpt><trkpt lat="43.11743582739351" lon="12.883678703743968"><ele>1133.4</ele><time>2026-04-18T13:53:17.999Z</time></trkpt><trkpt lat="43.11749384522012" lon="12.883747190629194"><ele>1132.8000000000002</ele><time>2026-04-18T13:53:18.999Z</time></trkpt><trkpt lat="43.117571498858915" lon="12.883853241864779"><ele>1132.1999999999998</ele><time>2026-04-18T13:53:20.999Z</time></trkpt><trkpt lat="43.11764203856707" lon="12.883989334773801"><ele>1131.6</ele><time>2026-04-18T13:53:22.999Z</time></trkpt><trkpt lat="43.11766433641782" lon="12.884131337815525"><ele>1131.0</ele><time>2026-04-18T13:53:24.999Z</time></trkpt><trkpt lat="43.117700331449335" lon="12.884261491983029"><ele>1128.25</ele><time>2026-04-18T13:53:26.999Z</time></trkpt><trkpt lat="43.117755795200644" lon="12.884411033631379"><ele>1125.5</ele><time>2026-04-18T13:53:28.999Z</time></trkpt><trkpt lat="43.11782596319951" lon="12.884556073940782"><ele>1122.75</ele><time>2026-04-18T13:53:30.999Z</time></trkpt><trkpt lat="43.117863321737765" lon="12.884639781971101"><ele>1120.0</ele><time>2026-04-18T13:53:31.999Z</time></trkpt><trkpt lat="43.117944104267" lon="12.884802154156958"><ele>1120.0</ele><time>2026-04-18T13:53:33.999Z</time></trkpt><trkpt lat="43.1179894115562" lon="12.884884334383749"><ele>1120.0</ele><time>2026-04-18T13:53:34.999Z</time></trkpt><trkpt lat="43.11804076629901" lon="12.884963539179681"><ele>1120.0</ele><time>2026-04-18T13:53:35.999Z</time></trkpt><trkpt lat="43.11809522439837" lon="12.885037695082541"><ele>1120.0</ele><time>2026-04-18T13:53:36.999Z</time></trkpt><trkpt lat="43.11815210941012" lon="12.88511345995012"><ele>1120.0</ele><time>2026-04-18T13:53:37.999Z</time></trkpt><trkpt lat="43.11820364325443" lon="12.88520062202161"><ele>1120.0</ele><time>2026-04-18T13:53:38.999Z</time></trkpt><trkpt lat="43.1182517438916" lon="12.88530740771464"><ele>1116.2</ele><time>2026-04-18T13:53:39.999Z</time></trkpt><trkpt lat="43.11829462393013" lon="12.88541224409494"><ele>1112.4</ele><time>2026-04-18T13:53:40.999Z</time></trkpt><trkpt lat="43.118361295222236" lon="12.885565769449396"><ele>1108.6</ele><time>2026-04-18T13:53:42.999Z</time></trkpt><trkpt lat="43.11843674763516" lon="12.88570856773675"><ele>1104.8</ele><time>2026-04-18T13:53:44.999Z</time></trkpt><trkpt lat="43.11849459426483" lon="12.885822879048138"><ele>1101.0</ele><time>2026-04-18T13:53:46.999Z</time></trkpt><trkpt lat="43.1185070493676" lon="12.885907914843315"><ele>1096.3999999999999</ele><time>2026-04-18T13:53:49.999Z</time></trkpt><trkpt lat="43.11845034580534" lon="12.886007876026902"><ele>1091.8</ele><time>2026-04-18T13:53:52.999Z</time></trkpt><trkpt lat="43.11838856449762" lon="12.886112592577444"><ele>1087.1999999999998</ele><time>2026-04-18T13:53:54.999Z</time></trkpt><trkpt lat="43.118266170941034" lon="12.886219437391285"><ele>1082.6</ele><time>2026-04-18T13:53:56.999Z</time></trkpt><trkpt lat="43.1181868756029" lon="12.886277175943581"><ele>1078.0</ele><time>2026-04-18T13:53:57.999Z</time></trkpt><trkpt lat="43.11809980141486" lon="12.88633561618718"><ele>1078.0</ele><time>2026-04-18T13:53:58.999Z</time></trkpt><trkpt lat="43.117995047476946" lon="12.886381361203824"><ele>1078.0</ele><time>2026-04-18T13:53:59.999Z</time></trkpt><trkpt lat="43.1178745518901" lon="12.886406707021408"><ele>1078.0</ele><time>2026-04-18T13:54:00.999Z</time></trkpt><trkpt lat="43.117748445027175" lon="12.886418017103404"><ele>1078.0</ele><time>2026-04-18T13:54:01.999Z</time></trkpt><trkpt lat="43.1176238051156" lon="12.88641102670791"><ele>1078.0</ele><time>2026-04-18T13:54:02.999Z</time></trkpt><trkpt lat="43.11750486002452" lon="12.88638458735063"><ele>1078.0</ele><time>2026-04-18T13:54:04Z</time></trkpt><trkpt lat="43.117396761300284" lon="12.886345339531845"><ele>1078.0</ele><time>2026-04-18T13:54:05Z</time></trkpt><trkpt lat="43.11728515167049" lon="12.88629940797963"><ele>1078.0</ele><time>2026-04-18T13:54:06Z</time></trkpt><trkpt lat="43.11717405733628" lon="12.88624631477707"><ele>1079.0</ele><time>2026-04-18T13:54:07Z</time></trkpt><trkpt lat="43.11706453746758" lon="12.886180563449358"><ele>1080.0</ele><time>2026-04-18T13:54:08Z</time></trkpt><trkpt lat="43.11695747508379" lon="12.886101934126904"><ele>1081.0</ele><time>2026-04-18T13:54:09Z</time></trkpt><trkpt lat="43.11684498066476" lon="12.886013197451545"><ele>1082.0</ele><time>2026-04-18T13:54:10Z</time></trkpt><trkpt lat="43.11675034445625" lon="12.885924400779805"><ele>1082.0</ele><time>2026-04-18T13:54:11Z</time></trkpt><trkpt lat="43.11666235277626" lon="12.88582600140331"><ele>1082.0</ele><time>2026-04-18T13:54:12Z</time></trkpt><trkpt lat="43.11658248837405" lon="12.88572510676709"><ele>1082.0</ele><time>2026-04-18T13:54:13Z</time></trkpt><trkpt lat="43.1165115466687" lon="12.885639810250693"><ele>1082.0</ele><time>2026-04-18T13:54:14Z</time></trkpt><trkpt lat="43.11645421229297" lon="12.885573554690186"><ele>1082.0</ele><time>2026-04-18T13:54:15Z</time></trkpt><trkpt lat="43.116380987459934" lon="12.88550780402272"><ele>1079.2</ele><time>2026-04-18T13:54:16Z</time></trkpt><trkpt lat="43.11630417356486" lon="12.885440769975286"><ele>1076.4</ele><time>2026-04-18T13:54:17Z</time></trkpt><trkpt lat="43.11623578601085" lon="12.885366491711006"><ele>1073.6</ele><time>2026-04-18T13:54:18Z</time></trkpt><trkpt lat="43.11619094545246" lon="12.885300118568756"><ele>1070.8</ele><time>2026-04-18T13:54:19Z</time></trkpt><trkpt lat="43.11610270610632" lon="12.885277470164144"><ele>1068.0</ele><time>2026-04-18T13:54:21Z</time></trkpt><trkpt lat="43.1161018543115" lon="12.885454422822626"><ele>1068.0</ele><time>2026-04-18T13:54:23Z</time></trkpt><trkpt lat="43.11613340638328" lon="12.885590961854911"><ele>1068.0</ele><time>2026-04-18T13:54:25Z</time></trkpt><trkpt lat="43.11617215943604" lon="12.885714497030445"><ele>1068.0</ele><time>2026-04-18T13:54:27Z</time></trkpt><trkpt lat="43.11618329428416" lon="12.885823494507978"><ele>1068.0</ele><time>2026-04-18T13:54:29Z</time></trkpt><trkpt lat="43.11614566780212" lon="12.885957219449521"><ele>1068.0</ele><time>2026-04-18T13:54:31Z</time></trkpt><trkpt lat="43.11611143378458" lon="12.886097153458199"><ele>1064.8333333333333</ele><time>2026-04-18T13:54:33Z</time></trkpt><trkpt lat="43.11609131628799" lon="12.886204157133696"><ele>1061.6666666666667</ele><time>2026-04-18T13:54:36Z</time></trkpt><trkpt lat="43.11609739800836" lon="12.886318496284895"><ele>1058.5</ele><time>2026-04-18T13:54:38Z</time></trkpt><trkpt lat="43.11610476426247" lon="12.886426200311577"><ele>1055.3333333333335</ele><time>2026-04-18T13:54:40Z</time></trkpt><trkpt lat="43.11609509849171" lon="12.88653265120786"><ele>1052.1666666666667</ele><time>2026-04-18T13:54:42Z</time></trkpt><trkpt lat="43.11615398363996" lon="12.886638741886198"><ele>1049.0</ele><time>2026-04-18T13:54:44.999Z</time></trkpt><trkpt lat="43.11620120619518" lon="12.886764388249576"><ele>1044.2</ele><time>2026-04-18T13:54:46.999Z</time></trkpt><trkpt lat="43.11626341624451" lon="12.886857301326804"><ele>1039.4</ele><time>2026-04-18T13:54:47.999Z</time></trkpt><trkpt lat="43.11634548467449" lon="12.886958978914738"><ele>1034.6</ele><time>2026-04-18T13:54:48.999Z</time></trkpt><trkpt lat="43.11641451128387" lon="12.887043519641745"><ele>1029.8</ele><time>2026-04-18T13:54:49.999Z</time></trkpt><trkpt lat="43.1164959279782" lon="12.887158350648363"><ele>1025.0</ele><time>2026-04-18T13:54:50.999Z</time></trkpt><trkpt lat="43.11656502447721" lon="12.887256186922063"><ele>1026.4</ele><time>2026-04-18T13:54:51.999Z</time></trkpt><trkpt lat="43.11663948364913" lon="12.88735470486608"><ele>1027.8</ele><time>2026-04-18T13:54:52.999Z</time></trkpt><trkpt lat="43.11671782796628" lon="12.887463870097491"><ele>1029.2</ele><time>2026-04-18T13:54:53.999Z</time></trkpt><trkpt lat="43.11680499108284" lon="12.887571580738957"><ele>1030.6</ele><time>2026-04-18T13:54:54.999Z</time></trkpt><trkpt lat="43.116881529932606" lon="12.88765663188659"><ele>1032.0</ele><time>2026-04-18T13:54:55.999Z</time></trkpt><trkpt lat="43.11696695364273" lon="12.887738568201435"><ele>1026.6666666666667</ele><time>2026-04-18T13:54:56.999Z</time></trkpt><trkpt lat="43.117036230104645" lon="12.887805443326554"><ele>1021.3333333333333</ele><time>2026-04-18T13:54:57.999Z</time></trkpt><trkpt lat="43.11709825100227" lon="12.887887965357294"><ele>1016.0</ele><time>2026-04-18T13:54:58.999Z</time></trkpt><trkpt lat="43.11714391627777" lon="12.887958573029492"><ele>1010.6666666666666</ele><time>2026-04-18T13:54:59.999Z</time></trkpt><trkpt lat="43.11719120554118" lon="12.888018282823444"><ele>1005.3333333333333</ele><time>2026-04-18T13:55:00.999Z</time></trkpt><trkpt lat="43.11725684153796" lon="12.88809128733112"><ele>1000.0</ele><time>2026-04-18T13:55:01.999Z</time></trkpt><trkpt lat="43.11732594189683" lon="12.888199317363318"><ele>1000.0</ele><time>2026-04-18T13:55:02.999Z</time></trkpt><trkpt lat="43.11739574325658" lon="12.888286431748194"><ele>1000.0</ele><time>2026-04-18T13:55:03.999Z</time></trkpt><trkpt lat="43.117443974941764" lon="12.888367380474753"><ele>1000.0</ele><time>2026-04-18T13:55:04.999Z</time></trkpt><trkpt lat="43.11750013168075" lon="12.888457432573789"><ele>1000.0</ele><time>2026-04-18T13:55:05.999Z</time></trkpt><trkpt lat="43.11756853468996" lon="12.888539763741385"><ele>1000.0</ele><time>2026-04-18T13:55:06.999Z</time></trkpt><trkpt lat="43.1176449657215" lon="12.888639827203608"><ele>996.3333333333333</ele><time>2026-04-18T13:55:07.999Z</time></trkpt><trkpt lat="43.11770090912079" lon="12.888715550279493"><ele>992.6666666666666</ele><time>2026-04-18T13:55:08.999Z</time></trkpt><trkpt lat="43.11774312703203" lon="12.888798970075172"><ele>989.0</ele><time>2026-04-18T13:55:09.999Z</time></trkpt><trkpt lat="43.11780449823073" lon="12.88887070247834"><ele>985.3333333333333</ele><time>2026-04-18T13:55:10.999Z</time></trkpt><trkpt lat="43.11787802225008" lon="12.888911615331002"><ele>981.6666666666666</ele><time>2026-04-18T13:55:11.999Z</time></trkpt><trkpt lat="43.11797227362742" lon="12.888968682184311"><ele>978.0</ele><time>2026-04-18T13:55:12.999Z</time></trkpt><trkpt lat="43.118062295826086" lon="12.889014877787675"><ele>978.0</ele><time>2026-04-18T13:55:13.999Z</time></trkpt><trkpt lat="43.11813103400754" lon="12.889050887947317"><ele>978.0</ele><time>2026-04-18T13:55:14.999Z</time></trkpt><trkpt lat="43.118258045620564" lon="12.889070871944062"><ele>978.0</ele><time>2026-04-18T13:55:16.999Z</time></trkpt><trkpt lat="43.11838132608118" lon="12.889026434269491"><ele>978.0</ele><time>2026-04-18T13:55:18.999Z</time></trkpt><trkpt lat="43.11848180231924" lon="12.888990815469624"><ele>978.0</ele><time>2026-04-18T13:55:19.999Z</time></trkpt><trkpt lat="43.11854812728247" lon="12.888967683487435"><ele>977.8</ele><time>2026-04-18T13:55:20.999Z</time></trkpt><trkpt lat="43.1187503699962" lon="12.888992875547938"><ele>977.5999999999999</ele><time>2026-04-18T13:55:21.999Z</time></trkpt><trkpt lat="43.11882999073267" lon="12.889027908718873"><ele>977.4000000000001</ele><time>2026-04-18T13:55:22.999Z</time></trkpt><trkpt lat="43.11890711501366" lon="12.88905230749837"><ele>977.2</ele><time>2026-04-18T13:55:23.999Z</time></trkpt><trkpt lat="43.11898886768844" lon="12.889053932951988"><ele>977.0</ele><time>2026-04-18T13:55:24.999Z</time></trkpt><trkpt lat="43.11905923916796" lon="12.889054416748118"><ele>972.8</ele><time>2026-04-18T13:55:25.999Z</time></trkpt><trkpt lat="43.11911927368885" lon="12.889082760942845"><ele>968.6</ele><time>2026-04-18T13:55:26.999Z</time></trkpt><trkpt lat="43.11924365802158" lon="12.889087521984287"><ele>964.3999999999999</ele><time>2026-04-18T13:55:28.999Z</time></trkpt><trkpt lat="43.119315400996705" lon="12.88903740867255"><ele>960.1999999999999</ele><time>2026-04-18T13:55:29.999Z</time></trkpt><trkpt lat="43.119396789309434" lon="12.888983809949455"><ele>956.0</ele><time>2026-04-18T13:55:30.999Z</time></trkpt><trkpt lat="43.11947569206112" lon="12.88891597330262"><ele>956.0</ele><time>2026-04-18T13:55:31.999Z</time></trkpt><trkpt lat="43.119562572532345" lon="12.888815095601116"><ele>956.0</ele><time>2026-04-18T13:55:32.999Z</time></trkpt><trkpt lat="43.119650795130326" lon="12.888689485721397"><ele>956.0</ele><time>2026-04-18T13:55:33.999Z</time></trkpt><trkpt lat="43.119737461016335" lon="12.888573501305935"><ele>956.0</ele><time>2026-04-18T13:55:34.999Z</time></trkpt><trkpt lat="43.11984278591013" lon="12.88847338062037"><ele>956.1999999999999</ele><time>2026-04-18T13:55:35.999Z</time></trkpt><trkpt lat="43.119944996434235" lon="12.888363657758788"><ele>956.3999999999999</ele><time>2026-04-18T13:55:36.999Z</time></trkpt><trkpt lat="43.12002275872515" lon="12.888276248080299"><ele>956.6</ele><time>2026-04-18T13:55:37.999Z</time></trkpt><trkpt lat="43.12009673641115" lon="12.888232922646312"><ele>956.8</ele><time>2026-04-18T13:55:38.999Z</time></trkpt><trkpt lat="43.12018154499768" lon="12.888229960115973"><ele>957.0</ele><time>2026-04-18T13:55:39.999Z</time></trkpt><trkpt lat="43.12026017791051" lon="12.888280770855186"><ele>957.0</ele><time>2026-04-18T13:55:40.999Z</time></trkpt><trkpt lat="43.12035436381282" lon="12.88835775472416"><ele>957.0</ele><time>2026-04-18T13:55:41.999Z</time></trkpt><trkpt lat="43.12045233090738" lon="12.888482106930342"><ele>957.0</ele><time>2026-04-18T13:55:42.999Z</time></trkpt><trkpt lat="43.120565246009114" lon="12.888564524437058"><ele>957.0</ele><time>2026-04-18T13:55:43.999Z</time></trkpt><trkpt lat="43.12066424756256" lon="12.888642139883778"><ele>942.75</ele><time>2026-04-18T13:55:44.999Z</time></trkpt><trkpt lat="43.12076058339821" lon="12.888684414490582"><ele>928.5</ele><time>2026-04-18T13:55:45.999Z</time></trkpt><trkpt lat="43.120849449117664" lon="12.88869402936959"><ele>914.25</ele><time>2026-04-18T13:55:46.999Z</time></trkpt><trkpt lat="43.120970817578275" lon="12.888691934222505"><ele>900.0</ele><time>2026-04-18T13:55:47.999Z</time></trkpt><trkpt lat="43.12111746139995" lon="12.888661635476916"><ele>900.0</ele><time>2026-04-18T13:55:48.999Z</time></trkpt><trkpt lat="43.121260461505834" lon="12.888615476316744"><ele>900.0</ele><time>2026-04-18T13:55:49.999Z</time></trkpt><trkpt lat="43.121389086911826" lon="12.888620690592134"><ele>900.0</ele><time>2026-04-18T13:55:50.999Z</time></trkpt><trkpt lat="43.12149918343114" lon="12.888607492607994"><ele>900.0</ele><time>2026-04-18T13:55:51.999Z</time></trkpt><trkpt lat="43.12159774901413" lon="12.888608586525663"><ele>896.5</ele><time>2026-04-18T13:55:52.999Z</time></trkpt><trkpt lat="43.121743719681916" lon="12.88860258257214"><ele>893.0</ele><time>2026-04-18T13:55:53.999Z</time></trkpt><trkpt lat="43.121900265768254" lon="12.88855387830675"><ele>889.5</ele><time>2026-04-18T13:55:54.999Z</time></trkpt><trkpt lat="43.1220424496323" lon="12.888552499033931"><ele>886.0</ele><time>2026-04-18T13:55:55.999Z</time></trkpt><trkpt lat="43.122169633663425" lon="12.888545556031334"><ele>886.0</ele><time>2026-04-18T13:55:56.999Z</time></trkpt><trkpt lat="43.12230052659602" lon="12.888534492450235"><ele>886.0</ele><time>2026-04-18T13:55:57.999Z</time></trkpt><trkpt lat="43.12240854915248" lon="12.888505479599532"><ele>886.0</ele><time>2026-04-18T13:55:58.999Z</time></trkpt><trkpt lat="43.12254026943878" lon="12.888498509111562"><ele>886.0</ele><time>2026-04-18T13:55:59.999Z</time></trkpt><trkpt lat="43.12263345053851" lon="12.888469189546147"><ele>889.0</ele><time>2026-04-18T13:56:00.999Z</time></trkpt><trkpt lat="43.12270778198426" lon="12.888425058382012"><ele>891.9999999999999</ele><time>2026-04-18T13:56:01.999Z</time></trkpt><trkpt lat="43.12280820760754" lon="12.888373784737118"><ele>894.9999999999999</ele><time>2026-04-18T13:56:02.999Z</time></trkpt><trkpt lat="43.12288290256872" lon="12.888309815878307"><ele>898.0</ele><time>2026-04-18T13:56:03.999Z</time></trkpt><trkpt lat="43.122978912517624" lon="12.888268098550169"><ele>901.0</ele><time>2026-04-18T13:56:04.999Z</time></trkpt><trkpt lat="43.12308938040184" lon="12.888229851009882"><ele>901.0</ele><time>2026-04-18T13:56:05.999Z</time></trkpt><trkpt lat="43.1231964191706" lon="12.888196048678038"><ele>901.0</ele><time>2026-04-18T13:56:06.999Z</time></trkpt><trkpt lat="43.12331663542435" lon="12.888175872722718"><ele>901.0</ele><time>2026-04-18T13:56:07.999Z</time></trkpt><trkpt lat="43.12343501212398" lon="12.888136284821066"><ele>901.0</ele><time>2026-04-18T13:56:08.999Z</time></trkpt><trkpt lat="43.12354823952835" lon="12.888075451511954"><ele>893.75</ele><time>2026-04-18T13:56:10Z</time></trkpt><trkpt lat="43.123660281084604" lon="12.888021922547567"><ele>886.5</ele><time>2026-04-18T13:56:11Z</time></trkpt><trkpt lat="43.12377456989459" lon="12.887974714028894"><ele>879.25</ele><time>2026-04-18T13:56:12Z</time></trkpt><trkpt lat="43.12391166528472" lon="12.887922691844016"><ele>872.0</ele><time>2026-04-18T13:56:13Z</time></trkpt><trkpt lat="43.12404744247367" lon="12.887844162352739"><ele>863.5</ele><time>2026-04-18T13:56:14Z</time></trkpt><trkpt lat="43.124171288365325" lon="12.887777687974769"><ele>855.0</ele><time>2026-04-18T13:56:15Z</time></trkpt><trkpt lat="43.124305702486296" lon="12.887722854459675"><ele>846.5</ele><time>2026-04-18T13:56:16Z</time></trkpt><trkpt lat="43.12443186115888" lon="12.887652629499634"><ele>838.0</ele><time>2026-04-18T13:56:17Z</time></trkpt><trkpt lat="43.1245595506212" lon="12.887595115340785"><ele>837.0</ele><time>2026-04-18T13:56:18Z</time></trkpt><trkpt lat="43.12467391950128" lon="12.887524718572777"><ele>836.0</ele><time>2026-04-18T13:56:19Z</time></trkpt><trkpt lat="43.12475989292762" lon="12.88746288716405"><ele>835.0</ele><time>2026-04-18T13:56:20Z</time></trkpt><trkpt lat="43.12483897324777" lon="12.887397591239663"><ele>834.0</ele><time>2026-04-18T13:56:21Z</time></trkpt><trkpt lat="43.124903674588005" lon="12.88732578297965"><ele>833.0</ele><time>2026-04-18T13:56:22Z</time></trkpt><trkpt lat="43.1249628157001" lon="12.8872645901937"><ele>833.0000000000001</ele><time>2026-04-18T13:56:23Z</time></trkpt><trkpt lat="43.12502450377013" lon="12.88723178770798"><ele>833.0</ele><time>2026-04-18T13:56:24Z</time></trkpt><trkpt lat="43.12510923473987" lon="12.887190988937693"><ele>833.0</ele><time>2026-04-18T13:56:26Z</time></trkpt><trkpt lat="43.125156954782724" lon="12.887124988801995"><ele>833.0</ele><time>2026-04-18T13:56:27Z</time></trkpt><trkpt lat="43.12520493838948" lon="12.887029813310752"><ele>833.0000000000001</ele><time>2026-04-18T13:56:28Z</time></trkpt><trkpt lat="43.125260247548745" lon="12.886913213781645"><ele>833.0</ele><time>2026-04-18T13:56:29Z</time></trkpt><trkpt lat="43.12531941948013" lon="12.886802749656347"><ele>830.1666666666667</ele><time>2026-04-18T13:56:30Z</time></trkpt><trkpt lat="43.125386660849834" lon="12.886705256912073"><ele>827.3333333333334</ele><time>2026-04-18T13:56:31Z</time></trkpt><trkpt lat="43.12543526469929" lon="12.886647599941957"><ele>824.5</ele><time>2026-04-18T13:56:32Z</time></trkpt><trkpt lat="43.12552502986714" lon="12.886625986005091"><ele>821.6666666666667</ele><time>2026-04-18T13:56:36Z</time></trkpt><trkpt lat="43.12558714819736" lon="12.886607697733874"><ele>818.8333333333334</ele><time>2026-04-18T13:56:37Z</time></trkpt><trkpt lat="43.12570219781896" lon="12.886557338594518"><ele>816.0</ele><time>2026-04-18T13:56:39Z</time></trkpt><trkpt lat="43.12577433536981" lon="12.886529810956489"><ele>816.0</ele><time>2026-04-18T13:56:41Z</time></trkpt><trkpt lat="43.12584425700029" lon="12.886521835052838"><ele>816.0</ele><time>2026-04-18T13:56:43Z</time></trkpt><trkpt lat="43.1259056507327" lon="12.88649529044911"><ele>816.0</ele><time>2026-04-18T13:56:45Z</time></trkpt><trkpt lat="43.125975362377616" lon="12.886418326780007"><ele>816.0</ele><time>2026-04-18T13:56:47Z</time></trkpt><trkpt lat="43.12605146482309" lon="12.886367241285674"><ele>816.0</ele><time>2026-04-18T13:56:49Z</time></trkpt><trkpt lat="43.12613744622701" lon="12.886349810173236"><ele>816.0</ele><time>2026-04-18T13:56:51Z</time></trkpt><trkpt lat="43.12620783320048" lon="12.886318916087681"><ele>816.0</ele><time>2026-04-18T13:56:54Z</time></trkpt><trkpt lat="43.12627759613308" lon="12.886290239307"><ele>816.0</ele><time>2026-04-18T13:57:04.999Z</time></trkpt><trkpt lat="43.12634401888402" lon="12.886234925117263"><ele>816.0</ele><time>2026-04-18T13:57:22.999Z</time></trkpt><trkpt lat="43.12641883066124" lon="12.886230234780351"><ele>816.0</ele><time>2026-04-18T13:57:28.999Z</time></trkpt><trkpt lat="43.12648394949939" lon="12.886212403409788"><ele>816.0</ele><time>2026-04-18T13:57:54.999Z</time></trkpt><trkpt lat="43.12653643176022" lon="12.886151870173306"><ele>816.0</ele><time>2026-04-18T13:58:01.999Z</time></trkpt><trkpt lat="43.12661595948099" lon="12.886077342664576"><ele>816.0</ele><time>2026-04-18T13:58:24Z</time></trkpt><trkpt lat="43.126680190347464" lon="12.88606419331071"><ele>816.0</ele><time>2026-04-18T13:58:51Z</time></trkpt><trkpt lat="43.12675665992803" lon="12.886047616772734"><ele>816.0</ele><time>2026-04-18T13:59:05Z</time></trkpt><trkpt lat="43.12669708103866" lon="12.886076363513755"><ele>816.0</ele><time>2026-04-18T14:02:15.999Z</time></trkpt><trkpt lat="43.12662576985336" lon="12.886096927790824"><ele>816.0</ele><time>2026-04-18T14:02:39Z</time></trkpt><trkpt lat="43.126570565593994" lon="12.886148176169078"><ele>816.0</ele><time>2026-04-18T14:02:48Z</time></trkpt><trkpt lat="43.126508219829766" lon="12.886166238575395"><ele>816.0</ele><time>2026-04-18T14:04:22.999Z</time></trkpt><trkpt lat="43.1264567738196" lon="12.886221681213621"><ele>816.0</ele><time>2026-04-18T14:04:37Z</time></trkpt><trkpt lat="43.12638425433947" lon="12.88622736286401"><ele>816.0</ele><time>2026-04-18T14:04:42Z</time></trkpt><trkpt lat="43.12631187111514" lon="12.886263285842276"><ele>816.0</ele><time>2026-04-18T14:04:47Z</time></trkpt><trkpt lat="43.12623869585424" lon="12.886322430320615"><ele>816.0</ele><time>2026-04-18T14:04:51Z</time></trkpt><trkpt lat="43.126152646022945" lon="12.886337251704932"><ele>816.0</ele><time>2026-04-18T14:04:53Z</time></trkpt><trkpt lat="43.12604838022702" lon="12.886376835107951"><ele>816.0</ele><time>2026-04-18T14:04:55Z</time></trkpt><trkpt lat="43.125980762023296" lon="12.886430568262028"><ele>816.0</ele><time>2026-04-18T14:04:57Z</time></trkpt><trkpt lat="43.12589592919825" lon="12.886496999696305"><ele>816.0</ele><time>2026-04-18T14:05:00Z</time></trkpt><trkpt lat="43.1258253015393" lon="12.88656366822493"><ele>816.0</ele><time>2026-04-18T14:05:02Z</time></trkpt><trkpt lat="43.12578286866619" lon="12.886654623099083"><ele>816.0</ele><time>2026-04-18T14:05:05Z</time></trkpt><trkpt lat="43.12573025612187" lon="12.886716160081447"><ele>816.0</ele><time>2026-04-18T14:05:07Z</time></trkpt><trkpt lat="43.12568772637881" lon="12.886802896391941"><ele>816.0</ele><time>2026-04-18T14:05:09Z</time></trkpt><trkpt lat="43.12565712190535" lon="12.88691972951388"><ele>819.4</ele><time>2026-04-18T14:05:11Z</time></trkpt><trkpt lat="43.125597007460996" lon="12.887027909634947"><ele>822.8</ele><time>2026-04-18T14:05:14Z</time></trkpt><trkpt lat="43.12555740961067" lon="12.887110800174138"><ele>826.1999999999999</ele><time>2026-04-18T14:05:16Z</time></trkpt><trkpt lat="43.12551179501455" lon="12.887236337363726"><ele>829.5999999999999</ele><time>2026-04-18T14:05:17Z</time></trkpt><trkpt lat="43.12552551075171" lon="12.887401653369476"><ele>833.0</ele><time>2026-04-18T14:05:19Z</time></trkpt><trkpt lat="43.1255216306554" lon="12.887542257590892"><ele>833.0000000000001</ele><time>2026-04-18T14:05:21Z</time></trkpt><trkpt lat="43.12550214591852" lon="12.88763218564885"><ele>833.0</ele><time>2026-04-18T14:05:23Z</time></trkpt><trkpt lat="43.12553136929061" lon="12.887740739951765"><ele>833.0</ele><time>2026-04-18T14:05:26Z</time></trkpt><trkpt lat="43.12560255968202" lon="12.887703392870957"><ele>833.0</ele><time>2026-04-18T14:05:29Z</time></trkpt><trkpt lat="43.12564084618096" lon="12.887545753204375"><ele>833.0000000000001</ele><time>2026-04-18T14:05:31Z</time></trkpt><trkpt lat="43.12563230809534" lon="12.887442834583327"><ele>833.0</ele><time>2026-04-18T14:05:32Z</time></trkpt><trkpt lat="43.12563004529068" lon="12.88730409719602"><ele>833.0000000000001</ele><time>2026-04-18T14:05:33Z</time></trkpt><trkpt lat="43.12563378318666" lon="12.887166650178257"><ele>833.0</ele><time>2026-04-18T14:05:34Z</time></trkpt><trkpt lat="43.125665440267" lon="12.887057589622877"><ele>833.0</ele><time>2026-04-18T14:05:35Z</time></trkpt><trkpt lat="43.12571013993728" lon="12.886967161270716"><ele>833.0</ele><time>2026-04-18T14:05:36Z</time></trkpt><trkpt lat="43.1257734209753" lon="12.886935944055129"><ele>833.0000000000001</ele><time>2026-04-18T14:05:37Z</time></trkpt><trkpt lat="43.12585958501251" lon="12.886904225812382"><ele>833.0</ele><time>2026-04-18T14:05:38Z</time></trkpt><trkpt lat="43.12598035400733" lon="12.886877121715472"><ele>824.0</ele><time>2026-04-18T14:05:39Z</time></trkpt><trkpt lat="43.12612272109975" lon="12.886849906743057"><ele>815.0</ele><time>2026-04-18T14:05:40Z</time></trkpt><trkpt lat="43.12625096625908" lon="12.886848087727074"><ele>806.0</ele><time>2026-04-18T14:05:41Z</time></trkpt><trkpt lat="43.126338155255155" lon="12.886856859554713"><ele>797.0</ele><time>2026-04-18T14:05:42Z</time></trkpt><trkpt lat="43.12644104524882" lon="12.886822454720358"><ele>797.0</ele><time>2026-04-18T14:05:43Z</time></trkpt><trkpt lat="43.12654757259805" lon="12.886789615872477"><ele>797.0</ele><time>2026-04-18T14:05:44Z</time></trkpt><trkpt lat="43.12665577109755" lon="12.886746011690821"><ele>797.0</ele><time>2026-04-18T14:05:45Z</time></trkpt><trkpt lat="43.12675697120413" lon="12.886703177480182"><ele>797.0</ele><time>2026-04-18T14:05:46Z</time></trkpt><trkpt lat="43.126857518869954" lon="12.886665537059466"><ele>797.0</ele><time>2026-04-18T14:05:47Z</time></trkpt><trkpt lat="43.12693814357879" lon="12.886660495278912"><ele>794.3333333333334</ele><time>2026-04-18T14:05:48Z</time></trkpt><trkpt lat="43.1270239450524" lon="12.886655984345127"><ele>791.6666666666667</ele><time>2026-04-18T14:05:49Z</time></trkpt><trkpt lat="43.12709487511212" lon="12.88664598658166"><ele>789.0</ele><time>2026-04-18T14:05:50Z</time></trkpt><trkpt lat="43.12716233985042" lon="12.886602467322344"><ele>786.3333333333333</ele><time>2026-04-18T14:05:50.999Z</time></trkpt><trkpt lat="43.127220205607145" lon="12.886562989502197"><ele>783.6666666666666</ele><time>2026-04-18T14:05:51.999Z</time></trkpt><trkpt lat="43.12730860749689" lon="12.886543896979413"><ele>781.0</ele><time>2026-04-18T14:05:53.999Z</time></trkpt><trkpt lat="43.12735193280385" lon="12.88667564919684"><ele>777.6666666666666</ele><time>2026-04-18T14:05:55.999Z</time></trkpt><trkpt lat="43.12739356731345" lon="12.886771714439668"><ele>774.3333333333333</ele><time>2026-04-18T14:05:56.999Z</time></trkpt><trkpt lat="43.12746746690825" lon="12.886911741360143"><ele>771.0</ele><time>2026-04-18T14:05:58.999Z</time></trkpt><trkpt lat="43.12751723824185" lon="12.88698180975007"><ele>767.6666666666666</ele><time>2026-04-18T14:05:59.999Z</time></trkpt><trkpt lat="43.12757039136173" lon="12.887045217106563"><ele>764.3333333333333</ele><time>2026-04-18T14:06:00.999Z</time></trkpt><trkpt lat="43.12764365041886" lon="12.887080948964384"><ele>761.0</ele><time>2026-04-18T14:06:01.999Z</time></trkpt><trkpt lat="43.12772961434241" lon="12.887088516522867"><ele>760.3333333333333</ele><time>2026-04-18T14:06:02.999Z</time></trkpt><trkpt lat="43.1278120151728" lon="12.887069223317328"><ele>759.6666666666666</ele><time>2026-04-18T14:06:03.999Z</time></trkpt><trkpt lat="43.12788505048369" lon="12.887019984427761"><ele>759.0</ele><time>2026-04-18T14:06:04.999Z</time></trkpt><trkpt lat="43.12795792749287" lon="12.886969998496234"><ele>758.3333333333334</ele><time>2026-04-18T14:06:05.999Z</time></trkpt><trkpt lat="43.128017906021896" lon="12.886936895982801"><ele>757.6666666666667</ele><time>2026-04-18T14:06:06.999Z</time></trkpt><trkpt lat="43.128085025781964" lon="12.88681836562937"><ele>757.0</ele><time>2026-04-18T14:06:08.999Z</time></trkpt><trkpt lat="43.12808969787807" lon="12.88668700387455"><ele>757.0</ele><time>2026-04-18T14:06:10.999Z</time></trkpt><trkpt lat="43.127996362656916" lon="12.886569548445754"><ele>757.0</ele><time>2026-04-18T14:06:12.999Z</time></trkpt><trkpt lat="43.12792967899579" lon="12.886541257267705"><ele>757.0</ele><time>2026-04-18T14:06:13.999Z</time></trkpt><trkpt lat="43.12781883990205" lon="12.886433525650952"><ele>757.0</ele><time>2026-04-18T14:06:14.999Z</time></trkpt><trkpt lat="43.12777515168751" lon="12.886312286973547"><ele>757.0</ele><time>2026-04-18T14:06:15.999Z</time></trkpt><trkpt lat="43.12774590339888" lon="12.886177354373338"><ele>757.0</ele><time>2026-04-18T14:06:16.999Z</time></trkpt><trkpt lat="43.12774059791611" lon="12.886034989771419"><ele>757.0</ele><time>2026-04-18T14:06:17.999Z</time></trkpt><trkpt lat="43.1277669750645" lon="12.885916576191075"><ele>757.0</ele><time>2026-04-18T14:06:18.999Z</time></trkpt><trkpt lat="43.127807884527115" lon="12.8858046910841"><ele>757.0</ele><time>2026-04-18T14:06:19.999Z</time></trkpt><trkpt lat="43.1278719084756" lon="12.885707961838811"><ele>757.0</ele><time>2026-04-18T14:06:20.999Z</time></trkpt><trkpt lat="43.12793192227269" lon="12.885609624286863"><ele>757.6666666666667</ele><time>2026-04-18T14:06:21.999Z</time></trkpt><trkpt lat="43.12797286570585" lon="12.885517223633116"><ele>758.3333333333334</ele><time>2026-04-18T14:06:22.999Z</time></trkpt><trkpt lat="43.12798649148562" lon="12.885359162299071"><ele>759.0</ele><time>2026-04-18T14:06:24.999Z</time></trkpt><trkpt lat="43.12798434476349" lon="12.885270096117235"><ele>759.6666666666666</ele><time>2026-04-18T14:06:25.999Z</time></trkpt><trkpt lat="43.12797569722192" lon="12.885153759319662"><ele>760.3333333333333</ele><time>2026-04-18T14:06:26.999Z</time></trkpt><trkpt lat="43.12799939324194" lon="12.885029278954848"><ele>761.0</ele><time>2026-04-18T14:06:27.999Z</time></trkpt><trkpt lat="43.12805837210927" lon="12.884905944933488"><ele>762.1666666666666</ele><time>2026-04-18T14:06:28.999Z</time></trkpt><trkpt lat="43.128128397394654" lon="12.884808440535577"><ele>763.3333333333333</ele><time>2026-04-18T14:06:29.999Z</time></trkpt><trkpt lat="43.12819139541183" lon="12.884720687426116"><ele>764.5</ele><time>2026-04-18T14:06:30.999Z</time></trkpt><trkpt lat="43.12826025148367" lon="12.884733018083312"><ele>765.6666666666666</ele><time>2026-04-18T14:06:31.999Z</time></trkpt><trkpt lat="43.1283374275051" lon="12.884754675736028"><ele>766.8333333333334</ele><time>2026-04-18T14:06:33.999Z</time></trkpt><trkpt lat="43.12839922403627" lon="12.884790580120335"><ele>768.0</ele><time>2026-04-18T14:06:36.999Z</time></trkpt><trkpt lat="43.12842090894282" lon="12.884896625817946"><ele>760.1666666666666</ele><time>2026-04-18T14:06:40Z</time></trkpt><trkpt lat="43.12839340266849" lon="12.884974872505001"><ele>752.3333333333334</ele><time>2026-04-18T14:06:41Z</time></trkpt><trkpt lat="43.1283663960608" lon="12.885102873758747"><ele>744.5</ele><time>2026-04-18T14:06:42Z</time></trkpt><trkpt lat="43.128350869400855" lon="12.885219778670274"><ele>736.6666666666667</ele><time>2026-04-18T14:06:43Z</time></trkpt><trkpt lat="43.12835489102078" lon="12.88532192179657"><ele>728.8333333333334</ele><time>2026-04-18T14:06:44Z</time></trkpt><trkpt lat="43.128437142934516" lon="12.885449100200272"><ele>721.0</ele><time>2026-04-18T14:06:46Z</time></trkpt><trkpt lat="43.128507056385445" lon="12.885462352872764"><ele>719.0</ele><time>2026-04-18T14:06:47Z</time></trkpt><trkpt lat="43.12858468637496" lon="12.885461328765368"><ele>717.0</ele><time>2026-04-18T14:06:48Z</time></trkpt><trkpt lat="43.12865730183943" lon="12.885399167762502"><ele>715.0</ele><time>2026-04-18T14:06:49Z</time></trkpt><trkpt lat="43.128725727003435" lon="12.88537419374435"><ele>713.0</ele><time>2026-04-18T14:06:50Z</time></trkpt><trkpt lat="43.12885019521984" lon="12.885372543711128"><ele>711.0</ele><time>2026-04-18T14:06:51Z</time></trkpt><trkpt lat="43.12896133029699" lon="12.885370119488126"><ele>711.0</ele><time>2026-04-18T14:06:52Z</time></trkpt><trkpt lat="43.12905866120404" lon="12.885379967486266"><ele>711.0</ele><time>2026-04-18T14:06:53Z</time></trkpt><trkpt lat="43.129150415569356" lon="12.885391989461107"><ele>711.0</ele><time>2026-04-18T14:06:54Z</time></trkpt><trkpt lat="43.1292226756107" lon="12.885396957992459"><ele>711.0</ele><time>2026-04-18T14:06:55Z</time></trkpt><trkpt lat="43.12928241530006" lon="12.885462518543406"><ele>711.0</ele><time>2026-04-18T14:06:56Z</time></trkpt><trkpt lat="43.12934589036692" lon="12.885540909745156"><ele>711.0</ele><time>2026-04-18T14:06:57Z</time></trkpt><trkpt lat="43.12942832949383" lon="12.885654747800837"><ele>706.8</ele><time>2026-04-18T14:06:58Z</time></trkpt><trkpt lat="43.12950639309577" lon="12.885755681800749"><ele>702.5999999999999</ele><time>2026-04-18T14:06:59Z</time></trkpt><trkpt lat="43.12959141248324" lon="12.885831637654425"><ele>698.4</ele><time>2026-04-18T14:07:00Z</time></trkpt><trkpt lat="43.12967032779574" lon="12.885937595025682"><ele>694.2</ele><time>2026-04-18T14:07:01Z</time></trkpt><trkpt lat="43.129742792519785" lon="12.886056869873306"><ele>690.0</ele><time>2026-04-18T14:07:02Z</time></trkpt><trkpt lat="43.129789942434726" lon="12.886166106271013"><ele>690.0</ele><time>2026-04-18T14:07:03Z</time></trkpt><trkpt lat="43.12982786086529" lon="12.88627582906163"><ele>690.0</ele><time>2026-04-18T14:07:04Z</time></trkpt><trkpt lat="43.129850033112575" lon="12.886391869150504"><ele>690.0</ele><time>2026-04-18T14:07:05Z</time></trkpt><trkpt lat="43.12986438989941" lon="12.88649791829271"><ele>690.0</ele><time>2026-04-18T14:07:06Z</time></trkpt><trkpt lat="43.129887001578595" lon="12.886621899425684"><ele>690.0</ele><time>2026-04-18T14:07:07Z</time></trkpt><trkpt lat="43.129905092482694" lon="12.886740145308883"><ele>690.0</ele><time>2026-04-18T14:07:08Z</time></trkpt><trkpt lat="43.129907588733374" lon="12.886831852565816"><ele>686.3333333333334</ele><time>2026-04-18T14:07:09Z</time></trkpt><trkpt lat="43.12992006633338" lon="12.886922014012635"><ele>682.6666666666666</ele><time>2026-04-18T14:07:10Z</time></trkpt><trkpt lat="43.129936196441655" lon="12.887029417742607"><ele>679.0</ele><time>2026-04-18T14:07:11Z</time></trkpt><trkpt lat="43.12996481807706" lon="12.887121593632221"><ele>675.3333333333333</ele><time>2026-04-18T14:07:12Z</time></trkpt><trkpt lat="43.13000549185216" lon="12.887204655988828"><ele>671.6666666666666</ele><time>2026-04-18T14:07:13Z</time></trkpt><trkpt lat="43.13004621096343" lon="12.887277389529475"><ele>668.0</ele><time>2026-04-18T14:07:14Z</time></trkpt><trkpt lat="43.1300990001209" lon="12.887427361752053"><ele>668.0</ele><time>2026-04-18T14:07:16Z</time></trkpt><trkpt lat="43.130115852053855" lon="12.88751450039962"><ele>668.0</ele><time>2026-04-18T14:07:17Z</time></trkpt><trkpt lat="43.1301228279899" lon="12.887611018765487"><ele>668.0</ele><time>2026-04-18T14:07:18Z</time></trkpt><trkpt lat="43.13012083922603" lon="12.88771198023312"><ele>668.0</ele><time>2026-04-18T14:07:19Z</time></trkpt><trkpt lat="43.13010753241123" lon="12.88781489280461"><ele>668.0</ele><time>2026-04-18T14:07:20Z</time></trkpt><trkpt lat="43.130093750746475" lon="12.887944954437804"><ele>668.0</ele><time>2026-04-18T14:07:21Z</time></trkpt><trkpt lat="43.13005351546231" lon="12.888098023837127"><ele>670.2</ele><time>2026-04-18T14:07:22Z</time></trkpt><trkpt lat="43.13004990850111" lon="12.888250649310027"><ele>672.4</ele><time>2026-04-18T14:07:23Z</time></trkpt><trkpt lat="43.130053149363164" lon="12.888391087129856"><ele>674.6</ele><time>2026-04-18T14:07:24Z</time></trkpt><trkpt lat="43.130039537273674" lon="12.888507124149877"><ele>676.8000000000001</ele><time>2026-04-18T14:07:25Z</time></trkpt><trkpt lat="43.130008438824866" lon="12.888636884279588"><ele>679.0</ele><time>2026-04-18T14:07:26Z</time></trkpt><trkpt lat="43.129959251330895" lon="12.888804229697856"><ele>679.75</ele><time>2026-04-18T14:07:27Z</time></trkpt><trkpt lat="43.12989813778625" lon="12.888982193970605"><ele>680.5</ele><time>2026-04-18T14:07:28Z</time></trkpt><trkpt lat="43.129832653873905" lon="12.889157385634302"><ele>681.25</ele><time>2026-04-18T14:07:29Z</time></trkpt><trkpt lat="43.129763260387186" lon="12.889343034192724"><ele>682.0</ele><time>2026-04-18T14:07:30Z</time></trkpt><trkpt lat="43.12971176122203" lon="12.889528443991006"><ele>688.4000000000001</ele><time>2026-04-18T14:07:31Z</time></trkpt><trkpt lat="43.12963366498835" lon="12.889673362750907"><ele>694.8000000000001</ele><time>2026-04-18T14:07:32Z</time></trkpt><trkpt lat="43.12954810363668" lon="12.889792348797704"><ele>701.2</ele><time>2026-04-18T14:07:33Z</time></trkpt><trkpt lat="43.129486908480295" lon="12.88990774780634"><ele>707.6</ele><time>2026-04-18T14:07:34Z</time></trkpt><trkpt lat="43.129475578218994" lon="12.890009465120547"><ele>714.0</ele><time>2026-04-18T14:07:35Z</time></trkpt><trkpt lat="43.12949081691522" lon="12.890115197749035"><ele>716.2</ele><time>2026-04-18T14:07:36Z</time></trkpt><trkpt lat="43.12953521695623" lon="12.890194133568217"><ele>718.4000000000001</ele><time>2026-04-18T14:07:37Z</time></trkpt><trkpt lat="43.12960873149338" lon="12.890263734644021"><ele>720.6</ele><time>2026-04-18T14:07:38Z</time></trkpt><trkpt lat="43.12966801859425" lon="12.890307069857021"><ele>722.8</ele><time>2026-04-18T14:07:39Z</time></trkpt><trkpt lat="43.129738127049315" lon="12.890386588616735"><ele>725.0</ele><time>2026-04-18T14:07:40Z</time></trkpt><trkpt lat="43.129805757774726" lon="12.890204551645477"><ele>725.0</ele><time>2026-04-18T14:07:41Z</time></trkpt><trkpt lat="43.129891335990415" lon="12.890111492348698"><ele>725.0</ele><time>2026-04-18T14:07:42Z</time></trkpt><trkpt lat="43.13001551341965" lon="12.889956726170787"><ele>725.0</ele><time>2026-04-18T14:07:43Z</time></trkpt><trkpt lat="43.13008747217871" lon="12.889864326961623"><ele>725.0</ele><time>2026-04-18T14:07:44Z</time></trkpt><trkpt lat="43.13015613637549" lon="12.889787144258657"><ele>722.0</ele><time>2026-04-18T14:07:45Z</time></trkpt><trkpt lat="43.130247375559584" lon="12.889794157789042"><ele>719.0</ele><time>2026-04-18T14:07:47Z</time></trkpt><trkpt lat="43.13025333365431" lon="12.889913931165232"><ele>716.0</ele><time>2026-04-18T14:07:49Z</time></trkpt><trkpt lat="43.130210470363664" lon="12.890080180552868"><ele>713.0</ele><time>2026-04-18T14:07:51Z</time></trkpt><trkpt lat="43.13015777578061" lon="12.890211545892308"><ele>710.0</ele><time>2026-04-18T14:07:52Z</time></trkpt><trkpt lat="43.13012805420259" lon="12.89034587725632"><ele>710.0</ele><time>2026-04-18T14:07:53Z</time></trkpt><trkpt lat="43.13010384876824" lon="12.890470713464115"><ele>710.0</ele><time>2026-04-18T14:07:54Z</time></trkpt><trkpt lat="43.130083769083036" lon="12.890591942978002"><ele>710.0</ele><time>2026-04-18T14:07:55Z</time></trkpt><trkpt lat="43.13008182639093" lon="12.890717414853228"><ele>710.0</ele><time>2026-04-18T14:07:55.999Z</time></trkpt><trkpt lat="43.13009832328881" lon="12.890843664683297"><ele>710.0</ele><time>2026-04-18T14:07:56.999Z</time></trkpt><trkpt lat="43.13010085388664" lon="12.89097186091257"><ele>712.8</ele><time>2026-04-18T14:07:57.999Z</time></trkpt><trkpt lat="43.130118037847254" lon="12.891120818786893"><ele>715.6</ele><time>2026-04-18T14:07:58.999Z</time></trkpt><trkpt lat="43.13003915910482" lon="12.891196357583329"><ele>718.4000000000001</ele><time>2026-04-18T14:07:59.999Z</time></trkpt><trkpt lat="43.1300017265349" lon="12.89134330708558"><ele>721.2</ele><time>2026-04-18T14:08:00.999Z</time></trkpt><trkpt lat="43.12992425103263" lon="12.89147337438444"><ele>724.0</ele><time>2026-04-18T14:08:01.999Z</time></trkpt><trkpt lat="43.129869576691185" lon="12.891599802688225"><ele>725.25</ele><time>2026-04-18T14:08:02.999Z</time></trkpt><trkpt lat="43.12985223022408" lon="12.891807309198926"><ele>726.5</ele><time>2026-04-18T14:08:03.999Z</time></trkpt><trkpt lat="43.12977384348266" lon="12.89195797338432"><ele>727.75</ele><time>2026-04-18T14:08:04.999Z</time></trkpt><trkpt lat="43.12969379996365" lon="12.892096189221071"><ele>729.0</ele><time>2026-04-18T14:08:05.999Z</time></trkpt><trkpt lat="43.12960381116869" lon="12.89221515948274"><ele>729.0</ele><time>2026-04-18T14:08:06.999Z</time></trkpt><trkpt lat="43.12952556566542" lon="12.89232473809044"><ele>729.0</ele><time>2026-04-18T14:08:07.999Z</time></trkpt><trkpt lat="43.12949693151197" lon="12.892414131528527"><ele>729.0</ele><time>2026-04-18T14:08:08.999Z</time></trkpt><trkpt lat="43.12946157290278" lon="12.892568584402394"><ele>729.0</ele><time>2026-04-18T14:08:09.999Z</time></trkpt><trkpt lat="43.129433260685374" lon="12.892716926152099"><ele>729.0</ele><time>2026-04-18T14:08:10.999Z</time></trkpt><trkpt lat="43.12940812261183" lon="12.892883666747604"><ele>730.75</ele><time>2026-04-18T14:08:11.999Z</time></trkpt><trkpt lat="43.129376315580565" lon="12.893048546720117"><ele>732.5</ele><time>2026-04-18T14:08:12.999Z</time></trkpt><trkpt lat="43.129340026461406" lon="12.893230246718792"><ele>734.25</ele><time>2026-04-18T14:08:13.999Z</time></trkpt><trkpt lat="43.1293106103956" lon="12.893411128410172"><ele>736.0</ele><time>2026-04-18T14:08:14.999Z</time></trkpt><trkpt lat="43.12929019627921" lon="12.893599487263712"><ele>740.0</ele><time>2026-04-18T14:08:15.999Z</time></trkpt><trkpt lat="43.12927331849948" lon="12.893812258107527"><ele>744.0</ele><time>2026-04-18T14:08:16.999Z</time></trkpt><trkpt lat="43.12919865466444" lon="12.894000012844678"><ele>748.0</ele><time>2026-04-18T14:08:17.999Z</time></trkpt><trkpt lat="43.12915540638544" lon="12.894192568038992"><ele>750.0</ele><time>2026-04-18T14:08:18.999Z</time></trkpt><trkpt lat="43.12910466881146" lon="12.894379764330633"><ele>752.0</ele><time>2026-04-18T14:08:19.999Z</time></trkpt><trkpt lat="43.12906366704326" lon="12.894539459054572"><ele>754.0</ele><time>2026-04-18T14:08:20.999Z</time></trkpt><trkpt lat="43.12903163179631" lon="12.894694399840928"><ele>756.0</ele><time>2026-04-18T14:08:21.999Z</time></trkpt><trkpt lat="43.12902425811009" lon="12.894861448026424"><ele>757.0</ele><time>2026-04-18T14:08:22.999Z</time></trkpt><trkpt lat="43.129025838627854" lon="12.895047028227914"><ele>758.0</ele><time>2026-04-18T14:08:23.999Z</time></trkpt><trkpt lat="43.129038509955876" lon="12.895224593969434"><ele>759.0</ele><time>2026-04-18T14:08:24.999Z</time></trkpt><trkpt lat="43.12905819181258" lon="12.89538625707715"><ele>760.0</ele><time>2026-04-18T14:08:25.999Z</time></trkpt><trkpt lat="43.12909970895701" lon="12.895525781154229"><ele>760.0</ele><time>2026-04-18T14:08:26.999Z</time></trkpt><trkpt lat="43.12913781186884" lon="12.895654735383799"><ele>760.0</ele><time>2026-04-18T14:08:27.999Z</time></trkpt><trkpt lat="43.12916758446156" lon="12.895788023962353"><ele>760.0</ele><time>2026-04-18T14:08:28.999Z</time></trkpt><trkpt lat="43.129188792571206" lon="12.895939220282337"><ele>760.0</ele><time>2026-04-18T14:08:29.999Z</time></trkpt><trkpt lat="43.12916860569091" lon="12.896097746880402"><ele>760.0</ele><time>2026-04-18T14:08:30.999Z</time></trkpt><trkpt lat="43.12910474398898" lon="12.896250810568295"><ele>760.5</ele><time>2026-04-18T14:08:31.999Z</time></trkpt><trkpt lat="43.12903892773616" lon="12.896404247882508"><ele>761.0</ele><time>2026-04-18T14:08:32.999Z</time></trkpt><trkpt lat="43.12894123388495" lon="12.89657228800228"><ele>761.5</ele><time>2026-04-18T14:08:33.999Z</time></trkpt><trkpt lat="43.12883557147408" lon="12.896726142991161"><ele>762.0</ele><time>2026-04-18T14:08:34.999Z</time></trkpt><trkpt lat="43.12872557699827" lon="12.896862330077484"><ele>762.25</ele><time>2026-04-18T14:08:35.999Z</time></trkpt><trkpt lat="43.12863256963385" lon="12.897005783926462"><ele>762.5</ele><time>2026-04-18T14:08:36.999Z</time></trkpt><trkpt lat="43.128553890636674" lon="12.897127248512197"><ele>762.75</ele><time>2026-04-18T14:08:37.999Z</time></trkpt><trkpt lat="43.12850328214925" lon="12.897231990569939"><ele>763.0</ele><time>2026-04-18T14:08:38.999Z</time></trkpt><trkpt lat="43.12845763527803" lon="12.897375585213952"><ele>763.0</ele><time>2026-04-18T14:08:39.999Z</time></trkpt><trkpt lat="43.128422478739886" lon="12.897527220163912"><ele>763.0</ele><time>2026-04-18T14:08:40.999Z</time></trkpt><trkpt lat="43.12839382404123" lon="12.897686427758693"><ele>763.0</ele><time>2026-04-18T14:08:41.999Z</time></trkpt><trkpt lat="43.12837079584833" lon="12.897846769003753"><ele>763.0</ele><time>2026-04-18T14:08:42.999Z</time></trkpt><trkpt lat="43.12834607065313" lon="12.897961214845562"><ele>763.0</ele><time>2026-04-18T14:08:43.999Z</time></trkpt><trkpt lat="43.12832224660793" lon="12.898051460722387"><ele>764.2</ele><time>2026-04-18T14:08:44.999Z</time></trkpt><trkpt lat="43.12825221975434" lon="12.898045913243207"><ele>765.4</ele><time>2026-04-18T14:08:47Z</time></trkpt><trkpt lat="43.12817745142137" lon="12.898064590931233"><ele>766.6</ele><time>2026-04-18T14:08:48Z</time></trkpt><trkpt lat="43.12810763248857" lon="12.898095852559889"><ele>767.8000000000001</ele><time>2026-04-18T14:08:49Z</time></trkpt><trkpt lat="43.12800759655545" lon="12.89814742761567"><ele>769.0</ele><time>2026-04-18T14:08:50Z</time></trkpt><trkpt lat="43.127889717427564" lon="12.89821090604828"><ele>771.75</ele><time>2026-04-18T14:08:51Z</time></trkpt><trkpt lat="43.12777738615929" lon="12.898261741012584"><ele>774.5</ele><time>2026-04-18T14:08:52Z</time></trkpt><trkpt lat="43.127661163123236" lon="12.898313633597281"><ele>777.25</ele><time>2026-04-18T14:08:53Z</time></trkpt><trkpt lat="43.12753545085822" lon="12.898377477962876"><ele>780.0</ele><time>2026-04-18T14:08:54Z</time></trkpt><trkpt lat="43.12742044209541" lon="12.898457847822106"><ele>785.25</ele><time>2026-04-18T14:08:55Z</time></trkpt><trkpt lat="43.12729686894512" lon="12.898545344049992"><ele>790.5</ele><time>2026-04-18T14:08:56Z</time></trkpt><trkpt lat="43.12717658406165" lon="12.898646899650142"><ele>795.75</ele><time>2026-04-18T14:08:57Z</time></trkpt><trkpt lat="43.12706744764668" lon="12.898739245218358"><ele>801.0</ele><time>2026-04-18T14:08:58Z</time></trkpt><trkpt lat="43.126962716924794" lon="12.898825946916286"><ele>801.0</ele><time>2026-04-18T14:08:59Z</time></trkpt><trkpt lat="43.1268688526742" lon="12.898922568830828"><ele>801.0</ele><time>2026-04-18T14:09:00Z</time></trkpt><trkpt lat="43.12678475971328" lon="12.89902554950274"><ele>801.0</ele><time>2026-04-18T14:09:01Z</time></trkpt><trkpt lat="43.12671574734323" lon="12.899096429422185"><ele>801.0</ele><time>2026-04-18T14:09:02Z</time></trkpt><trkpt lat="43.126634977465265" lon="12.899183001556498"><ele>801.0</ele><time>2026-04-18T14:09:03Z</time></trkpt><trkpt lat="43.126550196107615" lon="12.899276229517636"><ele>806.0</ele><time>2026-04-18T14:09:04Z</time></trkpt><trkpt lat="43.12645056539132" lon="12.899375754902868"><ele>811.0</ele><time>2026-04-18T14:09:05Z</time></trkpt><trkpt lat="43.12639224668752" lon="12.899495288968945"><ele>816.0</ele><time>2026-04-18T14:09:06Z</time></trkpt><trkpt lat="43.126314771584845" lon="12.899599187280248"><ele>821.0</ele><time>2026-04-18T14:09:07Z</time></trkpt><trkpt lat="43.12623145464619" lon="12.89974969550161"><ele>821.0</ele><time>2026-04-18T14:09:08Z</time></trkpt><trkpt lat="43.12615143254957" lon="12.899903310496306"><ele>821.0</ele><time>2026-04-18T14:09:09Z</time></trkpt><trkpt lat="43.12608158441973" lon="12.900022142750663"><ele>821.0</ele><time>2026-04-18T14:09:10Z</time></trkpt><trkpt lat="43.12602436406921" lon="12.900110537357376"><ele>821.0</ele><time>2026-04-18T14:09:11Z</time></trkpt><trkpt lat="43.12596972036295" lon="12.900160365164881"><ele>821.0</ele><time>2026-04-18T14:09:12Z</time></trkpt><trkpt lat="43.12590511889945" lon="12.900204569354642"><ele>827.0</ele><time>2026-04-18T14:09:13Z</time></trkpt><trkpt lat="43.1258066053936" lon="12.900211753246095"><ele>833.0</ele><time>2026-04-18T14:09:15Z</time></trkpt><trkpt lat="43.12571655735563" lon="12.900159454430279"><ele>839.0</ele><time>2026-04-18T14:09:16Z</time></trkpt><trkpt lat="43.12560313802247" lon="12.900150612988798"><ele>845.0</ele><time>2026-04-18T14:09:18Z</time></trkpt><trkpt lat="43.12547591961764" lon="12.900244871144144"><ele>846.2</ele><time>2026-04-18T14:09:19Z</time></trkpt><trkpt lat="43.12540075627465" lon="12.900284518553217"><ele>847.4</ele><time>2026-04-18T14:09:20Z</time></trkpt><trkpt lat="43.12530577041026" lon="12.900306168779935"><ele>848.5999999999999</ele><time>2026-04-18T14:09:21Z</time></trkpt><trkpt lat="43.12520601621026" lon="12.900343052503441"><ele>849.8</ele><time>2026-04-18T14:09:22Z</time></trkpt><trkpt lat="43.12510578361163" lon="12.900386595098523"><ele>851.0</ele><time>2026-04-18T14:09:23Z</time></trkpt><trkpt lat="43.12502801789822" lon="12.900429456144055"><ele>851.0000000000001</ele><time>2026-04-18T14:09:24Z</time></trkpt><trkpt lat="43.12493599063397" lon="12.900478569628351"><ele>851.0</ele><time>2026-04-18T14:09:25Z</time></trkpt><trkpt lat="43.12484814405033" lon="12.900524883072288"><ele>851.0</ele><time>2026-04-18T14:09:26Z</time></trkpt><trkpt lat="43.12476762153013" lon="12.900589946687003"><ele>851.0</ele><time>2026-04-18T14:09:27Z</time></trkpt><trkpt lat="43.12470385282682" lon="12.900643662310909"><ele>851.0000000000001</ele><time>2026-04-18T14:09:28Z</time></trkpt><trkpt lat="43.124641648308256" lon="12.90070434439979"><ele>851.0</ele><time>2026-04-18T14:09:29Z</time></trkpt><trkpt lat="43.124537258187296" lon="12.900779906867163"><ele>856.4</ele><time>2026-04-18T14:09:31Z</time></trkpt><trkpt lat="43.1244171445085" lon="12.900861033140973"><ele>861.8</ele><time>2026-04-18T14:09:33Z</time></trkpt><trkpt lat="43.1243218094581" lon="12.900914649934373"><ele>867.1999999999999</ele><time>2026-04-18T14:09:35Z</time></trkpt><trkpt lat="43.12422525613152" lon="12.900957314626782"><ele>872.5999999999999</ele><time>2026-04-18T14:09:37Z</time></trkpt><trkpt lat="43.124154314770735" lon="12.90097428889312"><ele>878.0</ele><time>2026-04-18T14:09:38Z</time></trkpt><trkpt lat="43.12408900827836" lon="12.900989218103614"><ele>881.8333333333334</ele><time>2026-04-18T14:09:40Z</time></trkpt><trkpt lat="43.12402861705987" lon="12.901024392782423"><ele>885.6666666666667</ele><time>2026-04-18T14:09:43Z</time></trkpt><trkpt lat="43.12393774243969" lon="12.901033337218502"><ele>889.5</ele><time>2026-04-18T14:09:46Z</time></trkpt><trkpt lat="43.12387323200742" lon="12.901060866792156"><ele>893.3333333333333</ele><time>2026-04-18T14:09:49Z</time></trkpt><trkpt lat="43.12378482450511" lon="12.901093182558055"><ele>897.1666666666666</ele><time>2026-04-18T14:09:54Z</time></trkpt><trkpt lat="43.12371047658779" lon="12.901112544232577"><ele>901.0</ele><time>2026-04-18T14:09:56Z</time></trkpt><trkpt lat="43.123611048629854" lon="12.901120180455914"><ele>901.0</ele><time>2026-04-18T14:09:58Z</time></trkpt><trkpt lat="43.123511795474386" lon="12.901182641879446"><ele>900.9999999999999</ele><time>2026-04-18T14:10:00Z</time></trkpt><trkpt lat="43.12344512286714" lon="12.901204514217193"><ele>900.9999999999999</ele><time>2026-04-18T14:10:01Z</time></trkpt><trkpt lat="43.12332192364603" lon="12.901238431893512"><ele>901.0</ele><time>2026-04-18T14:10:02.999Z</time></trkpt><trkpt lat="43.12324849968012" lon="12.901271459175543"><ele>901.0</ele><time>2026-04-18T14:10:03.999Z</time></trkpt><trkpt lat="43.12313450890907" lon="12.901292514104412"><ele>908.5999999999999</ele><time>2026-04-18T14:10:05.999Z</time></trkpt><trkpt lat="43.12302208259581" lon="12.901291743786212"><ele>916.1999999999999</ele><time>2026-04-18T14:10:07.999Z</time></trkpt><trkpt lat="43.12289347422398" lon="12.901339150969541"><ele>923.8000000000001</ele><time>2026-04-18T14:10:09.999Z</time></trkpt><trkpt lat="43.12282131186304" lon="12.901352584480254"><ele>931.4000000000001</ele><time>2026-04-18T14:10:10.999Z</time></trkpt><trkpt lat="43.122748964703064" lon="12.901387660255208"><ele>939.0</ele><time>2026-04-18T14:10:11.999Z</time></trkpt><trkpt lat="43.12267603302754" lon="12.901438809144382"><ele>939.0</ele><time>2026-04-18T14:10:12.999Z</time></trkpt><trkpt lat="43.12261055809437" lon="12.901482081569883"><ele>939.0000000000001</ele><time>2026-04-18T14:10:13.999Z</time></trkpt><trkpt lat="43.12250832893914" lon="12.901613344380674"><ele>939.0000000000001</ele><time>2026-04-18T14:10:15.999Z</time></trkpt><trkpt lat="43.12241621583249" lon="12.90167691809397"><ele>939.0</ele><time>2026-04-18T14:10:16.999Z</time></trkpt><trkpt lat="43.12229852010295" lon="12.901756349981286"><ele>939.0</ele><time>2026-04-18T14:10:17.999Z</time></trkpt><trkpt lat="43.122203698506894" lon="12.901817483078835"><ele>944.0</ele><time>2026-04-18T14:10:18.999Z</time></trkpt><trkpt lat="43.12212997076181" lon="12.901882259120923"><ele>949.0</ele><time>2026-04-18T14:10:19.999Z</time></trkpt><trkpt lat="43.122069990600785" lon="12.901936282703653"><ele>954.0</ele><time>2026-04-18T14:10:20.999Z</time></trkpt><trkpt lat="43.122017386171436" lon="12.902008216411936"><ele>959.0</ele><time>2026-04-18T14:10:21.999Z</time></trkpt><trkpt lat="43.12197914573968" lon="12.902077148854369"><ele>964.0</ele><time>2026-04-18T14:10:22.999Z</time></trkpt><trkpt lat="43.121938439530304" lon="12.902175054971176"><ele>969.0</ele><time>2026-04-18T14:10:23.999Z</time></trkpt><trkpt lat="43.12189614503893" lon="12.90228354734733"><ele>969.0</ele><time>2026-04-18T14:10:24.999Z</time></trkpt><trkpt lat="43.12183956257352" lon="12.902362480160694"><ele>969.0000000000001</ele><time>2026-04-18T14:10:25.999Z</time></trkpt><trkpt lat="43.12172678390841" lon="12.902399966044168"><ele>969.0000000000001</ele><time>2026-04-18T14:10:30.999Z</time></trkpt><trkpt lat="43.12166419850148" lon="12.90250176093645"><ele>969.0</ele><time>2026-04-18T14:10:41.999Z</time></trkpt><trkpt lat="43.12157876137889" lon="12.902601390534443"><ele>969.0</ele><time>2026-04-18T14:10:43.999Z</time></trkpt><trkpt lat="43.121534225032775" lon="12.902686412187895"><ele>974.6</ele><time>2026-04-18T14:10:44.999Z</time></trkpt><trkpt lat="43.121471773785345" lon="12.902790576696999"><ele>980.2</ele><time>2026-04-18T14:10:45.999Z</time></trkpt><trkpt lat="43.12140575684298" lon="12.902881568321774"><ele>985.8000000000001</ele><time>2026-04-18T14:10:46.999Z</time></trkpt><trkpt lat="43.12134348685917" lon="12.902981670187815"><ele>991.4000000000001</ele><time>2026-04-18T14:10:47.999Z</time></trkpt><trkpt lat="43.12127556283002" lon="12.90308421944067"><ele>997.0</ele><time>2026-04-18T14:10:48.999Z</time></trkpt><trkpt lat="43.121191439201255" lon="12.903157255134854"><ele>997.0</ele><time>2026-04-18T14:10:49.999Z</time></trkpt><trkpt lat="43.12111218529455" lon="12.903241108058975"><ele>997.0</ele><time>2026-04-18T14:10:50.999Z</time></trkpt><trkpt lat="43.121045400927976" lon="12.90332594833388"><ele>997.0</ele><time>2026-04-18T14:10:52Z</time></trkpt><trkpt lat="43.12097034507296" lon="12.903477447248546"><ele>997.0</ele><time>2026-04-18T14:10:54Z</time></trkpt><trkpt lat="43.12094294985585" lon="12.903586758499683"><ele>997.0</ele><time>2026-04-18T14:10:55Z</time></trkpt><trkpt lat="43.12091244481797" lon="12.903716855511243"><ele>998.8</ele><time>2026-04-18T14:10:56Z</time></trkpt><trkpt lat="43.120893162899236" lon="12.903853280106262"><ele>1000.6</ele><time>2026-04-18T14:10:57Z</time></trkpt><trkpt lat="43.120903400916276" lon="12.903980611874548"><ele>1002.3999999999999</ele><time>2026-04-18T14:10:58Z</time></trkpt><trkpt lat="43.120917568268915" lon="12.904102541716725"><ele>1004.1999999999999</ele><time>2026-04-18T14:10:59Z</time></trkpt><trkpt lat="43.12093651751886" lon="12.904233485643365"><ele>1006.0</ele><time>2026-04-18T14:11:00Z</time></trkpt><trkpt lat="43.12093589686917" lon="12.904352506889829"><ele>1010.0</ele><time>2026-04-18T14:11:01Z</time></trkpt><trkpt lat="43.12089211340615" lon="12.90446354707031"><ele>1013.9999999999999</ele><time>2026-04-18T14:11:03Z</time></trkpt><trkpt lat="43.12082750034845" lon="12.904583761928881"><ele>1017.9999999999999</ele><time>2026-04-18T14:11:06Z</time></trkpt><trkpt lat="43.12077187793253" lon="12.90451785500916"><ele>1022.0</ele><time>2026-04-18T14:11:09Z</time></trkpt><trkpt lat="43.12070384634759" lon="12.904401506557377"><ele>1026.0</ele><time>2026-04-18T14:11:12Z</time></trkpt><trkpt lat="43.120633228828446" lon="12.904392305366082"><ele>1027.5</ele><time>2026-04-18T14:11:14Z</time></trkpt><trkpt lat="43.12056091858071" lon="12.90440893511045"><ele>1029.0</ele><time>2026-04-18T14:11:16Z</time></trkpt><trkpt lat="43.1204891013633" lon="12.904412612588553"><ele>1030.5</ele><time>2026-04-18T14:11:18Z</time></trkpt><trkpt lat="43.12039288801333" lon="12.904482973340256"><ele>1032.0</ele><time>2026-04-18T14:11:20Z</time></trkpt><trkpt lat="43.12032341564588" lon="12.904620757645555"><ele>1033.5</ele><time>2026-04-18T14:11:22Z</time></trkpt><trkpt lat="43.12028976204911" lon="12.904697753783317"><ele>1035.0</ele><time>2026-04-18T14:11:23Z</time></trkpt><trkpt lat="43.120226073292294" lon="12.90473974468225"><ele>1035.0</ele><time>2026-04-18T14:11:24Z</time></trkpt><trkpt lat="43.120151613758445" lon="12.904826837127285"><ele>1035.0</ele><time>2026-04-18T14:11:26Z</time></trkpt><trkpt lat="43.120087110031704" lon="12.904944111118514"><ele>1035.0</ele><time>2026-04-18T14:11:28Z</time></trkpt><trkpt lat="43.1200324343798" lon="12.904988595559626"><ele>1035.0</ele><time>2026-04-18T14:11:29Z</time></trkpt><trkpt lat="43.11994834316649" lon="12.905122329607641"><ele>1035.0</ele><time>2026-04-18T14:11:31Z</time></trkpt><trkpt lat="43.11993954299855" lon="12.905226193809513"><ele>1039.5</ele><time>2026-04-18T14:11:33Z</time></trkpt><trkpt lat="43.12001731854451" lon="12.905257882720786"><ele>1044.0</ele><time>2026-04-18T14:11:35Z</time></trkpt><trkpt lat="43.12010235695366" lon="12.905233147659366"><ele>1048.5</ele><time>2026-04-18T14:11:37Z</time></trkpt><trkpt lat="43.12020038004622" lon="12.905263876227217"><ele>1053.0</ele><time>2026-04-18T14:11:39Z</time></trkpt><trkpt lat="43.12023999240275" lon="12.905347522615884"><ele>1057.5</ele><time>2026-04-18T14:11:40Z</time></trkpt><trkpt lat="43.120270822832765" lon="12.905431854780332"><ele>1062.0</ele><time>2026-04-18T14:11:41Z</time></trkpt><trkpt lat="43.12027209467712" lon="12.905571561162061"><ele>1062.0</ele><time>2026-04-18T14:11:43Z</time></trkpt><trkpt lat="43.120197300045675" lon="12.905684771068213"><ele>1062.0</ele><time>2026-04-18T14:11:45Z</time></trkpt><trkpt lat="43.12011900937834" lon="12.905811135582189"><ele>1062.0</ele><time>2026-04-18T14:11:47Z</time></trkpt><trkpt lat="43.12006976238826" lon="12.905969574812074"><ele>1062.0</ele><time>2026-04-18T14:11:49Z</time></trkpt><trkpt lat="43.11997823507988" lon="12.906099495891555"><ele>1065.3333333333333</ele><time>2026-04-18T14:11:51Z</time></trkpt><trkpt lat="43.11990547485743" lon="12.906164026931428"><ele>1068.6666666666667</ele><time>2026-04-18T14:11:52Z</time></trkpt><trkpt lat="43.11984060726511" lon="12.90622554310856"><ele>1072.0</ele><time>2026-04-18T14:11:53Z</time></trkpt><trkpt lat="43.11977670021745" lon="12.906323533321592"><ele>1075.3333333333335</ele><time>2026-04-18T14:11:54Z</time></trkpt><trkpt lat="43.11972410065711" lon="12.906415362296375"><ele>1078.6666666666667</ele><time>2026-04-18T14:11:55Z</time></trkpt><trkpt lat="43.119665761400775" lon="12.9064897853137"><ele>1082.0</ele><time>2026-04-18T14:11:56Z</time></trkpt><trkpt lat="43.119590140266844" lon="12.906554047043628"><ele>1082.0</ele><time>2026-04-18T14:11:57Z</time></trkpt><trkpt lat="43.119521619329696" lon="12.906581223459629"><ele>1082.0</ele><time>2026-04-18T14:11:58Z</time></trkpt><trkpt lat="43.1194582928748" lon="12.906626055808973"><ele>1082.0</ele><time>2026-04-18T14:11:59Z</time></trkpt><trkpt lat="43.11940135851238" lon="12.90668444054071"><ele>1082.0</ele><time>2026-04-18T14:12:00Z</time></trkpt><trkpt lat="43.11933822209078" lon="12.906762475107495"><ele>1082.0</ele><time>2026-04-18T14:12:01Z</time></trkpt><trkpt lat="43.11928875766365" lon="12.906850291533516"><ele>1082.0</ele><time>2026-04-18T14:12:02Z</time></trkpt><trkpt lat="43.1192476776757" lon="12.906954803427038"><ele>1086.2</ele><time>2026-04-18T14:12:03Z</time></trkpt><trkpt lat="43.119198074301096" lon="12.907067562643014"><ele>1090.4</ele><time>2026-04-18T14:12:05Z</time></trkpt><trkpt lat="43.11927569536746" lon="12.90706183367783"><ele>1094.6</ele><time>2026-04-18T14:12:06Z</time></trkpt><trkpt lat="43.11938880081785" lon="12.907075196957745"><ele>1098.8</ele><time>2026-04-18T14:12:08Z</time></trkpt><trkpt lat="43.119500600095655" lon="12.907149531162585"><ele>1103.0</ele><time>2026-04-18T14:12:10Z</time></trkpt><trkpt lat="43.11958756553696" lon="12.90719896805682"><ele>1103.0</ele><time>2026-04-18T14:12:12Z</time></trkpt><trkpt lat="43.119592908650944" lon="12.907313257034275"><ele>1103.0</ele><time>2026-04-18T14:12:13.999Z</time></trkpt><trkpt lat="43.11952868693529" lon="12.90738388145019"><ele>1103.0</ele><time>2026-04-18T14:12:15.999Z</time></trkpt><trkpt lat="43.119443791735826" lon="12.90740708313003"><ele>1103.0</ele><time>2026-04-18T14:12:16.999Z</time></trkpt><trkpt lat="43.11936351459856" lon="12.907486041515684"><ele>1103.0</ele><time>2026-04-18T14:12:17.999Z</time></trkpt><trkpt lat="43.119306692196986" lon="12.907555941185013"><ele>1103.0</ele><time>2026-04-18T14:12:18.999Z</time></trkpt><trkpt lat="43.11926357502145" lon="12.907620160106644"><ele>1107.4</ele><time>2026-04-18T14:12:19.999Z</time></trkpt><trkpt lat="43.11925247729091" lon="12.907767971723016"><ele>1111.8</ele><time>2026-04-18T14:12:21.999Z</time></trkpt><trkpt lat="43.11927606201849" lon="12.907890967574412"><ele>1116.2</ele><time>2026-04-18T14:12:23.999Z</time></trkpt><trkpt lat="43.11928287310159" lon="12.907977876291765"><ele>1120.6</ele><time>2026-04-18T14:12:24.999Z</time></trkpt><trkpt lat="43.11931073396533" lon="12.90812773190844"><ele>1125.0</ele><time>2026-04-18T14:12:26.999Z</time></trkpt><trkpt lat="43.1193487934754" lon="12.908287216974943"><ele>1125.0</ele><time>2026-04-18T14:12:28.999Z</time></trkpt><trkpt lat="43.11936534015423" lon="12.90839769227098"><ele>1125.0</ele><time>2026-04-18T14:12:29.999Z</time></trkpt><trkpt lat="43.11937401167808" lon="12.908489561096465"><ele>1125.0</ele><time>2026-04-18T14:12:30.999Z</time></trkpt><trkpt lat="43.1193840606094" lon="12.9085813641893"><ele>1125.0</ele><time>2026-04-18T14:12:31.999Z</time></trkpt><trkpt lat="43.11939461836529" lon="12.908681720677725"><ele>1125.0</ele><time>2026-04-18T14:12:32.999Z</time></trkpt><trkpt lat="43.11940859650368" lon="12.908801905389165"><ele>1125.0</ele><time>2026-04-18T14:12:34.999Z</time></trkpt><trkpt lat="43.11936563804978" lon="12.908876008933994"><ele>1128.1666666666667</ele><time>2026-04-18T14:12:36.999Z</time></trkpt><trkpt lat="43.11935937055819" lon="12.908969320888398"><ele>1131.3333333333333</ele><time>2026-04-18T14:12:38.999Z</time></trkpt><trkpt lat="43.119355900414945" lon="12.909080360040107"><ele>1134.5</ele><time>2026-04-18T14:12:40.999Z</time></trkpt><trkpt lat="43.11933074898496" lon="12.909165181552531"><ele>1137.6666666666665</ele><time>2026-04-18T14:12:41.999Z</time></trkpt><trkpt lat="43.11927601456373" lon="12.909296087431004"><ele>1140.8333333333333</ele><time>2026-04-18T14:12:43.999Z</time></trkpt><trkpt lat="43.119271100245236" lon="12.909399449393469"><ele>1144.0</ele><time>2026-04-18T14:12:45.999Z</time></trkpt><trkpt lat="43.11926043989121" lon="12.90950660442714"><ele>1147.8</ele><time>2026-04-18T14:12:47.999Z</time></trkpt><trkpt lat="43.11925486914266" lon="12.909664128766245"><ele>1151.6000000000001</ele><time>2026-04-18T14:12:49.999Z</time></trkpt><trkpt lat="43.11922364051898" lon="12.909816094765"><ele>1155.4</ele><time>2026-04-18T14:12:51.999Z</time></trkpt><trkpt lat="43.119223535284036" lon="12.909911233784856"><ele>1159.2</ele><time>2026-04-18T14:12:52.999Z</time></trkpt><trkpt lat="43.1192352483583" lon="12.91004774741273"><ele>1163.0</ele><time>2026-04-18T14:12:54.999Z</time></trkpt><trkpt lat="43.11916298190676" lon="12.910175647219411"><ele>1166.6</ele><time>2026-04-18T14:12:56.999Z</time></trkpt><trkpt lat="43.119142257377476" lon="12.910340907055788"><ele>1170.1999999999998</ele><time>2026-04-18T14:12:59Z</time></trkpt><trkpt lat="43.11911252272811" lon="12.91045582438029"><ele>1173.8</ele><time>2026-04-18T14:13:01Z</time></trkpt><trkpt lat="43.119089134263085" lon="12.91055462551311"><ele>1177.3999999999999</ele><time>2026-04-18T14:13:03Z</time></trkpt><trkpt lat="43.11900986012056" lon="12.910645166690651"><ele>1181.0</ele><time>2026-04-18T14:14:07Z</time></trkpt><trkpt lat="43.1189530113136" lon="12.9106973876771"><ele>1181.0</ele><time>2026-04-18T14:14:09Z</time></trkpt><trkpt lat="43.11890891816557" lon="12.910623062670922"><ele>1181.0</ele><time>2026-04-18T14:15:10Z</time></trkpt><trkpt lat="43.11897854006478" lon="12.910566482196835"><ele>1181.0</ele><time>2026-04-18T14:15:12Z</time></trkpt><trkpt lat="43.11904040153051" lon="12.910548999638081"><ele>1181.0</ele><time>2026-04-18T14:15:14Z</time></trkpt><trkpt lat="43.11909261166683" lon="12.91062198842412"><ele>1181.0</ele><time>2026-04-18T14:18:46Z</time></trkpt><trkpt lat="43.11904442902435" lon="12.910755264298908"><ele>1181.0</ele><time>2026-04-18T14:18:47.999Z</time></trkpt><trkpt lat="43.11893413727482" lon="12.910823285698113"><ele>1181.8333333333335</ele><time>2026-04-18T14:18:49.999Z</time></trkpt><trkpt lat="43.11886307139176" lon="12.910861942381691"><ele>1182.6666666666667</ele><time>2026-04-18T14:18:50.999Z</time></trkpt><trkpt lat="43.11879700993267" lon="12.910901146353096"><ele>1183.5</ele><time>2026-04-18T14:18:51.999Z</time></trkpt><trkpt lat="43.118739786447485" lon="12.910950167334985"><ele>1184.3333333333333</ele><time>2026-04-18T14:18:52.999Z</time></trkpt><trkpt lat="43.118651029663944" lon="12.911058526935431"><ele>1185.1666666666665</ele><time>2026-04-18T14:18:54.999Z</time></trkpt><trkpt lat="43.11857456030835" lon="12.911163806498406"><ele>1186.0</ele><time>2026-04-18T14:18:56.999Z</time></trkpt><trkpt lat="43.11849514100309" lon="12.911246050050012"><ele>1185.8</ele><time>2026-04-18T14:18:58.999Z</time></trkpt><trkpt lat="43.11841732604364" lon="12.911361781997215"><ele>1185.6</ele><time>2026-04-18T14:19:00.999Z</time></trkpt><trkpt lat="43.11835380155599" lon="12.911468969165318"><ele>1185.4</ele><time>2026-04-18T14:19:02.999Z</time></trkpt><trkpt lat="43.11831544596791" lon="12.91156711020404"><ele>1185.2</ele><time>2026-04-18T14:19:05.998Z</time></trkpt><trkpt lat="43.1182117844181" lon="12.911562529943886"><ele>1185.0</ele><time>2026-04-18T14:19:42.999Z</time></trkpt><trkpt lat="43.118153398086584" lon="12.911515907584409"><ele>1185.0</ele><time>2026-04-18T14:19:43.999Z</time></trkpt><trkpt lat="43.118084461948364" lon="12.9114516155549"><ele>1185.0</ele><time>2026-04-18T14:19:44.999Z</time></trkpt><trkpt lat="43.11801633395849" lon="12.911383461887153"><ele>1185.0</ele><time>2026-04-18T14:19:45.999Z</time></trkpt><trkpt lat="43.11793104983416" lon="12.911307456901731"><ele>1185.0</ele><time>2026-04-18T14:19:46.999Z</time></trkpt><trkpt lat="43.11783691236326" lon="12.91123434635851"><ele>1185.0</ele><time>2026-04-18T14:19:47.999Z</time></trkpt><trkpt lat="43.11773662351574" lon="12.911160025336049"><ele>1185.0</ele><time>2026-04-18T14:19:48.999Z</time></trkpt><trkpt lat="43.11762920212627" lon="12.91109540556063"><ele>1185.0</ele><time>2026-04-18T14:19:49.999Z</time></trkpt><trkpt lat="43.117511104820856" lon="12.911039426375169"><ele>1185.0</ele><time>2026-04-18T14:19:50.999Z</time></trkpt><trkpt lat="43.11738734272096" lon="12.910984616832101"><ele>1185.0</ele><time>2026-04-18T14:19:51.999Z</time></trkpt><trkpt lat="43.117258943763986" lon="12.91092830614269"><ele>1186.25</ele><time>2026-04-18T14:19:52.999Z</time></trkpt><trkpt lat="43.117135233087744" lon="12.910872206378025"><ele>1187.5</ele><time>2026-04-18T14:19:53.999Z</time></trkpt><trkpt lat="43.11700665478804" lon="12.91081851147742"><ele>1188.75</ele><time>2026-04-18T14:19:54.999Z</time></trkpt><trkpt lat="43.116890695782104" lon="12.91076926185277"><ele>1190.0</ele><time>2026-04-18T14:19:55.999Z</time></trkpt><trkpt lat="43.116776200606" lon="12.910712906319834"><ele>1190.0</ele><time>2026-04-18T14:19:56.999Z</time></trkpt><trkpt lat="43.1166575759751" lon="12.910647770777784"><ele>1190.0</ele><time>2026-04-18T14:19:57.999Z</time></trkpt><trkpt lat="43.11654681930562" lon="12.910592614034876"><ele>1190.0</ele><time>2026-04-18T14:19:58.999Z</time></trkpt><trkpt lat="43.116455351885755" lon="12.910544013106515"><ele>1190.0</ele><time>2026-04-18T14:19:59.999Z</time></trkpt><trkpt lat="43.11638879787762" lon="12.91051292053502"><ele>1190.0</ele><time>2026-04-18T14:20:00.999Z</time></trkpt><trkpt lat="43.11631335146976" lon="12.910480438603969"><ele>1189.1666666666667</ele><time>2026-04-18T14:20:01.999Z</time></trkpt><trkpt lat="43.116178936315954" lon="12.910482314465732"><ele>1188.3333333333335</ele><time>2026-04-18T14:20:03.999Z</time></trkpt><trkpt lat="43.11610275678457" lon="12.910487263371005"><ele>1187.5</ele><time>2026-04-18T14:20:04.999Z</time></trkpt><trkpt lat="43.11603824305971" lon="12.910477789084762"><ele>1186.6666666666667</ele><time>2026-04-18T14:20:05.999Z</time></trkpt><trkpt lat="43.11597461528703" lon="12.910450251705253"><ele>1185.8333333333333</ele><time>2026-04-18T14:20:06.999Z</time></trkpt><trkpt lat="43.11587458055627" lon="12.910412810863244"><ele>1185.0</ele><time>2026-04-18T14:20:08.999Z</time></trkpt><trkpt lat="43.115811079882235" lon="12.910369646524352"><ele>1185.0</ele><time>2026-04-18T14:20:10.999Z</time></trkpt><trkpt lat="43.115740155720474" lon="12.910317087842422"><ele>1185.0</ele><time>2026-04-18T14:20:13.999Z</time></trkpt><trkpt lat="43.11566065686736" lon="12.910251797461223"><ele>1185.0</ele><time>2026-04-18T14:20:16.999Z</time></trkpt><trkpt lat="43.11560254676269" lon="12.910201720586223"><ele>1185.0</ele><time>2026-04-18T14:21:36Z</time></trkpt><trkpt lat="43.11555099181286" lon="12.91011752053863"><ele>1185.0</ele><time>2026-04-18T14:21:38Z</time></trkpt><trkpt lat="43.11549322478937" lon="12.910075471072284"><ele>1185.0</ele><time>2026-04-18T14:21:39.999Z</time></trkpt><trkpt lat="43.115415431254924" lon="12.91003420328878"><ele>1182.6</ele><time>2026-04-18T14:21:41.999Z</time></trkpt><trkpt lat="43.11535157783957" lon="12.90998339077058"><ele>1180.2</ele><time>2026-04-18T14:21:43.999Z</time></trkpt><trkpt lat="43.11526897101201" lon="12.909936219793533"><ele>1177.8</ele><time>2026-04-18T14:21:46.999Z</time></trkpt><trkpt lat="43.11520143183485" lon="12.909898573014624"><ele>1175.4</ele><time>2026-04-18T14:21:48.999Z</time></trkpt><trkpt lat="43.115069879984304" lon="12.909821983333691"><ele>1173.0</ele><time>2026-04-18T14:21:51.999Z</time></trkpt><trkpt lat="43.11502323159197" lon="12.909744775775122"><ele>1173.0</ele><time>2026-04-18T14:21:52.999Z</time></trkpt><trkpt lat="43.11497910802875" lon="12.909641990138624"><ele>1173.0</ele><time>2026-04-18T14:21:53.999Z</time></trkpt><trkpt lat="43.11492350120692" lon="12.909510238683634"><ele>1173.0</ele><time>2026-04-18T14:21:54.999Z</time></trkpt><trkpt lat="43.1148570470013" lon="12.909344040930174"><ele>1173.0</ele><time>2026-04-18T14:21:55.999Z</time></trkpt><trkpt lat="43.114799965247" lon="12.909203406544517"><ele>1170.4</ele><time>2026-04-18T14:21:56.999Z</time></trkpt><trkpt lat="43.11473987383063" lon="12.90908469804337"><ele>1167.8</ele><time>2026-04-18T14:21:57.999Z</time></trkpt><trkpt lat="43.11467715431724" lon="12.908991529443364"><ele>1165.2</ele><time>2026-04-18T14:21:58.999Z</time></trkpt><trkpt lat="43.114614691369155" lon="12.908919343643953"><ele>1162.6</ele><time>2026-04-18T14:21:59.999Z</time></trkpt><trkpt lat="43.114567316052884" lon="12.908846819768682"><ele>1160.0</ele><time>2026-04-18T14:22:00.999Z</time></trkpt><trkpt lat="43.114493758068804" lon="12.908727709641065"><ele>1160.0</ele><time>2026-04-18T14:22:02.999Z</time></trkpt><trkpt lat="43.11438096538896" lon="12.908683000456701"><ele>1160.0</ele><time>2026-04-18T14:22:04.999Z</time></trkpt><trkpt lat="43.114276213215774" lon="12.908715802928155"><ele>1160.0</ele><time>2026-04-18T14:22:06.999Z</time></trkpt><trkpt lat="43.11414894020657" lon="12.908730064873222"><ele>1160.0</ele><time>2026-04-18T14:22:08.999Z</time></trkpt><trkpt lat="43.114056925672095" lon="12.908728550855178"><ele>1160.0</ele><time>2026-04-18T14:22:09.999Z</time></trkpt><trkpt lat="43.1139521543487" lon="12.908702054147572"><ele>1158.6666666666667</ele><time>2026-04-18T14:22:10.999Z</time></trkpt><trkpt lat="43.1138505725279" lon="12.908692973589067"><ele>1157.3333333333335</ele><time>2026-04-18T14:22:11.999Z</time></trkpt><trkpt lat="43.11376533304595" lon="12.908718170527445"><ele>1156.0</ele><time>2026-04-18T14:22:12.999Z</time></trkpt><trkpt lat="43.1136818837355" lon="12.90871772454299"><ele>1154.6666666666667</ele><time>2026-04-18T14:22:13.999Z</time></trkpt><trkpt lat="43.113606570987805" lon="12.908738852769385"><ele>1153.3333333333333</ele><time>2026-04-18T14:22:14.999Z</time></trkpt><trkpt lat="43.11354860434364" lon="12.908772942427843"><ele>1152.0</ele><time>2026-04-18T14:22:15.999Z</time></trkpt><trkpt lat="43.113485674997115" lon="12.908777518602637"><ele>1152.0</ele><time>2026-04-18T14:22:16.999Z</time></trkpt><trkpt lat="43.11337693616163" lon="12.90874594713869"><ele>1152.0</ele><time>2026-04-18T14:22:18.999Z</time></trkpt><trkpt lat="43.113251214248976" lon="12.908777368409801"><ele>1152.0</ele><time>2026-04-18T14:22:20.999Z</time></trkpt><trkpt lat="43.1131535258503" lon="12.908859899721353"><ele>1152.0</ele><time>2026-04-18T14:22:22.999Z</time></trkpt><trkpt lat="43.1130417683163" lon="12.908863104771289"><ele>1150.3333333333333</ele><time>2026-04-18T14:22:24.999Z</time></trkpt><trkpt lat="43.11297465769363" lon="12.908880980551666"><ele>1148.6666666666667</ele><time>2026-04-18T14:22:25.999Z</time></trkpt><trkpt lat="43.11290304952362" lon="12.908907745301565"><ele>1147.0</ele><time>2026-04-18T14:22:26.999Z</time></trkpt><trkpt lat="43.1128392367752" lon="12.908904684798962"><ele>1145.3333333333335</ele><time>2026-04-18T14:22:27.999Z</time></trkpt><trkpt lat="43.11273523427368" lon="12.908867218388217"><ele>1143.6666666666667</ele><time>2026-04-18T14:22:29.999Z</time></trkpt><trkpt lat="43.11262658342717" lon="12.908780037093377"><ele>1142.0</ele><time>2026-04-18T14:22:31.999Z</time></trkpt><trkpt lat="43.11256750305306" lon="12.90872942665459"><ele>1142.0</ele><time>2026-04-18T14:22:32.999Z</time></trkpt><trkpt lat="43.11245081485279" lon="12.908648067163723"><ele>1142.0</ele><time>2026-04-18T14:22:34.999Z</time></trkpt><trkpt lat="43.11237588927886" lon="12.908592172352341"><ele>1142.0</ele><time>2026-04-18T14:22:35.999Z</time></trkpt><trkpt lat="43.112308851135445" lon="12.908546074465095"><ele>1142.0</ele><time>2026-04-18T14:22:36.999Z</time></trkpt><trkpt lat="43.11220193164954" lon="12.908472353205067"><ele>1142.0</ele><time>2026-04-18T14:22:38.999Z</time></trkpt><trkpt lat="43.112148156239144" lon="12.908422083587611"><ele>1139.6</ele><time>2026-04-18T14:22:39.999Z</time></trkpt><trkpt lat="43.11206033970003" lon="12.908308794482174"><ele>1137.2</ele><time>2026-04-18T14:22:41.999Z</time></trkpt><trkpt lat="43.1119798170601" lon="12.908256487199095"><ele>1134.8</ele><time>2026-04-18T14:22:42.999Z</time></trkpt><trkpt lat="43.11191361141243" lon="12.908240616896768"><ele>1132.4</ele><time>2026-04-18T14:22:43.999Z</time></trkpt><trkpt lat="43.11182684339635" lon="12.908205953428293"><ele>1130.0</ele><time>2026-04-18T14:22:44.999Z</time></trkpt><trkpt lat="43.1117262562456" lon="12.908139620220297"><ele>1130.0</ele><time>2026-04-18T14:22:46.999Z</time></trkpt><trkpt lat="43.11167933664691" lon="12.908065584725785"><ele>1130.0</ele><time>2026-04-18T14:22:47.999Z</time></trkpt><trkpt lat="43.11162211949021" lon="12.908018200155318"><ele>1130.0</ele><time>2026-04-18T14:22:48.999Z</time></trkpt><trkpt lat="43.111559660541566" lon="12.907987983089184"><ele>1130.0</ele><time>2026-04-18T14:22:49.999Z</time></trkpt><trkpt lat="43.11146572950945" lon="12.907972660270055"><ele>1130.0</ele><time>2026-04-18T14:22:50.999Z</time></trkpt><trkpt lat="43.11138704995377" lon="12.90794731302242"><ele>1130.0</ele><time>2026-04-18T14:22:51.999Z</time></trkpt><trkpt lat="43.11131255867051" lon="12.907927409291604"><ele>1128.8333333333335</ele><time>2026-04-18T14:22:52.999Z</time></trkpt><trkpt lat="43.111238467873775" lon="12.907904718886785"><ele>1127.6666666666667</ele><time>2026-04-18T14:22:53.999Z</time></trkpt><trkpt lat="43.11112788662246" lon="12.907866845187593"><ele>1126.5</ele><time>2026-04-18T14:22:55.999Z</time></trkpt><trkpt lat="43.11105473176794" lon="12.907876448713852"><ele>1125.3333333333333</ele><time>2026-04-18T14:22:57.999Z</time></trkpt><trkpt lat="43.11097372736574" lon="12.9079044043779"><ele>1124.1666666666665</ele><time>2026-04-18T14:22:59.999Z</time></trkpt><trkpt lat="43.11090058477534" lon="12.90790520916573"><ele>1123.0</ele><time>2026-04-18T14:23:02.999Z</time></trkpt><trkpt lat="43.11081704542534" lon="12.90798113071255"><ele>1123.0</ele><time>2026-04-18T14:23:06.999Z</time></trkpt><trkpt lat="43.110775660755735" lon="12.908060654707548"><ele>1123.0</ele><time>2026-04-18T14:23:07.999Z</time></trkpt><trkpt lat="43.11070865050714" lon="12.90815092997309"><ele>1123.0</ele><time>2026-04-18T14:23:09.998Z</time></trkpt><trkpt lat="43.11061884630888" lon="12.908194705731292"><ele>1123.0</ele><time>2026-04-18T14:23:11.998Z</time></trkpt><trkpt lat="43.1105162474244" lon="12.908185089837513"><ele>1123.0</ele><time>2026-04-18T14:23:13.998Z</time></trkpt><trkpt lat="43.11038075112626" lon="12.908189388020418"><ele>1122.8</ele><time>2026-04-18T14:23:15.998Z</time></trkpt><trkpt lat="43.11029900694035" lon="12.90819846930266"><ele>1122.6</ele><time>2026-04-18T14:23:16.998Z</time></trkpt><trkpt lat="43.110223871427195" lon="12.908207099677615"><ele>1122.4</ele><time>2026-04-18T14:23:17.998Z</time></trkpt><trkpt lat="43.110105715957204" lon="12.908231493038464"><ele>1122.2</ele><time>2026-04-18T14:23:19.998Z</time></trkpt><trkpt lat="43.10999742758137" lon="12.908225622619874"><ele>1122.0</ele><time>2026-04-18T14:23:21.998Z</time></trkpt><trkpt lat="43.10987803816046" lon="12.908191384774604"><ele>1122.0</ele><time>2026-04-18T14:23:22.998Z</time></trkpt><trkpt lat="43.10976754464245" lon="12.908160010724584"><ele>1122.0</ele><time>2026-04-18T14:23:23.998Z</time></trkpt><trkpt lat="43.10966354867433" lon="12.908118289616555"><ele>1122.0</ele><time>2026-04-18T14:23:24.998Z</time></trkpt><trkpt lat="43.10957511448405" lon="12.90809124091978"><ele>1122.0</ele><time>2026-04-18T14:23:25.998Z</time></trkpt><trkpt lat="43.10949716263614" lon="12.90809068379968"><ele>1122.0</ele><time>2026-04-18T14:23:27Z</time></trkpt><trkpt lat="43.109399342154056" lon="12.908089998030235"><ele>1122.0</ele><time>2026-04-18T14:23:28Z</time></trkpt><trkpt lat="43.10930969757367" lon="12.90809286093475"><ele>1122.0</ele><time>2026-04-18T14:23:29Z</time></trkpt><trkpt lat="43.10923756809509" lon="12.908090902378063"><ele>1122.0</ele><time>2026-04-18T14:23:30Z</time></trkpt><trkpt lat="43.10917610365078" lon="12.90806520512668"><ele>1122.0</ele><time>2026-04-18T14:23:31Z</time></trkpt><trkpt lat="43.10906071882388" lon="12.907993900520557"><ele>1122.0</ele><time>2026-04-18T14:23:33Z</time></trkpt><trkpt lat="43.10898935463428" lon="12.90797441313676"><ele>1122.0</ele><time>2026-04-18T14:23:34Z</time></trkpt><trkpt lat="43.108833786043384" lon="12.907985430501473"><ele>1118.2</ele><time>2026-04-18T14:23:36Z</time></trkpt><trkpt lat="43.10875258476046" lon="12.907964246869266"><ele>1114.4</ele><time>2026-04-18T14:23:37Z</time></trkpt><trkpt lat="43.10865259772757" lon="12.907910160195664"><ele>1110.6</ele><time>2026-04-18T14:23:38Z</time></trkpt><trkpt lat="43.108567809066486" lon="12.907842989477457"><ele>1106.8</ele><time>2026-04-18T14:23:39Z</time></trkpt><trkpt lat="43.10847399198885" lon="12.907797684841068"><ele>1103.0</ele><time>2026-04-18T14:23:40Z</time></trkpt><trkpt lat="43.10839330746137" lon="12.90774096108013"><ele>1103.0</ele><time>2026-04-18T14:23:41Z</time></trkpt><trkpt lat="43.10832070047138" lon="12.907691178736185"><ele>1103.0</ele><time>2026-04-18T14:23:42Z</time></trkpt><trkpt lat="43.108238178130534" lon="12.907665612460315"><ele>1103.0</ele><time>2026-04-18T14:23:43Z</time></trkpt><trkpt lat="43.10815040544042" lon="12.907642534241626"><ele>1103.0</ele><time>2026-04-18T14:23:44Z</time></trkpt><trkpt lat="43.108054579005646" lon="12.907623428980939"><ele>1103.0</ele><time>2026-04-18T14:23:45Z</time></trkpt><trkpt lat="43.10795121943267" lon="12.907602927012022"><ele>1104.8</ele><time>2026-04-18T14:23:46Z</time></trkpt><trkpt lat="43.1078436369315" lon="12.907569390959091"><ele>1106.6</ele><time>2026-04-18T14:23:47Z</time></trkpt><trkpt lat="43.107730196529104" lon="12.907528599368481"><ele>1108.4</ele><time>2026-04-18T14:23:48Z</time></trkpt><trkpt lat="43.107621918480255" lon="12.907505335728812"><ele>1110.2</ele><time>2026-04-18T14:23:49Z</time></trkpt><trkpt lat="43.107531432389365" lon="12.907475711155453"><ele>1112.0</ele><time>2026-04-18T14:23:50Z</time></trkpt><trkpt lat="43.10745603586877" lon="12.90741940344679"><ele>1109.0</ele><time>2026-04-18T14:23:51Z</time></trkpt><trkpt lat="43.10738991357752" lon="12.907362724937213"><ele>1106.0</ele><time>2026-04-18T14:23:52Z</time></trkpt><trkpt lat="43.107310812557316" lon="12.907299166961527"><ele>1103.0</ele><time>2026-04-18T14:23:53Z</time></trkpt><trkpt lat="43.10723543090645" lon="12.907251186058138"><ele>1100.0</ele><time>2026-04-18T14:23:53.999Z</time></trkpt><trkpt lat="43.10716628772699" lon="12.907205470945268"><ele>1097.0</ele><time>2026-04-18T14:23:54.999Z</time></trkpt><trkpt lat="43.1070814607299" lon="12.907135917051704"><ele>1094.0</ele><time>2026-04-18T14:23:56.999Z</time></trkpt><trkpt lat="43.10696870600579" lon="12.907083729551063"><ele>1094.0</ele><time>2026-04-18T14:23:58.999Z</time></trkpt><trkpt lat="43.10685566859337" lon="12.90703439380877"><ele>1094.0</ele><time>2026-04-18T14:24:00.999Z</time></trkpt><trkpt lat="43.10674356255766" lon="12.907045042135657"><ele>1094.0</ele><time>2026-04-18T14:24:02.999Z</time></trkpt><trkpt lat="43.10665732481188" lon="12.907112214262845"><ele>1094.0</ele><time>2026-04-18T14:24:04.999Z</time></trkpt><trkpt lat="43.10656565150346" lon="12.90722163663063"><ele>1089.3333333333335</ele><time>2026-04-18T14:24:06.999Z</time></trkpt><trkpt lat="43.10648433406687" lon="12.907251990001262"><ele>1084.6666666666667</ele><time>2026-04-18T14:24:08.999Z</time></trkpt><trkpt lat="43.10640456228604" lon="12.90725479856008"><ele>1080.0</ele><time>2026-04-18T14:24:10.999Z</time></trkpt><trkpt lat="43.10634176494139" lon="12.907236746475942"><ele>1075.3333333333333</ele><time>2026-04-18T14:24:11.999Z</time></trkpt><trkpt lat="43.10627444721452" lon="12.907218721950922"><ele>1070.6666666666665</ele><time>2026-04-18T14:24:12.999Z</time></trkpt><trkpt lat="43.106202206864374" lon="12.907201151350408"><ele>1066.0</ele><time>2026-04-18T14:24:13.999Z</time></trkpt><trkpt lat="43.10608415999358" lon="12.90718900145423"><ele>1066.0</ele><time>2026-04-18T14:24:15.999Z</time></trkpt><trkpt lat="43.105954627734995" lon="12.907197246000534"><ele>1066.0</ele><time>2026-04-18T14:24:17.999Z</time></trkpt><trkpt lat="43.1058734808115" lon="12.90720043478553"><ele>1066.0</ele><time>2026-04-18T14:24:18.999Z</time></trkpt><trkpt lat="43.10580384114784" lon="12.907208824866412"><ele>1066.0</ele><time>2026-04-18T14:24:19.999Z</time></trkpt><trkpt lat="43.10573639500346" lon="12.907201318652472"><ele>1066.0</ele><time>2026-04-18T14:24:20.999Z</time></trkpt><trkpt lat="43.10567284419604" lon="12.907183356314826"><ele>1066.0</ele><time>2026-04-18T14:24:21.999Z</time></trkpt><trkpt lat="43.1055672040112" lon="12.907078988578416"><ele>1062.0</ele><time>2026-04-18T14:24:23.999Z</time></trkpt><trkpt lat="43.10544898669054" lon="12.907018394023495"><ele>1058.0</ele><time>2026-04-18T14:24:25.999Z</time></trkpt><trkpt lat="43.10537880120571" lon="12.906991997422846"><ele>1054.0</ele><time>2026-04-18T14:24:26.999Z</time></trkpt><trkpt lat="43.10529365695399" lon="12.906928223578635"><ele>1050.0</ele><time>2026-04-18T14:24:28.999Z</time></trkpt><trkpt lat="43.10524445214752" lon="12.906828894007296"><ele>1046.0</ele><time>2026-04-18T14:24:31.999Z</time></trkpt><trkpt lat="43.10522563744589" lon="12.906716639503626"><ele>1046.0</ele><time>2026-04-18T14:24:34.999Z</time></trkpt><trkpt lat="43.10514232416991" lon="12.906677776192494"><ele>1046.0</ele><time>2026-04-18T14:24:38.999Z</time></trkpt><trkpt lat="43.10503995137178" lon="12.906638321916756"><ele>1046.0</ele><time>2026-04-18T14:24:41.999Z</time></trkpt><trkpt lat="43.10502229870637" lon="12.906540474027985"><ele>1046.0</ele><time>2026-04-18T14:24:43.999Z</time></trkpt><trkpt lat="43.10500256756684" lon="12.906450491020497"><ele>1046.0</ele><time>2026-04-18T14:24:45.999Z</time></trkpt><trkpt lat="43.10494420160623" lon="12.906387844976171"><ele>1046.0</ele><time>2026-04-18T14:24:47.999Z</time></trkpt><trkpt lat="43.10484731860379" lon="12.906385654953317"><ele>1040.6</ele><time>2026-04-18T14:24:49.999Z</time></trkpt><trkpt lat="43.104762175124804" lon="12.906353998863285"><ele>1035.1999999999998</ele><time>2026-04-18T14:24:51.999Z</time></trkpt><trkpt lat="43.10473166115236" lon="12.906266614050232"><ele>1029.8000000000002</ele><time>2026-04-18T14:24:54.999Z</time></trkpt><trkpt lat="43.10466923184612" lon="12.906066225638694"><ele>1024.4</ele><time>2026-04-18T14:24:57.999Z</time></trkpt><trkpt lat="43.10468739966751" lon="12.905965228588297"><ele>1019.0</ele><time>2026-04-18T14:25:00.999Z</time></trkpt><trkpt lat="43.10474068521267" lon="12.905851384416287"><ele>1018.0000000000001</ele><time>2026-04-18T14:25:01.999Z</time></trkpt><trkpt lat="43.104783846588376" lon="12.905742477944875"><ele>1017.0</ele><time>2026-04-18T14:25:03.999Z</time></trkpt><trkpt lat="43.104836852641846" lon="12.905623119958259"><ele>1016.0</ele><time>2026-04-18T14:25:05.999Z</time></trkpt><trkpt lat="43.10481242595239" lon="12.905526031240063"><ele>1015.0</ele><time>2026-04-18T14:25:11.999Z</time></trkpt><trkpt lat="43.10482920734007" lon="12.905417931273307"><ele>1014.0000000000001</ele><time>2026-04-18T14:25:13.999Z</time></trkpt><trkpt lat="43.1048851878965" lon="12.905309875076913"><ele>1013.0</ele><time>2026-04-18T14:25:15.999Z</time></trkpt><trkpt lat="43.10491540642897" lon="12.905233237111348"><ele>1013.0</ele><time>2026-04-18T14:25:17.999Z</time></trkpt><trkpt lat="43.1049113883958" lon="12.90510558978431"><ele>1013.0</ele><time>2026-04-18T14:25:20.998Z</time></trkpt><trkpt lat="43.10490670287507" lon="12.904982427069541"><ele>1013.0</ele><time>2026-04-18T14:25:23.998Z</time></trkpt><trkpt lat="43.104872322138235" lon="12.904900122446309"><ele>1013.0</ele><time>2026-04-18T14:25:25.998Z</time></trkpt><trkpt lat="43.1047998233349" lon="12.904839447787927"><ele>1013.0</ele><time>2026-04-18T14:25:28.998Z</time></trkpt><trkpt lat="43.104688589014" lon="12.9048083593788"><ele>1011.3333333333334</ele><time>2026-04-18T14:25:30.998Z</time></trkpt><trkpt lat="43.1046056720415" lon="12.904768214588719"><ele>1009.6666666666667</ele><time>2026-04-18T14:25:33Z</time></trkpt><trkpt lat="43.104544544562835" lon="12.904662914092883"><ele>1008.0</ele><time>2026-04-18T14:25:35Z</time></trkpt><trkpt lat="43.104459737995015" lon="12.904612692920093"><ele>1006.3333333333333</ele><time>2026-04-18T14:25:37Z</time></trkpt><trkpt lat="43.104384426688256" lon="12.904623375302021"><ele>1004.6666666666666</ele><time>2026-04-18T14:25:40Z</time></trkpt><trkpt lat="43.10432388968679" lon="12.904661446890637"><ele>1003.0</ele><time>2026-04-18T14:25:43Z</time></trkpt><trkpt lat="43.10425074715515" lon="12.904641296543717"><ele>1002.9999999999999</ele><time>2026-04-18T14:25:45Z</time></trkpt><trkpt lat="43.104177808651464" lon="12.904616890694731"><ele>1003.0</ele><time>2026-04-18T14:25:49Z</time></trkpt><trkpt lat="43.10409000145073" lon="12.90463618134609"><ele>1003.0</ele><time>2026-04-18T14:25:53Z</time></trkpt><trkpt lat="43.103997574289664" lon="12.90464847683793"><ele>1003.0</ele><time>2026-04-18T14:25:56Z</time></trkpt><trkpt lat="43.103931127762976" lon="12.904673696372154"><ele>1002.9999999999999</ele><time>2026-04-18T14:25:58Z</time></trkpt><trkpt lat="43.10385764981158" lon="12.904687742838203"><ele>1003.0</ele><time>2026-04-18T14:26:00Z</time></trkpt><trkpt lat="43.10378381117169" lon="12.904689305219598"><ele>1002.9999999999999</ele><time>2026-04-18T14:26:02Z</time></trkpt><trkpt lat="43.10371620002584" lon="12.90469486160435"><ele>1003.0</ele><time>2026-04-18T14:26:04Z</time></trkpt><trkpt lat="43.10363548067799" lon="12.904734786598347"><ele>1003.0</ele><time>2026-04-18T14:26:05.999Z</time></trkpt><trkpt lat="43.103562923132934" lon="12.904812930318144"><ele>1003.0</ele><time>2026-04-18T14:26:07.999Z</time></trkpt><trkpt lat="43.10350159392305" lon="12.90485744033534"><ele>1002.9999999999999</ele><time>2026-04-18T14:26:08.999Z</time></trkpt><trkpt lat="43.1034330099324" lon="12.904892333325705"><ele>1003.0</ele><time>2026-04-18T14:26:09.999Z</time></trkpt><trkpt lat="43.103356412838394" lon="12.904917912863423"><ele>1002.9999999999999</ele><time>2026-04-18T14:26:10.999Z</time></trkpt><trkpt lat="43.10329085871776" lon="12.90493360353861"><ele>1003.0</ele><time>2026-04-18T14:26:11.999Z</time></trkpt><trkpt lat="43.10319594818005" lon="12.905023052963413"><ele>1003.0</ele><time>2026-04-18T14:26:13.999Z</time></trkpt><trkpt lat="43.103104327720764" lon="12.905049968944635"><ele>1003.0</ele><time>2026-04-18T14:26:15.999Z</time></trkpt><trkpt lat="43.103019709248365" lon="12.905076531598205"><ele>1002.9999999999999</ele><time>2026-04-18T14:26:19.999Z</time></trkpt><trkpt lat="43.10295172106048" lon="12.905055372112665"><ele>1003.0</ele><time>2026-04-18T14:26:21.999Z</time></trkpt><trkpt lat="43.102862544623314" lon="12.905069361813998"><ele>1002.6666666666666</ele><time>2026-04-18T14:26:23.999Z</time></trkpt><trkpt lat="43.102814571607794" lon="12.905130258294612"><ele>1002.3333333333333</ele><time>2026-04-18T14:26:26.999Z</time></trkpt><trkpt lat="43.1027335390223" lon="12.905141709540874"><ele>1002.0</ele><time>2026-04-18T14:26:28.999Z</time></trkpt><trkpt lat="43.10263605221598" lon="12.905165375400635"><ele>1001.6666666666667</ele><time>2026-04-18T14:26:30.999Z</time></trkpt><trkpt lat="43.10251589745219" lon="12.9051341969659"><ele>1001.3333333333334</ele><time>2026-04-18T14:26:32.999Z</time></trkpt><trkpt lat="43.10245204709377" lon="12.905082324056679"><ele>1001.0</ele><time>2026-04-18T14:26:33.999Z</time></trkpt><trkpt lat="43.10238623094303" lon="12.905058754386385"><ele>1001.0</ele><time>2026-04-18T14:26:34.999Z</time></trkpt><trkpt lat="43.102255433561794" lon="12.90502876141565"><ele>1000.9999999999999</ele><time>2026-04-18T14:26:36.999Z</time></trkpt><trkpt lat="43.10217135279932" lon="12.90499771377899"><ele>1000.9999999999999</ele><time>2026-04-18T14:26:37.999Z</time></trkpt><trkpt lat="43.10209999578071" lon="12.90496258345008"><ele>1001.0</ele><time>2026-04-18T14:26:38.999Z</time></trkpt><trkpt lat="43.10202256832042" lon="12.90492696723682"><ele>1001.0</ele><time>2026-04-18T14:26:39.999Z</time></trkpt><trkpt lat="43.101937571908074" lon="12.904879880151347"><ele>1001.0000000000001</ele><time>2026-04-18T14:26:40.999Z</time></trkpt><trkpt lat="43.101848173876206" lon="12.904847080930626"><ele>1001.0</ele><time>2026-04-18T14:26:41.999Z</time></trkpt><trkpt lat="43.10177718759628" lon="12.90480241763438"><ele>1001.0</ele><time>2026-04-18T14:26:42.999Z</time></trkpt><trkpt lat="43.101698814457166" lon="12.904769210539955"><ele>1001.0</ele><time>2026-04-18T14:26:43.999Z</time></trkpt><trkpt lat="43.101623198722955" lon="12.904745040045631"><ele>1001.0000000000001</ele><time>2026-04-18T14:26:44.999Z</time></trkpt><trkpt lat="43.101544681733415" lon="12.90470806476195"><ele>1001.0</ele><time>2026-04-18T14:26:45.999Z</time></trkpt><trkpt lat="43.10148939191593" lon="12.904650307589415"><ele>993.25</ele><time>2026-04-18T14:26:46.999Z</time></trkpt><trkpt lat="43.10138409818031" lon="12.904505466004998"><ele>985.5</ele><time>2026-04-18T14:26:48.999Z</time></trkpt><trkpt lat="43.10132345471925" lon="12.904431810986361"><ele>977.75</ele><time>2026-04-18T14:26:49.999Z</time></trkpt><trkpt lat="43.101234303345834" lon="12.904416572903404"><ele>970.0</ele><time>2026-04-18T14:26:51.999Z</time></trkpt><trkpt lat="43.10111072803327" lon="12.904351926617808"><ele>969.9999999999999</ele><time>2026-04-18T14:26:53.999Z</time></trkpt><trkpt lat="43.101037676242" lon="12.90430057056149"><ele>970.0</ele><time>2026-04-18T14:26:54.999Z</time></trkpt><trkpt lat="43.100977132780876" lon="12.904247515285462"><ele>970.0</ele><time>2026-04-18T14:26:55.999Z</time></trkpt><trkpt lat="43.100908815331614" lon="12.9041535887565"><ele>970.0</ele><time>2026-04-18T14:26:57.999Z</time></trkpt><trkpt lat="43.10084564500075" lon="12.904105521842498"><ele>969.9999999999999</ele><time>2026-04-18T14:27:00.999Z</time></trkpt><trkpt lat="43.10083065333237" lon="12.90400909545763"><ele>970.0</ele><time>2026-04-18T14:27:03.999Z</time></trkpt><trkpt lat="43.10075681259254" lon="12.90398283615449"><ele>969.8</ele><time>2026-04-18T14:27:05.999Z</time></trkpt><trkpt lat="43.100680016121515" lon="12.903978265589199"><ele>969.6</ele><time>2026-04-18T14:27:07.999Z</time></trkpt><trkpt lat="43.100576261787566" lon="12.903921776447598"><ele>969.4000000000001</ele><time>2026-04-18T14:27:09.999Z</time></trkpt><trkpt lat="43.10048505757635" lon="12.90386278217132"><ele>969.2</ele><time>2026-04-18T14:27:11.999Z</time></trkpt><trkpt lat="43.100387115898876" lon="12.903795956675957"><ele>969.0</ele><time>2026-04-18T14:27:13.999Z</time></trkpt><trkpt lat="43.10033750316505" lon="12.9037093703797"><ele>969.0</ele><time>2026-04-18T14:27:15.999Z</time></trkpt><trkpt lat="43.10027157408485" lon="12.903652504254088"><ele>969.0</ele><time>2026-04-18T14:27:18.999Z</time></trkpt><trkpt lat="43.100199501114886" lon="12.903671810902969"><ele>969.0</ele><time>2026-04-18T14:27:20.999Z</time></trkpt><trkpt lat="43.100120880108115" lon="12.903699325689002"><ele>969.0</ele><time>2026-04-18T14:27:21.999Z</time></trkpt><trkpt lat="43.10005097787746" lon="12.90376335262768"><ele>969.0</ele><time>2026-04-18T14:27:22.999Z</time></trkpt><trkpt lat="43.09997606240154" lon="12.903808531829743"><ele>969.0</ele><time>2026-04-18T14:27:23.999Z</time></trkpt><trkpt lat="43.09989431535157" lon="12.903832032878993"><ele>968.8333333333334</ele><time>2026-04-18T14:27:24.999Z</time></trkpt><trkpt lat="43.09982985313014" lon="12.903822971300029"><ele>968.6666666666667</ele><time>2026-04-18T14:27:25.999Z</time></trkpt><trkpt lat="43.099748246170016" lon="12.903803998013238"><ele>968.5</ele><time>2026-04-18T14:27:26.999Z</time></trkpt><trkpt lat="43.09965733072535" lon="12.90376656087693"><ele>968.3333333333334</ele><time>2026-04-18T14:27:27.999Z</time></trkpt><trkpt lat="43.09956346783096" lon="12.903761611274938"><ele>968.1666666666667</ele><time>2026-04-18T14:27:28.999Z</time></trkpt><trkpt lat="43.0994873388511" lon="12.90376916924233"><ele>968.0</ele><time>2026-04-18T14:27:29.999Z</time></trkpt><trkpt lat="43.09936789159373" lon="12.903722670579356"><ele>968.0</ele><time>2026-04-18T14:27:31.998Z</time></trkpt><trkpt lat="43.099267206629456" lon="12.90362436727812"><ele>968.0</ele><time>2026-04-18T14:27:33.998Z</time></trkpt><trkpt lat="43.09918025713001" lon="12.903630442260374"><ele>968.0</ele><time>2026-04-18T14:27:36.998Z</time></trkpt><trkpt lat="43.099112710237975" lon="12.903690601600756"><ele>968.0</ele><time>2026-04-18T14:27:39Z</time></trkpt><trkpt lat="43.099044426502964" lon="12.903763206099732"><ele>968.0</ele><time>2026-04-18T14:27:41Z</time></trkpt><trkpt lat="43.098943856234925" lon="12.90381534966987"><ele>968.5000000000001</ele><time>2026-04-18T14:27:43Z</time></trkpt><trkpt lat="43.098852447362454" lon="12.903850303597249"><ele>969.0</ele><time>2026-04-18T14:27:45Z</time></trkpt><trkpt lat="43.09877828143968" lon="12.903899001473643"><ele>969.5</ele><time>2026-04-18T14:27:47Z</time></trkpt><trkpt lat="43.09868085768936" lon="12.903920643939106"><ele>970.0</ele><time>2026-04-18T14:27:49Z</time></trkpt><trkpt lat="43.0986053615681" lon="12.903954489181455"><ele>970.5000000000001</ele><time>2026-04-18T14:27:51Z</time></trkpt><trkpt lat="43.098538097053456" lon="12.903938209815266"><ele>971.0</ele><time>2026-04-18T14:27:55Z</time></trkpt><trkpt lat="43.098445632399944" lon="12.903878037803604"><ele>971.0000000000001</ele><time>2026-04-18T14:27:58Z</time></trkpt><trkpt lat="43.098363180801734" lon="12.903848623820894"><ele>971.0</ele><time>2026-04-18T14:28:00Z</time></trkpt><trkpt lat="43.09829676874191" lon="12.903809157986705"><ele>971.0</ele><time>2026-04-18T14:28:01Z</time></trkpt><trkpt lat="43.09822068867579" lon="12.903785343180108"><ele>971.0</ele><time>2026-04-18T14:28:02Z</time></trkpt><trkpt lat="43.098148403954816" lon="12.903761397715215"><ele>971.0000000000001</ele><time>2026-04-18T14:28:03Z</time></trkpt><trkpt lat="43.09807556623477" lon="12.903723742797938"><ele>971.0</ele><time>2026-04-18T14:28:04Z</time></trkpt><trkpt lat="43.09801222342179" lon="12.90366706962241"><ele>970.5999999999999</ele><time>2026-04-18T14:28:06Z</time></trkpt><trkpt lat="43.09790696790822" lon="12.903612092915756"><ele>970.1999999999999</ele><time>2026-04-18T14:28:08Z</time></trkpt><trkpt lat="43.09784024396839" lon="12.90357827126707"><ele>969.8000000000001</ele><time>2026-04-18T14:28:10Z</time></trkpt><trkpt lat="43.09774608887778" lon="12.903473182961186"><ele>969.4000000000001</ele><time>2026-04-18T14:28:14Z</time></trkpt><trkpt lat="43.097698169490904" lon="12.90339964556776"><ele>969.0</ele><time>2026-04-18T14:28:15Z</time></trkpt><trkpt lat="43.09760930104587" lon="12.903287730013602"><ele>968.6</ele><time>2026-04-18T14:28:15.999Z</time></trkpt><trkpt lat="43.0975725804741" lon="12.90317312021454"><ele>968.2</ele><time>2026-04-18T14:28:16.999Z</time></trkpt><trkpt lat="43.097521686697064" lon="12.903071917995108"><ele>967.8000000000001</ele><time>2026-04-18T14:28:18.999Z</time></trkpt><trkpt lat="43.0974516500652" lon="12.90294666763126"><ele>967.4000000000001</ele><time>2026-04-18T14:28:20.999Z</time></trkpt><trkpt lat="43.0974428769413" lon="12.902790480304503"><ele>967.0</ele><time>2026-04-18T14:28:22.999Z</time></trkpt><trkpt lat="43.097418180427866" lon="12.90265749338828"><ele>973.8333333333333</ele><time>2026-04-18T14:28:24.999Z</time></trkpt><trkpt lat="43.097389281003636" lon="12.902535324017386"><ele>980.6666666666666</ele><time>2026-04-18T14:28:26.999Z</time></trkpt><trkpt lat="43.09735103963571" lon="12.902447282296297"><ele>987.5</ele><time>2026-04-18T14:28:29.999Z</time></trkpt><trkpt lat="43.09733473424021" lon="12.902343582904006"><ele>994.3333333333333</ele><time>2026-04-18T14:28:32.999Z</time></trkpt><trkpt lat="43.09733893003296" lon="12.902254668919895"><ele>1001.1666666666666</ele><time>2026-04-18T14:28:33.999Z</time></trkpt><trkpt lat="43.09731361471884" lon="12.902125402303254"><ele>1008.0</ele><time>2026-04-18T14:28:35.999Z</time></trkpt><trkpt lat="43.09729384456818" lon="12.902005493078844"><ele>1008.0</ele><time>2026-04-18T14:28:37.999Z</time></trkpt><trkpt lat="43.09730555310136" lon="12.901887229217879"><ele>1008.0</ele><time>2026-04-18T14:28:39.999Z</time></trkpt><trkpt lat="43.09724006620214" lon="12.901786452713809"><ele>1008.0</ele><time>2026-04-18T14:28:41.999Z</time></trkpt><trkpt lat="43.097219218907185" lon="12.901701035185528"><ele>1008.0</ele><time>2026-04-18T14:28:43.999Z</time></trkpt><trkpt lat="43.097199937139884" lon="12.90158584101321"><ele>1008.0</ele><time>2026-04-18T14:28:45.999Z</time></trkpt><trkpt lat="43.097205957313676" lon="12.90144437281109"><ele>1008.0</ele><time>2026-04-18T14:28:47.999Z</time></trkpt><trkpt lat="43.0971815843721" lon="12.901321896542077"><ele>1009.75</ele><time>2026-04-18T14:28:49.999Z</time></trkpt><trkpt lat="43.0971957007697" lon="12.901161468571575"><ele>1011.5</ele><time>2026-04-18T14:28:51.999Z</time></trkpt><trkpt lat="43.09712005452147" lon="12.90101601978912"><ele>1013.25</ele><time>2026-04-18T14:28:53.999Z</time></trkpt><trkpt lat="43.097117926259855" lon="12.90079721820931"><ele>1015.0</ele><time>2026-04-18T14:28:55.999Z</time></trkpt><trkpt lat="43.09710275829746" lon="12.900644635655974"><ele>1015.4285714285714</ele><time>2026-04-18T14:28:57.999Z</time></trkpt><trkpt lat="43.097082185413974" lon="12.900557929449509"><ele>1015.8571428571429</ele><time>2026-04-18T14:28:59.999Z</time></trkpt><trkpt lat="43.09702607204943" lon="12.900501069417095"><ele>1016.2857142857142</ele><time>2026-04-18T14:29:02.999Z</time></trkpt><trkpt lat="43.09696421843361" lon="12.900437039711226"><ele>1016.7142857142857</ele><time>2026-04-18T14:29:05.999Z</time></trkpt><trkpt lat="43.096933634484884" lon="12.900349782825653"><ele>1017.1428571428571</ele><time>2026-04-18T14:29:08.999Z</time></trkpt><trkpt lat="43.0969385478434" lon="12.90024298033592"><ele>1017.5714285714284</ele><time>2026-04-18T14:29:10.999Z</time></trkpt><trkpt lat="43.09690468264211" lon="12.900135985244747"><ele>1017.9999999999999</ele><time>2026-04-18T14:29:12.999Z</time></trkpt><trkpt lat="43.09689647439141" lon="12.900028051058861"><ele>1017.9999999999999</ele><time>2026-04-18T14:29:15.999Z</time></trkpt><trkpt lat="43.09683075535184" lon="12.900022599324057"><ele>1018.0</ele><time>2026-04-18T14:29:20.999Z</time></trkpt><trkpt lat="43.09676586152697" lon="12.899988419882678"><ele>1018.0</ele><time>2026-04-18T14:29:22.999Z</time></trkpt><trkpt lat="43.09672110929861" lon="12.899911970758843"><ele>1018.0</ele><time>2026-04-18T14:29:25.999Z</time></trkpt><trkpt lat="43.09665378369674" lon="12.899874650833787"><ele>1017.9999999999999</ele><time>2026-04-18T14:29:27.999Z</time></trkpt><trkpt lat="43.096549925255594" lon="12.89984596035277"><ele>1018.0</ele><time>2026-04-18T14:29:30.999Z</time></trkpt><trkpt lat="43.0964869712771" lon="12.899828767735883"><ele>1021.6666666666666</ele><time>2026-04-18T14:29:31.999Z</time></trkpt><trkpt lat="43.096417994851585" lon="12.899813576454727"><ele>1025.3333333333333</ele><time>2026-04-18T14:29:33.999Z</time></trkpt><trkpt lat="43.09635433547782" lon="12.899804887920942"><ele>1029.0</ele><time>2026-04-18T14:29:35.999Z</time></trkpt><trkpt lat="43.096288189069256" lon="12.899728503283612"><ele>1032.6666666666667</ele><time>2026-04-18T14:29:37.999Z</time></trkpt><trkpt lat="43.09621182770204" lon="12.899655794261196"><ele>1036.3333333333335</ele><time>2026-04-18T14:29:39.999Z</time></trkpt><trkpt lat="43.0961199270112" lon="12.89954659585082"><ele>1040.0</ele><time>2026-04-18T14:29:41.998Z</time></trkpt><trkpt lat="43.0960420093805" lon="12.899435096140577"><ele>1040.0</ele><time>2026-04-18T14:29:45Z</time></trkpt><trkpt lat="43.09596915787059" lon="12.899368193654347"><ele>1040.0</ele><time>2026-04-18T14:29:47Z</time></trkpt><trkpt lat="43.09592404439976" lon="12.89929036340359"><ele>1040.0</ele><time>2026-04-18T14:29:49Z</time></trkpt><trkpt lat="43.095865966096916" lon="12.899229232658303"><ele>1040.0</ele><time>2026-04-18T14:29:51Z</time></trkpt><trkpt lat="43.09580797696303" lon="12.899150727589074"><ele>1040.0</ele><time>2026-04-18T14:29:53Z</time></trkpt><trkpt lat="43.095757150687156" lon="12.899089206759133"><ele>1040.0</ele><time>2026-04-18T14:29:56Z</time></trkpt><trkpt lat="43.09565542395924" lon="12.899006761136585"><ele>1046.2</ele><time>2026-04-18T14:29:58Z</time></trkpt><trkpt lat="43.09559519238357" lon="12.898886916240752"><ele>1052.4</ele><time>2026-04-18T14:30:01Z</time></trkpt><trkpt lat="43.095537798198094" lon="12.898757964499769"><ele>1058.6</ele><time>2026-04-18T14:30:03Z</time></trkpt><trkpt lat="43.09547214537489" lon="12.898697570717614"><ele>1064.8</ele><time>2026-04-18T14:30:04Z</time></trkpt><trkpt lat="43.09538060755043" lon="12.89862272214789"><ele>1071.0</ele><time>2026-04-18T14:30:05Z</time></trkpt><trkpt lat="43.095323898047035" lon="12.898560896111771"><ele>1071.0</ele><time>2026-04-18T14:30:06Z</time></trkpt><trkpt lat="43.09524184759437" lon="12.89843875818947"><ele>1071.0</ele><time>2026-04-18T14:30:08Z</time></trkpt><trkpt lat="43.09519588688884" lon="12.898377268876397"><ele>1071.0</ele><time>2026-04-18T14:30:09Z</time></trkpt><trkpt lat="43.09511384605211" lon="12.898345347286563"><ele>1071.0</ele><time>2026-04-18T14:30:11Z</time></trkpt><trkpt lat="43.09500819930737" lon="12.89827488580116"><ele>1071.0</ele><time>2026-04-18T14:30:13Z</time></trkpt><trkpt lat="43.094910946966095" lon="12.898244303531063"><ele>1070.1666666666667</ele><time>2026-04-18T14:30:15Z</time></trkpt><trkpt lat="43.09485382576712" lon="12.898205410052457"><ele>1069.3333333333333</ele><time>2026-04-18T14:30:16Z</time></trkpt><trkpt lat="43.09476309247897" lon="12.898185916796487"><ele>1068.5</ele><time>2026-04-18T14:30:19Z</time></trkpt><trkpt lat="43.09466343921945" lon="12.89819220576921"><ele>1067.6666666666665</ele><time>2026-04-18T14:30:21Z</time></trkpt><trkpt lat="43.09458168055298" lon="12.89817482032288"><ele>1066.8333333333333</ele><time>2026-04-18T14:30:22Z</time></trkpt><trkpt lat="43.09450487031939" lon="12.898150022082792"><ele>1066.0</ele><time>2026-04-18T14:30:24Z</time></trkpt><trkpt lat="43.09443215173787" lon="12.89811606729207"><ele>1066.0</ele><time>2026-04-18T14:30:27Z</time></trkpt><trkpt lat="43.09436272005621" lon="12.89812401755828"><ele>1066.0</ele><time>2026-04-18T14:30:28.999Z</time></trkpt><trkpt lat="43.094293847252715" lon="12.898108575780691"><ele>1066.0</ele><time>2026-04-18T14:30:30.999Z</time></trkpt><trkpt lat="43.09424127906842" lon="12.898049209701814"><ele>1066.0</ele><time>2026-04-18T14:30:32.999Z</time></trkpt><trkpt lat="43.0941742944978" lon="12.897928633081595"><ele>1066.0</ele><time>2026-04-18T14:30:34.999Z</time></trkpt><trkpt lat="43.09411797517696" lon="12.897876743859952"><ele>1066.0</ele><time>2026-04-18T14:30:36.999Z</time></trkpt><trkpt lat="43.0940297092779" lon="12.897838000021583"><ele>1070.8333333333333</ele><time>2026-04-18T14:30:38.999Z</time></trkpt><trkpt lat="43.09394195562499" lon="12.897826282155762"><ele>1075.6666666666665</ele><time>2026-04-18T14:30:40.999Z</time></trkpt><trkpt lat="43.09386298853741" lon="12.89784604122854"><ele>1080.5</ele><time>2026-04-18T14:30:41.999Z</time></trkpt><trkpt lat="43.093789957680066" lon="12.897882062283426"><ele>1085.3333333333333</ele><time>2026-04-18T14:30:43.999Z</time></trkpt><trkpt lat="43.09369935597372" lon="12.897919998310451"><ele>1090.1666666666667</ele><time>2026-04-18T14:30:45.999Z</time></trkpt><trkpt lat="43.09362539181292" lon="12.897962649049466"><ele>1095.0</ele><time>2026-04-18T14:30:47.999Z</time></trkpt><trkpt lat="43.093510000109816" lon="12.897945585303443"><ele>1095.0</ele><time>2026-04-18T14:30:49.999Z</time></trkpt><trkpt lat="43.09340670358729" lon="12.89797970617684"><ele>1095.0</ele><time>2026-04-18T14:30:51.999Z</time></trkpt><trkpt lat="43.09331048393503" lon="12.897981700331659"><ele>1095.0</ele><time>2026-04-18T14:30:53.999Z</time></trkpt><trkpt lat="43.09324437598793" lon="12.897940417733775"><ele>1095.0</ele><time>2026-04-18T14:30:55.999Z</time></trkpt><trkpt lat="43.09318547400035" lon="12.897909283176068"><ele>1095.0</ele><time>2026-04-18T14:30:57.999Z</time></trkpt><trkpt lat="43.09310681748105" lon="12.897883325243503"><ele>1095.0</ele><time>2026-04-18T14:30:58.999Z</time></trkpt><trkpt lat="43.093043307403754" lon="12.897886491754035"><ele>1099.4</ele><time>2026-04-18T14:30:59.999Z</time></trkpt><trkpt lat="43.092969464106105" lon="12.897854732465698"><ele>1103.8</ele><time>2026-04-18T14:31:00.999Z</time></trkpt><trkpt lat="43.09287222970005" lon="12.897832122801868"><ele>1108.2</ele><time>2026-04-18T14:31:02.999Z</time></trkpt><trkpt lat="43.09279956315039" lon="12.897838322223729"><ele>1112.6</ele><time>2026-04-18T14:31:03.999Z</time></trkpt><trkpt lat="43.092727786793176" lon="12.897837690517962"><ele>1117.0</ele><time>2026-04-18T14:31:05.999Z</time></trkpt><trkpt lat="43.0924968291046" lon="12.89770808739165"><ele>1117.0</ele><time>2026-04-18T14:31:37.999Z</time></trkpt><trkpt lat="43.09242388581651" lon="12.897687148265467"><ele>1117.0</ele><time>2026-04-18T14:31:38.999Z</time></trkpt><trkpt lat="43.092355194271974" lon="12.897689859856778"><ele>1117.0</ele><time>2026-04-18T14:33:03.999Z</time></trkpt><trkpt lat="43.09228263461641" lon="12.897699444386346"><ele>1117.0</ele><time>2026-04-18T14:33:44.999Z</time></trkpt><trkpt lat="43.09221466807041" lon="12.897705069421649"><ele>1117.0</ele><time>2026-04-18T14:34:52.999Z</time></trkpt><trkpt lat="43.09215245122966" lon="12.897744493064033"><ele>1117.0</ele><time>2026-04-18T14:34:55.999Z</time></trkpt><trkpt lat="43.092062128901944" lon="12.89769681109603"><ele>1117.3333333333333</ele><time>2026-04-18T14:34:59.999Z</time></trkpt><trkpt lat="43.09196852726647" lon="12.8976396919556"><ele>1117.6666666666665</ele><time>2026-04-18T14:35:01.999Z</time></trkpt><trkpt lat="43.09190087140834" lon="12.897667158480044"><ele>1118.0</ele><time>2026-04-18T14:35:02.999Z</time></trkpt><trkpt lat="43.0918215094604" lon="12.897575727268276"><ele>1118.3333333333333</ele><time>2026-04-18T14:35:05.999Z</time></trkpt><trkpt lat="43.091741713467385" lon="12.897545404992446"><ele>1118.6666666666667</ele><time>2026-04-18T14:35:07.999Z</time></trkpt><trkpt lat="43.091672266776094" lon="12.897538428298075"><ele>1119.0</ele><time>2026-04-18T14:35:09.999Z</time></trkpt><trkpt lat="43.091583489262035" lon="12.897496797760201"><ele>1121.5714285714284</ele><time>2026-04-18T14:35:12.999Z</time></trkpt><trkpt lat="43.09151459445809" lon="12.897500957562318"><ele>1124.142857142857</ele><time>2026-04-18T14:35:14.999Z</time></trkpt><trkpt lat="43.091440853183116" lon="12.897502928406283"><ele>1126.7142857142858</ele><time>2026-04-18T14:35:16.999Z</time></trkpt><trkpt lat="43.09137770240765" lon="12.897498411270917"><ele>1129.2857142857142</ele><time>2026-04-18T14:35:18.999Z</time></trkpt><trkpt lat="43.091314805730796" lon="12.897467765880473"><ele>1131.857142857143</ele><time>2026-04-18T14:35:20.999Z</time></trkpt><trkpt lat="43.091236237924306" lon="12.897453939528102"><ele>1134.4285714285713</ele><time>2026-04-18T14:35:23.999Z</time></trkpt><trkpt lat="43.09118174097863" lon="12.897405160996131"><ele>1137.0</ele><time>2026-04-18T14:35:28.999Z</time></trkpt><trkpt lat="43.09112234243819" lon="12.89737606185869"><ele>1137.0</ele><time>2026-04-18T14:35:30.999Z</time></trkpt><trkpt lat="43.091053750898794" lon="12.897374343830005"><ele>1137.0</ele><time>2026-04-18T14:35:32.999Z</time></trkpt><trkpt lat="43.09097046849533" lon="12.897364925244661"><ele>1137.0</ele><time>2026-04-18T14:35:34.999Z</time></trkpt><trkpt lat="43.09089505840483" lon="12.897345255846163"><ele>1137.0</ele><time>2026-04-18T14:35:36.999Z</time></trkpt><trkpt lat="43.09080634089185" lon="12.897274931381482"><ele>1137.0</ele><time>2026-04-18T14:35:39.999Z</time></trkpt><trkpt lat="43.09073596083805" lon="12.897245195356483"><ele>1137.0</ele><time>2026-04-18T14:35:41.999Z</time></trkpt><trkpt lat="43.090646947261575" lon="12.897162679365186"><ele>1140.3333333333333</ele><time>2026-04-18T14:35:44.999Z</time></trkpt><trkpt lat="43.090570982322376" lon="12.897141749910954"><ele>1143.6666666666667</ele><time>2026-04-18T14:35:46.999Z</time></trkpt><trkpt lat="43.0904919142883" lon="12.8971682391729"><ele>1147.0</ele><time>2026-04-18T14:35:49.999Z</time></trkpt><trkpt lat="43.09041266728597" lon="12.897136878803579"><ele>1150.3333333333335</ele><time>2026-04-18T14:35:52.999Z</time></trkpt><trkpt lat="43.090337712899235" lon="12.897070997184226"><ele>1153.6666666666667</ele><time>2026-04-18T14:35:54.999Z</time></trkpt><trkpt lat="43.0902790313325" lon="12.897015658561765"><ele>1157.0</ele><time>2026-04-18T14:35:55.999Z</time></trkpt><trkpt lat="43.090192320535394" lon="12.896947664270295"><ele>1157.0</ele><time>2026-04-18T14:35:57.999Z</time></trkpt><trkpt lat="43.09010670431129" lon="12.896885195463918"><ele>1157.0</ele><time>2026-04-18T14:36:00.999Z</time></trkpt><trkpt lat="43.09001449138568" lon="12.896834433483505"><ele>1157.0</ele><time>2026-04-18T14:36:03Z</time></trkpt><trkpt lat="43.089939123798914" lon="12.896767683167802"><ele>1157.0</ele><time>2026-04-18T14:36:05Z</time></trkpt><trkpt lat="43.08984022895992" lon="12.896726502064224"><ele>1157.0</ele><time>2026-04-18T14:36:08Z</time></trkpt><trkpt lat="43.08973365559106" lon="12.896667832424802"><ele>1155.8333333333335</ele><time>2026-04-18T14:36:10Z</time></trkpt><trkpt lat="43.08963376697294" lon="12.896643485635824"><ele>1154.6666666666667</ele><time>2026-04-18T14:36:12Z</time></trkpt><trkpt lat="43.08953584665927" lon="12.89662668091549"><ele>1153.5</ele><time>2026-04-18T14:36:13Z</time></trkpt><trkpt lat="43.089467512469" lon="12.89662278439584"><ele>1152.3333333333333</ele><time>2026-04-18T14:36:14Z</time></trkpt><trkpt lat="43.08939600102636" lon="12.896623097143314"><ele>1151.1666666666665</ele><time>2026-04-18T14:36:15Z</time></trkpt><trkpt lat="43.08928869896401" lon="12.89664329547211"><ele>1150.0</ele><time>2026-04-18T14:36:17Z</time></trkpt><trkpt lat="43.08918689409909" lon="12.896700613409248"><ele>1150.0</ele><time>2026-04-18T14:36:19Z</time></trkpt><trkpt lat="43.08913083297916" lon="12.896748999812969"><ele>1150.0</ele><time>2026-04-18T14:36:20Z</time></trkpt><trkpt lat="43.089063152546984" lon="12.896872792643276"><ele>1150.0</ele><time>2026-04-18T14:36:22Z</time></trkpt><trkpt lat="43.08904438749074" lon="12.89695736658796"><ele>1150.0</ele><time>2026-04-18T14:36:23Z</time></trkpt><trkpt lat="43.08901654889192" lon="12.897037838635823"><ele>1150.0</ele><time>2026-04-18T14:36:24Z</time></trkpt><trkpt lat="43.08900483997287" lon="12.897182842667782"><ele>1150.0</ele><time>2026-04-18T14:36:26Z</time></trkpt><trkpt lat="43.089050369054455" lon="12.897302237961586"><ele>1150.4285714285713</ele><time>2026-04-18T14:36:28Z</time></trkpt><trkpt lat="43.08909691671318" lon="12.897361309572814"><ele>1150.8571428571427</ele><time>2026-04-18T14:36:29Z</time></trkpt><trkpt lat="43.0891610378734" lon="12.897440426238838"><ele>1151.2857142857142</ele><time>2026-04-18T14:36:30Z</time></trkpt><trkpt lat="43.08922039722654" lon="12.89748934129687"><ele>1151.7142857142858</ele><time>2026-04-18T14:36:31Z</time></trkpt><trkpt lat="43.089286727096564" lon="12.897539751248809"><ele>1152.1428571428573</ele><time>2026-04-18T14:36:32Z</time></trkpt><trkpt lat="43.08935857090797" lon="12.897584892179607"><ele>1152.5714285714287</ele><time>2026-04-18T14:36:33Z</time></trkpt><trkpt lat="43.08942263570355" lon="12.897626428019201"><ele>1153.0</ele><time>2026-04-18T14:36:34Z</time></trkpt><trkpt lat="43.089496612967196" lon="12.897643611533562"><ele>1154.0</ele><time>2026-04-18T14:36:35Z</time></trkpt><trkpt lat="43.089581791253615" lon="12.897636332711839"><ele>1155.0</ele><time>2026-04-18T14:36:36Z</time></trkpt><trkpt lat="43.089653528423646" lon="12.897621624872684"><ele>1156.0</ele><time>2026-04-18T14:36:37Z</time></trkpt><trkpt lat="43.089750043755416" lon="12.897645635164306"><ele>1157.0</ele><time>2026-04-18T14:36:39Z</time></trkpt><trkpt lat="43.08980923502803" lon="12.897712522465177"><ele>1158.0</ele><time>2026-04-18T14:36:40Z</time></trkpt><trkpt lat="43.08987679345523" lon="12.897787709943554"><ele>1159.0</ele><time>2026-04-18T14:36:41Z</time></trkpt><trkpt lat="43.089957523472066" lon="12.897890336000849"><ele>1160.5</ele><time>2026-04-18T14:36:42Z</time></trkpt><trkpt lat="43.09002725185695" lon="12.897969245843164"><ele>1162.0</ele><time>2026-04-18T14:36:43Z</time></trkpt><trkpt lat="43.09009305089662" lon="12.89805304159429"><ele>1163.5</ele><time>2026-04-18T14:36:44Z</time></trkpt><trkpt lat="43.09015435233175" lon="12.898139176650322"><ele>1165.0</ele><time>2026-04-18T14:36:45Z</time></trkpt><trkpt lat="43.090202690128166" lon="12.898227000510246"><ele>1166.5</ele><time>2026-04-18T14:36:46Z</time></trkpt><trkpt lat="43.09023417940578" lon="12.898339268451341"><ele>1168.0</ele><time>2026-04-18T14:36:47Z</time></trkpt><trkpt lat="43.09026095912025" lon="12.89844228101841"><ele>1169.3333333333333</ele><time>2026-04-18T14:36:48Z</time></trkpt><trkpt lat="43.090277142946135" lon="12.898550284030993"><ele>1170.6666666666665</ele><time>2026-04-18T14:36:49Z</time></trkpt><trkpt lat="43.090276029555476" lon="12.898668241762245"><ele>1172.0</ele><time>2026-04-18T14:36:50Z</time></trkpt><trkpt lat="43.090247584548564" lon="12.898779305588755"><ele>1173.3333333333333</ele><time>2026-04-18T14:36:51Z</time></trkpt><trkpt lat="43.09019343798059" lon="12.89885946953109"><ele>1174.6666666666667</ele><time>2026-04-18T14:36:52Z</time></trkpt><trkpt lat="43.090122846286356" lon="12.898910039242285"><ele>1176.0</ele><time>2026-04-18T14:36:53Z</time></trkpt><trkpt lat="43.09004132925992" lon="12.898952745906993"><ele>1176.0</ele><time>2026-04-18T14:36:54Z</time></trkpt><trkpt lat="43.089938369388285" lon="12.8989963548801"><ele>1176.0</ele><time>2026-04-18T14:36:55Z</time></trkpt><trkpt lat="43.08978067188799" lon="12.899033257414116"><ele>1176.0</ele><time>2026-04-18T14:36:56Z</time></trkpt><trkpt lat="43.0895977704296" lon="12.899065681607317"><ele>1173.6666666666667</ele><time>2026-04-18T14:36:57Z</time></trkpt><trkpt lat="43.08941996419882" lon="12.899134191481858"><ele>1171.3333333333335</ele><time>2026-04-18T14:36:57.999Z</time></trkpt><trkpt lat="43.08924743539358" lon="12.899214392494915"><ele>1169.0</ele><time>2026-04-18T14:36:58.999Z</time></trkpt><trkpt lat="43.08909455462242" lon="12.899281452008225"><ele>1172.75</ele><time>2026-04-18T14:36:59.999Z</time></trkpt><trkpt lat="43.08895531134422" lon="12.899340789873749"><ele>1176.5</ele><time>2026-04-18T14:37:00.999Z</time></trkpt><trkpt lat="43.08882326457627" lon="12.899405435693485"><ele>1180.25</ele><time>2026-04-18T14:37:01.999Z</time></trkpt><trkpt lat="43.08871097956661" lon="12.899469464582225"><ele>1184.0</ele><time>2026-04-18T14:37:02.999Z</time></trkpt><trkpt lat="43.08861860555711" lon="12.89954000996682"><ele>1184.0</ele><time>2026-04-18T14:37:03.999Z</time></trkpt><trkpt lat="43.08853278756562" lon="12.899603195009552"><ele>1184.0</ele><time>2026-04-18T14:37:04.999Z</time></trkpt><trkpt lat="43.088445693262976" lon="12.899668954428952"><ele>1184.0</ele><time>2026-04-18T14:37:05.999Z</time></trkpt><trkpt lat="43.08836553417855" lon="12.899753406382544"><ele>1184.0</ele><time>2026-04-18T14:37:06.999Z</time></trkpt><trkpt lat="43.08828643517433" lon="12.89986377292895"><ele>1184.0</ele><time>2026-04-18T14:37:07.999Z</time></trkpt><trkpt lat="43.088208343759426" lon="12.899959305561435"><ele>1181.8333333333335</ele><time>2026-04-18T14:37:08.999Z</time></trkpt><trkpt lat="43.08812601515843" lon="12.900020224541592"><ele>1179.6666666666667</ele><time>2026-04-18T14:37:09.999Z</time></trkpt><trkpt lat="43.088062618808856" lon="12.90008534611733"><ele>1177.5</ele><time>2026-04-18T14:37:10.999Z</time></trkpt><trkpt lat="43.08800251544472" lon="12.900142450438299"><ele>1175.3333333333333</ele><time>2026-04-18T14:37:11.999Z</time></trkpt><trkpt lat="43.08794166031943" lon="12.900197197461072"><ele>1173.1666666666665</ele><time>2026-04-18T14:37:12.999Z</time></trkpt><trkpt lat="43.087879419095614" lon="12.900250283144489"><ele>1171.0</ele><time>2026-04-18T14:37:13.999Z</time></trkpt><trkpt lat="43.087825582826106" lon="12.900318128136982"><ele>1171.0</ele><time>2026-04-18T14:37:14.999Z</time></trkpt><trkpt lat="43.087808711274064" lon="12.90046188064211"><ele>1171.0</ele><time>2026-04-18T14:37:16.999Z</time></trkpt><trkpt lat="43.08781761980815" lon="12.900560624971591"><ele>1171.0</ele><time>2026-04-18T14:37:17.999Z</time></trkpt><trkpt lat="43.087839550336234" lon="12.900663002901057"><ele>1171.0</ele><time>2026-04-18T14:37:18.999Z</time></trkpt><trkpt lat="43.087844233008084" lon="12.900767137218704"><ele>1171.0</ele><time>2026-04-18T14:37:19.999Z</time></trkpt><trkpt lat="43.087806656807196" lon="12.900865544797115"><ele>1171.0</ele><time>2026-04-18T14:37:20.999Z</time></trkpt><trkpt lat="43.08774667719398" lon="12.900946515158058"><ele>1177.0</ele><time>2026-04-18T14:37:21.999Z</time></trkpt><trkpt lat="43.08767488086209" lon="12.901033142264287"><ele>1183.0</ele><time>2026-04-18T14:37:22.999Z</time></trkpt><trkpt lat="43.08761724786368" lon="12.901128046953374"><ele>1189.0</ele><time>2026-04-18T14:37:23.999Z</time></trkpt><trkpt lat="43.08755711692234" lon="12.901242393944953"><ele>1195.0</ele><time>2026-04-18T14:37:24.999Z</time></trkpt><trkpt lat="43.08751345034404" lon="12.901363222524866"><ele>1201.0</ele><time>2026-04-18T14:37:25.999Z</time></trkpt><trkpt lat="43.08743058233012" lon="12.901472038615456"><ele>1200.3999999999999</ele><time>2026-04-18T14:37:26.999Z</time></trkpt><trkpt lat="43.08735095491941" lon="12.901576217368822"><ele>1199.8</ele><time>2026-04-18T14:37:27.999Z</time></trkpt><trkpt lat="43.08729204246012" lon="12.901661599901237"><ele>1199.1999999999998</ele><time>2026-04-18T14:37:28.999Z</time></trkpt><trkpt lat="43.08721520124786" lon="12.9017444459834"><ele>1198.6</ele><time>2026-04-18T14:37:29.999Z</time></trkpt><trkpt lat="43.08715173639699" lon="12.901837804111981"><ele>1198.0</ele><time>2026-04-18T14:37:30.999Z</time></trkpt><trkpt lat="43.08708215654646" lon="12.901903492784351"><ele>1198.0</ele><time>2026-04-18T14:37:31.999Z</time></trkpt><trkpt lat="43.087017008714504" lon="12.9019681478421"><ele>1198.0</ele><time>2026-04-18T14:37:32.999Z</time></trkpt><trkpt lat="43.086950051167506" lon="12.902056250671214"><ele>1198.0</ele><time>2026-04-18T14:37:33.999Z</time></trkpt><trkpt lat="43.08688136256471" lon="12.902148672949739"><ele>1198.0</ele><time>2026-04-18T14:37:34.999Z</time></trkpt><trkpt lat="43.08681284205043" lon="12.902232208171693"><ele>1198.0</ele><time>2026-04-18T14:37:35.999Z</time></trkpt><trkpt lat="43.0867313020685" lon="12.902306655118656"><ele>1198.0</ele><time>2026-04-18T14:37:36.999Z</time></trkpt><trkpt lat="43.08664935736078" lon="12.902387456381884"><ele>1198.0</ele><time>2026-04-18T14:37:37.999Z</time></trkpt><trkpt lat="43.08656003895993" lon="12.902491241038652"><ele>1198.0</ele><time>2026-04-18T14:37:38.999Z</time></trkpt><trkpt lat="43.08646849316711" lon="12.90262071519995"><ele>1198.0</ele><time>2026-04-18T14:37:39.999Z</time></trkpt><trkpt lat="43.086377179787235" lon="12.902761465525547"><ele>1195.75</ele><time>2026-04-18T14:37:40.999Z</time></trkpt><trkpt lat="43.08629098338853" lon="12.90291451489794"><ele>1193.5</ele><time>2026-04-18T14:37:41.999Z</time></trkpt><trkpt lat="43.08622219379657" lon="12.903043845786875"><ele>1191.25</ele><time>2026-04-18T14:37:42.999Z</time></trkpt><trkpt lat="43.08616923324307" lon="12.903159900432708"><ele>1189.0</ele><time>2026-04-18T14:37:43.999Z</time></trkpt><trkpt lat="43.08609931052014" lon="12.903273700940685"><ele>1189.0</ele><time>2026-04-18T14:37:44.999Z</time></trkpt><trkpt lat="43.086012818322516" lon="12.903384867349178"><ele>1189.0</ele><time>2026-04-18T14:37:45.999Z</time></trkpt><trkpt lat="43.08590994459995" lon="12.90354331132729"><ele>1189.0</ele><time>2026-04-18T14:37:46.999Z</time></trkpt><trkpt lat="43.08585561003244" lon="12.903710980422828"><ele>1189.0</ele><time>2026-04-18T14:37:47.999Z</time></trkpt><trkpt lat="43.085795880518425" lon="12.90387642358968"><ele>1188.8</ele><time>2026-04-18T14:37:48.999Z</time></trkpt><trkpt lat="43.08574696491796" lon="12.904019034749615"><ele>1188.6000000000001</ele><time>2026-04-18T14:37:49.999Z</time></trkpt><trkpt lat="43.08569449152706" lon="12.904146816944905"><ele>1188.4</ele><time>2026-04-18T14:37:50.999Z</time></trkpt><trkpt lat="43.085639366129904" lon="12.904257741040702"><ele>1188.2</ele><time>2026-04-18T14:37:51.999Z</time></trkpt><trkpt lat="43.08559125327856" lon="12.904373495448002"><ele>1188.0</ele><time>2026-04-18T14:37:52.999Z</time></trkpt><trkpt lat="43.08554694702912" lon="12.90448888265882"><ele>1188.0</ele><time>2026-04-18T14:37:53.999Z</time></trkpt><trkpt lat="43.085499573080014" lon="12.904608623311486"><ele>1188.0</ele><time>2026-04-18T14:37:54.999Z</time></trkpt><trkpt lat="43.08548351601669" lon="12.90473153993878"><ele>1188.0</ele><time>2026-04-18T14:37:55.999Z</time></trkpt><trkpt lat="43.08549038510029" lon="12.904847244758804"><ele>1188.0</ele><time>2026-04-18T14:37:56.999Z</time></trkpt><trkpt lat="43.085529489285044" lon="12.904925345762939"><ele>1188.0</ele><time>2026-04-18T14:37:57.999Z</time></trkpt><trkpt lat="43.08560768198294" lon="12.904998772373482"><ele>1188.0</ele><time>2026-04-18T14:37:58.999Z</time></trkpt><trkpt lat="43.08570727746869" lon="12.905028711862"><ele>1193.25</ele><time>2026-04-18T14:37:59.999Z</time></trkpt><trkpt lat="43.08581284091816" lon="12.905048033330695"><ele>1198.5</ele><time>2026-04-18T14:38:00.999Z</time></trkpt><trkpt lat="43.085941529087975" lon="12.905071943393223"><ele>1203.75</ele><time>2026-04-18T14:38:01.999Z</time></trkpt><trkpt lat="43.08608362746449" lon="12.905093409097775"><ele>1209.0</ele><time>2026-04-18T14:38:02.999Z</time></trkpt><trkpt lat="43.08620846170431" lon="12.905103480826732"><ele>1210.0</ele><time>2026-04-18T14:38:03.999Z</time></trkpt><trkpt lat="43.08632351188611" lon="12.905116836526178"><ele>1211.0</ele><time>2026-04-18T14:38:04.999Z</time></trkpt><trkpt lat="43.08643099770735" lon="12.905129133562772"><ele>1212.0</ele><time>2026-04-18T14:38:05.999Z</time></trkpt><trkpt lat="43.08652328354919" lon="12.905150073300815"><ele>1213.0</ele><time>2026-04-18T14:38:06.999Z</time></trkpt><trkpt lat="43.086593039527486" lon="12.905170198494881"><ele>1214.0</ele><time>2026-04-18T14:38:07.999Z</time></trkpt><trkpt lat="43.08668202334984" lon="12.90520349359235"><ele>1218.8</ele><time>2026-04-18T14:38:09Z</time></trkpt><trkpt lat="43.086776618988765" lon="12.905242575608465"><ele>1223.6000000000001</ele><time>2026-04-18T14:38:10Z</time></trkpt><trkpt lat="43.08683943975238" lon="12.905298702131562"><ele>1228.4</ele><time>2026-04-18T14:38:11Z</time></trkpt><trkpt lat="43.08689649371432" lon="12.905417762344163"><ele>1233.2</ele><time>2026-04-18T14:38:13Z</time></trkpt><trkpt lat="43.08691936670498" lon="12.905514083187246"><ele>1238.0</ele><time>2026-04-18T14:38:14Z</time></trkpt><trkpt lat="43.086964671364896" lon="12.90566008892222"><ele>1238.0</ele><time>2026-04-18T14:38:15Z</time></trkpt><trkpt lat="43.08701366398172" lon="12.90580557452593"><ele>1238.0</ele><time>2026-04-18T14:38:16Z</time></trkpt><trkpt lat="43.08706485664071" lon="12.905924763473163"><ele>1238.0</ele><time>2026-04-18T14:38:17Z</time></trkpt><trkpt lat="43.08708852398822" lon="12.906047385651863"><ele>1238.0</ele><time>2026-04-18T14:38:18Z</time></trkpt><trkpt lat="43.08711556279236" lon="12.90616819938698"><ele>1238.0</ele><time>2026-04-18T14:38:19Z</time></trkpt><trkpt lat="43.087145157348886" lon="12.906305314035993"><ele>1238.6</ele><time>2026-04-18T14:38:20Z</time></trkpt><trkpt lat="43.087177579319444" lon="12.906445294841184"><ele>1239.1999999999998</ele><time>2026-04-18T14:38:21Z</time></trkpt><trkpt lat="43.08721785595023" lon="12.906560765420902"><ele>1239.8</ele><time>2026-04-18T14:38:22Z</time></trkpt><trkpt lat="43.08725170007796" lon="12.906665447037868"><ele>1240.3999999999999</ele><time>2026-04-18T14:38:23Z</time></trkpt><trkpt lat="43.08730513985571" lon="12.906750491242981"><ele>1241.0</ele><time>2026-04-18T14:38:24Z</time></trkpt><trkpt lat="43.087364020047026" lon="12.906856787360763"><ele>1241.5</ele><time>2026-04-18T14:38:25Z</time></trkpt><trkpt lat="43.087403273072894" lon="12.906986214184311"><ele>1242.0</ele><time>2026-04-18T14:38:26Z</time></trkpt><trkpt lat="43.08745361316143" lon="12.907137979363197"><ele>1242.5</ele><time>2026-04-18T14:38:27Z</time></trkpt><trkpt lat="43.08751241253071" lon="12.9073185238151"><ele>1243.0</ele><time>2026-04-18T14:38:28Z</time></trkpt><trkpt lat="43.08756312289282" lon="12.907483454424716"><ele>1251.75</ele><time>2026-04-18T14:38:29Z</time></trkpt><trkpt lat="43.087617648373424" lon="12.907669201979475"><ele>1260.5</ele><time>2026-04-18T14:38:30Z</time></trkpt><trkpt lat="43.08766945209941" lon="12.907840690203649"><ele>1269.25</ele><time>2026-04-18T14:38:31Z</time></trkpt><trkpt lat="43.08772296256739" lon="12.9080572309347"><ele>1278.0</ele><time>2026-04-18T14:38:32Z</time></trkpt><trkpt lat="43.087779904591045" lon="12.908273598337942"><ele>1280.25</ele><time>2026-04-18T14:38:33Z</time></trkpt><trkpt lat="43.087832746809354" lon="12.908476119844432"><ele>1282.5</ele><time>2026-04-18T14:38:34Z</time></trkpt><trkpt lat="43.087889139732376" lon="12.908677629635442"><ele>1284.75</ele><time>2026-04-18T14:38:35Z</time></trkpt><trkpt lat="43.087928899162385" lon="12.908842630000683"><ele>1287.0</ele><time>2026-04-18T14:38:36Z</time></trkpt><trkpt lat="43.08796445990216" lon="12.90900418666348"><ele>1287.0</ele><time>2026-04-18T14:38:37Z</time></trkpt><trkpt lat="43.08800149877251" lon="12.909163819924755"><ele>1287.0</ele><time>2026-04-18T14:38:38Z</time></trkpt><trkpt lat="43.08803854533599" lon="12.909317648533813"><ele>1287.0</ele><time>2026-04-18T14:38:39Z</time></trkpt><trkpt lat="43.088074429796926" lon="12.909481628415104"><ele>1287.0</ele><time>2026-04-18T14:38:40Z</time></trkpt><trkpt lat="43.08810833851895" lon="12.909665477155045"><ele>1289.6666666666667</ele><time>2026-04-18T14:38:41Z</time></trkpt><trkpt lat="43.08814183206875" lon="12.909855808818298"><ele>1292.3333333333335</ele><time>2026-04-18T14:38:42Z</time></trkpt><trkpt lat="43.088173869013616" lon="12.91008753622055"><ele>1295.0</ele><time>2026-04-18T14:38:43Z</time></trkpt><trkpt lat="43.08820236551902" lon="12.910317987302486"><ele>1296.0</ele><time>2026-04-18T14:38:44Z</time></trkpt><trkpt lat="43.08823891454164" lon="12.910542451131406"><ele>1297.0</ele><time>2026-04-18T14:38:45Z</time></trkpt><trkpt lat="43.08827480911575" lon="12.91076228803697"><ele>1298.0</ele><time>2026-04-18T14:38:46Z</time></trkpt><trkpt lat="43.088295574380076" lon="12.910951566397209"><ele>1304.0</ele><time>2026-04-18T14:38:47Z</time></trkpt><trkpt lat="43.088316814279914" lon="12.911128618120651"><ele>1310.0</ele><time>2026-04-18T14:38:48Z</time></trkpt><trkpt lat="43.08834715829709" lon="12.911289970934607"><ele>1316.0</ele><time>2026-04-18T14:38:49Z</time></trkpt><trkpt lat="43.088385513117146" lon="12.911438323190191"><ele>1322.0</ele><time>2026-04-18T14:38:50Z</time></trkpt><trkpt lat="43.08842830423131" lon="12.911605964574406"><ele>1322.0</ele><time>2026-04-18T14:38:51Z</time></trkpt><trkpt lat="43.088476061935616" lon="12.911780430478197"><ele>1322.0</ele><time>2026-04-18T14:38:52Z</time></trkpt><trkpt lat="43.08852908831441" lon="12.911937862694458"><ele>1322.0</ele><time>2026-04-18T14:38:53Z</time></trkpt><trkpt lat="43.088580915811846" lon="12.912099090735076"><ele>1322.0</ele><time>2026-04-18T14:38:54Z</time></trkpt><trkpt lat="43.08863175417463" lon="12.912253360448473"><ele>1322.0</ele><time>2026-04-18T14:38:55Z</time></trkpt><trkpt lat="43.08868131587041" lon="12.912402991343136"><ele>1322.0</ele><time>2026-04-18T14:38:56Z</time></trkpt><trkpt lat="43.08872257572574" lon="12.912550975739569"><ele>1322.0</ele><time>2026-04-18T14:38:57Z</time></trkpt><trkpt lat="43.088737121985645" lon="12.912677480649336"><ele>1322.0</ele><time>2026-04-18T14:38:58Z</time></trkpt><trkpt lat="43.08873174635295" lon="12.912783105083774"><ele>1322.0</ele><time>2026-04-18T14:38:59Z</time></trkpt><trkpt lat="43.08871914588178" lon="12.912872080410391"><ele>1320.8</ele><time>2026-04-18T14:39:00Z</time></trkpt><trkpt lat="43.088703546430644" lon="12.912957875328159"><ele>1319.6</ele><time>2026-04-18T14:39:01Z</time></trkpt><trkpt lat="43.08867891391807" lon="12.913107611931439"><ele>1318.3999999999999</ele><time>2026-04-18T14:39:03Z</time></trkpt><trkpt lat="43.08866321219833" lon="12.913247585789788"><ele>1317.1999999999998</ele><time>2026-04-18T14:39:05Z</time></trkpt><trkpt lat="43.088618556454904" lon="12.913397891486744"><ele>1316.0</ele><time>2026-04-18T14:39:07Z</time></trkpt><trkpt lat="43.0885868248555" lon="12.913480056707039"><ele>1315.3333333333335</ele><time>2026-04-18T14:39:08Z</time></trkpt><trkpt lat="43.088558230521464" lon="12.91356982555707"><ele>1314.6666666666667</ele><time>2026-04-18T14:39:09Z</time></trkpt><trkpt lat="43.088524904104744" lon="12.913669119451994"><ele>1314.0</ele><time>2026-04-18T14:39:10Z</time></trkpt><trkpt lat="43.088482140149786" lon="12.913769400744478"><ele>1313.3333333333333</ele><time>2026-04-18T14:39:10.999Z</time></trkpt><trkpt lat="43.08843194776847" lon="12.91385887149991"><ele>1312.6666666666665</ele><time>2026-04-18T14:39:11.999Z</time></trkpt><trkpt lat="43.088373416569105" lon="12.913967217551805"><ele>1312.0</ele><time>2026-04-18T14:39:12.999Z</time></trkpt><trkpt lat="43.088311108399914" lon="12.914086012229566"><ele>1305.25</ele><time>2026-04-18T14:39:13.999Z</time></trkpt><trkpt lat="43.088254693191026" lon="12.914209821491626"><ele>1298.5</ele><time>2026-04-18T14:39:14.999Z</time></trkpt><trkpt lat="43.08819118160697" lon="12.91434000306075"><ele>1291.75</ele><time>2026-04-18T14:39:15.999Z</time></trkpt><trkpt lat="43.08811643091505" lon="12.914474078770999"><ele>1285.0</ele><time>2026-04-18T14:39:16.999Z</time></trkpt><trkpt lat="43.088045537579475" lon="12.91459021180303"><ele>1285.0</ele><time>2026-04-18T14:39:17.999Z</time></trkpt><trkpt lat="43.08797730024087" lon="12.914698197921075"><ele>1285.0</ele><time>2026-04-18T14:39:18.999Z</time></trkpt><trkpt lat="43.08792047301328" lon="12.914783276937595"><ele>1285.0</ele><time>2026-04-18T14:39:19.999Z</time></trkpt><trkpt lat="43.08787911952781" lon="12.914859927416492"><ele>1285.0</ele><time>2026-04-18T14:39:20.999Z</time></trkpt><trkpt lat="43.087830163060616" lon="12.914999175300778"><ele>1285.0</ele><time>2026-04-18T14:39:22.999Z</time></trkpt><trkpt lat="43.08784656796404" lon="12.915108526179967"><ele>1285.4</ele><time>2026-04-18T14:39:24.999Z</time></trkpt><trkpt lat="43.08790327001282" lon="12.915231674069508"><ele>1285.8</ele><time>2026-04-18T14:39:26.999Z</time></trkpt><trkpt lat="43.08798900403619" lon="12.91536117766686"><ele>1286.1999999999998</ele><time>2026-04-18T14:39:28.999Z</time></trkpt><trkpt lat="43.08803442211416" lon="12.915443018498438"><ele>1286.6</ele><time>2026-04-18T14:39:29.999Z</time></trkpt><trkpt lat="43.08808145664191" lon="12.915534808737364"><ele>1287.0</ele><time>2026-04-18T14:39:30.999Z</time></trkpt><trkpt lat="43.08809873192184" lon="12.915685715945239"><ele>1287.0</ele><time>2026-04-18T14:39:32.999Z</time></trkpt><trkpt lat="43.088097354236446" lon="12.91586201687593"><ele>1287.0</ele><time>2026-04-18T14:39:34.999Z</time></trkpt><trkpt lat="43.08811669705715" lon="12.915971552497043"><ele>1287.0</ele><time>2026-04-18T14:39:35.999Z</time></trkpt><trkpt lat="43.088121850796824" lon="12.916081314391302"><ele>1287.0</ele><time>2026-04-18T14:39:36.999Z</time></trkpt><trkpt lat="43.088135481628555" lon="12.916174050253623"><ele>1287.0</ele><time>2026-04-18T14:39:37.999Z</time></trkpt><trkpt lat="43.088183943356675" lon="12.916341851811376"><ele>1285.8333333333333</ele><time>2026-04-18T14:39:39.999Z</time></trkpt><trkpt lat="43.0882262461687" lon="12.916412592213335"><ele>1284.6666666666667</ele><time>2026-04-18T14:39:40.999Z</time></trkpt><trkpt lat="43.0882783298809" lon="12.916480779961534"><ele>1283.5</ele><time>2026-04-18T14:39:41.999Z</time></trkpt><trkpt lat="43.08833211846824" lon="12.916549775923441"><ele>1282.3333333333335</ele><time>2026-04-18T14:39:42.999Z</time></trkpt><trkpt lat="43.088397162296516" lon="12.916606763530739"><ele>1281.1666666666667</ele><time>2026-04-18T14:39:43.999Z</time></trkpt><trkpt lat="43.08847416060526" lon="12.916653828354383"><ele>1280.0</ele><time>2026-04-18T14:39:44.999Z</time></trkpt><trkpt lat="43.088553501323354" lon="12.916695722266082"><ele>1280.0</ele><time>2026-04-18T14:39:45.999Z</time></trkpt><trkpt lat="43.08862270992108" lon="12.916730909920773"><ele>1280.0</ele><time>2026-04-18T14:39:46.999Z</time></trkpt><trkpt lat="43.08868397761927" lon="12.916781168478796"><ele>1280.0</ele><time>2026-04-18T14:39:47.999Z</time></trkpt><trkpt lat="43.08875104533212" lon="12.91684638001691"><ele>1280.0</ele><time>2026-04-18T14:39:49.999Z</time></trkpt><trkpt lat="43.088812021933954" lon="12.916922351910383"><ele>1280.0</ele><time>2026-04-18T14:39:51.999Z</time></trkpt><trkpt lat="43.088857204881776" lon="12.916996909939623"><ele>1280.0</ele><time>2026-04-18T14:39:53.999Z</time></trkpt><trkpt lat="43.088907417975406" lon="12.9170701231411"><ele>1279.4</ele><time>2026-04-18T14:39:55.999Z</time></trkpt><trkpt lat="43.08897432033317" lon="12.917147409257609"><ele>1278.8</ele><time>2026-04-18T14:39:57.999Z</time></trkpt><trkpt lat="43.08906099885006" lon="12.917182893459598"><ele>1278.2</ele><time>2026-04-18T14:39:59.999Z</time></trkpt><trkpt lat="43.089149897296835" lon="12.917195557219927"><ele>1277.6</ele><time>2026-04-18T14:40:01.999Z</time></trkpt><trkpt lat="43.08924619442149" lon="12.917217560250142"><ele>1277.0</ele><time>2026-04-18T14:40:03.999Z</time></trkpt><trkpt lat="43.08933408296878" lon="12.917240444095764"><ele>1277.0</ele><time>2026-04-18T14:40:05.999Z</time></trkpt><trkpt lat="43.08942124652504" lon="12.917274109705836"><ele>1277.0</ele><time>2026-04-18T14:40:07.999Z</time></trkpt><trkpt lat="43.08951906214644" lon="12.917323515855768"><ele>1277.0</ele><time>2026-04-18T14:40:09.999Z</time></trkpt><trkpt lat="43.089586614864395" lon="12.917329547918158"><ele>1277.0</ele><time>2026-04-18T14:40:11.999Z</time></trkpt><trkpt lat="43.089681740814655" lon="12.917316845191616"><ele>1277.0</ele><time>2026-04-18T14:40:13.999Z</time></trkpt><trkpt lat="43.08975423087363" lon="12.91731130384985"><ele>1277.0</ele><time>2026-04-18T14:40:15Z</time></trkpt><trkpt lat="43.08983535262261" lon="12.917311844466987"><ele>1277.0</ele><time>2026-04-18T14:40:16Z</time></trkpt><trkpt lat="43.089918024150116" lon="12.917326281686847"><ele>1277.0</ele><time>2026-04-18T14:40:17Z</time></trkpt><trkpt lat="43.089992664762214" lon="12.917348442193546"><ele>1277.0</ele><time>2026-04-18T14:40:18Z</time></trkpt><trkpt lat="43.090060743723114" lon="12.917380119070366"><ele>1277.0</ele><time>2026-04-18T14:40:19Z</time></trkpt><trkpt lat="43.0901332805998" lon="12.917399870946273"><ele>1277.0</ele><time>2026-04-18T14:40:20Z</time></trkpt><trkpt lat="43.090214147444435" lon="12.917369284655534"><ele>1277.0</ele><time>2026-04-18T14:40:21Z</time></trkpt><trkpt lat="43.09031008532898" lon="12.917304887523093"><ele>1277.0</ele><time>2026-04-18T14:40:23Z</time></trkpt><trkpt lat="43.09038424184293" lon="12.91728819526347"><ele>1277.0</ele><time>2026-04-18T14:40:24Z</time></trkpt><trkpt lat="43.0904904797824" lon="12.917244861545134"><ele>1277.0</ele><time>2026-04-18T14:40:26Z</time></trkpt><trkpt lat="43.09057854161102" lon="12.9171493092166"><ele>1277.0</ele><time>2026-04-18T14:40:28Z</time></trkpt><trkpt lat="43.09062796071351" lon="12.917084196675713"><ele>1277.0</ele><time>2026-04-18T14:40:29Z</time></trkpt><trkpt lat="43.090682537077704" lon="12.917024964358502"><ele>1277.0</ele><time>2026-04-18T14:40:30Z</time></trkpt><trkpt lat="43.09077499900952" lon="12.916954429597439"><ele>1277.6666666666667</ele><time>2026-04-18T14:40:32Z</time></trkpt><trkpt lat="43.09087903545762" lon="12.916872852789412"><ele>1278.3333333333335</ele><time>2026-04-18T14:40:34Z</time></trkpt><trkpt lat="43.09097850160428" lon="12.916813564659869"><ele>1279.0</ele><time>2026-04-18T14:40:36Z</time></trkpt><trkpt lat="43.09104997304906" lon="12.916793668476906"><ele>1279.6666666666667</ele><time>2026-04-18T14:40:37Z</time></trkpt><trkpt lat="43.09111392922663" lon="12.916795482203186"><ele>1280.3333333333333</ele><time>2026-04-18T14:40:38Z</time></trkpt><trkpt lat="43.09119525308912" lon="12.916806629129399"><ele>1281.0</ele><time>2026-04-18T14:40:39Z</time></trkpt><trkpt lat="43.091270238171674" lon="12.916821912376376"><ele>1281.0</ele><time>2026-04-18T14:40:40Z</time></trkpt><trkpt lat="43.09133841338676" lon="12.916829280608427"><ele>1281.0</ele><time>2026-04-18T14:40:41Z</time></trkpt><trkpt lat="43.09140881594605" lon="12.916838279829943"><ele>1281.0</ele><time>2026-04-18T14:40:42Z</time></trkpt><trkpt lat="43.091489112444826" lon="12.916843837577696"><ele>1281.0</ele><time>2026-04-18T14:40:43Z</time></trkpt><trkpt lat="43.09156793279631" lon="12.916854728276597"><ele>1281.0</ele><time>2026-04-18T14:40:44Z</time></trkpt><trkpt lat="43.09171003276703" lon="12.916911504730459"><ele>1281.0</ele><time>2026-04-18T14:40:46Z</time></trkpt><trkpt lat="43.09177996129973" lon="12.916943428145478"><ele>1283.0</ele><time>2026-04-18T14:40:47Z</time></trkpt><trkpt lat="43.09187654883892" lon="12.916986048781089"><ele>1285.0</ele><time>2026-04-18T14:40:48Z</time></trkpt><trkpt lat="43.09198842108682" lon="12.917037770577991"><ele>1287.0</ele><time>2026-04-18T14:40:49Z</time></trkpt><trkpt lat="43.09209413910468" lon="12.917083495099561"><ele>1289.0</ele><time>2026-04-18T14:40:50Z</time></trkpt><trkpt lat="43.092213634400025" lon="12.917121565136698"><ele>1289.0</ele><time>2026-04-18T14:40:51Z</time></trkpt><trkpt lat="43.09233089742697" lon="12.917153637557352"><ele>1289.0</ele><time>2026-04-18T14:40:52Z</time></trkpt><trkpt lat="43.09246105994594" lon="12.91719631197861"><ele>1289.0</ele><time>2026-04-18T14:40:53Z</time></trkpt><trkpt lat="43.09259752231958" lon="12.917235363564588"><ele>1289.0</ele><time>2026-04-18T14:40:54Z</time></trkpt><trkpt lat="43.09270877714891" lon="12.917272720390022"><ele>1291.25</ele><time>2026-04-18T14:40:55Z</time></trkpt><trkpt lat="43.092824204833086" lon="12.917313389387079"><ele>1293.5</ele><time>2026-04-18T14:40:56Z</time></trkpt><trkpt lat="43.09293000611337" lon="12.91735177555835"><ele>1295.75</ele><time>2026-04-18T14:40:57Z</time></trkpt><trkpt lat="43.09305094137359" lon="12.917409942517674"><ele>1298.0</ele><time>2026-04-18T14:40:58Z</time></trkpt><trkpt lat="43.09319318284332" lon="12.917475932418338"><ele>1298.75</ele><time>2026-04-18T14:40:59Z</time></trkpt><trkpt lat="43.09329971748273" lon="12.917553300557973"><ele>1299.5</ele><time>2026-04-18T14:41:00Z</time></trkpt><trkpt lat="43.09340903255897" lon="12.91762487579574"><ele>1300.25</ele><time>2026-04-18T14:41:01Z</time></trkpt><trkpt lat="43.093512586899784" lon="12.917669373063898"><ele>1301.0</ele><time>2026-04-18T14:41:02Z</time></trkpt><trkpt lat="43.0936236671813" lon="12.917702069104942"><ele>1298.75</ele><time>2026-04-18T14:41:03Z</time></trkpt><trkpt lat="43.093727844457206" lon="12.917752930494524"><ele>1296.5</ele><time>2026-04-18T14:41:04Z</time></trkpt><trkpt lat="43.09383781478196" lon="12.917820286355655"><ele>1294.25</ele><time>2026-04-18T14:41:05Z</time></trkpt><trkpt lat="43.093957700360775" lon="12.917886773632473"><ele>1292.0</ele><time>2026-04-18T14:41:06Z</time></trkpt><trkpt lat="43.09408185595537" lon="12.917953241268577"><ele>1295.75</ele><time>2026-04-18T14:41:07Z</time></trkpt><trkpt lat="43.0942126950094" lon="12.918030105285514"><ele>1299.5</ele><time>2026-04-18T14:41:08Z</time></trkpt><trkpt lat="43.094309397708614" lon="12.918114431200047"><ele>1303.25</ele><time>2026-04-18T14:41:09Z</time></trkpt><trkpt lat="43.09441472228713" lon="12.918207690375386"><ele>1307.0</ele><time>2026-04-18T14:41:10Z</time></trkpt><trkpt lat="43.094504747249026" lon="12.918291271453736"><ele>1307.0</ele><time>2026-04-18T14:41:11Z</time></trkpt><trkpt lat="43.09459370388835" lon="12.918382414217493"><ele>1307.0</ele><time>2026-04-18T14:41:12Z</time></trkpt><trkpt lat="43.09467855065009" lon="12.918472608370335"><ele>1307.0</ele><time>2026-04-18T14:41:13Z</time></trkpt><trkpt lat="43.09475556565739" lon="12.918553363177475"><ele>1307.0</ele><time>2026-04-18T14:41:14Z</time></trkpt><trkpt lat="43.094810303575954" lon="12.91861762827943"><ele>1307.0</ele><time>2026-04-18T14:41:15Z</time></trkpt><trkpt lat="43.09484785515117" lon="12.918702870304763"><ele>1307.8333333333335</ele><time>2026-04-18T14:41:16Z</time></trkpt><trkpt lat="43.0948840867591" lon="12.918798147730536"><ele>1308.6666666666667</ele><time>2026-04-18T14:41:17Z</time></trkpt><trkpt lat="43.09492647771219" lon="12.918900550005556"><ele>1309.5</ele><time>2026-04-18T14:41:18Z</time></trkpt><trkpt lat="43.09496828024644" lon="12.91899623018242"><ele>1310.3333333333333</ele><time>2026-04-18T14:41:19Z</time></trkpt><trkpt lat="43.09501696049115" lon="12.919103070138732"><ele>1311.1666666666665</ele><time>2026-04-18T14:41:20Z</time></trkpt><trkpt lat="43.0950646107486" lon="12.919209170202143"><ele>1312.0</ele><time>2026-04-18T14:41:21Z</time></trkpt><trkpt lat="43.09510844115612" lon="12.919334216219212"><ele>1312.0</ele><time>2026-04-18T14:41:22Z</time></trkpt><trkpt lat="43.0951515442438" lon="12.919452459357956"><ele>1312.0</ele><time>2026-04-18T14:41:23Z</time></trkpt><trkpt lat="43.0951931359582" lon="12.91956442580638"><ele>1312.0</ele><time>2026-04-18T14:41:24Z</time></trkpt><trkpt lat="43.09522546974491" lon="12.919674870383009"><ele>1312.0</ele><time>2026-04-18T14:41:24.999Z</time></trkpt><trkpt lat="43.09526015436472" lon="12.919785012872682"><ele>1312.0</ele><time>2026-04-18T14:41:25.999Z</time></trkpt><trkpt lat="43.09529888990512" lon="12.919900048652014"><ele>1312.0</ele><time>2026-04-18T14:41:26.999Z</time></trkpt><trkpt lat="43.09534067144431" lon="12.9200266364056"><ele>1312.0</ele><time>2026-04-18T14:41:27.999Z</time></trkpt><trkpt lat="43.0953801831206" lon="12.92015282892507"><ele>1312.0</ele><time>2026-04-18T14:41:28.999Z</time></trkpt><trkpt lat="43.09542133630347" lon="12.920267309959579"><ele>1312.0</ele><time>2026-04-18T14:41:29.999Z</time></trkpt><trkpt lat="43.09545494094333" lon="12.920374287802739"><ele>1312.0</ele><time>2026-04-18T14:41:30.999Z</time></trkpt><trkpt lat="43.09548943023871" lon="12.920494676700478"><ele>1310.3333333333333</ele><time>2026-04-18T14:41:31.999Z</time></trkpt><trkpt lat="43.09551698755206" lon="12.920573570015398"><ele>1308.6666666666665</ele><time>2026-04-18T14:41:32.999Z</time></trkpt><trkpt lat="43.095553813259926" lon="12.920650005738292"><ele>1307.0</ele><time>2026-04-18T14:41:33.999Z</time></trkpt><trkpt lat="43.09560204521487" lon="12.920721785538904"><ele>1305.3333333333333</ele><time>2026-04-18T14:41:37.999Z</time></trkpt><trkpt lat="43.09566758927017" lon="12.92071620270305"><ele>1303.6666666666667</ele><time>2026-04-18T14:41:39.999Z</time></trkpt><trkpt lat="43.095741923006635" lon="12.920728532882059"><ele>1302.0</ele><time>2026-04-18T14:41:41.999Z</time></trkpt><trkpt lat="43.09583851792064" lon="12.920824541232705"><ele>1307.5</ele><time>2026-04-18T14:41:43.999Z</time></trkpt><trkpt lat="43.095851799077735" lon="12.920948761255383"><ele>1313.0</ele><time>2026-04-18T14:41:45.999Z</time></trkpt><trkpt lat="43.095858127141426" lon="12.921074817229881"><ele>1318.5</ele><time>2026-04-18T14:41:47.999Z</time></trkpt><trkpt lat="43.09587760652686" lon="12.92116443214821"><ele>1324.0</ele><time>2026-04-18T14:41:49.999Z</time></trkpt><trkpt lat="43.09589507458294" lon="12.921296210189164"><ele>1329.5</ele><time>2026-04-18T14:41:52.999Z</time></trkpt><trkpt lat="43.09587753998105" lon="12.921398896589881"><ele>1335.0</ele><time>2026-04-18T14:41:55.999Z</time></trkpt><trkpt lat="43.0958645587141" lon="12.921485202637951"><ele>1335.0</ele><time>2026-04-18T14:41:57.999Z</time></trkpt><trkpt lat="43.095848972280734" lon="12.921598773581728"><ele>1335.0</ele><time>2026-04-18T14:42:00.999Z</time></trkpt><trkpt lat="43.095794298125746" lon="12.9217250411915"><ele>1335.0</ele><time>2026-04-18T14:42:03.999Z</time></trkpt><trkpt lat="43.095787730113756" lon="12.921826153907245"><ele>1335.0</ele><time>2026-04-18T14:42:05.999Z</time></trkpt><trkpt lat="43.09579784891632" lon="12.921945990478484"><ele>1335.0</ele><time>2026-04-18T14:42:07.999Z</time></trkpt><trkpt lat="43.09583146026981" lon="12.92208970573284"><ele>1334.1666666666667</ele><time>2026-04-18T14:42:09.999Z</time></trkpt><trkpt lat="43.095856611216156" lon="12.922187133783352"><ele>1333.3333333333333</ele><time>2026-04-18T14:42:10.999Z</time></trkpt><trkpt lat="43.09588810624365" lon="12.922321460851817"><ele>1332.5</ele><time>2026-04-18T14:42:12.999Z</time></trkpt><trkpt lat="43.095889139494595" lon="12.92243327347058"><ele>1331.6666666666665</ele><time>2026-04-18T14:42:14.999Z</time></trkpt><trkpt lat="43.0959195452987" lon="12.922521947306723"><ele>1330.8333333333333</ele><time>2026-04-18T14:42:16.999Z</time></trkpt><trkpt lat="43.09594558940954" lon="12.922614672111655"><ele>1330.0</ele><time>2026-04-18T14:42:18.999Z</time></trkpt><trkpt lat="43.09595555905396" lon="12.922726559991341"><ele>1327.6</ele><time>2026-04-18T14:42:21Z</time></trkpt><trkpt lat="43.0959877932128" lon="12.922801422263436"><ele>1325.2</ele><time>2026-04-18T14:42:23Z</time></trkpt><trkpt lat="43.096013162398464" lon="12.922884563830932"><ele>1322.8000000000002</ele><time>2026-04-18T14:42:25Z</time></trkpt><trkpt lat="43.09602543351715" lon="12.923027630880968"><ele>1320.4</ele><time>2026-04-18T14:42:27Z</time></trkpt><trkpt lat="43.09602876854218" lon="12.92317445243914"><ele>1318.0</ele><time>2026-04-18T14:42:29Z</time></trkpt><trkpt lat="43.09603799313067" lon="12.923357351556609"><ele>1317.25</ele><time>2026-04-18T14:42:31Z</time></trkpt><trkpt lat="43.0960164352415" lon="12.923516615565825"><ele>1316.5</ele><time>2026-04-18T14:42:33Z</time></trkpt><trkpt lat="43.09599642742834" lon="12.92366236121579"><ele>1315.75</ele><time>2026-04-18T14:42:35Z</time></trkpt><trkpt lat="43.09603588549133" lon="12.92380874429317"><ele>1315.0</ele><time>2026-04-18T14:42:37Z</time></trkpt><trkpt lat="43.09610514893314" lon="12.923975281081427"><ele>1315.0</ele><time>2026-04-18T14:42:39Z</time></trkpt><trkpt lat="43.09613723654365" lon="12.924076324119259"><ele>1315.0</ele><time>2026-04-18T14:42:40Z</time></trkpt><trkpt lat="43.096169066106164" lon="12.924192941780765"><ele>1315.0</ele><time>2026-04-18T14:42:41Z</time></trkpt><trkpt lat="43.09619098048228" lon="12.924306640150975"><ele>1315.0</ele><time>2026-04-18T14:42:42Z</time></trkpt><trkpt lat="43.09618990984234" lon="12.924411678668056"><ele>1315.0</ele><time>2026-04-18T14:42:43Z</time></trkpt><trkpt lat="43.09620658123194" lon="12.92453927976827"><ele>1315.0</ele><time>2026-04-18T14:42:44Z</time></trkpt><trkpt lat="43.09623093116019" lon="12.924669913943019"><ele>1314.8333333333333</ele><time>2026-04-18T14:42:45Z</time></trkpt><trkpt lat="43.096242556912365" lon="12.92479724970354"><ele>1314.6666666666665</ele><time>2026-04-18T14:42:46Z</time></trkpt><trkpt lat="43.09626275812973" lon="12.924918158391403"><ele>1314.5</ele><time>2026-04-18T14:42:47Z</time></trkpt><trkpt lat="43.096278833665494" lon="12.925015014785739"><ele>1314.3333333333333</ele><time>2026-04-18T14:42:48Z</time></trkpt><trkpt lat="43.09627814681433" lon="12.9251059126523"><ele>1314.1666666666667</ele><time>2026-04-18T14:42:49Z</time></trkpt><trkpt lat="43.09628331928243" lon="12.925223655795776"><ele>1314.0</ele><time>2026-04-18T14:42:50Z</time></trkpt><trkpt lat="43.096259868881354" lon="12.925329730076456"><ele>1312.0</ele><time>2026-04-18T14:42:51Z</time></trkpt><trkpt lat="43.09623414205904" lon="12.925440559133353"><ele>1310.0</ele><time>2026-04-18T14:42:52Z</time></trkpt><trkpt lat="43.09623557548534" lon="12.925587697419072"><ele>1308.0</ele><time>2026-04-18T14:42:54Z</time></trkpt><trkpt lat="43.09625536734476" lon="12.925674137606743"><ele>1306.0</ele><time>2026-04-18T14:42:55Z</time></trkpt><trkpt lat="43.096273069558904" lon="12.925782644561481"><ele>1304.0</ele><time>2026-04-18T14:42:57Z</time></trkpt><trkpt lat="43.096307793148846" lon="12.925965481366408"><ele>1302.1666666666667</ele><time>2026-04-18T14:43:00Z</time></trkpt><trkpt lat="43.096350752464375" lon="12.92603991275303"><ele>1300.3333333333335</ele><time>2026-04-18T14:43:01Z</time></trkpt><trkpt lat="43.09637825858494" lon="12.926135683740418"><ele>1298.5</ele><time>2026-04-18T14:43:02Z</time></trkpt><trkpt lat="43.09639169237194" lon="12.926220311619586"><ele>1296.6666666666667</ele><time>2026-04-18T14:43:03Z</time></trkpt><trkpt lat="43.09639092061064" lon="12.926397562760858"><ele>1294.8333333333333</ele><time>2026-04-18T14:43:05Z</time></trkpt><trkpt lat="43.096420490816435" lon="12.926484356174106"><ele>1293.0</ele><time>2026-04-18T14:43:06Z</time></trkpt><trkpt lat="43.09646002783972" lon="12.92659807893579"><ele>1293.0</ele><time>2026-04-18T14:43:08Z</time></trkpt><trkpt lat="43.09648296913521" lon="12.92669524617543"><ele>1293.0</ele><time>2026-04-18T14:43:39.999Z</time></trkpt><trkpt lat="43.09652819003939" lon="12.926793774596609"><ele>1293.0</ele><time>2026-04-18T14:43:42.999Z</time></trkpt><trkpt lat="43.09651052027206" lon="12.92688613493558"><ele>1293.0</ele><time>2026-04-18T14:43:48.999Z</time></trkpt><trkpt lat="43.09650592837176" lon="12.92697916748848"><ele>1293.0</ele><time>2026-04-18T14:43:50.999Z</time></trkpt><trkpt lat="43.09650918848929" lon="12.927068408892081"><ele>1293.0</ele><time>2026-04-18T14:43:52.999Z</time></trkpt><trkpt lat="43.0965064640372" lon="12.927167907338395"><ele>1293.0</ele><time>2026-04-18T14:43:54.999Z</time></trkpt><trkpt lat="43.09652995222863" lon="12.927256835044178"><ele>1291.2</ele><time>2026-04-18T14:43:56.999Z</time></trkpt><trkpt lat="43.096572668986354" lon="12.927372309253933"><ele>1289.4</ele><time>2026-04-18T14:43:58.999Z</time></trkpt><trkpt lat="43.09657335318782" lon="12.927495862155238"><ele>1287.6000000000001</ele><time>2026-04-18T14:44:00.999Z</time></trkpt><trkpt lat="43.09653760408806" lon="12.927632758612482"><ele>1285.8000000000002</ele><time>2026-04-18T14:44:02.999Z</time></trkpt><trkpt lat="43.09651796125281" lon="12.92777996116001"><ele>1284.0</ele><time>2026-04-18T14:44:04.999Z</time></trkpt><trkpt lat="43.0965174028219" lon="12.927934292281831"><ele>1283.6</ele><time>2026-04-18T14:44:06.999Z</time></trkpt><trkpt lat="43.09651536648786" lon="12.928108236674763"><ele>1283.2</ele><time>2026-04-18T14:44:08.999Z</time></trkpt><trkpt lat="43.09651837448386" lon="12.928283754085891"><ele>1282.8</ele><time>2026-04-18T14:44:10.999Z</time></trkpt><trkpt lat="43.096525732311044" lon="12.928375317524385"><ele>1282.3999999999999</ele><time>2026-04-18T14:44:11.999Z</time></trkpt><trkpt lat="43.0965272597477" lon="12.928484640122067"><ele>1282.0</ele><time>2026-04-18T14:44:12.999Z</time></trkpt><trkpt lat="43.096535602711256" lon="12.92863068079879"><ele>1280.1999999999998</ele><time>2026-04-18T14:44:13.999Z</time></trkpt><trkpt lat="43.09654802574273" lon="12.928775624677488"><ele>1278.3999999999999</ele><time>2026-04-18T14:44:14.999Z</time></trkpt><trkpt lat="43.09656225406913" lon="12.928928577013998"><ele>1276.6</ele><time>2026-04-18T14:44:15.999Z</time></trkpt><trkpt lat="43.0965660102168" lon="12.929071929473931"><ele>1274.8</ele><time>2026-04-18T14:44:16.999Z</time></trkpt><trkpt lat="43.09655422588674" lon="12.929204664090355"><ele>1273.0</ele><time>2026-04-18T14:44:17.999Z</time></trkpt><trkpt lat="43.096540311156204" lon="12.929327600250014"><ele>1273.6666666666665</ele><time>2026-04-18T14:44:18.999Z</time></trkpt><trkpt lat="43.096535317932414" lon="12.929443604593379"><ele>1274.3333333333333</ele><time>2026-04-18T14:44:19.999Z</time></trkpt><trkpt lat="43.09656087123466" lon="12.929549622395218"><ele>1275.0</ele><time>2026-04-18T14:44:20.999Z</time></trkpt><trkpt lat="43.09658379028894" lon="12.929654437748685"><ele>1275.6666666666667</ele><time>2026-04-18T14:44:21.999Z</time></trkpt><trkpt lat="43.09658724993233" lon="12.929821606653725"><ele>1276.3333333333335</ele><time>2026-04-18T14:44:23.999Z</time></trkpt><trkpt lat="43.09659665510206" lon="12.929929661243621"><ele>1277.0</ele><time>2026-04-18T14:44:24.999Z</time></trkpt><trkpt lat="43.096613913858924" lon="12.930049040889223"><ele>1274.2</ele><time>2026-04-18T14:44:25.999Z</time></trkpt><trkpt lat="43.09662908597837" lon="12.930147550555846"><ele>1271.4</ele><time>2026-04-18T14:44:27Z</time></trkpt><trkpt lat="43.09665440464699" lon="12.930297308626283"><ele>1268.6</ele><time>2026-04-18T14:44:29Z</time></trkpt><trkpt lat="43.096671809241336" lon="12.93044583189298"><ele>1265.8</ele><time>2026-04-18T14:44:31Z</time></trkpt><trkpt lat="43.096666834521045" lon="12.930580874588964"><ele>1263.0</ele><time>2026-04-18T14:44:33Z</time></trkpt><trkpt lat="43.09666614037664" lon="12.930674915558182"><ele>1263.0</ele><time>2026-04-18T14:44:34Z</time></trkpt><trkpt lat="43.096671335094754" lon="12.93082462293297"><ele>1263.0</ele><time>2026-04-18T14:44:36Z</time></trkpt><trkpt lat="43.09669861061705" lon="12.930985384413766"><ele>1263.0</ele><time>2026-04-18T14:44:38Z</time></trkpt><trkpt lat="43.09670621870432" lon="12.931072199822363"><ele>1263.0</ele><time>2026-04-18T14:44:39Z</time></trkpt><trkpt lat="43.09670824947859" lon="12.93117390497655"><ele>1263.0</ele><time>2026-04-18T14:44:40Z</time></trkpt><trkpt lat="43.096692876272755" lon="12.931337274290062"><ele>1260.5</ele><time>2026-04-18T14:44:42Z</time></trkpt><trkpt lat="43.09664569953697" lon="12.931421886625163"><ele>1258.0</ele><time>2026-04-18T14:44:43Z</time></trkpt><trkpt lat="43.096626696235575" lon="12.931582563410004"><ele>1255.5</ele><time>2026-04-18T14:44:45Z</time></trkpt><trkpt lat="43.096602193944264" lon="12.93166574540311"><ele>1253.0</ele><time>2026-04-18T14:44:46Z</time></trkpt><trkpt lat="43.09657811785575" lon="12.931746827879886"><ele>1250.5</ele><time>2026-04-18T14:44:47Z</time></trkpt><trkpt lat="43.09653470737386" lon="12.9318398707244"><ele>1248.0</ele><time>2026-04-18T14:44:48Z</time></trkpt><trkpt lat="43.09648275967311" lon="12.931917572348619"><ele>1241.8333333333333</ele><time>2026-04-18T14:44:49Z</time></trkpt><trkpt lat="43.09643530711064" lon="12.93202710698686"><ele>1235.6666666666667</ele><time>2026-04-18T14:44:50Z</time></trkpt><trkpt lat="43.0963958318191" lon="12.932119612350457"><ele>1229.5</ele><time>2026-04-18T14:44:51Z</time></trkpt><trkpt lat="43.09636034293935" lon="12.932191985462882"><ele>1223.3333333333335</ele><time>2026-04-18T14:44:52Z</time></trkpt><trkpt lat="43.0963217578044" lon="12.93227723499767"><ele>1217.1666666666667</ele><time>2026-04-18T14:44:53Z</time></trkpt><trkpt lat="43.096289158918395" lon="12.93237241922662"><ele>1211.0</ele><time>2026-04-18T14:44:54Z</time></trkpt><trkpt lat="43.09625098162672" lon="12.932461499610762"><ele>1211.0</ele><time>2026-04-18T14:44:55Z</time></trkpt><trkpt lat="43.09622550103334" lon="12.932552834186305"><ele>1211.0</ele><time>2026-04-18T14:44:56Z</time></trkpt><trkpt lat="43.09620391263282" lon="12.932640471132698"><ele>1211.0</ele><time>2026-04-18T14:44:57Z</time></trkpt><trkpt lat="43.09618027213024" lon="12.932749026230038"><ele>1211.0</ele><time>2026-04-18T14:44:58Z</time></trkpt><trkpt lat="43.09616269346755" lon="12.932857409801683"><ele>1211.0</ele><time>2026-04-18T14:44:59Z</time></trkpt><trkpt lat="43.096152533076136" lon="12.932946412442496"><ele>1211.0</ele><time>2026-04-18T14:45:00Z</time></trkpt><trkpt lat="43.09613084636532" lon="12.933033590208847"><ele>1211.0</ele><time>2026-04-18T14:45:01Z</time></trkpt><trkpt lat="43.09608648698758" lon="12.933215856489364"><ele>1210.0</ele><time>2026-04-18T14:45:03Z</time></trkpt><trkpt lat="43.096066969537425" lon="12.933321553662466"><ele>1209.0</ele><time>2026-04-18T14:45:04Z</time></trkpt><trkpt lat="43.09605880940398" lon="12.933418187309462"><ele>1208.0</ele><time>2026-04-18T14:45:05Z</time></trkpt><trkpt lat="43.096044699660176" lon="12.933508757712675"><ele>1207.0</ele><time>2026-04-18T14:45:06Z</time></trkpt><trkpt lat="43.096033735715494" lon="12.933622097183314"><ele>1206.0</ele><time>2026-04-18T14:45:07Z</time></trkpt><trkpt lat="43.09600932485194" lon="12.933759037974806"><ele>1205.0</ele><time>2026-04-18T14:45:08Z</time></trkpt><trkpt lat="43.09598958423485" lon="12.933886087874148"><ele>1204.8333333333335</ele><time>2026-04-18T14:45:09Z</time></trkpt><trkpt lat="43.09596694677021" lon="12.934006987698542"><ele>1204.6666666666667</ele><time>2026-04-18T14:45:10Z</time></trkpt><trkpt lat="43.09593651892411" lon="12.934117841071384"><ele>1204.5</ele><time>2026-04-18T14:45:11Z</time></trkpt><trkpt lat="43.095911088754036" lon="12.934224481595459"><ele>1204.3333333333333</ele><time>2026-04-18T14:45:12Z</time></trkpt><trkpt lat="43.09588445558645" lon="12.934359308960229"><ele>1204.1666666666665</ele><time>2026-04-18T14:45:13Z</time></trkpt><trkpt lat="43.09586002502332" lon="12.934454629190087"><ele>1204.0</ele><time>2026-04-18T14:45:14Z</time></trkpt><trkpt lat="43.09582788565388" lon="12.934553893510413"><ele>1204.0</ele><time>2026-04-18T14:45:15Z</time></trkpt><trkpt lat="43.09579241474215" lon="12.934648273357478"><ele>1204.0</ele><time>2026-04-18T14:45:16Z</time></trkpt><trkpt lat="43.0957718356442" lon="12.934743187863797"><ele>1204.0</ele><time>2026-04-18T14:45:17Z</time></trkpt><trkpt lat="43.095717136071706" lon="12.934894004507937"><ele>1204.0</ele><time>2026-04-18T14:45:19Z</time></trkpt><trkpt lat="43.09567901428234" lon="12.934990270352293"><ele>1204.0</ele><time>2026-04-18T14:45:20Z</time></trkpt><trkpt lat="43.09562472503742" lon="12.935094563621398"><ele>1204.0</ele><time>2026-04-18T14:45:21Z</time></trkpt><trkpt lat="43.09555769292587" lon="12.93518600528998"><ele>1202.2</ele><time>2026-04-18T14:45:22Z</time></trkpt><trkpt lat="43.09546481286649" lon="12.935281742202239"><ele>1200.4</ele><time>2026-04-18T14:45:23Z</time></trkpt><trkpt lat="43.09537927246776" lon="12.935349606784962"><ele>1198.6</ele><time>2026-04-18T14:45:24Z</time></trkpt><trkpt lat="43.09530226854541" lon="12.935422638303022"><ele>1196.8</ele><time>2026-04-18T14:45:25Z</time></trkpt><trkpt lat="43.09524184332606" lon="12.935499275168091"><ele>1195.0</ele><time>2026-04-18T14:45:26Z</time></trkpt><trkpt lat="43.09518485252741" lon="12.935582885417434"><ele>1195.0</ele><time>2026-04-18T14:45:27Z</time></trkpt><trkpt lat="43.095123119657586" lon="12.935667684373929"><ele>1195.0</ele><time>2026-04-18T14:45:28Z</time></trkpt><trkpt lat="43.09506731639372" lon="12.93575870912872"><ele>1195.0</ele><time>2026-04-18T14:45:29Z</time></trkpt><trkpt lat="43.09502471900163" lon="12.93584374919171"><ele>1195.0</ele><time>2026-04-18T14:45:30Z</time></trkpt><trkpt lat="43.09495205302239" lon="12.935987708842429"><ele>1195.0</ele><time>2026-04-18T14:45:32Z</time></trkpt><trkpt lat="43.09487870127415" lon="12.936056324743879"><ele>1190.8333333333333</ele><time>2026-04-18T14:45:33Z</time></trkpt><trkpt lat="43.094832017152406" lon="12.93614775172795"><ele>1186.6666666666665</ele><time>2026-04-18T14:45:34Z</time></trkpt><trkpt lat="43.09477353912274" lon="12.936229762065938"><ele>1182.5</ele><time>2026-04-18T14:45:35Z</time></trkpt><trkpt lat="43.09471301301736" lon="12.936326166057492"><ele>1178.3333333333333</ele><time>2026-04-18T14:45:36Z</time></trkpt><trkpt lat="43.094676385940396" lon="12.936412852831552"><ele>1174.1666666666667</ele><time>2026-04-18T14:45:37Z</time></trkpt><trkpt lat="43.09464701238415" lon="12.936508302397248"><ele>1170.0</ele><time>2026-04-18T14:45:38Z</time></trkpt><trkpt lat="43.09463896618413" lon="12.936594866892545"><ele>1169.8333333333333</ele><time>2026-04-18T14:45:39Z</time></trkpt><trkpt lat="43.09462355980959" lon="12.93674125171115"><ele>1169.6666666666667</ele><time>2026-04-18T14:45:41Z</time></trkpt><trkpt lat="43.09463093489675" lon="12.936849651457957"><ele>1169.5</ele><time>2026-04-18T14:45:44Z</time></trkpt><trkpt lat="43.09464508392928" lon="12.93695200197313"><ele>1169.3333333333335</ele><time>2026-04-18T14:45:46Z</time></trkpt><trkpt lat="43.094597929919566" lon="12.937041659662844"><ele>1169.1666666666667</ele><time>2026-04-18T14:45:47.999Z</time></trkpt><trkpt lat="43.094543874156344" lon="12.937093937921096"><ele>1169.0</ele><time>2026-04-18T14:45:51.999Z</time></trkpt><trkpt lat="43.09445440579789" lon="12.9371085854594"><ele>1169.0</ele><time>2026-04-18T14:45:54.999Z</time></trkpt><trkpt lat="43.094379293250036" lon="12.937201463952011"><ele>1169.0</ele><time>2026-04-18T14:45:56.999Z</time></trkpt><trkpt lat="43.09431059293629" lon="12.93728345719449"><ele>1169.0</ele><time>2026-04-18T14:45:58.999Z</time></trkpt><trkpt lat="43.09429681514723" lon="12.937368635390252"><ele>1169.0</ele><time>2026-04-18T14:46:00.999Z</time></trkpt><trkpt lat="43.094272472532765" lon="12.937495760347435"><ele>1169.0</ele><time>2026-04-18T14:46:02.999Z</time></trkpt><trkpt lat="43.094264022500184" lon="12.93759629133231"><ele>1169.0</ele><time>2026-04-18T14:46:04.999Z</time></trkpt><trkpt lat="43.09423038374923" lon="12.937704410681304"><ele>1167.0</ele><time>2026-04-18T14:46:06.999Z</time></trkpt><trkpt lat="43.094175419838265" lon="12.937850800016534"><ele>1165.0</ele><time>2026-04-18T14:46:08.999Z</time></trkpt><trkpt lat="43.09412932248555" lon="12.938003812126404"><ele>1163.0</ele><time>2026-04-18T14:46:10.999Z</time></trkpt><trkpt lat="43.09409845343008" lon="12.938144949184561"><ele>1161.0</ele><time>2026-04-18T14:46:12.999Z</time></trkpt><trkpt lat="43.09410684327448" lon="12.938284053997176"><ele>1157.8</ele><time>2026-04-18T14:46:14.999Z</time></trkpt><trkpt lat="43.094098766257176" lon="12.93844041807631"><ele>1154.6</ele><time>2026-04-18T14:46:16.999Z</time></trkpt><trkpt lat="43.094125018646274" lon="12.938583679223887"><ele>1151.4</ele><time>2026-04-18T14:46:18.999Z</time></trkpt><trkpt lat="43.094146740461404" lon="12.938710626461665"><ele>1148.2</ele><time>2026-04-18T14:46:20.999Z</time></trkpt><trkpt lat="43.09416450221493" lon="12.938813120425142"><ele>1145.0</ele><time>2026-04-18T14:46:21.999Z</time></trkpt><trkpt lat="43.09420166989903" lon="12.938944895368037"><ele>1145.0</ele><time>2026-04-18T14:46:23.999Z</time></trkpt><trkpt lat="43.0942542999279" lon="12.939083362723835"><ele>1145.0</ele><time>2026-04-18T14:46:25.999Z</time></trkpt><trkpt lat="43.094302728875654" lon="12.93922839869875"><ele>1145.0</ele><time>2026-04-18T14:46:27.999Z</time></trkpt><trkpt lat="43.09432358816471" lon="12.939332593707459"><ele>1145.0</ele><time>2026-04-18T14:46:29.999Z</time></trkpt><trkpt lat="43.09435409402599" lon="12.939468837389004"><ele>1145.0</ele><time>2026-04-18T14:46:31.999Z</time></trkpt><trkpt lat="43.09438511489651" lon="12.939562711318183"><ele>1142.3333333333335</ele><time>2026-04-18T14:46:34Z</time></trkpt><trkpt lat="43.09444495965701" lon="12.939664583131641"><ele>1139.6666666666667</ele><time>2026-04-18T14:46:36Z</time></trkpt><trkpt lat="43.094493775867086" lon="12.93975365855076"><ele>1137.0</ele><time>2026-04-18T14:46:37Z</time></trkpt><trkpt lat="43.09456294327598" lon="12.939860489965787"><ele>1134.3333333333333</ele><time>2026-04-18T14:46:38Z</time></trkpt><trkpt lat="43.094612188237726" lon="12.939960243155081"><ele>1131.6666666666665</ele><time>2026-04-18T14:46:39Z</time></trkpt><trkpt lat="43.09465862099042" lon="12.940037362145569"><ele>1129.0</ele><time>2026-04-18T14:46:40Z</time></trkpt><trkpt lat="43.094723273832244" lon="12.940105114559502"><ele>1127.1666666666665</ele><time>2026-04-18T14:46:41Z</time></trkpt><trkpt lat="43.09478477390525" lon="12.940158283883981"><ele>1125.3333333333333</ele><time>2026-04-18T14:46:42Z</time></trkpt><trkpt lat="43.09484586795095" lon="12.940269392763435"><ele>1123.5</ele><time>2026-04-18T14:46:44Z</time></trkpt><trkpt lat="43.09488718467665" lon="12.940368950962464"><ele>1121.6666666666667</ele><time>2026-04-18T14:46:45Z</time></trkpt><trkpt lat="43.094940487129655" lon="12.94046796801322"><ele>1119.8333333333335</ele><time>2026-04-18T14:46:46Z</time></trkpt><trkpt lat="43.094986775154574" lon="12.940548684213722"><ele>1118.0</ele><time>2026-04-18T14:46:47Z</time></trkpt><trkpt lat="43.095039029646664" lon="12.940619637887202"><ele>1118.0</ele><time>2026-04-18T14:46:48Z</time></trkpt><trkpt lat="43.095095688501175" lon="12.940700044320414"><ele>1118.0</ele><time>2026-04-18T14:46:49Z</time></trkpt><trkpt lat="43.09517663170571" lon="12.940819354747273"><ele>1118.0</ele><time>2026-04-18T14:46:51Z</time></trkpt><trkpt lat="43.09519600290267" lon="12.940911319690242"><ele>1118.0</ele><time>2026-04-18T14:46:52Z</time></trkpt><trkpt lat="43.09524381531511" lon="12.940990276263614"><ele>1118.0</ele><time>2026-04-18T14:46:53Z</time></trkpt><trkpt lat="43.0953270946338" lon="12.941090700281357"><ele>1114.5</ele><time>2026-04-18T14:46:55Z</time></trkpt><trkpt lat="43.095376150263185" lon="12.941147837365442"><ele>1111.0</ele><time>2026-04-18T14:46:56Z</time></trkpt><trkpt lat="43.09543931402112" lon="12.941206597096444"><ele>1107.5</ele><time>2026-04-18T14:46:57Z</time></trkpt><trkpt lat="43.09551642683754" lon="12.941268592223063"><ele>1104.0</ele><time>2026-04-18T14:46:59Z</time></trkpt><trkpt lat="43.09551645456869" lon="12.941381459170652"><ele>1100.5</ele><time>2026-04-18T14:47:01Z</time></trkpt><trkpt lat="43.09546015674689" lon="12.94142289054092"><ele>1097.0</ele><time>2026-04-18T14:47:04Z</time></trkpt><trkpt lat="43.09541134535015" lon="12.941498702410428"><ele>1097.0</ele><time>2026-04-18T14:47:08Z</time></trkpt><trkpt lat="43.09534092744802" lon="12.941547539359819"><ele>1097.0</ele><time>2026-04-18T14:47:11Z</time></trkpt><trkpt lat="43.0952579278942" lon="12.94162821603511"><ele>1097.0</ele><time>2026-04-18T14:47:13Z</time></trkpt><trkpt lat="43.09517768962943" lon="12.941657086994555"><ele>1097.0</ele><time>2026-04-18T14:47:15Z</time></trkpt><trkpt lat="43.095081596510695" lon="12.941694521006358"><ele>1097.0</ele><time>2026-04-18T14:47:17Z</time></trkpt><trkpt lat="43.094989586133195" lon="12.941743164724716"><ele>1092.3333333333335</ele><time>2026-04-18T14:47:19Z</time></trkpt><trkpt lat="43.094920480098494" lon="12.94178322992653"><ele>1087.6666666666667</ele><time>2026-04-18T14:47:21Z</time></trkpt><trkpt lat="43.09489380667014" lon="12.941880292260112"><ele>1083.0</ele><time>2026-04-18T14:47:28Z</time></trkpt><trkpt lat="43.09494292777268" lon="12.941987160721114"><ele>1078.3333333333333</ele><time>2026-04-18T14:47:31Z</time></trkpt><trkpt lat="43.09498530924488" lon="12.94207451943943"><ele>1073.6666666666665</ele><time>2026-04-18T14:47:33Z</time></trkpt><trkpt lat="43.09504134974843" lon="12.942140339124004"><ele>1069.0</ele><time>2026-04-18T14:47:35Z</time></trkpt><trkpt lat="43.095111713161074" lon="12.942202652059935"><ele>1069.0</ele><time>2026-04-18T14:47:37Z</time></trkpt><trkpt lat="43.0951549596961" lon="12.942278355804143"><ele>1069.0</ele><time>2026-04-18T14:47:39Z</time></trkpt><trkpt lat="43.09523223372951" lon="12.94235149077495"><ele>1069.0</ele><time>2026-04-18T14:47:41Z</time></trkpt><trkpt lat="43.09528599881635" lon="12.942414275044765"><ele>1069.0</ele><time>2026-04-18T14:47:43Z</time></trkpt><trkpt lat="43.09536868159287" lon="12.942487172110152"><ele>1069.0</ele><time>2026-04-18T14:47:45Z</time></trkpt><trkpt lat="43.09544247177687" lon="12.942538481745393"><ele>1069.0</ele><time>2026-04-18T14:47:47Z</time></trkpt><trkpt lat="43.09551247731833" lon="12.942583609597643"><ele>1064.5</ele><time>2026-04-18T14:47:49Z</time></trkpt><trkpt lat="43.09557534145842" lon="12.942669231016975"><ele>1060.0</ele><time>2026-04-18T14:47:51Z</time></trkpt><trkpt lat="43.09563981198486" lon="12.942766457829812"><ele>1055.5</ele><time>2026-04-18T14:47:53Z</time></trkpt><trkpt lat="43.095690474335974" lon="12.942848935914775"><ele>1051.0</ele><time>2026-04-18T14:47:54.999Z</time></trkpt><trkpt lat="43.09576007329519" lon="12.94289601204686"><ele>1046.5</ele><time>2026-04-18T14:47:56.999Z</time></trkpt><trkpt lat="43.09581908044151" lon="12.942943926382275"><ele>1042.0</ele><time>2026-04-18T14:47:58.999Z</time></trkpt><trkpt lat="43.095823607055586" lon="12.943043976550038"><ele>1042.0</ele><time>2026-04-18T14:48:02.999Z</time></trkpt><trkpt lat="43.095798773445644" lon="12.943125059186405"><ele>1042.0</ele><time>2026-04-18T14:48:04.999Z</time></trkpt><trkpt lat="43.09575708212707" lon="12.943221113029606"><ele>1042.0</ele><time>2026-04-18T14:48:06.999Z</time></trkpt><trkpt lat="43.09568745515828" lon="12.943257986468877"><ele>1042.0</ele><time>2026-04-18T14:48:08.999Z</time></trkpt><trkpt lat="43.095604335226014" lon="12.943290738017554"><ele>1042.0</ele><time>2026-04-18T14:48:10.999Z</time></trkpt><trkpt lat="43.095535126743016" lon="12.943307818900776"><ele>1042.0</ele><time>2026-04-18T14:48:12.999Z</time></trkpt><trkpt lat="43.09546070799298" lon="12.94333232464383"><ele>1036.0</ele><time>2026-04-18T14:48:14.999Z</time></trkpt><trkpt lat="43.095399348968456" lon="12.94341173887173"><ele>1030.0</ele><time>2026-04-18T14:48:16.999Z</time></trkpt><trkpt lat="43.095326287030744" lon="12.943424366746115"><ele>1024.0</ele><time>2026-04-18T14:48:24.999Z</time></trkpt><trkpt lat="43.09524285039812" lon="12.943472336333159"><ele>1018.0</ele><time>2026-04-18T14:48:27.999Z</time></trkpt><trkpt lat="43.095177728348915" lon="12.943503848785337"><ele>1011.9999999999999</ele><time>2026-04-18T14:48:29.999Z</time></trkpt><trkpt lat="43.09510734327887" lon="12.94355341307921"><ele>1006.0</ele><time>2026-04-18T14:48:35.999Z</time></trkpt><trkpt lat="43.09502832019141" lon="12.943599614648107"><ele>1005.9999999999999</ele><time>2026-04-18T14:48:37.999Z</time></trkpt><trkpt lat="43.09492236819558" lon="12.94363840573217"><ele>1006.0</ele><time>2026-04-18T14:48:40Z</time></trkpt><trkpt lat="43.09482576098936" lon="12.943673987637519"><ele>1006.0</ele><time>2026-04-18T14:48:42Z</time></trkpt><trkpt lat="43.09472506380606" lon="12.943679633952037"><ele>1006.0</ele><time>2026-04-18T14:48:44Z</time></trkpt><trkpt lat="43.09465481693753" lon="12.94369410468326"><ele>1005.9999999999999</ele><time>2026-04-18T14:48:45Z</time></trkpt><trkpt lat="43.09459374159324" lon="12.943672503050323"><ele>1006.0</ele><time>2026-04-18T14:48:46Z</time></trkpt><trkpt lat="43.09451396499042" lon="12.943641159846882"><ele>1002.5714285714287</ele><time>2026-04-18T14:48:47Z</time></trkpt><trkpt lat="43.09443676526384" lon="12.943610189532098"><ele>999.1428571428572</ele><time>2026-04-18T14:48:48Z</time></trkpt><trkpt lat="43.094357353061795" lon="12.943587414211859"><ele>995.7142857142858</ele><time>2026-04-18T14:48:49Z</time></trkpt><trkpt lat="43.094291415476036" lon="12.943574697072641"><ele>992.2857142857142</ele><time>2026-04-18T14:48:50Z</time></trkpt><trkpt lat="43.09421188043904" lon="12.943552604848994"><ele>988.8571428571428</ele><time>2026-04-18T14:48:51Z</time></trkpt><trkpt lat="43.094144383400504" lon="12.943537628967325"><ele>985.4285714285713</ele><time>2026-04-18T14:48:52Z</time></trkpt><trkpt lat="43.094082471630124" lon="12.943509582660356"><ele>982.0</ele><time>2026-04-18T14:48:53Z</time></trkpt><trkpt lat="43.094014124248105" lon="12.94349102936974"><ele>978.3333333333333</ele><time>2026-04-18T14:48:54Z</time></trkpt><trkpt lat="43.09390177061977" lon="12.943524807416091"><ele>974.6666666666666</ele><time>2026-04-18T14:48:56Z</time></trkpt><trkpt lat="43.09381439481154" lon="12.94348959456454"><ele>971.0</ele><time>2026-04-18T14:48:58Z</time></trkpt><trkpt lat="43.09374094700052" lon="12.94349051310928"><ele>967.3333333333333</ele><time>2026-04-18T14:49:00Z</time></trkpt><trkpt lat="43.0937079172297" lon="12.943575605689746"><ele>963.6666666666666</ele><time>2026-04-18T14:49:06Z</time></trkpt><trkpt lat="43.09374211836681" lon="12.943650433486535"><ele>960.0</ele><time>2026-04-18T14:49:08Z</time></trkpt><trkpt lat="43.09379990041877" lon="12.943792107602999"><ele>960.0</ele><time>2026-04-18T14:49:10Z</time></trkpt><trkpt lat="43.09384794590136" lon="12.94384833450819"><ele>960.0</ele><time>2026-04-18T14:49:11Z</time></trkpt><trkpt lat="43.093922408977924" lon="12.94392907092172"><ele>960.0</ele><time>2026-04-18T14:49:13Z</time></trkpt><trkpt lat="43.09399893487211" lon="12.944050842280815"><ele>960.0</ele><time>2026-04-18T14:49:15Z</time></trkpt><trkpt lat="43.094064675793014" lon="12.944213550816078"><ele>960.0</ele><time>2026-04-18T14:49:17Z</time></trkpt><trkpt lat="43.09411795342387" lon="12.944290503956548"><ele>957.2</ele><time>2026-04-18T14:49:19Z</time></trkpt><trkpt lat="43.09417027271993" lon="12.944343679898697"><ele>954.4</ele><time>2026-04-18T14:49:20Z</time></trkpt><trkpt lat="43.09422708643633" lon="12.944395943979806"><ele>951.5999999999999</ele><time>2026-04-18T14:49:21Z</time></trkpt><trkpt lat="43.09430824024033" lon="12.944459144261213"><ele>948.8</ele><time>2026-04-18T14:49:23Z</time></trkpt><trkpt lat="43.094413826669204" lon="12.944532713170398"><ele>946.0</ele><time>2026-04-18T14:49:25Z</time></trkpt><trkpt lat="43.094499662253014" lon="12.94461637437081"><ele>945.9999999999999</ele><time>2026-04-18T14:49:27Z</time></trkpt><trkpt lat="43.09459389012958" lon="12.944688819725227"><ele>946.0</ele><time>2026-04-18T14:49:29Z</time></trkpt><trkpt lat="43.094666809969" lon="12.944746515260624"><ele>946.0</ele><time>2026-04-18T14:49:31Z</time></trkpt><trkpt lat="43.09472370226303" lon="12.944804718358753"><ele>946.0</ele><time>2026-04-18T14:49:32Z</time></trkpt><trkpt lat="43.09478845464445" lon="12.944840916765312"><ele>945.9999999999999</ele><time>2026-04-18T14:49:33Z</time></trkpt><trkpt lat="43.09487997910162" lon="12.94489547629896"><ele>946.0</ele><time>2026-04-18T14:49:35Z</time></trkpt><trkpt lat="43.094923542485134" lon="12.944958444817782"><ele>942.5999999999999</ele><time>2026-04-18T14:49:36Z</time></trkpt><trkpt lat="43.095004810885555" lon="12.9450462354081"><ele>939.1999999999999</ele><time>2026-04-18T14:49:38Z</time></trkpt><trkpt lat="43.09512830346109" lon="12.94509432491581"><ele>935.8000000000001</ele><time>2026-04-18T14:49:40Z</time></trkpt><trkpt lat="43.09520696812443" lon="12.945099900663465"><ele>932.4000000000001</ele><time>2026-04-18T14:49:41Z</time></trkpt><trkpt lat="43.095275855759915" lon="12.945142012493887"><ele>929.0</ele><time>2026-04-18T14:49:42Z</time></trkpt><trkpt lat="43.09535053850791" lon="12.945195761668367"><ele>929.0000000000001</ele><time>2026-04-18T14:49:43Z</time></trkpt><trkpt lat="43.09542554033862" lon="12.945237710714505"><ele>929.0</ele><time>2026-04-18T14:49:44Z</time></trkpt><trkpt lat="43.09549057455341" lon="12.945285004131973"><ele>929.0</ele><time>2026-04-18T14:49:45Z</time></trkpt><trkpt lat="43.095556273607414" lon="12.945322844269588"><ele>929.0</ele><time>2026-04-18T14:49:46Z</time></trkpt><trkpt lat="43.09562077124071" lon="12.945347993995084"><ele>929.0000000000001</ele><time>2026-04-18T14:49:47Z</time></trkpt><trkpt lat="43.09569511485845" lon="12.945362729114448"><ele>929.0</ele><time>2026-04-18T14:49:48Z</time></trkpt><trkpt lat="43.09577971807344" lon="12.945396760921396"><ele>929.5000000000001</ele><time>2026-04-18T14:49:49Z</time></trkpt><trkpt lat="43.09587759618201" lon="12.945429907548279"><ele>930.0</ele><time>2026-04-18T14:49:50Z</time></trkpt><trkpt lat="43.09598902219234" lon="12.945450289112395"><ele>930.5</ele><time>2026-04-18T14:49:51Z</time></trkpt><trkpt lat="43.09606540590881" lon="12.945486391115937"><ele>931.0</ele><time>2026-04-18T14:49:52Z</time></trkpt><trkpt lat="43.09613201948879" lon="12.945510769810067"><ele>931.5000000000001</ele><time>2026-04-18T14:49:53Z</time></trkpt><trkpt lat="43.09621518789549" lon="12.945520087121789"><ele>932.0</ele><time>2026-04-18T14:49:54Z</time></trkpt><trkpt lat="43.09628423410679" lon="12.945534277062993"><ele>932.0000000000001</ele><time>2026-04-18T14:49:55Z</time></trkpt><trkpt lat="43.096347662293354" lon="12.945539706074108"><ele>932.0</ele><time>2026-04-18T14:49:56Z</time></trkpt><trkpt lat="43.0964359201834" lon="12.945533061676649"><ele>932.0</ele><time>2026-04-18T14:49:58Z</time></trkpt><trkpt lat="43.09653139145813" lon="12.945545286764457"><ele>932.0</ele><time>2026-04-18T14:50:01Z</time></trkpt><trkpt lat="43.09657654722939" lon="12.945640515217686"><ele>932.0000000000001</ele><time>2026-04-18T14:50:02.999Z</time></trkpt><trkpt lat="43.09663361399939" lon="12.945781408204526"><ele>932.0</ele><time>2026-04-18T14:50:04.999Z</time></trkpt><trkpt lat="43.09664363635541" lon="12.945866870814577"><ele>925.4000000000001</ele><time>2026-04-18T14:50:06.999Z</time></trkpt><trkpt lat="43.09662252467844" lon="12.94597636700116"><ele>918.8000000000001</ele><time>2026-04-18T14:50:09.999Z</time></trkpt><trkpt lat="43.09655143403221" lon="12.946037813239242"><ele>912.2</ele><time>2026-04-18T14:50:11.999Z</time></trkpt><trkpt lat="43.096459328415825" lon="12.946103405417773"><ele>905.6</ele><time>2026-04-18T14:50:13.999Z</time></trkpt><trkpt lat="43.09636668602645" lon="12.946173421332052"><ele>899.0</ele><time>2026-04-18T14:50:15.999Z</time></trkpt><trkpt lat="43.09626219657435" lon="12.946307732004804"><ele>899.0000000000001</ele><time>2026-04-18T14:50:17.999Z</time></trkpt><trkpt lat="43.09618862838649" lon="12.946384714870568"><ele>899.0</ele><time>2026-04-18T14:50:18.999Z</time></trkpt><trkpt lat="43.09612665749126" lon="12.946459153619502"><ele>899.0</ele><time>2026-04-18T14:50:19.999Z</time></trkpt><trkpt lat="43.09607494692564" lon="12.94651607821433"><ele>899.0</ele><time>2026-04-18T14:50:20.999Z</time></trkpt><trkpt lat="43.0960057989324" lon="12.946612386348129"><ele>899.0000000000001</ele><time>2026-04-18T14:50:23.999Z</time></trkpt><trkpt lat="43.0959082779432" lon="12.946657978683243"><ele>899.0</ele><time>2026-04-18T14:50:25.999Z</time></trkpt><trkpt lat="43.09578329595355" lon="12.946712048692401"><ele>892.0000000000001</ele><time>2026-04-18T14:50:27.999Z</time></trkpt><trkpt lat="43.09571735495525" lon="12.946735214021475"><ele>885.0</ele><time>2026-04-18T14:50:28.999Z</time></trkpt><trkpt lat="43.095645164201756" lon="12.946762236044604"><ele>878.0</ele><time>2026-04-18T14:50:29.999Z</time></trkpt><trkpt lat="43.09554292724163" lon="12.94681238636805"><ele>871.0</ele><time>2026-04-18T14:50:31.999Z</time></trkpt><trkpt lat="43.09543516522516" lon="12.946889953936449"><ele>864.0000000000001</ele><time>2026-04-18T14:50:33.999Z</time></trkpt><trkpt lat="43.095375318662775" lon="12.946917821683106"><ele>857.0</ele><time>2026-04-18T14:50:34.999Z</time></trkpt><trkpt lat="43.09527336810034" lon="12.946886757972758"><ele>857.0000000000001</ele><time>2026-04-18T14:50:36.999Z</time></trkpt><trkpt lat="43.0951893118008" lon="12.946916914002285"><ele>857.0</ele><time>2026-04-18T14:50:38.999Z</time></trkpt><trkpt lat="43.095216145173026" lon="12.947002965258935"><ele>857.0</ele><time>2026-04-18T14:50:40.999Z</time></trkpt><trkpt lat="43.09528628745651" lon="12.94709481426934"><ele>857.0</ele><time>2026-04-18T14:50:42.999Z</time></trkpt><trkpt lat="43.09533264585596" lon="12.947162899561038"><ele>857.0000000000001</ele><time>2026-04-18T14:50:43.999Z</time></trkpt><trkpt lat="43.0953811301503" lon="12.947229804645433"><ele>857.0</ele><time>2026-04-18T14:50:45Z</time></trkpt><trkpt lat="43.09543412753883" lon="12.947301463824402"><ele>857.0</ele><time>2026-04-18T14:50:46Z</time></trkpt><trkpt lat="43.09549560470823" lon="12.947362076975569"><ele>857.0</ele><time>2026-04-18T14:50:47Z</time></trkpt><trkpt lat="43.09555731562457" lon="12.947425824100765"><ele>857.0</ele><time>2026-04-18T14:50:48Z</time></trkpt><trkpt lat="43.09561402780974" lon="12.947481097127643"><ele>857.0</ele><time>2026-04-18T14:50:49Z</time></trkpt><trkpt lat="43.09566887928838" lon="12.947552889439587"><ele>857.0</ele><time>2026-04-18T14:50:50Z</time></trkpt><trkpt lat="43.09571798269688" lon="12.947609329073778"><ele>857.0</ele><time>2026-04-18T14:50:51Z</time></trkpt><trkpt lat="43.09576772020474" lon="12.94769603884413"><ele>857.0</ele><time>2026-04-18T14:50:53Z</time></trkpt><trkpt lat="43.09582013912981" lon="12.94777826466059"><ele>852.8</ele><time>2026-04-18T14:50:55Z</time></trkpt><trkpt lat="43.09588442796447" lon="12.947828218082414"><ele>848.6</ele><time>2026-04-18T14:50:57Z</time></trkpt><trkpt lat="43.09598000044827" lon="12.947857986390568"><ele>844.4</ele><time>2026-04-18T14:50:59Z</time></trkpt><trkpt lat="43.09606783831604" lon="12.947902812461793"><ele>840.1999999999999</ele><time>2026-04-18T14:51:01Z</time></trkpt><trkpt lat="43.0962096268885" lon="12.947901477884047"><ele>836.0</ele><time>2026-04-18T14:51:03Z</time></trkpt><trkpt lat="43.0963314188821" lon="12.947893979958216"><ele>836.0</ele><time>2026-04-18T14:51:04Z</time></trkpt><trkpt lat="43.09646444217665" lon="12.947867052662147"><ele>836.0</ele><time>2026-04-18T14:51:05Z</time></trkpt><trkpt lat="43.09656894041104" lon="12.947863556770967"><ele>836.0</ele><time>2026-04-18T14:51:06Z</time></trkpt><trkpt lat="43.09666933213168" lon="12.947862806984283"><ele>836.0</ele><time>2026-04-18T14:51:07Z</time></trkpt><trkpt lat="43.09676458671038" lon="12.947860197804227"><ele>836.0</ele><time>2026-04-18T14:51:08Z</time></trkpt><trkpt lat="43.09684779451906" lon="12.94787026900625"><ele>836.3333333333334</ele><time>2026-04-18T14:51:09Z</time></trkpt><trkpt lat="43.09692741734665" lon="12.947885165473457"><ele>836.6666666666667</ele><time>2026-04-18T14:51:10Z</time></trkpt><trkpt lat="43.09700709689691" lon="12.947905962953612"><ele>837.0</ele><time>2026-04-18T14:51:11Z</time></trkpt><trkpt lat="43.0970907673504" lon="12.947896023185276"><ele>837.3333333333333</ele><time>2026-04-18T14:51:12Z</time></trkpt><trkpt lat="43.097185829109144" lon="12.947856471057177"><ele>837.6666666666666</ele><time>2026-04-18T14:51:13Z</time></trkpt><trkpt lat="43.09727295898399" lon="12.947835410837737"><ele>838.0</ele><time>2026-04-18T14:51:14Z</time></trkpt><trkpt lat="43.09734733688042" lon="12.947803488575959"><ele>840.1666666666666</ele><time>2026-04-18T14:51:15Z</time></trkpt><trkpt lat="43.09742130761269" lon="12.947763835167256"><ele>842.3333333333333</ele><time>2026-04-18T14:51:16Z</time></trkpt><trkpt lat="43.097494963046515" lon="12.94770332987416"><ele>844.5</ele><time>2026-04-18T14:51:17Z</time></trkpt><trkpt lat="43.0975749599636" lon="12.947636188638079"><ele>846.6666666666667</ele><time>2026-04-18T14:51:18Z</time></trkpt><trkpt lat="43.09764253600127" lon="12.947574329686548"><ele>848.8333333333334</ele><time>2026-04-18T14:51:19Z</time></trkpt><trkpt lat="43.09771629939148" lon="12.947501795376152"><ele>851.0</ele><time>2026-04-18T14:51:20Z</time></trkpt><trkpt lat="43.09780442183847" lon="12.94744837948573"><ele>851.0000000000001</ele><time>2026-04-18T14:51:21Z</time></trkpt><trkpt lat="43.09787748396417" lon="12.947435303486014"><ele>851.0</ele><time>2026-04-18T14:51:22Z</time></trkpt><trkpt lat="43.09794727011383" lon="12.947413875600581"><ele>851.0</ele><time>2026-04-18T14:51:23Z</time></trkpt><trkpt lat="43.09803532647038" lon="12.947369739038958"><ele>851.0</ele><time>2026-04-18T14:51:25Z</time></trkpt><trkpt lat="43.09814768903239" lon="12.94732243741247"><ele>851.0000000000001</ele><time>2026-04-18T14:51:27Z</time></trkpt><trkpt lat="43.09822703287408" lon="12.94737172197694"><ele>851.0</ele><time>2026-04-18T14:51:30Z</time></trkpt><trkpt lat="43.09830227375758" lon="12.947387639693854"><ele>845.6666666666667</ele><time>2026-04-18T14:51:32Z</time></trkpt><trkpt lat="43.09837643423651" lon="12.947365673016268"><ele>840.3333333333334</ele><time>2026-04-18T14:51:34Z</time></trkpt><trkpt lat="43.098460499253505" lon="12.947418385719223"><ele>835.0</ele><time>2026-04-18T14:51:36Z</time></trkpt><trkpt lat="43.0985384365269" lon="12.94741399379813"><ele>829.6666666666667</ele><time>2026-04-18T14:51:38Z</time></trkpt><trkpt lat="43.098608393262346" lon="12.947438140671842"><ele>824.3333333333334</ele><time>2026-04-18T14:51:42Z</time></trkpt><trkpt lat="43.09865068952597" lon="12.947512620679051"><ele>819.0</ele><time>2026-04-18T14:51:44Z</time></trkpt><trkpt lat="43.098699984093216" lon="12.947603132934761"><ele>815.6</ele><time>2026-04-18T14:51:46Z</time></trkpt><trkpt lat="43.09877139876815" lon="12.947661141153054"><ele>812.2</ele><time>2026-04-18T14:51:48Z</time></trkpt><trkpt lat="43.09889103408938" lon="12.947733377711943"><ele>808.8000000000001</ele><time>2026-04-18T14:51:50Z</time></trkpt><trkpt lat="43.0989576998116" lon="12.947828400583184"><ele>805.4000000000001</ele><time>2026-04-18T14:51:52Z</time></trkpt><trkpt lat="43.09901217896987" lon="12.947947605718507"><ele>802.0</ele><time>2026-04-18T14:51:54Z</time></trkpt><trkpt lat="43.09903725059963" lon="12.948101776380621"><ele>802.0</ele><time>2026-04-18T14:51:56Z</time></trkpt><trkpt lat="43.09903272805031" lon="12.948237583362769"><ele>802.0</ele><time>2026-04-18T14:51:58Z</time></trkpt><trkpt lat="43.09898338943231" lon="12.948308539859413"><ele>802.0</ele><time>2026-04-18T14:52:00Z</time></trkpt><trkpt lat="43.09891312480635" lon="12.94839737801276"><ele>802.0</ele><time>2026-04-18T14:52:02Z</time></trkpt><trkpt lat="43.09882410325975" lon="12.948494790016634"><ele>802.0</ele><time>2026-04-18T14:52:04Z</time></trkpt><trkpt lat="43.09871707587789" lon="12.948588636167749"><ele>800.1428571428571</ele><time>2026-04-18T14:52:06Z</time></trkpt><trkpt lat="43.09867236525462" lon="12.948655987854387"><ele>798.2857142857143</ele><time>2026-04-18T14:52:07Z</time></trkpt><trkpt lat="43.09862482446478" lon="12.948722903908106"><ele>796.4285714285713</ele><time>2026-04-18T14:52:08Z</time></trkpt><trkpt lat="43.098569114864254" lon="12.948792209138366"><ele>794.5714285714286</ele><time>2026-04-18T14:52:09Z</time></trkpt><trkpt lat="43.09851227025113" lon="12.948857016905746"><ele>792.7142857142857</ele><time>2026-04-18T14:52:10Z</time></trkpt><trkpt lat="43.098462983986906" lon="12.948921637900051"><ele>790.8571428571428</ele><time>2026-04-18T14:52:11Z</time></trkpt><trkpt lat="43.098405571492265" lon="12.948992040809827"><ele>789.0</ele><time>2026-04-18T14:52:12Z</time></trkpt><trkpt lat="43.098360170413685" lon="12.949058972863684"><ele>789.0</ele><time>2026-04-18T14:52:13Z</time></trkpt><trkpt lat="43.09831854095992" lon="12.949134028991558"><ele>789.0</ele><time>2026-04-18T14:52:14Z</time></trkpt><trkpt lat="43.09826276995884" lon="12.949212933071172"><ele>789.0</ele><time>2026-04-18T14:52:14.999Z</time></trkpt><trkpt lat="43.09820379212726" lon="12.949306293059445"><ele>789.0</ele><time>2026-04-18T14:52:15.999Z</time></trkpt><trkpt lat="43.098143847651784" lon="12.949401487731894"><ele>789.0</ele><time>2026-04-18T14:52:16.999Z</time></trkpt><trkpt lat="43.09807792595009" lon="12.94949513416978"><ele>789.0</ele><time>2026-04-18T14:52:17.999Z</time></trkpt><trkpt lat="43.09801381689326" lon="12.949582865443626"><ele>788.1666666666666</ele><time>2026-04-18T14:52:18.999Z</time></trkpt><trkpt lat="43.097955928754516" lon="12.949656347949125"><ele>787.3333333333333</ele><time>2026-04-18T14:52:19.999Z</time></trkpt><trkpt lat="43.09788381615454" lon="12.94972360062869"><ele>786.5</ele><time>2026-04-18T14:52:20.999Z</time></trkpt><trkpt lat="43.09781575959023" lon="12.949775418521645"><ele>785.6666666666666</ele><time>2026-04-18T14:52:21.999Z</time></trkpt><trkpt lat="43.097756119573134" lon="12.94981567050393"><ele>784.8333333333333</ele><time>2026-04-18T14:52:22.999Z</time></trkpt><trkpt lat="43.09769793199927" lon="12.949856922237846"><ele>784.0</ele><time>2026-04-18T14:52:23.999Z</time></trkpt><trkpt lat="43.09758706956713" lon="12.949910159437582"><ele>783.9999999999999</ele><time>2026-04-18T14:52:25.999Z</time></trkpt><trkpt lat="43.09751277012932" lon="12.94994160563446"><ele>784.0</ele><time>2026-04-18T14:52:27.999Z</time></trkpt><trkpt lat="43.09745216495224" lon="12.949981879406558"><ele>784.0</ele><time>2026-04-18T14:52:46.999Z</time></trkpt><trkpt lat="43.097345359358755" lon="12.949989217473096"><ele>784.0</ele><time>2026-04-18T14:52:48.999Z</time></trkpt><trkpt lat="43.09726975799872" lon="12.949954300794191"><ele>783.9999999999999</ele><time>2026-04-18T14:52:49.999Z</time></trkpt><trkpt lat="43.09718185711771" lon="12.949902468665126"><ele>784.0</ele><time>2026-04-18T14:52:51Z</time></trkpt><trkpt lat="43.09709187477982" lon="12.949850815979664"><ele>784.2</ele><time>2026-04-18T14:52:52Z</time></trkpt><trkpt lat="43.096993988294656" lon="12.94980393594062"><ele>784.4000000000001</ele><time>2026-04-18T14:52:53Z</time></trkpt><trkpt lat="43.09689064313261" lon="12.94979706779325"><ele>784.6</ele><time>2026-04-18T14:52:54Z</time></trkpt><trkpt lat="43.0967893822199" lon="12.94982007802387"><ele>784.8</ele><time>2026-04-18T14:52:55Z</time></trkpt><trkpt lat="43.09669258593236" lon="12.949857330035828"><ele>785.0</ele><time>2026-04-18T14:52:56Z</time></trkpt><trkpt lat="43.09660520576364" lon="12.949889047010133"><ele>785.3333333333334</ele><time>2026-04-18T14:52:57Z</time></trkpt><trkpt lat="43.096519815777675" lon="12.949914756168951"><ele>785.6666666666667</ele><time>2026-04-18T14:52:58Z</time></trkpt><trkpt lat="43.096437847573895" lon="12.949946739499962"><ele>786.0</ele><time>2026-04-18T14:52:59Z</time></trkpt><trkpt lat="43.09635354142164" lon="12.949986297868964"><ele>786.3333333333333</ele><time>2026-04-18T14:53:00Z</time></trkpt><trkpt lat="43.09626964071737" lon="12.950021447520848"><ele>786.6666666666666</ele><time>2026-04-18T14:53:01Z</time></trkpt><trkpt lat="43.096185077166126" lon="12.95003104431754"><ele>787.0</ele><time>2026-04-18T14:53:02Z</time></trkpt><trkpt lat="43.096092380161764" lon="12.949997880990113"><ele>787.0</ele><time>2026-04-18T14:53:03Z</time></trkpt><trkpt lat="43.096009172694856" lon="12.94993816812686"><ele>787.0</ele><time>2026-04-18T14:53:04Z</time></trkpt><trkpt lat="43.09592300302883" lon="12.949871422868933"><ele>787.0</ele><time>2026-04-18T14:53:05Z</time></trkpt><trkpt lat="43.09581955333489" lon="12.949817787115657"><ele>787.0</ele><time>2026-04-18T14:53:06Z</time></trkpt><trkpt lat="43.09571447388164" lon="12.949743288904939"><ele>787.0</ele><time>2026-04-18T14:53:07Z</time></trkpt><trkpt lat="43.095593677165766" lon="12.949701717924121"><ele>787.2</ele><time>2026-04-18T14:53:08Z</time></trkpt><trkpt lat="43.09547581724322" lon="12.949657511378303"><ele>787.4000000000001</ele><time>2026-04-18T14:53:09Z</time></trkpt><trkpt lat="43.09536885067993" lon="12.94961942496392"><ele>787.5999999999999</ele><time>2026-04-18T14:53:10Z</time></trkpt><trkpt lat="43.09526539577626" lon="12.949588462007066"><ele>787.8</ele><time>2026-04-18T14:53:11Z</time></trkpt><trkpt lat="43.095166960016904" lon="12.949557228535538"><ele>788.0</ele><time>2026-04-18T14:53:12Z</time></trkpt><trkpt lat="43.095075021530405" lon="12.94951309451887"><ele>788.0000000000001</ele><time>2026-04-18T14:53:13Z</time></trkpt><trkpt lat="43.09498876980288" lon="12.94946398093011"><ele>788.0</ele><time>2026-04-18T14:53:14Z</time></trkpt><trkpt lat="43.094901742935825" lon="12.949431993568236"><ele>788.0</ele><time>2026-04-18T14:53:15Z</time></trkpt><trkpt lat="43.09481492122686" lon="12.94941882546576"><ele>788.0</ele><time>2026-04-18T14:53:16Z</time></trkpt><trkpt lat="43.09472805415497" lon="12.949430411200069"><ele>788.0000000000001</ele><time>2026-04-18T14:53:17Z</time></trkpt><trkpt lat="43.09464610719126" lon="12.949447086810702"><ele>788.0</ele><time>2026-04-18T14:53:18Z</time></trkpt><trkpt lat="43.09454996768545" lon="12.949462779980768"><ele>785.75</ele><time>2026-04-18T14:53:19Z</time></trkpt><trkpt lat="43.094437791616436" lon="12.949469714870453"><ele>783.5</ele><time>2026-04-18T14:53:20Z</time></trkpt><trkpt lat="43.09431134554783" lon="12.949463583939028"><ele>781.25</ele><time>2026-04-18T14:53:21Z</time></trkpt><trkpt lat="43.09419187599832" lon="12.949444397683338"><ele>779.0</ele><time>2026-04-18T14:53:22Z</time></trkpt><trkpt lat="43.0940899286592" lon="12.949423806055286"><ele>780.3333333333334</ele><time>2026-04-18T14:53:23Z</time></trkpt><trkpt lat="43.09399436710634" lon="12.949404706430668"><ele>781.6666666666667</ele><time>2026-04-18T14:53:24Z</time></trkpt><trkpt lat="43.09390286220693" lon="12.949385542499947"><ele>783.0</ele><time>2026-04-18T14:53:25Z</time></trkpt><trkpt lat="43.093814480677985" lon="12.949367000456613"><ele>784.3333333333333</ele><time>2026-04-18T14:53:26Z</time></trkpt><trkpt lat="43.09373690995798" lon="12.94935376017304"><ele>785.6666666666666</ele><time>2026-04-18T14:53:27Z</time></trkpt><trkpt lat="43.0936705354865" lon="12.949332607451314"><ele>787.0</ele><time>2026-04-18T14:53:28Z</time></trkpt><trkpt lat="43.093574889485204" lon="12.949312296400196"><ele>787.0</ele><time>2026-04-18T14:53:30Z</time></trkpt><trkpt lat="43.093471643491306" lon="12.949365833636898"><ele>787.0</ele><time>2026-04-18T14:53:32Z</time></trkpt><trkpt lat="43.093396008647936" lon="12.949438315310537"><ele>787.0</ele><time>2026-04-18T14:53:33Z</time></trkpt><trkpt lat="43.093328185186046" lon="12.949474956255637"><ele>787.0</ele><time>2026-04-18T14:53:34Z</time></trkpt><trkpt lat="43.09325451461141" lon="12.94950341827535"><ele>787.0</ele><time>2026-04-18T14:53:35Z</time></trkpt><trkpt lat="43.09312400273035" lon="12.949538485987526"><ele>789.2</ele><time>2026-04-18T14:53:37Z</time></trkpt><trkpt lat="43.09302107973318" lon="12.949607518018777"><ele>791.4000000000001</ele><time>2026-04-18T14:53:39Z</time></trkpt><trkpt lat="43.09290128633653" lon="12.949593130039677"><ele>793.5999999999999</ele><time>2026-04-18T14:53:40.999Z</time></trkpt><trkpt lat="43.09281834518267" lon="12.949616346139193"><ele>795.8</ele><time>2026-04-18T14:53:41.999Z</time></trkpt><trkpt lat="43.092702726951586" lon="12.949695473936028"><ele>798.0</ele><time>2026-04-18T14:53:43.999Z</time></trkpt><trkpt lat="43.09262083967342" lon="12.949750651603205"><ele>798.0</ele><time>2026-04-18T14:53:44.999Z</time></trkpt><trkpt lat="43.09255375655731" lon="12.949795205662753"><ele>798.0</ele><time>2026-04-18T14:53:45.999Z</time></trkpt><trkpt lat="43.09248012171354" lon="12.949808108817608"><ele>798.0</ele><time>2026-04-18T14:53:46.999Z</time></trkpt><trkpt lat="43.09241048405289" lon="12.949798966843138"><ele>798.0</ele><time>2026-04-18T14:53:47.999Z</time></trkpt><trkpt lat="43.092341621063326" lon="12.94978158195371"><ele>798.0</ele><time>2026-04-18T14:53:48.999Z</time></trkpt><trkpt lat="43.092268582041726" lon="12.949781120492132"><ele>798.0</ele><time>2026-04-18T14:53:49.999Z</time></trkpt><trkpt lat="43.092201890567" lon="12.949773865888773"><ele>798.0</ele><time>2026-04-18T14:53:50.999Z</time></trkpt><trkpt lat="43.092091745347204" lon="12.949729704318164"><ele>799.2</ele><time>2026-04-18T14:53:52.999Z</time></trkpt><trkpt lat="43.09201030512327" lon="12.949718006631182"><ele>800.4</ele><time>2026-04-18T14:53:53.999Z</time></trkpt><trkpt lat="43.09191843763891" lon="12.949697746529647"><ele>801.6</ele><time>2026-04-18T14:53:54.999Z</time></trkpt><trkpt lat="43.091813558967175" lon="12.949711396670411"><ele>802.8000000000001</ele><time>2026-04-18T14:53:55.999Z</time></trkpt><trkpt lat="43.09170103942248" lon="12.949761905918837"><ele>804.0</ele><time>2026-04-18T14:53:56.999Z</time></trkpt><trkpt lat="43.091621354455675" lon="12.94977810333711"><ele>803.3333333333334</ele><time>2026-04-18T14:53:57.999Z</time></trkpt><trkpt lat="43.091558242334976" lon="12.94982131650237"><ele>802.6666666666667</ele><time>2026-04-18T14:53:58.999Z</time></trkpt><trkpt lat="43.09149053262907" lon="12.949903144122326"><ele>802.0</ele><time>2026-04-18T14:53:59.999Z</time></trkpt><trkpt lat="43.09143392596226" lon="12.949980580693811"><ele>801.3333333333334</ele><time>2026-04-18T14:54:00.999Z</time></trkpt><trkpt lat="43.09138807081639" lon="12.950070520981033"><ele>800.6666666666667</ele><time>2026-04-18T14:54:01.999Z</time></trkpt><trkpt lat="43.091343334292326" lon="12.950153757454503"><ele>800.0</ele><time>2026-04-18T14:54:02.999Z</time></trkpt><trkpt lat="43.09128436560586" lon="12.950244506529996"><ele>804.2</ele><time>2026-04-18T14:54:03.999Z</time></trkpt><trkpt lat="43.09122572150115" lon="12.950334724166122"><ele>808.4</ele><time>2026-04-18T14:54:04.999Z</time></trkpt><trkpt lat="43.09116432892529" lon="12.950420083874599"><ele>812.5999999999999</ele><time>2026-04-18T14:54:05.999Z</time></trkpt><trkpt lat="43.091121832965236" lon="12.950507635264254"><ele>816.8</ele><time>2026-04-18T14:54:06.999Z</time></trkpt><trkpt lat="43.091086335298996" lon="12.950661274444851"><ele>821.0</ele><time>2026-04-18T14:54:07.999Z</time></trkpt><trkpt lat="43.0910450281992" lon="12.95077789674659"><ele>821.0000000000001</ele><time>2026-04-18T14:54:08.999Z</time></trkpt><trkpt lat="43.09100770936904" lon="12.950866650446285"><ele>821.0</ele><time>2026-04-18T14:54:09.999Z</time></trkpt><trkpt lat="43.0909399564645" lon="12.950921104366998"><ele>821.0</ele><time>2026-04-18T14:54:11.999Z</time></trkpt><trkpt lat="43.090831364744" lon="12.95086956983512"><ele>821.0</ele><time>2026-04-18T14:54:13.999Z</time></trkpt><trkpt lat="43.0907356370515" lon="12.950824668824033"><ele>821.0000000000001</ele><time>2026-04-18T14:54:14.999Z</time></trkpt><trkpt lat="43.09066876522809" lon="12.950767136577529"><ele>821.0</ele><time>2026-04-18T14:54:15.999Z</time></trkpt><trkpt lat="43.09060323237831" lon="12.950686030227029"><ele>822.4</ele><time>2026-04-18T14:54:17.999Z</time></trkpt><trkpt lat="43.09049509650694" lon="12.9506517146618"><ele>823.8</ele><time>2026-04-18T14:54:19.999Z</time></trkpt><trkpt lat="43.090385667598525" lon="12.950640938142982"><ele>825.1999999999999</ele><time>2026-04-18T14:54:21.999Z</time></trkpt><trkpt lat="43.090254470845736" lon="12.950595781679647"><ele>826.5999999999999</ele><time>2026-04-18T14:54:23.999Z</time></trkpt><trkpt lat="43.09017916122769" lon="12.950552207764545"><ele>828.0</ele><time>2026-04-18T14:54:24.999Z</time></trkpt><trkpt lat="43.09007482981008" lon="12.950534817650711"><ele>828.0</ele><time>2026-04-18T14:54:25.999Z</time></trkpt><trkpt lat="43.089953116836185" lon="12.950537424286823"><ele>828.0</ele><time>2026-04-18T14:54:26.999Z</time></trkpt><trkpt lat="43.08986109053906" lon="12.950568220957354"><ele>828.0</ele><time>2026-04-18T14:54:27.999Z</time></trkpt><trkpt lat="43.089792094625146" lon="12.95061898679524"><ele>828.0</ele><time>2026-04-18T14:54:28.998Z</time></trkpt><trkpt lat="43.08973945672763" lon="12.950684629534235"><ele>828.0</ele><time>2026-04-18T14:54:29.998Z</time></trkpt><trkpt lat="43.08965794330064" lon="12.950735470263815"><ele>830.0</ele><time>2026-04-18T14:54:30.998Z</time></trkpt><trkpt lat="43.08955907328351" lon="12.95074354622355"><ele>832.0</ele><time>2026-04-18T14:54:31.998Z</time></trkpt><trkpt lat="43.089443650283734" lon="12.950748154405245"><ele>834.0</ele><time>2026-04-18T14:54:32.998Z</time></trkpt><trkpt lat="43.08936106159656" lon="12.950748070909238"><ele>836.0</ele><time>2026-04-18T14:54:33.998Z</time></trkpt><trkpt lat="43.089283402726" lon="12.950735198738267"><ele>838.0</ele><time>2026-04-18T14:54:34.998Z</time></trkpt><trkpt lat="43.08918846233443" lon="12.950703374852042"><ele>838.6666666666666</ele><time>2026-04-18T14:54:37.998Z</time></trkpt><trkpt lat="43.089060723679" lon="12.95070411639169"><ele>839.3333333333333</ele><time>2026-04-18T14:54:39.998Z</time></trkpt><trkpt lat="43.08897268139594" lon="12.950734852600064"><ele>840.0</ele><time>2026-04-18T14:54:40.998Z</time></trkpt><trkpt lat="43.08889827038693" lon="12.950742728690598"><ele>840.6666666666667</ele><time>2026-04-18T14:54:41.998Z</time></trkpt><trkpt lat="43.088832746024586" lon="12.950738229159013"><ele>841.3333333333334</ele><time>2026-04-18T14:54:42.998Z</time></trkpt><trkpt lat="43.08875947224599" lon="12.9507112825097"><ele>842.0</ele><time>2026-04-18T14:54:44.998Z</time></trkpt><trkpt lat="43.088667471337" lon="12.950757753943243"><ele>842.0</ele><time>2026-04-18T14:54:46.998Z</time></trkpt><trkpt lat="43.08857216597398" lon="12.950801829996873"><ele>842.0</ele><time>2026-04-18T14:54:48.998Z</time></trkpt><trkpt lat="43.088473165393616" lon="12.95083853677329"><ele>842.0</ele><time>2026-04-18T14:54:50.998Z</time></trkpt><trkpt lat="43.08839665239874" lon="12.950841116047883"><ele>842.0</ele><time>2026-04-18T14:54:52.998Z</time></trkpt><trkpt lat="43.08832713745412" lon="12.950943589664096"><ele>842.0</ele><time>2026-04-18T14:54:54.998Z</time></trkpt><trkpt lat="43.0883047522592" lon="12.951098568984161"><ele>840.2</ele><time>2026-04-18T14:54:57Z</time></trkpt><trkpt lat="43.08823849529639" lon="12.951176007125557"><ele>838.4000000000001</ele><time>2026-04-18T14:54:59Z</time></trkpt><trkpt lat="43.08825494342533" lon="12.951299655083671"><ele>836.5999999999999</ele><time>2026-04-18T14:55:03Z</time></trkpt><trkpt lat="43.08829359412453" lon="12.951421390452234"><ele>834.8</ele><time>2026-04-18T14:55:05Z</time></trkpt><trkpt lat="43.08835778633439" lon="12.951490073518094"><ele>833.0</ele><time>2026-04-18T14:55:07Z</time></trkpt><trkpt lat="43.0884339266087" lon="12.95157406462725"><ele>837.2</ele><time>2026-04-18T14:55:09Z</time></trkpt><trkpt lat="43.088516868139166" lon="12.951686604741928"><ele>841.4</ele><time>2026-04-18T14:55:11Z</time></trkpt><trkpt lat="43.08851554916641" lon="12.951816899340054"><ele>845.6000000000001</ele><time>2026-04-18T14:55:13Z</time></trkpt><trkpt lat="43.088435583614256" lon="12.951903166652409"><ele>849.8000000000001</ele><time>2026-04-18T14:55:14.999Z</time></trkpt><trkpt lat="43.08840090341754" lon="12.951982744121297"><ele>854.0</ele><time>2026-04-18T14:55:16.999Z</time></trkpt><trkpt lat="43.08834873522234" lon="12.952103746127127"><ele>854.6</ele><time>2026-04-18T14:55:18.999Z</time></trkpt><trkpt lat="43.08827195599151" lon="12.952202506937109"><ele>855.2</ele><time>2026-04-18T14:55:20.999Z</time></trkpt><trkpt lat="43.08822821306657" lon="12.952305946544108"><ele>855.8000000000001</ele><time>2026-04-18T14:55:22.999Z</time></trkpt><trkpt lat="43.0882094009366" lon="12.952473057390838"><ele>856.4000000000001</ele><time>2026-04-18T14:55:24.999Z</time></trkpt><trkpt lat="43.088215975412524" lon="12.952619727127761"><ele>857.0</ele><time>2026-04-18T14:55:26.999Z</time></trkpt><trkpt lat="43.08822603601391" lon="12.952749844680032"><ele>859.3333333333334</ele><time>2026-04-18T14:55:28.999Z</time></trkpt><trkpt lat="43.08830168408869" lon="12.952826334242893"><ele>861.6666666666667</ele><time>2026-04-18T14:55:31.999Z</time></trkpt><trkpt lat="43.08837699784049" lon="12.952941377483702"><ele>864.0</ele><time>2026-04-18T14:55:33.999Z</time></trkpt><trkpt lat="43.08843972818316" lon="12.953008361514101"><ele>866.3333333333333</ele><time>2026-04-18T14:55:34.999Z</time></trkpt><trkpt lat="43.088507450434015" lon="12.953043280400946"><ele>868.6666666666666</ele><time>2026-04-18T14:55:35.999Z</time></trkpt><trkpt lat="43.08858830614255" lon="12.953054718033002"><ele>871.0</ele><time>2026-04-18T14:55:36.999Z</time></trkpt><trkpt lat="43.08866261383016" lon="12.953100809542551"><ele>870.9999999999999</ele><time>2026-04-18T14:55:37.999Z</time></trkpt><trkpt lat="43.08873483700278" lon="12.953154002904231"><ele>871.0</ele><time>2026-04-18T14:55:38.999Z</time></trkpt><trkpt lat="43.08883773376852" lon="12.953153489332097"><ele>871.0</ele><time>2026-04-18T14:55:40.999Z</time></trkpt><trkpt lat="43.088914656128814" lon="12.953140377783448"><ele>871.0</ele><time>2026-04-18T14:55:41.999Z</time></trkpt><trkpt lat="43.088980627155266" lon="12.953135761979638"><ele>870.9999999999999</ele><time>2026-04-18T14:55:42.999Z</time></trkpt><trkpt lat="43.089066817800706" lon="12.953196430126717"><ele>871.0</ele><time>2026-04-18T14:55:44.999Z</time></trkpt><trkpt lat="43.089070827971696" lon="12.953338081070555"><ele>871.4</ele><time>2026-04-18T14:55:46.999Z</time></trkpt><trkpt lat="43.0890622256533" lon="12.953462516259172"><ele>871.8</ele><time>2026-04-18T14:55:48.999Z</time></trkpt><trkpt lat="43.089113375775334" lon="12.953579696513518"><ele>872.1999999999999</ele><time>2026-04-18T14:55:50.999Z</time></trkpt><trkpt lat="43.089189535514215" lon="12.953643427620023"><ele>872.5999999999999</ele><time>2026-04-18T14:55:52.999Z</time></trkpt><trkpt lat="43.08926374073637" lon="12.953751328936137"><ele>873.0</ele><time>2026-04-18T14:55:54.999Z</time></trkpt><trkpt lat="43.089310333541235" lon="12.95387732499805"><ele>876.8333333333334</ele><time>2026-04-18T14:55:56.999Z</time></trkpt><trkpt lat="43.08936904696453" lon="12.95399338210024"><ele>880.6666666666667</ele><time>2026-04-18T14:55:58.999Z</time></trkpt><trkpt lat="43.08941875446796" lon="12.954071174388844"><ele>884.5</ele><time>2026-04-18T14:55:59.999Z</time></trkpt><trkpt lat="43.08946823285046" lon="12.954143292349288"><ele>888.3333333333334</ele><time>2026-04-18T14:56:00.999Z</time></trkpt><trkpt lat="43.08950364685196" lon="12.954231531813834"><ele>892.1666666666667</ele><time>2026-04-18T14:56:01.999Z</time></trkpt><trkpt lat="43.0895553521078" lon="12.954316793326274"><ele>896.0</ele><time>2026-04-18T14:56:02.999Z</time></trkpt><trkpt lat="43.08958974090463" lon="12.9543994761193"><ele>896.5000000000001</ele><time>2026-04-18T14:56:03.999Z</time></trkpt><trkpt lat="43.089622825924806" lon="12.954482904481468"><ele>897.0</ele><time>2026-04-18T14:56:04.999Z</time></trkpt><trkpt lat="43.08966966974501" lon="12.954575213177927"><ele>897.5</ele><time>2026-04-18T14:56:05.999Z</time></trkpt><trkpt lat="43.089702462423325" lon="12.954649194968813"><ele>898.0</ele><time>2026-04-18T14:56:06.999Z</time></trkpt><trkpt lat="43.08972760340998" lon="12.954749807948827"><ele>898.5000000000001</ele><time>2026-04-18T14:56:07.999Z</time></trkpt><trkpt lat="43.08975285471313" lon="12.95487928681209"><ele>899.0</ele><time>2026-04-18T14:56:09.999Z</time></trkpt><trkpt lat="43.08984967060047" lon="12.954952826947217"><ele>898.6666666666667</ele><time>2026-04-18T14:56:11.999Z</time></trkpt><trkpt lat="43.08990515518842" lon="12.95506071169217"><ele>898.3333333333334</ele><time>2026-04-18T14:56:13.999Z</time></trkpt><trkpt lat="43.0899660516725" lon="12.955158641364845"><ele>898.0</ele><time>2026-04-18T14:56:15.999Z</time></trkpt><trkpt lat="43.09000319916052" lon="12.955231452401485"><ele>897.6666666666667</ele><time>2026-04-18T14:56:16.999Z</time></trkpt><trkpt lat="43.0900331214191" lon="12.955318097096075"><ele>897.3333333333334</ele><time>2026-04-18T14:56:17.999Z</time></trkpt><trkpt lat="43.09011437827999" lon="12.955444674974556"><ele>897.0</ele><time>2026-04-18T14:56:19.999Z</time></trkpt><trkpt lat="43.090177716092356" lon="12.955493803131661"><ele>901.1666666666666</ele><time>2026-04-18T14:56:20.999Z</time></trkpt><trkpt lat="43.09024758219935" lon="12.955547745000093"><ele>905.3333333333333</ele><time>2026-04-18T14:56:21.999Z</time></trkpt><trkpt lat="43.090309225918396" lon="12.955592858574684"><ele>909.5</ele><time>2026-04-18T14:56:22.999Z</time></trkpt><trkpt lat="43.090365957102605" lon="12.955750464380431"><ele>913.6666666666666</ele><time>2026-04-18T14:56:24.999Z</time></trkpt><trkpt lat="43.09039699625353" lon="12.955838249367023"><ele>917.8333333333333</ele><time>2026-04-18T14:56:25.999Z</time></trkpt><trkpt lat="43.09044766293853" lon="12.955906224988526"><ele>922.0</ele><time>2026-04-18T14:56:26.999Z</time></trkpt><trkpt lat="43.09050669979327" lon="12.956000831495212"><ele>922.2</ele><time>2026-04-18T14:56:27.999Z</time></trkpt><trkpt lat="43.09055111967254" lon="12.956106645930443"><ele>922.4000000000001</ele><time>2026-04-18T14:56:28.999Z</time></trkpt><trkpt lat="43.090599880577884" lon="12.95622112028247"><ele>922.5999999999999</ele><time>2026-04-18T14:56:29.999Z</time></trkpt><trkpt lat="43.09066357681076" lon="12.956356831728439"><ele>922.8</ele><time>2026-04-18T14:56:31.999Z</time></trkpt><trkpt lat="43.090714981776316" lon="12.956533083140526"><ele>923.0</ele><time>2026-04-18T14:56:33.999Z</time></trkpt><trkpt lat="43.09073765619254" lon="12.956637988004712"><ele>928.0000000000001</ele><time>2026-04-18T14:56:34.999Z</time></trkpt><trkpt lat="43.0907612848857" lon="12.956724980142386"><ele>933.0</ele><time>2026-04-18T14:56:35.999Z</time></trkpt><trkpt lat="43.09077409737423" lon="12.956875464835468"><ele>938.0</ele><time>2026-04-18T14:56:37.999Z</time></trkpt><trkpt lat="43.090785500311775" lon="12.956979816161073"><ele>943.0</ele><time>2026-04-18T14:56:38.999Z</time></trkpt><trkpt lat="43.09079446208441" lon="12.957118814923893"><ele>948.0000000000001</ele><time>2026-04-18T14:56:39.999Z</time></trkpt><trkpt lat="43.09078742994412" lon="12.957236844403718"><ele>953.0</ele><time>2026-04-18T14:56:40.999Z</time></trkpt><trkpt lat="43.09077905721132" lon="12.957357598006489"><ele>953.0000000000001</ele><time>2026-04-18T14:56:41.998Z</time></trkpt><trkpt lat="43.0907608862001" lon="12.957479919130423"><ele>953.0</ele><time>2026-04-18T14:56:42.998Z</time></trkpt><trkpt lat="43.09074495096209" lon="12.957576225142779"><ele>953.0</ele><time>2026-04-18T14:56:43.998Z</time></trkpt><trkpt lat="43.090737346296535" lon="12.957681517705423"><ele>953.0</ele><time>2026-04-18T14:56:44.998Z</time></trkpt><trkpt lat="43.09073163606963" lon="12.957797560249361"><ele>953.0000000000001</ele><time>2026-04-18T14:56:45.998Z</time></trkpt><trkpt lat="43.090722439729845" lon="12.95792261898718"><ele>953.0</ele><time>2026-04-18T14:56:46.998Z</time></trkpt><trkpt lat="43.09072614573746" lon="12.9580851695703"><ele>950.8</ele><time>2026-04-18T14:56:48.998Z</time></trkpt><trkpt lat="43.09075744131052" lon="12.95818760922838"><ele>948.5999999999999</ele><time>2026-04-18T14:56:49.998Z</time></trkpt><trkpt lat="43.09079057973308" lon="12.95835936300655"><ele>946.4000000000001</ele><time>2026-04-18T14:56:51.998Z</time></trkpt><trkpt lat="43.090805545051104" lon="12.958462583413903"><ele>944.2</ele><time>2026-04-18T14:56:52.998Z</time></trkpt><trkpt lat="43.090837640331756" lon="12.958597682285477"><ele>942.0</ele><time>2026-04-18T14:56:53.998Z</time></trkpt><trkpt lat="43.090854764911136" lon="12.958701008384278"><ele>947.6</ele><time>2026-04-18T14:56:54.998Z</time></trkpt><trkpt lat="43.09084653429925" lon="12.958803913153412"><ele>953.2</ele><time>2026-04-18T14:56:55.998Z</time></trkpt><trkpt lat="43.090814422264806" lon="12.958916271440904"><ele>958.8</ele><time>2026-04-18T14:56:56.998Z</time></trkpt><trkpt lat="43.090780672324485" lon="12.959052867016549"><ele>964.4</ele><time>2026-04-18T14:56:57.998Z</time></trkpt><trkpt lat="43.090775558311265" lon="12.959175400331"><ele>970.0</ele><time>2026-04-18T14:56:58.998Z</time></trkpt><trkpt lat="43.090795075330405" lon="12.959302571381148"><ele>972.4</ele><time>2026-04-18T14:56:59.998Z</time></trkpt><trkpt lat="43.090807838647976" lon="12.959431941827294"><ele>974.8</ele><time>2026-04-18T14:57:00.998Z</time></trkpt><trkpt lat="43.09079978065729" lon="12.959570085097502"><ele>977.2</ele><time>2026-04-18T14:57:01.998Z</time></trkpt><trkpt lat="43.09081420098774" lon="12.959701671077"><ele>979.6</ele><time>2026-04-18T14:57:03Z</time></trkpt><trkpt lat="43.09083007647568" lon="12.959831067356804"><ele>982.0</ele><time>2026-04-18T14:57:04Z</time></trkpt><trkpt lat="43.09083444237576" lon="12.959949944437799"><ele>983.6666666666666</ele><time>2026-04-18T14:57:05Z</time></trkpt><trkpt lat="43.090829128514194" lon="12.960063095552448"><ele>985.3333333333333</ele><time>2026-04-18T14:57:06Z</time></trkpt><trkpt lat="43.09082650320335" lon="12.960174785127693"><ele>987.0</ele><time>2026-04-18T14:57:07Z</time></trkpt><trkpt lat="43.09084210274814" lon="12.960294159667281"><ele>988.6666666666667</ele><time>2026-04-18T14:57:08Z</time></trkpt><trkpt lat="43.09086857129444" lon="12.960400722204296"><ele>990.3333333333334</ele><time>2026-04-18T14:57:09Z</time></trkpt><trkpt lat="43.09089955283105" lon="12.960509713379937"><ele>992.0</ele><time>2026-04-18T14:57:10Z</time></trkpt><trkpt lat="43.090938314013314" lon="12.960578143078347"><ele>992.0000000000001</ele><time>2026-04-18T14:57:11Z</time></trkpt><trkpt lat="43.09099724647013" lon="12.960624305542812"><ele>992.0</ele><time>2026-04-18T14:57:12Z</time></trkpt><trkpt lat="43.091070923910486" lon="12.96066349979155"><ele>992.0</ele><time>2026-04-18T14:57:13Z</time></trkpt><trkpt lat="43.09113484779017" lon="12.960766075451579"><ele>992.0</ele><time>2026-04-18T14:57:15Z</time></trkpt><trkpt lat="43.09115724815503" lon="12.96086756330509"><ele>992.0000000000001</ele><time>2026-04-18T14:57:17Z</time></trkpt><trkpt lat="43.091238160854424" lon="12.960915290989087"><ele>992.0</ele><time>2026-04-18T14:57:19Z</time></trkpt><trkpt lat="43.09127154725926" lon="12.96099063949795"><ele>994.6</ele><time>2026-04-18T14:57:21Z</time></trkpt><trkpt lat="43.091292997719165" lon="12.961117961238651"><ele>997.2</ele><time>2026-04-18T14:57:23Z</time></trkpt><trkpt lat="43.091255178688066" lon="12.96128447760812"><ele>999.8</ele><time>2026-04-18T14:57:25Z</time></trkpt><trkpt lat="43.09125951538393" lon="12.961411622499561"><ele>1002.4</ele><time>2026-04-18T14:57:25.999Z</time></trkpt><trkpt lat="43.09127570323686" lon="12.961536360762118"><ele>1005.0</ele><time>2026-04-18T14:57:26.999Z</time></trkpt><trkpt lat="43.09129687799602" lon="12.96165947020524"><ele>1006.8</ele><time>2026-04-18T14:57:27.999Z</time></trkpt><trkpt lat="43.09129913014876" lon="12.961789439414991"><ele>1008.6</ele><time>2026-04-18T14:57:28.999Z</time></trkpt><trkpt lat="43.091217700487434" lon="12.961959538372648"><ele>1010.4000000000001</ele><time>2026-04-18T14:57:30.999Z</time></trkpt><trkpt lat="43.09114345249612" lon="12.962025086541265"><ele>1012.2</ele><time>2026-04-18T14:57:31.999Z</time></trkpt><trkpt lat="43.09108684962708" lon="12.962111793102332"><ele>1014.0</ele><time>2026-04-18T14:57:32.999Z</time></trkpt><trkpt lat="43.09105319872218" lon="12.96221077090914"><ele>1014.0</ele><time>2026-04-18T14:57:33.999Z</time></trkpt><trkpt lat="43.09101619264247" lon="12.962322625199109"><ele>1014.0</ele><time>2026-04-18T14:57:34.999Z</time></trkpt><trkpt lat="43.09097177044946" lon="12.962432894449094"><ele>1014.0</ele><time>2026-04-18T14:57:35.999Z</time></trkpt><trkpt lat="43.090946212473234" lon="12.962538676507606"><ele>1014.0</ele><time>2026-04-18T14:57:36.999Z</time></trkpt><trkpt lat="43.090919760891424" lon="12.96266087890563"><ele>1014.0</ele><time>2026-04-18T14:57:37.999Z</time></trkpt><trkpt lat="43.090915013611905" lon="12.962750655310817"><ele>1014.0</ele><time>2026-04-18T14:57:38.999Z</time></trkpt><trkpt lat="43.090900200738176" lon="12.962950259680003"><ele>1015.25</ele><time>2026-04-18T14:57:40.999Z</time></trkpt><trkpt lat="43.09092867513973" lon="12.963118384664348"><ele>1016.5</ele><time>2026-04-18T14:57:41.999Z</time></trkpt><trkpt lat="43.09097341926216" lon="12.963281339187777"><ele>1017.75</ele><time>2026-04-18T14:57:42.999Z</time></trkpt><trkpt lat="43.09101463496151" lon="12.963430892681735"><ele>1019.0</ele><time>2026-04-18T14:57:43.999Z</time></trkpt><trkpt lat="43.09106275193511" lon="12.963550280310692"><ele>1020.2</ele><time>2026-04-18T14:57:44.999Z</time></trkpt><trkpt lat="43.09112734695056" lon="12.963635085740103"><ele>1021.4000000000001</ele><time>2026-04-18T14:57:45.999Z</time></trkpt><trkpt lat="43.091198727036314" lon="12.963738472532457"><ele>1022.6</ele><time>2026-04-18T14:57:46.999Z</time></trkpt><trkpt lat="43.09126382248271" lon="12.963848039833627"><ele>1023.8</ele><time>2026-04-18T14:57:47.999Z</time></trkpt><trkpt lat="43.091320087611294" lon="12.963972142195384"><ele>1025.0</ele><time>2026-04-18T14:57:48.999Z</time></trkpt><trkpt lat="43.09138915366844" lon="12.964089735644045"><ele>1027.0</ele><time>2026-04-18T14:57:49.999Z</time></trkpt><trkpt lat="43.09147869661282" lon="12.964200422148052"><ele>1029.0</ele><time>2026-04-18T14:57:50.999Z</time></trkpt><trkpt lat="43.09156110250154" lon="12.964311231408562"><ele>1031.0</ele><time>2026-04-18T14:57:51.999Z</time></trkpt><trkpt lat="43.09164143835917" lon="12.96443816862327"><ele>1033.0</ele><time>2026-04-18T14:57:52.999Z</time></trkpt><trkpt lat="43.09170511590097" lon="12.964566157419329"><ele>1033.2</ele><time>2026-04-18T14:57:53.999Z</time></trkpt><trkpt lat="43.09175819031314" lon="12.964697326011839"><ele>1033.4</ele><time>2026-04-18T14:57:54.999Z</time></trkpt><trkpt lat="43.09179029832817" lon="12.964815815607324"><ele>1033.6000000000001</ele><time>2026-04-18T14:57:55.999Z</time></trkpt><trkpt lat="43.091822462661334" lon="12.96493038251034"><ele>1033.8</ele><time>2026-04-18T14:57:56.999Z</time></trkpt><trkpt lat="43.09184386414779" lon="12.965064841323697"><ele>1034.0</ele><time>2026-04-18T14:57:57.999Z</time></trkpt><trkpt lat="43.09190846345247" lon="12.965198750217594"><ele>1034.0</ele><time>2026-04-18T14:57:58.999Z</time></trkpt><trkpt lat="43.09195421035927" lon="12.965334064644422"><ele>1034.0</ele><time>2026-04-18T14:57:59.999Z</time></trkpt><trkpt lat="43.09200246280668" lon="12.965444105137951"><ele>1034.0</ele><time>2026-04-18T14:58:00.999Z</time></trkpt><trkpt lat="43.092055727525505" lon="12.965551456447574"><ele>1034.0</ele><time>2026-04-18T14:58:01.999Z</time></trkpt><trkpt lat="43.092086165402016" lon="12.965654212641937"><ele>1034.0</ele><time>2026-04-18T14:58:02.999Z</time></trkpt><trkpt lat="43.09210084579261" lon="12.96577394797611"><ele>1035.0</ele><time>2026-04-18T14:58:03.999Z</time></trkpt><trkpt lat="43.09213274368146" lon="12.965891741604041"><ele>1036.0</ele><time>2026-04-18T14:58:04.999Z</time></trkpt><trkpt lat="43.09221683035748" lon="12.965979275302038"><ele>1037.0</ele><time>2026-04-18T14:58:05.999Z</time></trkpt><trkpt lat="43.0923370479444" lon="12.966085542226391"><ele>1038.0</ele><time>2026-04-18T14:58:06.999Z</time></trkpt><trkpt lat="43.092443807216966" lon="12.966196804015372"><ele>1038.0</ele><time>2026-04-18T14:58:07.999Z</time></trkpt><trkpt lat="43.0925174395689" lon="12.966304316481263"><ele>1038.0</ele><time>2026-04-18T14:58:08.999Z</time></trkpt><trkpt lat="43.09259134685303" lon="12.966376943172783"><ele>1038.0</ele><time>2026-04-18T14:58:09.999Z</time></trkpt><trkpt lat="43.092673980739875" lon="12.96643872921204"><ele>1038.0</ele><time>2026-04-18T14:58:10.999Z</time></trkpt><trkpt lat="43.09278691514614" lon="12.966506327738397"><ele>1038.0</ele><time>2026-04-18T14:58:11.999Z</time></trkpt><trkpt lat="43.0929091746945" lon="12.966560527076467"><ele>1038.0</ele><time>2026-04-18T14:58:12.999Z</time></trkpt><trkpt lat="43.093033498498066" lon="12.966622212967781"><ele>1038.0</ele><time>2026-04-18T14:58:13.999Z</time></trkpt><trkpt lat="43.09313981591305" lon="12.966672190322445"><ele>1038.0</ele><time>2026-04-18T14:58:14.999Z</time></trkpt><trkpt lat="43.093245863966374" lon="12.966726242761428"><ele>1038.0</ele><time>2026-04-18T14:58:15.999Z</time></trkpt><trkpt lat="43.09336629631721" lon="12.966783573345017"><ele>1039.0</ele><time>2026-04-18T14:58:16.999Z</time></trkpt><trkpt lat="43.09349339535954" lon="12.966844776691621"><ele>1040.0</ele><time>2026-04-18T14:58:17.999Z</time></trkpt><trkpt lat="43.093573165884905" lon="12.966869548068907"><ele>1041.0</ele><time>2026-04-18T14:58:18.999Z</time></trkpt><trkpt lat="43.0936622246715" lon="12.966882233499867"><ele>1042.0</ele><time>2026-04-18T14:58:19.999Z</time></trkpt><trkpt lat="43.09378611708254" lon="12.966873474985393"><ele>1043.0</ele><time>2026-04-18T14:58:20.999Z</time></trkpt><trkpt lat="43.09388853068037" lon="12.966887112151438"><ele>1043.0</ele><time>2026-04-18T14:58:21.999Z</time></trkpt><trkpt lat="43.0939692879911" lon="12.966928876592082"><ele>1043.0</ele><time>2026-04-18T14:58:22.999Z</time></trkpt><trkpt lat="43.09402888827197" lon="12.966995874079924"><ele>1043.0</ele><time>2026-04-18T14:58:23.999Z</time></trkpt><trkpt lat="43.09404940987261" lon="12.967134177285262"><ele>1043.0</ele><time>2026-04-18T14:58:25.999Z</time></trkpt><trkpt lat="43.094041821868885" lon="12.967222685228581"><ele>1043.0</ele><time>2026-04-18T14:58:26.999Z</time></trkpt><trkpt lat="43.094046781097056" lon="12.967338888023011"><ele>1043.0</ele><time>2026-04-18T14:58:27.999Z</time></trkpt><trkpt lat="43.094082634430734" lon="12.967476199629894"><ele>1043.5</ele><time>2026-04-18T14:58:29.999Z</time></trkpt><trkpt lat="43.09422113242826" lon="12.967710080628772"><ele>1044.0</ele><time>2026-04-18T14:58:31.999Z</time></trkpt><trkpt lat="43.094285949931724" lon="12.967763989772964"><ele>1044.5</ele><time>2026-04-18T14:58:32.999Z</time></trkpt><trkpt lat="43.094386374109796" lon="12.96786107514097"><ele>1045.0</ele><time>2026-04-18T14:58:34.999Z</time></trkpt><trkpt lat="43.094491129012816" lon="12.967913975104715"><ele>1045.0</ele><time>2026-04-18T14:58:35.999Z</time></trkpt><trkpt lat="43.09457577731497" lon="12.9680221624377"><ele>1045.0</ele><time>2026-04-18T14:58:36.999Z</time></trkpt><trkpt lat="43.09467510251196" lon="12.968179301914759"><ele>1045.0</ele><time>2026-04-18T14:58:37.999Z</time></trkpt><trkpt lat="43.094768050515775" lon="12.968308582019459"><ele>1045.0</ele><time>2026-04-18T14:58:38.999Z</time></trkpt><trkpt lat="43.09481352198644" lon="12.968411251136015"><ele>1046.0</ele><time>2026-04-18T14:58:39.999Z</time></trkpt><trkpt lat="43.094823681772304" lon="12.968520565149372"><ele>1047.0</ele><time>2026-04-18T14:58:40.999Z</time></trkpt><trkpt lat="43.094808392804815" lon="12.968700513974845"><ele>1048.0</ele><time>2026-04-18T14:58:41.999Z</time></trkpt><trkpt lat="43.09478248322609" lon="12.968894930920586"><ele>1049.0</ele><time>2026-04-18T14:58:42.999Z</time></trkpt><trkpt lat="43.094749760932515" lon="12.969022128253227"><ele>1049.0</ele><time>2026-04-18T14:58:43.999Z</time></trkpt><trkpt lat="43.09469943744151" lon="12.969102643734747"><ele>1049.0</ele><time>2026-04-18T14:58:44.999Z</time></trkpt><trkpt lat="43.09463435305454" lon="12.969159713960392"><ele>1049.0</ele><time>2026-04-18T14:58:45.999Z</time></trkpt><trkpt lat="43.094557524287886" lon="12.969180312958946"><ele>1049.0</ele><time>2026-04-18T14:58:46.999Z</time></trkpt><trkpt lat="43.094498243423786" lon="12.969238771399015"><ele>1049.0</ele><time>2026-04-18T14:58:47.999Z</time></trkpt><trkpt lat="43.09441305559173" lon="12.969327545414822"><ele>1049.0</ele><time>2026-04-18T14:58:48.998Z</time></trkpt><trkpt lat="43.09430792986427" lon="12.969444150252285"><ele>1047.75</ele><time>2026-04-18T14:58:49.998Z</time></trkpt><trkpt lat="43.09420815791138" lon="12.969556917860485"><ele>1046.5</ele><time>2026-04-18T14:58:50.998Z</time></trkpt><trkpt lat="43.09411523781574" lon="12.969643940253931"><ele>1045.25</ele><time>2026-04-18T14:58:51.998Z</time></trkpt><trkpt lat="43.09404056286039" lon="12.969748477202497"><ele>1044.0</ele><time>2026-04-18T14:58:52.998Z</time></trkpt><trkpt lat="43.093980186682344" lon="12.969893081630346"><ele>1049.5</ele><time>2026-04-18T14:58:53.998Z</time></trkpt><trkpt lat="43.09392925620641" lon="12.970055456439779"><ele>1055.0</ele><time>2026-04-18T14:58:54.998Z</time></trkpt><trkpt lat="43.09384849729167" lon="12.970176890492601"><ele>1060.5</ele><time>2026-04-18T14:58:55.998Z</time></trkpt><trkpt lat="43.093749907583295" lon="12.970274797484915"><ele>1066.0</ele><time>2026-04-18T14:58:56.998Z</time></trkpt><trkpt lat="43.0936428938381" lon="12.970384912819407"><ele>1066.0</ele><time>2026-04-18T14:58:57.998Z</time></trkpt><trkpt lat="43.093557163571646" lon="12.970482592847654"><ele>1066.0</ele><time>2026-04-18T14:58:58.998Z</time></trkpt><trkpt lat="43.09346803385353" lon="12.970566054946143"><ele>1066.0</ele><time>2026-04-18T14:58:59.998Z</time></trkpt><trkpt lat="43.09336274179171" lon="12.970650990415196"><ele>1066.0</ele><time>2026-04-18T14:59:00.998Z</time></trkpt><trkpt lat="43.093274408791714" lon="12.970739999012068"><ele>1062.3999999999999</ele><time>2026-04-18T14:59:01.998Z</time></trkpt><trkpt lat="43.093190324715266" lon="12.970846375849947"><ele>1058.8</ele><time>2026-04-18T14:59:02.998Z</time></trkpt><trkpt lat="43.09312736947105" lon="12.970968036473236"><ele>1055.1999999999998</ele><time>2026-04-18T14:59:03.998Z</time></trkpt><trkpt lat="43.09308012163478" lon="12.971099791121912"><ele>1051.6</ele><time>2026-04-18T14:59:04.998Z</time></trkpt><trkpt lat="43.09305242858683" lon="12.971227484095504"><ele>1048.0</ele><time>2026-04-18T14:59:05.998Z</time></trkpt><trkpt lat="43.093045351019825" lon="12.97135735491856"><ele>1048.0</ele><time>2026-04-18T14:59:06.998Z</time></trkpt><trkpt lat="43.09301079428136" lon="12.971476784024574"><ele>1048.0</ele><time>2026-04-18T14:59:08Z</time></trkpt><trkpt lat="43.09297679276801" lon="12.971592129775576"><ele>1048.0</ele><time>2026-04-18T14:59:09Z</time></trkpt><trkpt lat="43.09295345712341" lon="12.971733066665394"><ele>1048.0</ele><time>2026-04-18T14:59:10Z</time></trkpt><trkpt lat="43.09294692779144" lon="12.971882955259902"><ele>1048.0</ele><time>2026-04-18T14:59:11Z</time></trkpt><trkpt lat="43.09294536259072" lon="12.972056266777397"><ele>1051.5</ele><time>2026-04-18T14:59:12Z</time></trkpt><trkpt lat="43.092940214874304" lon="12.97221200369522"><ele>1055.0</ele><time>2026-04-18T14:59:13Z</time></trkpt><trkpt lat="43.09286158718706" lon="12.97237233325971"><ele>1058.5</ele><time>2026-04-18T14:59:15Z</time></trkpt><trkpt lat="43.092752918243306" lon="12.972459980121736"><ele>1062.0</ele><time>2026-04-18T14:59:16Z</time></trkpt><trkpt lat="43.09263072301865" lon="12.972541644773274"><ele>1061.25</ele><time>2026-04-18T14:59:17Z</time></trkpt><trkpt lat="43.0925073982748" lon="12.972620636993183"><ele>1060.5</ele><time>2026-04-18T14:59:18Z</time></trkpt><trkpt lat="43.0924276459077" lon="12.972699772537718"><ele>1059.75</ele><time>2026-04-18T14:59:19Z</time></trkpt><trkpt lat="43.092347439114285" lon="12.972800840978351"><ele>1059.0</ele><time>2026-04-18T14:59:20Z</time></trkpt><trkpt lat="43.09227701529489" lon="12.97292650624063"><ele>1059.0</ele><time>2026-04-18T14:59:21Z</time></trkpt><trkpt lat="43.09219310887854" lon="12.973111300562497"><ele>1059.0</ele><time>2026-04-18T14:59:22Z</time></trkpt><trkpt lat="43.092121884559695" lon="12.973313858272457"><ele>1059.0</ele><time>2026-04-18T14:59:23Z</time></trkpt><trkpt lat="43.09204528364507" lon="12.973493244677842"><ele>1062.0</ele><time>2026-04-18T14:59:24Z</time></trkpt><trkpt lat="43.091970960285686" lon="12.973623949151127"><ele>1065.0</ele><time>2026-04-18T14:59:25Z</time></trkpt><trkpt lat="43.091874592108134" lon="12.973736820625028"><ele>1068.0</ele><time>2026-04-18T14:59:26Z</time></trkpt><trkpt lat="43.09176701996395" lon="12.973843762307805"><ele>1071.0</ele><time>2026-04-18T14:59:27Z</time></trkpt><trkpt lat="43.091665534244946" lon="12.973970202080631"><ele>1067.75</ele><time>2026-04-18T14:59:28Z</time></trkpt><trkpt lat="43.09158637857769" lon="12.974104084991565"><ele>1064.5</ele><time>2026-04-18T14:59:29Z</time></trkpt><trkpt lat="43.091512493069" lon="12.97430008978481"><ele>1061.25</ele><time>2026-04-18T14:59:30Z</time></trkpt><trkpt lat="43.09145532635816" lon="12.974476026209453"><ele>1058.0</ele><time>2026-04-18T14:59:31Z</time></trkpt><trkpt lat="43.091367253058195" lon="12.974646263865756"><ele>1058.0</ele><time>2026-04-18T14:59:32Z</time></trkpt><trkpt lat="43.09129756744635" lon="12.97480910737218"><ele>1058.0</ele><time>2026-04-18T14:59:33Z</time></trkpt><trkpt lat="43.091258949999215" lon="12.97498777487343"><ele>1058.0</ele><time>2026-04-18T14:59:33.999Z</time></trkpt><trkpt lat="43.09122422513593" lon="12.975153198852302"><ele>1058.0</ele><time>2026-04-18T14:59:34.999Z</time></trkpt><trkpt lat="43.091145916925335" lon="12.975297850958823"><ele>1061.5</ele><time>2026-04-18T14:59:35.999Z</time></trkpt><trkpt lat="43.0910503842718" lon="12.975456881510025"><ele>1065.0</ele><time>2026-04-18T14:59:36.999Z</time></trkpt><trkpt lat="43.09097076016553" lon="12.975618734001975"><ele>1068.5</ele><time>2026-04-18T14:59:37.999Z</time></trkpt><trkpt lat="43.09089747231121" lon="12.97577905977066"><ele>1072.0</ele><time>2026-04-18T14:59:38.999Z</time></trkpt><trkpt lat="43.09082714287316" lon="12.975928635146808"><ele>1071.0</ele><time>2026-04-18T14:59:39.999Z</time></trkpt><trkpt lat="43.09074431778923" lon="12.976074404370578"><ele>1070.0</ele><time>2026-04-18T14:59:40.999Z</time></trkpt><trkpt lat="43.09065999166005" lon="12.976189278168453"><ele>1069.0</ele><time>2026-04-18T14:59:41.999Z</time></trkpt><trkpt lat="43.0906012383899" lon="12.976297860623372"><ele>1068.0</ele><time>2026-04-18T14:59:42.999Z</time></trkpt><trkpt lat="43.09056073017049" lon="12.976412381227382"><ele>1067.0</ele><time>2026-04-18T14:59:43.999Z</time></trkpt><trkpt lat="43.09053394853692" lon="12.976519308334877"><ele>1067.0</ele><time>2026-04-18T14:59:44.999Z</time></trkpt><trkpt lat="43.09047190323234" lon="12.976646725881468"><ele>1067.0</ele><time>2026-04-18T14:59:46.999Z</time></trkpt><trkpt lat="43.090404432355726" lon="12.976694466736998"><ele>1067.0</ele><time>2026-04-18T14:59:47.999Z</time></trkpt><trkpt lat="43.09029717645106" lon="12.97678098310513"><ele>1067.0</ele><time>2026-04-18T14:59:48.999Z</time></trkpt><trkpt lat="43.09017621472576" lon="12.97688594058552"><ele>1068.5</ele><time>2026-04-18T14:59:49.999Z</time></trkpt><trkpt lat="43.09009177125018" lon="12.97699997445604"><ele>1070.0</ele><time>2026-04-18T14:59:50.999Z</time></trkpt><trkpt lat="43.09002856749077" lon="12.977098470799284"><ele>1071.5</ele><time>2026-04-18T14:59:51.999Z</time></trkpt><trkpt lat="43.089954998576815" lon="12.977193654884525"><ele>1073.0</ele><time>2026-04-18T14:59:52.999Z</time></trkpt><trkpt lat="43.08982636009163" lon="12.977321665122995"><ele>1073.0</ele><time>2026-04-18T14:59:53.999Z</time></trkpt><trkpt lat="43.08970987900256" lon="12.977401041138597"><ele>1073.0</ele><time>2026-04-18T14:59:54.999Z</time></trkpt><trkpt lat="43.08962386236567" lon="12.977481220615285"><ele>1073.0</ele><time>2026-04-18T14:59:55.999Z</time></trkpt><trkpt lat="43.08958008380695" lon="12.977640044063328"><ele>1073.0</ele><time>2026-04-18T14:59:57.999Z</time></trkpt><trkpt lat="43.08957705952413" lon="12.977783952377916"><ele>1073.1666666666667</ele><time>2026-04-18T14:59:58.999Z</time></trkpt><trkpt lat="43.08956921237342" lon="12.977917705496667"><ele>1073.3333333333335</ele><time>2026-04-18T14:59:59.999Z</time></trkpt><trkpt lat="43.08956956052335" lon="12.978065100758696"><ele>1073.5</ele><time>2026-04-18T15:00:00.999Z</time></trkpt><trkpt lat="43.08956218168244" lon="12.978197827916475"><ele>1073.6666666666667</ele><time>2026-04-18T15:00:01.999Z</time></trkpt><trkpt lat="43.08956676371219" lon="12.978297394119458"><ele>1073.8333333333333</ele><time>2026-04-18T15:00:02.999Z</time></trkpt><trkpt lat="43.08958824028222" lon="12.978384594901312"><ele>1074.0</ele><time>2026-04-18T15:00:03.999Z</time></trkpt><trkpt lat="43.08963663910562" lon="12.978496561397373"><ele>1074.0</ele><time>2026-04-18T15:00:05.999Z</time></trkpt><trkpt lat="43.089717263015615" lon="12.978608029880746"><ele>1074.0</ele><time>2026-04-18T15:00:07.999Z</time></trkpt><trkpt lat="43.08975306038925" lon="12.97868796392809"><ele>1074.0</ele><time>2026-04-18T15:00:10.999Z</time></trkpt><trkpt lat="43.08976800246788" lon="12.978801316167445"><ele>1074.0</ele><time>2026-04-18T15:00:12.999Z</time></trkpt><trkpt lat="43.08982745286356" lon="12.978848951864759"><ele>1074.0</ele><time>2026-04-18T15:00:14.999Z</time></trkpt><trkpt lat="43.08992697946483" lon="12.97890274484494"><ele>1074.0</ele><time>2026-04-18T15:00:16.999Z</time></trkpt><trkpt lat="43.08997030850035" lon="12.979012514102067"><ele>1079.0</ele><time>2026-04-18T15:00:18.999Z</time></trkpt><trkpt lat="43.0900040873103" lon="12.979160973265229"><ele>1084.0</ele><time>2026-04-18T15:00:20.999Z</time></trkpt><trkpt lat="43.0900581829774" lon="12.979339075952327"><ele>1089.0</ele><time>2026-04-18T15:00:22.999Z</time></trkpt><trkpt lat="43.09010581805826" lon="12.979467435730013"><ele>1094.0</ele><time>2026-04-18T15:00:23.999Z</time></trkpt><trkpt lat="43.09015149848294" lon="12.979601768560446"><ele>1094.0</ele><time>2026-04-18T15:00:24.999Z</time></trkpt><trkpt lat="43.090196868245414" lon="12.979723974113233"><ele>1094.0</ele><time>2026-04-18T15:00:25.999Z</time></trkpt><trkpt lat="43.09023942649465" lon="12.979831203865478"><ele>1094.0</ele><time>2026-04-18T15:00:26.999Z</time></trkpt><trkpt lat="43.09028575800558" lon="12.979945040550751"><ele>1094.0</ele><time>2026-04-18T15:00:27.999Z</time></trkpt><trkpt lat="43.09033913917763" lon="12.980070232667034"><ele>1094.0</ele><time>2026-04-18T15:00:28.999Z</time></trkpt><trkpt lat="43.090381450924816" lon="12.980181416578537"><ele>1093.5</ele><time>2026-04-18T15:00:29.999Z</time></trkpt><trkpt lat="43.09041279391044" lon="12.980293536775173"><ele>1093.0</ele><time>2026-04-18T15:00:30.999Z</time></trkpt><trkpt lat="43.090423994506075" lon="12.98040781379249"><ele>1092.5</ele><time>2026-04-18T15:00:31.999Z</time></trkpt><trkpt lat="43.090420131640776" lon="12.980520674178338"><ele>1092.0</ele><time>2026-04-18T15:00:32.999Z</time></trkpt><trkpt lat="43.090404742885156" lon="12.980619641702306"><ele>1091.5</ele><time>2026-04-18T15:00:33.999Z</time></trkpt><trkpt lat="43.09037402305838" lon="12.98071641979249"><ele>1091.0</ele><time>2026-04-18T15:00:34.999Z</time></trkpt><trkpt lat="43.09034400184146" lon="12.980855875442572"><ele>1094.25</ele><time>2026-04-18T15:00:36.999Z</time></trkpt><trkpt lat="43.09032119926893" lon="12.981017346736799"><ele>1097.5</ele><time>2026-04-18T15:00:38.999Z</time></trkpt><trkpt lat="43.09028815185318" lon="12.981173373748595"><ele>1100.75</ele><time>2026-04-18T15:00:40.999Z</time></trkpt><trkpt lat="43.0902372776105" lon="12.981331126831234"><ele>1104.0</ele><time>2026-04-18T15:00:42.999Z</time></trkpt><trkpt lat="43.09019818482798" lon="12.981499531613096"><ele>1104.0</ele><time>2026-04-18T15:00:44.999Z</time></trkpt><trkpt lat="43.0901806719336" lon="12.981587819641312"><ele>1104.0</ele><time>2026-04-18T15:00:45.999Z</time></trkpt><trkpt lat="43.09013085552009" lon="12.981644595849076"><ele>1104.0</ele><time>2026-04-18T15:00:46.999Z</time></trkpt><trkpt lat="43.09006948072458" lon="12.98169295543803"><ele>1104.0</ele><time>2026-04-18T15:00:47.999Z</time></trkpt><trkpt lat="43.08994392073386" lon="12.981764116848291"><ele>1104.0</ele><time>2026-04-18T15:00:49.999Z</time></trkpt><trkpt lat="43.08982379898241" lon="12.981831412888857"><ele>1106.0</ele><time>2026-04-18T15:00:51.999Z</time></trkpt><trkpt lat="43.089762644913705" lon="12.981873174227918"><ele>1108.0</ele><time>2026-04-18T15:00:52.999Z</time></trkpt><trkpt lat="43.08969354981751" lon="12.98191724780778"><ele>1110.0</ele><time>2026-04-18T15:00:53.999Z</time></trkpt><trkpt lat="43.08962008759787" lon="12.981962204060391"><ele>1112.0</ele><time>2026-04-18T15:00:54.999Z</time></trkpt><trkpt lat="43.08953639621255" lon="12.982009939540877"><ele>1114.0</ele><time>2026-04-18T15:00:55.999Z</time></trkpt><trkpt lat="43.08944057349633" lon="12.98205023308861"><ele>1116.0</ele><time>2026-04-18T15:00:56.999Z</time></trkpt><trkpt lat="43.089331168139424" lon="12.982091947246515"><ele>1116.0</ele><time>2026-04-18T15:00:57.999Z</time></trkpt><trkpt lat="43.089228800614954" lon="12.982137672345077"><ele>1116.0</ele><time>2026-04-18T15:00:58.998Z</time></trkpt><trkpt lat="43.08910428970809" lon="12.98219528391217"><ele>1116.0</ele><time>2026-04-18T15:00:59.998Z</time></trkpt><trkpt lat="43.08896047793794" lon="12.982260694656995"><ele>1116.0</ele><time>2026-04-18T15:01:00.998Z</time></trkpt><trkpt lat="43.08884108944732" lon="12.98230288978346"><ele>1115.3999999999999</ele><time>2026-04-18T15:01:01.998Z</time></trkpt><trkpt lat="43.08875030323281" lon="12.982330598511698"><ele>1114.8</ele><time>2026-04-18T15:01:02.998Z</time></trkpt><trkpt lat="43.08865789157149" lon="12.982365913841505"><ele>1114.1999999999998</ele><time>2026-04-18T15:01:03.998Z</time></trkpt><trkpt lat="43.088567093887924" lon="12.982414023010882"><ele>1113.6</ele><time>2026-04-18T15:01:04.998Z</time></trkpt><trkpt lat="43.08847553786967" lon="12.98243403316061"><ele>1113.0</ele><time>2026-04-18T15:01:05.998Z</time></trkpt><trkpt lat="43.088404361820004" lon="12.982456440082"><ele>1113.0</ele><time>2026-04-18T15:01:06.998Z</time></trkpt><trkpt lat="43.08832788407701" lon="12.982489947553532"><ele>1113.0</ele><time>2026-04-18T15:01:07.998Z</time></trkpt><trkpt lat="43.08825027529679" lon="12.982526302238808"><ele>1113.0</ele><time>2026-04-18T15:01:08.998Z</time></trkpt><trkpt lat="43.08815675318089" lon="12.982581913350158"><ele>1113.0</ele><time>2026-04-18T15:01:10.998Z</time></trkpt><trkpt lat="43.0880786453963" lon="12.982571687116247"><ele>1113.0</ele><time>2026-04-18T15:01:12.998Z</time></trkpt><trkpt lat="43.0880015080713" lon="12.982599564979772"><ele>1113.0</ele><time>2026-04-18T15:01:14Z</time></trkpt><trkpt lat="43.08791596036251" lon="12.982629270794225"><ele>1115.8</ele><time>2026-04-18T15:01:15Z</time></trkpt><trkpt lat="43.08782026082899" lon="12.982656308772428"><ele>1118.6</ele><time>2026-04-18T15:01:16Z</time></trkpt><trkpt lat="43.087742840893895" lon="12.982672917803681"><ele>1121.4</ele><time>2026-04-18T15:01:17Z</time></trkpt><trkpt lat="43.08761181767367" lon="12.9827255173219"><ele>1124.2</ele><time>2026-04-18T15:01:19Z</time></trkpt><trkpt lat="43.08754107279155" lon="12.982758842592885"><ele>1127.0</ele><time>2026-04-18T15:01:20Z</time></trkpt><trkpt lat="43.08746771691005" lon="12.982786233857992"><ele>1121.5</ele><time>2026-04-18T15:01:21Z</time></trkpt><trkpt lat="43.08740016180461" lon="12.982812968268856"><ele>1116.0</ele><time>2026-04-18T15:01:22Z</time></trkpt><trkpt lat="43.08732508391296" lon="12.982846376717916"><ele>1110.5</ele><time>2026-04-18T15:01:23Z</time></trkpt><trkpt lat="43.08725659854999" lon="12.982888235462656"><ele>1105.0</ele><time>2026-04-18T15:01:24Z</time></trkpt><trkpt lat="43.08718330330581" lon="12.982926104470216"><ele>1099.5</ele><time>2026-04-18T15:01:25Z</time></trkpt><trkpt lat="43.08708091963276" lon="12.98299445290602"><ele>1094.0</ele><time>2026-04-18T15:01:27Z</time></trkpt><trkpt lat="43.08700659323106" lon="12.98309295595556"><ele>1094.0</ele><time>2026-04-18T15:01:29Z</time></trkpt><trkpt lat="43.086943720269225" lon="12.983222412198398"><ele>1094.0</ele><time>2026-04-18T15:01:31Z</time></trkpt><trkpt lat="43.086908791738416" lon="12.983329707273956"><ele>1094.0</ele><time>2026-04-18T15:01:33Z</time></trkpt><trkpt lat="43.086869702086034" lon="12.983432230472905"><ele>1094.0</ele><time>2026-04-18T15:09:13.999Z</time></trkpt><trkpt lat="43.08685214685592" lon="12.983518925325987"><ele>1094.0</ele><time>2026-04-18T15:09:15.999Z</time></trkpt><trkpt lat="43.086837422866274" lon="12.98363426918369"><ele>1094.0</ele><time>2026-04-18T15:09:18.999Z</time></trkpt><trkpt lat="43.08683017934386" lon="12.983729475725275"><ele>1097.1666666666667</ele><time>2026-04-18T15:09:20.999Z</time></trkpt><trkpt lat="43.08682948761596" lon="12.983828457237307"><ele>1100.3333333333335</ele><time>2026-04-18T15:09:22.999Z</time></trkpt><trkpt lat="43.08682345130041" lon="12.983929887547372"><ele>1103.5</ele><time>2026-04-18T15:09:24.999Z</time></trkpt><trkpt lat="43.08681494347016" lon="12.984026918108965"><ele>1106.6666666666667</ele><time>2026-04-18T15:09:26.999Z</time></trkpt><trkpt lat="43.08678619994635" lon="12.984153357163313"><ele>1109.8333333333333</ele><time>2026-04-18T15:09:30.999Z</time></trkpt><trkpt lat="43.08678619869537" lon="12.984264282763409"><ele>1113.0</ele><time>2026-04-18T15:09:33.999Z</time></trkpt><trkpt lat="43.08673325444622" lon="12.984364503332232"><ele>1113.5</ele><time>2026-04-18T15:09:36.999Z</time></trkpt><trkpt lat="43.08667124003171" lon="12.984391712183678"><ele>1114.0</ele><time>2026-04-18T15:09:39Z</time></trkpt><trkpt lat="43.086597839784545" lon="12.984411601544215"><ele>1114.5</ele><time>2026-04-18T15:09:41Z</time></trkpt><trkpt lat="43.08651837758574" lon="12.984455211955455"><ele>1115.0</ele><time>2026-04-18T15:09:44Z</time></trkpt><trkpt lat="43.08646442938105" lon="12.984515365571454"><ele>1115.5</ele><time>2026-04-18T15:09:47Z</time></trkpt><trkpt lat="43.08640589113934" lon="12.984566270324892"><ele>1116.0</ele><time>2026-04-18T15:09:50Z</time></trkpt><trkpt lat="43.08632324738993" lon="12.984644989675665"><ele>1116.0</ele><time>2026-04-18T15:09:53Z</time></trkpt><trkpt lat="43.08626678512791" lon="12.984688827673853"><ele>1116.0</ele><time>2026-04-18T15:09:54Z</time></trkpt><trkpt lat="43.08620436452882" lon="12.984721766336188"><ele>1116.0</ele><time>2026-04-18T15:09:55Z</time></trkpt><trkpt lat="43.08611576398205" lon="12.98479018492083"><ele>1116.0</ele><time>2026-04-18T15:09:57Z</time></trkpt><trkpt lat="43.0860350178081" lon="12.984830894576195"><ele>1116.0</ele><time>2026-04-18T15:09:58Z</time></trkpt><trkpt lat="43.085939435749616" lon="12.984885190152395"><ele>1116.0</ele><time>2026-04-18T15:09:59Z</time></trkpt><trkpt lat="43.085851444261834" lon="12.98493568530321"><ele>1116.0</ele><time>2026-04-18T15:10:00Z</time></trkpt><trkpt lat="43.085781494184815" lon="12.984989495088456"><ele>1116.0</ele><time>2026-04-18T15:10:01Z</time></trkpt><trkpt lat="43.0857182683786" lon="12.985060648943005"><ele>1116.0</ele><time>2026-04-18T15:10:02Z</time></trkpt><trkpt lat="43.08566149231338" lon="12.985150482021293"><ele>1116.0</ele><time>2026-04-18T15:10:03Z</time></trkpt><trkpt lat="43.08560443185749" lon="12.985254095400778"><ele>1116.0</ele><time>2026-04-18T15:10:04Z</time></trkpt><trkpt lat="43.085548735699916" lon="12.985366965082997"><ele>1116.0</ele><time>2026-04-18T15:10:05Z</time></trkpt><trkpt lat="43.0855061275401" lon="12.985503945769931"><ele>1111.25</ele><time>2026-04-18T15:10:06Z</time></trkpt><trkpt lat="43.08546763551836" lon="12.985653348483135"><ele>1106.5</ele><time>2026-04-18T15:10:07Z</time></trkpt><trkpt lat="43.08541983190955" lon="12.985817077759325"><ele>1101.75</ele><time>2026-04-18T15:10:08Z</time></trkpt><trkpt lat="43.08537875392197" lon="12.985990391612336"><ele>1097.0</ele><time>2026-04-18T15:10:09Z</time></trkpt><trkpt lat="43.08533898869661" lon="12.986159534502077"><ele>1097.0</ele><time>2026-04-18T15:10:10Z</time></trkpt><trkpt lat="43.08529332884352" lon="12.9863098534922"><ele>1097.0</ele><time>2026-04-18T15:10:11Z</time></trkpt><trkpt lat="43.08524236501538" lon="12.986424680793599"><ele>1097.0</ele><time>2026-04-18T15:10:12Z</time></trkpt><trkpt lat="43.08519176119102" lon="12.986540764928169"><ele>1097.0</ele><time>2026-04-18T15:10:13Z</time></trkpt><trkpt lat="43.08513914451063" lon="12.986701708558575"><ele>1097.0</ele><time>2026-04-18T15:10:14Z</time></trkpt><trkpt lat="43.08508305332555" lon="12.986857694382147"><ele>1099.25</ele><time>2026-04-18T15:10:15Z</time></trkpt><trkpt lat="43.08503788593649" lon="12.987001710985922"><ele>1101.5</ele><time>2026-04-18T15:10:16Z</time></trkpt><trkpt lat="43.0850039999343" lon="12.98715574583086"><ele>1103.75</ele><time>2026-04-18T15:10:17Z</time></trkpt><trkpt lat="43.08497060531375" lon="12.987322026279479"><ele>1106.0</ele><time>2026-04-18T15:10:18Z</time></trkpt><trkpt lat="43.08495236172937" lon="12.987473762553934"><ele>1108.0</ele><time>2026-04-18T15:10:19Z</time></trkpt><trkpt lat="43.0849293334067" lon="12.987603378703616"><ele>1110.0</ele><time>2026-04-18T15:10:20Z</time></trkpt><trkpt lat="43.08489981880552" lon="12.987736783917283"><ele>1112.0</ele><time>2026-04-18T15:10:21Z</time></trkpt><trkpt lat="43.084851058780515" lon="12.987858318741502"><ele>1114.0</ele><time>2026-04-18T15:10:22Z</time></trkpt><trkpt lat="43.08478257771237" lon="12.987966158108009"><ele>1116.0</ele><time>2026-04-18T15:10:23Z</time></trkpt><trkpt lat="43.08472961335234" lon="12.988052061818692"><ele>1110.6</ele><time>2026-04-18T15:10:24Z</time></trkpt><trkpt lat="43.084683630876775" lon="12.988165572436781"><ele>1105.1999999999998</ele><time>2026-04-18T15:10:24.999Z</time></trkpt><trkpt lat="43.08463027643449" lon="12.988304599110162"><ele>1099.8000000000002</ele><time>2026-04-18T15:10:25.999Z</time></trkpt><trkpt lat="43.084584720986506" lon="12.988424993423852"><ele>1094.4</ele><time>2026-04-18T15:10:26.999Z</time></trkpt><trkpt lat="43.08450083300528" lon="12.988544094436904"><ele>1089.0</ele><time>2026-04-18T15:10:27.999Z</time></trkpt><trkpt lat="43.084406025711324" lon="12.988657412054781"><ele>1089.0</ele><time>2026-04-18T15:10:28.999Z</time></trkpt><trkpt lat="43.08433253002393" lon="12.988757522272914"><ele>1089.0</ele><time>2026-04-18T15:10:29.999Z</time></trkpt><trkpt lat="43.084251794305025" lon="12.988868068040016"><ele>1089.0</ele><time>2026-04-18T15:10:30.999Z</time></trkpt><trkpt lat="43.08420258851525" lon="12.988998273664892"><ele>1089.0</ele><time>2026-04-18T15:10:31.999Z</time></trkpt><trkpt lat="43.084132893338" lon="12.98915402356318"><ele>1083.1666666666667</ele><time>2026-04-18T15:10:32.999Z</time></trkpt><trkpt lat="43.084064605286436" lon="12.989259455524435"><ele>1077.3333333333333</ele><time>2026-04-18T15:10:33.999Z</time></trkpt><trkpt lat="43.083998119436764" lon="12.989334011371465"><ele>1071.5</ele><time>2026-04-18T15:10:34.999Z</time></trkpt><trkpt lat="43.08391119607338" lon="12.989415063409695"><ele>1065.6666666666665</ele><time>2026-04-18T15:10:35.999Z</time></trkpt><trkpt lat="43.08385495549274" lon="12.98947814571909"><ele>1059.8333333333333</ele><time>2026-04-18T15:10:36.999Z</time></trkpt><trkpt lat="43.08384990087289" lon="12.989580152215261"><ele>1054.0</ele><time>2026-04-18T15:10:38.999Z</time></trkpt><trkpt lat="43.083894798800046" lon="12.9897256248574"><ele>1054.0</ele><time>2026-04-18T15:10:40.999Z</time></trkpt><trkpt lat="43.08393528473606" lon="12.989844971198105"><ele>1054.0</ele><time>2026-04-18T15:10:41.999Z</time></trkpt><trkpt lat="43.0839656851947" lon="12.989965571699381"><ele>1054.0</ele><time>2026-04-18T15:10:42.999Z</time></trkpt><trkpt lat="43.08398534730645" lon="12.990061412648162"><ele>1054.0</ele><time>2026-04-18T15:10:43.999Z</time></trkpt><trkpt lat="43.084045799069834" lon="12.990200854332528"><ele>1054.0</ele><time>2026-04-18T15:10:45.999Z</time></trkpt><trkpt lat="43.0841275149409" lon="12.99037158758057"><ele>1055.8</ele><time>2026-04-18T15:10:47.999Z</time></trkpt><trkpt lat="43.084149837356925" lon="12.990529128197718"><ele>1057.6000000000001</ele><time>2026-04-18T15:10:49.999Z</time></trkpt><trkpt lat="43.08416271304347" lon="12.990620017975166"><ele>1059.4</ele><time>2026-04-18T15:10:51.999Z</time></trkpt><trkpt lat="43.08428466635426" lon="12.990676829758607"><ele>1061.2</ele><time>2026-04-18T15:10:53.999Z</time></trkpt><trkpt lat="43.08434962355963" lon="12.990803751238854"><ele>1063.0</ele><time>2026-04-18T15:10:55.999Z</time></trkpt><trkpt lat="43.084401403252706" lon="12.990854904679566"><ele>1055.8</ele><time>2026-04-18T15:10:57.999Z</time></trkpt><trkpt lat="43.08447588590516" lon="12.990864446744805"><ele>1048.6</ele><time>2026-04-18T15:10:59.999Z</time></trkpt><trkpt lat="43.0845273773876" lon="12.99094348022776"><ele>1041.4</ele><time>2026-04-18T15:11:01.999Z</time></trkpt><trkpt lat="43.08454626560856" lon="12.99109063663424"><ele>1034.2</ele><time>2026-04-18T15:11:03.999Z</time></trkpt><trkpt lat="43.08460471797257" lon="12.991212339597723"><ele>1027.0</ele><time>2026-04-18T15:11:05.999Z</time></trkpt><trkpt lat="43.08464183018216" lon="12.99133706346563"><ele>1027.0</ele><time>2026-04-18T15:11:08.999Z</time></trkpt><trkpt lat="43.08467394939086" lon="12.991439355547211"><ele>1027.0</ele><time>2026-04-18T15:11:10.999Z</time></trkpt><trkpt lat="43.08472041565461" lon="12.991536226436471"><ele>1027.0</ele><time>2026-04-18T15:11:12.999Z</time></trkpt><trkpt lat="43.08474035583899" lon="12.991621471507928"><ele>1027.0</ele><time>2026-04-18T15:11:14.999Z</time></trkpt><trkpt lat="43.08469339237612" lon="12.991720836742422"><ele>1027.0</ele><time>2026-04-18T15:11:17.999Z</time></trkpt><trkpt lat="43.08466941954281" lon="12.991818076328885"><ele>1027.0</ele><time>2026-04-18T15:11:19.999Z</time></trkpt><trkpt lat="43.08462452171302" lon="12.991924670614472"><ele>1022.6</ele><time>2026-04-18T15:11:21.999Z</time></trkpt><trkpt lat="43.08459948864154" lon="12.992050011830047"><ele>1018.2</ele><time>2026-04-18T15:11:23.999Z</time></trkpt><trkpt lat="43.084609618707695" lon="12.992166117674211"><ele>1013.8</ele><time>2026-04-18T15:11:25.999Z</time></trkpt><trkpt lat="43.084618100048694" lon="12.992308402752581"><ele>1009.4</ele><time>2026-04-18T15:11:27.999Z</time></trkpt><trkpt lat="43.08465865406558" lon="12.992436031067381"><ele>1005.0</ele><time>2026-04-18T15:11:29.999Z</time></trkpt><trkpt lat="43.084688651653195" lon="12.992515016065168"><ele>1000.6666666666666</ele><time>2026-04-18T15:11:30.999Z</time></trkpt><trkpt lat="43.084724129579755" lon="12.992601601674714"><ele>996.3333333333333</ele><time>2026-04-18T15:11:31.999Z</time></trkpt><trkpt lat="43.08477015298422" lon="12.992703313027524"><ele>992.0</ele><time>2026-04-18T15:11:32.999Z</time></trkpt><trkpt lat="43.08481255710897" lon="12.992794993475103"><ele>987.6666666666666</ele><time>2026-04-18T15:11:33.999Z</time></trkpt><trkpt lat="43.08485690624881" lon="12.992891932469385"><ele>983.3333333333333</ele><time>2026-04-18T15:11:34.999Z</time></trkpt><trkpt lat="43.08488756146629" lon="12.992987097709985"><ele>979.0</ele><time>2026-04-18T15:11:35.999Z</time></trkpt><trkpt lat="43.08491610860008" lon="12.993091839909798"><ele>981.1666666666666</ele><time>2026-04-18T15:11:36.999Z</time></trkpt><trkpt lat="43.084952714448335" lon="12.993199097411463"><ele>983.3333333333333</ele><time>2026-04-18T15:11:37.999Z</time></trkpt><trkpt lat="43.084985301951335" lon="12.99330162705243"><ele>985.5</ele><time>2026-04-18T15:11:38.999Z</time></trkpt><trkpt lat="43.08501952637722" lon="12.99337611671832"><ele>987.6666666666667</ele><time>2026-04-18T15:11:39.999Z</time></trkpt><trkpt lat="43.085070560810564" lon="12.993485627373772"><ele>989.8333333333334</ele><time>2026-04-18T15:11:40.999Z</time></trkpt><trkpt lat="43.08511527536195" lon="12.993582929183972"><ele>992.0</ele><time>2026-04-18T15:11:41.999Z</time></trkpt><trkpt lat="43.08515540394635" lon="12.993682826408037"><ele>992.0</ele><time>2026-04-18T15:11:42.999Z</time></trkpt><trkpt lat="43.085163188112936" lon="12.993776381780968"><ele>992.0</ele><time>2026-04-18T15:11:44Z</time></trkpt><trkpt lat="43.08519050417173" lon="12.993910561366928"><ele>992.0</ele><time>2026-04-18T15:11:46Z</time></trkpt><trkpt lat="43.085256174101374" lon="12.994022744607287"><ele>992.0</ele><time>2026-04-18T15:11:48Z</time></trkpt><trkpt lat="43.08530710683596" lon="12.994097077783334"><ele>992.0</ele><time>2026-04-18T15:11:49Z</time></trkpt><trkpt lat="43.085384607862856" lon="12.994226553394386"><ele>985.6</ele><time>2026-04-18T15:11:51Z</time></trkpt><trkpt lat="43.08546333833318" lon="12.994313832982613"><ele>979.2</ele><time>2026-04-18T15:11:53Z</time></trkpt><trkpt lat="43.08552223536884" lon="12.99438259923848"><ele>972.8</ele><time>2026-04-18T15:11:54Z</time></trkpt><trkpt lat="43.08555912013697" lon="12.99446110530678"><ele>966.4</ele><time>2026-04-18T15:11:55Z</time></trkpt><trkpt lat="43.08561636025478" lon="12.994606806124755"><ele>960.0</ele><time>2026-04-18T15:11:57Z</time></trkpt><trkpt lat="43.08565186765126" lon="12.99474057868802"><ele>960.0</ele><time>2026-04-18T15:11:59Z</time></trkpt><trkpt lat="43.08567185617529" lon="12.994880470126187"><ele>960.0</ele><time>2026-04-18T15:12:01Z</time></trkpt><trkpt lat="43.08573316539181" lon="12.99498045984649"><ele>960.0</ele><time>2026-04-18T15:12:03Z</time></trkpt><trkpt lat="43.085768371033815" lon="12.995060892654346"><ele>960.0</ele><time>2026-04-18T15:12:04Z</time></trkpt><trkpt lat="43.08581150967355" lon="12.995196662141847"><ele>960.0</ele><time>2026-04-18T15:12:06Z</time></trkpt><trkpt lat="43.08583241611567" lon="12.995286333727815"><ele>960.0</ele><time>2026-04-18T15:12:07Z</time></trkpt><trkpt lat="43.08584495971044" lon="12.995384161157872"><ele>960.3333333333334</ele><time>2026-04-18T15:12:08Z</time></trkpt><trkpt lat="43.085855745935085" lon="12.99555782176594"><ele>960.6666666666667</ele><time>2026-04-18T15:12:10Z</time></trkpt><trkpt lat="43.085871034428756" lon="12.995656554398677"><ele>961.0</ele><time>2026-04-18T15:12:11Z</time></trkpt><trkpt lat="43.085890805392324" lon="12.995740108258106"><ele>961.3333333333334</ele><time>2026-04-18T15:12:12Z</time></trkpt><trkpt lat="43.08590489072258" lon="12.9958317663207"><ele>961.6666666666667</ele><time>2026-04-18T15:12:13Z</time></trkpt><trkpt lat="43.08591920775592" lon="12.995929342687852"><ele>962.0</ele><time>2026-04-18T15:12:14Z</time></trkpt><trkpt lat="43.08594444114903" lon="12.996022182022244"><ele>957.6</ele><time>2026-04-18T15:12:15Z</time></trkpt><trkpt lat="43.085983786908315" lon="12.99617593510093"><ele>953.2</ele><time>2026-04-18T15:12:17Z</time></trkpt><trkpt lat="43.08600283879184" lon="12.996259877565226"><ele>948.8</ele><time>2026-04-18T15:12:18Z</time></trkpt><trkpt lat="43.08601768360012" lon="12.9963511909526"><ele>944.4</ele><time>2026-04-18T15:12:19Z</time></trkpt><trkpt lat="43.0860304292288" lon="12.996481168015109"><ele>940.0</ele><time>2026-04-18T15:12:21Z</time></trkpt><trkpt lat="43.08606966548916" lon="12.996631896382548"><ele>936.6666666666666</ele><time>2026-04-18T15:12:23Z</time></trkpt><trkpt lat="43.086095512446036" lon="12.996712800450965"><ele>933.3333333333333</ele><time>2026-04-18T15:12:24Z</time></trkpt><trkpt lat="43.086125460678325" lon="12.996793074787126"><ele>930.0</ele><time>2026-04-18T15:12:25Z</time></trkpt><trkpt lat="43.08615862918976" lon="12.99693564924488"><ele>926.6666666666667</ele><time>2026-04-18T15:12:27Z</time></trkpt><trkpt lat="43.08608980342595" lon="12.99694434441188"><ele>923.3333333333334</ele><time>2026-04-18T15:12:30Z</time></trkpt><trkpt lat="43.08599491973117" lon="12.99696534047439"><ele>920.0</ele><time>2026-04-18T15:12:32Z</time></trkpt><trkpt lat="43.08590450347162" lon="12.996967704561337"><ele>920.0000000000001</ele><time>2026-04-18T15:12:34Z</time></trkpt><trkpt lat="43.08582276665632" lon="12.996999840240822"><ele>920.0</ele><time>2026-04-18T15:12:36Z</time></trkpt><trkpt lat="43.08575079377116" lon="12.996980607735438"><ele>920.0</ele><time>2026-04-18T15:12:38Z</time></trkpt><trkpt lat="43.08563230026792" lon="12.996999751197341"><ele>920.0</ele><time>2026-04-18T15:12:40Z</time></trkpt><trkpt lat="43.08556437311601" lon="12.997030177109933"><ele>920.0000000000001</ele><time>2026-04-18T15:12:41Z</time></trkpt><trkpt lat="43.08549797098694" lon="12.99703499407671"><ele>920.0</ele><time>2026-04-18T15:12:42Z</time></trkpt><trkpt lat="43.08537203924985" lon="12.997041113433786"><ele>916.6666666666667</ele><time>2026-04-18T15:12:43.999Z</time></trkpt><trkpt lat="43.085306775727126" lon="12.997035531865317"><ele>913.3333333333334</ele><time>2026-04-18T15:12:44.999Z</time></trkpt><trkpt lat="43.08522954709691" lon="12.99702651533027"><ele>910.0</ele><time>2026-04-18T15:12:46.999Z</time></trkpt><trkpt lat="43.085187388655605" lon="12.997124892331676"><ele>906.6666666666667</ele><time>2026-04-18T15:12:48.999Z</time></trkpt><trkpt lat="43.08513214446943" lon="12.99719149837033"><ele>903.3333333333334</ele><time>2026-04-18T15:12:49.999Z</time></trkpt><trkpt lat="43.08505575039368" lon="12.997266707302153"><ele>900.0</ele><time>2026-04-18T15:12:51.999Z</time></trkpt><trkpt lat="43.084944806182705" lon="12.99730239091994"><ele>894.0</ele><time>2026-04-18T15:12:53.999Z</time></trkpt><trkpt lat="43.08484436133542" lon="12.997361241830163"><ele>888.0</ele><time>2026-04-18T15:12:55.999Z</time></trkpt><trkpt lat="43.08475571866808" lon="12.997399150404972"><ele>882.0</ele><time>2026-04-18T15:12:57.999Z</time></trkpt><trkpt lat="43.08467851770869" lon="12.997379861188351"><ele>876.0</ele><time>2026-04-18T15:12:59.999Z</time></trkpt><trkpt lat="43.084580406109545" lon="12.99733931385321"><ele>870.0</ele><time>2026-04-18T15:13:01.999Z</time></trkpt><trkpt lat="43.084525167305216" lon="12.997266210436752"><ele>870.0</ele><time>2026-04-18T15:13:03.999Z</time></trkpt><trkpt lat="43.084432978180104" lon="12.997261275560847"><ele>870.0</ele><time>2026-04-18T15:13:05.999Z</time></trkpt><trkpt lat="43.08432722809976" lon="12.997235326531516"><ele>870.0</ele><time>2026-04-18T15:13:07.999Z</time></trkpt><trkpt lat="43.084281420703086" lon="12.997167027246569"><ele>870.0</ele><time>2026-04-18T15:13:08.999Z</time></trkpt><trkpt lat="43.08422871675004" lon="12.99708504414529"><ele>870.0</ele><time>2026-04-18T15:13:09.999Z</time></trkpt><trkpt lat="43.08416493876287" lon="12.99700097189958"><ele>870.0</ele><time>2026-04-18T15:13:10.999Z</time></trkpt><trkpt lat="43.08411234068829" lon="12.99692877415809"><ele>866.2</ele><time>2026-04-18T15:13:11.999Z</time></trkpt><trkpt lat="43.084032217545655" lon="12.996791132135465"><ele>862.4</ele><time>2026-04-18T15:13:13.999Z</time></trkpt><trkpt lat="43.0839837078238" lon="12.996735249593852"><ele>858.5999999999999</ele><time>2026-04-18T15:13:14.999Z</time></trkpt><trkpt lat="43.083904185631006" lon="12.99663306849037"><ele>854.8</ele><time>2026-04-18T15:13:16.999Z</time></trkpt><trkpt lat="43.083824773091905" lon="12.996523533432475"><ele>851.0</ele><time>2026-04-18T15:13:19.999Z</time></trkpt><trkpt lat="43.08375989033557" lon="12.996487898057502"><ele>851.0</ele><time>2026-04-18T15:13:20.999Z</time></trkpt><trkpt lat="43.083672084246984" lon="12.996395235906588"><ele>851.0</ele><time>2026-04-18T15:13:22.999Z</time></trkpt><trkpt lat="43.08355185118454" lon="12.996360172381332"><ele>851.0</ele><time>2026-04-18T15:13:24.999Z</time></trkpt><trkpt lat="43.08344941332461" lon="12.996257788708247"><ele>851.0</ele><time>2026-04-18T15:13:26.999Z</time></trkpt><trkpt lat="43.0833520860877" lon="12.996142501731061"><ele>851.0000000000001</ele><time>2026-04-18T15:13:28.999Z</time></trkpt><trkpt lat="43.083291453780234" lon="12.996086811835266"><ele>851.0</ele><time>2026-04-18T15:13:29.999Z</time></trkpt><trkpt lat="43.083200216341694" lon="12.996059212465354"><ele>851.0</ele><time>2026-04-18T15:13:31.999Z</time></trkpt><trkpt lat="43.08315704145562" lon="12.996129272391778"><ele>851.0</ele><time>2026-04-18T15:13:32.999Z</time></trkpt><trkpt lat="43.08315864829071" lon="12.996262670517243"><ele>851.0000000000001</ele><time>2026-04-18T15:13:34.999Z</time></trkpt><trkpt lat="43.083179355255545" lon="12.996405810880493"><ele>851.0</ele><time>2026-04-18T15:13:36.999Z</time></trkpt><trkpt lat="43.083206851851465" lon="12.996562522469738"><ele>849.0000000000001</ele><time>2026-04-18T15:13:37.999Z</time></trkpt><trkpt lat="43.08321521408367" lon="12.996670031143447"><ele>847.0</ele><time>2026-04-18T15:13:38.999Z</time></trkpt><trkpt lat="43.083219902818584" lon="12.996761612870246"><ele>845.0</ele><time>2026-04-18T15:13:39.999Z</time></trkpt><trkpt lat="43.08320495161068" lon="12.996849390404378"><ele>843.0</ele><time>2026-04-18T15:13:40.999Z</time></trkpt><trkpt lat="43.08326441279536" lon="12.99700098294952"><ele>841.0000000000001</ele><time>2026-04-18T15:13:42.999Z</time></trkpt><trkpt lat="43.08327165414865" lon="12.997099554286542"><ele>839.0</ele><time>2026-04-18T15:13:43.999Z</time></trkpt><trkpt lat="43.08326722350508" lon="12.997195082529048"><ele>835.4000000000001</ele><time>2026-04-18T15:13:44.999Z</time></trkpt><trkpt lat="43.083261866991464" lon="12.997345011560618"><ele>831.8</ele><time>2026-04-18T15:13:46.999Z</time></trkpt><trkpt lat="43.083275003719564" lon="12.997520060861277"><ele>828.2</ele><time>2026-04-18T15:13:48.999Z</time></trkpt><trkpt lat="43.0832945813531" lon="12.997685580603394"><ele>824.5999999999999</ele><time>2026-04-18T15:13:51Z</time></trkpt><trkpt lat="43.083312604525524" lon="12.997779454626636"><ele>821.0</ele><time>2026-04-18T15:13:52Z</time></trkpt><trkpt lat="43.08334166711701" lon="12.997866497935327"><ele>821.0</ele><time>2026-04-18T15:13:53Z</time></trkpt><trkpt lat="43.08337460840055" lon="12.997941276748431"><ele>821.0</ele><time>2026-04-18T15:13:54Z</time></trkpt><trkpt lat="43.08343441577772" lon="12.99809952060761"><ele>821.0</ele><time>2026-04-18T15:13:56Z</time></trkpt><trkpt lat="43.08348277882638" lon="12.998232593424923"><ele>821.0</ele><time>2026-04-18T15:13:58Z</time></trkpt><trkpt lat="43.083521345960236" lon="12.9983684788048"><ele>821.0</ele><time>2026-04-18T15:14:00Z</time></trkpt><trkpt lat="43.083572566591435" lon="12.998526181159727"><ele>816.1999999999999</ele><time>2026-04-18T15:14:02Z</time></trkpt><trkpt lat="43.083571326277365" lon="12.99865318495031"><ele>811.4</ele><time>2026-04-18T15:14:04Z</time></trkpt><trkpt lat="43.083576046714946" lon="12.9987882237864"><ele>806.6</ele><time>2026-04-18T15:14:06Z</time></trkpt><trkpt lat="43.083580822121164" lon="12.998934405781586"><ele>801.8</ele><time>2026-04-18T15:14:08Z</time></trkpt><trkpt lat="43.083589782538766" lon="12.999048038170413"><ele>797.0</ele><time>2026-04-18T15:14:10Z</time></trkpt><trkpt lat="43.08362451194355" lon="12.999157663418108"><ele>790.0</ele><time>2026-04-18T15:14:12Z</time></trkpt><trkpt lat="43.083731908114736" lon="12.99921845987833"><ele>783.0</ele><time>2026-04-18T15:14:14Z</time></trkpt><trkpt lat="43.08381407240055" lon="12.999324799526622"><ele>776.0</ele><time>2026-04-18T15:14:16Z</time></trkpt><trkpt lat="43.08390155764897" lon="12.999420716479134"><ele>769.0</ele><time>2026-04-18T15:14:18Z</time></trkpt><trkpt lat="43.083996164230456" lon="12.999513364785589"><ele>769.0</ele><time>2026-04-18T15:14:20Z</time></trkpt><trkpt lat="43.084083208488536" lon="12.999650013574325"><ele>769.0</ele><time>2026-04-18T15:14:22Z</time></trkpt><trkpt lat="43.08411964450904" lon="12.999755794422882"><ele>769.0</ele><time>2026-04-18T15:14:23Z</time></trkpt><trkpt lat="43.08417532872516" lon="12.999797132110922"><ele>769.0</ele><time>2026-04-18T15:14:24Z</time></trkpt><trkpt lat="43.08424459553228" lon="12.999943855337783"><ele>769.0</ele><time>2026-04-18T15:14:26Z</time></trkpt><trkpt lat="43.08433755822785" lon="13.000074517750814"><ele>772.2</ele><time>2026-04-18T15:14:28Z</time></trkpt><trkpt lat="43.08440844267909" lon="13.000143949445935"><ele>775.4000000000001</ele><time>2026-04-18T15:14:29Z</time></trkpt><trkpt lat="43.08446251271416" lon="13.00021736680018"><ele>778.6</ele><time>2026-04-18T15:14:30Z</time></trkpt><trkpt lat="43.0845071347863" lon="13.000299735933638"><ele>781.8</ele><time>2026-04-18T15:14:31Z</time></trkpt><trkpt lat="43.08459261425089" lon="13.0004184999688"><ele>785.0</ele><time>2026-04-18T15:14:33Z</time></trkpt><trkpt lat="43.08466369464829" lon="13.00053015670432"><ele>785.0</ele><time>2026-04-18T15:14:35Z</time></trkpt><trkpt lat="43.08469957479713" lon="13.000699132259705"><ele>785.0</ele><time>2026-04-18T15:14:37Z</time></trkpt><trkpt lat="43.08474022787878" lon="13.000825492133652"><ele>785.0</ele><time>2026-04-18T15:14:39Z</time></trkpt><trkpt lat="43.08481895648147" lon="13.000931491352476"><ele>785.0</ele><time>2026-04-18T15:14:41Z</time></trkpt><trkpt lat="43.08487836326156" lon="13.000965639298096"><ele>785.0</ele><time>2026-04-18T15:14:42Z</time></trkpt><trkpt lat="43.084973700946776" lon="13.001040733505317"><ele>782.6666666666667</ele><time>2026-04-18T15:14:44Z</time></trkpt><trkpt lat="43.08504001942587" lon="13.001148162062789"><ele>780.3333333333334</ele><time>2026-04-18T15:14:46Z</time></trkpt><trkpt lat="43.08510598224787" lon="13.001190687858942"><ele>778.0</ele><time>2026-04-18T15:14:48Z</time></trkpt><trkpt lat="43.08521322601806" lon="13.001245952973195"><ele>775.6666666666667</ele><time>2026-04-18T15:14:50Z</time></trkpt><trkpt lat="43.085280732437425" lon="13.00131946178804"><ele>773.3333333333334</ele><time>2026-04-18T15:14:52Z</time></trkpt><trkpt lat="43.08532954912675" lon="13.001385197548688"><ele>771.0</ele><time>2026-04-18T15:14:53Z</time></trkpt><trkpt lat="43.085428315685284" lon="13.001453808429718"><ele>771.0</ele><time>2026-04-18T15:14:54Z</time></trkpt><trkpt lat="43.08553624742413" lon="13.001512248563916"><ele>771.0</ele><time>2026-04-18T15:14:55Z</time></trkpt><trkpt lat="43.08567017373342" lon="13.001589735138165"><ele>771.0</ele><time>2026-04-18T15:14:56Z</time></trkpt><trkpt lat="43.085793042168255" lon="13.001698011535261"><ele>771.0</ele><time>2026-04-18T15:14:57Z</time></trkpt><trkpt lat="43.08590146289852" lon="13.001808860573915"><ele>768.75</ele><time>2026-04-18T15:14:57.999Z</time></trkpt><trkpt lat="43.08599944531777" lon="13.00194736000046"><ele>766.5</ele><time>2026-04-18T15:14:58.999Z</time></trkpt><trkpt lat="43.08608446091674" lon="13.002098181135516"><ele>764.25</ele><time>2026-04-18T15:14:59.999Z</time></trkpt><trkpt lat="43.08615911857846" lon="13.002248978040464"><ele>762.0</ele><time>2026-04-18T15:15:00.999Z</time></trkpt><trkpt lat="43.086226251611684" lon="13.002415827215593"><ele>756.0</ele><time>2026-04-18T15:15:01.999Z</time></trkpt><trkpt lat="43.08629111052292" lon="13.002588034459624"><ele>750.0</ele><time>2026-04-18T15:15:02.999Z</time></trkpt><trkpt lat="43.086360446789065" lon="13.002741581332703"><ele>744.0</ele><time>2026-04-18T15:15:03.999Z</time></trkpt><trkpt lat="43.086448153903376" lon="13.002878901723449"><ele>738.0</ele><time>2026-04-18T15:15:04.999Z</time></trkpt><trkpt lat="43.08655385512824" lon="13.002985337840101"><ele>744.6666666666666</ele><time>2026-04-18T15:15:05.999Z</time></trkpt><trkpt lat="43.086681404324466" lon="13.003084285800577"><ele>751.3333333333333</ele><time>2026-04-18T15:15:06.999Z</time></trkpt><trkpt lat="43.0868187102701" lon="13.003184667351897"><ele>758.0</ele><time>2026-04-18T15:15:07.999Z</time></trkpt><trkpt lat="43.086943059979184" lon="13.00331070434338"><ele>751.3333333333333</ele><time>2026-04-18T15:15:08.999Z</time></trkpt><trkpt lat="43.08706002525836" lon="13.003459374544443"><ele>744.6666666666666</ele><time>2026-04-18T15:15:09.999Z</time></trkpt><trkpt lat="43.08716830909285" lon="13.003614281368458"><ele>738.0</ele><time>2026-04-18T15:15:10.999Z</time></trkpt><trkpt lat="43.08726308567509" lon="13.003786671769154"><ele>738.0</ele><time>2026-04-18T15:15:11.999Z</time></trkpt><trkpt lat="43.08736532618571" lon="13.003941298139363"><ele>738.0</ele><time>2026-04-18T15:15:12.999Z</time></trkpt><trkpt lat="43.08745430732577" lon="13.004112210767044"><ele>738.0</ele><time>2026-04-18T15:15:13.999Z</time></trkpt><trkpt lat="43.08753016951351" lon="13.004280649404574"><ele>740.25</ele><time>2026-04-18T15:15:14.999Z</time></trkpt><trkpt lat="43.087621186996785" lon="13.004429400404684"><ele>742.5</ele><time>2026-04-18T15:15:15.999Z</time></trkpt><trkpt lat="43.08772901065045" lon="13.004555405237163"><ele>744.75</ele><time>2026-04-18T15:15:16.999Z</time></trkpt><trkpt lat="43.08784980863747" lon="13.004666752133598"><ele>747.0</ele><time>2026-04-18T15:15:17.999Z</time></trkpt><trkpt lat="43.08796856442019" lon="13.004784294905722"><ele>747.0</ele><time>2026-04-18T15:15:18.999Z</time></trkpt><trkpt lat="43.088076418751285" lon="13.004922418414438"><ele>747.0</ele><time>2026-04-18T15:15:19.999Z</time></trkpt><trkpt lat="43.08818483329739" lon="13.005080509347504"><ele>747.0</ele><time>2026-04-18T15:15:20.999Z</time></trkpt><trkpt lat="43.0882937364765" lon="13.005236803668252"><ele>748.6666666666666</ele><time>2026-04-18T15:15:21.999Z</time></trkpt><trkpt lat="43.08840729545963" lon="13.005398755154431"><ele>750.3333333333333</ele><time>2026-04-18T15:15:22.999Z</time></trkpt><trkpt lat="43.08853179948919" lon="13.005548768320846"><ele>752.0</ele><time>2026-04-18T15:15:23.999Z</time></trkpt><trkpt lat="43.08867276060964" lon="13.00567903129142"><ele>752.0</ele><time>2026-04-18T15:15:24.999Z</time></trkpt><trkpt lat="43.08881579868404" lon="13.005807012433248"><ele>752.0</ele><time>2026-04-18T15:15:25.999Z</time></trkpt><trkpt lat="43.08895931160856" lon="13.005948166652392"><ele>752.0</ele><time>2026-04-18T15:15:26.999Z</time></trkpt><trkpt lat="43.08909868812931" lon="13.00610131734092"><ele>750.0</ele><time>2026-04-18T15:15:27.999Z</time></trkpt><trkpt lat="43.08922847742703" lon="13.006253933114442"><ele>748.0</ele><time>2026-04-18T15:15:28.999Z</time></trkpt><trkpt lat="43.08937456152685" lon="13.006389113962118"><ele>746.0</ele><time>2026-04-18T15:15:29.999Z</time></trkpt><trkpt lat="43.089509082479026" lon="13.006480534977461"><ele>746.0</ele><time>2026-04-18T15:15:30.999Z</time></trkpt><trkpt lat="43.0896373412364" lon="13.006549584158277"><ele>746.0</ele><time>2026-04-18T15:15:31.999Z</time></trkpt><trkpt lat="43.089750932090325" lon="13.006631989073963"><ele>746.0</ele><time>2026-04-18T15:15:32.999Z</time></trkpt><trkpt lat="43.08984732734856" lon="13.006728512768367"><ele>746.0</ele><time>2026-04-18T15:15:33.999Z</time></trkpt><trkpt lat="43.089925230044585" lon="13.006834576841968"><ele>745.6666666666666</ele><time>2026-04-18T15:15:34.999Z</time></trkpt><trkpt lat="43.089988204428145" lon="13.00692137414164"><ele>745.3333333333333</ele><time>2026-04-18T15:15:35.999Z</time></trkpt><trkpt lat="43.09003183554948" lon="13.00699249544393"><ele>745.0</ele><time>2026-04-18T15:15:36.999Z</time></trkpt><trkpt lat="43.09006654707214" lon="13.007121406374358"><ele>744.6666666666666</ele><time>2026-04-18T15:15:39.999Z</time></trkpt><trkpt lat="43.090052701429194" lon="13.007239200170213"><ele>744.3333333333334</ele><time>2026-04-18T15:15:41.999Z</time></trkpt><trkpt lat="43.09001154236502" lon="13.007363423111865"><ele>744.0</ele><time>2026-04-18T15:15:44.999Z</time></trkpt><trkpt lat="43.08992523781696" lon="13.007452736318053"><ele>742.6</ele><time>2026-04-18T15:15:46.999Z</time></trkpt><trkpt lat="43.08980577315363" lon="13.007506487477666"><ele>741.2</ele><time>2026-04-18T15:15:48.999Z</time></trkpt><trkpt lat="43.08974001251719" lon="13.007519066164116"><ele>739.8000000000001</ele><time>2026-04-18T15:15:49.999Z</time></trkpt><trkpt lat="43.089608568059674" lon="13.007525875463237"><ele>738.4000000000001</ele><time>2026-04-18T15:15:51.999Z</time></trkpt><trkpt lat="43.08952093667712" lon="13.007545383872793"><ele>737.0</ele><time>2026-04-18T15:15:52.999Z</time></trkpt><trkpt lat="43.08942422818416" lon="13.007602706911845"><ele>737.0</ele><time>2026-04-18T15:15:53.999Z</time></trkpt><trkpt lat="43.08934337257871" lon="13.007606968301126"><ele>737.0</ele><time>2026-04-18T15:15:54.999Z</time></trkpt><trkpt lat="43.08926399599047" lon="13.00762196791142"><ele>737.0</ele><time>2026-04-18T15:15:56Z</time></trkpt><trkpt lat="43.08919054879757" lon="13.007644904908052"><ele>737.0</ele><time>2026-04-18T15:15:57Z</time></trkpt><trkpt lat="43.089124741983795" lon="13.007693393142235"><ele>737.0</ele><time>2026-04-18T15:15:58Z</time></trkpt><trkpt lat="43.089069802224145" lon="13.00775855327211"><ele>737.0</ele><time>2026-04-18T15:15:59Z</time></trkpt><trkpt lat="43.08901086035858" lon="13.007816131397893"><ele>737.8571428571429</ele><time>2026-04-18T15:16:00Z</time></trkpt><trkpt lat="43.08896794083594" lon="13.007893314108392"><ele>738.7142857142858</ele><time>2026-04-18T15:16:01Z</time></trkpt><trkpt lat="43.088941824931204" lon="13.00798133248377"><ele>739.5714285714287</ele><time>2026-04-18T15:16:02Z</time></trkpt><trkpt lat="43.08895776087964" lon="13.008065738204943"><ele>740.4285714285714</ele><time>2026-04-18T15:16:03Z</time></trkpt><trkpt lat="43.089000152022045" lon="13.008156937150028"><ele>741.2857142857142</ele><time>2026-04-18T15:16:04Z</time></trkpt><trkpt lat="43.089036025933304" lon="13.00825925426441"><ele>742.1428571428572</ele><time>2026-04-18T15:16:05Z</time></trkpt><trkpt lat="43.08903568965432" lon="13.008354500217772"><ele>743.0</ele><time>2026-04-18T15:16:18Z</time></trkpt><trkpt lat="43.089050315278485" lon="13.008441183793334"><ele>743.0</ele><time>2026-04-18T15:16:20Z</time></trkpt><trkpt lat="43.089050189243125" lon="13.008533051070524"><ele>743.0</ele><time>2026-04-18T15:16:22Z</time></trkpt><trkpt lat="43.088970729955356" lon="13.008565355516385"><ele>743.0</ele><time>2026-04-18T15:16:24Z</time></trkpt><trkpt lat="43.088870345247486" lon="13.008563022970785"><ele>743.0</ele><time>2026-04-18T15:16:26Z</time></trkpt><trkpt lat="43.08875246607666" lon="13.008542044058666"><ele>743.0</ele><time>2026-04-18T15:16:27Z</time></trkpt><trkpt lat="43.088670282512325" lon="13.00852565210783"><ele>743.0</ele><time>2026-04-18T15:16:28Z</time></trkpt><trkpt lat="43.08858667754502" lon="13.008526319177822"><ele>743.0</ele><time>2026-04-18T15:16:29Z</time></trkpt><trkpt lat="43.08851087876192" lon="13.008537431884525"><ele>743.0</ele><time>2026-04-18T15:16:30Z</time></trkpt><trkpt lat="43.08843539225244" lon="13.008552119940248"><ele>743.0</ele><time>2026-04-18T15:16:31Z</time></trkpt><trkpt lat="43.08835595759279" lon="13.008563878669218"><ele>743.0</ele><time>2026-04-18T15:16:32Z</time></trkpt><trkpt lat="43.088257543772755" lon="13.008528398211041"><ele>743.0</ele><time>2026-04-18T15:16:33Z</time></trkpt><trkpt lat="43.08817931889288" lon="13.008454089055409"><ele>743.2</ele><time>2026-04-18T15:16:34Z</time></trkpt><trkpt lat="43.08812356949113" lon="13.008387733970903"><ele>743.4</ele><time>2026-04-18T15:16:35Z</time></trkpt><trkpt lat="43.08798708109198" lon="13.008371135579042"><ele>743.6</ele><time>2026-04-18T15:16:37Z</time></trkpt><trkpt lat="43.08790453140247" lon="13.008378408077172"><ele>743.8000000000001</ele><time>2026-04-18T15:16:38Z</time></trkpt><trkpt lat="43.08782359997045" lon="13.008351291081098"><ele>744.0</ele><time>2026-04-18T15:16:39Z</time></trkpt><trkpt lat="43.0877512091915" lon="13.008326192813751"><ele>740.8333333333334</ele><time>2026-04-18T15:16:40Z</time></trkpt><trkpt lat="43.08767163516643" lon="13.008317202780232"><ele>737.6666666666666</ele><time>2026-04-18T15:16:41Z</time></trkpt><trkpt lat="43.08760457043102" lon="13.008319014893152"><ele>734.5</ele><time>2026-04-18T15:16:42Z</time></trkpt><trkpt lat="43.08752064948682" lon="13.008292353738725"><ele>731.3333333333333</ele><time>2026-04-18T15:16:43Z</time></trkpt><trkpt lat="43.08738338396321" lon="13.008275556963188"><ele>728.1666666666666</ele><time>2026-04-18T15:16:45Z</time></trkpt><trkpt lat="43.08730962206868" lon="13.008250800091554"><ele>725.0</ele><time>2026-04-18T15:16:47Z</time></trkpt><trkpt lat="43.08722781939346" lon="13.008228386694201"><ele>725.7142857142858</ele><time>2026-04-18T15:16:50Z</time></trkpt><trkpt lat="43.08714418910628" lon="13.00823058559627"><ele>726.4285714285714</ele><time>2026-04-18T15:16:52Z</time></trkpt><trkpt lat="43.08708374485902" lon="13.00826194301252"><ele>727.1428571428571</ele><time>2026-04-18T15:16:54Z</time></trkpt><trkpt lat="43.08700430724444" lon="13.008270818365098"><ele>727.8571428571429</ele><time>2026-04-18T15:16:56Z</time></trkpt><trkpt lat="43.08693888467931" lon="13.00829504971226"><ele>728.5714285714286</ele><time>2026-04-18T15:16:58Z</time></trkpt><trkpt lat="43.086867863595984" lon="13.0082987629659"><ele>729.2857142857143</ele><time>2026-04-18T15:17:00Z</time></trkpt><trkpt lat="43.08680846561763" lon="13.008328191636748"><ele>730.0</ele><time>2026-04-18T15:17:02Z</time></trkpt><trkpt lat="43.08683122248621" lon="13.008442522236184"><ele>730.0</ele><time>2026-04-18T15:17:04Z</time></trkpt><trkpt lat="43.08688977917592" lon="13.0085604702812"><ele>730.0</ele><time>2026-04-18T15:17:05Z</time></trkpt><trkpt lat="43.08691310393692" lon="13.008651135299772"><ele>730.0</ele><time>2026-04-18T15:17:06Z</time></trkpt><trkpt lat="43.086911292716415" lon="13.00876156297876"><ele>730.0</ele><time>2026-04-18T15:17:07Z</time></trkpt><trkpt lat="43.08695262677308" lon="13.008907161118687"><ele>730.0</ele><time>2026-04-18T15:17:08Z</time></trkpt><trkpt lat="43.08700448460947" lon="13.009019416282529"><ele>730.0</ele><time>2026-04-18T15:17:09Z</time></trkpt><trkpt lat="43.086976957431816" lon="13.009098190343016"><ele>730.0</ele><time>2026-04-18T15:17:11Z</time></trkpt><trkpt lat="43.08690054931757" lon="13.009092325619637"><ele>730.0</ele><time>2026-04-18T15:17:12Z</time></trkpt><trkpt lat="43.08678451995188" lon="13.00905146951249"><ele>730.0</ele><time>2026-04-18T15:17:12.999Z</time></trkpt><trkpt lat="43.0866258583562" lon="13.009012807888547"><ele>730.0</ele><time>2026-04-18T15:17:13.999Z</time></trkpt><trkpt lat="43.08644343683369" lon="13.009017793909646"><ele>727.1666666666667</ele><time>2026-04-18T15:17:14.999Z</time></trkpt><trkpt lat="43.08631104663062" lon="13.009017177284443"><ele>724.3333333333334</ele><time>2026-04-18T15:17:15.999Z</time></trkpt><trkpt lat="43.08621075243894" lon="13.008992041737429"><ele>721.5</ele><time>2026-04-18T15:17:16.999Z</time></trkpt><trkpt lat="43.08614628011744" lon="13.008986888608534"><ele>718.6666666666666</ele><time>2026-04-18T15:17:17.999Z</time></trkpt><trkpt lat="43.08608016496912" lon="13.008978890570232"><ele>715.8333333333333</ele><time>2026-04-18T15:17:18.999Z</time></trkpt><trkpt lat="43.08600982072778" lon="13.008964034547818"><ele>713.0</ele><time>2026-04-18T15:17:19.999Z</time></trkpt><trkpt lat="43.08590060968013" lon="13.00897318141837"><ele>713.0</ele><time>2026-04-18T15:17:20.999Z</time></trkpt><trkpt lat="43.0857928464339" lon="13.008972196873772"><ele>713.0</ele><time>2026-04-18T15:17:21.999Z</time></trkpt><trkpt lat="43.08572611787715" lon="13.008956496877737"><ele>713.0</ele><time>2026-04-18T15:17:22.999Z</time></trkpt><trkpt lat="43.08564900217338" lon="13.008943309828497"><ele>713.0</ele><time>2026-04-18T15:17:24.999Z</time></trkpt><trkpt lat="43.085573573512676" lon="13.008902964907536"><ele>713.0</ele><time>2026-04-18T15:17:27.999Z</time></trkpt><trkpt lat="43.08543086230731" lon="13.008809505238519"><ele>712.8333333333333</ele><time>2026-04-18T15:17:29.999Z</time></trkpt><trkpt lat="43.08533280268661" lon="13.00873850507316"><ele>712.6666666666666</ele><time>2026-04-18T15:17:30.999Z</time></trkpt><trkpt lat="43.08527152813849" lon="13.00871576010504"><ele>712.5</ele><time>2026-04-18T15:17:31.999Z</time></trkpt><trkpt lat="43.08519323458386" lon="13.008719113664322"><ele>712.3333333333334</ele><time>2026-04-18T15:17:32.999Z</time></trkpt><trkpt lat="43.08510211806849" lon="13.008725820349964"><ele>712.1666666666667</ele><time>2026-04-18T15:17:33.999Z</time></trkpt><trkpt lat="43.08499755025478" lon="13.008741758433926"><ele>712.0</ele><time>2026-04-18T15:17:34.999Z</time></trkpt><trkpt lat="43.08491885482265" lon="13.00876977138046"><ele>712.0</ele><time>2026-04-18T15:17:35.999Z</time></trkpt><trkpt lat="43.0848315561082" lon="13.00879979471939"><ele>712.0</ele><time>2026-04-18T15:17:36.999Z</time></trkpt><trkpt lat="43.084734600521124" lon="13.008855625827568"><ele>712.0</ele><time>2026-04-18T15:17:37.999Z</time></trkpt><trkpt lat="43.084640516130975" lon="13.00890746604091"><ele>712.0</ele><time>2026-04-18T15:17:38.999Z</time></trkpt><trkpt lat="43.08457304261338" lon="13.008933971011674"><ele>712.0</ele><time>2026-04-18T15:17:39.999Z</time></trkpt><trkpt lat="43.08448068269834" lon="13.008972445477106"><ele>712.0</ele><time>2026-04-18T15:17:42.999Z</time></trkpt><trkpt lat="43.084400470173144" lon="13.008998966246319"><ele>712.0</ele><time>2026-04-18T15:17:44.999Z</time></trkpt><trkpt lat="43.084309410560124" lon="13.009031768034577"><ele>712.0</ele><time>2026-04-18T15:17:46.999Z</time></trkpt><trkpt lat="43.08425144076348" lon="13.009071547781508"><ele>712.0</ele><time>2026-04-18T15:17:47.999Z</time></trkpt><trkpt lat="43.08414400018314" lon="13.009136619166473"><ele>712.0</ele><time>2026-04-18T15:17:49.999Z</time></trkpt><trkpt lat="43.08407942222832" lon="13.009178741065613"><ele>712.0</ele><time>2026-04-18T15:17:50.999Z</time></trkpt><trkpt lat="43.084015666195796" lon="13.009213854856972"><ele>713.6</ele><time>2026-04-18T15:17:51.999Z</time></trkpt><trkpt lat="43.08395067269472" lon="13.009242013137479"><ele>715.2</ele><time>2026-04-18T15:17:52.999Z</time></trkpt><trkpt lat="43.08385385684084" lon="13.009250746346545"><ele>716.8</ele><time>2026-04-18T15:17:53.999Z</time></trkpt><trkpt lat="43.08374430544952" lon="13.009274693666748"><ele>718.4</ele><time>2026-04-18T15:17:54.999Z</time></trkpt><trkpt lat="43.08365280727769" lon="13.009294161663387"><ele>720.0</ele><time>2026-04-18T15:17:55.999Z</time></trkpt><trkpt lat="43.083574663031115" lon="13.009333187220411"><ele>720.0</ele><time>2026-04-18T15:17:56.999Z</time></trkpt><trkpt lat="43.08349348938099" lon="13.009382800910288"><ele>720.0</ele><time>2026-04-18T15:17:57.999Z</time></trkpt><trkpt lat="43.08341098834619" lon="13.00944464612297"><ele>720.0</ele><time>2026-04-18T15:17:59.999Z</time></trkpt><trkpt lat="43.08338832614182" lon="13.009649811928442"><ele>720.0</ele><time>2026-04-18T15:18:02Z</time></trkpt><trkpt lat="43.083327147784075" lon="13.009809488950548"><ele>720.0</ele><time>2026-04-18T15:18:03Z</time></trkpt><trkpt lat="43.08326864115424" lon="13.009899579171606"><ele>720.0</ele><time>2026-04-18T15:18:04Z</time></trkpt><trkpt lat="43.083220091988004" lon="13.010007343997414"><ele>720.0</ele><time>2026-04-18T15:18:05Z</time></trkpt><trkpt lat="43.08315187758284" lon="13.010058881858399"><ele>720.0</ele><time>2026-04-18T15:18:06Z</time></trkpt><trkpt lat="43.08307624055985" lon="13.010145486420615"><ele>720.0</ele><time>2026-04-18T15:18:08Z</time></trkpt><trkpt lat="43.08301749219576" lon="13.010222533870483"><ele>720.0</ele><time>2026-04-18T15:18:09Z</time></trkpt><trkpt lat="43.08293332814967" lon="13.010272340856735"><ele>720.8</ele><time>2026-04-18T15:18:10Z</time></trkpt><trkpt lat="43.082834570307924" lon="13.01032818399529"><ele>721.6</ele><time>2026-04-18T15:18:11Z</time></trkpt><trkpt lat="43.082726709741216" lon="13.01033376899686"><ele>722.4000000000001</ele><time>2026-04-18T15:18:12Z</time></trkpt><trkpt lat="43.08263363064933" lon="13.010308952428712"><ele>723.2</ele><time>2026-04-18T15:18:13Z</time></trkpt><trkpt lat="43.08256739008972" lon="13.010258299552387"><ele>724.0</ele><time>2026-04-18T15:18:14Z</time></trkpt><trkpt lat="43.08250101228097" lon="13.010213162715349"><ele>724.6666666666667</ele><time>2026-04-18T15:18:15Z</time></trkpt><trkpt lat="43.08241700405312" lon="13.010170985916844"><ele>725.3333333333334</ele><time>2026-04-18T15:18:16Z</time></trkpt><trkpt lat="43.082342975504034" lon="13.010137063595481"><ele>726.0</ele><time>2026-04-18T15:18:17Z</time></trkpt><trkpt lat="43.0822758080074" lon="13.010106094501014"><ele>726.6666666666666</ele><time>2026-04-18T15:18:18Z</time></trkpt><trkpt lat="43.08221508677269" lon="13.010083212192864"><ele>727.3333333333333</ele><time>2026-04-18T15:18:19Z</time></trkpt><trkpt lat="43.08213463148665" lon="13.01004914640268"><ele>728.0</ele><time>2026-04-18T15:18:20Z</time></trkpt><trkpt lat="43.082063003636314" lon="13.010053508868719"><ele>728.0</ele><time>2026-04-18T15:18:21Z</time></trkpt><trkpt lat="43.08198062432991" lon="13.010070797797125"><ele>728.0</ele><time>2026-04-18T15:18:22Z</time></trkpt><trkpt lat="43.0818888947064" lon="13.010060309429996"><ele>728.0</ele><time>2026-04-18T15:18:23Z</time></trkpt><trkpt lat="43.08178593409545" lon="13.010065890093788"><ele>728.0</ele><time>2026-04-18T15:18:24Z</time></trkpt><trkpt lat="43.08171253008624" lon="13.010106938282298"><ele>728.0</ele><time>2026-04-18T15:18:25Z</time></trkpt><trkpt lat="43.0816251190731" lon="13.01016654498682"><ele>728.1666666666666</ele><time>2026-04-18T15:18:27Z</time></trkpt><trkpt lat="43.08155213926325" lon="13.010163863262436"><ele>728.3333333333333</ele><time>2026-04-18T15:18:31Z</time></trkpt><trkpt lat="43.08148768966273" lon="13.010166106071368"><ele>728.5</ele><time>2026-04-18T15:18:33Z</time></trkpt><trkpt lat="43.08142664037348" lon="13.010204050054623"><ele>728.6666666666666</ele><time>2026-04-18T15:18:34Z</time></trkpt><trkpt lat="43.081334187134914" lon="13.010304692374095"><ele>728.8333333333334</ele><time>2026-04-18T15:18:36Z</time></trkpt><trkpt lat="43.08128658120534" lon="13.010382609233078"><ele>729.0</ele><time>2026-04-18T15:18:37Z</time></trkpt><trkpt lat="43.08121078540792" lon="13.010434696090664"><ele>729.0</ele><time>2026-04-18T15:18:38Z</time></trkpt><trkpt lat="43.08111994261123" lon="13.010506314367133"><ele>729.0</ele><time>2026-04-18T15:18:39Z</time></trkpt><trkpt lat="43.081053923538164" lon="13.010564582898088"><ele>729.0</ele><time>2026-04-18T15:18:40Z</time></trkpt><trkpt lat="43.08098821300288" lon="13.01059453937535"><ele>729.0</ele><time>2026-04-18T15:18:41Z</time></trkpt><trkpt lat="43.08089014226603" lon="13.010753444097082"><ele>729.0</ele><time>2026-04-18T15:18:43Z</time></trkpt><trkpt lat="43.08082861736009" lon="13.010793389774653"><ele>728.0</ele><time>2026-04-18T15:18:44Z</time></trkpt><trkpt lat="43.08072878626035" lon="13.010828912920905"><ele>727.0</ele><time>2026-04-18T15:18:45Z</time></trkpt><trkpt lat="43.08065329198541" lon="13.010844269675298"><ele>726.0</ele><time>2026-04-18T15:18:46Z</time></trkpt><trkpt lat="43.08057629414339" lon="13.010843895572732"><ele>725.0</ele><time>2026-04-18T15:18:48Z</time></trkpt><trkpt lat="43.0804865098489" lon="13.01088143910399"><ele>724.0</ele><time>2026-04-18T15:18:51Z</time></trkpt><trkpt lat="43.08039648800849" lon="13.010864415889792"><ele>723.0</ele><time>2026-04-18T15:18:54Z</time></trkpt><trkpt lat="43.08027451330228" lon="13.010851788976458"><ele>723.0</ele><time>2026-04-18T15:18:56Z</time></trkpt><trkpt lat="43.08013155656072" lon="13.01085476938563"><ele>723.0</ele><time>2026-04-18T15:18:58Z</time></trkpt><trkpt lat="43.08004227117801" lon="13.010861802159761"><ele>723.0</ele><time>2026-04-18T15:18:59Z</time></trkpt><trkpt lat="43.07995271278209" lon="13.010877347452809"><ele>723.0</ele><time>2026-04-18T15:19:00Z</time></trkpt><trkpt lat="43.07986867813986" lon="13.010877319467433"><ele>723.0</ele><time>2026-04-18T15:19:01Z</time></trkpt><trkpt lat="43.079783286641565" lon="13.010877946369542"><ele>721.0</ele><time>2026-04-18T15:19:02Z</time></trkpt><trkpt lat="43.07970229161872" lon="13.010874436094921"><ele>719.0</ele><time>2026-04-18T15:19:03Z</time></trkpt><trkpt lat="43.079621493521145" lon="13.010879524302162"><ele>717.0</ele><time>2026-04-18T15:19:04Z</time></trkpt><trkpt lat="43.07950256192263" lon="13.010866502110114"><ele>715.0</ele><time>2026-04-18T15:19:06Z</time></trkpt><trkpt lat="43.07938929563881" lon="13.010818550670187"><ele>713.0</ele><time>2026-04-18T15:19:08Z</time></trkpt><trkpt lat="43.07928382502636" lon="13.010815966081353"><ele>713.0</ele><time>2026-04-18T15:19:10Z</time></trkpt><trkpt lat="43.079214754136395" lon="13.010800177334016"><ele>713.0</ele><time>2026-04-18T15:19:11Z</time></trkpt><trkpt lat="43.07914660145734" lon="13.010758933279268"><ele>713.0</ele><time>2026-04-18T15:19:12Z</time></trkpt><trkpt lat="43.07905338034425" lon="13.010676460230174"><ele>713.0</ele><time>2026-04-18T15:19:14Z</time></trkpt><trkpt lat="43.0789576088495" lon="13.010584337443127"><ele>713.0</ele><time>2026-04-18T15:19:16Z</time></trkpt><trkpt lat="43.07889979721458" lon="13.010538222611098"><ele>713.0</ele><time>2026-04-18T15:19:17Z</time></trkpt><trkpt lat="43.078835272162635" lon="13.010490830078076"><ele>709.8</ele><time>2026-04-18T15:19:18Z</time></trkpt><trkpt lat="43.07877474050179" lon="13.010437600600076"><ele>706.5999999999999</ele><time>2026-04-18T15:19:19Z</time></trkpt><trkpt lat="43.07867357525979" lon="13.010354669519288"><ele>703.4000000000001</ele><time>2026-04-18T15:19:21Z</time></trkpt><trkpt lat="43.07858762047998" lon="13.01029259988011"><ele>700.2</ele><time>2026-04-18T15:19:23Z</time></trkpt><trkpt lat="43.07850545314942" lon="13.01017035437562"><ele>697.0</ele><time>2026-04-18T15:19:25Z</time></trkpt><trkpt lat="43.07847033425402" lon="13.010096921116562"><ele>697.0</ele><time>2026-04-18T15:19:26Z</time></trkpt><trkpt lat="43.07843184202036" lon="13.010025863224314"><ele>697.0</ele><time>2026-04-18T15:19:26.999Z</time></trkpt><trkpt lat="43.078381321468626" lon="13.009956268026745"><ele>697.0</ele><time>2026-04-18T15:19:27.999Z</time></trkpt><trkpt lat="43.07830618846642" lon="13.009849363969234"><ele>697.0</ele><time>2026-04-18T15:19:29.999Z</time></trkpt><trkpt lat="43.07826354813748" lon="13.00977639844072"><ele>697.0</ele><time>2026-04-18T15:19:30.999Z</time></trkpt><trkpt lat="43.078209381944895" lon="13.009707784952676"><ele>697.0</ele><time>2026-04-18T15:19:31.999Z</time></trkpt><trkpt lat="43.0781604009852" lon="13.009634722764469"><ele>693.2</ele><time>2026-04-18T15:19:32.999Z</time></trkpt><trkpt lat="43.078119956239" lon="13.009484800909602"><ele>689.4000000000001</ele><time>2026-04-18T15:19:34.999Z</time></trkpt><trkpt lat="43.078047373184766" lon="13.009408319584223"><ele>685.5999999999999</ele><time>2026-04-18T15:19:36.999Z</time></trkpt><trkpt lat="43.07799332054676" lon="13.009300576486975"><ele>681.8</ele><time>2026-04-18T15:19:38.999Z</time></trkpt><trkpt lat="43.07790648788303" lon="13.009186555400392"><ele>678.0</ele><time>2026-04-18T15:19:40.999Z</time></trkpt><trkpt lat="43.077855079550304" lon="13.009134435561391"><ele>675.0</ele><time>2026-04-18T15:19:41.999Z</time></trkpt><trkpt lat="43.077757874859884" lon="13.009043972760905"><ele>672.0</ele><time>2026-04-18T15:19:43.999Z</time></trkpt><trkpt lat="43.07776829838727" lon="13.008844761330124"><ele>669.0</ele><time>2026-04-18T15:19:45.999Z</time></trkpt><trkpt lat="43.077739733423364" lon="13.008722988593336"><ele>666.0</ele><time>2026-04-18T15:19:46.999Z</time></trkpt><trkpt lat="43.07767396898613" lon="13.008609639244828"><ele>666.0</ele><time>2026-04-18T15:19:47.999Z</time></trkpt><trkpt lat="43.07762155074771" lon="13.008503866437184"><ele>666.0</ele><time>2026-04-18T15:19:48.999Z</time></trkpt><trkpt lat="43.07756967347913" lon="13.008448667037625"><ele>666.0</ele><time>2026-04-18T15:19:50.999Z</time></trkpt><trkpt lat="43.07749207485261" lon="13.008316492813407"><ele>666.0</ele><time>2026-04-18T15:19:52.999Z</time></trkpt><trkpt lat="43.077436500977605" lon="13.00824141688441"><ele>666.0</ele><time>2026-04-18T15:19:53.999Z</time></trkpt><trkpt lat="43.077367109469414" lon="13.008171460147516"><ele>666.0</ele><time>2026-04-18T15:19:54.999Z</time></trkpt><trkpt lat="43.07732054408945" lon="13.008088374886714"><ele>662.8</ele><time>2026-04-18T15:19:55.999Z</time></trkpt><trkpt lat="43.07729119367439" lon="13.007991286250174"><ele>659.5999999999999</ele><time>2026-04-18T15:19:56.999Z</time></trkpt><trkpt lat="43.07722733412449" lon="13.007872379875762"><ele>656.4</ele><time>2026-04-18T15:19:58.999Z</time></trkpt><trkpt lat="43.077223218122235" lon="13.007729507612645"><ele>653.2</ele><time>2026-04-18T15:20:00.999Z</time></trkpt><trkpt lat="43.07720394396103" lon="13.007636948399638"><ele>650.0</ele><time>2026-04-18T15:20:02.999Z</time></trkpt><trkpt lat="43.07713350638073" lon="13.007512676212052"><ele>646.4</ele><time>2026-04-18T15:20:04.999Z</time></trkpt><trkpt lat="43.07709432870494" lon="13.007394635224808"><ele>642.8</ele><time>2026-04-18T15:20:06.999Z</time></trkpt><trkpt lat="43.07705603240529" lon="13.00726145192298"><ele>639.2</ele><time>2026-04-18T15:20:09Z</time></trkpt><trkpt lat="43.077017664019706" lon="13.007122803074488"><ele>635.6</ele><time>2026-04-18T15:20:11Z</time></trkpt><trkpt lat="43.07700364831036" lon="13.00703314250895"><ele>632.0</ele><time>2026-04-18T15:20:13Z</time></trkpt><trkpt lat="43.07695855706731" lon="13.006931740024141"><ele>632.0</ele><time>2026-04-18T15:20:15Z</time></trkpt><trkpt lat="43.07692415104089" lon="13.00681660011259"><ele>632.0</ele><time>2026-04-18T15:20:18Z</time></trkpt><trkpt lat="43.07688809435051" lon="13.00669093554016"><ele>632.0</ele><time>2026-04-18T15:20:20Z</time></trkpt><trkpt lat="43.07683812658338" lon="13.00661833480442"><ele>632.0</ele><time>2026-04-18T15:20:22Z</time></trkpt><trkpt lat="43.07679249675537" lon="13.006504269424989"><ele>632.0</ele><time>2026-04-18T15:20:24Z</time></trkpt><trkpt lat="43.07674988464521" lon="13.006414612915146"><ele>632.0</ele><time>2026-04-18T15:20:26Z</time></trkpt><trkpt lat="43.07669442824073" lon="13.006333560530694"><ele>628.1666666666666</ele><time>2026-04-18T15:20:28Z</time></trkpt><trkpt lat="43.07664195032771" lon="13.006260217700747"><ele>624.3333333333333</ele><time>2026-04-18T15:20:30Z</time></trkpt><trkpt lat="43.07658751169862" lon="13.006188512474987"><ele>620.5</ele><time>2026-04-18T15:20:32Z</time></trkpt><trkpt lat="43.07654034699641" lon="13.006098199775478"><ele>616.6666666666666</ele><time>2026-04-18T15:20:35Z</time></trkpt><trkpt lat="43.076500125493034" lon="13.006006388368016"><ele>612.8333333333334</ele><time>2026-04-18T15:20:38Z</time></trkpt><trkpt lat="43.07643386302563" lon="13.005954443078275"><ele>609.0</ele><time>2026-04-18T15:20:41Z</time></trkpt><trkpt lat="43.07636184689564" lon="13.005863000163208"><ele>603.7142857142857</ele><time>2026-04-18T15:20:44Z</time></trkpt><trkpt lat="43.07630914278357" lon="13.005799586599705"><ele>598.4285714285714</ele><time>2026-04-18T15:20:46Z</time></trkpt><trkpt lat="43.07623478542035" lon="13.005776044899662"><ele>593.1428571428571</ele><time>2026-04-18T15:20:49Z</time></trkpt><trkpt lat="43.07618679603781" lon="13.005702126761632"><ele>587.8571428571429</ele><time>2026-04-18T15:20:52Z</time></trkpt><trkpt lat="43.07614991519656" lon="13.005612667967393"><ele>582.5714285714286</ele><time>2026-04-18T15:20:55Z</time></trkpt><trkpt lat="43.07613667046848" lon="13.005513464921961"><ele>577.2857142857142</ele><time>2026-04-18T15:20:58Z</time></trkpt><trkpt lat="43.07608757285922" lon="13.00545732465025"><ele>572.0</ele><time>2026-04-18T15:21:00Z</time></trkpt><trkpt lat="43.07602271206576" lon="13.005412354377139"><ele>572.0</ele><time>2026-04-18T15:21:03Z</time></trkpt><trkpt lat="43.0759531613271" lon="13.005396964783138"><ele>572.0</ele><time>2026-04-18T15:21:06Z</time></trkpt><trkpt lat="43.07592884256085" lon="13.00529820684746"><ele>572.0</ele><time>2026-04-18T15:21:09Z</time></trkpt><trkpt lat="43.07589892817675" lon="13.005202763650198"><ele>572.0</ele><time>2026-04-18T15:21:17Z</time></trkpt><trkpt lat="43.0758504026267" lon="13.005101994343727"><ele>572.0</ele><time>2026-04-18T15:21:20Z</time></trkpt><trkpt lat="43.0758409850603" lon="13.005009691769185"><ele>572.0</ele><time>2026-04-18T15:21:22Z</time></trkpt><trkpt lat="43.07577783410246" lon="13.004933854791755"><ele>569.3333333333333</ele><time>2026-04-18T15:21:24Z</time></trkpt><trkpt lat="43.07577837207355" lon="13.004828730084505"><ele>566.6666666666666</ele><time>2026-04-18T15:21:26Z</time></trkpt><trkpt lat="43.07579807757076" lon="13.004737486542146"><ele>564.0</ele><time>2026-04-18T15:21:28Z</time></trkpt><trkpt lat="43.07586931400468" lon="13.004674730375315"><ele>561.3333333333334</ele><time>2026-04-18T15:21:33Z</time></trkpt><trkpt lat="43.07587683267211" lon="13.004588985357701"><ele>558.6666666666667</ele><time>2026-04-18T15:21:34.999Z</time></trkpt><trkpt lat="43.07584373290301" lon="13.004483483378646"><ele>556.0</ele><time>2026-04-18T15:21:36.999Z</time></trkpt><trkpt lat="43.07581710099126" lon="13.004371463525151"><ele>556.0</ele><time>2026-04-18T15:21:38.999Z</time></trkpt><trkpt lat="43.075772698468455" lon="13.004294198274186"><ele>556.0</ele><time>2026-04-18T15:21:41.999Z</time></trkpt><trkpt lat="43.075690937265946" lon="13.004255634462918"><ele>556.0</ele><time>2026-04-18T15:21:46.999Z</time></trkpt><trkpt lat="43.07562006537555" lon="13.004211134096348"><ele>556.0</ele><time>2026-04-18T15:21:49.999Z</time></trkpt><trkpt lat="43.07555926090055" lon="13.00414440038012"><ele>556.0</ele><time>2026-04-18T15:21:52.999Z</time></trkpt><trkpt lat="43.075480239593205" lon="13.004151879418677"><ele>556.0</ele><time>2026-04-18T15:21:55.999Z</time></trkpt><trkpt lat="43.07541303116974" lon="13.00417641294963"><ele>553.5</ele><time>2026-04-18T15:21:57.999Z</time></trkpt><trkpt lat="43.07535006631409" lon="13.0042703498388"><ele>551.0</ele><time>2026-04-18T15:21:59.999Z</time></trkpt><trkpt lat="43.07530954239494" lon="13.004348676688668"><ele>548.5</ele><time>2026-04-18T15:22:01.999Z</time></trkpt><trkpt lat="43.075258283975664" lon="13.004410924595113"><ele>546.0</ele><time>2026-04-18T15:22:03.999Z</time></trkpt><trkpt lat="43.07519724049162" lon="13.00450869336947"><ele>543.5</ele><time>2026-04-18T15:22:06.999Z</time></trkpt><trkpt lat="43.07517275462366" lon="13.0046409727255"><ele>541.0</ele><time>2026-04-18T15:22:08.999Z</time></trkpt><trkpt lat="43.07508664542404" lon="13.004713890633694"><ele>541.0</ele><time>2026-04-18T15:22:11.999Z</time></trkpt><trkpt lat="43.07508169136888" lon="13.004806778172252"><ele>541.0</ele><time>2026-04-18T15:22:14Z</time></trkpt><trkpt lat="43.07504527085915" lon="13.004888120671403"><ele>541.0</ele><time>2026-04-18T15:22:16Z</time></trkpt><trkpt lat="43.07499669948727" lon="13.004998037481837"><ele>541.0</ele><time>2026-04-18T15:22:18Z</time></trkpt><trkpt lat="43.0749551472325" lon="13.005153619117499"><ele>541.0</ele><time>2026-04-18T15:22:20Z</time></trkpt><trkpt lat="43.074925901312874" lon="13.005256489592782"><ele>541.0</ele><time>2026-04-18T15:22:21Z</time></trkpt><trkpt lat="43.07488360120601" lon="13.005367234939358"><ele>540.0</ele><time>2026-04-18T15:22:22Z</time></trkpt><trkpt lat="43.07483252660515" lon="13.005450798120584"><ele>539.0</ele><time>2026-04-18T15:22:23Z</time></trkpt><trkpt lat="43.0747641538117" lon="13.005531530201162"><ele>538.0</ele><time>2026-04-18T15:22:24Z</time></trkpt><trkpt lat="43.07469952803492" lon="13.005611041997263"><ele>537.0</ele><time>2026-04-18T15:22:25Z</time></trkpt><trkpt lat="43.07463557187542" lon="13.005663044421919"><ele>536.0</ele><time>2026-04-18T15:22:26Z</time></trkpt><trkpt lat="43.074573177704345" lon="13.0056934341717"><ele>535.0</ele><time>2026-04-18T15:22:27Z</time></trkpt><trkpt lat="43.07451979979337" lon="13.005743764413847"><ele>534.8333333333334</ele><time>2026-04-18T15:22:28Z</time></trkpt><trkpt lat="43.07446229344026" lon="13.005838737226068"><ele>534.6666666666667</ele><time>2026-04-18T15:22:30Z</time></trkpt><trkpt lat="43.07444024092291" lon="13.005922277933745"><ele>534.5</ele><time>2026-04-18T15:22:31Z</time></trkpt><trkpt lat="43.07443972295421" lon="13.006009686448346"><ele>534.3333333333334</ele><time>2026-04-18T15:22:32Z</time></trkpt><trkpt lat="43.07444392468785" lon="13.006113707577557"><ele>534.1666666666666</ele><time>2026-04-18T15:22:33Z</time></trkpt><trkpt lat="43.074409737347914" lon="13.006223928307348"><ele>534.0</ele><time>2026-04-18T15:22:34Z</time></trkpt><trkpt lat="43.074358748372845" lon="13.006306712940313"><ele>534.0</ele><time>2026-04-18T15:22:35Z</time></trkpt><trkpt lat="43.07429851254482" lon="13.006432652451181"><ele>534.0</ele><time>2026-04-18T15:22:36Z</time></trkpt><trkpt lat="43.074236283533516" lon="13.006566794171071"><ele>534.0</ele><time>2026-04-18T15:22:37Z</time></trkpt><trkpt lat="43.07417610174873" lon="13.006704694483128"><ele>534.0</ele><time>2026-04-18T15:22:38Z</time></trkpt><trkpt lat="43.07412289020989" lon="13.006815439479219"><ele>534.0</ele><time>2026-04-18T15:22:39Z</time></trkpt><trkpt lat="43.07406838382241" lon="13.00690983657538"><ele>534.0</ele><time>2026-04-18T15:22:40Z</time></trkpt><trkpt lat="43.07400702351599" lon="13.006977814634011"><ele>534.0</ele><time>2026-04-18T15:22:41Z</time></trkpt><trkpt lat="43.07396010905506" lon="13.00704120371526"><ele>534.0</ele><time>2026-04-18T15:22:42Z</time></trkpt><trkpt lat="43.07390557896265" lon="13.007129874444283"><ele>534.0</ele><time>2026-04-18T15:22:43Z</time></trkpt><trkpt lat="43.07385827448508" lon="13.0072025575968"><ele>534.0</ele><time>2026-04-18T15:22:44Z</time></trkpt><trkpt lat="43.073809200084256" lon="13.007303944230769"><ele>534.0</ele><time>2026-04-18T15:22:45Z</time></trkpt><trkpt lat="43.07378866964248" lon="13.007422492001313"><ele>533.6</ele><time>2026-04-18T15:22:46Z</time></trkpt><trkpt lat="43.073769627918985" lon="13.007571423004554"><ele>533.2</ele><time>2026-04-18T15:22:47Z</time></trkpt><trkpt lat="43.07377116454339" lon="13.007692069459779"><ele>532.8000000000001</ele><time>2026-04-18T15:22:48Z</time></trkpt><trkpt lat="43.07373948506653" lon="13.00782818108358"><ele>532.4</ele><time>2026-04-18T15:22:49Z</time></trkpt><trkpt lat="43.07367518518331" lon="13.007934084197016"><ele>532.0</ele><time>2026-04-18T15:22:50Z</time></trkpt><trkpt lat="43.07363178825294" lon="13.008041755380768"><ele>532.0</ele><time>2026-04-18T15:22:51Z</time></trkpt><trkpt lat="43.073611481924445" lon="13.008126925157693"><ele>532.0</ele><time>2026-04-18T15:22:52Z</time></trkpt><trkpt lat="43.07356306818483" lon="13.008270492601536"><ele>532.0</ele><time>2026-04-18T15:22:54Z</time></trkpt><trkpt lat="43.073516165473706" lon="13.008342907109496"><ele>532.0</ele><time>2026-04-18T15:22:55Z</time></trkpt><trkpt lat="43.073433809661566" lon="13.008385382850602"><ele>532.0</ele><time>2026-04-18T15:22:57Z</time></trkpt><trkpt lat="43.07335197727034" lon="13.008483541830602"><ele>532.0</ele><time>2026-04-18T15:22:59Z</time></trkpt><trkpt lat="43.07329420515997" lon="13.008610889880263"><ele>532.0</ele><time>2026-04-18T15:23:00Z</time></trkpt><trkpt lat="43.073230843306256" lon="13.008663943575797"><ele>532.0</ele><time>2026-04-18T15:23:01Z</time></trkpt><trkpt lat="43.07314291661938" lon="13.00866048925968"><ele>532.0</ele><time>2026-04-18T15:23:02Z</time></trkpt><trkpt lat="43.07304630407611" lon="13.008676927877774"><ele>532.0</ele><time>2026-04-18T15:23:03Z</time></trkpt><trkpt lat="43.07292074965879" lon="13.008775127366164"><ele>532.0</ele><time>2026-04-18T15:23:05Z</time></trkpt><trkpt lat="43.07287179118084" lon="13.008865195121013"><ele>532.0</ele><time>2026-04-18T15:23:06Z</time></trkpt><trkpt lat="43.07282602823571" lon="13.008992228710852"><ele>532.0</ele><time>2026-04-18T15:23:07Z</time></trkpt><trkpt lat="43.07276880638029" lon="13.009089437665056"><ele>532.0</ele><time>2026-04-18T15:23:08Z</time></trkpt><trkpt lat="43.07275304506637" lon="13.0092069556051"><ele>532.0</ele><time>2026-04-18T15:23:10Z</time></trkpt><trkpt lat="43.072761595146545" lon="13.009366979497116"><ele>532.0</ele><time>2026-04-18T15:23:12Z</time></trkpt><trkpt lat="43.072694990014234" lon="13.009489324784278"><ele>531.8000000000001</ele><time>2026-04-18T15:23:13Z</time></trkpt><trkpt lat="43.07262817867826" lon="13.00961431157561"><ele>531.6</ele><time>2026-04-18T15:23:14Z</time></trkpt><trkpt lat="43.072575125430994" lon="13.009771436726242"><ele>531.4000000000001</ele><time>2026-04-18T15:23:15Z</time></trkpt><trkpt lat="43.07253096684188" lon="13.009867125134933"><ele>531.2</ele><time>2026-04-18T15:23:16Z</time></trkpt><trkpt lat="43.07249818732633" lon="13.009965245626187"><ele>531.0</ele><time>2026-04-18T15:23:17Z</time></trkpt><trkpt lat="43.07244341832355" lon="13.010025617766228"><ele>531.25</ele><time>2026-04-18T15:23:18Z</time></trkpt><trkpt lat="43.072385643286374" lon="13.010093197403567"><ele>531.5</ele><time>2026-04-18T15:23:19Z</time></trkpt><trkpt lat="43.072323709341546" lon="13.01020457990625"><ele>531.75</ele><time>2026-04-18T15:23:20Z</time></trkpt><trkpt lat="43.07225499223632" lon="13.010366079591371"><ele>532.0</ele><time>2026-04-18T15:23:21Z</time></trkpt><trkpt lat="43.072172264118265" lon="13.010527877336614"><ele>532.0</ele><time>2026-04-18T15:23:22Z</time></trkpt><trkpt lat="43.072094936330515" lon="13.010643491475701"><ele>532.0</ele><time>2026-04-18T15:23:23Z</time></trkpt><trkpt lat="43.071976114567164" lon="13.010736344770288"><ele>532.0</ele><time>2026-04-18T15:23:24Z</time></trkpt><trkpt lat="43.071890786478406" lon="13.010827911214802"><ele>532.0</ele><time>2026-04-18T15:23:25Z</time></trkpt><trkpt lat="43.0718551376253" lon="13.010974517626533"><ele>531.4</ele><time>2026-04-18T15:23:27Z</time></trkpt><trkpt lat="43.07179487603549" lon="13.011054021517854"><ele>530.8000000000001</ele><time>2026-04-18T15:23:28Z</time></trkpt><trkpt lat="43.071714423066766" lon="13.011151098798024"><ele>530.2</ele><time>2026-04-18T15:23:29Z</time></trkpt><trkpt lat="43.071633763280026" lon="13.011275689395298"><ele>529.6</ele><time>2026-04-18T15:23:30Z</time></trkpt><trkpt lat="43.07157214053187" lon="13.01142179834865"><ele>529.0</ele><time>2026-04-18T15:23:31Z</time></trkpt><trkpt lat="43.07148741116457" lon="13.011571786511972"><ele>526.75</ele><time>2026-04-18T15:23:32Z</time></trkpt><trkpt lat="43.07138884819767" lon="13.01170144714883"><ele>524.5</ele><time>2026-04-18T15:23:33Z</time></trkpt><trkpt lat="43.071309610380965" lon="13.011817199742476"><ele>522.25</ele><time>2026-04-18T15:23:34Z</time></trkpt><trkpt lat="43.071258374885524" lon="13.01193924545524"><ele>520.0</ele><time>2026-04-18T15:23:35Z</time></trkpt><trkpt lat="43.0711916104254" lon="13.012049927632663"><ele>520.0</ele><time>2026-04-18T15:23:36Z</time></trkpt><trkpt lat="43.071099475251984" lon="13.012163949038127"><ele>520.0</ele><time>2026-04-18T15:23:37Z</time></trkpt><trkpt lat="43.07099029297143" lon="13.012275489721661"><ele>520.0</ele><time>2026-04-18T15:23:38Z</time></trkpt><trkpt lat="43.07091049785673" lon="13.012395658667359"><ele>520.0</ele><time>2026-04-18T15:23:39Z</time></trkpt><trkpt lat="43.070842866417024" lon="13.012477831795481"><ele>520.1666666666667</ele><time>2026-04-18T15:23:40Z</time></trkpt><trkpt lat="43.07076776348996" lon="13.012512130482039"><ele>520.3333333333334</ele><time>2026-04-18T15:23:41Z</time></trkpt><trkpt lat="43.070686090186534" lon="13.012533238049388"><ele>520.5</ele><time>2026-04-18T15:23:42Z</time></trkpt><trkpt lat="43.07060992569942" lon="13.01255196359207"><ele>520.6666666666666</ele><time>2026-04-18T15:23:43Z</time></trkpt><trkpt lat="43.07052816225255" lon="13.01260241637241"><ele>520.8333333333333</ele><time>2026-04-18T15:23:44Z</time></trkpt><trkpt lat="43.07042372655136" lon="13.012683591482414"><ele>521.0</ele><time>2026-04-18T15:23:45Z</time></trkpt><trkpt lat="43.070339182222995" lon="13.012768561276319"><ele>521.0</ele><time>2026-04-18T15:23:46Z</time></trkpt><trkpt lat="43.07027986857895" lon="13.012835604568489"><ele>521.0</ele><time>2026-04-18T15:23:47Z</time></trkpt><trkpt lat="43.070193544639395" lon="13.012914585482037"><ele>521.0</ele><time>2026-04-18T15:23:47.999Z</time></trkpt><trkpt lat="43.07011241489699" lon="13.012994501261527"><ele>521.0</ele><time>2026-04-18T15:23:48.999Z</time></trkpt><trkpt lat="43.07003904533903" lon="13.01307360138134"><ele>521.0</ele><time>2026-04-18T15:23:49.999Z</time></trkpt><trkpt lat="43.06998285815587" lon="13.01319830222774"><ele>521.0</ele><time>2026-04-18T15:23:51.999Z</time></trkpt><trkpt lat="43.06997993298851" lon="13.013316227026673"><ele>521.0</ele><time>2026-04-18T15:23:53.999Z</time></trkpt><trkpt lat="43.070021540991775" lon="13.013450537245669"><ele>521.0</ele><time>2026-04-18T15:23:55.999Z</time></trkpt><trkpt lat="43.07006626500941" lon="13.013512353377713"><ele>521.0</ele><time>2026-04-18T15:23:56.999Z</time></trkpt><trkpt lat="43.070136239309896" lon="13.013588360222471"><ele>521.0</ele><time>2026-04-18T15:23:57.999Z</time></trkpt><trkpt lat="43.07022700140652" lon="13.01368007061733"><ele>521.25</ele><time>2026-04-18T15:23:58.999Z</time></trkpt><trkpt lat="43.07032550651708" lon="13.013782276272877"><ele>521.5</ele><time>2026-04-18T15:23:59.999Z</time></trkpt><trkpt lat="43.070436125989396" lon="13.013893705812759"><ele>521.75</ele><time>2026-04-18T15:24:00.999Z</time></trkpt><trkpt lat="43.070544107502336" lon="13.013982552933568"><ele>522.0</ele><time>2026-04-18T15:24:01.999Z</time></trkpt><trkpt lat="43.070643946983346" lon="13.014072338490692"><ele>522.0</ele><time>2026-04-18T15:24:02.999Z</time></trkpt><trkpt lat="43.0707130615994" lon="13.014145085796262"><ele>522.0</ele><time>2026-04-18T15:24:03.999Z</time></trkpt><trkpt lat="43.070795764708926" lon="13.01422158631816"><ele>522.0</ele><time>2026-04-18T15:24:04.999Z</time></trkpt><trkpt lat="43.07086906943943" lon="13.014280707906519"><ele>522.0</ele><time>2026-04-18T15:24:05.999Z</time></trkpt><trkpt lat="43.070948014241424" lon="13.014346702326062"><ele>522.0</ele><time>2026-04-18T15:24:06.999Z</time></trkpt><trkpt lat="43.07100563393081" lon="13.014435300991384"><ele>523.5</ele><time>2026-04-18T15:24:07.999Z</time></trkpt><trkpt lat="43.07105795842733" lon="13.014528880772582"><ele>525.0</ele><time>2026-04-18T15:24:08.999Z</time></trkpt><trkpt lat="43.071114316267014" lon="13.01462642762372"><ele>526.5</ele><time>2026-04-18T15:24:09.999Z</time></trkpt><trkpt lat="43.071154414261485" lon="13.014712488942592"><ele>528.0</ele><time>2026-04-18T15:24:10.999Z</time></trkpt><trkpt lat="43.07119999183428" lon="13.014806208311594"><ele>529.5</ele><time>2026-04-18T15:24:11.999Z</time></trkpt><trkpt lat="43.07123606479067" lon="13.014915389657387"><ele>531.0</ele><time>2026-04-18T15:24:12.999Z</time></trkpt><trkpt lat="43.07126976885408" lon="13.015026375277579"><ele>531.0</ele><time>2026-04-18T15:24:13.999Z</time></trkpt><trkpt lat="43.07129961571812" lon="13.015103076901887"><ele>531.0</ele><time>2026-04-18T15:24:14.999Z</time></trkpt><trkpt lat="43.071355265249615" lon="13.015234030701402"><ele>531.0</ele><time>2026-04-18T15:24:16.999Z</time></trkpt><trkpt lat="43.07140186350055" lon="13.015388081215933"><ele>531.0</ele><time>2026-04-18T15:24:18.999Z</time></trkpt><trkpt lat="43.07144306402539" lon="13.015554140147954"><ele>531.0</ele><time>2026-04-18T15:24:21.001Z</time></trkpt><trkpt lat="43.071484062047425" lon="13.015698450747312"><ele>531.0</ele><time>2026-04-18T15:24:23.001Z</time></trkpt><trkpt lat="43.07153896288083" lon="13.015772010073336"><ele>531.0</ele><time>2026-04-18T15:24:24.001Z</time></trkpt><trkpt lat="43.07162413499137" lon="13.015849324966718"><ele>531.0</ele><time>2026-04-18T15:24:25.001Z</time></trkpt><trkpt lat="43.07171013510281" lon="13.015936381827151"><ele>531.0</ele><time>2026-04-18T15:24:26.001Z</time></trkpt><trkpt lat="43.07178413764201" lon="13.016070202801458"><ele>531.0</ele><time>2026-04-18T15:24:27.001Z</time></trkpt><trkpt lat="43.07183278873517" lon="13.016207648690306"><ele>535.2</ele><time>2026-04-18T15:24:28Z</time></trkpt><trkpt lat="43.07188310656936" lon="13.016329290632578"><ele>539.4000000000001</ele><time>2026-04-18T15:24:29Z</time></trkpt><trkpt lat="43.07194091232903" lon="13.01642702546406"><ele>543.6</ele><time>2026-04-18T15:24:30Z</time></trkpt><trkpt lat="43.07201122091877" lon="13.016517491115978"><ele>547.8000000000001</ele><time>2026-04-18T15:24:31Z</time></trkpt><trkpt lat="43.07207459832528" lon="13.016589787943452"><ele>552.0</ele><time>2026-04-18T15:24:32Z</time></trkpt><trkpt lat="43.07214656553314" lon="13.016662718977223"><ele>552.0</ele><time>2026-04-18T15:24:33Z</time></trkpt><trkpt lat="43.07219763609134" lon="13.016744973557957"><ele>552.0</ele><time>2026-04-18T15:24:34Z</time></trkpt><trkpt lat="43.072254915179016" lon="13.0168328207925"><ele>552.0</ele><time>2026-04-18T15:24:35Z</time></trkpt><trkpt lat="43.07230750981519" lon="13.016920250722752"><ele>552.0</ele><time>2026-04-18T15:24:36Z</time></trkpt><trkpt lat="43.07236220337026" lon="13.017010780615877"><ele>552.0</ele><time>2026-04-18T15:24:37Z</time></trkpt><trkpt lat="43.072420739120446" lon="13.01709834056947"><ele>552.0</ele><time>2026-04-18T15:24:38Z</time></trkpt><trkpt lat="43.072475558644555" lon="13.017172950465921"><ele>555.8333333333334</ele><time>2026-04-18T15:24:39Z</time></trkpt><trkpt lat="43.072541008544576" lon="13.017252944819733"><ele>559.6666666666666</ele><time>2026-04-18T15:24:40Z</time></trkpt><trkpt lat="43.07259556067493" lon="13.01731179900279"><ele>563.5</ele><time>2026-04-18T15:24:41Z</time></trkpt><trkpt lat="43.072650074724" lon="13.017378315767871"><ele>567.3333333333333</ele><time>2026-04-18T15:24:42Z</time></trkpt><trkpt lat="43.07270977577129" lon="13.017445386186807"><ele>571.1666666666666</ele><time>2026-04-18T15:24:43Z</time></trkpt><trkpt lat="43.07276891425583" lon="13.017514093212077"><ele>575.0</ele><time>2026-04-18T15:24:44Z</time></trkpt><trkpt lat="43.072826707261854" lon="13.017588754477506"><ele>575.0</ele><time>2026-04-18T15:24:45Z</time></trkpt><trkpt lat="43.07289096868689" lon="13.017663938839066"><ele>575.0</ele><time>2026-04-18T15:24:46Z</time></trkpt><trkpt lat="43.07296714742514" lon="13.017756672125076"><ele>575.0</ele><time>2026-04-18T15:24:47Z</time></trkpt><trkpt lat="43.073055733713446" lon="13.017859055723768"><ele>575.0</ele><time>2026-04-18T15:24:48Z</time></trkpt><trkpt lat="43.07315409455768" lon="13.017964361241047"><ele>575.0</ele><time>2026-04-18T15:24:49Z</time></trkpt><trkpt lat="43.07323191991424" lon="13.018056038524117"><ele>578.5</ele><time>2026-04-18T15:24:50Z</time></trkpt><trkpt lat="43.07330703355713" lon="13.018145172200024"><ele>582.0</ele><time>2026-04-18T15:24:51Z</time></trkpt><trkpt lat="43.07337553200844" lon="13.01821047678854"><ele>585.5</ele><time>2026-04-18T15:24:52Z</time></trkpt><trkpt lat="43.073447079787144" lon="13.018279095558162"><ele>589.0</ele><time>2026-04-18T15:24:53Z</time></trkpt><trkpt lat="43.07351275332631" lon="13.018336401149783"><ele>592.5</ele><time>2026-04-18T15:24:54Z</time></trkpt><trkpt lat="43.07355892997823" lon="13.018439549791825"><ele>596.0</ele><time>2026-04-18T15:24:55Z</time></trkpt><trkpt lat="43.07358731554321" lon="13.018535199303802"><ele>596.0</ele><time>2026-04-18T15:24:56Z</time></trkpt><trkpt lat="43.07363340516038" lon="13.018631700337979"><ele>596.0</ele><time>2026-04-18T15:24:57Z</time></trkpt><trkpt lat="43.0736829075725" lon="13.018696842061923"><ele>596.0</ele><time>2026-04-18T15:24:58Z</time></trkpt><trkpt lat="43.073736870880715" lon="13.018750512569806"><ele>596.0</ele><time>2026-04-18T15:24:59Z</time></trkpt><trkpt lat="43.07381171077492" lon="13.018814281929243"><ele>596.0</ele><time>2026-04-18T15:25:01Z</time></trkpt><trkpt lat="43.07391063281154" lon="13.018883990154032"><ele>596.0</ele><time>2026-04-18T15:25:03Z</time></trkpt><trkpt lat="43.07397574391521" lon="13.018973943755974"><ele>596.0</ele><time>2026-04-18T15:25:05Z</time></trkpt><trkpt lat="43.07398553888597" lon="13.019109804421984"><ele>596.0</ele><time>2026-04-18T15:25:08Z</time></trkpt><trkpt lat="43.0740421767737" lon="13.019259158988039"><ele>596.0</ele><time>2026-04-18T15:25:10Z</time></trkpt><trkpt lat="43.07409652614081" lon="13.019394939613196"><ele>596.0</ele><time>2026-04-18T15:25:11Z</time></trkpt><trkpt lat="43.07413559319562" lon="13.01951289692269"><ele>596.0</ele><time>2026-04-18T15:25:12Z</time></trkpt><trkpt lat="43.07416761172079" lon="13.01962328472694"><ele>596.0</ele><time>2026-04-18T15:25:13Z</time></trkpt><trkpt lat="43.07419677852028" lon="13.01970868295152"><ele>596.0</ele><time>2026-04-18T15:25:14Z</time></trkpt><trkpt lat="43.074238544215554" lon="13.019812335383476"><ele>596.0</ele><time>2026-04-18T15:25:15Z</time></trkpt><trkpt lat="43.074272385561144" lon="13.019930351090073"><ele>596.0</ele><time>2026-04-18T15:25:16Z</time></trkpt><trkpt lat="43.074299140221235" lon="13.020039696725467"><ele>596.0</ele><time>2026-04-18T15:25:17Z</time></trkpt><trkpt lat="43.0743327457507" lon="13.020143147431323"><ele>596.0</ele><time>2026-04-18T15:25:18Z</time></trkpt><trkpt lat="43.07437380517861" lon="13.020230626408507"><ele>596.0</ele><time>2026-04-18T15:25:19Z</time></trkpt><trkpt lat="43.07441065271911" lon="13.020343457200866"><ele>596.0</ele><time>2026-04-18T15:25:20Z</time></trkpt><trkpt lat="43.074437703999294" lon="13.020445142976609"><ele>596.0</ele><time>2026-04-18T15:25:21Z</time></trkpt><trkpt lat="43.07447925168651" lon="13.020540171465742"><ele>596.0</ele><time>2026-04-18T15:25:22Z</time></trkpt><trkpt lat="43.07453136083292" lon="13.020625896449939"><ele>596.0</ele><time>2026-04-18T15:25:23Z</time></trkpt><trkpt lat="43.07458968316922" lon="13.020751951632048"><ele>596.0</ele><time>2026-04-18T15:25:24Z</time></trkpt><trkpt lat="43.07465767741462" lon="13.02086492073468"><ele>597.3333333333333</ele><time>2026-04-18T15:25:25Z</time></trkpt><trkpt lat="43.074702497956224" lon="13.020977667586862"><ele>598.6666666666666</ele><time>2026-04-18T15:25:26Z</time></trkpt><trkpt lat="43.074766481529494" lon="13.02108340738243"><ele>600.0</ele><time>2026-04-18T15:25:27Z</time></trkpt><trkpt lat="43.07482938974102" lon="13.021166170999606"><ele>601.3333333333334</ele><time>2026-04-18T15:25:28Z</time></trkpt><trkpt lat="43.07487922940887" lon="13.021241019916367"><ele>602.6666666666667</ele><time>2026-04-18T15:25:29Z</time></trkpt><trkpt lat="43.07491704209512" lon="13.021349561324454"><ele>604.0</ele><time>2026-04-18T15:25:30Z</time></trkpt><trkpt lat="43.074983366699804" lon="13.021431350238503"><ele>604.0000000000001</ele><time>2026-04-18T15:25:31Z</time></trkpt><trkpt lat="43.07503393048751" lon="13.02152757599076"><ele>604.0</ele><time>2026-04-18T15:25:32Z</time></trkpt><trkpt lat="43.075076579788345" lon="13.021622531910959"><ele>604.0</ele><time>2026-04-18T15:25:33Z</time></trkpt><trkpt lat="43.07510945917564" lon="13.021708112883823"><ele>604.0</ele><time>2026-04-18T15:25:34Z</time></trkpt><trkpt lat="43.075129246380165" lon="13.021796413732782"><ele>604.0</ele><time>2026-04-18T15:25:36Z</time></trkpt><trkpt lat="43.07506271615936" lon="13.021790443112167"><ele>604.0000000000001</ele><time>2026-04-18T15:25:38Z</time></trkpt><trkpt lat="43.074992926088434" lon="13.021767489594046"><ele>604.0</ele><time>2026-04-18T15:25:41Z</time></trkpt><trkpt lat="43.074994959152214" lon="13.021894244580109"><ele>599.8</ele><time>2026-04-18T15:25:44Z</time></trkpt><trkpt lat="43.07498121748672" lon="13.021984332937995"><ele>595.5999999999999</ele><time>2026-04-18T15:25:46Z</time></trkpt><trkpt lat="43.07494566348114" lon="13.022098636499507"><ele>591.4</ele><time>2026-04-18T15:25:48Z</time></trkpt><trkpt lat="43.074992580837744" lon="13.022208668109105"><ele>587.1999999999999</ele><time>2026-04-18T15:25:49Z</time></trkpt><trkpt lat="43.0750449322118" lon="13.02236385351667"><ele>583.0</ele><time>2026-04-18T15:25:50Z</time></trkpt><trkpt lat="43.075067732670746" lon="13.022516429784051"><ele>579.6</ele><time>2026-04-18T15:25:51Z</time></trkpt><trkpt lat="43.075098564495896" lon="13.022668711140907"><ele>576.1999999999999</ele><time>2026-04-18T15:25:52Z</time></trkpt><trkpt lat="43.07513818227648" lon="13.022813809092373"><ele>572.8</ele><time>2026-04-18T15:25:53Z</time></trkpt><trkpt lat="43.07518887486223" lon="13.022942721703147"><ele>569.4</ele><time>2026-04-18T15:25:54Z</time></trkpt><trkpt lat="43.07524713268925" lon="13.02304241645551"><ele>566.0</ele><time>2026-04-18T15:25:55Z</time></trkpt><trkpt lat="43.075289501486395" lon="13.023125340177621"><ele>566.0</ele><time>2026-04-18T15:25:55.999Z</time></trkpt><trkpt lat="43.07531489105942" lon="13.023224577366017"><ele>566.0</ele><time>2026-04-18T15:25:56.999Z</time></trkpt><trkpt lat="43.07532640984302" lon="13.02334440592588"><ele>566.0</ele><time>2026-04-18T15:25:57.999Z</time></trkpt><trkpt lat="43.075362295164936" lon="13.023444627802373"><ele>566.0</ele><time>2026-04-18T15:25:58.999Z</time></trkpt><trkpt lat="43.07540212483314" lon="13.02352817995595"><ele>566.0</ele><time>2026-04-18T15:25:59.999Z</time></trkpt><trkpt lat="43.075459933281536" lon="13.023567890800871"><ele>566.0</ele><time>2026-04-18T15:26:00.999Z</time></trkpt><trkpt lat="43.075518287953265" lon="13.023610613816007"><ele>568.6</ele><time>2026-04-18T15:26:01.999Z</time></trkpt><trkpt lat="43.07558854676636" lon="13.023647180542847"><ele>571.2</ele><time>2026-04-18T15:26:02.999Z</time></trkpt><trkpt lat="43.075697519570866" lon="13.023675870835113"><ele>573.8</ele><time>2026-04-18T15:26:03.999Z</time></trkpt><trkpt lat="43.0758279284172" lon="13.023683154806283"><ele>576.4</ele><time>2026-04-18T15:26:04.999Z</time></trkpt><trkpt lat="43.07592807412242" lon="13.023676987454666"><ele>579.0</ele><time>2026-04-18T15:26:05.999Z</time></trkpt><trkpt lat="43.07601238733708" lon="13.023716866401777"><ele>579.0</ele><time>2026-04-18T15:26:07.999Z</time></trkpt><trkpt lat="43.07610726416619" lon="13.023840473023434"><ele>579.0</ele><time>2026-04-18T15:26:08.999Z</time></trkpt><trkpt lat="43.07618903028775" lon="13.023978293206024"><ele>579.0</ele><time>2026-04-18T15:26:09.999Z</time></trkpt><trkpt lat="43.076247048196144" lon="13.024020324842864"><ele>579.0</ele><time>2026-04-18T15:26:10.999Z</time></trkpt><trkpt lat="43.07627498006494" lon="13.024170440707065"><ele>579.0</ele><time>2026-04-18T15:26:12.999Z</time></trkpt><trkpt lat="43.07631966320122" lon="13.024327328385693"><ele>577.4</ele><time>2026-04-18T15:26:13.999Z</time></trkpt><trkpt lat="43.07637133047611" lon="13.024446259976454"><ele>575.8</ele><time>2026-04-18T15:26:14.999Z</time></trkpt><trkpt lat="43.076434373672214" lon="13.024528445510049"><ele>574.2</ele><time>2026-04-18T15:26:15.999Z</time></trkpt><trkpt lat="43.076511332695276" lon="13.024672901885442"><ele>572.6</ele><time>2026-04-18T15:26:17.999Z</time></trkpt><trkpt lat="43.07657187209749" lon="13.024759477760806"><ele>571.0</ele><time>2026-04-18T15:26:18.999Z</time></trkpt><trkpt lat="43.07660372307777" lon="13.024910661620622"><ele>565.6</ele><time>2026-04-18T15:26:19.999Z</time></trkpt><trkpt lat="43.07663135694651" lon="13.02504020422822"><ele>560.2</ele><time>2026-04-18T15:26:20.999Z</time></trkpt><trkpt lat="43.07665556745487" lon="13.025181689077145"><ele>554.8</ele><time>2026-04-18T15:26:22.999Z</time></trkpt><trkpt lat="43.076718339904346" lon="13.025243094264201"><ele>549.4</ele><time>2026-04-18T15:26:24.999Z</time></trkpt><trkpt lat="43.07678362100673" lon="13.025318452282068"><ele>544.0</ele><time>2026-04-18T15:26:26.001Z</time></trkpt><trkpt lat="43.07688411003234" lon="13.025433435603054"><ele>544.0</ele><time>2026-04-18T15:26:27.001Z</time></trkpt><trkpt lat="43.07693871329609" lon="13.02555037881557"><ele>544.0</ele><time>2026-04-18T15:26:28.001Z</time></trkpt><trkpt lat="43.07702774619939" lon="13.025659075418945"><ele>544.0</ele><time>2026-04-18T15:26:29.001Z</time></trkpt><trkpt lat="43.07712267409137" lon="13.025769313721256"><ele>544.0</ele><time>2026-04-18T15:26:30.001Z</time></trkpt><trkpt lat="43.07717998119502" lon="13.025872468630746"><ele>544.0</ele><time>2026-04-18T15:26:31.001Z</time></trkpt><trkpt lat="43.07723914920873" lon="13.025991173815921"><ele>539.1666666666667</ele><time>2026-04-18T15:26:32.001Z</time></trkpt><trkpt lat="43.07728175789732" lon="13.02609228732168"><ele>534.3333333333334</ele><time>2026-04-18T15:26:33.001Z</time></trkpt><trkpt lat="43.07733073864986" lon="13.026189879754883"><ele>529.5</ele><time>2026-04-18T15:26:34.001Z</time></trkpt><trkpt lat="43.07737358737137" lon="13.02629761090647"><ele>524.6666666666666</ele><time>2026-04-18T15:26:35.001Z</time></trkpt><trkpt lat="43.077387758741764" lon="13.026445757585895"><ele>519.8333333333333</ele><time>2026-04-18T15:26:37.001Z</time></trkpt><trkpt lat="43.07738933000058" lon="13.026552272393063"><ele>515.0</ele><time>2026-04-18T15:26:38.001Z</time></trkpt><trkpt lat="43.07736175742523" lon="13.02665178600305"><ele>512.5714285714286</ele><time>2026-04-18T15:26:39.001Z</time></trkpt><trkpt lat="43.07736064585512" lon="13.026754379458572"><ele>510.1428571428571</ele><time>2026-04-18T15:26:40.001Z</time></trkpt><trkpt lat="43.07736324080958" lon="13.026849173239505"><ele>507.71428571428567</ele><time>2026-04-18T15:26:41Z</time></trkpt><trkpt lat="43.07735678059598" lon="13.02695449178912"><ele>505.2857142857143</ele><time>2026-04-18T15:26:42Z</time></trkpt><trkpt lat="43.07737382237252" lon="13.027047834330833"><ele>502.8571428571428</ele><time>2026-04-18T15:26:43Z</time></trkpt><trkpt lat="43.07737925120746" lon="13.027158501900193"><ele>500.4285714285714</ele><time>2026-04-18T15:26:44Z</time></trkpt><trkpt lat="43.0773593643989" lon="13.027250813108699"><ele>498.0</ele><time>2026-04-18T15:26:45Z</time></trkpt><trkpt lat="43.07734187918525" lon="13.027389321498354"><ele>497.25</ele><time>2026-04-18T15:26:47Z</time></trkpt><trkpt lat="43.0773822405309" lon="13.02748049130175"><ele>496.5</ele><time>2026-04-18T15:26:48Z</time></trkpt><trkpt lat="43.077477769992385" lon="13.027617029648598"><ele>495.75</ele><time>2026-04-18T15:26:49Z</time></trkpt><trkpt lat="43.077582954379096" lon="13.027771808783788"><ele>495.0</ele><time>2026-04-18T15:26:50Z</time></trkpt><trkpt lat="43.0776553666137" lon="13.027913801643432"><ele>494.4</ele><time>2026-04-18T15:26:51Z</time></trkpt><trkpt lat="43.07771773809361" lon="13.028056020397942"><ele>493.8</ele><time>2026-04-18T15:26:52Z</time></trkpt><trkpt lat="43.07778657574274" lon="13.028155772244869"><ele>493.20000000000005</ele><time>2026-04-18T15:26:53Z</time></trkpt><trkpt lat="43.07785170947925" lon="13.028221814243524"><ele>492.6</ele><time>2026-04-18T15:26:54Z</time></trkpt><trkpt lat="43.07794669068414" lon="13.028353728513336"><ele>492.0</ele><time>2026-04-18T15:26:56Z</time></trkpt><trkpt lat="43.078020242227204" lon="13.028447158245205"><ele>492.0</ele><time>2026-04-18T15:26:57Z</time></trkpt><trkpt lat="43.078097790023584" lon="13.028521323026284"><ele>492.00000000000006</ele><time>2026-04-18T15:26:58Z</time></trkpt><trkpt lat="43.07816290736984" lon="13.028611468925108"><ele>492.00000000000006</ele><time>2026-04-18T15:26:59Z</time></trkpt><trkpt lat="43.07821269661491" lon="13.028734718730448"><ele>492.0</ele><time>2026-04-18T15:27:00Z</time></trkpt><trkpt lat="43.078258427591955" lon="13.028869101789349"><ele>492.0</ele><time>2026-04-18T15:27:01Z</time></trkpt><trkpt lat="43.0782905151696" lon="13.028943489128261"><ele>490.40000000000003</ele><time>2026-04-18T15:27:02Z</time></trkpt><trkpt lat="43.078268261575886" lon="13.029069978491474"><ele>488.80000000000007</ele><time>2026-04-18T15:27:04Z</time></trkpt><trkpt lat="43.07823715197212" lon="13.029148677876567"><ele>487.2</ele><time>2026-04-18T15:27:05Z</time></trkpt><trkpt lat="43.07819535401491" lon="13.029217659122846"><ele>485.6</ele><time>2026-04-18T15:27:06Z</time></trkpt><trkpt lat="43.07814542480697" lon="13.02938410624603"><ele>484.0</ele><time>2026-04-18T15:27:08Z</time></trkpt><trkpt lat="43.078144663326704" lon="13.029532958553505"><ele>484.0</ele><time>2026-04-18T15:27:09Z</time></trkpt><trkpt lat="43.07817372933341" lon="13.029698376672359"><ele>484.0</ele><time>2026-04-18T15:27:10Z</time></trkpt><trkpt lat="43.078183872814755" lon="13.029838110671612"><ele>484.0</ele><time>2026-04-18T15:27:11Z</time></trkpt><trkpt lat="43.078181156268585" lon="13.029941239937722"><ele>484.0</ele><time>2026-04-18T15:27:12Z</time></trkpt><trkpt lat="43.078166017570744" lon="13.030058759127737"><ele>484.0</ele><time>2026-04-18T15:27:13Z</time></trkpt><trkpt lat="43.07815451239804" lon="13.030189532815722"><ele>484.1666666666667</ele><time>2026-04-18T15:27:13.999Z</time></trkpt><trkpt lat="43.07814424456692" lon="13.030302316047942"><ele>484.33333333333337</ele><time>2026-04-18T15:27:14.999Z</time></trkpt><trkpt lat="43.07810679925835" lon="13.030433562986635"><ele>484.5</ele><time>2026-04-18T15:27:15.999Z</time></trkpt><trkpt lat="43.07806849873302" lon="13.030541210224058"><ele>484.66666666666663</ele><time>2026-04-18T15:27:16.999Z</time></trkpt><trkpt lat="43.078040065497746" lon="13.030646276090472"><ele>484.8333333333333</ele><time>2026-04-18T15:27:17.999Z</time></trkpt><trkpt lat="43.07802441007081" lon="13.03076007575897"><ele>485.0</ele><time>2026-04-18T15:27:18.999Z</time></trkpt><trkpt lat="43.07799822283625" lon="13.03087551653257"><ele>485.0</ele><time>2026-04-18T15:27:19.999Z</time></trkpt><trkpt lat="43.07797849937898" lon="13.031017476165198"><ele>485.0</ele><time>2026-04-18T15:27:20.999Z</time></trkpt><trkpt lat="43.077966628912314" lon="13.031139375454488"><ele>485.0</ele><time>2026-04-18T15:27:21.999Z</time></trkpt><trkpt lat="43.0779637073537" lon="13.0312721770906"><ele>485.0</ele><time>2026-04-18T15:27:22.999Z</time></trkpt><trkpt lat="43.077939521143435" lon="13.031388976280985"><ele>485.0</ele><time>2026-04-18T15:27:23.999Z</time></trkpt><trkpt lat="43.077904285738164" lon="13.031504524441745"><ele>485.0</ele><time>2026-04-18T15:27:24.999Z</time></trkpt><trkpt lat="43.077852826995446" lon="13.03163354637855"><ele>485.0</ele><time>2026-04-18T15:27:25.999Z</time></trkpt><trkpt lat="43.07780361225208" lon="13.031782209070098"><ele>485.0</ele><time>2026-04-18T15:27:26.999Z</time></trkpt><trkpt lat="43.07776707258007" lon="13.031940157454441"><ele>485.0</ele><time>2026-04-18T15:27:27.999Z</time></trkpt><trkpt lat="43.07772898179217" lon="13.03207386940443"><ele>484.2</ele><time>2026-04-18T15:27:28.999Z</time></trkpt><trkpt lat="43.07770512738148" lon="13.032216928896181"><ele>483.4</ele><time>2026-04-18T15:27:29.999Z</time></trkpt><trkpt lat="43.077688062413756" lon="13.032389681538485"><ele>482.6</ele><time>2026-04-18T15:27:30.999Z</time></trkpt><trkpt lat="43.07767965949694" lon="13.032537128507272"><ele>481.8</ele><time>2026-04-18T15:27:31.999Z</time></trkpt><trkpt lat="43.07763831863511" lon="13.03266515394793"><ele>481.0</ele><time>2026-04-18T15:27:32.999Z</time></trkpt><trkpt lat="43.07757912020078" lon="13.032774365519389"><ele>481.00000000000006</ele><time>2026-04-18T15:27:33.999Z</time></trkpt><trkpt lat="43.077507807856534" lon="13.032868970846145"><ele>481.0</ele><time>2026-04-18T15:27:34.999Z</time></trkpt><trkpt lat="43.0774714628648" lon="13.032960354287729"><ele>481.0</ele><time>2026-04-18T15:27:35.999Z</time></trkpt><trkpt lat="43.077470135075785" lon="13.033048870800966"><ele>481.0</ele><time>2026-04-18T15:27:36.999Z</time></trkpt><trkpt lat="43.077508884790106" lon="13.033153626586026"><ele>481.00000000000006</ele><time>2026-04-18T15:27:37.999Z</time></trkpt><trkpt lat="43.07757675746067" lon="13.03327768416884"><ele>481.0</ele><time>2026-04-18T15:27:38.999Z</time></trkpt><trkpt lat="43.077664140574846" lon="13.033389629680903"><ele>480.20000000000005</ele><time>2026-04-18T15:27:39.999Z</time></trkpt><trkpt lat="43.07771689232127" lon="13.033458351896693"><ele>479.40000000000003</ele><time>2026-04-18T15:27:40.999Z</time></trkpt><trkpt lat="43.07780211829812" lon="13.033486943001963"><ele>478.6</ele><time>2026-04-18T15:27:41.999Z</time></trkpt><trkpt lat="43.07791703391828" lon="13.033494304253974"><ele>477.8</ele><time>2026-04-18T15:27:42.999Z</time></trkpt><trkpt lat="43.078041315930804" lon="13.033515170687467"><ele>477.0</ele><time>2026-04-18T15:27:43.999Z</time></trkpt><trkpt lat="43.078152781933625" lon="13.033550338296694"><ele>477.0</ele><time>2026-04-18T15:27:44.999Z</time></trkpt><trkpt lat="43.078254858052155" lon="13.033584138247704"><ele>477.00000000000006</ele><time>2026-04-18T15:27:45.999Z</time></trkpt><trkpt lat="43.07832863349228" lon="13.033560871949993"><ele>477.00000000000006</ele><time>2026-04-18T15:27:46.999Z</time></trkpt><trkpt lat="43.07842173643707" lon="13.033620877641171"><ele>477.0</ele><time>2026-04-18T15:27:47.999Z</time></trkpt><trkpt lat="43.07850994080139" lon="13.03368756258224"><ele>477.0</ele><time>2026-04-18T15:27:48.999Z</time></trkpt><trkpt lat="43.07860211787764" lon="13.033733721947419"><ele>482.25</ele><time>2026-04-18T15:27:49.999Z</time></trkpt><trkpt lat="43.078697761111634" lon="13.03382450509876"><ele>487.5</ele><time>2026-04-18T15:27:50.999Z</time></trkpt><trkpt lat="43.07879586761961" lon="13.033902305815062"><ele>492.75</ele><time>2026-04-18T15:27:51.999Z</time></trkpt><trkpt lat="43.07889751588242" lon="13.033988080946447"><ele>498.0</ele><time>2026-04-18T15:27:52.999Z</time></trkpt><trkpt lat="43.07899647878839" lon="13.034083259769996"><ele>497.75</ele><time>2026-04-18T15:27:53.999Z</time></trkpt><trkpt lat="43.07909325306524" lon="13.03419621655369"><ele>497.5</ele><time>2026-04-18T15:27:54.999Z</time></trkpt><trkpt lat="43.07917768096838" lon="13.034350137825989"><ele>497.25</ele><time>2026-04-18T15:27:55.999Z</time></trkpt><trkpt lat="43.079234792582966" lon="13.034514612287019"><ele>497.0</ele><time>2026-04-18T15:27:56.999Z</time></trkpt><trkpt lat="43.07927290671816" lon="13.034674071446315"><ele>497.0</ele><time>2026-04-18T15:27:57.999Z</time></trkpt><trkpt lat="43.079321935541216" lon="13.034800476352917"><ele>497.0</ele><time>2026-04-18T15:27:58.999Z</time></trkpt><trkpt lat="43.079400439696045" lon="13.034924614284723"><ele>497.0</ele><time>2026-04-18T15:27:59.999Z</time></trkpt><trkpt lat="43.07950984678357" lon="13.035083420573617"><ele>497.0</ele><time>2026-04-18T15:28:00.999Z</time></trkpt><trkpt lat="43.07958727865377" lon="13.035173598520403"><ele>493.8</ele><time>2026-04-18T15:28:01.999Z</time></trkpt><trkpt lat="43.07966719130743" lon="13.035228827824412"><ele>490.6</ele><time>2026-04-18T15:28:02.998Z</time></trkpt><trkpt lat="43.0797185484761" lon="13.035308890504812"><ele>487.40000000000003</ele><time>2026-04-18T15:28:03.998Z</time></trkpt><trkpt lat="43.079758980017296" lon="13.035453940602107"><ele>484.20000000000005</ele><time>2026-04-18T15:28:04.998Z</time></trkpt><trkpt lat="43.079799696416885" lon="13.03560757089441"><ele>481.0</ele><time>2026-04-18T15:28:05.998Z</time></trkpt><trkpt lat="43.07984472252158" lon="13.035739081330474"><ele>481.20000000000005</ele><time>2026-04-18T15:28:06.998Z</time></trkpt><trkpt lat="43.07989140935256" lon="13.035868695563444"><ele>481.40000000000003</ele><time>2026-04-18T15:28:07.998Z</time></trkpt><trkpt lat="43.079929797953646" lon="13.03598455820458"><ele>481.6</ele><time>2026-04-18T15:28:08.998Z</time></trkpt><trkpt lat="43.07995682328442" lon="13.036070965868545"><ele>481.8</ele><time>2026-04-18T15:28:09.998Z</time></trkpt><trkpt lat="43.08004462795365" lon="13.036207370700179"><ele>482.0</ele><time>2026-04-18T15:28:11.998Z</time></trkpt><trkpt lat="43.08013152699934" lon="13.0362887006297"><ele>483.40000000000003</ele><time>2026-04-18T15:28:12.998Z</time></trkpt><trkpt lat="43.080227834176085" lon="13.03635875246616"><ele>484.80000000000007</ele><time>2026-04-18T15:28:13.998Z</time></trkpt><trkpt lat="43.08030355131492" lon="13.036461533272961"><ele>486.2</ele><time>2026-04-18T15:28:14.998Z</time></trkpt><trkpt lat="43.080390362343195" lon="13.036548078299901"><ele>487.6</ele><time>2026-04-18T15:28:15.998Z</time></trkpt><trkpt lat="43.08048604972769" lon="13.036657545717434"><ele>489.0</ele><time>2026-04-18T15:28:16.998Z</time></trkpt><trkpt lat="43.08060145236327" lon="13.03676678894378"><ele>489.2</ele><time>2026-04-18T15:28:17.998Z</time></trkpt><trkpt lat="43.080706463074954" lon="13.036848006019179"><ele>489.4</ele><time>2026-04-18T15:28:18.998Z</time></trkpt><trkpt lat="43.08078611181366" lon="13.036903266388487"><ele>489.6</ele><time>2026-04-18T15:28:19.998Z</time></trkpt><trkpt lat="43.08087671501307" lon="13.036957770919988"><ele>489.8</ele><time>2026-04-18T15:28:20.998Z</time></trkpt><trkpt lat="43.08096005760228" lon="13.037073165443367"><ele>490.0</ele><time>2026-04-18T15:28:21.998Z</time></trkpt><trkpt lat="43.08103673801335" lon="13.037222034669252"><ele>490.0</ele><time>2026-04-18T15:28:22.998Z</time></trkpt><trkpt lat="43.081081491655105" lon="13.037361650059808"><ele>490.0</ele><time>2026-04-18T15:28:23.998Z</time></trkpt><trkpt lat="43.08111136614064" lon="13.03749216088758"><ele>490.0</ele><time>2026-04-18T15:28:24.998Z</time></trkpt><trkpt lat="43.081140828481075" lon="13.037610978329843"><ele>490.0</ele><time>2026-04-18T15:28:25.998Z</time></trkpt><trkpt lat="43.08120026085169" lon="13.037713494312143"><ele>490.0</ele><time>2026-04-18T15:28:26.998Z</time></trkpt><trkpt lat="43.08128179733079" lon="13.037849237766068"><ele>486.2</ele><time>2026-04-18T15:28:27.998Z</time></trkpt><trkpt lat="43.0813577583512" lon="13.037973102275432"><ele>482.4</ele><time>2026-04-18T15:28:28.998Z</time></trkpt><trkpt lat="43.081421545120655" lon="13.038069914053883"><ele>478.6</ele><time>2026-04-18T15:28:29.998Z</time></trkpt><trkpt lat="43.08143885256209" lon="13.038224666807363"><ele>474.8</ele><time>2026-04-18T15:28:30.998Z</time></trkpt><trkpt lat="43.081460068610326" lon="13.038318766569859"><ele>471.0</ele><time>2026-04-18T15:28:32Z</time></trkpt><trkpt lat="43.08146822188342" lon="13.03842280000722"><ele>469.6666666666667</ele><time>2026-04-18T15:28:33Z</time></trkpt><trkpt lat="43.08145753280692" lon="13.038509879226128"><ele>468.33333333333337</ele><time>2026-04-18T15:28:34Z</time></trkpt><trkpt lat="43.08142813337039" lon="13.038600474388288"><ele>467.0</ele><time>2026-04-18T15:28:35Z</time></trkpt><trkpt lat="43.081392540397054" lon="13.03869025495813"><ele>465.6666666666667</ele><time>2026-04-18T15:28:36Z</time></trkpt><trkpt lat="43.08135839703266" lon="13.03876300307245"><ele>464.33333333333337</ele><time>2026-04-18T15:28:37Z</time></trkpt><trkpt lat="43.08134072831125" lon="13.038882895218114"><ele>463.0</ele><time>2026-04-18T15:28:38Z</time></trkpt><trkpt lat="43.0813412051645" lon="13.03900015758156"><ele>463.0</ele><time>2026-04-18T15:28:39Z</time></trkpt><trkpt lat="43.08134683722115" lon="13.039114883050088"><ele>462.99999999999994</ele><time>2026-04-18T15:28:40Z</time></trkpt><trkpt lat="43.08135151571757" lon="13.039249175182354"><ele>462.99999999999994</ele><time>2026-04-18T15:28:41Z</time></trkpt><trkpt lat="43.08136460950576" lon="13.039382035974253"><ele>463.0</ele><time>2026-04-18T15:28:42Z</time></trkpt><trkpt lat="43.08137555003001" lon="13.039499840627132"><ele>463.0</ele><time>2026-04-18T15:28:43Z</time></trkpt><trkpt lat="43.081381223661154" lon="13.039617972712268"><ele>463.2</ele><time>2026-04-18T15:28:44Z</time></trkpt><trkpt lat="43.08137735257214" lon="13.039747371566826"><ele>463.4</ele><time>2026-04-18T15:28:45Z</time></trkpt><trkpt lat="43.081370123762674" lon="13.039886302618243"><ele>463.59999999999997</ele><time>2026-04-18T15:28:46Z</time></trkpt><trkpt lat="43.08135795534971" lon="13.040033565975"><ele>463.79999999999995</ele><time>2026-04-18T15:28:47Z</time></trkpt><trkpt lat="43.08131613757709" lon="13.04017586523505"><ele>464.0</ele><time>2026-04-18T15:28:48Z</time></trkpt><trkpt lat="43.081266896181035" lon="13.04031320283391"><ele>463.4</ele><time>2026-04-18T15:28:48.999Z</time></trkpt><trkpt lat="43.081225812107405" lon="13.040443832591748"><ele>462.79999999999995</ele><time>2026-04-18T15:28:49.999Z</time></trkpt><trkpt lat="43.08120597292241" lon="13.040596198453951"><ele>462.20000000000005</ele><time>2026-04-18T15:28:50.999Z</time></trkpt><trkpt lat="43.08121567500968" lon="13.040733957926731"><ele>461.6</ele><time>2026-04-18T15:28:51.999Z</time></trkpt><trkpt lat="43.081226514500145" lon="13.040851163823948"><ele>461.0</ele><time>2026-04-18T15:28:52.999Z</time></trkpt><trkpt lat="43.08121305904886" lon="13.040951438303406"><ele>460.66666666666663</ele><time>2026-04-18T15:28:53.999Z</time></trkpt><trkpt lat="43.081178021991654" lon="13.041032531126067"><ele>460.3333333333333</ele><time>2026-04-18T15:28:54.999Z</time></trkpt><trkpt lat="43.081147470036335" lon="13.041109845745389"><ele>460.0</ele><time>2026-04-18T15:28:55.999Z</time></trkpt><trkpt lat="43.081118915417186" lon="13.04120537794726"><ele>459.66666666666663</ele><time>2026-04-18T15:28:56.999Z</time></trkpt><trkpt lat="43.081109648325686" lon="13.04129896440511"><ele>459.3333333333333</ele><time>2026-04-18T15:28:57.999Z</time></trkpt><trkpt lat="43.08115142270566" lon="13.041436267245444"><ele>459.0</ele><time>2026-04-18T15:28:59.999Z</time></trkpt><trkpt lat="43.08109230753985" lon="13.04151385799371"><ele>459.0</ele><time>2026-04-18T15:29:04.999Z</time></trkpt><trkpt lat="43.08101315779293" lon="13.04156205175228"><ele>459.0</ele><time>2026-04-18T15:29:06.999Z</time></trkpt><trkpt lat="43.080969771007425" lon="13.041646620010408"><ele>459.0</ele><time>2026-04-18T15:29:08.999Z</time></trkpt><trkpt lat="43.08089888089348" lon="13.041664207833723"><ele>459.0</ele><time>2026-04-18T15:29:11.999Z</time></trkpt><trkpt lat="43.08083673754529" lon="13.04158046087932"><ele>459.0</ele><time>2026-04-18T15:29:13.999Z</time></trkpt><trkpt lat="43.080759731027705" lon="13.041519711191727"><ele>459.0</ele><time>2026-04-18T15:29:15.999Z</time></trkpt><trkpt lat="43.08069413424344" lon="13.041529674036044"><ele>460.2</ele><time>2026-04-18T15:29:21.999Z</time></trkpt><trkpt lat="43.08061669698865" lon="13.04160129027256"><ele>461.4</ele><time>2026-04-18T15:29:23.999Z</time></trkpt><trkpt lat="43.08052439559028" lon="13.041703250657545"><ele>462.6</ele><time>2026-04-18T15:29:25.999Z</time></trkpt><trkpt lat="43.08045581255561" lon="13.041825653258893"><ele>463.8</ele><time>2026-04-18T15:29:27.999Z</time></trkpt><trkpt lat="43.0804532378874" lon="13.041984263997776"><ele>465.0</ele><time>2026-04-18T15:29:29.999Z</time></trkpt><trkpt lat="43.080468894488924" lon="13.04211483335771"><ele>465.0</ele><time>2026-04-18T15:29:31.999Z</time></trkpt><trkpt lat="43.080489026416686" lon="13.04222092143643"><ele>465.0</ele><time>2026-04-18T15:29:33.999Z</time></trkpt><trkpt lat="43.08053782120019" lon="13.042321557279505"><ele>465.0</ele><time>2026-04-18T15:29:35.999Z</time></trkpt><trkpt lat="43.08057216837166" lon="13.042418434643439"><ele>465.0</ele><time>2026-04-18T15:29:37.999Z</time></trkpt><trkpt lat="43.08059441186922" lon="13.042528337830351"><ele>465.0</ele><time>2026-04-18T15:29:39.999Z</time></trkpt><trkpt lat="43.080569460453205" lon="13.042660550675324"><ele>465.0</ele><time>2026-04-18T15:29:41.999Z</time></trkpt><trkpt lat="43.080486076857646" lon="13.04271457674696"><ele>464.5</ele><time>2026-04-18T15:29:43.999Z</time></trkpt><trkpt lat="43.080439645972774" lon="13.042774553653448"><ele>464.0</ele><time>2026-04-18T15:29:44.999Z</time></trkpt><trkpt lat="43.08039107121668" lon="13.042851819775008"><ele>463.5</ele><time>2026-04-18T15:29:45.999Z</time></trkpt><trkpt lat="43.080324943965785" lon="13.04294270888868"><ele>463.0</ele><time>2026-04-18T15:29:46.999Z</time></trkpt><trkpt lat="43.08023810696573" lon="13.043034882623822"><ele>462.5</ele><time>2026-04-18T15:29:47.999Z</time></trkpt><trkpt lat="43.080163163434165" lon="13.043107603402039"><ele>462.0</ele><time>2026-04-18T15:29:48.999Z</time></trkpt><trkpt lat="43.080116021010255" lon="13.043185974378694"><ele>462.0</ele><time>2026-04-18T15:29:49.999Z</time></trkpt><trkpt lat="43.080101357987985" lon="13.043296085571454"><ele>462.00000000000006</ele><time>2026-04-18T15:29:50.999Z</time></trkpt><trkpt lat="43.08012386797047" lon="13.043431194082046"><ele>462.00000000000006</ele><time>2026-04-18T15:29:51.999Z</time></trkpt><trkpt lat="43.080172408952606" lon="13.043577253542349"><ele>462.0</ele><time>2026-04-18T15:29:52.999Z</time></trkpt><trkpt lat="43.08024253833113" lon="13.043718186550064"><ele>462.0</ele><time>2026-04-18T15:29:53.999Z</time></trkpt><trkpt lat="43.08030095758242" lon="13.04389578231285"><ele>461.5</ele><time>2026-04-18T15:29:54.999Z</time></trkpt><trkpt lat="43.08034519548739" lon="13.044078567365405"><ele>461.0</ele><time>2026-04-18T15:29:55.999Z</time></trkpt><trkpt lat="43.08037559147407" lon="13.04425696721525"><ele>460.5</ele><time>2026-04-18T15:29:56.999Z</time></trkpt><trkpt lat="43.08039855809829" lon="13.044457853833018"><ele>460.0</ele><time>2026-04-18T15:29:57.999Z</time></trkpt><trkpt lat="43.08041183070338" lon="13.044649690300286"><ele>459.75</ele><time>2026-04-18T15:29:58.999Z</time></trkpt><trkpt lat="43.080411006313845" lon="13.044825497696008"><ele>459.5</ele><time>2026-04-18T15:29:59.999Z</time></trkpt><trkpt lat="43.08040558315935" lon="13.045002122757817"><ele>459.25</ele><time>2026-04-18T15:30:00.999Z</time></trkpt><trkpt lat="43.080393061676894" lon="13.045177751568838"><ele>459.0</ele><time>2026-04-18T15:30:01.999Z</time></trkpt><trkpt lat="43.08037863834493" lon="13.045351590256663"><ele>458.5</ele><time>2026-04-18T15:30:02.999Z</time></trkpt><trkpt lat="43.080353675986245" lon="13.045529333651135"><ele>458.0</ele><time>2026-04-18T15:30:03.999Z</time></trkpt><trkpt lat="43.080322209777705" lon="13.045705151545791"><ele>457.5</ele><time>2026-04-18T15:30:04.999Z</time></trkpt><trkpt lat="43.08028722410765" lon="13.045871724126846"><ele>457.0</ele><time>2026-04-18T15:30:05.999Z</time></trkpt><trkpt lat="43.0802507275747" lon="13.046038099705049"><ele>456.25</ele><time>2026-04-18T15:30:06.999Z</time></trkpt><trkpt lat="43.08022546944702" lon="13.046211392263478"><ele>455.5</ele><time>2026-04-18T15:30:07.999Z</time></trkpt><trkpt lat="43.0801960299461" lon="13.046374077328325"><ele>454.75</ele><time>2026-04-18T15:30:08.999Z</time></trkpt><trkpt lat="43.08016392521223" lon="13.04652975743155"><ele>454.0</ele><time>2026-04-18T15:30:09.999Z</time></trkpt><trkpt lat="43.08013230979806" lon="13.046668866677763"><ele>453.2</ele><time>2026-04-18T15:30:10.999Z</time></trkpt><trkpt lat="43.08010006577124" lon="13.046800072283517"><ele>452.4</ele><time>2026-04-18T15:30:11.999Z</time></trkpt><trkpt lat="43.08005994726806" lon="13.046929076638694"><ele>451.6</ele><time>2026-04-18T15:30:12.999Z</time></trkpt><trkpt lat="43.08001012378385" lon="13.047064192064916"><ele>450.8</ele><time>2026-04-18T15:30:13.999Z</time></trkpt><trkpt lat="43.07996129189101" lon="13.047201951279801"><ele>450.0</ele><time>2026-04-18T15:30:14.998Z</time></trkpt><trkpt lat="43.0799159571193" lon="13.047335706215607"><ele>450.8</ele><time>2026-04-18T15:30:15.998Z</time></trkpt><trkpt lat="43.07986777048444" lon="13.047470745707997"><ele>451.6</ele><time>2026-04-18T15:30:16.998Z</time></trkpt><trkpt lat="43.079816647366016" lon="13.047608695888968"><ele>452.4</ele><time>2026-04-18T15:30:17.998Z</time></trkpt><trkpt lat="43.079764626335155" lon="13.047741373896848"><ele>453.2</ele><time>2026-04-18T15:30:18.998Z</time></trkpt><trkpt lat="43.079712413988815" lon="13.047870936914702"><ele>454.0</ele><time>2026-04-18T15:30:19.998Z</time></trkpt><trkpt lat="43.07965894519998" lon="13.048002140860007"><ele>454.0</ele><time>2026-04-18T15:30:20.998Z</time></trkpt><trkpt lat="43.079605306859385" lon="13.04812870834302"><ele>454.0</ele><time>2026-04-18T15:30:21.998Z</time></trkpt><trkpt lat="43.07956019176479" lon="13.048258962521075"><ele>454.0</ele><time>2026-04-18T15:30:22.998Z</time></trkpt><trkpt lat="43.079524472172714" lon="13.048392298790068"><ele>454.0</ele><time>2026-04-18T15:30:23.998Z</time></trkpt><trkpt lat="43.07948880711495" lon="13.048529236018773"><ele>454.0</ele><time>2026-04-18T15:30:24.998Z</time></trkpt><trkpt lat="43.079453887873655" lon="13.04866759911867"><ele>453.25</ele><time>2026-04-18T15:30:25.998Z</time></trkpt><trkpt lat="43.07940845141021" lon="13.04880528686183"><ele>452.5</ele><time>2026-04-18T15:30:26.998Z</time></trkpt><trkpt lat="43.07935606869528" lon="13.048937529666071"><ele>451.75</ele><time>2026-04-18T15:30:27.998Z</time></trkpt><trkpt lat="43.07930253858004" lon="13.049079134472372"><ele>451.0</ele><time>2026-04-18T15:30:28.998Z</time></trkpt><trkpt lat="43.07923088155191" lon="13.049231282160054"><ele>450.33333333333337</ele><time>2026-04-18T15:30:29.998Z</time></trkpt><trkpt lat="43.07915233894799" lon="13.049460771040602"><ele>449.66666666666663</ele><time>2026-04-18T15:30:30.998Z</time></trkpt><trkpt lat="43.079059827352935" lon="13.04969230123103"><ele>449.0</ele><time>2026-04-18T15:30:31.998Z</time></trkpt><trkpt lat="43.078968078706964" lon="13.049932120479351"><ele>449.0</ele><time>2026-04-18T15:30:32.998Z</time></trkpt><trkpt lat="43.078921258397045" lon="13.05013903280864"><ele>449.0</ele><time>2026-04-18T15:30:33.998Z</time></trkpt><trkpt lat="43.078913793975794" lon="13.050344741199652"><ele>449.0</ele><time>2026-04-18T15:30:34.998Z</time></trkpt><trkpt lat="43.07893683844466" lon="13.050535795483828"><ele>449.0</ele><time>2026-04-18T15:30:35.998Z</time></trkpt><trkpt lat="43.078948854097256" lon="13.050694719381953"><ele>449.0</ele><time>2026-04-18T15:30:36.998Z</time></trkpt><trkpt lat="43.07889709045852" lon="13.050799473187206"><ele>449.0</ele><time>2026-04-18T15:30:38Z</time></trkpt><trkpt lat="43.07881612203131" lon="13.050868235363945"><ele>449.0</ele><time>2026-04-18T15:30:39Z</time></trkpt><trkpt lat="43.078713014280424" lon="13.050892499593816"><ele>449.0</ele><time>2026-04-18T15:30:40Z</time></trkpt><trkpt lat="43.07859243540733" lon="13.050907115002286"><ele>447.79999999999995</ele><time>2026-04-18T15:30:41Z</time></trkpt><trkpt lat="43.07848636537292" lon="13.05094148193978"><ele>446.59999999999997</ele><time>2026-04-18T15:30:42Z</time></trkpt><trkpt lat="43.07837398312742" lon="13.050967635963435"><ele>445.4</ele><time>2026-04-18T15:30:43Z</time></trkpt><trkpt lat="43.07827097951082" lon="13.050994589462672"><ele>444.2</ele><time>2026-04-18T15:30:44Z</time></trkpt><trkpt lat="43.07816685949087" lon="13.051030634631632"><ele>443.0</ele><time>2026-04-18T15:30:45Z</time></trkpt><trkpt lat="43.07806458382776" lon="13.051069610249854"><ele>443.0</ele><time>2026-04-18T15:30:46Z</time></trkpt><trkpt lat="43.07796811091222" lon="13.051110685988544"><ele>442.99999999999994</ele><time>2026-04-18T15:30:47Z</time></trkpt><trkpt lat="43.07787932537109" lon="13.051152273702034"><ele>442.99999999999994</ele><time>2026-04-18T15:30:48Z</time></trkpt><trkpt lat="43.07778739584295" lon="13.051177423920679"><ele>443.0</ele><time>2026-04-18T15:30:49Z</time></trkpt><trkpt lat="43.07768496673707" lon="13.051219794428864"><ele>443.0</ele><time>2026-04-18T15:30:50Z</time></trkpt><trkpt lat="43.07758872058638" lon="13.051256856439608"><ele>443.0</ele><time>2026-04-18T15:30:51Z</time></trkpt><trkpt lat="43.07750047450686" lon="13.051306057204267"><ele>442.99999999999994</ele><time>2026-04-18T15:30:52Z</time></trkpt><trkpt lat="43.07741677307945" lon="13.05137096744329"><ele>442.99999999999994</ele><time>2026-04-18T15:30:53Z</time></trkpt><trkpt lat="43.07734767447305" lon="13.051444002698092"><ele>443.0</ele><time>2026-04-18T15:30:54Z</time></trkpt><trkpt lat="43.07729322769712" lon="13.051559375190104"><ele>443.0</ele><time>2026-04-18T15:30:55Z</time></trkpt><trkpt lat="43.077256631076274" lon="13.051677124828444"><ele>443.4</ele><time>2026-04-18T15:30:56Z</time></trkpt><trkpt lat="43.0772221825688" lon="13.05179921401946"><ele>443.79999999999995</ele><time>2026-04-18T15:30:57Z</time></trkpt><trkpt lat="43.077180774137176" lon="13.051927950527022"><ele>444.2</ele><time>2026-04-18T15:30:58Z</time></trkpt><trkpt lat="43.07714179088141" lon="13.052070063766468"><ele>444.6</ele><time>2026-04-18T15:30:59Z</time></trkpt><trkpt lat="43.07711401454548" lon="13.052222602311726"><ele>445.0</ele><time>2026-04-18T15:31:00Z</time></trkpt><trkpt lat="43.077083906004795" lon="13.052384782020475"><ele>444.5</ele><time>2026-04-18T15:31:01Z</time></trkpt><trkpt lat="43.07704031598254" lon="13.05254751904559"><ele>444.0</ele><time>2026-04-18T15:31:02Z</time></trkpt><trkpt lat="43.07698120955937" lon="13.052700386013093"><ele>443.5</ele><time>2026-04-18T15:31:02.999Z</time></trkpt><trkpt lat="43.07690834362649" lon="13.052844746892433"><ele>443.0</ele><time>2026-04-18T15:31:03.999Z</time></trkpt><trkpt lat="43.07683057006144" lon="13.052990652961277"><ele>443.0</ele><time>2026-04-18T15:31:04.999Z</time></trkpt><trkpt lat="43.07675399337145" lon="13.053131044886095"><ele>443.0</ele><time>2026-04-18T15:31:05.999Z</time></trkpt><trkpt lat="43.076671812410694" lon="13.05327356815352"><ele>443.0</ele><time>2026-04-18T15:31:06.999Z</time></trkpt><trkpt lat="43.076590724921104" lon="13.053412330637023"><ele>443.0</ele><time>2026-04-18T15:31:07.999Z</time></trkpt><trkpt lat="43.07651091687911" lon="13.053549352688618"><ele>443.5</ele><time>2026-04-18T15:31:08.999Z</time></trkpt><trkpt lat="43.07642790070854" lon="13.05368387804377"><ele>444.0</ele><time>2026-04-18T15:31:09.999Z</time></trkpt><trkpt lat="43.076348036613034" lon="13.053818522176368"><ele>444.5</ele><time>2026-04-18T15:31:10.999Z</time></trkpt><trkpt lat="43.07627532971759" lon="13.053948787035104"><ele>445.0</ele><time>2026-04-18T15:31:11.999Z</time></trkpt><trkpt lat="43.07619819646633" lon="13.05408837028682"><ele>444.25</ele><time>2026-04-18T15:31:12.999Z</time></trkpt><trkpt lat="43.076122847336386" lon="13.05422586035586"><ele>443.5</ele><time>2026-04-18T15:31:13.999Z</time></trkpt><trkpt lat="43.07602798452061" lon="13.054370582516771"><ele>442.75</ele><time>2026-04-18T15:31:14.999Z</time></trkpt><trkpt lat="43.075929728227166" lon="13.054497909822611"><ele>442.0</ele><time>2026-04-18T15:31:15.999Z</time></trkpt><trkpt lat="43.075828534350634" lon="13.054645123978636"><ele>443.0</ele><time>2026-04-18T15:31:16.999Z</time></trkpt><trkpt lat="43.075748796533304" lon="13.054788966412092"><ele>444.0</ele><time>2026-04-18T15:31:17.999Z</time></trkpt><trkpt lat="43.07566953530234" lon="13.054924544964058"><ele>445.0</ele><time>2026-04-18T15:31:18.999Z</time></trkpt><trkpt lat="43.07560064452968" lon="13.055060061689337"><ele>446.0</ele><time>2026-04-18T15:31:19.999Z</time></trkpt><trkpt lat="43.07555752525407" lon="13.055206021722414"><ele>446.0</ele><time>2026-04-18T15:31:20.999Z</time></trkpt><trkpt lat="43.0755468762172" lon="13.055356010812266"><ele>446.0</ele><time>2026-04-18T15:31:21.999Z</time></trkpt><trkpt lat="43.07555811178497" lon="13.055518791614631"><ele>446.0</ele><time>2026-04-18T15:31:22.999Z</time></trkpt><trkpt lat="43.07557886927185" lon="13.055692423326525"><ele>446.0</ele><time>2026-04-18T15:31:23.999Z</time></trkpt><trkpt lat="43.07558851845709" lon="13.055868647103251"><ele>445.0</ele><time>2026-04-18T15:31:24.999Z</time></trkpt><trkpt lat="43.07557496996598" lon="13.056029789419275"><ele>444.0</ele><time>2026-04-18T15:31:25.999Z</time></trkpt><trkpt lat="43.075544436364936" lon="13.056181698558147"><ele>443.0</ele><time>2026-04-18T15:31:26.999Z</time></trkpt><trkpt lat="43.07550681611589" lon="13.056315318302977"><ele>442.0</ele><time>2026-04-18T15:31:27.999Z</time></trkpt><trkpt lat="43.07547206131563" lon="13.056418978410383"><ele>441.0</ele><time>2026-04-18T15:31:28.999Z</time></trkpt><trkpt lat="43.075447838612654" lon="13.056502953606893"><ele>440.4</ele><time>2026-04-18T15:31:29.999Z</time></trkpt><trkpt lat="43.075455764067115" lon="13.056660527382146"><ele>439.8</ele><time>2026-04-18T15:31:31.999Z</time></trkpt><trkpt lat="43.07549581831127" lon="13.056759416603489"><ele>439.19999999999993</ele><time>2026-04-18T15:31:32.999Z</time></trkpt><trkpt lat="43.07556189220389" lon="13.056866112816031"><ele>438.59999999999997</ele><time>2026-04-18T15:31:33.999Z</time></trkpt><trkpt lat="43.07563364887602" lon="13.056962789093479"><ele>438.0</ele><time>2026-04-18T15:31:34.999Z</time></trkpt><trkpt lat="43.07571275402543" lon="13.057077457701885"><ele>437.25</ele><time>2026-04-18T15:31:35.999Z</time></trkpt><trkpt lat="43.075792015642875" lon="13.05719554972647"><ele>436.5</ele><time>2026-04-18T15:31:36.999Z</time></trkpt><trkpt lat="43.07587957784273" lon="13.057297697313654"><ele>435.75</ele><time>2026-04-18T15:31:37.999Z</time></trkpt><trkpt lat="43.075976945874025" lon="13.05738364461681"><ele>435.0</ele><time>2026-04-18T15:31:38.999Z</time></trkpt><trkpt lat="43.07608346749662" lon="13.057459038494923"><ele>434.8</ele><time>2026-04-18T15:31:39.999Z</time></trkpt><trkpt lat="43.076194003293416" lon="13.057524721382586"><ele>434.6</ele><time>2026-04-18T15:31:40.999Z</time></trkpt><trkpt lat="43.0762994169762" lon="13.05759147191464"><ele>434.4</ele><time>2026-04-18T15:31:41.999Z</time></trkpt><trkpt lat="43.07638260294013" lon="13.057655979094205"><ele>434.2</ele><time>2026-04-18T15:31:42.999Z</time></trkpt><trkpt lat="43.07644076260005" lon="13.057722316631306"><ele>434.0</ele><time>2026-04-18T15:31:43.999Z</time></trkpt><trkpt lat="43.076478799868" lon="13.057858919332812"><ele>434.0</ele><time>2026-04-18T15:31:45.999Z</time></trkpt><trkpt lat="43.076459285969" lon="13.057957134171563"><ele>434.0</ele><time>2026-04-18T15:31:46.999Z</time></trkpt><trkpt lat="43.07643242818093" lon="13.058067614177151"><ele>434.0</ele><time>2026-04-18T15:31:47.999Z</time></trkpt><trkpt lat="43.07640177255531" lon="13.058182904131165"><ele>434.0</ele><time>2026-04-18T15:31:48.999Z</time></trkpt><trkpt lat="43.076366840778924" lon="13.058309432569901"><ele>434.0</ele><time>2026-04-18T15:31:49.999Z</time></trkpt><trkpt lat="43.076328940090434" lon="13.058445293770381"><ele>434.2</ele><time>2026-04-18T15:31:50.999Z</time></trkpt><trkpt lat="43.07629533798848" lon="13.058589169676916"><ele>434.4</ele><time>2026-04-18T15:31:51.999Z</time></trkpt><trkpt lat="43.0762668210423" lon="13.058738357497996"><ele>434.6</ele><time>2026-04-18T15:31:52.999Z</time></trkpt><trkpt lat="43.07623675555201" lon="13.058876102071896"><ele>434.8</ele><time>2026-04-18T15:31:53.999Z</time></trkpt><trkpt lat="43.076202214051946" lon="13.059014182940064"><ele>435.0</ele><time>2026-04-18T15:31:54.999Z</time></trkpt><trkpt lat="43.07616542955308" lon="13.059155904260017"><ele>435.4</ele><time>2026-04-18T15:31:55.999Z</time></trkpt><trkpt lat="43.07612747025786" lon="13.059302582397795"><ele>435.8</ele><time>2026-04-18T15:31:56.999Z</time></trkpt><trkpt lat="43.07608955349356" lon="13.059444587572314"><ele>436.20000000000005</ele><time>2026-04-18T15:31:57.999Z</time></trkpt><trkpt lat="43.07605300390515" lon="13.059583244890565"><ele>436.6</ele><time>2026-04-18T15:31:58.999Z</time></trkpt><trkpt lat="43.07601982326533" lon="13.05971085434311"><ele>437.0</ele><time>2026-04-18T15:31:59.999Z</time></trkpt><trkpt lat="43.07598723590188" lon="13.059833713494509"><ele>436.99999999999994</ele><time>2026-04-18T15:32:00.999Z</time></trkpt><trkpt lat="43.07595587076455" lon="13.05995623553365"><ele>437.0</ele><time>2026-04-18T15:32:01.999Z</time></trkpt><trkpt lat="43.0759329680862" lon="13.060058809901163"><ele>437.0</ele><time>2026-04-18T15:32:02.999Z</time></trkpt><trkpt lat="43.075881531901445" lon="13.060189137449125"><ele>437.0</ele><time>2026-04-18T15:32:04.999Z</time></trkpt><trkpt lat="43.075794971258105" lon="13.060206444609417"><ele>436.99999999999994</ele><time>2026-04-18T15:32:06.999Z</time></trkpt><trkpt lat="43.075722866448984" lon="13.060241541581172"><ele>437.0</ele><time>2026-04-18T15:32:08.999Z</time></trkpt><trkpt lat="43.07570567553999" lon="13.060338714402256"><ele>431.0</ele><time>2026-04-18T15:32:10.999Z</time></trkpt><trkpt lat="43.07568810353545" lon="13.06044040210099"><ele>431.0</ele><time>2026-04-18T15:32:12.999Z</time></trkpt><trkpt lat="43.07565116816464" lon="13.060522743848983"><ele>431.0</ele><time>2026-04-18T15:32:14.999Z</time></trkpt><trkpt lat="43.075575409058324" lon="13.060529438352097"><ele>431.0</ele><time>2026-04-18T15:32:19.999Z</time></trkpt></trkseg></trk></gpx>